<?xml version='1.0' encoding='UTF-8'?><gpx version="1.1" creator="JPX - https://github.com/jenetics/jpx" xmlns="http://www.topografix.com/GPX/1/1"><trk><trkseg><trkpt lat="44.09151585901622" lon="12.395118410389642"><ele>35.0</ele><time>2026-04-12T07:02:03.999Z</time></trkpt><trkpt lat="44.09158204710973" lon="12.395092824398803"><ele>35.0</ele><time>2026-04-12T07:04:02.999Z</time></trkpt><trkpt lat="44.091654036067446" lon="12.395130046913902"><ele>35.0</ele><time>2026-04-12T07:04:30.999Z</time></trkpt><trkpt lat="44.091688966527116" lon="12.395225098586547"><ele>35.0</ele><time>2026-04-12T07:05:16.999Z</time></trkpt><trkpt lat="44.09170062408961" lon="12.395352291324555"><ele>35.0</ele><time>2026-04-12T07:05:18.999Z</time></trkpt><trkpt lat="44.09177826949528" lon="12.395403453565446"><ele>35.0</ele><time>2026-04-12T07:05:20.999Z</time></trkpt><trkpt lat="44.09184989908673" lon="12.395411297038196"><ele>33.75</ele><time>2026-04-12T07:05:22.999Z</time></trkpt><trkpt lat="44.09195741963136" lon="12.395429590150922"><ele>32.5</ele><time>2026-04-12T07:05:24.999Z</time></trkpt><trkpt lat="44.092086720531114" lon="12.395426595721167"><ele>31.25</ele><time>2026-04-12T07:05:26.999Z</time></trkpt><trkpt lat="44.09220398970625" lon="12.395404485756217"><ele>30.0</ele><time>2026-04-12T07:05:28.999Z</time></trkpt><trkpt lat="44.092318789781174" lon="12.395378792560305"><ele>30.0</ele><time>2026-04-12T07:05:30.999Z</time></trkpt><trkpt lat="44.09241038662134" lon="12.395369633791846"><ele>30.0</ele><time>2026-04-12T07:05:32.999Z</time></trkpt><trkpt lat="44.09249428031321" lon="12.395331476994219"><ele>30.0</ele><time>2026-04-12T07:05:35.999Z</time></trkpt><trkpt lat="44.09256755416637" lon="12.395281117362746"><ele>30.0</ele><time>2026-04-12T07:05:39.999Z</time></trkpt><trkpt lat="44.09257547844196" lon="12.395120569622758"><ele>30.0</ele><time>2026-04-12T07:05:41.999Z</time></trkpt><trkpt lat="44.09256859780799" lon="12.395029733955246"><ele>30.0</ele><time>2026-04-12T07:05:42.999Z</time></trkpt><trkpt lat="44.09256889748842" lon="12.394940900791694"><ele>30.5</ele><time>2026-04-12T07:05:43.999Z</time></trkpt><trkpt lat="44.09256348009585" lon="12.394852591662477"><ele>31.0</ele><time>2026-04-12T07:05:44.999Z</time></trkpt><trkpt lat="44.09256283464228" lon="12.39469258137052"><ele>31.5</ele><time>2026-04-12T07:05:46.999Z</time></trkpt><trkpt lat="44.09255747036595" lon="12.394552566008121"><ele>32.0</ele><time>2026-04-12T07:05:48.999Z</time></trkpt><trkpt lat="44.0925507496755" lon="12.394408806663712"><ele>32.5</ele><time>2026-04-12T07:05:50.999Z</time></trkpt><trkpt lat="44.092535887691724" lon="12.394321234258967"><ele>33.0</ele><time>2026-04-12T07:05:51.999Z</time></trkpt><trkpt lat="44.092540586563025" lon="12.394216490476204"><ele>33.0</ele><time>2026-04-12T07:05:52.999Z</time></trkpt><trkpt lat="44.092516584064455" lon="12.394063074829235"><ele>33.0</ele><time>2026-04-12T07:05:54.999Z</time></trkpt><trkpt lat="44.09251745119985" lon="12.393948800793291"><ele>33.0</ele><time>2026-04-12T07:05:56.999Z</time></trkpt><trkpt lat="44.09259358097226" lon="12.393903057795885"><ele>33.0</ele><time>2026-04-12T07:05:59.999Z</time></trkpt><trkpt lat="44.09266771217968" lon="12.393970216915665"><ele>33.0</ele><time>2026-04-12T07:06:01.999Z</time></trkpt><trkpt lat="44.092734823158565" lon="12.394021950210874"><ele>33.0</ele><time>2026-04-12T07:06:03.999Z</time></trkpt><trkpt lat="44.092805687771566" lon="12.39399273913034"><ele>33.0</ele><time>2026-04-12T07:06:14.998Z</time></trkpt><trkpt lat="44.0927800498771" lon="12.393836356604389"><ele>33.0</ele><time>2026-04-12T07:06:16.998Z</time></trkpt><trkpt lat="44.092712115315614" lon="12.393733438144892"><ele>33.0</ele><time>2026-04-12T07:06:17.998Z</time></trkpt><trkpt lat="44.092657091987384" lon="12.393675511971713"><ele>33.0</ele><time>2026-04-12T07:06:18.998Z</time></trkpt><trkpt lat="44.092606249542136" lon="12.393594217030069"><ele>33.0</ele><time>2026-04-12T07:06:19.998Z</time></trkpt><trkpt lat="44.09255930888072" lon="12.3934963200311"><ele>33.0</ele><time>2026-04-12T07:06:20.998Z</time></trkpt><trkpt lat="44.09251268696913" lon="12.393384211827279"><ele>33.0</ele><time>2026-04-12T07:06:21.998Z</time></trkpt><trkpt lat="44.09247774914133" lon="12.393265328159675"><ele>33.0</ele><time>2026-04-12T07:06:22.998Z</time></trkpt><trkpt lat="44.09245751800628" lon="12.393143815128274"><ele>33.0</ele><time>2026-04-12T07:06:23.998Z</time></trkpt><trkpt lat="44.092439874409656" lon="12.393014374310141"><ele>33.0</ele><time>2026-04-12T07:06:24.998Z</time></trkpt><trkpt lat="44.09242518703403" lon="12.39288049759786"><ele>33.0</ele><time>2026-04-12T07:06:25.998Z</time></trkpt><trkpt lat="44.092415098766054" lon="12.392738794146409"><ele>33.0</ele><time>2026-04-12T07:06:26.998Z</time></trkpt><trkpt lat="44.092406927699685" lon="12.392594397579009"><ele>33.0</ele><time>2026-04-12T07:06:27.998Z</time></trkpt><trkpt lat="44.09240532695894" lon="12.392439599872086"><ele>33.0</ele><time>2026-04-12T07:06:28.998Z</time></trkpt><trkpt lat="44.09239944729609" lon="12.392288310077594"><ele>33.0</ele><time>2026-04-12T07:06:29.998Z</time></trkpt><trkpt lat="44.09238930987143" lon="12.392131166686294"><ele>33.0</ele><time>2026-04-12T07:06:30.999Z</time></trkpt><trkpt lat="44.09237892394496" lon="12.391974995481723"><ele>32.833333333333336</ele><time>2026-04-12T07:06:31.999Z</time></trkpt><trkpt lat="44.09236856826859" lon="12.391822498397632"><ele>32.666666666666664</ele><time>2026-04-12T07:06:32.999Z</time></trkpt><trkpt lat="44.092364783799454" lon="12.39168689339629"><ele>32.5</ele><time>2026-04-12T07:06:33.999Z</time></trkpt><trkpt lat="44.0923553611405" lon="12.391565968944086"><ele>32.33333333333333</ele><time>2026-04-12T07:06:34.999Z</time></trkpt><trkpt lat="44.0923456426734" lon="12.391459873915007"><ele>32.166666666666664</ele><time>2026-04-12T07:06:35.999Z</time></trkpt><trkpt lat="44.092337653928766" lon="12.391359381872872"><ele>32.0</ele><time>2026-04-12T07:06:36.999Z</time></trkpt><trkpt lat="44.09234732634333" lon="12.391239179925561"><ele>31.999999999999996</ele><time>2026-04-12T07:06:38.999Z</time></trkpt><trkpt lat="44.0923729672381" lon="12.391115154371436"><ele>32.0</ele><time>2026-04-12T07:06:49.999Z</time></trkpt><trkpt lat="44.09239809114976" lon="12.391030874057078"><ele>32.0</ele><time>2026-04-12T07:06:50.999Z</time></trkpt><trkpt lat="44.092410948703666" lon="12.390914917986153"><ele>32.0</ele><time>2026-04-12T07:06:51.999Z</time></trkpt><trkpt lat="44.09241443151602" lon="12.390791815616625"><ele>31.999999999999996</ele><time>2026-04-12T07:06:52.999Z</time></trkpt><trkpt lat="44.0924057139327" lon="12.39065173059754"><ele>32.0</ele><time>2026-04-12T07:06:53.999Z</time></trkpt><trkpt lat="44.09237470836447" lon="12.39052179445743"><ele>32.5</ele><time>2026-04-12T07:06:54.999Z</time></trkpt><trkpt lat="44.0923419297182" lon="12.39038271274339"><ele>33.0</ele><time>2026-04-12T07:06:55.999Z</time></trkpt><trkpt lat="44.092312727249094" lon="12.390236856448354"><ele>33.5</ele><time>2026-04-12T07:06:56.999Z</time></trkpt><trkpt lat="44.092295554092985" lon="12.390072426929567"><ele>34.0</ele><time>2026-04-12T07:06:57.999Z</time></trkpt><trkpt lat="44.092275528211914" lon="12.389888814392533"><ele>34.0</ele><time>2026-04-12T07:06:58.999Z</time></trkpt><trkpt lat="44.09226006124001" lon="12.389685191552662"><ele>34.0</ele><time>2026-04-12T07:06:59.999Z</time></trkpt><trkpt lat="44.09224746007478" lon="12.38948557927203"><ele>34.0</ele><time>2026-04-12T07:07:00.999Z</time></trkpt><trkpt lat="44.09223552985633" lon="12.389279444458358"><ele>34.0</ele><time>2026-04-12T07:07:01.999Z</time></trkpt><trkpt lat="44.09222559339788" lon="12.389071665109526"><ele>33.66666666666667</ele><time>2026-04-12T07:07:02.999Z</time></trkpt><trkpt lat="44.09221326221442" lon="12.388855809283994"><ele>33.333333333333336</ele><time>2026-04-12T07:07:03.999Z</time></trkpt><trkpt lat="44.09219970074856" lon="12.388635000936828"><ele>33.0</ele><time>2026-04-12T07:07:04.999Z</time></trkpt><trkpt lat="44.09218564628324" lon="12.388410069260024"><ele>33.0</ele><time>2026-04-12T07:07:05.999Z</time></trkpt><trkpt lat="44.092170269846605" lon="12.388193054082375"><ele>33.0</ele><time>2026-04-12T07:07:06.999Z</time></trkpt><trkpt lat="44.092150396328115" lon="12.387991872595808"><ele>33.0</ele><time>2026-04-12T07:07:07.999Z</time></trkpt><trkpt lat="44.09213210069733" lon="12.387789911411813"><ele>33.0</ele><time>2026-04-12T07:07:08.999Z</time></trkpt><trkpt lat="44.09213193721133" lon="12.387589273651887"><ele>33.0</ele><time>2026-04-12T07:07:09.999Z</time></trkpt><trkpt lat="44.09211919367816" lon="12.387380788312417"><ele>33.0</ele><time>2026-04-12T07:07:10.999Z</time></trkpt><trkpt lat="44.09210821598609" lon="12.387199409561308"><ele>33.0</ele><time>2026-04-12T07:07:11.999Z</time></trkpt><trkpt lat="44.09209744831009" lon="12.38702150063315"><ele>33.0</ele><time>2026-04-12T07:07:12.999Z</time></trkpt><trkpt lat="44.09207249008113" lon="12.386602248136002"><ele>33.0</ele><time>2026-04-12T07:07:14Z</time></trkpt><trkpt lat="44.0920595818407" lon="12.386372752759224"><ele>33.0</ele><time>2026-04-12T07:07:15Z</time></trkpt><trkpt lat="44.09204332552761" lon="12.386146342800881"><ele>33.0</ele><time>2026-04-12T07:07:16Z</time></trkpt><trkpt lat="44.092021476691535" lon="12.385920686359626"><ele>33.666666666666664</ele><time>2026-04-12T07:07:17Z</time></trkpt><trkpt lat="44.09199945891848" lon="12.38569338997629"><ele>34.33333333333333</ele><time>2026-04-12T07:07:18Z</time></trkpt><trkpt lat="44.0919895258448" lon="12.38547005864512"><ele>35.0</ele><time>2026-04-12T07:07:19Z</time></trkpt><trkpt lat="44.09197956514496" lon="12.385240435400755"><ele>35.0</ele><time>2026-04-12T07:07:20Z</time></trkpt><trkpt lat="44.09197153659133" lon="12.385013963648044"><ele>35.0</ele><time>2026-04-12T07:07:21Z</time></trkpt><trkpt lat="44.09196401046372" lon="12.384790671124353"><ele>35.0</ele><time>2026-04-12T07:07:22Z</time></trkpt><trkpt lat="44.09195189339173" lon="12.384564826198876"><ele>34.666666666666664</ele><time>2026-04-12T07:07:23Z</time></trkpt><trkpt lat="44.09193431190084" lon="12.38433464561278"><ele>34.333333333333336</ele><time>2026-04-12T07:07:24Z</time></trkpt><trkpt lat="44.0919184764505" lon="12.38409738539987"><ele>34.0</ele><time>2026-04-12T07:07:25Z</time></trkpt><trkpt lat="44.09190215635856" lon="12.38386008407963"><ele>33.66666666666667</ele><time>2026-04-12T07:07:26Z</time></trkpt><trkpt lat="44.091888650368666" lon="12.383623403263497"><ele>33.333333333333336</ele><time>2026-04-12T07:07:27Z</time></trkpt><trkpt lat="44.09187363257377" lon="12.383401116617073"><ele>33.0</ele><time>2026-04-12T07:07:28Z</time></trkpt><trkpt lat="44.09186602066839" lon="12.383171352236255"><ele>33.0</ele><time>2026-04-12T07:07:29Z</time></trkpt><trkpt lat="44.091853430822624" lon="12.382941746628306"><ele>33.0</ele><time>2026-04-12T07:07:30Z</time></trkpt><trkpt lat="44.09184507456809" lon="12.382708002099823"><ele>33.0</ele><time>2026-04-12T07:07:31Z</time></trkpt><trkpt lat="44.091834577486516" lon="12.382470671982782"><ele>33.0</ele><time>2026-04-12T07:07:32Z</time></trkpt><trkpt lat="44.09182563532137" lon="12.38223068796097"><ele>33.0</ele><time>2026-04-12T07:07:33Z</time></trkpt><trkpt lat="44.09181251700302" lon="12.381995046646873"><ele>33.0</ele><time>2026-04-12T07:07:34Z</time></trkpt><trkpt lat="44.09179986408521" lon="12.381747895357309"><ele>33.0</ele><time>2026-04-12T07:07:35Z</time></trkpt><trkpt lat="44.0917845272493" lon="12.381505853644288"><ele>33.0</ele><time>2026-04-12T07:07:36Z</time></trkpt><trkpt lat="44.091773682494036" lon="12.381258209694902"><ele>33.0</ele><time>2026-04-12T07:07:37Z</time></trkpt><trkpt lat="44.09176135216937" lon="12.381008783461484"><ele>33.0</ele><time>2026-04-12T07:07:38Z</time></trkpt><trkpt lat="44.09174878469397" lon="12.380764233883765"><ele>33.0</ele><time>2026-04-12T07:07:39Z</time></trkpt><trkpt lat="44.09173408733367" lon="12.380514980403293"><ele>33.0</ele><time>2026-04-12T07:07:40Z</time></trkpt><trkpt lat="44.09172094349773" lon="12.380259364629866"><ele>33.333333333333336</ele><time>2026-04-12T07:07:41Z</time></trkpt><trkpt lat="44.09170678187568" lon="12.38001254569476"><ele>33.66666666666667</ele><time>2026-04-12T07:07:42Z</time></trkpt><trkpt lat="44.091694655720055" lon="12.379756446802782"><ele>34.0</ele><time>2026-04-12T07:07:43Z</time></trkpt><trkpt lat="44.09168099580139" lon="12.37950329936471"><ele>33.333333333333336</ele><time>2026-04-12T07:07:44Z</time></trkpt><trkpt lat="44.091665616761595" lon="12.379258900144633"><ele>32.666666666666664</ele><time>2026-04-12T07:07:45Z</time></trkpt><trkpt lat="44.0916589337454" lon="12.379000707903675"><ele>32.0</ele><time>2026-04-12T07:07:46Z</time></trkpt><trkpt lat="44.091641588050116" lon="12.37876658387723"><ele>32.0</ele><time>2026-04-12T07:07:47Z</time></trkpt><trkpt lat="44.09162511744918" lon="12.378542820637453"><ele>32.0</ele><time>2026-04-12T07:07:48Z</time></trkpt><trkpt lat="44.0916172400145" lon="12.378334531115748"><ele>32.0</ele><time>2026-04-12T07:07:49Z</time></trkpt><trkpt lat="44.0916048424653" lon="12.378138854108412"><ele>32.5</ele><time>2026-04-12T07:07:50Z</time></trkpt><trkpt lat="44.091588064154834" lon="12.377961447402718"><ele>33.0</ele><time>2026-04-12T07:07:51Z</time></trkpt><trkpt lat="44.09157401953141" lon="12.377795557530916"><ele>33.5</ele><time>2026-04-12T07:07:52Z</time></trkpt><trkpt lat="44.091562844095655" lon="12.377635963462124"><ele>34.0</ele><time>2026-04-12T07:07:53Z</time></trkpt><trkpt lat="44.09155232674515" lon="12.377481182288012"><ele>34.0</ele><time>2026-04-12T07:07:54Z</time></trkpt><trkpt lat="44.09155158888756" lon="12.377315831811957"><ele>34.0</ele><time>2026-04-12T07:07:55Z</time></trkpt><trkpt lat="44.09155013878487" lon="12.377135993390988"><ele>34.0</ele><time>2026-04-12T07:07:56Z</time></trkpt><trkpt lat="44.09153671470423" lon="12.376948170489962"><ele>34.0</ele><time>2026-04-12T07:07:57Z</time></trkpt><trkpt lat="44.09152703529481" lon="12.37675275365467"><ele>34.0</ele><time>2026-04-12T07:07:58Z</time></trkpt><trkpt lat="44.09151492269554" lon="12.376567149225407"><ele>34.0</ele><time>2026-04-12T07:07:59Z</time></trkpt><trkpt lat="44.091507283030445" lon="12.37639746191531"><ele>34.0</ele><time>2026-04-12T07:08:00Z</time></trkpt><trkpt lat="44.0914990101343" lon="12.376238207672051"><ele>34.0</ele><time>2026-04-12T07:08:01Z</time></trkpt><trkpt lat="44.09148778680616" lon="12.376088971539918"><ele>34.0</ele><time>2026-04-12T07:08:02Z</time></trkpt><trkpt lat="44.091481122164" lon="12.375948010428402"><ele>34.0</ele><time>2026-04-12T07:08:03Z</time></trkpt><trkpt lat="44.0914745486072" lon="12.375811271625052"><ele>34.0</ele><time>2026-04-12T07:08:04Z</time></trkpt><trkpt lat="44.09146961208097" lon="12.375670031140698"><ele>34.0</ele><time>2026-04-12T07:08:05Z</time></trkpt><trkpt lat="44.09146197581386" lon="12.375518650935438"><ele>34.0</ele><time>2026-04-12T07:08:06Z</time></trkpt><trkpt lat="44.09145419138334" lon="12.375370302855593"><ele>34.0</ele><time>2026-04-12T07:08:07Z</time></trkpt><trkpt lat="44.09144371550411" lon="12.37523052230263"><ele>34.0</ele><time>2026-04-12T07:08:08Z</time></trkpt><trkpt lat="44.09144151672808" lon="12.375096481062014"><ele>34.0</ele><time>2026-04-12T07:08:09Z</time></trkpt><trkpt lat="44.09143667873104" lon="12.374970740693735"><ele>34.0</ele><time>2026-04-12T07:08:10Z</time></trkpt><trkpt lat="44.09142879533244" lon="12.374848961782375"><ele>34.0</ele><time>2026-04-12T07:08:11Z</time></trkpt><trkpt lat="44.09142099636397" lon="12.374711137493026"><ele>34.0</ele><time>2026-04-12T07:08:12Z</time></trkpt><trkpt lat="44.09141293999907" lon="12.374567324583731"><ele>34.0</ele><time>2026-04-12T07:08:13Z</time></trkpt><trkpt lat="44.091398556324464" lon="12.37442906372567"><ele>34.0</ele><time>2026-04-12T07:08:14Z</time></trkpt><trkpt lat="44.0913935281908" lon="12.374269028774684"><ele>34.0</ele><time>2026-04-12T07:08:15Z</time></trkpt><trkpt lat="44.09138619756373" lon="12.374123898875807"><ele>34.0</ele><time>2026-04-12T07:08:16Z</time></trkpt><trkpt lat="44.09137872758088" lon="12.373976856303894"><ele>34.25</ele><time>2026-04-12T07:08:17Z</time></trkpt><trkpt lat="44.09136597260611" lon="12.373822745933513"><ele>34.5</ele><time>2026-04-12T07:08:18Z</time></trkpt><trkpt lat="44.09135658290516" lon="12.373662282886993"><ele>34.75</ele><time>2026-04-12T07:08:19Z</time></trkpt><trkpt lat="44.09135127958838" lon="12.373504046751705"><ele>35.0</ele><time>2026-04-12T07:08:19.999Z</time></trkpt><trkpt lat="44.091340766237025" lon="12.373345245717553"><ele>35.0</ele><time>2026-04-12T07:08:20.999Z</time></trkpt><trkpt lat="44.091331673538306" lon="12.3732000920716"><ele>35.0</ele><time>2026-04-12T07:08:21.999Z</time></trkpt><trkpt lat="44.09132581029421" lon="12.373064543489022"><ele>35.0</ele><time>2026-04-12T07:08:22.999Z</time></trkpt><trkpt lat="44.09131742638395" lon="12.372941591002766"><ele>35.0</ele><time>2026-04-12T07:08:23.999Z</time></trkpt><trkpt lat="44.09131122399341" lon="12.372830190592095"><ele>35.0</ele><time>2026-04-12T07:08:24.999Z</time></trkpt><trkpt lat="44.091307138840556" lon="12.372732969379646"><ele>35.0</ele><time>2026-04-12T07:08:25.999Z</time></trkpt><trkpt lat="44.09130075995972" lon="12.372633556090653"><ele>35.166666666666664</ele><time>2026-04-12T07:08:26.999Z</time></trkpt><trkpt lat="44.09129484561582" lon="12.372517443786535"><ele>35.33333333333333</ele><time>2026-04-12T07:08:27.999Z</time></trkpt><trkpt lat="44.09128407760358" lon="12.372391697826698"><ele>35.5</ele><time>2026-04-12T07:08:28.999Z</time></trkpt><trkpt lat="44.09128515093063" lon="12.37227013053595"><ele>35.666666666666664</ele><time>2026-04-12T07:08:29.999Z</time></trkpt><trkpt lat="44.09127556078802" lon="12.37215610037525"><ele>35.833333333333336</ele><time>2026-04-12T07:08:30.999Z</time></trkpt><trkpt lat="44.091273075232706" lon="12.372043033516412"><ele>36.0</ele><time>2026-04-12T07:08:31.999Z</time></trkpt><trkpt lat="44.09126665979722" lon="12.371920311925958"><ele>36.166666666666664</ele><time>2026-04-12T07:08:32.999Z</time></trkpt><trkpt lat="44.09126213629235" lon="12.371808823193113"><ele>36.333333333333336</ele><time>2026-04-12T07:08:33.999Z</time></trkpt><trkpt lat="44.09126155273265" lon="12.371709426063829"><ele>36.5</ele><time>2026-04-12T07:08:34.999Z</time></trkpt><trkpt lat="44.09126187148202" lon="12.371587160941957"><ele>36.66666666666667</ele><time>2026-04-12T07:08:36.999Z</time></trkpt><trkpt lat="44.09126366407874" lon="12.371485947569278"><ele>36.833333333333336</ele><time>2026-04-12T07:08:39.999Z</time></trkpt><trkpt lat="44.0912760090626" lon="12.371348049407114"><ele>37.0</ele><time>2026-04-12T07:08:42.999Z</time></trkpt><trkpt lat="44.091293947640274" lon="12.371167252631714"><ele>37.0</ele><time>2026-04-12T07:08:44.999Z</time></trkpt><trkpt lat="44.09131121115575" lon="12.371054246088667"><ele>37.0</ele><time>2026-04-12T07:08:45.999Z</time></trkpt><trkpt lat="44.091333834366445" lon="12.370933885939646"><ele>37.0</ele><time>2026-04-12T07:08:46.999Z</time></trkpt><trkpt lat="44.09135347019206" lon="12.370807531699791"><ele>37.0</ele><time>2026-04-12T07:08:48Z</time></trkpt><trkpt lat="44.09138372169981" lon="12.370659308580876"><ele>37.0</ele><time>2026-04-12T07:08:49Z</time></trkpt><trkpt lat="44.09140939193151" lon="12.370504414096471"><ele>36.75</ele><time>2026-04-12T07:08:50Z</time></trkpt><trkpt lat="44.09144049485491" lon="12.370338865099447"><ele>36.5</ele><time>2026-04-12T07:08:51Z</time></trkpt><trkpt lat="44.09147135401584" lon="12.370175794612672"><ele>36.25</ele><time>2026-04-12T07:08:52Z</time></trkpt><trkpt lat="44.09150704902715" lon="12.370002867112076"><ele>36.0</ele><time>2026-04-12T07:08:53Z</time></trkpt><trkpt lat="44.09154766894233" lon="12.369827209108998"><ele>36.25</ele><time>2026-04-12T07:08:54Z</time></trkpt><trkpt lat="44.09159324922995" lon="12.369671286718946"><ele>36.5</ele><time>2026-04-12T07:08:55Z</time></trkpt><trkpt lat="44.09165086448469" lon="12.369532652905201"><ele>36.75</ele><time>2026-04-12T07:08:56Z</time></trkpt><trkpt lat="44.09172292881061" lon="12.369410647696528"><ele>37.0</ele><time>2026-04-12T07:08:57Z</time></trkpt><trkpt lat="44.091815915598595" lon="12.369299692769959"><ele>37.0</ele><time>2026-04-12T07:08:58Z</time></trkpt><trkpt lat="44.0919057796924" lon="12.369190264457155"><ele>37.0</ele><time>2026-04-12T07:08:59Z</time></trkpt><trkpt lat="44.091978973445485" lon="12.369070394316994"><ele>37.0</ele><time>2026-04-12T07:09:00Z</time></trkpt><trkpt lat="44.09202461002702" lon="12.368916751276162"><ele>37.0</ele><time>2026-04-12T07:09:01Z</time></trkpt><trkpt lat="44.092044950048866" lon="12.368751279352443"><ele>36.75</ele><time>2026-04-12T07:09:02Z</time></trkpt><trkpt lat="44.092060980129546" lon="12.368575619939639"><ele>36.5</ele><time>2026-04-12T07:09:03Z</time></trkpt><trkpt lat="44.09212065281739" lon="12.368404637947297"><ele>36.25</ele><time>2026-04-12T07:09:04Z</time></trkpt><trkpt lat="44.0922056621054" lon="12.368238365744757"><ele>36.0</ele><time>2026-04-12T07:09:05Z</time></trkpt><trkpt lat="44.09229723635857" lon="12.368072776589582"><ele>36.0</ele><time>2026-04-12T07:09:06Z</time></trkpt><trkpt lat="44.09239481794898" lon="12.367897806900812"><ele>36.0</ele><time>2026-04-12T07:09:07Z</time></trkpt><trkpt lat="44.09249305289351" lon="12.367711373277674"><ele>36.0</ele><time>2026-04-12T07:09:08Z</time></trkpt><trkpt lat="44.092604058904215" lon="12.367494032761416"><ele>36.0</ele><time>2026-04-12T07:09:09Z</time></trkpt><trkpt lat="44.092757417630565" lon="12.367249045611755"><ele>36.0</ele><time>2026-04-12T07:09:10Z</time></trkpt><trkpt lat="44.09290777668182" lon="12.366986785822247"><ele>36.5</ele><time>2026-04-12T07:09:11Z</time></trkpt><trkpt lat="44.09304913727937" lon="12.366716385851342"><ele>37.0</ele><time>2026-04-12T07:09:12Z</time></trkpt><trkpt lat="44.093206256090795" lon="12.366446024608171"><ele>35.5</ele><time>2026-04-12T07:09:13Z</time></trkpt><trkpt lat="44.09334878825179" lon="12.36617237694294"><ele>34.0</ele><time>2026-04-12T07:09:14Z</time></trkpt><trkpt lat="44.093476870551385" lon="12.36589687615359"><ele>34.0</ele><time>2026-04-12T07:09:15Z</time></trkpt><trkpt lat="44.093596408592454" lon="12.365624910633835"><ele>34.0</ele><time>2026-04-12T07:09:16Z</time></trkpt><trkpt lat="44.093714128500416" lon="12.365350495059369"><ele>34.5</ele><time>2026-04-12T07:09:17Z</time></trkpt><trkpt lat="44.09383410241343" lon="12.365071145284837"><ele>35.0</ele><time>2026-04-12T07:09:18Z</time></trkpt><trkpt lat="44.0939568209047" lon="12.36479059131766"><ele>35.0</ele><time>2026-04-12T07:09:19Z</time></trkpt><trkpt lat="44.09408304382694" lon="12.364504568053356"><ele>35.0</ele><time>2026-04-12T07:09:20Z</time></trkpt><trkpt lat="44.094205776717615" lon="12.36421750669853"><ele>35.0</ele><time>2026-04-12T07:09:21Z</time></trkpt><trkpt lat="44.09432925725069" lon="12.363920239245447"><ele>35.0</ele><time>2026-04-12T07:09:22Z</time></trkpt><trkpt lat="44.0944508272512" lon="12.363621753842557"><ele>35.5</ele><time>2026-04-12T07:09:23Z</time></trkpt><trkpt lat="44.09457084805888" lon="12.363324967611243"><ele>36.0</ele><time>2026-04-12T07:09:24Z</time></trkpt><trkpt lat="44.09469087900189" lon="12.363029053824802"><ele>35.5</ele><time>2026-04-12T07:09:25Z</time></trkpt><trkpt lat="44.09481978651322" lon="12.36273554468448"><ele>35.0</ele><time>2026-04-12T07:09:26Z</time></trkpt><trkpt lat="44.09496010601751" lon="12.362443264053805"><ele>32.0</ele><time>2026-04-12T07:09:27Z</time></trkpt><trkpt lat="44.09510540624347" lon="12.36215684500067"><ele>29.0</ele><time>2026-04-12T07:09:28Z</time></trkpt><trkpt lat="44.09524833834444" lon="12.361874717120084"><ele>29.0</ele><time>2026-04-12T07:09:29Z</time></trkpt><trkpt lat="44.09539133138365" lon="12.361586077986852"><ele>29.0</ele><time>2026-04-12T07:09:30Z</time></trkpt><trkpt lat="44.09552864589801" lon="12.361286107977062"><ele>29.5</ele><time>2026-04-12T07:09:31Z</time></trkpt><trkpt lat="44.095669546636394" lon="12.361005802649998"><ele>30.0</ele><time>2026-04-12T07:09:32Z</time></trkpt><trkpt lat="44.0958122369837" lon="12.360716893914285"><ele>30.0</ele><time>2026-04-12T07:09:33Z</time></trkpt><trkpt lat="44.09595448606297" lon="12.360428865685618"><ele>30.0</ele><time>2026-04-12T07:09:34Z</time></trkpt><trkpt lat="44.09609615992311" lon="12.360139513148226"><ele>30.0</ele><time>2026-04-12T07:09:35Z</time></trkpt><trkpt lat="44.096238481462265" lon="12.359850127013868"><ele>30.0</ele><time>2026-04-12T07:09:36Z</time></trkpt><trkpt lat="44.096382041238584" lon="12.359564420676001"><ele>30.0</ele><time>2026-04-12T07:09:37Z</time></trkpt><trkpt lat="44.09652427584409" lon="12.35928592676695"><ele>30.0</ele><time>2026-04-12T07:09:38Z</time></trkpt><trkpt lat="44.09666504608282" lon="12.359002965927193"><ele>29.5</ele><time>2026-04-12T07:09:39Z</time></trkpt><trkpt lat="44.096801652940414" lon="12.358719849295335"><ele>29.0</ele><time>2026-04-12T07:09:40Z</time></trkpt><trkpt lat="44.096934553280654" lon="12.358434390354502"><ele>29.0</ele><time>2026-04-12T07:09:41Z</time></trkpt><trkpt lat="44.09705512519787" lon="12.358142884368629"><ele>29.0</ele><time>2026-04-12T07:09:42Z</time></trkpt><trkpt lat="44.09714839354772" lon="12.357833470250966"><ele>29.0</ele><time>2026-04-12T07:09:43Z</time></trkpt><trkpt lat="44.09721665847828" lon="12.357509115631863"><ele>29.0</ele><time>2026-04-12T07:09:44Z</time></trkpt><trkpt lat="44.097277308475746" lon="12.357167330539738"><ele>29.0</ele><time>2026-04-12T07:09:45Z</time></trkpt><trkpt lat="44.097320863459" lon="12.356853824443526"><ele>29.0</ele><time>2026-04-12T07:09:46Z</time></trkpt><trkpt lat="44.097366838707465" lon="12.356535945995033"><ele>29.5</ele><time>2026-04-12T07:09:47Z</time></trkpt><trkpt lat="44.09742375809923" lon="12.356225292272203"><ele>30.0</ele><time>2026-04-12T07:09:48Z</time></trkpt><trkpt lat="44.09748778276332" lon="12.35591731151325"><ele>30.0</ele><time>2026-04-12T07:09:49Z</time></trkpt><trkpt lat="44.09755009409008" lon="12.355607742653236"><ele>30.0</ele><time>2026-04-12T07:09:50Z</time></trkpt><trkpt lat="44.09761017649092" lon="12.355299405373444"><ele>30.0</ele><time>2026-04-12T07:09:51Z</time></trkpt><trkpt lat="44.09767575958637" lon="12.354990885667203"><ele>30.0</ele><time>2026-04-12T07:09:52Z</time></trkpt><trkpt lat="44.097744218906655" lon="12.35468570094033"><ele>30.0</ele><time>2026-04-12T07:09:53Z</time></trkpt><trkpt lat="44.09781899869108" lon="12.354380376665413"><ele>30.0</ele><time>2026-04-12T07:09:54Z</time></trkpt><trkpt lat="44.09789117947441" lon="12.354076942793137"><ele>29.5</ele><time>2026-04-12T07:09:55Z</time></trkpt><trkpt lat="44.09795980356946" lon="12.35377486262069"><ele>29.0</ele><time>2026-04-12T07:09:56Z</time></trkpt><trkpt lat="44.098028717858604" lon="12.353471269000735"><ele>29.0</ele><time>2026-04-12T07:09:57Z</time></trkpt><trkpt lat="44.09809905015849" lon="12.353170834439812"><ele>29.0</ele><time>2026-04-12T07:09:58Z</time></trkpt><trkpt lat="44.098168488460146" lon="12.352869932648856"><ele>29.0</ele><time>2026-04-12T07:09:59Z</time></trkpt><trkpt lat="44.09823462443793" lon="12.352561953603352"><ele>29.0</ele><time>2026-04-12T07:10:00Z</time></trkpt><trkpt lat="44.09830000171748" lon="12.3522628298054"><ele>28.0</ele><time>2026-04-12T07:10:01.001Z</time></trkpt><trkpt lat="44.098364879777314" lon="12.351957337750454"><ele>27.0</ele><time>2026-04-12T07:10:02.001Z</time></trkpt><trkpt lat="44.09843006042421" lon="12.351653756832427"><ele>27.5</ele><time>2026-04-12T07:10:03.001Z</time></trkpt><trkpt lat="44.09849189770497" lon="12.35134980143902"><ele>28.0</ele><time>2026-04-12T07:10:04.001Z</time></trkpt><trkpt lat="44.0985536637772" lon="12.351051035569474"><ele>28.0</ele><time>2026-04-12T07:10:05.001Z</time></trkpt><trkpt lat="44.09861628008134" lon="12.350747552069384"><ele>28.0</ele><time>2026-04-12T07:10:06.001Z</time></trkpt><trkpt lat="44.09868362375008" lon="12.350439418136599"><ele>27.5</ele><time>2026-04-12T07:10:07.001Z</time></trkpt><trkpt lat="44.09875067803952" lon="12.350133222105807"><ele>27.0</ele><time>2026-04-12T07:10:08.001Z</time></trkpt><trkpt lat="44.098808072991424" lon="12.349825325879708"><ele>28.0</ele><time>2026-04-12T07:10:09.001Z</time></trkpt><trkpt lat="44.098876703125406" lon="12.34951599028359"><ele>29.0</ele><time>2026-04-12T07:10:10.001Z</time></trkpt><trkpt lat="44.0989408825671" lon="12.34922285172137"><ele>29.0</ele><time>2026-04-12T07:10:11.001Z</time></trkpt><trkpt lat="44.09899406558252" lon="12.348972569480212"><ele>29.0</ele><time>2026-04-12T07:10:12.001Z</time></trkpt><trkpt lat="44.09904047871356" lon="12.348761083410295"><ele>29.0</ele><time>2026-04-12T07:10:13.001Z</time></trkpt><trkpt lat="44.09907688387361" lon="12.348599125101456"><ele>28.6</ele><time>2026-04-12T07:10:14.001Z</time></trkpt><trkpt lat="44.09911308927701" lon="12.348462685400118"><ele>28.2</ele><time>2026-04-12T07:10:15.001Z</time></trkpt><trkpt lat="44.09916177058143" lon="12.348345816174586"><ele>27.800000000000004</ele><time>2026-04-12T07:10:16.001Z</time></trkpt><trkpt lat="44.09923878047465" lon="12.348231551088729"><ele>27.400000000000002</ele><time>2026-04-12T07:10:17.001Z</time></trkpt><trkpt lat="44.09931790077996" lon="12.348119484353328"><ele>27.0</ele><time>2026-04-12T07:10:18.001Z</time></trkpt><trkpt lat="44.09935297455201" lon="12.347990266456925"><ele>26.75</ele><time>2026-04-12T07:10:19.001Z</time></trkpt><trkpt lat="44.09934790007649" lon="12.347840390410965"><ele>26.5</ele><time>2026-04-12T07:10:20.001Z</time></trkpt><trkpt lat="44.099309881525485" lon="12.34768927865198"><ele>26.25</ele><time>2026-04-12T07:10:21.001Z</time></trkpt><trkpt lat="44.09926879816283" lon="12.34751524638014"><ele>26.0</ele><time>2026-04-12T07:10:22.001Z</time></trkpt><trkpt lat="44.099274687056344" lon="12.34729004284916"><ele>26.666666666666664</ele><time>2026-04-12T07:10:23.001Z</time></trkpt><trkpt lat="44.09930587081214" lon="12.347023973555489"><ele>27.333333333333336</ele><time>2026-04-12T07:10:24.001Z</time></trkpt><trkpt lat="44.09934757230187" lon="12.346754734750423"><ele>28.0</ele><time>2026-04-12T07:10:25.001Z</time></trkpt><trkpt lat="44.099381635640626" lon="12.34651270929721"><ele>28.0</ele><time>2026-04-12T07:10:25.999Z</time></trkpt><trkpt lat="44.09941222329949" lon="12.346300347187606"><ele>28.0</ele><time>2026-04-12T07:10:26.999Z</time></trkpt><trkpt lat="44.0994447400675" lon="12.346104035112832"><ele>28.0</ele><time>2026-04-12T07:10:27.999Z</time></trkpt><trkpt lat="44.0994881440923" lon="12.345923172840504"><ele>28.0</ele><time>2026-04-12T07:10:28.999Z</time></trkpt><trkpt lat="44.09953962065777" lon="12.345746924031607"><ele>28.0</ele><time>2026-04-12T07:10:29.999Z</time></trkpt><trkpt lat="44.099595984406086" lon="12.345568771305276"><ele>28.0</ele><time>2026-04-12T07:10:30.999Z</time></trkpt><trkpt lat="44.099654921118145" lon="12.345397990693384"><ele>28.0</ele><time>2026-04-12T07:10:31.999Z</time></trkpt><trkpt lat="44.09971462535825" lon="12.345226001277485"><ele>28.0</ele><time>2026-04-12T07:10:32.999Z</time></trkpt><trkpt lat="44.09977494602573" lon="12.345044893062003"><ele>28.0</ele><time>2026-04-12T07:10:33.999Z</time></trkpt><trkpt lat="44.099834289486715" lon="12.344858171616485"><ele>28.0</ele><time>2026-04-12T07:10:34.999Z</time></trkpt><trkpt lat="44.09989027624587" lon="12.344666990230348"><ele>28.0</ele><time>2026-04-12T07:10:35.999Z</time></trkpt><trkpt lat="44.09994606541073" lon="12.344481101194598"><ele>28.0</ele><time>2026-04-12T07:10:37Z</time></trkpt><trkpt lat="44.10000098090731" lon="12.344292322884753"><ele>28.0</ele><time>2026-04-12T07:10:38Z</time></trkpt><trkpt lat="44.1000495683405" lon="12.344099756551195"><ele>28.0</ele><time>2026-04-12T07:10:39Z</time></trkpt><trkpt lat="44.10009969813677" lon="12.343910933164887"><ele>28.0</ele><time>2026-04-12T07:10:40Z</time></trkpt><trkpt lat="44.10014844990932" lon="12.343722731758113"><ele>28.0</ele><time>2026-04-12T07:10:41Z</time></trkpt><trkpt lat="44.10019988605157" lon="12.34352961411818"><ele>28.0</ele><time>2026-04-12T07:10:42Z</time></trkpt><trkpt lat="44.10025559482799" lon="12.343341702985454"><ele>28.0</ele><time>2026-04-12T07:10:43Z</time></trkpt><trkpt lat="44.100315108382816" lon="12.3431570862588"><ele>28.0</ele><time>2026-04-12T07:10:44Z</time></trkpt><trkpt lat="44.10037770120258" lon="12.34297215811459"><ele>28.0</ele><time>2026-04-12T07:10:45Z</time></trkpt><trkpt lat="44.10045002277956" lon="12.342791812612829"><ele>28.0</ele><time>2026-04-12T07:10:46Z</time></trkpt><trkpt lat="44.10053171049104" lon="12.342614106362685"><ele>28.0</ele><time>2026-04-12T07:10:47Z</time></trkpt><trkpt lat="44.10062021733463" lon="12.342438699116427"><ele>28.0</ele><time>2026-04-12T07:10:48Z</time></trkpt><trkpt lat="44.10071957626944" lon="12.34225971317636"><ele>28.0</ele><time>2026-04-12T07:10:49Z</time></trkpt><trkpt lat="44.10082808103479" lon="12.34207431966967"><ele>28.0</ele><time>2026-04-12T07:10:50Z</time></trkpt><trkpt lat="44.10094861543589" lon="12.341873230364001"><ele>28.0</ele><time>2026-04-12T07:10:51Z</time></trkpt><trkpt lat="44.1010859752552" lon="12.341647975015341"><ele>28.0</ele><time>2026-04-12T07:10:52Z</time></trkpt><trkpt lat="44.10122382966161" lon="12.341401944178491"><ele>28.0</ele><time>2026-04-12T07:10:53Z</time></trkpt><trkpt lat="44.10137243334419" lon="12.341149172291807"><ele>28.5</ele><time>2026-04-12T07:10:54Z</time></trkpt><trkpt lat="44.10152276693935" lon="12.340881948254252"><ele>29.0</ele><time>2026-04-12T07:10:55Z</time></trkpt><trkpt lat="44.1016646112607" lon="12.340620505992753"><ele>29.0</ele><time>2026-04-12T07:10:56Z</time></trkpt><trkpt lat="44.101798814887374" lon="12.340377169312866"><ele>29.0</ele><time>2026-04-12T07:10:57Z</time></trkpt><trkpt lat="44.10191817815222" lon="12.340167550321581"><ele>29.0</ele><time>2026-04-12T07:10:58Z</time></trkpt><trkpt lat="44.1020312686322" lon="12.339977747466632"><ele>29.0</ele><time>2026-04-12T07:10:59Z</time></trkpt><trkpt lat="44.102126967202956" lon="12.339804075430044"><ele>29.0</ele><time>2026-04-12T07:11:00Z</time></trkpt><trkpt lat="44.10220248007162" lon="12.339662003369845"><ele>29.0</ele><time>2026-04-12T07:11:01Z</time></trkpt><trkpt lat="44.10226435606423" lon="12.3395496763258"><ele>29.0</ele><time>2026-04-12T07:11:02Z</time></trkpt><trkpt lat="44.1023222974435" lon="12.33945071988308"><ele>28.833333333333332</ele><time>2026-04-12T07:11:03Z</time></trkpt><trkpt lat="44.102378915321054" lon="12.33935824567052"><ele>28.666666666666664</ele><time>2026-04-12T07:11:04Z</time></trkpt><trkpt lat="44.102440399641615" lon="12.339274155678666"><ele>28.5</ele><time>2026-04-12T07:11:05Z</time></trkpt><trkpt lat="44.102497113248646" lon="12.33920181579853"><ele>28.333333333333336</ele><time>2026-04-12T07:11:06Z</time></trkpt><trkpt lat="44.10255813532922" lon="12.339142032158085"><ele>28.166666666666668</ele><time>2026-04-12T07:11:07Z</time></trkpt><trkpt lat="44.102627765057676" lon="12.339092476731865"><ele>28.0</ele><time>2026-04-12T07:11:08Z</time></trkpt><trkpt lat="44.10271075751186" lon="12.339053739482384"><ele>28.000000000000004</ele><time>2026-04-12T07:11:09Z</time></trkpt><trkpt lat="44.102798252420286" lon="12.33900377295383"><ele>28.0</ele><time>2026-04-12T07:11:10Z</time></trkpt><trkpt lat="44.10287366229403" lon="12.338937163217878"><ele>28.0</ele><time>2026-04-12T07:11:11Z</time></trkpt><trkpt lat="44.10292846116943" lon="12.33885100479626"><ele>28.0</ele><time>2026-04-12T07:11:12Z</time></trkpt><trkpt lat="44.102961138410436" lon="12.338751166466825"><ele>28.000000000000004</ele><time>2026-04-12T07:11:13Z</time></trkpt><trkpt lat="44.10297659941893" lon="12.338637563881067"><ele>28.0</ele><time>2026-04-12T07:11:14Z</time></trkpt><trkpt lat="44.102990385976184" lon="12.338505928673124"><ele>28.4</ele><time>2026-04-12T07:11:15Z</time></trkpt><trkpt lat="44.10300929626617" lon="12.338377540701522"><ele>28.799999999999997</ele><time>2026-04-12T07:11:16Z</time></trkpt><trkpt lat="44.103039528066205" lon="12.338258657300301"><ele>29.2</ele><time>2026-04-12T07:11:17Z</time></trkpt><trkpt lat="44.10308396692515" lon="12.338134450108855"><ele>29.6</ele><time>2026-04-12T07:11:18Z</time></trkpt><trkpt lat="44.10313803618401" lon="12.338015629131203"><ele>30.0</ele><time>2026-04-12T07:11:19Z</time></trkpt><trkpt lat="44.10320269534386" lon="12.337894257907537"><ele>30.25</ele><time>2026-04-12T07:11:20Z</time></trkpt><trkpt lat="44.10327463453798" lon="12.337771642590184"><ele>30.5</ele><time>2026-04-12T07:11:21Z</time></trkpt><trkpt lat="44.1033477967224" lon="12.337642579243857"><ele>30.75</ele><time>2026-04-12T07:11:22Z</time></trkpt><trkpt lat="44.10342372539697" lon="12.337512546457576"><ele>31.0</ele><time>2026-04-12T07:11:23Z</time></trkpt><trkpt lat="44.10349743664174" lon="12.337384657528558"><ele>31.0</ele><time>2026-04-12T07:11:24Z</time></trkpt><trkpt lat="44.10357311249712" lon="12.337252006281014"><ele>31.0</ele><time>2026-04-12T07:11:25Z</time></trkpt><trkpt lat="44.10365100334257" lon="12.337114491520353"><ele>31.0</ele><time>2026-04-12T07:11:26Z</time></trkpt><trkpt lat="44.10372412901893" lon="12.336986391886217"><ele>31.0</ele><time>2026-04-12T07:11:27Z</time></trkpt><trkpt lat="44.10379078266343" lon="12.336865503839366"><ele>31.25</ele><time>2026-04-12T07:11:28Z</time></trkpt><trkpt lat="44.10386386094103" lon="12.33673294257855"><ele>31.5</ele><time>2026-04-12T07:11:29Z</time></trkpt><trkpt lat="44.10393917492673" lon="12.336588684182141"><ele>31.75</ele><time>2026-04-12T07:11:30Z</time></trkpt><trkpt lat="44.10401442312" lon="12.336428334204873"><ele>32.0</ele><time>2026-04-12T07:11:31Z</time></trkpt><trkpt lat="44.1040946006599" lon="12.336249157113327"><ele>32.33333333333333</ele><time>2026-04-12T07:11:32Z</time></trkpt><trkpt lat="44.10417603052168" lon="12.33606392559554"><ele>32.666666666666664</ele><time>2026-04-12T07:11:33Z</time></trkpt><trkpt lat="44.10426910903253" lon="12.335840467215489"><ele>33.0</ele><time>2026-04-12T07:11:34Z</time></trkpt><trkpt lat="44.10436082840084" lon="12.335619434542489"><ele>33.0</ele><time>2026-04-12T07:11:35Z</time></trkpt><trkpt lat="44.104440402693406" lon="12.335418820358903"><ele>33.0</ele><time>2026-04-12T07:11:36Z</time></trkpt><trkpt lat="44.1045176556329" lon="12.335226669450131"><ele>33.0</ele><time>2026-04-12T07:11:37Z</time></trkpt><trkpt lat="44.10458597674278" lon="12.335054472438227"><ele>33.0</ele><time>2026-04-12T07:11:38Z</time></trkpt><trkpt lat="44.1046545778134" lon="12.334882848320792"><ele>33.0</ele><time>2026-04-12T07:11:39.001Z</time></trkpt><trkpt lat="44.104724168824724" lon="12.334717535930949"><ele>33.0</ele><time>2026-04-12T07:11:40.001Z</time></trkpt><trkpt lat="44.10478985449344" lon="12.334559180322975"><ele>33.0</ele><time>2026-04-12T07:11:41.001Z</time></trkpt><trkpt lat="44.10485991242759" lon="12.33439725214275"><ele>33.199999999999996</ele><time>2026-04-12T07:11:42.001Z</time></trkpt><trkpt lat="44.10492765516603" lon="12.334248558923951"><ele>33.4</ele><time>2026-04-12T07:11:43.001Z</time></trkpt><trkpt lat="44.10498675296133" lon="12.334116423834974"><ele>33.599999999999994</ele><time>2026-04-12T07:11:44.001Z</time></trkpt><trkpt lat="44.10503664369106" lon="12.333989137460803"><ele>33.8</ele><time>2026-04-12T07:11:45.001Z</time></trkpt><trkpt lat="44.105076070512055" lon="12.333886033986445"><ele>34.0</ele><time>2026-04-12T07:11:46.001Z</time></trkpt><trkpt lat="44.105108945097086" lon="12.333804780580124"><ele>34.0</ele><time>2026-04-12T07:11:47.001Z</time></trkpt><trkpt lat="44.10514768830207" lon="12.33370772890352"><ele>34.0</ele><time>2026-04-12T07:11:49.001Z</time></trkpt><trkpt lat="44.10521421513317" lon="12.333565794181325"><ele>34.0</ele><time>2026-04-12T07:13:12Z</time></trkpt><trkpt lat="44.10526382228772" lon="12.333438343064703"><ele>34.0</ele><time>2026-04-12T07:13:13Z</time></trkpt><trkpt lat="44.10532492390767" lon="12.333266325775677"><ele>34.0</ele><time>2026-04-12T07:13:14Z</time></trkpt><trkpt lat="44.10541673463339" lon="12.333020944409581"><ele>34.0</ele><time>2026-04-12T07:13:15Z</time></trkpt><trkpt lat="44.10549865462103" lon="12.332828981857885"><ele>34.0</ele><time>2026-04-12T07:13:16Z</time></trkpt><trkpt lat="44.10556502684966" lon="12.332650522781456"><ele>34.0</ele><time>2026-04-12T07:13:17Z</time></trkpt><trkpt lat="44.10565325467169" lon="12.332430079114044"><ele>34.0</ele><time>2026-04-12T07:13:18Z</time></trkpt><trkpt lat="44.105740927224076" lon="12.332167651949062"><ele>34.0</ele><time>2026-04-12T07:13:19Z</time></trkpt><trkpt lat="44.10583652398474" lon="12.331861420416313"><ele>34.0</ele><time>2026-04-12T07:13:20Z</time></trkpt><trkpt lat="44.10590276395101" lon="12.331550625305457"><ele>35.0</ele><time>2026-04-12T07:13:21Z</time></trkpt><trkpt lat="44.105977158129114" lon="12.331220876463963"><ele>36.0</ele><time>2026-04-12T07:13:22Z</time></trkpt><trkpt lat="44.1060482224377" lon="12.33093938859631"><ele>36.0</ele><time>2026-04-12T07:13:23Z</time></trkpt><trkpt lat="44.10611475836701" lon="12.330682574722752"><ele>36.0</ele><time>2026-04-12T07:13:24Z</time></trkpt><trkpt lat="44.10617669669482" lon="12.330434456655519"><ele>36.0</ele><time>2026-04-12T07:13:25Z</time></trkpt><trkpt lat="44.106237948105075" lon="12.330200696488085"><ele>35.666666666666664</ele><time>2026-04-12T07:13:26Z</time></trkpt><trkpt lat="44.10629392081233" lon="12.329981781433714"><ele>35.33333333333333</ele><time>2026-04-12T07:13:27Z</time></trkpt><trkpt lat="44.106347627313944" lon="12.329769495803788"><ele>35.0</ele><time>2026-04-12T07:13:28Z</time></trkpt><trkpt lat="44.10640351387078" lon="12.329561645743242"><ele>35.0</ele><time>2026-04-12T07:13:29Z</time></trkpt><trkpt lat="44.10645008196342" lon="12.329375791471014"><ele>35.0</ele><time>2026-04-12T07:13:30Z</time></trkpt><trkpt lat="44.106493016644265" lon="12.329181979882778"><ele>35.0</ele><time>2026-04-12T07:13:31.001Z</time></trkpt><trkpt lat="44.106534552822005" lon="12.32901191708584"><ele>35.0</ele><time>2026-04-12T07:13:32.001Z</time></trkpt><trkpt lat="44.10657358305004" lon="12.328849723869695"><ele>34.8</ele><time>2026-04-12T07:13:33.001Z</time></trkpt><trkpt lat="44.10660584851271" lon="12.328705603980822"><ele>34.6</ele><time>2026-04-12T07:13:34.001Z</time></trkpt><trkpt lat="44.10664024700893" lon="12.32855594234153"><ele>34.4</ele><time>2026-04-12T07:13:35.001Z</time></trkpt><trkpt lat="44.10667276875672" lon="12.328421357022732"><ele>34.2</ele><time>2026-04-12T07:13:36.001Z</time></trkpt><trkpt lat="44.10670203552851" lon="12.328300265138026"><ele>34.0</ele><time>2026-04-12T07:13:37.001Z</time></trkpt><trkpt lat="44.10672649795007" lon="12.328179985831643"><ele>34.0</ele><time>2026-04-12T07:13:38.001Z</time></trkpt><trkpt lat="44.10676174697839" lon="12.328050254085113"><ele>34.0</ele><time>2026-04-12T07:13:39.001Z</time></trkpt><trkpt lat="44.106803477153896" lon="12.327917546197604"><ele>34.0</ele><time>2026-04-12T07:13:40.001Z</time></trkpt><trkpt lat="44.10684748804564" lon="12.32779091624718"><ele>34.0</ele><time>2026-04-12T07:13:41.001Z</time></trkpt><trkpt lat="44.10688737899508" lon="12.327674647722512"><ele>34.0</ele><time>2026-04-12T07:13:42.001Z</time></trkpt><trkpt lat="44.10692522176197" lon="12.327564502862847"><ele>34.0</ele><time>2026-04-12T07:13:43.001Z</time></trkpt><trkpt lat="44.10695797198342" lon="12.327465334523946"><ele>34.0</ele><time>2026-04-12T07:13:44.001Z</time></trkpt><trkpt lat="44.1069879761381" lon="12.327373054361585"><ele>34.0</ele><time>2026-04-12T07:13:45.001Z</time></trkpt><trkpt lat="44.107018109245296" lon="12.327281065861728"><ele>34.0</ele><time>2026-04-12T07:13:46.001Z</time></trkpt><trkpt lat="44.10705011751171" lon="12.327188186572718"><ele>34.0</ele><time>2026-04-12T07:13:47.001Z</time></trkpt><trkpt lat="44.10708865149528" lon="12.327082528540632"><ele>34.0</ele><time>2026-04-12T07:13:48.001Z</time></trkpt><trkpt lat="44.10712601149139" lon="12.326986379721765"><ele>34.333333333333336</ele><time>2026-04-12T07:13:49.001Z</time></trkpt><trkpt lat="44.107162217436255" lon="12.326886867726305"><ele>34.66666666666667</ele><time>2026-04-12T07:13:50.001Z</time></trkpt><trkpt lat="44.107195195342776" lon="12.326781577753048"><ele>35.0</ele><time>2026-04-12T07:13:51.001Z</time></trkpt><trkpt lat="44.10722717257488" lon="12.32667038738366"><ele>35.333333333333336</ele><time>2026-04-12T07:13:52.001Z</time></trkpt><trkpt lat="44.10726123446324" lon="12.326552106628869"><ele>35.666666666666664</ele><time>2026-04-12T07:13:53.001Z</time></trkpt><trkpt lat="44.10728980756087" lon="12.326434194294235"><ele>36.0</ele><time>2026-04-12T07:13:54.001Z</time></trkpt><trkpt lat="44.107315113157334" lon="12.326310508326324"><ele>36.0</ele><time>2026-04-12T07:13:55.001Z</time></trkpt><trkpt lat="44.107339092074966" lon="12.326186161264491"><ele>36.0</ele><time>2026-04-12T07:13:56.001Z</time></trkpt><trkpt lat="44.107369663070116" lon="12.326054268119815"><ele>36.0</ele><time>2026-04-12T07:13:57.001Z</time></trkpt><trkpt lat="44.10739626755325" lon="12.325919714039976"><ele>36.0</ele><time>2026-04-12T07:13:58.001Z</time></trkpt><trkpt lat="44.10742558041447" lon="12.325775967251134"><ele>36.0</ele><time>2026-04-12T07:13:59.001Z</time></trkpt><trkpt lat="44.107451645295015" lon="12.325634047925355"><ele>36.25</ele><time>2026-04-12T07:14:00.001Z</time></trkpt><trkpt lat="44.107477808184534" lon="12.325479043673495"><ele>36.5</ele><time>2026-04-12T07:14:01.001Z</time></trkpt><trkpt lat="44.107499904502454" lon="12.325309763034774"><ele>36.75</ele><time>2026-04-12T07:14:02.001Z</time></trkpt><trkpt lat="44.107530573120414" lon="12.325126306805672"><ele>37.0</ele><time>2026-04-12T07:14:03.001Z</time></trkpt><trkpt lat="44.107561734820614" lon="12.324930124560236"><ele>37.333333333333336</ele><time>2026-04-12T07:14:04.001Z</time></trkpt><trkpt lat="44.10761442220844" lon="12.324720764160904"><ele>37.666666666666664</ele><time>2026-04-12T07:14:05.001Z</time></trkpt><trkpt lat="44.107671569023914" lon="12.32450362297344"><ele>38.0</ele><time>2026-04-12T07:14:06.001Z</time></trkpt><trkpt lat="44.10775410421329" lon="12.32427789959867"><ele>38.0</ele><time>2026-04-12T07:14:07.001Z</time></trkpt><trkpt lat="44.10783071242713" lon="12.324038009873084"><ele>38.0</ele><time>2026-04-12T07:14:08.001Z</time></trkpt><trkpt lat="44.10790894450319" lon="12.323799485146532"><ele>38.0</ele><time>2026-04-12T07:14:09.001Z</time></trkpt><trkpt lat="44.10797994956115" lon="12.323535463112801"><ele>38.0</ele><time>2026-04-12T07:14:10.001Z</time></trkpt><trkpt lat="44.10807293019108" lon="12.323284826283944"><ele>38.0</ele><time>2026-04-12T07:14:11.001Z</time></trkpt><trkpt lat="44.10817862699677" lon="12.323029535929903"><ele>38.0</ele><time>2026-04-12T07:14:12.001Z</time></trkpt><trkpt lat="44.108294489024715" lon="12.322774625944508"><ele>37.666666666666664</ele><time>2026-04-12T07:14:13.001Z</time></trkpt><trkpt lat="44.108404345692215" lon="12.32252495758397"><ele>37.333333333333336</ele><time>2026-04-12T07:14:14.001Z</time></trkpt><trkpt lat="44.108508432579015" lon="12.322281077353326"><ele>37.0</ele><time>2026-04-12T07:14:15.001Z</time></trkpt><trkpt lat="44.10860531141166" lon="12.322040348300037"><ele>37.0</ele><time>2026-04-12T07:14:16.001Z</time></trkpt><trkpt lat="44.10869951886563" lon="12.321816557364082"><ele>37.0</ele><time>2026-04-12T07:14:17.001Z</time></trkpt><trkpt lat="44.108794354593726" lon="12.321591494200405"><ele>37.0</ele><time>2026-04-12T07:14:18.001Z</time></trkpt><trkpt lat="44.10889121510353" lon="12.321360625802855"><ele>37.0</ele><time>2026-04-12T07:14:19.001Z</time></trkpt><trkpt lat="44.10898623434449" lon="12.321116785885406"><ele>37.0</ele><time>2026-04-12T07:14:20.001Z</time></trkpt><trkpt lat="44.10908054869189" lon="12.320860922594179"><ele>37.0</ele><time>2026-04-12T07:14:21.001Z</time></trkpt><trkpt lat="44.109168122629455" lon="12.320597993357119"><ele>37.0</ele><time>2026-04-12T07:14:22.001Z</time></trkpt><trkpt lat="44.10925480969208" lon="12.320366327924054"><ele>37.0</ele><time>2026-04-12T07:14:23.001Z</time></trkpt><trkpt lat="44.1093013045792" lon="12.320137868381867"><ele>37.0</ele><time>2026-04-12T07:14:24.001Z</time></trkpt><trkpt lat="44.109353261598834" lon="12.319932545840077"><ele>37.0</ele><time>2026-04-12T07:14:25.001Z</time></trkpt><trkpt lat="44.109393891853976" lon="12.319746256489644"><ele>37.0</ele><time>2026-04-12T07:14:26.001Z</time></trkpt><trkpt lat="44.10942955834412" lon="12.319570761062348"><ele>37.0</ele><time>2026-04-12T07:14:27.001Z</time></trkpt><trkpt lat="44.10948224216291" lon="12.319409062436138"><ele>37.0</ele><time>2026-04-12T07:14:28.001Z</time></trkpt><trkpt lat="44.109512081314506" lon="12.319269884649518"><ele>37.0</ele><time>2026-04-12T07:14:29.001Z</time></trkpt><trkpt lat="44.109538041234266" lon="12.319132038866305"><ele>37.0</ele><time>2026-04-12T07:14:30.001Z</time></trkpt><trkpt lat="44.10953360682053" lon="12.319003962408702"><ele>37.0</ele><time>2026-04-12T07:14:31.001Z</time></trkpt><trkpt lat="44.10956058786604" lon="12.318889842370982"><ele>37.0</ele><time>2026-04-12T07:14:32.001Z</time></trkpt><trkpt lat="44.109606489072696" lon="12.318751335563062"><ele>37.0</ele><time>2026-04-12T07:14:33.001Z</time></trkpt><trkpt lat="44.10966702074589" lon="12.31859588198679"><ele>37.0</ele><time>2026-04-12T07:14:34.001Z</time></trkpt><trkpt lat="44.109713056613565" lon="12.31841476820876"><ele>37.0</ele><time>2026-04-12T07:14:35.001Z</time></trkpt><trkpt lat="44.109753262446404" lon="12.318217317648555"><ele>37.0</ele><time>2026-04-12T07:14:36.001Z</time></trkpt><trkpt lat="44.10981058857963" lon="12.318002654172862"><ele>37.333333333333336</ele><time>2026-04-12T07:14:37.001Z</time></trkpt><trkpt lat="44.10987119452142" lon="12.317784597104882"><ele>37.666666666666664</ele><time>2026-04-12T07:14:38.001Z</time></trkpt><trkpt lat="44.10992345599996" lon="12.317587790605122"><ele>38.0</ele><time>2026-04-12T07:14:39.001Z</time></trkpt><trkpt lat="44.10997721176655" lon="12.31739044808794"><ele>38.0</ele><time>2026-04-12T07:14:40.001Z</time></trkpt><trkpt lat="44.110032124093024" lon="12.317182729126358"><ele>38.0</ele><time>2026-04-12T07:14:41.001Z</time></trkpt><trkpt lat="44.11009118798182" lon="12.316976585692114"><ele>38.0</ele><time>2026-04-12T07:14:42.001Z</time></trkpt><trkpt lat="44.11015659635505" lon="12.316783916095762"><ele>38.0</ele><time>2026-04-12T07:14:43.001Z</time></trkpt><trkpt lat="44.110221358763496" lon="12.316588190724493"><ele>38.0</ele><time>2026-04-12T07:14:44.001Z</time></trkpt><trkpt lat="44.11028897986516" lon="12.31639101134167"><ele>38.0</ele><time>2026-04-12T07:14:45.001Z</time></trkpt><trkpt lat="44.11035587445102" lon="12.316187690652173"><ele>38.0</ele><time>2026-04-12T07:14:46.001Z</time></trkpt><trkpt lat="44.11042668972017" lon="12.315980553085417"><ele>38.0</ele><time>2026-04-12T07:14:47.001Z</time></trkpt><trkpt lat="44.110499383890826" lon="12.315776351757785"><ele>38.0</ele><time>2026-04-12T07:14:48.001Z</time></trkpt><trkpt lat="44.11057064665251" lon="12.31557907636186"><ele>38.33333333333333</ele><time>2026-04-12T07:14:49.001Z</time></trkpt><trkpt lat="44.11064534711319" lon="12.315372107663231"><ele>38.666666666666664</ele><time>2026-04-12T07:14:50.001Z</time></trkpt><trkpt lat="44.11072294756699" lon="12.3151699372899"><ele>39.0</ele><time>2026-04-12T07:14:51Z</time></trkpt><trkpt lat="44.110801530066766" lon="12.314971482051567"><ele>38.666666666666664</ele><time>2026-04-12T07:14:52Z</time></trkpt><trkpt lat="44.110882120606185" lon="12.314771550952742"><ele>38.33333333333333</ele><time>2026-04-12T07:14:53Z</time></trkpt><trkpt lat="44.11097359204643" lon="12.314558196811365"><ele>38.0</ele><time>2026-04-12T07:14:54Z</time></trkpt><trkpt lat="44.11107224966097" lon="12.314332649313416"><ele>38.0</ele><time>2026-04-12T07:14:55Z</time></trkpt><trkpt lat="44.11118696834363" lon="12.314081477466821"><ele>38.0</ele><time>2026-04-12T07:14:56Z</time></trkpt><trkpt lat="44.111292660313836" lon="12.313807808646299"><ele>38.0</ele><time>2026-04-12T07:14:57Z</time></trkpt><trkpt lat="44.1113807309313" lon="12.313561057512104"><ele>38.0</ele><time>2026-04-12T07:14:58Z</time></trkpt><trkpt lat="44.11144978083452" lon="12.313315159801666"><ele>38.0</ele><time>2026-04-12T07:14:59Z</time></trkpt><trkpt lat="44.111528461456935" lon="12.31309397477995"><ele>38.0</ele><time>2026-04-12T07:15:00Z</time></trkpt><trkpt lat="44.111603023106305" lon="12.312904909807433"><ele>37.666666666666664</ele><time>2026-04-12T07:15:01Z</time></trkpt><trkpt lat="44.11167399831553" lon="12.312719952686756"><ele>37.333333333333336</ele><time>2026-04-12T07:15:02.001Z</time></trkpt><trkpt lat="44.11175947755639" lon="12.312529693231431"><ele>37.0</ele><time>2026-04-12T07:15:03.001Z</time></trkpt><trkpt lat="44.11186391928974" lon="12.312291693628023"><ele>37.0</ele><time>2026-04-12T07:15:04.001Z</time></trkpt><trkpt lat="44.11198430630937" lon="12.31202059106728"><ele>37.0</ele><time>2026-04-12T07:15:05.001Z</time></trkpt><trkpt lat="44.11212772390718" lon="12.311725012959092"><ele>37.0</ele><time>2026-04-12T07:15:06.001Z</time></trkpt><trkpt lat="44.11227539092397" lon="12.311433982930856"><ele>37.0</ele><time>2026-04-12T07:15:07.001Z</time></trkpt><trkpt lat="44.112417014025375" lon="12.311150706632676"><ele>37.5</ele><time>2026-04-12T07:15:08.001Z</time></trkpt><trkpt lat="44.11255456549921" lon="12.31088333202041"><ele>38.0</ele><time>2026-04-12T07:15:09.001Z</time></trkpt><trkpt lat="44.11268215619009" lon="12.310611320370912"><ele>37.5</ele><time>2026-04-12T07:15:10.001Z</time></trkpt><trkpt lat="44.112799232440324" lon="12.310346033470934"><ele>37.0</ele><time>2026-04-12T07:15:11.001Z</time></trkpt><trkpt lat="44.11309277540259" lon="12.309754179187241"><ele>37.5</ele><time>2026-04-12T07:15:12.001Z</time></trkpt><trkpt lat="44.1132615712248" lon="12.309426467428517"><ele>38.0</ele><time>2026-04-12T07:15:13.001Z</time></trkpt><trkpt lat="44.11343719884532" lon="12.309109292659523"><ele>38.0</ele><time>2026-04-12T07:15:14.001Z</time></trkpt><trkpt lat="44.11361370376495" lon="12.308798691221872"><ele>38.0</ele><time>2026-04-12T07:15:15.001Z</time></trkpt><trkpt lat="44.1137814597621" lon="12.30850597833653"><ele>38.0</ele><time>2026-04-12T07:15:16.001Z</time></trkpt><trkpt lat="44.11392379957388" lon="12.308222640192058"><ele>38.0</ele><time>2026-04-12T07:15:17.001Z</time></trkpt><trkpt lat="44.11405196689047" lon="12.307962877560882"><ele>37.0</ele><time>2026-04-12T07:15:18.001Z</time></trkpt><trkpt lat="44.11416473752234" lon="12.307708004229987"><ele>36.0</ele><time>2026-04-12T07:15:19.001Z</time></trkpt><trkpt lat="44.11426327550447" lon="12.307461032107298"><ele>35.0</ele><time>2026-04-12T07:15:20.001Z</time></trkpt><trkpt lat="44.11434793143869" lon="12.307239829229072"><ele>35.0</ele><time>2026-04-12T07:15:21.001Z</time></trkpt><trkpt lat="44.11442336405161" lon="12.307062455263816"><ele>35.0</ele><time>2026-04-12T07:15:22.001Z</time></trkpt><trkpt lat="44.114507168136136" lon="12.306905724329965"><ele>35.0</ele><time>2026-04-12T07:15:23.001Z</time></trkpt><trkpt lat="44.114584748005356" lon="12.306777081478966"><ele>35.0</ele><time>2026-04-12T07:15:24.001Z</time></trkpt><trkpt lat="44.11466477046368" lon="12.306674821910638"><ele>35.0</ele><time>2026-04-12T07:15:25.001Z</time></trkpt><trkpt lat="44.11476661151604" lon="12.306553173312826"><ele>35.0</ele><time>2026-04-12T07:15:26.001Z</time></trkpt><trkpt lat="44.11487627381825" lon="12.306394701186374"><ele>35.0</ele><time>2026-04-12T07:15:27.001Z</time></trkpt><trkpt lat="44.114961956939304" lon="12.306201046530175"><ele>35.33333333333333</ele><time>2026-04-12T07:15:28.001Z</time></trkpt><trkpt lat="44.11506133194862" lon="12.306037266890979"><ele>35.666666666666664</ele><time>2026-04-12T07:15:29.001Z</time></trkpt><trkpt lat="44.115044470846996" lon="12.305710960153311"><ele>36.0</ele><time>2026-04-12T07:15:30.001Z</time></trkpt><trkpt lat="44.11509527204888" lon="12.305449434582112"><ele>36.0</ele><time>2026-04-12T07:15:31.001Z</time></trkpt><trkpt lat="44.11519478003581" lon="12.305218212003197"><ele>36.0</ele><time>2026-04-12T07:15:32.001Z</time></trkpt><trkpt lat="44.11533785141803" lon="12.304985988075526"><ele>36.0</ele><time>2026-04-12T07:15:33.001Z</time></trkpt><trkpt lat="44.11550131774188" lon="12.304730176178865"><ele>35.5</ele><time>2026-04-12T07:15:34.001Z</time></trkpt><trkpt lat="44.11568090118034" lon="12.304449956566623"><ele>35.0</ele><time>2026-04-12T07:15:35.001Z</time></trkpt><trkpt lat="44.11586320092878" lon="12.30415753487355"><ele>35.0</ele><time>2026-04-12T07:15:36.001Z</time></trkpt><trkpt lat="44.116044081121" lon="12.303863691196922"><ele>35.0</ele><time>2026-04-12T07:15:37.001Z</time></trkpt><trkpt lat="44.11622982166248" lon="12.303554559530799"><ele>35.0</ele><time>2026-04-12T07:15:38.001Z</time></trkpt><trkpt lat="44.11642203502683" lon="12.303226275959696"><ele>35.0</ele><time>2026-04-12T07:15:39.001Z</time></trkpt><trkpt lat="44.116609011706096" lon="12.302896065026308"><ele>34.5</ele><time>2026-04-12T07:15:40.001Z</time></trkpt><trkpt lat="44.11678700181364" lon="12.302580680516702"><ele>34.0</ele><time>2026-04-12T07:15:41.001Z</time></trkpt><trkpt lat="44.11696687867158" lon="12.302273389409903"><ele>33.5</ele><time>2026-04-12T07:15:42.001Z</time></trkpt><trkpt lat="44.11715902230384" lon="12.301973069174807"><ele>33.0</ele><time>2026-04-12T07:15:43.001Z</time></trkpt><trkpt lat="44.11736604481767" lon="12.301694868504407"><ele>33.0</ele><time>2026-04-12T07:15:44.001Z</time></trkpt><trkpt lat="44.1176027073475" lon="12.3014425187163"><ele>33.0</ele><time>2026-04-12T07:15:45.001Z</time></trkpt><trkpt lat="44.11785570224397" lon="12.30121209819045"><ele>33.0</ele><time>2026-04-12T07:15:46.001Z</time></trkpt><trkpt lat="44.11813017897836" lon="12.301014888385323"><ele>33.0</ele><time>2026-04-12T07:15:47.001Z</time></trkpt><trkpt lat="44.11843388057538" lon="12.300833062816993"><ele>33.0</ele><time>2026-04-12T07:15:48.001Z</time></trkpt><trkpt lat="44.118743899713394" lon="12.30065270953482"><ele>33.0</ele><time>2026-04-12T07:15:49.001Z</time></trkpt><trkpt lat="44.11906230973228" lon="12.300473533060913"><ele>32.0</ele><time>2026-04-12T07:15:50.001Z</time></trkpt><trkpt lat="44.11936559782722" lon="12.30030478692508"><ele>31.0</ele><time>2026-04-12T07:15:51.001Z</time></trkpt><trkpt lat="44.11966487331342" lon="12.300143501492531"><ele>31.5</ele><time>2026-04-12T07:15:52.001Z</time></trkpt><trkpt lat="44.11996305429119" lon="12.299982342343982"><ele>32.0</ele><time>2026-04-12T07:15:53.001Z</time></trkpt><trkpt lat="44.12026824860539" lon="12.299814544288642"><ele>32.0</ele><time>2026-04-12T07:15:54.001Z</time></trkpt><trkpt lat="44.120568900721146" lon="12.299630792478363"><ele>32.0</ele><time>2026-04-12T07:15:55.001Z</time></trkpt><trkpt lat="44.12086559957404" lon="12.29943500792335"><ele>32.0</ele><time>2026-04-12T07:15:56.001Z</time></trkpt><trkpt lat="44.121164988766054" lon="12.299226983877253"><ele>32.0</ele><time>2026-04-12T07:15:57.001Z</time></trkpt><trkpt lat="44.12146412228311" lon="12.298995541259243"><ele>31.5</ele><time>2026-04-12T07:15:58.001Z</time></trkpt><trkpt lat="44.12175320015705" lon="12.29875254641448"><ele>31.0</ele><time>2026-04-12T07:15:59.001Z</time></trkpt><trkpt lat="44.12204019992151" lon="12.298493602084363"><ele>31.0</ele><time>2026-04-12T07:16:00.001Z</time></trkpt><trkpt lat="44.12232538693488" lon="12.298249644339966"><ele>31.0</ele><time>2026-04-12T07:16:01.001Z</time></trkpt><trkpt lat="44.12260854560247" lon="12.297997404211083"><ele>30.5</ele><time>2026-04-12T07:16:02.001Z</time></trkpt><trkpt lat="44.12289252312275" lon="12.29774746987228"><ele>30.0</ele><time>2026-04-12T07:16:03.001Z</time></trkpt><trkpt lat="44.12317675712426" lon="12.29750219694705"><ele>30.0</ele><time>2026-04-12T07:16:04.001Z</time></trkpt><trkpt lat="44.12346041431236" lon="12.29725837674641"><ele>30.0</ele><time>2026-04-12T07:16:05.001Z</time></trkpt><trkpt lat="44.123731487806" lon="12.2970196025271"><ele>30.0</ele><time>2026-04-12T07:16:06.001Z</time></trkpt><trkpt lat="44.123993861461734" lon="12.296790792525547"><ele>30.0</ele><time>2026-04-12T07:16:07.001Z</time></trkpt><trkpt lat="44.124258606029855" lon="12.29656409573034"><ele>30.0</ele><time>2026-04-12T07:16:08.001Z</time></trkpt><trkpt lat="44.12451598739793" lon="12.296337698151042"><ele>30.0</ele><time>2026-04-12T07:16:09.001Z</time></trkpt><trkpt lat="44.1247758223446" lon="12.296115229309446"><ele>30.5</ele><time>2026-04-12T07:16:10.001Z</time></trkpt><trkpt lat="44.12503602852092" lon="12.295892867177653"><ele>31.0</ele><time>2026-04-12T07:16:11.001Z</time></trkpt><trkpt lat="44.125298250082345" lon="12.295661168793583"><ele>31.0</ele><time>2026-04-12T07:16:12.001Z</time></trkpt><trkpt lat="44.12556205246634" lon="12.295433522128763"><ele>31.0</ele><time>2026-04-12T07:16:13.001Z</time></trkpt><trkpt lat="44.12582389260552" lon="12.295203652100598"><ele>31.5</ele><time>2026-04-12T07:16:14.001Z</time></trkpt><trkpt lat="44.12609281003983" lon="12.294972838770859"><ele>32.0</ele><time>2026-04-12T07:16:15.001Z</time></trkpt><trkpt lat="44.12635554639097" lon="12.294739490996575"><ele>32.0</ele><time>2026-04-12T07:16:16.001Z</time></trkpt><trkpt lat="44.12662489377051" lon="12.294508374445927"><ele>32.0</ele><time>2026-04-12T07:16:17.001Z</time></trkpt><trkpt lat="44.126894664875756" lon="12.294278668761411"><ele>32.0</ele><time>2026-04-12T07:16:18.001Z</time></trkpt><trkpt lat="44.12716265522428" lon="12.29404578964528"><ele>32.0</ele><time>2026-04-12T07:16:19.001Z</time></trkpt><trkpt lat="44.12743104846174" lon="12.293816910013792"><ele>31.0</ele><time>2026-04-12T07:16:20.001Z</time></trkpt><trkpt lat="44.127700406336885" lon="12.293585387689772"><ele>30.0</ele><time>2026-04-12T07:16:21.001Z</time></trkpt><trkpt lat="44.12796214167689" lon="12.293356636649733"><ele>30.0</ele><time>2026-04-12T07:16:22.001Z</time></trkpt><trkpt lat="44.128226347733126" lon="12.293127556585484"><ele>30.0</ele><time>2026-04-12T07:16:23.001Z</time></trkpt><trkpt lat="44.128489813162396" lon="12.292898218051409"><ele>30.5</ele><time>2026-04-12T07:16:24.001Z</time></trkpt><trkpt lat="44.1287534218255" lon="12.292670073230502"><ele>31.0</ele><time>2026-04-12T07:16:25.001Z</time></trkpt><trkpt lat="44.12901608447834" lon="12.292440405145632"><ele>29.5</ele><time>2026-04-12T07:16:26.001Z</time></trkpt><trkpt lat="44.129277347199995" lon="12.292213981140652"><ele>28.0</ele><time>2026-04-12T07:16:27.001Z</time></trkpt><trkpt lat="44.12953720653952" lon="12.291987641741676"><ele>28.0</ele><time>2026-04-12T07:16:28.001Z</time></trkpt><trkpt lat="44.129797153830935" lon="12.291758492140113"><ele>28.0</ele><time>2026-04-12T07:16:29.001Z</time></trkpt><trkpt lat="44.13005752143592" lon="12.291534277585765"><ele>28.5</ele><time>2026-04-12T07:16:30.001Z</time></trkpt><trkpt lat="44.13031671034984" lon="12.29130815815052"><ele>29.0</ele><time>2026-04-12T07:16:31.001Z</time></trkpt><trkpt lat="44.13057537859594" lon="12.291082557447474"><ele>29.0</ele><time>2026-04-12T07:16:32.001Z</time></trkpt><trkpt lat="44.13083122578434" lon="12.290861246702367"><ele>29.0</ele><time>2026-04-12T07:16:33.001Z</time></trkpt><trkpt lat="44.13108402552391" lon="12.29063982315626"><ele>29.0</ele><time>2026-04-12T07:16:34.001Z</time></trkpt><trkpt lat="44.131332911012535" lon="12.290420135456186"><ele>29.0</ele><time>2026-04-12T07:16:35.001Z</time></trkpt><trkpt lat="44.13158867294792" lon="12.290198678031054"><ele>29.0</ele><time>2026-04-12T07:16:36.001Z</time></trkpt><trkpt lat="44.13184434344809" lon="12.289976422573934"><ele>29.0</ele><time>2026-04-12T07:16:37.001Z</time></trkpt><trkpt lat="44.13209298074569" lon="12.289754862385806"><ele>29.0</ele><time>2026-04-12T07:16:38.001Z</time></trkpt><trkpt lat="44.13234326730344" lon="12.28953769308158"><ele>29.0</ele><time>2026-04-12T07:16:39.001Z</time></trkpt><trkpt lat="44.13258524935501" lon="12.289319968506758"><ele>28.5</ele><time>2026-04-12T07:16:40.002Z</time></trkpt><trkpt lat="44.13283000875295" lon="12.289094787972717"><ele>28.0</ele><time>2026-04-12T07:16:41.002Z</time></trkpt><trkpt lat="44.13307311105852" lon="12.288862691944516"><ele>28.0</ele><time>2026-04-12T07:16:42.002Z</time></trkpt><trkpt lat="44.13330221479162" lon="12.288612439200898"><ele>28.0</ele><time>2026-04-12T07:16:43.002Z</time></trkpt><trkpt lat="44.13352112456196" lon="12.288352997513368"><ele>27.5</ele><time>2026-04-12T07:16:44Z</time></trkpt><trkpt lat="44.13371941779584" lon="12.288084174776392"><ele>27.0</ele><time>2026-04-12T07:16:45Z</time></trkpt><trkpt lat="44.13389731012996" lon="12.28780157752033"><ele>27.0</ele><time>2026-04-12T07:16:46Z</time></trkpt><trkpt lat="44.134076232627855" lon="12.287496383491977"><ele>27.0</ele><time>2026-04-12T07:16:47Z</time></trkpt><trkpt lat="44.134237014353175" lon="12.287186990403592"><ele>27.0</ele><time>2026-04-12T07:16:48Z</time></trkpt><trkpt lat="44.13438074818313" lon="12.286856436014396"><ele>27.0</ele><time>2026-04-12T07:16:49Z</time></trkpt><trkpt lat="44.13450912130569" lon="12.286511763687033"><ele>27.0</ele><time>2026-04-12T07:16:50Z</time></trkpt><trkpt lat="44.134623285192326" lon="12.286153469520784"><ele>27.0</ele><time>2026-04-12T07:16:51Z</time></trkpt><trkpt lat="44.13472698692143" lon="12.28577555933895"><ele>27.0</ele><time>2026-04-12T07:16:52Z</time></trkpt><trkpt lat="44.134814503881536" lon="12.28538642669588"><ele>27.0</ele><time>2026-04-12T07:16:53Z</time></trkpt><trkpt lat="44.13490135844724" lon="12.28498051225533"><ele>27.0</ele><time>2026-04-12T07:16:54Z</time></trkpt><trkpt lat="44.13497897447904" lon="12.284582032840241"><ele>27.0</ele><time>2026-04-12T07:16:55Z</time></trkpt><trkpt lat="44.135048579471146" lon="12.284174653140147"><ele>27.0</ele><time>2026-04-12T07:16:56Z</time></trkpt><trkpt lat="44.135115049557804" lon="12.283777079183446"><ele>27.0</ele><time>2026-04-12T07:16:57Z</time></trkpt><trkpt lat="44.13518110716392" lon="12.283379493193197"><ele>26.0</ele><time>2026-04-12T07:16:58Z</time></trkpt><trkpt lat="44.13524711276612" lon="12.282983432784173"><ele>25.0</ele><time>2026-04-12T07:16:59Z</time></trkpt><trkpt lat="44.135315617515566" lon="12.2825850574714"><ele>25.5</ele><time>2026-04-12T07:17:00Z</time></trkpt><trkpt lat="44.13538449900465" lon="12.282194783042971"><ele>26.0</ele><time>2026-04-12T07:17:01Z</time></trkpt><trkpt lat="44.135449877177955" lon="12.281808657598923"><ele>26.0</ele><time>2026-04-12T07:17:02Z</time></trkpt><trkpt lat="44.1355117359197" lon="12.28144013261582"><ele>26.0</ele><time>2026-04-12T07:17:03Z</time></trkpt><trkpt lat="44.13556917916615" lon="12.281074266392272"><ele>26.5</ele><time>2026-04-12T07:17:04Z</time></trkpt><trkpt lat="44.1356277197903" lon="12.280697447181382"><ele>27.0</ele><time>2026-04-12T07:17:05Z</time></trkpt><trkpt lat="44.1356943136785" lon="12.280303459610058"><ele>27.0</ele><time>2026-04-12T07:17:06Z</time></trkpt><trkpt lat="44.13576496654249" lon="12.279919857593061"><ele>27.0</ele><time>2026-04-12T07:17:07Z</time></trkpt><trkpt lat="44.13582661859627" lon="12.279569813936495"><ele>26.666666666666664</ele><time>2026-04-12T07:17:08Z</time></trkpt><trkpt lat="44.135881392313074" lon="12.27924607094579"><ele>26.333333333333332</ele><time>2026-04-12T07:17:09Z</time></trkpt><trkpt lat="44.13593135730276" lon="12.278963608787375"><ele>26.0</ele><time>2026-04-12T07:17:10Z</time></trkpt><trkpt lat="44.13597365351012" lon="12.278713879323591"><ele>26.0</ele><time>2026-04-12T07:17:11Z</time></trkpt><trkpt lat="44.136015238677984" lon="12.278488319723353"><ele>26.0</ele><time>2026-04-12T07:17:12Z</time></trkpt><trkpt lat="44.13605763282077" lon="12.278290302215343"><ele>26.0</ele><time>2026-04-12T07:17:13Z</time></trkpt><trkpt lat="44.13610333545992" lon="12.278130472319793"><ele>26.0</ele><time>2026-04-12T07:17:14Z</time></trkpt><trkpt lat="44.136149529926215" lon="12.277978222058033"><ele>26.0</ele><time>2026-04-12T07:17:15Z</time></trkpt><trkpt lat="44.13618317637461" lon="12.277836884287018"><ele>26.0</ele><time>2026-04-12T07:17:16Z</time></trkpt><trkpt lat="44.136218633180505" lon="12.27770632750126"><ele>26.0</ele><time>2026-04-12T07:17:17Z</time></trkpt><trkpt lat="44.13624763747567" lon="12.277603901371544"><ele>26.0</ele><time>2026-04-12T07:17:18Z</time></trkpt><trkpt lat="44.13629450673554" lon="12.277536037442395"><ele>26.0</ele><time>2026-04-12T07:17:19Z</time></trkpt><trkpt lat="44.13639057114882" lon="12.27744430848721"><ele>26.0</ele><time>2026-04-12T07:17:21Z</time></trkpt><trkpt lat="44.136437979663214" lon="12.277351850067374"><ele>26.0</ele><time>2026-04-12T07:17:23Z</time></trkpt><trkpt lat="44.136519827742646" lon="12.277267492654378"><ele>26.0</ele><time>2026-04-12T07:22:33.001Z</time></trkpt><trkpt lat="44.13653718513486" lon="12.277135147006753"><ele>26.0</ele><time>2026-04-12T07:22:35.001Z</time></trkpt><trkpt lat="44.13652355799416" lon="12.276967905596335"><ele>26.0</ele><time>2026-04-12T07:22:37.001Z</time></trkpt><trkpt lat="44.13651249286876" lon="12.276862903082144"><ele>26.0</ele><time>2026-04-12T07:22:38.001Z</time></trkpt><trkpt lat="44.13651396694821" lon="12.27673732732735"><ele>26.0</ele><time>2026-04-12T07:22:39.001Z</time></trkpt><trkpt lat="44.13654406696917" lon="12.276578674559744"><ele>26.0</ele><time>2026-04-12T07:22:40.001Z</time></trkpt><trkpt lat="44.13659796431894" lon="12.276387844784917"><ele>26.0</ele><time>2026-04-12T07:22:41.001Z</time></trkpt><trkpt lat="44.13668333571522" lon="12.276132401633271"><ele>26.0</ele><time>2026-04-12T07:22:42.001Z</time></trkpt><trkpt lat="44.13678250498855" lon="12.275829722258562"><ele>26.0</ele><time>2026-04-12T07:22:43.001Z</time></trkpt><trkpt lat="44.1368904092015" lon="12.275492633097477"><ele>26.0</ele><time>2026-04-12T07:22:44.001Z</time></trkpt><trkpt lat="44.13701393570904" lon="12.27516175800694"><ele>26.0</ele><time>2026-04-12T07:22:45.001Z</time></trkpt><trkpt lat="44.13714883807458" lon="12.274812593665391"><ele>26.5</ele><time>2026-04-12T07:22:46.001Z</time></trkpt><trkpt lat="44.13725565601931" lon="12.27451746749992"><ele>27.0</ele><time>2026-04-12T07:22:47.001Z</time></trkpt><trkpt lat="44.13736458935357" lon="12.274232968717609"><ele>27.0</ele><time>2026-04-12T07:22:48.001Z</time></trkpt><trkpt lat="44.137475271575646" lon="12.273940834878333"><ele>27.0</ele><time>2026-04-12T07:22:49.001Z</time></trkpt><trkpt lat="44.13758664742018" lon="12.273643062238666"><ele>27.0</ele><time>2026-04-12T07:22:50.001Z</time></trkpt><trkpt lat="44.137698339333895" lon="12.273336193277162"><ele>27.0</ele><time>2026-04-12T07:22:51.001Z</time></trkpt><trkpt lat="44.13781774443161" lon="12.273032810256312"><ele>27.5</ele><time>2026-04-12T07:22:52.001Z</time></trkpt><trkpt lat="44.137928878483514" lon="12.272735871684946"><ele>28.0</ele><time>2026-04-12T07:22:53.001Z</time></trkpt><trkpt lat="44.13803859206707" lon="12.272451807746746"><ele>28.0</ele><time>2026-04-12T07:22:54.001Z</time></trkpt><trkpt lat="44.13813885712819" lon="12.272181990315785"><ele>28.0</ele><time>2026-04-12T07:22:55.001Z</time></trkpt><trkpt lat="44.13823980424751" lon="12.271901857813065"><ele>28.0</ele><time>2026-04-12T07:22:56.001Z</time></trkpt><trkpt lat="44.13834915087902" lon="12.27161540306488"><ele>28.0</ele><time>2026-04-12T07:22:57.001Z</time></trkpt><trkpt lat="44.138461184426355" lon="12.271321226663222"><ele>28.0</ele><time>2026-04-12T07:22:58.001Z</time></trkpt><trkpt lat="44.138575773848146" lon="12.271014767592842"><ele>28.0</ele><time>2026-04-12T07:22:59.001Z</time></trkpt><trkpt lat="44.13870270186347" lon="12.270687551873383"><ele>28.0</ele><time>2026-04-12T07:23:00.001Z</time></trkpt><trkpt lat="44.13882868361358" lon="12.270348653086094"><ele>27.5</ele><time>2026-04-12T07:23:01.001Z</time></trkpt><trkpt lat="44.138956699411445" lon="12.270011570334677"><ele>27.0</ele><time>2026-04-12T07:23:02.002Z</time></trkpt><trkpt lat="44.139081987700706" lon="12.269675799877716"><ele>27.0</ele><time>2026-04-12T07:23:03.002Z</time></trkpt><trkpt lat="44.13920638421696" lon="12.269333672474398"><ele>27.0</ele><time>2026-04-12T07:23:04.001Z</time></trkpt><trkpt lat="44.13932962253818" lon="12.268991476845017"><ele>27.0</ele><time>2026-04-12T07:23:05.001Z</time></trkpt><trkpt lat="44.13945460089815" lon="12.268658411962381"><ele>27.0</ele><time>2026-04-12T07:23:06.001Z</time></trkpt><trkpt lat="44.13958156166582" lon="12.268323732140152"><ele>28.5</ele><time>2026-04-12T07:23:07.001Z</time></trkpt><trkpt lat="44.13970951776836" lon="12.267988410827217"><ele>30.0</ele><time>2026-04-12T07:23:08.001Z</time></trkpt><trkpt lat="44.13984380142066" lon="12.267653456303645"><ele>29.0</ele><time>2026-04-12T07:23:09.001Z</time></trkpt><trkpt lat="44.1399700927934" lon="12.267319645790774"><ele>28.0</ele><time>2026-04-12T07:23:10.001Z</time></trkpt><trkpt lat="44.140119449196106" lon="12.266988125848988"><ele>28.0</ele><time>2026-04-12T07:23:11.001Z</time></trkpt><trkpt lat="44.140276762424676" lon="12.266662761460429"><ele>28.0</ele><time>2026-04-12T07:23:12.001Z</time></trkpt><trkpt lat="44.14045823619573" lon="12.266344797011627"><ele>28.5</ele><time>2026-04-12T07:23:13.001Z</time></trkpt><trkpt lat="44.140642428664826" lon="12.26605197327835"><ele>29.0</ele><time>2026-04-12T07:23:14.001Z</time></trkpt><trkpt lat="44.14082243541646" lon="12.265771718767855"><ele>28.0</ele><time>2026-04-12T07:23:15.001Z</time></trkpt><trkpt lat="44.141010806446324" lon="12.265503523845782"><ele>27.0</ele><time>2026-04-12T07:23:16.001Z</time></trkpt><trkpt lat="44.14119855650051" lon="12.265240275743622"><ele>27.0</ele><time>2026-04-12T07:23:17.001Z</time></trkpt><trkpt lat="44.14137999290585" lon="12.264978476854608"><ele>27.0</ele><time>2026-04-12T07:23:18.001Z</time></trkpt><trkpt lat="44.14156030059021" lon="12.26472058145974"><ele>27.5</ele><time>2026-04-12T07:23:19.001Z</time></trkpt><trkpt lat="44.14173620557408" lon="12.264469236821204"><ele>28.0</ele><time>2026-04-12T07:23:20.001Z</time></trkpt><trkpt lat="44.14190776104832" lon="12.26422379579617"><ele>28.0</ele><time>2026-04-12T07:23:21.001Z</time></trkpt><trkpt lat="44.14206313248965" lon="12.263988276414244"><ele>28.0</ele><time>2026-04-12T07:23:22.001Z</time></trkpt><trkpt lat="44.14221527726235" lon="12.263737720345224"><ele>27.5</ele><time>2026-04-12T07:23:23.001Z</time></trkpt><trkpt lat="44.14235691104946" lon="12.26348211096441"><ele>27.0</ele><time>2026-04-12T07:23:24.001Z</time></trkpt><trkpt lat="44.14248169122283" lon="12.263226204637675"><ele>27.333333333333336</ele><time>2026-04-12T07:23:25.001Z</time></trkpt><trkpt lat="44.14258946305678" lon="12.26298014588561"><ele>27.666666666666668</ele><time>2026-04-12T07:23:26.001Z</time></trkpt><trkpt lat="44.14268542833286" lon="12.262737429394113"><ele>28.0</ele><time>2026-04-12T07:23:27.001Z</time></trkpt><trkpt lat="44.142775508990844" lon="12.26248396352325"><ele>28.0</ele><time>2026-04-12T07:23:28.001Z</time></trkpt><trkpt lat="44.14285867834451" lon="12.262221808501467"><ele>28.0</ele><time>2026-04-12T07:23:29.001Z</time></trkpt><trkpt lat="44.14293464159877" lon="12.261955047478224"><ele>28.0</ele><time>2026-04-12T07:23:30.001Z</time></trkpt><trkpt lat="44.14300457719643" lon="12.261672918967456"><ele>28.5</ele><time>2026-04-12T07:23:31.001Z</time></trkpt><trkpt lat="44.143063922375546" lon="12.261369537851966"><ele>29.0</ele><time>2026-04-12T07:23:32.001Z</time></trkpt><trkpt lat="44.14312069775123" lon="12.26103417873095"><ele>29.0</ele><time>2026-04-12T07:23:33.001Z</time></trkpt><trkpt lat="44.14316852417655" lon="12.26068939631693"><ele>29.0</ele><time>2026-04-12T07:23:34.001Z</time></trkpt><trkpt lat="44.14320419476769" lon="12.260370463674215"><ele>30.5</ele><time>2026-04-12T07:23:35.001Z</time></trkpt><trkpt lat="44.14323515731873" lon="12.260044785449514"><ele>32.0</ele><time>2026-04-12T07:23:36.001Z</time></trkpt><trkpt lat="44.143266166409944" lon="12.259725702361145"><ele>33.0</ele><time>2026-04-12T07:23:37.001Z</time></trkpt><trkpt lat="44.14329508027841" lon="12.259412465198196"><ele>34.0</ele><time>2026-04-12T07:23:38.001Z</time></trkpt><trkpt lat="44.143329148594574" lon="12.259088386319075"><ele>33.5</ele><time>2026-04-12T07:23:39.001Z</time></trkpt><trkpt lat="44.14336608886536" lon="12.258744883122633"><ele>33.0</ele><time>2026-04-12T07:23:40.001Z</time></trkpt><trkpt lat="44.14340214916849" lon="12.258402170095685"><ele>32.0</ele><time>2026-04-12T07:23:41.001Z</time></trkpt><trkpt lat="44.143442406402215" lon="12.258055154777963"><ele>31.0</ele><time>2026-04-12T07:23:42.001Z</time></trkpt><trkpt lat="44.14348182233756" lon="12.257708226245862"><ele>31.0</ele><time>2026-04-12T07:23:43.001Z</time></trkpt><trkpt lat="44.14352339369458" lon="12.257359910429034"><ele>31.0</ele><time>2026-04-12T07:23:44.001Z</time></trkpt><trkpt lat="44.14357630106839" lon="12.25701088811457"><ele>32.5</ele><time>2026-04-12T07:23:45.001Z</time></trkpt><trkpt lat="44.14363151393448" lon="12.25665957411383"><ele>34.0</ele><time>2026-04-12T07:23:46.001Z</time></trkpt><trkpt lat="44.14371104186418" lon="12.256323297660327"><ele>34.0</ele><time>2026-04-12T07:23:47.001Z</time></trkpt><trkpt lat="44.14378925126187" lon="12.255978142466095"><ele>34.0</ele><time>2026-04-12T07:23:48.001Z</time></trkpt><trkpt lat="44.143869417424334" lon="12.255627562156448"><ele>35.5</ele><time>2026-04-12T07:23:49.026Z</time></trkpt><trkpt lat="44.14393981967212" lon="12.255286677004438"><ele>37.0</ele><time>2026-04-12T07:23:50.024Z</time></trkpt><trkpt lat="44.144013817915685" lon="12.254954282950527"><ele>37.0</ele><time>2026-04-12T07:23:51.018Z</time></trkpt><trkpt lat="44.1440992266462" lon="12.254608157813765"><ele>37.0</ele><time>2026-04-12T07:23:52.022Z</time></trkpt><trkpt lat="44.14418438221825" lon="12.254259679917086"><ele>32.0</ele><time>2026-04-12T07:23:53.017Z</time></trkpt><trkpt lat="44.149973932694785" lon="12.238370636489464"><ele>31.0</ele><time>2026-04-12T07:24:41.001Z</time></trkpt><trkpt lat="44.15011973523311" lon="12.238028031878564"><ele>30.0</ele><time>2026-04-12T07:24:42.001Z</time></trkpt><trkpt lat="44.15026976474868" lon="12.237638762276301"><ele>29.0</ele><time>2026-04-12T07:24:43.001Z</time></trkpt><trkpt lat="44.15043912059117" lon="12.237277822253272"><ele>28.0</ele><time>2026-04-12T07:24:44.001Z</time></trkpt><trkpt lat="44.15057210921625" lon="12.236915609214947"><ele>28.0</ele><time>2026-04-12T07:24:45.001Z</time></trkpt><trkpt lat="44.15070620272166" lon="12.236526192631773"><ele>28.0</ele><time>2026-04-12T07:24:46.001Z</time></trkpt><trkpt lat="44.150825900738184" lon="12.23612409995583"><ele>27.0</ele><time>2026-04-12T07:24:47.001Z</time></trkpt><trkpt lat="44.15093862975947" lon="12.235719401698253"><ele>26.0</ele><time>2026-04-12T07:24:48.001Z</time></trkpt><trkpt lat="44.151035065715774" lon="12.235321606579578"><ele>25.0</ele><time>2026-04-12T07:24:49.001Z</time></trkpt><trkpt lat="44.15112293850295" lon="12.234925288512681"><ele>24.0</ele><time>2026-04-12T07:24:50.001Z</time></trkpt><trkpt lat="44.15121312218234" lon="12.234538571275825"><ele>24.0</ele><time>2026-04-12T07:24:51.001Z</time></trkpt><trkpt lat="44.1513058633091" lon="12.2341584948214"><ele>24.0</ele><time>2026-04-12T07:24:52.001Z</time></trkpt><trkpt lat="44.151396700132416" lon="12.23378198387519"><ele>25.0</ele><time>2026-04-12T07:24:53.001Z</time></trkpt><trkpt lat="44.15149037482293" lon="12.23340134209785"><ele>26.0</ele><time>2026-04-12T07:24:54.001Z</time></trkpt><trkpt lat="44.15158593674893" lon="12.233016482686203"><ele>26.0</ele><time>2026-04-12T07:24:55.001Z</time></trkpt><trkpt lat="44.151684037234666" lon="12.232634525617847"><ele>26.0</ele><time>2026-04-12T07:24:56.001Z</time></trkpt><trkpt lat="44.15179266418177" lon="12.232255297196494"><ele>26.0</ele><time>2026-04-12T07:24:57.001Z</time></trkpt><trkpt lat="44.15191147114071" lon="12.231873891439097"><ele>26.0</ele><time>2026-04-12T07:24:58.001Z</time></trkpt><trkpt lat="44.152035319972285" lon="12.231499856106131"><ele>26.0</ele><time>2026-04-12T07:24:59.001Z</time></trkpt><trkpt lat="44.15216886179236" lon="12.231120271931756"><ele>26.0</ele><time>2026-04-12T07:25:00.001Z</time></trkpt><trkpt lat="44.15230921106339" lon="12.230746147376026"><ele>25.5</ele><time>2026-04-12T07:25:01.001Z</time></trkpt><trkpt lat="44.15245709215111" lon="12.230374548625775"><ele>25.0</ele><time>2026-04-12T07:25:02.001Z</time></trkpt><trkpt lat="44.15260826984694" lon="12.230004589285231"><ele>24.5</ele><time>2026-04-12T07:25:03.001Z</time></trkpt><trkpt lat="44.152761773744565" lon="12.22963999793794"><ele>24.0</ele><time>2026-04-12T07:25:04.001Z</time></trkpt><trkpt lat="44.15291679179179" lon="12.229273581122943"><ele>24.5</ele><time>2026-04-12T07:25:05.001Z</time></trkpt><trkpt lat="44.15306649347739" lon="12.228911934286716"><ele>25.0</ele><time>2026-04-12T07:25:06.001Z</time></trkpt><trkpt lat="44.1532143716735" lon="12.228546240775184"><ele>25.5</ele><time>2026-04-12T07:25:07.001Z</time></trkpt><trkpt lat="44.15337019537544" lon="12.228188382305067"><ele>26.0</ele><time>2026-04-12T07:25:08Z</time></trkpt><trkpt lat="44.153522963238814" lon="12.227827079299217"><ele>26.0</ele><time>2026-04-12T07:25:09Z</time></trkpt><trkpt lat="44.15367355644541" lon="12.227462541314726"><ele>26.0</ele><time>2026-04-12T07:25:10Z</time></trkpt><trkpt lat="44.15382247048293" lon="12.227095221562518"><ele>26.5</ele><time>2026-04-12T07:25:11Z</time></trkpt><trkpt lat="44.15397586236443" lon="12.226724098312818"><ele>27.0</ele><time>2026-04-12T07:25:12Z</time></trkpt><trkpt lat="44.15412927567195" lon="12.226350659095095"><ele>28.5</ele><time>2026-04-12T07:25:13Z</time></trkpt><trkpt lat="44.15428112350526" lon="12.225980484616908"><ele>30.0</ele><time>2026-04-12T07:25:14Z</time></trkpt><trkpt lat="44.154437391522464" lon="12.225608301922415"><ele>30.0</ele><time>2026-04-12T07:25:15Z</time></trkpt><trkpt lat="44.15458496617587" lon="12.22523046094413"><ele>30.0</ele><time>2026-04-12T07:25:16Z</time></trkpt><trkpt lat="44.15474798190548" lon="12.224856677310763"><ele>31.0</ele><time>2026-04-12T07:25:17Z</time></trkpt><trkpt lat="44.15490231071367" lon="12.224482090586815"><ele>32.0</ele><time>2026-04-12T07:25:18Z</time></trkpt><trkpt lat="44.15505971037104" lon="12.224103702050948"><ele>31.5</ele><time>2026-04-12T07:25:19Z</time></trkpt><trkpt lat="44.155216497036186" lon="12.223727922688553"><ele>31.0</ele><time>2026-04-12T07:25:20Z</time></trkpt><trkpt lat="44.15537141636827" lon="12.223358111658454"><ele>31.0</ele><time>2026-04-12T07:25:21Z</time></trkpt><trkpt lat="44.15552877815065" lon="12.222990069588313"><ele>31.0</ele><time>2026-04-12T07:25:22Z</time></trkpt><trkpt lat="44.15568643358993" lon="12.222624945830171"><ele>32.0</ele><time>2026-04-12T07:25:23Z</time></trkpt><trkpt lat="44.15584693412389" lon="12.222265282139276"><ele>33.0</ele><time>2026-04-12T07:25:24Z</time></trkpt><trkpt lat="44.15601648908291" lon="12.221914597519271"><ele>33.0</ele><time>2026-04-12T07:25:25Z</time></trkpt><trkpt lat="44.15619659486428" lon="12.22156967996823"><ele>33.0</ele><time>2026-04-12T07:25:26Z</time></trkpt><trkpt lat="44.15637948042054" lon="12.221228764866389"><ele>33.5</ele><time>2026-04-12T07:25:27Z</time></trkpt><trkpt lat="44.15656865830852" lon="12.220895224522161"><ele>34.0</ele><time>2026-04-12T07:25:28Z</time></trkpt><trkpt lat="44.156763468934244" lon="12.220568526074512"><ele>33.0</ele><time>2026-04-12T07:25:29Z</time></trkpt><trkpt lat="44.15696090992366" lon="12.220246629494932"><ele>32.0</ele><time>2026-04-12T07:25:30Z</time></trkpt><trkpt lat="44.157162443176155" lon="12.219932813026059"><ele>31.5</ele><time>2026-04-12T07:25:31Z</time></trkpt><trkpt lat="44.15736901820832" lon="12.21962092060392"><ele>31.0</ele><time>2026-04-12T07:25:32Z</time></trkpt><trkpt lat="44.15757614313676" lon="12.219313982248618"><ele>31.0</ele><time>2026-04-12T07:25:33Z</time></trkpt><trkpt lat="44.15778639658398" lon="12.219010770874865"><ele>31.0</ele><time>2026-04-12T07:25:34Z</time></trkpt><trkpt lat="44.15799532774455" lon="12.218707647515272"><ele>32.0</ele><time>2026-04-12T07:25:35Z</time></trkpt><trkpt lat="44.15820844709228" lon="12.218403237597073"><ele>33.0</ele><time>2026-04-12T07:25:36Z</time></trkpt><trkpt lat="44.15841896308941" lon="12.218094854850378"><ele>34.5</ele><time>2026-04-12T07:25:37Z</time></trkpt><trkpt lat="44.15862934125988" lon="12.217788276438164"><ele>36.0</ele><time>2026-04-12T07:25:38Z</time></trkpt><trkpt lat="44.15883226195878" lon="12.217478706289292"><ele>34.5</ele><time>2026-04-12T07:25:39Z</time></trkpt><trkpt lat="44.15904895998715" lon="12.217167826285817"><ele>33.0</ele><time>2026-04-12T07:25:40Z</time></trkpt><trkpt lat="44.15926308036907" lon="12.216856942633985"><ele>33.0</ele><time>2026-04-12T07:25:41Z</time></trkpt><trkpt lat="44.15947782504966" lon="12.21654324797255"><ele>33.0</ele><time>2026-04-12T07:25:42Z</time></trkpt><trkpt lat="44.1596916580993" lon="12.216231663058124"><ele>33.0</ele><time>2026-04-12T07:25:43Z</time></trkpt><trkpt lat="44.159904166328026" lon="12.215924533673666"><ele>33.0</ele><time>2026-04-12T07:25:44Z</time></trkpt><trkpt lat="44.16011750487772" lon="12.21561387287921"><ele>33.0</ele><time>2026-04-12T07:25:45Z</time></trkpt><trkpt lat="44.16033225856392" lon="12.215299031552334"><ele>33.0</ele><time>2026-04-12T07:25:46Z</time></trkpt><trkpt lat="44.16055087128787" lon="12.214986616005708"><ele>32.5</ele><time>2026-04-12T07:25:47Z</time></trkpt><trkpt lat="44.1607649768933" lon="12.21467162548069"><ele>32.0</ele><time>2026-04-12T07:25:48Z</time></trkpt><trkpt lat="44.16097653643285" lon="12.214353313036305"><ele>32.0</ele><time>2026-04-12T07:25:49Z</time></trkpt><trkpt lat="44.161178478472834" lon="12.214028506433829"><ele>32.0</ele><time>2026-04-12T07:25:50Z</time></trkpt><trkpt lat="44.16136996054878" lon="12.213685157678064"><ele>32.0</ele><time>2026-04-12T07:25:51Z</time></trkpt><trkpt lat="44.16154881683009" lon="12.213333794801216"><ele>32.0</ele><time>2026-04-12T07:25:52Z</time></trkpt><trkpt lat="44.16171714398216" lon="12.212972741367064"><ele>32.0</ele><time>2026-04-12T07:25:53Z</time></trkpt><trkpt lat="44.16188055889774" lon="12.212604914067912"><ele>32.0</ele><time>2026-04-12T07:25:54Z</time></trkpt><trkpt lat="44.162034552305215" lon="12.212234793044123"><ele>32.0</ele><time>2026-04-12T07:25:55Z</time></trkpt><trkpt lat="44.16218640693628" lon="12.21185480825688"><ele>32.0</ele><time>2026-04-12T07:25:56Z</time></trkpt><trkpt lat="44.16233190307153" lon="12.211496751599993"><ele>31.5</ele><time>2026-04-12T07:25:57Z</time></trkpt><trkpt lat="44.1624817484307" lon="12.211144059957538"><ele>31.0</ele><time>2026-04-12T07:25:58Z</time></trkpt><trkpt lat="44.16262431312796" lon="12.210802179574017"><ele>29.5</ele><time>2026-04-12T07:25:59Z</time></trkpt><trkpt lat="44.1627655289396" lon="12.21046374413504"><ele>28.0</ele><time>2026-04-12T07:26:00Z</time></trkpt><trkpt lat="44.16289752601713" lon="12.210145137088832"><ele>28.0</ele><time>2026-04-12T07:26:01Z</time></trkpt><trkpt lat="44.16302248164221" lon="12.20983779924312"><ele>28.0</ele><time>2026-04-12T07:26:02Z</time></trkpt><trkpt lat="44.16314314483064" lon="12.209541985821781"><ele>28.666666666666668</ele><time>2026-04-12T07:26:03Z</time></trkpt><trkpt lat="44.163252580931655" lon="12.20927803469877"><ele>29.333333333333336</ele><time>2026-04-12T07:26:04Z</time></trkpt><trkpt lat="44.163346442192925" lon="12.209029597606403"><ele>30.0</ele><time>2026-04-12T07:26:05Z</time></trkpt><trkpt lat="44.16342963162977" lon="12.208782898003918"><ele>30.0</ele><time>2026-04-12T07:26:06Z</time></trkpt><trkpt lat="44.16350537483458" lon="12.208578694055397"><ele>30.0</ele><time>2026-04-12T07:26:07Z</time></trkpt><trkpt lat="44.163569425482514" lon="12.208396896802318"><ele>30.0</ele><time>2026-04-12T07:26:08Z</time></trkpt><trkpt lat="44.16362407638107" lon="12.208246748062438"><ele>30.0</ele><time>2026-04-12T07:26:09Z</time></trkpt><trkpt lat="44.16367238776974" lon="12.208126296463757"><ele>30.0</ele><time>2026-04-12T07:26:10Z</time></trkpt><trkpt lat="44.163704040420605" lon="12.20803780782527"><ele>30.0</ele><time>2026-04-12T07:26:11Z</time></trkpt><trkpt lat="44.163722037862215" lon="12.207942991231922"><ele>30.0</ele><time>2026-04-12T07:26:13Z</time></trkpt><trkpt lat="44.16367654578044" lon="12.207855351689878"><ele>30.0</ele><time>2026-04-12T07:26:19Z</time></trkpt><trkpt lat="44.16361228338539" lon="12.207851459685035"><ele>30.0</ele><time>2026-04-12T07:26:20Z</time></trkpt><trkpt lat="44.16351315194531" lon="12.207919420645975"><ele>30.0</ele><time>2026-04-12T07:26:21Z</time></trkpt><trkpt lat="44.16336201340274" lon="12.208005336922994"><ele>30.666666666666664</ele><time>2026-04-12T07:26:22Z</time></trkpt><trkpt lat="44.16316894729289" lon="12.208109287284808"><ele>31.333333333333332</ele><time>2026-04-12T07:26:23Z</time></trkpt><trkpt lat="44.16299913061579" lon="12.208187533264631"><ele>32.0</ele><time>2026-04-12T07:26:24Z</time></trkpt><trkpt lat="44.16281186821299" lon="12.208278443312565"><ele>32.0</ele><time>2026-04-12T07:26:25Z</time></trkpt><trkpt lat="44.16263093808563" lon="12.20837408761728"><ele>32.0</ele><time>2026-04-12T07:26:26Z</time></trkpt><trkpt lat="44.16246873276581" lon="12.208461530306348"><ele>32.0</ele><time>2026-04-12T07:26:27Z</time></trkpt><trkpt lat="44.162325485130395" lon="12.208532700034619"><ele>31.5</ele><time>2026-04-12T07:26:28Z</time></trkpt><trkpt lat="44.16219249501462" lon="12.208596277840496"><ele>31.0</ele><time>2026-04-12T07:26:29Z</time></trkpt><trkpt lat="44.162060167304624" lon="12.208656523027036"><ele>30.5</ele><time>2026-04-12T07:26:30Z</time></trkpt><trkpt lat="44.16191551264207" lon="12.208702898343255"><ele>30.0</ele><time>2026-04-12T07:26:31Z</time></trkpt><trkpt lat="44.161746095992264" lon="12.208738254479924"><ele>30.0</ele><time>2026-04-12T07:26:32Z</time></trkpt><trkpt lat="44.161563072773916" lon="12.208745083648509"><ele>30.0</ele><time>2026-04-12T07:26:33Z</time></trkpt><trkpt lat="44.16140298596051" lon="12.20873466497529"><ele>30.0</ele><time>2026-04-12T07:26:34Z</time></trkpt><trkpt lat="44.16125679000371" lon="12.208733764744"><ele>30.333333333333336</ele><time>2026-04-12T07:26:35Z</time></trkpt><trkpt lat="44.161110063376114" lon="12.208766295169806"><ele>30.666666666666668</ele><time>2026-04-12T07:26:36Z</time></trkpt><trkpt lat="44.160959674706746" lon="12.208823614746027"><ele>31.0</ele><time>2026-04-12T07:26:37Z</time></trkpt><trkpt lat="44.16080516143164" lon="12.208854001120299"><ele>31.333333333333336</ele><time>2026-04-12T07:26:38Z</time></trkpt><trkpt lat="44.160655156004076" lon="12.208910129224329"><ele>31.666666666666664</ele><time>2026-04-12T07:26:39Z</time></trkpt><trkpt lat="44.16051033243119" lon="12.208985633510535"><ele>32.0</ele><time>2026-04-12T07:26:40Z</time></trkpt><trkpt lat="44.160376197217246" lon="12.209079175279506"><ele>32.5</ele><time>2026-04-12T07:26:41Z</time></trkpt><trkpt lat="44.16027052047106" lon="12.209126700580128"><ele>33.0</ele><time>2026-04-12T07:26:42Z</time></trkpt><trkpt lat="44.160141444156096" lon="12.209246982574136"><ele>33.5</ele><time>2026-04-12T07:26:43Z</time></trkpt><trkpt lat="44.160027960847515" lon="12.209396125308698"><ele>34.0</ele><time>2026-04-12T07:26:44Z</time></trkpt><trkpt lat="44.1599154610541" lon="12.209539955535476"><ele>34.0</ele><time>2026-04-12T07:26:45Z</time></trkpt><trkpt lat="44.15980731109968" lon="12.209665069408771"><ele>34.0</ele><time>2026-04-12T07:26:46Z</time></trkpt><trkpt lat="44.1596854383577" lon="12.209784086539692"><ele>34.0</ele><time>2026-04-12T07:26:47Z</time></trkpt><trkpt lat="44.159553773091815" lon="12.209901666589019"><ele>34.0</ele><time>2026-04-12T07:26:48Z</time></trkpt><trkpt lat="44.15940753016235" lon="12.209998854279094"><ele>34.0</ele><time>2026-04-12T07:26:49Z</time></trkpt><trkpt lat="44.159247919318055" lon="12.210083827664013"><ele>34.0</ele><time>2026-04-12T07:26:50Z</time></trkpt><trkpt lat="44.15909042832058" lon="12.210159504099568"><ele>34.0</ele><time>2026-04-12T07:26:51Z</time></trkpt><trkpt lat="44.15892721940057" lon="12.210230191855073"><ele>33.66666666666667</ele><time>2026-04-12T07:26:52Z</time></trkpt><trkpt lat="44.158765558568945" lon="12.210309564091324"><ele>33.333333333333336</ele><time>2026-04-12T07:26:53Z</time></trkpt><trkpt lat="44.15860686702329" lon="12.2103909120139"><ele>33.0</ele><time>2026-04-12T07:26:54Z</time></trkpt><trkpt lat="44.15845065926063" lon="12.210473043310039"><ele>33.0</ele><time>2026-04-12T07:26:55Z</time></trkpt><trkpt lat="44.15829210793308" lon="12.210547603483704"><ele>33.0</ele><time>2026-04-12T07:26:56Z</time></trkpt><trkpt lat="44.158131426349115" lon="12.21063534131292"><ele>33.0</ele><time>2026-04-12T07:26:57Z</time></trkpt><trkpt lat="44.157972287113424" lon="12.210715224914692"><ele>33.0</ele><time>2026-04-12T07:26:58Z</time></trkpt><trkpt lat="44.15781208325242" lon="12.210795424127069"><ele>33.0</ele><time>2026-04-12T07:26:59Z</time></trkpt><trkpt lat="44.15765098860267" lon="12.21087763958236"><ele>33.0</ele><time>2026-04-12T07:27:00Z</time></trkpt><trkpt lat="44.15748400546363" lon="12.210960385946688"><ele>33.333333333333336</ele><time>2026-04-12T07:27:01Z</time></trkpt><trkpt lat="44.157322922928984" lon="12.211042544241646"><ele>33.66666666666667</ele><time>2026-04-12T07:27:02Z</time></trkpt><trkpt lat="44.15714810669125" lon="12.211126247065316"><ele>34.0</ele><time>2026-04-12T07:27:03Z</time></trkpt><trkpt lat="44.1569647678411" lon="12.21121830090208"><ele>34.0</ele><time>2026-04-12T07:27:04Z</time></trkpt><trkpt lat="44.15678566048724" lon="12.211308344314073"><ele>34.0</ele><time>2026-04-12T07:27:05Z</time></trkpt><trkpt lat="44.15659397273144" lon="12.211404216625846"><ele>34.0</ele><time>2026-04-12T07:27:06Z</time></trkpt><trkpt lat="44.15638216544052" lon="12.211511931280105"><ele>34.0</ele><time>2026-04-12T07:27:07Z</time></trkpt><trkpt lat="44.156185424962466" lon="12.211611174836724"><ele>34.0</ele><time>2026-04-12T07:27:08Z</time></trkpt><trkpt lat="44.15599420248167" lon="12.2117073622774"><ele>34.0</ele><time>2026-04-12T07:27:09Z</time></trkpt><trkpt lat="44.155804128948084" lon="12.211802428783553"><ele>34.66666666666667</ele><time>2026-04-12T07:27:10Z</time></trkpt><trkpt lat="44.15561131958074" lon="12.21189382582797"><ele>35.333333333333336</ele><time>2026-04-12T07:27:11Z</time></trkpt><trkpt lat="44.15541388049593" lon="12.211990911390712"><ele>36.0</ele><time>2026-04-12T07:27:12Z</time></trkpt><trkpt lat="44.15521702277189" lon="12.212090124116745"><ele>36.0</ele><time>2026-04-12T07:27:13Z</time></trkpt><trkpt lat="44.155022178783355" lon="12.21218676857382"><ele>36.0</ele><time>2026-04-12T07:27:13.999Z</time></trkpt><trkpt lat="44.15483016833671" lon="12.21228407138054"><ele>36.0</ele><time>2026-04-12T07:27:14.999Z</time></trkpt><trkpt lat="44.154639072752495" lon="12.212381871639774"><ele>35.666666666666664</ele><time>2026-04-12T07:27:15.999Z</time></trkpt><trkpt lat="44.15445886154377" lon="12.212473285520785"><ele>35.33333333333333</ele><time>2026-04-12T07:27:16.999Z</time></trkpt><trkpt lat="44.15427462739677" lon="12.21256675353105"><ele>35.0</ele><time>2026-04-12T07:27:17.999Z</time></trkpt><trkpt lat="44.15408167815573" lon="12.212663088464737"><ele>35.33333333333333</ele><time>2026-04-12T07:27:18.999Z</time></trkpt><trkpt lat="44.153884004376074" lon="12.212763459361794"><ele>35.666666666666664</ele><time>2026-04-12T07:27:19.999Z</time></trkpt><trkpt lat="44.15367830149757" lon="12.212864021510576"><ele>36.0</ele><time>2026-04-12T07:27:20.999Z</time></trkpt><trkpt lat="44.15347318370928" lon="12.212969335656245"><ele>36.0</ele><time>2026-04-12T07:27:21.999Z</time></trkpt><trkpt lat="44.153269736039114" lon="12.213070056770926"><ele>36.0</ele><time>2026-04-12T07:27:22.999Z</time></trkpt><trkpt lat="44.153071317497705" lon="12.213167770031568"><ele>36.0</ele><time>2026-04-12T07:27:23.999Z</time></trkpt><trkpt lat="44.15287276211209" lon="12.213267242898613"><ele>36.333333333333336</ele><time>2026-04-12T07:27:24.999Z</time></trkpt><trkpt lat="44.15267229595344" lon="12.213368206026374"><ele>36.66666666666667</ele><time>2026-04-12T07:27:25.999Z</time></trkpt><trkpt lat="44.15247590076048" lon="12.213466758995745"><ele>37.0</ele><time>2026-04-12T07:27:26.999Z</time></trkpt><trkpt lat="44.15227906163517" lon="12.213566035514578"><ele>36.333333333333336</ele><time>2026-04-12T07:27:27.999Z</time></trkpt><trkpt lat="44.15208485044939" lon="12.21366226186309"><ele>35.666666666666664</ele><time>2026-04-12T07:27:28.999Z</time></trkpt><trkpt lat="44.15189184927486" lon="12.213756995401509"><ele>35.0</ele><time>2026-04-12T07:27:29.999Z</time></trkpt><trkpt lat="44.15169688493964" lon="12.213853099199241"><ele>35.33333333333333</ele><time>2026-04-12T07:27:30.999Z</time></trkpt><trkpt lat="44.15150317447394" lon="12.213946807853162"><ele>35.666666666666664</ele><time>2026-04-12T07:27:31.999Z</time></trkpt><trkpt lat="44.15130936316055" lon="12.214043377328005"><ele>36.0</ele><time>2026-04-12T07:27:32.999Z</time></trkpt><trkpt lat="44.1511200850816" lon="12.214137536620811"><ele>36.0</ele><time>2026-04-12T07:27:33.999Z</time></trkpt><trkpt lat="44.15093387124405" lon="12.214228434076485"><ele>36.0</ele><time>2026-04-12T07:27:34.999Z</time></trkpt><trkpt lat="44.15075468810867" lon="12.214314097342736"><ele>36.0</ele><time>2026-04-12T07:27:35.999Z</time></trkpt><trkpt lat="44.150591875268056" lon="12.214389447000647"><ele>36.25</ele><time>2026-04-12T07:27:36.999Z</time></trkpt><trkpt lat="44.15044394504054" lon="12.214456417721038"><ele>36.5</ele><time>2026-04-12T07:27:37.999Z</time></trkpt><trkpt lat="44.15030831393627" lon="12.214519277569035"><ele>36.75</ele><time>2026-04-12T07:27:38.999Z</time></trkpt><trkpt lat="44.150179266581276" lon="12.214581905145048"><ele>37.0</ele><time>2026-04-12T07:27:39.999Z</time></trkpt><trkpt lat="44.15005829180893" lon="12.214640244602084"><ele>37.0</ele><time>2026-04-12T07:27:40.999Z</time></trkpt><trkpt lat="44.14994980253502" lon="12.21469437547691"><ele>37.0</ele><time>2026-04-12T07:27:41.999Z</time></trkpt><trkpt lat="44.14984865899651" lon="12.214744060693135"><ele>37.0</ele><time>2026-04-12T07:27:43Z</time></trkpt><trkpt lat="44.14975702986857" lon="12.214786539955734"><ele>37.0</ele><time>2026-04-12T07:27:43.999Z</time></trkpt><trkpt lat="44.14967930783933" lon="12.214822145091404"><ele>37.0</ele><time>2026-04-12T07:27:44.999Z</time></trkpt><trkpt lat="44.14961110395305" lon="12.214855355372368"><ele>36.800000000000004</ele><time>2026-04-12T07:27:45.999Z</time></trkpt><trkpt lat="44.149549202839445" lon="12.214887804643311"><ele>36.6</ele><time>2026-04-12T07:27:46.999Z</time></trkpt><trkpt lat="44.1494478734556" lon="12.214968852465258"><ele>36.400000000000006</ele><time>2026-04-12T07:27:48.999Z</time></trkpt><trkpt lat="44.14949721163037" lon="12.215200918153846"><ele>36.2</ele><time>2026-04-12T07:27:52Z</time></trkpt><trkpt lat="44.149548803494206" lon="12.215294370715243"><ele>36.0</ele><time>2026-04-12T07:27:53Z</time></trkpt><trkpt lat="44.14960063908612" lon="12.215401310236894"><ele>36.0</ele><time>2026-04-12T07:27:54Z</time></trkpt><trkpt lat="44.149653842042134" lon="12.215526378262739"><ele>36.0</ele><time>2026-04-12T07:27:55Z</time></trkpt><trkpt lat="44.149712653354996" lon="12.215660490196411"><ele>36.0</ele><time>2026-04-12T07:27:56Z</time></trkpt><trkpt lat="44.14977877072535" lon="12.215805235830164"><ele>36.0</ele><time>2026-04-12T07:27:57Z</time></trkpt><trkpt lat="44.149846013239966" lon="12.215953392288158"><ele>35.75</ele><time>2026-04-12T07:27:58Z</time></trkpt><trkpt lat="44.149920047270264" lon="12.216107618466626"><ele>35.5</ele><time>2026-04-12T07:27:59Z</time></trkpt><trkpt lat="44.14998858784669" lon="12.216252868757847"><ele>35.25</ele><time>2026-04-12T07:28:00Z</time></trkpt><trkpt lat="44.15005256836797" lon="12.216396710954092"><ele>35.0</ele><time>2026-04-12T07:28:01Z</time></trkpt><trkpt lat="44.15011579380213" lon="12.21653377049164"><ele>35.0</ele><time>2026-04-12T07:28:02Z</time></trkpt><trkpt lat="44.15017723699066" lon="12.216671120928348"><ele>35.0</ele><time>2026-04-12T07:28:03Z</time></trkpt><trkpt lat="44.15023974708155" lon="12.21679758250352"><ele>35.0</ele><time>2026-04-12T07:28:04Z</time></trkpt><trkpt lat="44.15030382758956" lon="12.216912552395062"><ele>35.0</ele><time>2026-04-12T07:28:05Z</time></trkpt><trkpt lat="44.15036631794208" lon="12.217020371213811"><ele>35.0</ele><time>2026-04-12T07:28:06Z</time></trkpt><trkpt lat="44.150427202401964" lon="12.217115686230892"><ele>35.0</ele><time>2026-04-12T07:28:07Z</time></trkpt><trkpt lat="44.15048027971923" lon="12.217197582155599"><ele>35.0</ele><time>2026-04-12T07:28:08Z</time></trkpt><trkpt lat="44.150518169715376" lon="12.217277770289675"><ele>35.0</ele><time>2026-04-12T07:28:09Z</time></trkpt><trkpt lat="44.15052996464196" lon="12.2174223686978"><ele>35.0</ele><time>2026-04-12T07:28:11Z</time></trkpt><trkpt lat="44.15039319279775" lon="12.21755080592187"><ele>35.0</ele><time>2026-04-12T07:28:14Z</time></trkpt><trkpt lat="44.15030622887085" lon="12.217557186384406"><ele>35.25</ele><time>2026-04-12T07:28:15Z</time></trkpt><trkpt lat="44.15020621842294" lon="12.21757147582759"><ele>35.5</ele><time>2026-04-12T07:28:16Z</time></trkpt><trkpt lat="44.15009073503714" lon="12.21759371396507"><ele>35.75</ele><time>2026-04-12T07:28:17Z</time></trkpt><trkpt lat="44.14997495509197" lon="12.21762140667783"><ele>36.0</ele><time>2026-04-12T07:28:18Z</time></trkpt><trkpt lat="44.149855413673" lon="12.217658358294608"><ele>35.25</ele><time>2026-04-12T07:28:19Z</time></trkpt><trkpt lat="44.14973018176986" lon="12.21770422712725"><ele>34.5</ele><time>2026-04-12T07:28:20Z</time></trkpt><trkpt lat="44.14959588484823" lon="12.217753976220834"><ele>33.75</ele><time>2026-04-12T07:28:21Z</time></trkpt><trkpt lat="44.149459006400996" lon="12.217801519885201"><ele>33.0</ele><time>2026-04-12T07:28:22Z</time></trkpt><trkpt lat="44.149314039298645" lon="12.217846887276359"><ele>33.0</ele><time>2026-04-12T07:28:23Z</time></trkpt><trkpt lat="44.14916463759739" lon="12.217895586991238"><ele>33.0</ele><time>2026-04-12T07:28:24Z</time></trkpt><trkpt lat="44.14901227041382" lon="12.217944157912127"><ele>33.0</ele><time>2026-04-12T07:28:25Z</time></trkpt><trkpt lat="44.1488565537076" lon="12.21799998469264"><ele>33.0</ele><time>2026-04-12T07:28:26Z</time></trkpt><trkpt lat="44.14870048069857" lon="12.218058329637998"><ele>33.0</ele><time>2026-04-12T07:28:27Z</time></trkpt><trkpt lat="44.14853889921763" lon="12.21811223797323"><ele>33.0</ele><time>2026-04-12T07:28:28Z</time></trkpt><trkpt lat="44.14837796518936" lon="12.218171490707128"><ele>33.5</ele><time>2026-04-12T07:28:29Z</time></trkpt><trkpt lat="44.14822138581646" lon="12.218228298059774"><ele>34.0</ele><time>2026-04-12T07:28:30Z</time></trkpt><trkpt lat="44.148081075927664" lon="12.218278441256109"><ele>34.5</ele><time>2026-04-12T07:28:31Z</time></trkpt><trkpt lat="44.14794572119574" lon="12.218323234976724"><ele>35.0</ele><time>2026-04-12T07:28:32Z</time></trkpt><trkpt lat="44.1478072754077" lon="12.218369273276167"><ele>35.33333333333333</ele><time>2026-04-12T07:28:33Z</time></trkpt><trkpt lat="44.14766015622972" lon="12.218417857192065"><ele>35.666666666666664</ele><time>2026-04-12T07:28:34Z</time></trkpt><trkpt lat="44.1475120737558" lon="12.21847081424394"><ele>36.0</ele><time>2026-04-12T07:28:35Z</time></trkpt><trkpt lat="44.14735945457375" lon="12.218522455420308"><ele>35.5</ele><time>2026-04-12T07:28:36Z</time></trkpt><trkpt lat="44.14720692053415" lon="12.21857159131019"><ele>35.0</ele><time>2026-04-12T07:28:37Z</time></trkpt><trkpt lat="44.14706310617135" lon="12.218621862021198"><ele>34.5</ele><time>2026-04-12T07:28:38Z</time></trkpt><trkpt lat="44.146922973316194" lon="12.218670888287559"><ele>34.0</ele><time>2026-04-12T07:28:39Z</time></trkpt><trkpt lat="44.14679156409193" lon="12.218718722790756"><ele>34.0</ele><time>2026-04-12T07:28:40Z</time></trkpt><trkpt lat="44.146680278409015" lon="12.218756349709752"><ele>34.0</ele><time>2026-04-12T07:28:41Z</time></trkpt><trkpt lat="44.14658110937272" lon="12.218788140968647"><ele>34.0</ele><time>2026-04-12T07:28:42Z</time></trkpt><trkpt lat="44.1464963459834" lon="12.21881529360549"><ele>34.0</ele><time>2026-04-12T07:28:43Z</time></trkpt><trkpt lat="44.14642196189696" lon="12.218840601450077"><ele>34.0</ele><time>2026-04-12T07:28:44Z</time></trkpt><trkpt lat="44.146324703191084" lon="12.218874876222834"><ele>34.0</ele><time>2026-04-12T07:28:45Z</time></trkpt><trkpt lat="44.14621142316792" lon="12.218925922803985"><ele>34.0</ele><time>2026-04-12T07:28:46Z</time></trkpt><trkpt lat="44.146090555953336" lon="12.218968349270735"><ele>34.0</ele><time>2026-04-12T07:28:47Z</time></trkpt><trkpt lat="44.14596945223592" lon="12.219010880110888"><ele>34.0</ele><time>2026-04-12T07:28:48Z</time></trkpt><trkpt lat="44.145855268314286" lon="12.219045972082002"><ele>34.16666666666667</ele><time>2026-04-12T07:28:49Z</time></trkpt><trkpt lat="44.14574986604868" lon="12.219078133880542"><ele>34.333333333333336</ele><time>2026-04-12T07:28:50Z</time></trkpt><trkpt lat="44.14566587915174" lon="12.219102576887797"><ele>34.5</ele><time>2026-04-12T07:28:51Z</time></trkpt><trkpt lat="44.14559983752751" lon="12.219107884448887"><ele>34.666666666666664</ele><time>2026-04-12T07:28:52Z</time></trkpt><trkpt lat="44.145501136834405" lon="12.219067832880866"><ele>34.83333333333333</ele><time>2026-04-12T07:28:54Z</time></trkpt><trkpt lat="44.14543387241779" lon="12.219001118424254"><ele>35.0</ele><time>2026-04-12T07:28:57Z</time></trkpt><trkpt lat="44.145331617255735" lon="12.218877333776978"><ele>35.0</ele><time>2026-04-12T07:28:59Z</time></trkpt><trkpt lat="44.145268155528726" lon="12.218836210592343"><ele>35.0</ele><time>2026-04-12T07:29:00Z</time></trkpt><trkpt lat="44.14518014002826" lon="12.21882570193353"><ele>35.0</ele><time>2026-04-12T07:29:01Z</time></trkpt><trkpt lat="44.14508772643403" lon="12.218850415236789"><ele>35.0</ele><time>2026-04-12T07:29:02Z</time></trkpt><trkpt lat="44.14500885696771" lon="12.218915567009013"><ele>35.0</ele><time>2026-04-12T07:29:03Z</time></trkpt><trkpt lat="44.14493296344822" lon="12.218987266289297"><ele>35.0</ele><time>2026-04-12T07:29:04Z</time></trkpt><trkpt lat="44.144846429676036" lon="12.219037027953346"><ele>35.0</ele><time>2026-04-12T07:29:05Z</time></trkpt><trkpt lat="44.14476188999039" lon="12.219073864977991"><ele>35.0</ele><time>2026-04-12T07:29:06Z</time></trkpt><trkpt lat="44.144652568602844" lon="12.219036208839732"><ele>35.0</ele><time>2026-04-12T07:29:07Z</time></trkpt><trkpt lat="44.144545807824755" lon="12.219020152991337"><ele>35.0</ele><time>2026-04-12T07:29:08Z</time></trkpt><trkpt lat="44.14442271928442" lon="12.21899694994099"><ele>35.0</ele><time>2026-04-12T07:29:09Z</time></trkpt><trkpt lat="44.144297107791694" lon="12.218973676817788"><ele>35.0</ele><time>2026-04-12T07:29:10Z</time></trkpt><trkpt lat="44.14415532674982" lon="12.218947146143883"><ele>35.0</ele><time>2026-04-12T07:29:11Z</time></trkpt><trkpt lat="44.1439988222047" lon="12.21891809045982"><ele>35.0</ele><time>2026-04-12T07:29:12Z</time></trkpt><trkpt lat="44.143837819329" lon="12.21889332515308"><ele>35.666666666666664</ele><time>2026-04-12T07:29:13Z</time></trkpt><trkpt lat="44.1436690806864" lon="12.218865176929084"><ele>36.333333333333336</ele><time>2026-04-12T07:29:14Z</time></trkpt><trkpt lat="44.143484865132294" lon="12.218832903984266"><ele>37.0</ele><time>2026-04-12T07:29:15Z</time></trkpt><trkpt lat="44.14330080690147" lon="12.218800897511121"><ele>36.333333333333336</ele><time>2026-04-12T07:29:16Z</time></trkpt><trkpt lat="44.14310431060009" lon="12.218768756174242"><ele>35.666666666666664</ele><time>2026-04-12T07:29:17Z</time></trkpt><trkpt lat="44.142906606165404" lon="12.218732185131419"><ele>35.0</ele><time>2026-04-12T07:29:18Z</time></trkpt><trkpt lat="44.142713404690426" lon="12.21869453040991"><ele>35.0</ele><time>2026-04-12T07:29:19Z</time></trkpt><trkpt lat="44.142515840400556" lon="12.21865678759388"><ele>35.0</ele><time>2026-04-12T07:29:19.999Z</time></trkpt><trkpt lat="44.14231773172956" lon="12.218610140675267"><ele>35.0</ele><time>2026-04-12T07:29:20.999Z</time></trkpt><trkpt lat="44.142122699573" lon="12.218550511311935"><ele>34.666666666666664</ele><time>2026-04-12T07:29:21.999Z</time></trkpt><trkpt lat="44.14192192899108" lon="12.218487493051525"><ele>34.333333333333336</ele><time>2026-04-12T07:29:22.999Z</time></trkpt><trkpt lat="44.14172809660446" lon="12.218420525325744"><ele>34.0</ele><time>2026-04-12T07:29:23.999Z</time></trkpt><trkpt lat="44.141530884283746" lon="12.218347180510957"><ele>35.0</ele><time>2026-04-12T07:29:24.999Z</time></trkpt><trkpt lat="44.1413321769128" lon="12.218266054966394"><ele>36.0</ele><time>2026-04-12T07:29:25.999Z</time></trkpt><trkpt lat="44.14112986395261" lon="12.218184332719883"><ele>37.0</ele><time>2026-04-12T07:29:26.999Z</time></trkpt><trkpt lat="44.140921220758536" lon="12.21810456984349"><ele>36.66666666666667</ele><time>2026-04-12T07:29:27.999Z</time></trkpt><trkpt lat="44.14071126026789" lon="12.218023103110067"><ele>36.333333333333336</ele><time>2026-04-12T07:29:28.999Z</time></trkpt><trkpt lat="44.14049823776149" lon="12.217940362023887"><ele>36.0</ele><time>2026-04-12T07:29:29.999Z</time></trkpt><trkpt lat="44.14028800873225" lon="12.217855217735535"><ele>36.0</ele><time>2026-04-12T07:29:30.999Z</time></trkpt><trkpt lat="44.14008100799679" lon="12.217776345315713"><ele>36.0</ele><time>2026-04-12T07:29:31.999Z</time></trkpt><trkpt lat="44.13987217601074" lon="12.217700653390569"><ele>36.0</ele><time>2026-04-12T07:29:32.999Z</time></trkpt><trkpt lat="44.13966543581433" lon="12.21762304429568"><ele>36.0</ele><time>2026-04-12T07:29:33.999Z</time></trkpt><trkpt lat="44.13945712018514" lon="12.217546522359303"><ele>36.0</ele><time>2026-04-12T07:29:34.999Z</time></trkpt><trkpt lat="44.139247395221" lon="12.21746822926483"><ele>36.0</ele><time>2026-04-12T07:29:35.999Z</time></trkpt><trkpt lat="44.13903871256203" lon="12.217390595358523"><ele>35.666666666666664</ele><time>2026-04-12T07:29:36.999Z</time></trkpt><trkpt lat="44.13882727755539" lon="12.217307577844473"><ele>35.33333333333333</ele><time>2026-04-12T07:29:37.999Z</time></trkpt><trkpt lat="44.138615239873204" lon="12.217227136830944"><ele>35.0</ele><time>2026-04-12T07:29:38.999Z</time></trkpt><trkpt lat="44.13839731355268" lon="12.21714381548788"><ele>35.0</ele><time>2026-04-12T07:29:39.999Z</time></trkpt><trkpt lat="44.13817629259067" lon="12.217059940505493"><ele>35.0</ele><time>2026-04-12T07:29:40.999Z</time></trkpt><trkpt lat="44.1379567489415" lon="12.21697349865313"><ele>35.0</ele><time>2026-04-12T07:29:41.999Z</time></trkpt><trkpt lat="44.13773265462056" lon="12.216890305154651"><ele>35.0</ele><time>2026-04-12T07:29:42.999Z</time></trkpt><trkpt lat="44.137507097390895" lon="12.216805579336203"><ele>35.5</ele><time>2026-04-12T07:29:43.999Z</time></trkpt><trkpt lat="44.13728200821556" lon="12.216720194626971"><ele>36.0</ele><time>2026-04-12T07:29:44.999Z</time></trkpt><trkpt lat="44.13705821901057" lon="12.21663621592313"><ele>36.0</ele><time>2026-04-12T07:29:45.999Z</time></trkpt><trkpt lat="44.13683782128192" lon="12.216550848233851"><ele>36.0</ele><time>2026-04-12T07:29:46.999Z</time></trkpt><trkpt lat="44.13664284020864" lon="12.216486090547605"><ele>36.0</ele><time>2026-04-12T07:29:47.999Z</time></trkpt><trkpt lat="44.13646268032432" lon="12.216416831532646"><ele>36.333333333333336</ele><time>2026-04-12T07:29:48.999Z</time></trkpt><trkpt lat="44.136287218838035" lon="12.216350109892614"><ele>36.66666666666667</ele><time>2026-04-12T07:29:49.999Z</time></trkpt><trkpt lat="44.13611071494144" lon="12.216284714090747"><ele>37.0</ele><time>2026-04-12T07:29:50.999Z</time></trkpt><trkpt lat="44.135935984590255" lon="12.216215761232782"><ele>37.0</ele><time>2026-04-12T07:29:51.999Z</time></trkpt><trkpt lat="44.135760280463295" lon="12.216145509589474"><ele>37.0</ele><time>2026-04-12T07:29:52.999Z</time></trkpt><trkpt lat="44.135584998089435" lon="12.216075472223865"><ele>37.0</ele><time>2026-04-12T07:29:53.999Z</time></trkpt><trkpt lat="44.13541022176749" lon="12.216004899213427"><ele>37.333333333333336</ele><time>2026-04-12T07:29:54.999Z</time></trkpt><trkpt lat="44.13523865562683" lon="12.215938935522729"><ele>37.666666666666664</ele><time>2026-04-12T07:29:55.999Z</time></trkpt><trkpt lat="44.13507876406118" lon="12.215876523503297"><ele>38.0</ele><time>2026-04-12T07:29:56.999Z</time></trkpt><trkpt lat="44.13493924688361" lon="12.215825581511607"><ele>38.25</ele><time>2026-04-12T07:29:57.999Z</time></trkpt><trkpt lat="44.13480799537059" lon="12.21577735572879"><ele>38.5</ele><time>2026-04-12T07:29:58.999Z</time></trkpt><trkpt lat="44.134688540203115" lon="12.21573437914519"><ele>38.75</ele><time>2026-04-12T07:29:59.999Z</time></trkpt><trkpt lat="44.13459682000162" lon="12.215699549579474"><ele>39.0</ele><time>2026-04-12T07:30:01Z</time></trkpt><trkpt lat="44.134507398211795" lon="12.215653461927813"><ele>39.2</ele><time>2026-04-12T07:30:02Z</time></trkpt><trkpt lat="44.1344332250996" lon="12.215594768087149"><ele>39.4</ele><time>2026-04-12T07:30:03Z</time></trkpt><trkpt lat="44.13436734811268" lon="12.215513052287946"><ele>39.6</ele><time>2026-04-12T07:30:04Z</time></trkpt><trkpt lat="44.134305953245985" lon="12.215432657540061"><ele>39.8</ele><time>2026-04-12T07:30:05Z</time></trkpt><trkpt lat="44.13422737971405" lon="12.215366538576394"><ele>40.0</ele><time>2026-04-12T07:30:06Z</time></trkpt><trkpt lat="44.13412670774071" lon="12.215355328989862"><ele>40.25</ele><time>2026-04-12T07:30:07Z</time></trkpt><trkpt lat="44.13401300107173" lon="12.215371169361344"><ele>40.5</ele><time>2026-04-12T07:30:08Z</time></trkpt><trkpt lat="44.13387995590432" lon="12.215385999294902"><ele>40.75</ele><time>2026-04-12T07:30:09Z</time></trkpt><trkpt lat="44.13372909799542" lon="12.21535403390064"><ele>41.0</ele><time>2026-04-12T07:30:10Z</time></trkpt><trkpt lat="44.13356594886482" lon="12.215293526913113"><ele>41.0</ele><time>2026-04-12T07:30:11Z</time></trkpt><trkpt lat="44.133406318131215" lon="12.2152282719242"><ele>41.0</ele><time>2026-04-12T07:30:12Z</time></trkpt><trkpt lat="44.13323908721373" lon="12.215165979456891"><ele>41.0</ele><time>2026-04-12T07:30:13Z</time></trkpt><trkpt lat="44.13307606328025" lon="12.215102863277652"><ele>41.0</ele><time>2026-04-12T07:30:14Z</time></trkpt><trkpt lat="44.132907688720046" lon="12.215039875996228"><ele>41.0</ele><time>2026-04-12T07:30:15Z</time></trkpt><trkpt lat="44.13272882888958" lon="12.214972960494006"><ele>41.0</ele><time>2026-04-12T07:30:16Z</time></trkpt><trkpt lat="44.13254579869479" lon="12.2149036633225"><ele>41.0</ele><time>2026-04-12T07:30:17Z</time></trkpt><trkpt lat="44.13236619891385" lon="12.214832846741361"><ele>41.0</ele><time>2026-04-12T07:30:18Z</time></trkpt><trkpt lat="44.132186274163374" lon="12.214764070516857"><ele>41.0</ele><time>2026-04-12T07:30:19Z</time></trkpt><trkpt lat="44.13200085207286" lon="12.214690253049664"><ele>41.0</ele><time>2026-04-12T07:30:20Z</time></trkpt><trkpt lat="44.13181385240558" lon="12.214619328507592"><ele>41.0</ele><time>2026-04-12T07:30:21Z</time></trkpt><trkpt lat="44.131624718105435" lon="12.214544022301355"><ele>41.0</ele><time>2026-04-12T07:30:22Z</time></trkpt><trkpt lat="44.131434329384724" lon="12.214475542572357"><ele>41.0</ele><time>2026-04-12T07:30:23Z</time></trkpt><trkpt lat="44.13124252085294" lon="12.214402422919827"><ele>41.0</ele><time>2026-04-12T07:30:24Z</time></trkpt><trkpt lat="44.131047379507876" lon="12.214327246335193"><ele>41.0</ele><time>2026-04-12T07:30:25Z</time></trkpt><trkpt lat="44.130855249751114" lon="12.214253436331315"><ele>41.0</ele><time>2026-04-12T07:30:26Z</time></trkpt><trkpt lat="44.13066180185555" lon="12.214178782656814"><ele>41.0</ele><time>2026-04-12T07:30:27Z</time></trkpt><trkpt lat="44.13046864992057" lon="12.214104168756224"><ele>41.0</ele><time>2026-04-12T07:30:28Z</time></trkpt><trkpt lat="44.13027649504586" lon="12.214032237162439"><ele>41.0</ele><time>2026-04-12T07:30:29Z</time></trkpt><trkpt lat="44.130081093450386" lon="12.213959907331304"><ele>41.0</ele><time>2026-04-12T07:30:30Z</time></trkpt><trkpt lat="44.129883102779964" lon="12.213884938175768"><ele>41.0</ele><time>2026-04-12T07:30:31Z</time></trkpt><trkpt lat="44.12968304381349" lon="12.21380873938762"><ele>41.666666666666664</ele><time>2026-04-12T07:30:32Z</time></trkpt><trkpt lat="44.129476959438904" lon="12.213729999046116"><ele>42.333333333333336</ele><time>2026-04-12T07:30:33Z</time></trkpt><trkpt lat="44.12927278040024" lon="12.213652603831493"><ele>43.0</ele><time>2026-04-12T07:30:34Z</time></trkpt><trkpt lat="44.12906954863111" lon="12.21357464865212"><ele>43.0</ele><time>2026-04-12T07:30:35Z</time></trkpt><trkpt lat="44.128869400185536" lon="12.213499285622488"><ele>43.0</ele><time>2026-04-12T07:30:36Z</time></trkpt><trkpt lat="44.12866767046465" lon="12.213421075922044"><ele>43.0</ele><time>2026-04-12T07:30:37Z</time></trkpt><trkpt lat="44.128464549007916" lon="12.21334120355751"><ele>43.0</ele><time>2026-04-12T07:30:38Z</time></trkpt><trkpt lat="44.1282596916389" lon="12.213266058205203"><ele>43.0</ele><time>2026-04-12T07:30:39Z</time></trkpt><trkpt lat="44.12805434800587" lon="12.213189389005677"><ele>43.0</ele><time>2026-04-12T07:30:40Z</time></trkpt><trkpt lat="44.127855781253494" lon="12.213114257188494"><ele>43.0</ele><time>2026-04-12T07:30:41Z</time></trkpt><trkpt lat="44.127668718905014" lon="12.213042415129367"><ele>43.0</ele><time>2026-04-12T07:30:42Z</time></trkpt><trkpt lat="44.12749515513376" lon="12.212978999701784"><ele>43.0</ele><time>2026-04-12T07:30:43Z</time></trkpt><trkpt lat="44.127331297293935" lon="12.212920245375091"><ele>43.5</ele><time>2026-04-12T07:30:44Z</time></trkpt><trkpt lat="44.12718319532243" lon="12.212866311388222"><ele>44.0</ele><time>2026-04-12T07:30:45Z</time></trkpt><trkpt lat="44.12705442276182" lon="12.2128182597569"><ele>44.5</ele><time>2026-04-12T07:30:46Z</time></trkpt><trkpt lat="44.126951284426305" lon="12.21277719467813"><ele>45.0</ele><time>2026-04-12T07:30:47Z</time></trkpt><trkpt lat="44.12686850164092" lon="12.21273879965863"><ele>45.0</ele><time>2026-04-12T07:30:48Z</time></trkpt><trkpt lat="44.12680935863693" lon="12.212690973755084"><ele>45.0</ele><time>2026-04-12T07:30:49Z</time></trkpt><trkpt lat="44.12673695571901" lon="12.212512707305143"><ele>45.0</ele><time>2026-04-12T07:30:51Z</time></trkpt><trkpt lat="44.126687008144785" lon="12.212384578205425"><ele>45.0</ele><time>2026-04-12T07:30:52Z</time></trkpt><trkpt lat="44.126613487681304" lon="12.212306137292343"><ele>45.0</ele><time>2026-04-12T07:30:53Z</time></trkpt><trkpt lat="44.12652918352407" lon="12.212291460272269"><ele>46.0</ele><time>2026-04-12T07:30:54Z</time></trkpt><trkpt lat="44.12643434465925" lon="12.212335672617268"><ele>47.0</ele><time>2026-04-12T07:30:55Z</time></trkpt><trkpt lat="44.1263418394136" lon="12.212413261948122"><ele>48.0</ele><time>2026-04-12T07:30:56Z</time></trkpt><trkpt lat="44.126278387844465" lon="12.21255486977353"><ele>49.0</ele><time>2026-04-12T07:30:57Z</time></trkpt><trkpt lat="44.126105108366374" lon="12.212481829949809"><ele>49.0</ele><time>2026-04-12T07:30:58Z</time></trkpt><trkpt lat="44.12597058175807" lon="12.21242941634785"><ele>49.0</ele><time>2026-04-12T07:30:59Z</time></trkpt><trkpt lat="44.125818838910334" lon="12.212361580615424"><ele>49.0</ele><time>2026-04-12T07:31:00Z</time></trkpt><trkpt lat="44.12565384080449" lon="12.212292537808471"><ele>47.666666666666664</ele><time>2026-04-12T07:31:01Z</time></trkpt><trkpt lat="44.12548198657687" lon="12.21221239769356"><ele>46.33333333333333</ele><time>2026-04-12T07:31:02Z</time></trkpt><trkpt lat="44.12530613870401" lon="12.212125777866705"><ele>45.0</ele><time>2026-04-12T07:31:03Z</time></trkpt><trkpt lat="44.12513361843083" lon="12.212027778242021"><ele>45.0</ele><time>2026-04-12T07:31:04Z</time></trkpt><trkpt lat="44.1249673467882" lon="12.211934299313596"><ele>45.0</ele><time>2026-04-12T07:31:05Z</time></trkpt><trkpt lat="44.12480274528915" lon="12.211837439535131"><ele>45.0</ele><time>2026-04-12T07:31:06Z</time></trkpt><trkpt lat="44.124646065712994" lon="12.211738609608078"><ele>45.0</ele><time>2026-04-12T07:31:07Z</time></trkpt><trkpt lat="44.12450098611566" lon="12.211639638498294"><ele>45.0</ele><time>2026-04-12T07:31:08Z</time></trkpt><trkpt lat="44.12436566745185" lon="12.211536556079308"><ele>45.0</ele><time>2026-04-12T07:31:09Z</time></trkpt><trkpt lat="44.1242377084581" lon="12.21144981022836"><ele>45.0</ele><time>2026-04-12T07:31:10Z</time></trkpt><trkpt lat="44.124142465395146" lon="12.211309538656886"><ele>45.0</ele><time>2026-04-12T07:31:11Z</time></trkpt><trkpt lat="44.12405740917808" lon="12.21118391707953"><ele>45.0</ele><time>2026-04-12T07:31:12Z</time></trkpt><trkpt lat="44.12398504929315" lon="12.211070053611058"><ele>45.0</ele><time>2026-04-12T07:31:13Z</time></trkpt><trkpt lat="44.12393610382244" lon="12.210984779392163"><ele>45.2</ele><time>2026-04-12T07:31:14Z</time></trkpt><trkpt lat="44.12390554525781" lon="12.210890665554803"><ele>45.4</ele><time>2026-04-12T07:31:15Z</time></trkpt><trkpt lat="44.123872087348424" lon="12.21078521429763"><ele>45.599999999999994</ele><time>2026-04-12T07:31:16Z</time></trkpt><trkpt lat="44.123873721025106" lon="12.21062634922514"><ele>45.8</ele><time>2026-04-12T07:31:17Z</time></trkpt><trkpt lat="44.12384665917341" lon="12.210495695546095"><ele>46.0</ele><time>2026-04-12T07:31:18Z</time></trkpt><trkpt lat="44.1237776916402" lon="12.210402749107605"><ele>45.4</ele><time>2026-04-12T07:31:19Z</time></trkpt><trkpt lat="44.12368721594307" lon="12.21035855344845"><ele>44.8</ele><time>2026-04-12T07:31:20Z</time></trkpt><trkpt lat="44.12359711153297" lon="12.21035664383908"><ele>44.199999999999996</ele><time>2026-04-12T07:31:21Z</time></trkpt><trkpt lat="44.123502523766184" lon="12.210405480471431"><ele>43.599999999999994</ele><time>2026-04-12T07:31:22Z</time></trkpt><trkpt lat="44.1234263936871" lon="12.210532767808436"><ele>43.0</ele><time>2026-04-12T07:31:23Z</time></trkpt><trkpt lat="44.12333173760587" lon="12.210615101039538"><ele>44.25</ele><time>2026-04-12T07:31:24Z</time></trkpt><trkpt lat="44.12320863019727" lon="12.210658129947326"><ele>45.5</ele><time>2026-04-12T07:31:25Z</time></trkpt><trkpt lat="44.12307042352979" lon="12.210669264488642"><ele>46.75</ele><time>2026-04-12T07:31:25.999Z</time></trkpt><trkpt lat="44.12293280012179" lon="12.210662443346852"><ele>48.0</ele><time>2026-04-12T07:31:26.999Z</time></trkpt><trkpt lat="44.12279180620698" lon="12.210640179020029"><ele>48.0</ele><time>2026-04-12T07:31:27.999Z</time></trkpt><trkpt lat="44.12264945809128" lon="12.210588514121076"><ele>48.0</ele><time>2026-04-12T07:31:28.999Z</time></trkpt><trkpt lat="44.12250804533101" lon="12.210499861378734"><ele>48.0</ele><time>2026-04-12T07:31:29.999Z</time></trkpt><trkpt lat="44.12235415409511" lon="12.210393220934904"><ele>48.33333333333333</ele><time>2026-04-12T07:31:30.999Z</time></trkpt><trkpt lat="44.12219514450091" lon="12.210292250613664"><ele>48.666666666666664</ele><time>2026-04-12T07:31:31.999Z</time></trkpt><trkpt lat="44.12202469845011" lon="12.210184606001375"><ele>49.0</ele><time>2026-04-12T07:31:32.999Z</time></trkpt><trkpt lat="44.12185011835443" lon="12.210073368099074"><ele>49.0</ele><time>2026-04-12T07:31:33.999Z</time></trkpt><trkpt lat="44.12166433608084" lon="12.20996593510751"><ele>49.0</ele><time>2026-04-12T07:31:34.999Z</time></trkpt><trkpt lat="44.12147297504413" lon="12.209871861774428"><ele>49.0</ele><time>2026-04-12T07:31:35.999Z</time></trkpt><trkpt lat="44.12128520449691" lon="12.20979712878332"><ele>49.0</ele><time>2026-04-12T07:31:36.999Z</time></trkpt><trkpt lat="44.121119853612" lon="12.209734540701756"><ele>49.0</ele><time>2026-04-12T07:31:37.999Z</time></trkpt><trkpt lat="44.120964800477374" lon="12.20966700299671"><ele>49.0</ele><time>2026-04-12T07:31:38.999Z</time></trkpt><trkpt lat="44.12082264199404" lon="12.209602425280085"><ele>49.25</ele><time>2026-04-12T07:31:39.999Z</time></trkpt><trkpt lat="44.12069406131792" lon="12.209541162213487"><ele>49.5</ele><time>2026-04-12T07:31:40.999Z</time></trkpt><trkpt lat="44.12058638588281" lon="12.209480964179004"><ele>49.75</ele><time>2026-04-12T07:31:41.999Z</time></trkpt><trkpt lat="44.12049967287283" lon="12.209386515422848"><ele>50.0</ele><time>2026-04-12T07:31:42.999Z</time></trkpt><trkpt lat="44.12042898228423" lon="12.209249646856355"><ele>50.0</ele><time>2026-04-12T07:31:43.999Z</time></trkpt><trkpt lat="44.12037196030919" lon="12.209089927622406"><ele>50.0</ele><time>2026-04-12T07:31:44.999Z</time></trkpt><trkpt lat="44.12031955526741" lon="12.208951413598529"><ele>50.0</ele><time>2026-04-12T07:31:46Z</time></trkpt><trkpt lat="44.120224268360985" lon="12.208838737453974"><ele>50.0</ele><time>2026-04-12T07:31:47Z</time></trkpt><trkpt lat="44.12009937153907" lon="12.208742074132697"><ele>50.0</ele><time>2026-04-12T07:31:48Z</time></trkpt><trkpt lat="44.119946302130955" lon="12.208663111152976"><ele>50.0</ele><time>2026-04-12T07:31:49Z</time></trkpt><trkpt lat="44.11978724801308" lon="12.208585875364866"><ele>50.0</ele><time>2026-04-12T07:31:50Z</time></trkpt><trkpt lat="44.119623785506406" lon="12.208503535307548"><ele>49.333333333333336</ele><time>2026-04-12T07:31:51Z</time></trkpt><trkpt lat="44.119472186295695" lon="12.208422176196759"><ele>48.66666666666667</ele><time>2026-04-12T07:31:52Z</time></trkpt><trkpt lat="44.11932468374436" lon="12.208345808089417"><ele>48.0</ele><time>2026-04-12T07:31:53Z</time></trkpt><trkpt lat="44.119170534572575" lon="12.208263684212506"><ele>47.666666666666664</ele><time>2026-04-12T07:31:54Z</time></trkpt><trkpt lat="44.11901912730012" lon="12.208182566357848"><ele>47.33333333333333</ele><time>2026-04-12T07:31:55Z</time></trkpt><trkpt lat="44.118876734520015" lon="12.208103990256308"><ele>47.0</ele><time>2026-04-12T07:31:56Z</time></trkpt><trkpt lat="44.11874809941454" lon="12.20803859638292"><ele>47.5</ele><time>2026-04-12T07:31:57Z</time></trkpt><trkpt lat="44.1186318568571" lon="12.207979279910344"><ele>48.0</ele><time>2026-04-12T07:31:58Z</time></trkpt><trkpt lat="44.118522461327416" lon="12.207930156144325"><ele>48.5</ele><time>2026-04-12T07:31:59Z</time></trkpt><trkpt lat="44.11841903833383" lon="12.207885684095551"><ele>49.0</ele><time>2026-04-12T07:32:00Z</time></trkpt><trkpt lat="44.118307506354775" lon="12.207842380537986"><ele>49.25</ele><time>2026-04-12T07:32:01Z</time></trkpt><trkpt lat="44.118192938061696" lon="12.207804501335685"><ele>49.5</ele><time>2026-04-12T07:32:02Z</time></trkpt><trkpt lat="44.11807994394795" lon="12.207777329386602"><ele>49.75</ele><time>2026-04-12T07:32:03Z</time></trkpt><trkpt lat="44.117962541437805" lon="12.207755378785368"><ele>50.0</ele><time>2026-04-12T07:32:04Z</time></trkpt><trkpt lat="44.11783713704176" lon="12.207739583260059"><ele>50.0</ele><time>2026-04-12T07:32:05Z</time></trkpt><trkpt lat="44.11770235096988" lon="12.207721888931696"><ele>50.0</ele><time>2026-04-12T07:32:06Z</time></trkpt><trkpt lat="44.11757948230327" lon="12.207697619824673"><ele>50.0</ele><time>2026-04-12T07:32:07Z</time></trkpt><trkpt lat="44.11746833406785" lon="12.207671603840385"><ele>50.0</ele><time>2026-04-12T07:32:08Z</time></trkpt><trkpt lat="44.11736243321381" lon="12.20763338120663"><ele>49.8</ele><time>2026-04-12T07:32:09Z</time></trkpt><trkpt lat="44.117258565294506" lon="12.207590040861529"><ele>49.6</ele><time>2026-04-12T07:32:10Z</time></trkpt><trkpt lat="44.11716482259414" lon="12.207548329611065"><ele>49.400000000000006</ele><time>2026-04-12T07:32:11Z</time></trkpt><trkpt lat="44.11706545028493" lon="12.207507562743581"><ele>49.2</ele><time>2026-04-12T07:32:12Z</time></trkpt><trkpt lat="44.11696678114111" lon="12.207465289290726"><ele>49.0</ele><time>2026-04-12T07:32:13Z</time></trkpt><trkpt lat="44.11685927527197" lon="12.207412996740414"><ele>49.0</ele><time>2026-04-12T07:32:14Z</time></trkpt><trkpt lat="44.11674725781202" lon="12.207360966324595"><ele>49.0</ele><time>2026-04-12T07:32:15Z</time></trkpt><trkpt lat="44.116631825996436" lon="12.207306473509293"><ele>49.0</ele><time>2026-04-12T07:32:16Z</time></trkpt><trkpt lat="44.1165210577594" lon="12.207249847749006"><ele>49.0</ele><time>2026-04-12T07:32:17Z</time></trkpt><trkpt lat="44.11641956971373" lon="12.207192506920956"><ele>49.2</ele><time>2026-04-12T07:32:18Z</time></trkpt><trkpt lat="44.116324146919574" lon="12.207147713197498"><ele>49.400000000000006</ele><time>2026-04-12T07:32:19Z</time></trkpt><trkpt lat="44.11622216979158" lon="12.207096958244874"><ele>49.6</ele><time>2026-04-12T07:32:20Z</time></trkpt><trkpt lat="44.1161187731275" lon="12.207047743018299"><ele>49.8</ele><time>2026-04-12T07:32:21Z</time></trkpt><trkpt lat="44.1160156992099" lon="12.206993138713804"><ele>50.0</ele><time>2026-04-12T07:32:22Z</time></trkpt><trkpt lat="44.11592081924256" lon="12.206934887612007"><ele>50.0</ele><time>2026-04-12T07:32:23Z</time></trkpt><trkpt lat="44.11582011887971" lon="12.20687859451485"><ele>50.0</ele><time>2026-04-12T07:32:24Z</time></trkpt><trkpt lat="44.115712006922585" lon="12.206819959087108"><ele>50.0</ele><time>2026-04-12T07:32:25Z</time></trkpt><trkpt lat="44.11559942896487" lon="12.206756448262942"><ele>50.0</ele><time>2026-04-12T07:32:26Z</time></trkpt><trkpt lat="44.115481684541344" lon="12.206687137526355"><ele>49.75</ele><time>2026-04-12T07:32:27Z</time></trkpt><trkpt lat="44.11536372820907" lon="12.206617981512904"><ele>49.5</ele><time>2026-04-12T07:32:28Z</time></trkpt><trkpt lat="44.11525451640111" lon="12.206542662324978"><ele>49.25</ele><time>2026-04-12T07:32:29Z</time></trkpt><trkpt lat="44.1151543145057" lon="12.206464176058322"><ele>49.0</ele><time>2026-04-12T07:32:30Z</time></trkpt><trkpt lat="44.11505961399606" lon="12.206382818785237"><ele>49.0</ele><time>2026-04-12T07:32:31Z</time></trkpt><trkpt lat="44.11495828891556" lon="12.206293749810243"><ele>49.0</ele><time>2026-04-12T07:32:32Z</time></trkpt><trkpt lat="44.1148586059767" lon="12.206201168885576"><ele>49.0</ele><time>2026-04-12T07:32:33Z</time></trkpt><trkpt lat="44.11475700577737" lon="12.206110375091225"><ele>49.0</ele><time>2026-04-12T07:32:34Z</time></trkpt><trkpt lat="44.11466634387726" lon="12.20602415635519"><ele>49.2</ele><time>2026-04-12T07:32:35Z</time></trkpt><trkpt lat="44.11458357737913" lon="12.20593949895217"><ele>49.400000000000006</ele><time>2026-04-12T07:32:36Z</time></trkpt><trkpt lat="44.114505354017155" lon="12.205855443268323"><ele>49.6</ele><time>2026-04-12T07:32:37Z</time></trkpt><trkpt lat="44.11442755236088" lon="12.205765231603623"><ele>49.8</ele><time>2026-04-12T07:32:38Z</time></trkpt><trkpt lat="44.11435558326131" lon="12.205672167935806"><ele>50.0</ele><time>2026-04-12T07:32:39Z</time></trkpt><trkpt lat="44.11429437289267" lon="12.205584932142228"><ele>50.00000000000001</ele><time>2026-04-12T07:32:40Z</time></trkpt><trkpt lat="44.11424500878053" lon="12.205500409686401"><ele>50.0</ele><time>2026-04-12T07:32:41Z</time></trkpt><trkpt lat="44.114196859461174" lon="12.205418538512278"><ele>50.0</ele><time>2026-04-12T07:32:42Z</time></trkpt><trkpt lat="44.114161456792424" lon="12.205339480759871"><ele>50.0</ele><time>2026-04-12T07:32:43Z</time></trkpt><trkpt lat="44.114119539346824" lon="12.205215884822548"><ele>50.00000000000001</ele><time>2026-04-12T07:32:45Z</time></trkpt><trkpt lat="44.114137746116" lon="12.205130144353095"><ele>50.0</ele><time>2026-04-12T07:32:46Z</time></trkpt><trkpt lat="44.11416586568125" lon="12.205034582749436"><ele>50.0</ele><time>2026-04-12T07:32:47Z</time></trkpt><trkpt lat="44.11417536110725" lon="12.20489568508871"><ele>50.0</ele><time>2026-04-12T07:32:49Z</time></trkpt><trkpt lat="44.11411355113132" lon="12.204764269512806"><ele>50.0</ele><time>2026-04-12T07:32:51Z</time></trkpt><trkpt lat="44.11407576402527" lon="12.204691659066782"><ele>50.0</ele><time>2026-04-12T07:32:52Z</time></trkpt><trkpt lat="44.11399825343823" lon="12.204722121906741"><ele>50.0</ele><time>2026-04-12T07:32:53Z</time></trkpt><trkpt lat="44.11387105424294" lon="12.20475284241785"><ele>50.16666666666667</ele><time>2026-04-12T07:32:55Z</time></trkpt><trkpt lat="44.113793756355136" lon="12.204760582687348"><ele>50.333333333333336</ele><time>2026-04-12T07:32:56Z</time></trkpt><trkpt lat="44.11371694069405" lon="12.204749145693318"><ele>50.5</ele><time>2026-04-12T07:32:57Z</time></trkpt><trkpt lat="44.11364928046066" lon="12.204690702532979"><ele>50.66666666666667</ele><time>2026-04-12T07:32:58Z</time></trkpt><trkpt lat="44.11357967695331" lon="12.2046442519632"><ele>50.833333333333336</ele><time>2026-04-12T07:32:59Z</time></trkpt><trkpt lat="44.11350037418931" lon="12.20460398001605"><ele>51.0</ele><time>2026-04-12T07:33:00Z</time></trkpt><trkpt lat="44.11342079177973" lon="12.204522644024594"><ele>51.0</ele><time>2026-04-12T07:33:01Z</time></trkpt><trkpt lat="44.11331328083874" lon="12.204414601408615"><ele>51.0</ele><time>2026-04-12T07:33:02Z</time></trkpt><trkpt lat="44.113194093399684" lon="12.204264760071787"><ele>51.0</ele><time>2026-04-12T07:33:03Z</time></trkpt><trkpt lat="44.1130554907932" lon="12.204139856884039"><ele>52.33333333333333</ele><time>2026-04-12T07:33:04Z</time></trkpt><trkpt lat="44.11293298536333" lon="12.203997342253533"><ele>53.666666666666664</ele><time>2026-04-12T07:33:05Z</time></trkpt><trkpt lat="44.11281330695361" lon="12.203865253052228"><ele>55.0</ele><time>2026-04-12T07:33:06Z</time></trkpt><trkpt lat="44.11268695925808" lon="12.203731865821279"><ele>55.0</ele><time>2026-04-12T07:33:07Z</time></trkpt><trkpt lat="44.11256933504524" lon="12.203609868652867"><ele>55.0</ele><time>2026-04-12T07:33:08Z</time></trkpt><trkpt lat="44.1124503802952" lon="12.203484822119925"><ele>55.0</ele><time>2026-04-12T07:33:09Z</time></trkpt><trkpt lat="44.11232648686209" lon="12.20336269609832"><ele>55.0</ele><time>2026-04-12T07:33:10.001Z</time></trkpt><trkpt lat="44.112207338464735" lon="12.203245076436106"><ele>54.75</ele><time>2026-04-12T07:33:11.001Z</time></trkpt><trkpt lat="44.11209055792153" lon="12.203124572426182"><ele>54.5</ele><time>2026-04-12T07:33:12.001Z</time></trkpt><trkpt lat="44.1119688073" lon="12.20301102393333"><ele>54.25</ele><time>2026-04-12T07:33:13.001Z</time></trkpt><trkpt lat="44.111851444790794" lon="12.202909383671576"><ele>54.0</ele><time>2026-04-12T07:33:14.001Z</time></trkpt><trkpt lat="44.11172629572308" lon="12.202804207908152"><ele>54.0</ele><time>2026-04-12T07:33:15.001Z</time></trkpt><trkpt lat="44.111599348689374" lon="12.202706042269613"><ele>54.0</ele><time>2026-04-12T07:33:16.001Z</time></trkpt><trkpt lat="44.11147008084759" lon="12.20262996711231"><ele>54.0</ele><time>2026-04-12T07:33:17.001Z</time></trkpt><trkpt lat="44.11133716918715" lon="12.202570353399217"><ele>54.0</ele><time>2026-04-12T07:33:18.001Z</time></trkpt><trkpt lat="44.1112125169575" lon="12.202524010103115"><ele>54.5</ele><time>2026-04-12T07:33:19.001Z</time></trkpt><trkpt lat="44.11110575484548" lon="12.202485548227301"><ele>55.0</ele><time>2026-04-12T07:33:20.001Z</time></trkpt><trkpt lat="44.11100232077191" lon="12.202443876652334"><ele>55.5</ele><time>2026-04-12T07:33:21.001Z</time></trkpt><trkpt lat="44.11089138451694" lon="12.202385029164846"><ele>56.0</ele><time>2026-04-12T07:33:22.001Z</time></trkpt><trkpt lat="44.110774012950976" lon="12.202317244263327"><ele>55.75</ele><time>2026-04-12T07:33:23.001Z</time></trkpt><trkpt lat="44.110655012779496" lon="12.202247663166492"><ele>55.5</ele><time>2026-04-12T07:33:24.001Z</time></trkpt><trkpt lat="44.11052711638432" lon="12.202185231325732"><ele>55.25</ele><time>2026-04-12T07:33:25.001Z</time></trkpt><trkpt lat="44.110404424915444" lon="12.202047934026009"><ele>55.0</ele><time>2026-04-12T07:33:26.001Z</time></trkpt><trkpt lat="44.110280996148994" lon="12.201906398225514"><ele>55.0</ele><time>2026-04-12T07:33:27.001Z</time></trkpt><trkpt lat="44.11015893254051" lon="12.201754809417901"><ele>55.0</ele><time>2026-04-12T07:33:28.001Z</time></trkpt><trkpt lat="44.11003584275108" lon="12.201600952101428"><ele>55.0</ele><time>2026-04-12T07:33:29.001Z</time></trkpt><trkpt lat="44.109910061888485" lon="12.201438914879024"><ele>55.666666666666664</ele><time>2026-04-12T07:33:30.001Z</time></trkpt><trkpt lat="44.10977750708571" lon="12.201271690821269"><ele>56.33333333333333</ele><time>2026-04-12T07:33:31.001Z</time></trkpt><trkpt lat="44.109647360835886" lon="12.201115933618931"><ele>57.0</ele><time>2026-04-12T07:33:31.999Z</time></trkpt><trkpt lat="44.109528229894764" lon="12.200957600438414"><ele>57.0</ele><time>2026-04-12T07:33:32.999Z</time></trkpt><trkpt lat="44.10940513568955" lon="12.200800784657588"><ele>57.0</ele><time>2026-04-12T07:33:33.999Z</time></trkpt><trkpt lat="44.109291902618146" lon="12.200644604606"><ele>57.0</ele><time>2026-04-12T07:33:34.999Z</time></trkpt><trkpt lat="44.10919064381114" lon="12.200499764452292"><ele>57.0</ele><time>2026-04-12T07:33:35.999Z</time></trkpt><trkpt lat="44.109099085713055" lon="12.20036449890255"><ele>57.0</ele><time>2026-04-12T07:33:36.999Z</time></trkpt><trkpt lat="44.109023549280636" lon="12.200247277337297"><ele>57.0</ele><time>2026-04-12T07:33:37.999Z</time></trkpt><trkpt lat="44.10896892831607" lon="12.200150910338472"><ele>57.0</ele><time>2026-04-12T07:33:38.999Z</time></trkpt><trkpt lat="44.108913234463046" lon="12.20006071938874"><ele>57.0</ele><time>2026-04-12T07:33:39.999Z</time></trkpt><trkpt lat="44.10888094259565" lon="12.199974442985644"><ele>57.0</ele><time>2026-04-12T07:33:40.999Z</time></trkpt><trkpt lat="44.10883773183555" lon="12.199887599037034"><ele>57.0</ele><time>2026-04-12T07:33:41.999Z</time></trkpt><trkpt lat="44.1087718555222" lon="12.199802377212208"><ele>57.0</ele><time>2026-04-12T07:33:43Z</time></trkpt><trkpt lat="44.108687421024484" lon="12.199725987474235"><ele>57.0</ele><time>2026-04-12T07:33:44Z</time></trkpt><trkpt lat="44.10858016568629" lon="12.199641787140644"><ele>57.0</ele><time>2026-04-12T07:33:45Z</time></trkpt><trkpt lat="44.10847179945007" lon="12.199514850976307"><ele>57.0</ele><time>2026-04-12T07:33:46Z</time></trkpt><trkpt lat="44.10836895202542" lon="12.199358257484331"><ele>57.0</ele><time>2026-04-12T07:33:47Z</time></trkpt><trkpt lat="44.10824372669632" lon="12.199213128668775"><ele>57.0</ele><time>2026-04-12T07:33:48Z</time></trkpt><trkpt lat="44.10813292644889" lon="12.199058149869956"><ele>57.0</ele><time>2026-04-12T07:33:49Z</time></trkpt><trkpt lat="44.108020029019755" lon="12.19889520723924"><ele>57.0</ele><time>2026-04-12T07:33:50Z</time></trkpt><trkpt lat="44.10790282078345" lon="12.198735657663239"><ele>57.0</ele><time>2026-04-12T07:33:51Z</time></trkpt><trkpt lat="44.10778317770323" lon="12.198562012425953"><ele>57.0</ele><time>2026-04-12T07:33:52Z</time></trkpt><trkpt lat="44.10765896057446" lon="12.198400073283024"><ele>57.0</ele><time>2026-04-12T07:33:53Z</time></trkpt><trkpt lat="44.107535342627465" lon="12.19822982280479"><ele>57.0</ele><time>2026-04-12T07:33:54Z</time></trkpt><trkpt lat="44.107418105077976" lon="12.198066380296028"><ele>57.66666666666667</ele><time>2026-04-12T07:33:55Z</time></trkpt><trkpt lat="44.107297694154674" lon="12.197897723153567"><ele>58.333333333333336</ele><time>2026-04-12T07:33:56Z</time></trkpt><trkpt lat="44.10717832761277" lon="12.1977362528578"><ele>59.0</ele><time>2026-04-12T07:33:57Z</time></trkpt><trkpt lat="44.107058927462575" lon="12.197582092127625"><ele>59.0</ele><time>2026-04-12T07:33:58Z</time></trkpt><trkpt lat="44.1069392353658" lon="12.197431191317603"><ele>59.0</ele><time>2026-04-12T07:33:59Z</time></trkpt><trkpt lat="44.10683409360191" lon="12.19727991508797"><ele>59.0</ele><time>2026-04-12T07:34:00Z</time></trkpt><trkpt lat="44.10673096731223" lon="12.197134541315924"><ele>59.0</ele><time>2026-04-12T07:34:01Z</time></trkpt><trkpt lat="44.10662853688606" lon="12.196996712938436"><ele>59.0</ele><time>2026-04-12T07:34:02Z</time></trkpt><trkpt lat="44.10653362289653" lon="12.196867912019972"><ele>59.0</ele><time>2026-04-12T07:34:03Z</time></trkpt><trkpt lat="44.10644606096667" lon="12.19674165550498"><ele>59.0</ele><time>2026-04-12T07:34:04Z</time></trkpt><trkpt lat="44.106359919611776" lon="12.19662637882509"><ele>59.00000000000001</ele><time>2026-04-12T07:34:05Z</time></trkpt><trkpt lat="44.10627932553541" lon="12.19651701827058"><ele>59.0</ele><time>2026-04-12T07:34:06Z</time></trkpt><trkpt lat="44.106208382569314" lon="12.196426697552255"><ele>59.0</ele><time>2026-04-12T07:34:07Z</time></trkpt><trkpt lat="44.106147381473974" lon="12.1963450037319"><ele>59.0</ele><time>2026-04-12T07:34:08Z</time></trkpt><trkpt lat="44.10609547046759" lon="12.19626575681803"><ele>59.00000000000001</ele><time>2026-04-12T07:34:09Z</time></trkpt><trkpt lat="44.106059807637344" lon="12.196191238434576"><ele>59.0</ele><time>2026-04-12T07:34:10Z</time></trkpt><trkpt lat="44.10601538003112" lon="12.196052102091965"><ele>59.00000000000001</ele><time>2026-04-12T07:34:12Z</time></trkpt><trkpt lat="44.10590585404401" lon="12.196038926260341"><ele>59.0</ele><time>2026-04-12T07:34:14Z</time></trkpt><trkpt lat="44.10585677543493" lon="12.196093891653693"><ele>59.0</ele><time>2026-04-12T07:34:15Z</time></trkpt><trkpt lat="44.10580308491866" lon="12.196185126950516"><ele>59.0</ele><time>2026-04-12T07:34:16Z</time></trkpt><trkpt lat="44.1057462559411" lon="12.196264557166645"><ele>59.00000000000001</ele><time>2026-04-12T07:34:17Z</time></trkpt><trkpt lat="44.10565597375279" lon="12.196277377149498"><ele>59.0</ele><time>2026-04-12T07:34:18Z</time></trkpt><trkpt lat="44.105551925802374" lon="12.196250106339352"><ele>59.400000000000006</ele><time>2026-04-12T07:34:19Z</time></trkpt><trkpt lat="44.1054409668567" lon="12.196257587957595"><ele>59.800000000000004</ele><time>2026-04-12T07:34:20Z</time></trkpt><trkpt lat="44.10532962555222" lon="12.196245296466866"><ele>60.199999999999996</ele><time>2026-04-12T07:34:21Z</time></trkpt><trkpt lat="44.10521430718615" lon="12.196240322037085"><ele>60.599999999999994</ele><time>2026-04-12T07:34:22Z</time></trkpt><trkpt lat="44.10510650195281" lon="12.196235392253849"><ele>61.0</ele><time>2026-04-12T07:34:23Z</time></trkpt><trkpt lat="44.104987439936345" lon="12.196234764241993"><ele>61.0</ele><time>2026-04-12T07:34:24Z</time></trkpt><trkpt lat="44.10486061328704" lon="12.196229216801333"><ele>61.0</ele><time>2026-04-12T07:34:25Z</time></trkpt><trkpt lat="44.104721334624635" lon="12.196219709368181"><ele>61.0</ele><time>2026-04-12T07:34:26Z</time></trkpt><trkpt lat="44.104573961900996" lon="12.19621012991953"><ele>61.0</ele><time>2026-04-12T07:34:27Z</time></trkpt><trkpt lat="44.104419989658524" lon="12.196202553449814"><ele>61.0</ele><time>2026-04-12T07:34:28Z</time></trkpt><trkpt lat="44.1042765431978" lon="12.196194829126402"><ele>61.0</ele><time>2026-04-12T07:34:29Z</time></trkpt><trkpt lat="44.10412789879657" lon="12.196191456898658"><ele>61.0</ele><time>2026-04-12T07:34:30Z</time></trkpt><trkpt lat="44.10396964080399" lon="12.196187264537667"><ele>61.0</ele><time>2026-04-12T07:34:31Z</time></trkpt><trkpt lat="44.10381019519631" lon="12.196191134088261"><ele>61.0</ele><time>2026-04-12T07:34:32Z</time></trkpt><trkpt lat="44.10364829654965" lon="12.196210623341031"><ele>61.0</ele><time>2026-04-12T07:34:33Z</time></trkpt><trkpt lat="44.10348189016964" lon="12.196242095092922"><ele>61.0</ele><time>2026-04-12T07:34:34Z</time></trkpt><trkpt lat="44.10331833806767" lon="12.196277817774877"><ele>61.0</ele><time>2026-04-12T07:34:35Z</time></trkpt><trkpt lat="44.10315836976101" lon="12.19631347893694"><ele>61.0</ele><time>2026-04-12T07:34:36Z</time></trkpt><trkpt lat="44.10300437527109" lon="12.1963488657479"><ele>60.33333333333333</ele><time>2026-04-12T07:34:37Z</time></trkpt><trkpt lat="44.10285452015998" lon="12.1963870187579"><ele>59.66666666666667</ele><time>2026-04-12T07:34:38Z</time></trkpt><trkpt lat="44.102709091163206" lon="12.196425832048675"><ele>59.0</ele><time>2026-04-12T07:34:39Z</time></trkpt><trkpt lat="44.102561819751955" lon="12.196465140813805"><ele>59.0</ele><time>2026-04-12T07:34:40Z</time></trkpt><trkpt lat="44.102429387274206" lon="12.19651359410389"><ele>59.0</ele><time>2026-04-12T07:34:41Z</time></trkpt><trkpt lat="44.1023085877636" lon="12.196569613855695"><ele>59.0</ele><time>2026-04-12T07:34:42Z</time></trkpt><trkpt lat="44.10219903280085" lon="12.196639969854282"><ele>59.0</ele><time>2026-04-12T07:34:43Z</time></trkpt><trkpt lat="44.102091186040695" lon="12.196715832544053"><ele>59.5</ele><time>2026-04-12T07:34:44Z</time></trkpt><trkpt lat="44.101992823051496" lon="12.196801841972224"><ele>60.0</ele><time>2026-04-12T07:34:45Z</time></trkpt><trkpt lat="44.101896822494574" lon="12.19689686569397"><ele>60.5</ele><time>2026-04-12T07:34:46Z</time></trkpt><trkpt lat="44.10180440467735" lon="12.197003695882513"><ele>61.0</ele><time>2026-04-12T07:34:47Z</time></trkpt><trkpt lat="44.101709832662564" lon="12.197109340721356"><ele>61.0</ele><time>2026-04-12T07:34:48Z</time></trkpt><trkpt lat="44.10160476779749" lon="12.197213398484022"><ele>61.0</ele><time>2026-04-12T07:34:49Z</time></trkpt><trkpt lat="44.101507915581344" lon="12.197315018834338"><ele>61.0</ele><time>2026-04-12T07:34:50Z</time></trkpt><trkpt lat="44.10140506468596" lon="12.197409745668919"><ele>61.0</ele><time>2026-04-12T07:34:51.001Z</time></trkpt><trkpt lat="44.10129704582782" lon="12.197496764509408"><ele>61.5</ele><time>2026-04-12T07:34:52.001Z</time></trkpt><trkpt lat="44.10117763722634" lon="12.197547076082943"><ele>62.0</ele><time>2026-04-12T07:34:53.001Z</time></trkpt><trkpt lat="44.10105876694504" lon="12.197575124133582"><ele>62.5</ele><time>2026-04-12T07:34:54.001Z</time></trkpt><trkpt lat="44.10092705899349" lon="12.197601898906244"><ele>63.0</ele><time>2026-04-12T07:34:55.001Z</time></trkpt><trkpt lat="44.10079120024018" lon="12.197593039587078"><ele>62.33333333333333</ele><time>2026-04-12T07:34:56.001Z</time></trkpt><trkpt lat="44.10064277924799" lon="12.197594160184718"><ele>61.666666666666664</ele><time>2026-04-12T07:34:57.001Z</time></trkpt><trkpt lat="44.10048631729226" lon="12.197596198119873"><ele>61.0</ele><time>2026-04-12T07:34:58.001Z</time></trkpt><trkpt lat="44.10032228244231" lon="12.197599387531376"><ele>61.0</ele><time>2026-04-12T07:34:59.001Z</time></trkpt><trkpt lat="44.100157783114696" lon="12.19761094730716"><ele>61.0</ele><time>2026-04-12T07:35:00.001Z</time></trkpt><trkpt lat="44.09998863914242" lon="12.19762257284334"><ele>61.0</ele><time>2026-04-12T07:35:01.001Z</time></trkpt><trkpt lat="44.099823331530274" lon="12.197632992195501"><ele>61.0</ele><time>2026-04-12T07:35:02.001Z</time></trkpt><trkpt lat="44.09965706836889" lon="12.197643345135926"><ele>61.0</ele><time>2026-04-12T07:35:03.001Z</time></trkpt><trkpt lat="44.09949246747502" lon="12.197654582598346"><ele>61.0</ele><time>2026-04-12T07:35:04.001Z</time></trkpt><trkpt lat="44.099323026448516" lon="12.197664544777124"><ele>61.0</ele><time>2026-04-12T07:35:05.001Z</time></trkpt><trkpt lat="44.09915490519544" lon="12.19766671318485"><ele>61.0</ele><time>2026-04-12T07:35:06.001Z</time></trkpt><trkpt lat="44.09897722762358" lon="12.197665740424364"><ele>61.0</ele><time>2026-04-12T07:35:07.001Z</time></trkpt><trkpt lat="44.09880133498714" lon="12.197661671960933"><ele>60.666666666666664</ele><time>2026-04-12T07:35:08.001Z</time></trkpt><trkpt lat="44.09861549446396" lon="12.197642868122118"><ele>60.33333333333333</ele><time>2026-04-12T07:35:09.001Z</time></trkpt><trkpt lat="44.09842978474639" lon="12.19760741019503"><ele>60.0</ele><time>2026-04-12T07:35:10.001Z</time></trkpt><trkpt lat="44.09824402484309" lon="12.197557338734564"><ele>60.66666666666667</ele><time>2026-04-12T07:35:11.001Z</time></trkpt><trkpt lat="44.09806082772736" lon="12.197493081501822"><ele>61.333333333333336</ele><time>2026-04-12T07:35:12.001Z</time></trkpt><trkpt lat="44.09787349560577" lon="12.197423268115397"><ele>62.0</ele><time>2026-04-12T07:35:13.001Z</time></trkpt><trkpt lat="44.097690679921826" lon="12.19734258090649"><ele>62.333333333333336</ele><time>2026-04-12T07:35:14.001Z</time></trkpt><trkpt lat="44.097511732440616" lon="12.197255774040666"><ele>62.66666666666667</ele><time>2026-04-12T07:35:15.001Z</time></trkpt><trkpt lat="44.09734039559458" lon="12.197169233759247"><ele>63.0</ele><time>2026-04-12T07:35:16.001Z</time></trkpt><trkpt lat="44.09717206854141" lon="12.197073950063775"><ele>62.33333333333333</ele><time>2026-04-12T07:35:17.001Z</time></trkpt><trkpt lat="44.09699485438316" lon="12.19696439549153"><ele>61.666666666666664</ele><time>2026-04-12T07:35:18.001Z</time></trkpt><trkpt lat="44.096822832609" lon="12.196854691745918"><ele>61.0</ele><time>2026-04-12T07:35:19.001Z</time></trkpt><trkpt lat="44.096646211042184" lon="12.196735241404859"><ele>61.0</ele><time>2026-04-12T07:35:20.001Z</time></trkpt><trkpt lat="44.09647752450394" lon="12.196616853211161"><ele>61.0</ele><time>2026-04-12T07:35:21.001Z</time></trkpt><trkpt lat="44.0963090798304" lon="12.196488897029253"><ele>61.0</ele><time>2026-04-12T07:35:22.001Z</time></trkpt><trkpt lat="44.096148881938674" lon="12.196349159784784"><ele>61.33333333333333</ele><time>2026-04-12T07:35:23.001Z</time></trkpt><trkpt lat="44.09599787113883" lon="12.196195725627868"><ele>61.66666666666667</ele><time>2026-04-12T07:35:24.001Z</time></trkpt><trkpt lat="44.09585575973976" lon="12.196027878231673"><ele>62.0</ele><time>2026-04-12T07:35:25.001Z</time></trkpt><trkpt lat="44.0957209048793" lon="12.195856723219311"><ele>62.333333333333336</ele><time>2026-04-12T07:35:26.001Z</time></trkpt><trkpt lat="44.095593270538394" lon="12.19567304948259"><ele>62.66666666666667</ele><time>2026-04-12T07:35:27.001Z</time></trkpt><trkpt lat="44.095473042417375" lon="12.195477165262522"><ele>63.0</ele><time>2026-04-12T07:35:28.001Z</time></trkpt><trkpt lat="44.09535144882573" lon="12.195279200351802"><ele>63.66666666666667</ele><time>2026-04-12T07:35:29.001Z</time></trkpt><trkpt lat="44.09522794791005" lon="12.19508796811099"><ele>64.33333333333334</ele><time>2026-04-12T07:35:30.001Z</time></trkpt><trkpt lat="44.09509907315451" lon="12.194910019614072"><ele>65.0</ele><time>2026-04-12T07:35:31.001Z</time></trkpt><trkpt lat="44.0949643066002" lon="12.194742085296994"><ele>66.0</ele><time>2026-04-12T07:35:32.001Z</time></trkpt><trkpt lat="44.09482815324938" lon="12.194576255692919"><ele>67.0</ele><time>2026-04-12T07:35:33.001Z</time></trkpt><trkpt lat="44.094689793022205" lon="12.194412477147084"><ele>68.0</ele><time>2026-04-12T07:35:34.001Z</time></trkpt><trkpt lat="44.09456170218958" lon="12.194258207359486"><ele>68.0</ele><time>2026-04-12T07:35:35.001Z</time></trkpt><trkpt lat="44.094431295790216" lon="12.19411568224689"><ele>68.0</ele><time>2026-04-12T07:35:36.001Z</time></trkpt><trkpt lat="44.09429276364308" lon="12.193979973351171"><ele>68.0</ele><time>2026-04-12T07:35:37.001Z</time></trkpt><trkpt lat="44.094140813334334" lon="12.193861775771769"><ele>68.0</ele><time>2026-04-12T07:35:38Z</time></trkpt><trkpt lat="44.093981585573694" lon="12.193766909278315"><ele>68.0</ele><time>2026-04-12T07:35:39Z</time></trkpt><trkpt lat="44.09381304892493" lon="12.193686460781533"><ele>68.0</ele><time>2026-04-12T07:35:40Z</time></trkpt><trkpt lat="44.093653862139504" lon="12.19360477829591"><ele>68.0</ele><time>2026-04-12T07:35:41Z</time></trkpt><trkpt lat="44.093494344402636" lon="12.193513768519434"><ele>68.0</ele><time>2026-04-12T07:35:42Z</time></trkpt><trkpt lat="44.093329771394565" lon="12.193420585634856"><ele>68.0</ele><time>2026-04-12T07:35:43Z</time></trkpt><trkpt lat="44.093176965971345" lon="12.193327272630375"><ele>68.33333333333334</ele><time>2026-04-12T07:35:44Z</time></trkpt><trkpt lat="44.09303089422345" lon="12.193242184582031"><ele>68.66666666666667</ele><time>2026-04-12T07:35:45Z</time></trkpt><trkpt lat="44.09288357655484" lon="12.193157845459165"><ele>69.0</ele><time>2026-04-12T07:35:46Z</time></trkpt><trkpt lat="44.09273334532679" lon="12.193070835447356"><ele>69.66666666666667</ele><time>2026-04-12T07:35:47Z</time></trkpt><trkpt lat="44.09258469774604" lon="12.192982192430332"><ele>70.33333333333334</ele><time>2026-04-12T07:35:48Z</time></trkpt><trkpt lat="44.09243317423527" lon="12.192894791356458"><ele>71.0</ele><time>2026-04-12T07:35:49Z</time></trkpt><trkpt lat="44.09228568399104" lon="12.192806321227922"><ele>71.0</ele><time>2026-04-12T07:35:50Z</time></trkpt><trkpt lat="44.092141498506415" lon="12.192719076650926"><ele>71.0</ele><time>2026-04-12T07:35:51Z</time></trkpt><trkpt lat="44.091989936366794" lon="12.19263796597976"><ele>71.0</ele><time>2026-04-12T07:35:52Z</time></trkpt><trkpt lat="44.091834910442415" lon="12.192554045419312"><ele>71.0</ele><time>2026-04-12T07:35:53Z</time></trkpt><trkpt lat="44.0916892114491" lon="12.192472509190923"><ele>71.0</ele><time>2026-04-12T07:35:54Z</time></trkpt><trkpt lat="44.09153386384088" lon="12.192395534864822"><ele>71.0</ele><time>2026-04-12T07:35:55Z</time></trkpt><trkpt lat="44.091394671853756" lon="12.192326938807982"><ele>70.0</ele><time>2026-04-12T07:35:56Z</time></trkpt><trkpt lat="44.091256625827974" lon="12.192266654153501"><ele>69.0</ele><time>2026-04-12T07:35:57Z</time></trkpt><trkpt lat="44.091117100094635" lon="12.192215716973164"><ele>68.0</ele><time>2026-04-12T07:35:58Z</time></trkpt><trkpt lat="44.09095743276181" lon="12.19218547688349"><ele>68.0</ele><time>2026-04-12T07:35:59Z</time></trkpt><trkpt lat="44.09079817757513" lon="12.19217649975382"><ele>68.0</ele><time>2026-04-12T07:36:00Z</time></trkpt><trkpt lat="44.090632891799885" lon="12.192193070822785"><ele>68.0</ele><time>2026-04-12T07:36:01Z</time></trkpt><trkpt lat="44.09048017394663" lon="12.192215275141114"><ele>69.33333333333334</ele><time>2026-04-12T07:36:02Z</time></trkpt><trkpt lat="44.09032279595872" lon="12.192237370188115"><ele>70.66666666666667</ele><time>2026-04-12T07:36:03Z</time></trkpt><trkpt lat="44.090162339693" lon="12.192257290372247"><ele>72.0</ele><time>2026-04-12T07:36:04Z</time></trkpt><trkpt lat="44.09001051143315" lon="12.19227979088127"><ele>72.66666666666667</ele><time>2026-04-12T07:36:05Z</time></trkpt><trkpt lat="44.089856766273336" lon="12.192298931520519"><ele>73.33333333333334</ele><time>2026-04-12T07:36:06Z</time></trkpt><trkpt lat="44.08970319840997" lon="12.192316611479118"><ele>74.0</ele><time>2026-04-12T07:36:07Z</time></trkpt><trkpt lat="44.08955365637089" lon="12.192325305076743"><ele>74.0</ele><time>2026-04-12T07:36:08Z</time></trkpt><trkpt lat="44.08940336581194" lon="12.19233654824313"><ele>74.0</ele><time>2026-04-12T07:36:09Z</time></trkpt><trkpt lat="44.089261927037" lon="12.192315326838354"><ele>74.0</ele><time>2026-04-12T07:36:10Z</time></trkpt><trkpt lat="44.089116651550576" lon="12.19227395083234"><ele>74.0</ele><time>2026-04-12T07:36:11Z</time></trkpt><trkpt lat="44.0889659613945" lon="12.192230309270933"><ele>74.25</ele><time>2026-04-12T07:36:12Z</time></trkpt><trkpt lat="44.08882909228848" lon="12.192172881222078"><ele>74.5</ele><time>2026-04-12T07:36:13Z</time></trkpt><trkpt lat="44.088688443545955" lon="12.192120635575895"><ele>74.75</ele><time>2026-04-12T07:36:14Z</time></trkpt><trkpt lat="44.08854227818007" lon="12.192062581960686"><ele>75.0</ele><time>2026-04-12T07:36:15Z</time></trkpt><trkpt lat="44.088397155914826" lon="12.19200281128279"><ele>74.5</ele><time>2026-04-12T07:36:16Z</time></trkpt><trkpt lat="44.08825653538738" lon="12.191938244589585"><ele>74.0</ele><time>2026-04-12T07:36:17Z</time></trkpt><trkpt lat="44.08811558958642" lon="12.191867907083095"><ele>73.5</ele><time>2026-04-12T07:36:18Z</time></trkpt><trkpt lat="44.087976773889736" lon="12.191789088152081"><ele>73.0</ele><time>2026-04-12T07:36:19Z</time></trkpt><trkpt lat="44.08783179995514" lon="12.19170425551303"><ele>73.0</ele><time>2026-04-12T07:36:20Z</time></trkpt><trkpt lat="44.08769523923424" lon="12.191612571283287"><ele>73.0</ele><time>2026-04-12T07:36:21Z</time></trkpt><trkpt lat="44.087559728586534" lon="12.191518316620567"><ele>73.0</ele><time>2026-04-12T07:36:22Z</time></trkpt><trkpt lat="44.08742815709277" lon="12.191414358455223"><ele>73.66666666666666</ele><time>2026-04-12T07:36:23Z</time></trkpt><trkpt lat="44.08729909947341" lon="12.191307129727624"><ele>74.33333333333333</ele><time>2026-04-12T07:36:24Z</time></trkpt><trkpt lat="44.08717157947119" lon="12.191194242256644"><ele>75.0</ele><time>2026-04-12T07:36:25Z</time></trkpt><trkpt lat="44.08704854499496" lon="12.191071945632626"><ele>75.0</ele><time>2026-04-12T07:36:26Z</time></trkpt><trkpt lat="44.086925278768966" lon="12.190947782268417"><ele>75.0</ele><time>2026-04-12T07:36:27Z</time></trkpt><trkpt lat="44.08679508203154" lon="12.190827696971558"><ele>75.0</ele><time>2026-04-12T07:36:28Z</time></trkpt><trkpt lat="44.08666854403387" lon="12.190705173899648"><ele>75.33333333333333</ele><time>2026-04-12T07:36:29Z</time></trkpt><trkpt lat="44.086538899898365" lon="12.1905827606664"><ele>75.66666666666666</ele><time>2026-04-12T07:36:30Z</time></trkpt><trkpt lat="44.08640740179739" lon="12.190456753107915"><ele>76.0</ele><time>2026-04-12T07:36:31Z</time></trkpt><trkpt lat="44.08627399428969" lon="12.190337226428491"><ele>76.0</ele><time>2026-04-12T07:36:32Z</time></trkpt><trkpt lat="44.086146809529275" lon="12.190218275131777"><ele>76.0</ele><time>2026-04-12T07:36:33Z</time></trkpt><trkpt lat="44.08601560733269" lon="12.190108056215209"><ele>76.0</ele><time>2026-04-12T07:36:34Z</time></trkpt><trkpt lat="44.085886092542935" lon="12.190013971621182"><ele>76.0</ele><time>2026-04-12T07:36:35Z</time></trkpt><trkpt lat="44.08576511305334" lon="12.189930660747374"><ele>76.0</ele><time>2026-04-12T07:36:36Z</time></trkpt><trkpt lat="44.08564725806711" lon="12.1898569915859"><ele>76.0</ele><time>2026-04-12T07:36:37Z</time></trkpt><trkpt lat="44.08551890165414" lon="12.189785371144358"><ele>76.0</ele><time>2026-04-12T07:36:38Z</time></trkpt><trkpt lat="44.08538780755294" lon="12.189708371571493"><ele>76.66666666666666</ele><time>2026-04-12T07:36:39Z</time></trkpt><trkpt lat="44.0852454372595" lon="12.189633424815057"><ele>77.33333333333333</ele><time>2026-04-12T07:36:40.001Z</time></trkpt><trkpt lat="44.085100720331106" lon="12.189551950896647"><ele>78.0</ele><time>2026-04-12T07:36:41.001Z</time></trkpt><trkpt lat="44.08494388782564" lon="12.18947835099215"><ele>77.66666666666667</ele><time>2026-04-12T07:36:42.001Z</time></trkpt><trkpt lat="44.08478377016777" lon="12.189410904496722"><ele>77.33333333333334</ele><time>2026-04-12T07:36:43.001Z</time></trkpt><trkpt lat="44.084619961201746" lon="12.189366633065784"><ele>77.0</ele><time>2026-04-12T07:36:44.001Z</time></trkpt><trkpt lat="44.084450072637324" lon="12.189322418186007"><ele>77.0</ele><time>2026-04-12T07:36:45.001Z</time></trkpt><trkpt lat="44.08427703938093" lon="12.189280444463883"><ele>77.0</ele><time>2026-04-12T07:36:46.001Z</time></trkpt><trkpt lat="44.08410250005714" lon="12.189238468618013"><ele>77.0</ele><time>2026-04-12T07:36:47.001Z</time></trkpt><trkpt lat="44.08392183034593" lon="12.189192758053776"><ele>77.0</ele><time>2026-04-12T07:36:48.001Z</time></trkpt><trkpt lat="44.08375452783546" lon="12.189127096544006"><ele>77.0</ele><time>2026-04-12T07:36:49.001Z</time></trkpt><trkpt lat="44.08358454488131" lon="12.189065808467374"><ele>77.0</ele><time>2026-04-12T07:36:50.001Z</time></trkpt><trkpt lat="44.08342734861396" lon="12.189002161813251"><ele>77.0</ele><time>2026-04-12T07:36:51.001Z</time></trkpt><trkpt lat="44.08327277962658" lon="12.188942312876424"><ele>77.0</ele><time>2026-04-12T07:36:52.001Z</time></trkpt><trkpt lat="44.083126784391304" lon="12.18889283451386"><ele>77.0</ele><time>2026-04-12T07:36:53.001Z</time></trkpt><trkpt lat="44.082969708825395" lon="12.188853772697394"><ele>73.66666666666667</ele><time>2026-04-12T07:36:54.001Z</time></trkpt><trkpt lat="44.08280484912086" lon="12.188856218091093"><ele>70.33333333333333</ele><time>2026-04-12T07:36:55.001Z</time></trkpt><trkpt lat="44.08263237606993" lon="12.188879868428774"><ele>67.0</ele><time>2026-04-12T07:36:56.001Z</time></trkpt><trkpt lat="44.08246192018147" lon="12.188905473894243"><ele>68.0</ele><time>2026-04-12T07:36:57.001Z</time></trkpt><trkpt lat="44.082290177164026" lon="12.188911439638327"><ele>69.0</ele><time>2026-04-12T07:36:58.001Z</time></trkpt><trkpt lat="44.08212868934764" lon="12.188903341132601"><ele>70.0</ele><time>2026-04-12T07:36:59.001Z</time></trkpt><trkpt lat="44.08196779171402" lon="12.18887667404159"><ele>70.0</ele><time>2026-04-12T07:37:00.001Z</time></trkpt><trkpt lat="44.0818091385324" lon="12.188828879798683"><ele>70.0</ele><time>2026-04-12T07:37:01.001Z</time></trkpt><trkpt lat="44.08165461193636" lon="12.188746187554568"><ele>70.0</ele><time>2026-04-12T07:37:02.001Z</time></trkpt><trkpt lat="44.081493642006414" lon="12.188672920841777"><ele>73.0</ele><time>2026-04-12T07:37:03.001Z</time></trkpt><trkpt lat="44.081324316151616" lon="12.188654389697035"><ele>76.0</ele><time>2026-04-12T07:37:04.001Z</time></trkpt><trkpt lat="44.08115247308664" lon="12.188688998951454"><ele>79.0</ele><time>2026-04-12T07:37:05.001Z</time></trkpt><trkpt lat="44.08098544799532" lon="12.188769296588648"><ele>79.0</ele><time>2026-04-12T07:37:06.001Z</time></trkpt><trkpt lat="44.08080694481341" lon="12.188848179652227"><ele>79.0</ele><time>2026-04-12T07:37:07.001Z</time></trkpt><trkpt lat="44.0806243951879" lon="12.188915303098407"><ele>79.0</ele><time>2026-04-12T07:37:08.001Z</time></trkpt><trkpt lat="44.08043578324522" lon="12.1889648003915"><ele>77.66666666666666</ele><time>2026-04-12T07:37:09.001Z</time></trkpt><trkpt lat="44.08024564753321" lon="12.189010224905271"><ele>76.33333333333333</ele><time>2026-04-12T07:37:10.001Z</time></trkpt><trkpt lat="44.08006582350038" lon="12.189035408488056"><ele>75.0</ele><time>2026-04-12T07:37:11.001Z</time></trkpt><trkpt lat="44.079885182258295" lon="12.189053870929696"><ele>74.66666666666667</ele><time>2026-04-12T07:37:12.001Z</time></trkpt><trkpt lat="44.07970068116015" lon="12.189048268537887"><ele>74.33333333333334</ele><time>2026-04-12T07:37:13.001Z</time></trkpt><trkpt lat="44.07952342372784" lon="12.189010956958084"><ele>74.0</ele><time>2026-04-12T07:37:14.001Z</time></trkpt><trkpt lat="44.07934790570353" lon="12.188939032101603"><ele>75.0</ele><time>2026-04-12T07:37:15.001Z</time></trkpt><trkpt lat="44.07916520143868" lon="12.188847688454851"><ele>76.0</ele><time>2026-04-12T07:37:16.001Z</time></trkpt><trkpt lat="44.07898770886212" lon="12.188739983955521"><ele>77.0</ele><time>2026-04-12T07:37:17.001Z</time></trkpt><trkpt lat="44.07880734361123" lon="12.188624177707036"><ele>77.0</ele><time>2026-04-12T07:37:18.001Z</time></trkpt><trkpt lat="44.07862975617955" lon="12.188514212148558"><ele>77.0</ele><time>2026-04-12T07:37:19.001Z</time></trkpt><trkpt lat="44.07845406533413" lon="12.188403673132834"><ele>77.0</ele><time>2026-04-12T07:37:20.001Z</time></trkpt><trkpt lat="44.078280962350334" lon="12.188292874611014"><ele>76.66666666666667</ele><time>2026-04-12T07:37:21.001Z</time></trkpt><trkpt lat="44.07811878726757" lon="12.188188225574123"><ele>76.33333333333333</ele><time>2026-04-12T07:37:22.001Z</time></trkpt><trkpt lat="44.07795398598081" lon="12.188092357487253"><ele>76.0</ele><time>2026-04-12T07:37:23.001Z</time></trkpt><trkpt lat="44.07779109245046" lon="12.1879965311038"><ele>76.0</ele><time>2026-04-12T07:37:24.001Z</time></trkpt><trkpt lat="44.07762711251794" lon="12.1878975275913"><ele>76.0</ele><time>2026-04-12T07:37:25.001Z</time></trkpt><trkpt lat="44.077460522689854" lon="12.187792180082456"><ele>76.0</ele><time>2026-04-12T07:37:26.001Z</time></trkpt><trkpt lat="44.077293167598185" lon="12.187679224045997"><ele>76.0</ele><time>2026-04-12T07:37:27.001Z</time></trkpt><trkpt lat="44.077123998172134" lon="12.187563640161184"><ele>76.0</ele><time>2026-04-12T07:37:28.001Z</time></trkpt><trkpt lat="44.07695431919766" lon="12.18744428139309"><ele>76.0</ele><time>2026-04-12T07:37:29.001Z</time></trkpt><trkpt lat="44.07677919297454" lon="12.187324640321775"><ele>77.0</ele><time>2026-04-12T07:37:30.001Z</time></trkpt><trkpt lat="44.076598785240165" lon="12.187209136883059"><ele>78.0</ele><time>2026-04-12T07:37:31.001Z</time></trkpt><trkpt lat="44.07641463102809" lon="12.187089694424872"><ele>79.0</ele><time>2026-04-12T07:37:32.001Z</time></trkpt><trkpt lat="44.076232230025916" lon="12.18697384235939"><ele>79.0</ele><time>2026-04-12T07:37:33.001Z</time></trkpt><trkpt lat="44.07605217798545" lon="12.186860659131998"><ele>79.0</ele><time>2026-04-12T07:37:34.001Z</time></trkpt><trkpt lat="44.07588162722071" lon="12.186722079788089"><ele>79.0</ele><time>2026-04-12T07:37:35.001Z</time></trkpt><trkpt lat="44.07569764507174" lon="12.186625658745957"><ele>80.66666666666666</ele><time>2026-04-12T07:37:36.001Z</time></trkpt><trkpt lat="44.0755251395603" lon="12.186510727980961"><ele>82.33333333333333</ele><time>2026-04-12T07:37:37.001Z</time></trkpt><trkpt lat="44.07535492957539" lon="12.186401817414247"><ele>84.0</ele><time>2026-04-12T07:37:38.001Z</time></trkpt><trkpt lat="44.07518449125103" lon="12.186293418921343"><ele>84.0</ele><time>2026-04-12T07:37:39.001Z</time></trkpt><trkpt lat="44.07501431029313" lon="12.186176523056421"><ele>84.0</ele><time>2026-04-12T07:37:40.001Z</time></trkpt><trkpt lat="44.07484632583424" lon="12.186040065603569"><ele>84.0</ele><time>2026-04-12T07:37:41.001Z</time></trkpt><trkpt lat="44.0746759271363" lon="12.185894937511863"><ele>84.33333333333333</ele><time>2026-04-12T07:37:42.001Z</time></trkpt><trkpt lat="44.07449832631416" lon="12.185748115709334"><ele>84.66666666666666</ele><time>2026-04-12T07:37:43.001Z</time></trkpt><trkpt lat="44.07431755058281" lon="12.185607991220735"><ele>85.0</ele><time>2026-04-12T07:37:44Z</time></trkpt><trkpt lat="44.074145863612536" lon="12.185472261370396"><ele>85.0</ele><time>2026-04-12T07:37:45Z</time></trkpt><trkpt lat="44.07395319092311" lon="12.185346603400886"><ele>85.0</ele><time>2026-04-12T07:37:46Z</time></trkpt><trkpt lat="44.073743921527225" lon="12.185240545344225"><ele>85.0</ele><time>2026-04-12T07:37:47Z</time></trkpt><trkpt lat="44.07352097117795" lon="12.185136898907604"><ele>85.0</ele><time>2026-04-12T07:37:48Z</time></trkpt><trkpt lat="44.07330706966796" lon="12.185019516936581"><ele>85.0</ele><time>2026-04-12T07:37:49Z</time></trkpt><trkpt lat="44.073109601062114" lon="12.184925969009814"><ele>85.0</ele><time>2026-04-12T07:37:50Z</time></trkpt><trkpt lat="44.072922757905786" lon="12.184836296913376"><ele>86.33333333333333</ele><time>2026-04-12T07:37:51Z</time></trkpt><trkpt lat="44.072740489449295" lon="12.184769393297865"><ele>87.66666666666667</ele><time>2026-04-12T07:37:52Z</time></trkpt><trkpt lat="44.072572111850924" lon="12.184677302825934"><ele>89.0</ele><time>2026-04-12T07:37:53Z</time></trkpt><trkpt lat="44.07239713485492" lon="12.184592173030744"><ele>89.0</ele><time>2026-04-12T07:37:54Z</time></trkpt><trkpt lat="44.07221881552854" lon="12.18450994459848"><ele>89.0</ele><time>2026-04-12T07:37:55Z</time></trkpt><trkpt lat="44.07203907720067" lon="12.184434519106267"><ele>89.0</ele><time>2026-04-12T07:37:56Z</time></trkpt><trkpt lat="44.07185114292903" lon="12.184377754413035"><ele>89.0</ele><time>2026-04-12T07:37:57Z</time></trkpt><trkpt lat="44.07165977111035" lon="12.184336892153244"><ele>89.0</ele><time>2026-04-12T07:37:58Z</time></trkpt><trkpt lat="44.07146603443038" lon="12.184298503073899"><ele>89.0</ele><time>2026-04-12T07:37:59Z</time></trkpt><trkpt lat="44.071270298715795" lon="12.184263001444982"><ele>88.33333333333334</ele><time>2026-04-12T07:38:00Z</time></trkpt><trkpt lat="44.07107536801341" lon="12.184220843221482"><ele>87.66666666666667</ele><time>2026-04-12T07:38:01Z</time></trkpt><trkpt lat="44.07087961184536" lon="12.184176065372943"><ele>87.0</ele><time>2026-04-12T07:38:02Z</time></trkpt><trkpt lat="44.07068110664783" lon="12.184133024092006"><ele>88.33333333333333</ele><time>2026-04-12T07:38:03Z</time></trkpt><trkpt lat="44.07048286802307" lon="12.184090406782246"><ele>89.66666666666666</ele><time>2026-04-12T07:38:04Z</time></trkpt><trkpt lat="44.07029421403162" lon="12.184046446746768"><ele>91.0</ele><time>2026-04-12T07:38:05Z</time></trkpt><trkpt lat="44.07011056571823" lon="12.184002734686182"><ele>90.33333333333333</ele><time>2026-04-12T07:38:06Z</time></trkpt><trkpt lat="44.0699384676955" lon="12.183966151329228"><ele>89.66666666666667</ele><time>2026-04-12T07:38:07Z</time></trkpt><trkpt lat="44.06977499153443" lon="12.183933890763244"><ele>89.0</ele><time>2026-04-12T07:38:08Z</time></trkpt><trkpt lat="44.06962173676119" lon="12.183900361836134"><ele>89.0</ele><time>2026-04-12T07:38:09Z</time></trkpt><trkpt lat="44.0694794059114" lon="12.183873762513587"><ele>89.0</ele><time>2026-04-12T07:38:10Z</time></trkpt><trkpt lat="44.06934686144696" lon="12.183873205855605"><ele>89.0</ele><time>2026-04-12T07:38:11Z</time></trkpt><trkpt lat="44.06921209484957" lon="12.183909768296928"><ele>89.0</ele><time>2026-04-12T07:38:12Z</time></trkpt><trkpt lat="44.06907781191045" lon="12.183960376853813"><ele>89.0</ele><time>2026-04-12T07:38:13Z</time></trkpt><trkpt lat="44.06893761335795" lon="12.184027633257298"><ele>89.0</ele><time>2026-04-12T07:38:14Z</time></trkpt><trkpt lat="44.06878497699092" lon="12.184083612895915"><ele>89.0</ele><time>2026-04-12T07:38:15Z</time></trkpt><trkpt lat="44.068640761818735" lon="12.184156745953976"><ele>89.0</ele><time>2026-04-12T07:38:16Z</time></trkpt><trkpt lat="44.068497849362444" lon="12.18423651085743"><ele>89.0</ele><time>2026-04-12T07:38:17Z</time></trkpt><trkpt lat="44.068376813380546" lon="12.184275558757793"><ele>89.0</ele><time>2026-04-12T07:38:18Z</time></trkpt><trkpt lat="44.06826100483788" lon="12.184293158237352"><ele>89.0</ele><time>2026-04-12T07:38:19Z</time></trkpt><trkpt lat="44.068152279010185" lon="12.184281709555515"><ele>89.0</ele><time>2026-04-12T07:38:20Z</time></trkpt><trkpt lat="44.0680338994649" lon="12.184239920488501"><ele>89.0</ele><time>2026-04-12T07:38:21Z</time></trkpt><trkpt lat="44.06791606441679" lon="12.184178555227158"><ele>89.0</ele><time>2026-04-12T07:38:22Z</time></trkpt><trkpt lat="44.06780375071881" lon="12.184109619225161"><ele>89.0</ele><time>2026-04-12T07:38:23Z</time></trkpt><trkpt lat="44.06769872756638" lon="12.18401259683997"><ele>88.80000000000001</ele><time>2026-04-12T07:38:24Z</time></trkpt><trkpt lat="44.067584248138054" lon="12.183927707595064"><ele>88.60000000000001</ele><time>2026-04-12T07:38:25Z</time></trkpt><trkpt lat="44.0674794760351" lon="12.183848350656435"><ele>88.4</ele><time>2026-04-12T07:38:26Z</time></trkpt><trkpt lat="44.06738859238671" lon="12.183777561796958"><ele>88.2</ele><time>2026-04-12T07:38:27Z</time></trkpt><trkpt lat="44.067306472614845" lon="12.183713903492086"><ele>88.0</ele><time>2026-04-12T07:38:28Z</time></trkpt><trkpt lat="44.06721910575892" lon="12.183646177662096"><ele>88.0</ele><time>2026-04-12T07:38:29Z</time></trkpt><trkpt lat="44.06711795482078" lon="12.183567766523945"><ele>88.0</ele><time>2026-04-12T07:38:30Z</time></trkpt><trkpt lat="44.06700357343072" lon="12.183496748765785"><ele>88.0</ele><time>2026-04-12T07:38:31Z</time></trkpt><trkpt lat="44.06689767018151" lon="12.183408502060715"><ele>88.0</ele><time>2026-04-12T07:38:32Z</time></trkpt><trkpt lat="44.066799505270716" lon="12.183323617599505"><ele>88.0</ele><time>2026-04-12T07:38:33Z</time></trkpt><trkpt lat="44.06670314862962" lon="12.18324174753118"><ele>88.0</ele><time>2026-04-12T07:38:34Z</time></trkpt><trkpt lat="44.06661391393793" lon="12.183159248217018"><ele>88.0</ele><time>2026-04-12T07:38:35Z</time></trkpt><trkpt lat="44.06652694583101" lon="12.183066920208658"><ele>88.0</ele><time>2026-04-12T07:38:36Z</time></trkpt><trkpt lat="44.06644136283153" lon="12.182966682951898"><ele>88.0</ele><time>2026-04-12T07:38:37Z</time></trkpt><trkpt lat="44.06635335113053" lon="12.18285418019927"><ele>87.0</ele><time>2026-04-12T07:38:38Z</time></trkpt><trkpt lat="44.06626454380071" lon="12.182731715440422"><ele>86.0</ele><time>2026-04-12T07:38:39Z</time></trkpt><trkpt lat="44.06617851916776" lon="12.182593362567786"><ele>85.0</ele><time>2026-04-12T07:38:40Z</time></trkpt><trkpt lat="44.06609417816692" lon="12.18244087742131"><ele>84.0</ele><time>2026-04-12T07:38:41Z</time></trkpt><trkpt lat="44.06601156410271" lon="12.182294719889885"><ele>84.0</ele><time>2026-04-12T07:38:42.001Z</time></trkpt><trkpt lat="44.065932666840524" lon="12.18215565082445"><ele>84.0</ele><time>2026-04-12T07:38:43.001Z</time></trkpt><trkpt lat="44.06584951200174" lon="12.182031720157763"><ele>84.0</ele><time>2026-04-12T07:38:44.001Z</time></trkpt><trkpt lat="44.065751745433836" lon="12.181933852847585"><ele>84.0</ele><time>2026-04-12T07:38:45.001Z</time></trkpt><trkpt lat="44.065629531162095" lon="12.181884464995068"><ele>84.25</ele><time>2026-04-12T07:38:46.001Z</time></trkpt><trkpt lat="44.065505328945" lon="12.181905046829847"><ele>84.5</ele><time>2026-04-12T07:38:47.001Z</time></trkpt><trkpt lat="44.06538774303418" lon="12.181997957146312"><ele>84.75</ele><time>2026-04-12T07:38:48.001Z</time></trkpt><trkpt lat="44.06526384295999" lon="12.182129706109935"><ele>85.0</ele><time>2026-04-12T07:38:49.001Z</time></trkpt><trkpt lat="44.06515229464507" lon="12.182252967789879"><ele>84.66666666666666</ele><time>2026-04-12T07:38:50.001Z</time></trkpt><trkpt lat="44.065051291102876" lon="12.182404114834785"><ele>84.33333333333333</ele><time>2026-04-12T07:38:51.001Z</time></trkpt><trkpt lat="44.064954817091454" lon="12.182581105665227"><ele>84.0</ele><time>2026-04-12T07:38:52.001Z</time></trkpt><trkpt lat="44.064856009901085" lon="12.182741855879692"><ele>85.5</ele><time>2026-04-12T07:38:53.001Z</time></trkpt><trkpt lat="44.06475892425825" lon="12.182860062333937"><ele>87.0</ele><time>2026-04-12T07:38:54.001Z</time></trkpt><trkpt lat="44.06464974877734" lon="12.182923899907445"><ele>88.5</ele><time>2026-04-12T07:38:55.001Z</time></trkpt><trkpt lat="44.064506351844486" lon="12.182947851461455"><ele>90.0</ele><time>2026-04-12T07:38:56.001Z</time></trkpt><trkpt lat="44.06434828063629" lon="12.18292848245747"><ele>90.0</ele><time>2026-04-12T07:38:57.001Z</time></trkpt><trkpt lat="44.064198751673935" lon="12.182885814523154"><ele>90.0</ele><time>2026-04-12T07:38:58.001Z</time></trkpt><trkpt lat="44.064052161807915" lon="12.18283405433387"><ele>90.0</ele><time>2026-04-12T07:38:59.001Z</time></trkpt><trkpt lat="44.06391106855505" lon="12.182773446333984"><ele>90.0</ele><time>2026-04-12T07:39:00.001Z</time></trkpt><trkpt lat="44.06377059484816" lon="12.182706740809659"><ele>90.0</ele><time>2026-04-12T07:39:01.001Z</time></trkpt><trkpt lat="44.06363132730626" lon="12.182639897232454"><ele>90.0</ele><time>2026-04-12T07:39:02.001Z</time></trkpt><trkpt lat="44.06348425733495" lon="12.182561427253841"><ele>90.0</ele><time>2026-04-12T07:39:03.001Z</time></trkpt><trkpt lat="44.06333961213726" lon="12.182483448920287"><ele>90.0</ele><time>2026-04-12T07:39:04.001Z</time></trkpt><trkpt lat="44.06319038031527" lon="12.182409712093946"><ele>90.0</ele><time>2026-04-12T07:39:05.001Z</time></trkpt><trkpt lat="44.06303603959753" lon="12.182329658692353"><ele>89.66666666666667</ele><time>2026-04-12T07:39:06.001Z</time></trkpt><trkpt lat="44.062880453582366" lon="12.182240953802346"><ele>89.33333333333334</ele><time>2026-04-12T07:39:07.001Z</time></trkpt><trkpt lat="44.06272378450737" lon="12.18215794262355"><ele>89.0</ele><time>2026-04-12T07:39:08.001Z</time></trkpt><trkpt lat="44.06256021324198" lon="12.182076381438247"><ele>89.0</ele><time>2026-04-12T07:39:09.001Z</time></trkpt><trkpt lat="44.0623998303652" lon="12.18198800498655"><ele>89.0</ele><time>2026-04-12T07:39:10.001Z</time></trkpt><trkpt lat="44.062234996871105" lon="12.181900219852992"><ele>89.0</ele><time>2026-04-12T07:39:11.001Z</time></trkpt><trkpt lat="44.06207161583627" lon="12.181812085981562"><ele>89.0</ele><time>2026-04-12T07:39:12.001Z</time></trkpt><trkpt lat="44.06190799245769" lon="12.181722748430115"><ele>89.0</ele><time>2026-04-12T07:39:13.001Z</time></trkpt><trkpt lat="44.061741245404896" lon="12.18163561890452"><ele>89.0</ele><time>2026-04-12T07:39:14.001Z</time></trkpt><trkpt lat="44.06157386903309" lon="12.181550934888365"><ele>90.0</ele><time>2026-04-12T07:39:15.001Z</time></trkpt><trkpt lat="44.061402744818004" lon="12.181469178853318"><ele>91.0</ele><time>2026-04-12T07:39:16.001Z</time></trkpt><trkpt lat="44.06123339431406" lon="12.181389920611892"><ele>92.0</ele><time>2026-04-12T07:39:17.001Z</time></trkpt><trkpt lat="44.06105949369831" lon="12.181314853151118"><ele>92.0</ele><time>2026-04-12T07:39:18.001Z</time></trkpt><trkpt lat="44.060884822110395" lon="12.181244638116514"><ele>92.0</ele><time>2026-04-12T07:39:19.001Z</time></trkpt><trkpt lat="44.06070526645945" lon="12.181183231927923"><ele>92.0</ele><time>2026-04-12T07:39:20.001Z</time></trkpt><trkpt lat="44.0605289481468" lon="12.18111903584859"><ele>92.33333333333334</ele><time>2026-04-12T07:39:21.001Z</time></trkpt><trkpt lat="44.06035317253904" lon="12.181059362296146"><ele>92.66666666666667</ele><time>2026-04-12T07:39:22.001Z</time></trkpt><trkpt lat="44.06017229172708" lon="12.181004317534333"><ele>93.0</ele><time>2026-04-12T07:39:23.001Z</time></trkpt><trkpt lat="44.05999618570422" lon="12.180951107058114"><ele>92.33333333333333</ele><time>2026-04-12T07:39:24.001Z</time></trkpt><trkpt lat="44.05982388602298" lon="12.180895975277295"><ele>91.66666666666666</ele><time>2026-04-12T07:39:25.001Z</time></trkpt><trkpt lat="44.0596438832812" lon="12.180850063011711"><ele>91.0</ele><time>2026-04-12T07:39:26.001Z</time></trkpt><trkpt lat="44.05946465189869" lon="12.180804197956977"><ele>91.0</ele><time>2026-04-12T07:39:27.001Z</time></trkpt><trkpt lat="44.05928668657497" lon="12.180760056947697"><ele>91.0</ele><time>2026-04-12T07:39:28.001Z</time></trkpt><trkpt lat="44.0591051874861" lon="12.180718210611591"><ele>91.0</ele><time>2026-04-12T07:39:29.001Z</time></trkpt><trkpt lat="44.05891308191524" lon="12.180674726136555"><ele>92.66666666666666</ele><time>2026-04-12T07:39:30.001Z</time></trkpt><trkpt lat="44.058700549827556" lon="12.180628992993393"><ele>94.33333333333333</ele><time>2026-04-12T07:39:31.001Z</time></trkpt><trkpt lat="44.05849635644705" lon="12.180589638759054"><ele>96.0</ele><time>2026-04-12T07:39:32.001Z</time></trkpt><trkpt lat="44.058303837297096" lon="12.180555356536596"><ele>95.66666666666667</ele><time>2026-04-12T07:39:33.001Z</time></trkpt><trkpt lat="44.05811166629849" lon="12.180526506992132"><ele>95.33333333333334</ele><time>2026-04-12T07:39:34.001Z</time></trkpt><trkpt lat="44.05793318114544" lon="12.18050238525916"><ele>95.0</ele><time>2026-04-12T07:39:35.001Z</time></trkpt><trkpt lat="44.05775276230538" lon="12.180472087468749"><ele>95.0</ele><time>2026-04-12T07:39:36.001Z</time></trkpt><trkpt lat="44.057576884199754" lon="12.180439637150627"><ele>95.0</ele><time>2026-04-12T07:39:37.001Z</time></trkpt><trkpt lat="44.05742844192102" lon="12.180414015923155"><ele>95.0</ele><time>2026-04-12T07:39:38.001Z</time></trkpt><trkpt lat="44.05728648935779" lon="12.180389981120362"><ele>92.33333333333334</ele><time>2026-04-12T07:39:39.001Z</time></trkpt><trkpt lat="44.05712913538682" lon="12.180368567667022"><ele>89.66666666666667</ele><time>2026-04-12T07:39:40.001Z</time></trkpt><trkpt lat="44.0569657652917" lon="12.180339195815488"><ele>87.0</ele><time>2026-04-12T07:39:41.001Z</time></trkpt><trkpt lat="44.05680091987419" lon="12.18030913635377"><ele>87.0</ele><time>2026-04-12T07:39:42.001Z</time></trkpt><trkpt lat="44.056632188176145" lon="12.180276381375576"><ele>87.0</ele><time>2026-04-12T07:39:43.001Z</time></trkpt><trkpt lat="44.05646539444949" lon="12.180233531931709"><ele>87.0</ele><time>2026-04-12T07:39:44.001Z</time></trkpt><trkpt lat="44.056293081399865" lon="12.180164071531827"><ele>84.66666666666667</ele><time>2026-04-12T07:39:45.001Z</time></trkpt><trkpt lat="44.056127172969724" lon="12.180082133072055"><ele>82.33333333333334</ele><time>2026-04-12T07:39:46.001Z</time></trkpt><trkpt lat="44.055973284058936" lon="12.17999903566125"><ele>80.0</ele><time>2026-04-12T07:39:47.001Z</time></trkpt><trkpt lat="44.0558211099266" lon="12.179918414046945"><ele>80.33333333333334</ele><time>2026-04-12T07:39:48.001Z</time></trkpt><trkpt lat="44.0556739250873" lon="12.179844903803867"><ele>80.66666666666667</ele><time>2026-04-12T07:39:49.001Z</time></trkpt><trkpt lat="44.05553273663012" lon="12.179774787505899"><ele>81.0</ele><time>2026-04-12T07:39:50Z</time></trkpt><trkpt lat="44.055395975400074" lon="12.17969969758014"><ele>81.0</ele><time>2026-04-12T07:39:51Z</time></trkpt><trkpt lat="44.0552716174687" lon="12.179613417985648"><ele>81.0</ele><time>2026-04-12T07:39:52Z</time></trkpt><trkpt lat="44.05515348114288" lon="12.179524983445914"><ele>81.0</ele><time>2026-04-12T07:39:53Z</time></trkpt><trkpt lat="44.05503783799475" lon="12.179441441202478"><ele>81.0</ele><time>2026-04-12T07:39:54Z</time></trkpt><trkpt lat="44.05492755106488" lon="12.179358477762143"><ele>80.39999999999999</ele><time>2026-04-12T07:39:55Z</time></trkpt><trkpt lat="44.05482091777655" lon="12.179271931898546"><ele>79.8</ele><time>2026-04-12T07:39:56Z</time></trkpt><trkpt lat="44.05472445222303" lon="12.179183438924088"><ele>79.19999999999999</ele><time>2026-04-12T07:39:57Z</time></trkpt><trkpt lat="44.05463422545266" lon="12.179098206707804"><ele>78.6</ele><time>2026-04-12T07:39:58Z</time></trkpt><trkpt lat="44.05454989490884" lon="12.179026094546384"><ele>78.0</ele><time>2026-04-12T07:39:59Z</time></trkpt><trkpt lat="44.05447071522138" lon="12.178957562658372"><ele>78.0</ele><time>2026-04-12T07:40:00Z</time></trkpt><trkpt lat="44.05438603311702" lon="12.178889784695528"><ele>78.0</ele><time>2026-04-12T07:40:01Z</time></trkpt><trkpt lat="44.05428286874923" lon="12.178805001012575"><ele>78.0</ele><time>2026-04-12T07:40:02Z</time></trkpt><trkpt lat="44.05418053979107" lon="12.178713944288619"><ele>78.0</ele><time>2026-04-12T07:40:03Z</time></trkpt><trkpt lat="44.0540733277912" lon="12.178622032224448"><ele>77.0</ele><time>2026-04-12T07:40:04Z</time></trkpt><trkpt lat="44.05396211842607" lon="12.178525183247206"><ele>76.0</ele><time>2026-04-12T07:40:05Z</time></trkpt><trkpt lat="44.05384870513103" lon="12.178430748309005"><ele>75.0</ele><time>2026-04-12T07:40:06Z</time></trkpt><trkpt lat="44.05374082378592" lon="12.17833733077599"><ele>74.0</ele><time>2026-04-12T07:40:07Z</time></trkpt><trkpt lat="44.05363441409341" lon="12.178248960095534"><ele>74.5</ele><time>2026-04-12T07:40:08Z</time></trkpt><trkpt lat="44.053518848909995" lon="12.17815726041502"><ele>75.0</ele><time>2026-04-12T07:40:09Z</time></trkpt><trkpt lat="44.05340782368492" lon="12.178064422622985"><ele>75.5</ele><time>2026-04-12T07:40:10Z</time></trkpt><trkpt lat="44.05330068245778" lon="12.177970932051243"><ele>76.0</ele><time>2026-04-12T07:40:11Z</time></trkpt><trkpt lat="44.05319873544596" lon="12.177886814434613"><ele>74.75</ele><time>2026-04-12T07:40:12Z</time></trkpt><trkpt lat="44.05310435699511" lon="12.177803939298753"><ele>73.5</ele><time>2026-04-12T07:40:13Z</time></trkpt><trkpt lat="44.053012985477615" lon="12.177720140962995"><ele>72.25</ele><time>2026-04-12T07:40:14Z</time></trkpt><trkpt lat="44.05290910814365" lon="12.177631432069663"><ele>71.0</ele><time>2026-04-12T07:40:15Z</time></trkpt><trkpt lat="44.05281419532374" lon="12.177536973802274"><ele>71.0</ele><time>2026-04-12T07:40:16Z</time></trkpt><trkpt lat="44.05273272587174" lon="12.177430281365144"><ele>71.0</ele><time>2026-04-12T07:40:17Z</time></trkpt><trkpt lat="44.052662154481126" lon="12.177325948297312"><ele>71.0</ele><time>2026-04-12T07:40:18Z</time></trkpt><trkpt lat="44.05259602743473" lon="12.177210216944763"><ele>71.0</ele><time>2026-04-12T07:40:19Z</time></trkpt><trkpt lat="44.052532387568654" lon="12.17708215082633"><ele>71.0</ele><time>2026-04-12T07:40:20Z</time></trkpt><trkpt lat="44.05246943406484" lon="12.176940722066762"><ele>71.0</ele><time>2026-04-12T07:40:21Z</time></trkpt><trkpt lat="44.052398464446306" lon="12.1768082012919"><ele>71.0</ele><time>2026-04-12T07:40:22Z</time></trkpt><trkpt lat="44.05232717465582" lon="12.176680785908362"><ele>71.0</ele><time>2026-04-12T07:40:23Z</time></trkpt><trkpt lat="44.05226360229456" lon="12.176557057090738"><ele>71.0</ele><time>2026-04-12T07:40:24Z</time></trkpt><trkpt lat="44.05219028402683" lon="12.176436665810902"><ele>71.2</ele><time>2026-04-12T07:40:25Z</time></trkpt><trkpt lat="44.05211566655" lon="12.176315500167394"><ele>71.39999999999999</ele><time>2026-04-12T07:40:26Z</time></trkpt><trkpt lat="44.052039541337656" lon="12.176198659124445"><ele>71.6</ele><time>2026-04-12T07:40:27Z</time></trkpt><trkpt lat="44.05196770578837" lon="12.176092538775746"><ele>71.8</ele><time>2026-04-12T07:40:28Z</time></trkpt><trkpt lat="44.05191801426335" lon="12.1759980327926"><ele>72.0</ele><time>2026-04-12T07:40:29Z</time></trkpt><trkpt lat="44.051877306581126" lon="12.175925578727645"><ele>72.0</ele><time>2026-04-12T07:40:30Z</time></trkpt><trkpt lat="44.051838869185104" lon="12.175850800247275"><ele>72.0</ele><time>2026-04-12T07:40:31Z</time></trkpt><trkpt lat="44.05179986064954" lon="12.175778808877489"><ele>72.0</ele><time>2026-04-12T07:40:32Z</time></trkpt><trkpt lat="44.05164586210461" lon="12.175833001179093"><ele>72.0</ele><time>2026-04-12T07:40:35Z</time></trkpt><trkpt lat="44.05158323519132" lon="12.17587251204958"><ele>72.0</ele><time>2026-04-12T07:40:36Z</time></trkpt><trkpt lat="44.051496925367395" lon="12.175889481862367"><ele>72.0</ele><time>2026-04-12T07:40:37Z</time></trkpt><trkpt lat="44.051401130470914" lon="12.175937579734056"><ele>71.8</ele><time>2026-04-12T07:40:38Z</time></trkpt><trkpt lat="44.05131310805755" lon="12.176009585960715"><ele>71.6</ele><time>2026-04-12T07:40:39Z</time></trkpt><trkpt lat="44.05123971338601" lon="12.176085271581568"><ele>71.39999999999999</ele><time>2026-04-12T07:40:40Z</time></trkpt><trkpt lat="44.051166814159714" lon="12.176178754469582"><ele>71.2</ele><time>2026-04-12T07:40:41.001Z</time></trkpt><trkpt lat="44.05109844553916" lon="12.176289617912888"><ele>71.0</ele><time>2026-04-12T07:40:42.001Z</time></trkpt><trkpt lat="44.05103651124468" lon="12.176417326106431"><ele>70.75</ele><time>2026-04-12T07:40:43.001Z</time></trkpt><trkpt lat="44.05097753157138" lon="12.176548839432009"><ele>70.5</ele><time>2026-04-12T07:40:44.001Z</time></trkpt><trkpt lat="44.05092958303827" lon="12.176695133621037"><ele>70.25</ele><time>2026-04-12T07:40:45.001Z</time></trkpt><trkpt lat="44.05088481708763" lon="12.176840806314763"><ele>70.0</ele><time>2026-04-12T07:40:46.001Z</time></trkpt><trkpt lat="44.05084013895565" lon="12.176983468112837"><ele>70.0</ele><time>2026-04-12T07:40:47.001Z</time></trkpt><trkpt lat="44.050796644341276" lon="12.177113748201116"><ele>70.0</ele><time>2026-04-12T07:40:48.001Z</time></trkpt><trkpt lat="44.05075137209947" lon="12.177222437362474"><ele>70.0</ele><time>2026-04-12T07:40:49.001Z</time></trkpt><trkpt lat="44.05069119796326" lon="12.177318209790926"><ele>70.0</ele><time>2026-04-12T07:40:50.001Z</time></trkpt><trkpt lat="44.05060125679567" lon="12.177401299568437"><ele>70.0</ele><time>2026-04-12T07:40:51.001Z</time></trkpt><trkpt lat="44.050500636039224" lon="12.177471336226494"><ele>70.8</ele><time>2026-04-12T07:40:52.001Z</time></trkpt><trkpt lat="44.0504124127991" lon="12.177553291381708"><ele>71.6</ele><time>2026-04-12T07:40:53.001Z</time></trkpt><trkpt lat="44.05030250096382" lon="12.177581809025096"><ele>72.4</ele><time>2026-04-12T07:40:54.001Z</time></trkpt><trkpt lat="44.050208330708955" lon="12.177646533110831"><ele>73.2</ele><time>2026-04-12T07:40:55.001Z</time></trkpt><trkpt lat="44.05009949098426" lon="12.177706949122014"><ele>74.0</ele><time>2026-04-12T07:40:56.001Z</time></trkpt><trkpt lat="44.04999007606564" lon="12.177762509670249"><ele>74.25</ele><time>2026-04-12T07:40:57.001Z</time></trkpt><trkpt lat="44.04987889065926" lon="12.17780613360936"><ele>74.5</ele><time>2026-04-12T07:40:58.001Z</time></trkpt><trkpt lat="44.04976649161971" lon="12.177849163820857"><ele>74.75</ele><time>2026-04-12T07:40:59.001Z</time></trkpt><trkpt lat="44.049660800974806" lon="12.17790309292956"><ele>75.0</ele><time>2026-04-12T07:41:00.001Z</time></trkpt><trkpt lat="44.04955431013143" lon="12.17795422034459"><ele>75.0</ele><time>2026-04-12T07:41:01.001Z</time></trkpt><trkpt lat="44.049441234655724" lon="12.178007897172632"><ele>75.0</ele><time>2026-04-12T07:41:02.001Z</time></trkpt><trkpt lat="44.04932334481818" lon="12.178070870641704"><ele>75.0</ele><time>2026-04-12T07:41:03.001Z</time></trkpt><trkpt lat="44.04920247647695" lon="12.178132788555585"><ele>75.0</ele><time>2026-04-12T07:41:04.001Z</time></trkpt><trkpt lat="44.049078714484935" lon="12.178180808701736"><ele>76.25</ele><time>2026-04-12T07:41:05.001Z</time></trkpt><trkpt lat="44.04895597004864" lon="12.178223487114245"><ele>77.5</ele><time>2026-04-12T07:41:06.001Z</time></trkpt><trkpt lat="44.04883319429147" lon="12.178272606998064"><ele>78.75</ele><time>2026-04-12T07:41:07.001Z</time></trkpt><trkpt lat="44.04870803927356" lon="12.17834018413674"><ele>80.0</ele><time>2026-04-12T07:41:08.001Z</time></trkpt><trkpt lat="44.04855524573779" lon="12.178418011634127"><ele>80.0</ele><time>2026-04-12T07:41:09.001Z</time></trkpt><trkpt lat="44.04840605859339" lon="12.178497477515593"><ele>80.0</ele><time>2026-04-12T07:41:10.001Z</time></trkpt><trkpt lat="44.048274329402574" lon="12.178575582671382"><ele>80.0</ele><time>2026-04-12T07:41:11.001Z</time></trkpt><trkpt lat="44.048156252763334" lon="12.178647836724991"><ele>80.0</ele><time>2026-04-12T07:41:12.001Z</time></trkpt><trkpt lat="44.048043591773215" lon="12.178710684960349"><ele>81.0</ele><time>2026-04-12T07:41:13.001Z</time></trkpt><trkpt lat="44.0479223255343" lon="12.178779319531957"><ele>82.0</ele><time>2026-04-12T07:41:14.001Z</time></trkpt><trkpt lat="44.047795914501435" lon="12.17885058695794"><ele>83.0</ele><time>2026-04-12T07:41:15.001Z</time></trkpt><trkpt lat="44.04766847854589" lon="12.178909392239948"><ele>84.0</ele><time>2026-04-12T07:41:16.001Z</time></trkpt><trkpt lat="44.047557033382965" lon="12.178944469245907"><ele>87.4</ele><time>2026-04-12T07:41:17.001Z</time></trkpt><trkpt lat="44.047437546965185" lon="12.178949787664886"><ele>90.80000000000001</ele><time>2026-04-12T07:41:18.001Z</time></trkpt><trkpt lat="44.04733461379375" lon="12.178912589521044"><ele>94.19999999999999</ele><time>2026-04-12T07:41:19.001Z</time></trkpt><trkpt lat="44.047249438825595" lon="12.178846908760123"><ele>97.6</ele><time>2026-04-12T07:41:20.001Z</time></trkpt><trkpt lat="44.04718849950043" lon="12.178718206946138"><ele>101.0</ele><time>2026-04-12T07:41:21.001Z</time></trkpt><trkpt lat="44.04711924857961" lon="12.178579428592395"><ele>101.0</ele><time>2026-04-12T07:41:22.001Z</time></trkpt><trkpt lat="44.04707100913175" lon="12.17846072791789"><ele>101.0</ele><time>2026-04-12T07:41:23.001Z</time></trkpt><trkpt lat="44.04702206872376" lon="12.178386328294577"><ele>101.0</ele><time>2026-04-12T07:41:24.001Z</time></trkpt><trkpt lat="44.04691817504173" lon="12.178325742627745"><ele>101.0</ele><time>2026-04-12T07:41:26.001Z</time></trkpt><trkpt lat="44.046824637097956" lon="12.178491470593352"><ele>101.0</ele><time>2026-04-12T07:41:28.001Z</time></trkpt><trkpt lat="44.04681274568586" lon="12.178632409802026"><ele>101.0</ele><time>2026-04-12T07:41:29.001Z</time></trkpt><trkpt lat="44.04681673557634" lon="12.178790917738391"><ele>101.0</ele><time>2026-04-12T07:41:30.001Z</time></trkpt><trkpt lat="44.0468244907333" lon="12.17895393307162"><ele>101.0</ele><time>2026-04-12T07:41:31.001Z</time></trkpt><trkpt lat="44.04683859034899" lon="12.179097527726412"><ele>101.0</ele><time>2026-04-12T07:41:32.001Z</time></trkpt><trkpt lat="44.04683800429262" lon="12.179216557603745"><ele>101.0</ele><time>2026-04-12T07:41:33.001Z</time></trkpt><trkpt lat="44.04682459597679" lon="12.179326357565635"><ele>100.71428571428571</ele><time>2026-04-12T07:41:34.001Z</time></trkpt><trkpt lat="44.0467877205874" lon="12.17942988788156"><ele>100.42857142857142</ele><time>2026-04-12T07:41:35.001Z</time></trkpt><trkpt lat="44.046742400381724" lon="12.179509214902746"><ele>100.14285714285714</ele><time>2026-04-12T07:41:36.001Z</time></trkpt><trkpt lat="44.04669034415862" lon="12.179577287728984"><ele>99.85714285714286</ele><time>2026-04-12T07:41:37.001Z</time></trkpt><trkpt lat="44.04662931800266" lon="12.17964894188525"><ele>99.57142857142857</ele><time>2026-04-12T07:41:38.001Z</time></trkpt><trkpt lat="44.046577138498144" lon="12.179710452105024"><ele>99.28571428571429</ele><time>2026-04-12T07:41:39.001Z</time></trkpt><trkpt lat="44.046504542468995" lon="12.179698793525858"><ele>99.0</ele><time>2026-04-12T07:41:42.001Z</time></trkpt><trkpt lat="44.0465129973163" lon="12.179556835514921"><ele>100.4</ele><time>2026-04-12T07:41:43.001Z</time></trkpt><trkpt lat="44.046520318511035" lon="12.179429516343633"><ele>101.80000000000001</ele><time>2026-04-12T07:41:44.001Z</time></trkpt><trkpt lat="44.04655366775645" lon="12.179288273770094"><ele>103.19999999999999</ele><time>2026-04-12T07:41:45.001Z</time></trkpt><trkpt lat="44.046548830241996" lon="12.179158434737653"><ele>104.6</ele><time>2026-04-12T07:41:46.001Z</time></trkpt><trkpt lat="44.04655678187859" lon="12.179039128655328"><ele>106.0</ele><time>2026-04-12T07:41:47.001Z</time></trkpt><trkpt lat="44.04655880910545" lon="12.178897963414329"><ele>108.4</ele><time>2026-04-12T07:41:48.001Z</time></trkpt><trkpt lat="44.046510041463954" lon="12.178758398923339"><ele>110.8</ele><time>2026-04-12T07:41:49.001Z</time></trkpt><trkpt lat="44.04647199381946" lon="12.17862335386412"><ele>113.20000000000002</ele><time>2026-04-12T07:41:50.001Z</time></trkpt><trkpt lat="44.046435664280885" lon="12.178477952001595"><ele>115.60000000000001</ele><time>2026-04-12T07:41:51.001Z</time></trkpt><trkpt lat="44.04641452403994" lon="12.178335927508664"><ele>118.0</ele><time>2026-04-12T07:41:52.001Z</time></trkpt><trkpt lat="44.04640189029676" lon="12.178221351211294"><ele>118.00000000000001</ele><time>2026-04-12T07:41:53.001Z</time></trkpt><trkpt lat="44.04635367507467" lon="12.178094412233417"><ele>118.0</ele><time>2026-04-12T07:41:55.001Z</time></trkpt><trkpt lat="44.04624933745684" lon="12.178076770082058"><ele>118.0</ele><time>2026-04-12T07:41:57Z</time></trkpt><trkpt lat="44.04619904292162" lon="12.17814015283862"><ele>118.0</ele><time>2026-04-12T07:41:58Z</time></trkpt><trkpt lat="44.046156751486585" lon="12.178232341343497"><ele>118.00000000000001</ele><time>2026-04-12T07:41:59Z</time></trkpt><trkpt lat="44.04609975117765" lon="12.178304676413477"><ele>118.0</ele><time>2026-04-12T07:42:00Z</time></trkpt><trkpt lat="44.046019552602154" lon="12.178334127645494"><ele>118.0</ele><time>2026-04-12T07:42:02Z</time></trkpt><trkpt lat="44.04596142522726" lon="12.178202310784904"><ele>118.00000000000001</ele><time>2026-04-12T07:42:04Z</time></trkpt><trkpt lat="44.045993126947984" lon="12.178064042551116"><ele>118.00000000000001</ele><time>2026-04-12T07:42:05Z</time></trkpt><trkpt lat="44.04598765030155" lon="12.177917130080361"><ele>118.0</ele><time>2026-04-12T07:42:06Z</time></trkpt><trkpt lat="44.04598629218484" lon="12.177746531737526"><ele>118.0</ele><time>2026-04-12T07:42:07Z</time></trkpt><trkpt lat="44.045992453087244" lon="12.177574496139334"><ele>120.0</ele><time>2026-04-12T07:42:08Z</time></trkpt><trkpt lat="44.04600236580618" lon="12.17741652848979"><ele>122.0</ele><time>2026-04-12T07:42:09Z</time></trkpt><trkpt lat="44.04600084411954" lon="12.177253691156327"><ele>124.0</ele><time>2026-04-12T07:42:10Z</time></trkpt><trkpt lat="44.04596118600713" lon="12.177098230566402"><ele>126.0</ele><time>2026-04-12T07:42:11Z</time></trkpt><trkpt lat="44.0459249352439" lon="12.176937784478957"><ele>126.33333333333333</ele><time>2026-04-12T07:42:12Z</time></trkpt><trkpt lat="44.04588624268027" lon="12.176814940558685"><ele>126.66666666666666</ele><time>2026-04-12T07:42:13Z</time></trkpt><trkpt lat="44.0458489220626" lon="12.176726446149344"><ele>127.0</ele><time>2026-04-12T07:42:14Z</time></trkpt><trkpt lat="44.0457737782445" lon="12.176671127445662"><ele>127.33333333333333</ele><time>2026-04-12T07:42:16Z</time></trkpt><trkpt lat="44.04570475993965" lon="12.176780297472826"><ele>127.66666666666666</ele><time>2026-04-12T07:42:18Z</time></trkpt><trkpt lat="44.045728746546445" lon="12.176885189839368"><ele>128.0</ele><time>2026-04-12T07:42:19Z</time></trkpt><trkpt lat="44.0457754347427" lon="12.177002713248017"><ele>130.66666666666666</ele><time>2026-04-12T07:42:20Z</time></trkpt><trkpt lat="44.04578379924707" lon="12.177126341736988"><ele>133.33333333333331</ele><time>2026-04-12T07:42:21Z</time></trkpt><trkpt lat="44.04575737415273" lon="12.17724527416412"><ele>136.0</ele><time>2026-04-12T07:42:22Z</time></trkpt><trkpt lat="44.04571485051927" lon="12.177348792753918"><ele>138.66666666666666</ele><time>2026-04-12T07:42:23Z</time></trkpt><trkpt lat="44.04565233732415" lon="12.177432673885905"><ele>141.33333333333334</ele><time>2026-04-12T07:42:24Z</time></trkpt><trkpt lat="44.04557870599407" lon="12.17750267758767"><ele>144.0</ele><time>2026-04-12T07:42:25Z</time></trkpt><trkpt lat="44.045482470413035" lon="12.177510769789654"><ele>144.0</ele><time>2026-04-12T07:42:26Z</time></trkpt><trkpt lat="44.04539514549456" lon="12.177528646175514"><ele>144.0</ele><time>2026-04-12T07:42:27Z</time></trkpt><trkpt lat="44.04530148866305" lon="12.177535490620748"><ele>144.0</ele><time>2026-04-12T07:42:28Z</time></trkpt><trkpt lat="44.04517998693252" lon="12.177535043247635"><ele>144.0</ele><time>2026-04-12T07:42:29Z</time></trkpt><trkpt lat="44.04505187532468" lon="12.177524429489429"><ele>144.0</ele><time>2026-04-12T07:42:30Z</time></trkpt><trkpt lat="44.04492296188964" lon="12.177515024871434"><ele>143.8</ele><time>2026-04-12T07:42:31Z</time></trkpt><trkpt lat="44.04481963569114" lon="12.177504179839348"><ele>143.60000000000002</ele><time>2026-04-12T07:42:32Z</time></trkpt><trkpt lat="44.044736053212944" lon="12.177488329353775"><ele>143.4</ele><time>2026-04-12T07:42:33Z</time></trkpt><trkpt lat="44.04466790822163" lon="12.177472315299456"><ele>143.20000000000002</ele><time>2026-04-12T07:42:34Z</time></trkpt><trkpt lat="44.04461495337132" lon="12.17737806019684"><ele>143.0</ele><time>2026-04-12T07:42:36Z</time></trkpt><trkpt lat="44.04469610280158" lon="12.177257065438628"><ele>146.60000000000002</ele><time>2026-04-12T07:42:38Z</time></trkpt><trkpt lat="44.044773475654324" lon="12.177265089972952"><ele>150.20000000000002</ele><time>2026-04-12T07:42:39Z</time></trkpt><trkpt lat="44.04486771040992" lon="12.177285992590445"><ele>153.8</ele><time>2026-04-12T07:42:40Z</time></trkpt><trkpt lat="44.04497050751566" lon="12.17731554151064"><ele>157.4</ele><time>2026-04-12T07:42:41Z</time></trkpt><trkpt lat="44.04506139908629" lon="12.17731185059642"><ele>161.0</ele><time>2026-04-12T07:42:42Z</time></trkpt><trkpt lat="44.04514814753745" lon="12.17728522726737"><ele>161.0</ele><time>2026-04-12T07:42:43Z</time></trkpt><trkpt lat="44.045232037653456" lon="12.177223912468593"><ele>161.0</ele><time>2026-04-12T07:42:44Z</time></trkpt><trkpt lat="44.045299634567456" lon="12.177136107436937"><ele>161.0</ele><time>2026-04-12T07:42:45Z</time></trkpt><trkpt lat="44.04533907832864" lon="12.17702507565549"><ele>161.0</ele><time>2026-04-12T07:42:46Z</time></trkpt><trkpt lat="44.04535511883509" lon="12.176914350311268"><ele>161.0</ele><time>2026-04-12T07:42:47Z</time></trkpt><trkpt lat="44.045339142861984" lon="12.176804095557758"><ele>161.0</ele><time>2026-04-12T07:42:48Z</time></trkpt><trkpt lat="44.045320659425684" lon="12.176693087814071"><ele>161.0</ele><time>2026-04-12T07:42:49Z</time></trkpt><trkpt lat="44.04528428722971" lon="12.176580851384657"><ele>161.0</ele><time>2026-04-12T07:42:50Z</time></trkpt><trkpt lat="44.04523918434974" lon="12.176474156431322"><ele>161.0</ele><time>2026-04-12T07:42:51Z</time></trkpt><trkpt lat="44.045185510011635" lon="12.176370846546398"><ele>161.0</ele><time>2026-04-12T07:42:52Z</time></trkpt><trkpt lat="44.04512133319976" lon="12.176271235364595"><ele>161.0</ele><time>2026-04-12T07:42:53Z</time></trkpt><trkpt lat="44.0450396997953" lon="12.176182397485148"><ele>162.0</ele><time>2026-04-12T07:42:54Z</time></trkpt><trkpt lat="44.044945465125515" lon="12.176102622818187"><ele>163.0</ele><time>2026-04-12T07:42:55Z</time></trkpt><trkpt lat="44.044853960103204" lon="12.176048851641072"><ele>164.0</ele><time>2026-04-12T07:42:56Z</time></trkpt><trkpt lat="44.04474792267849" lon="12.176007797933558"><ele>165.0</ele><time>2026-04-12T07:42:57Z</time></trkpt><trkpt lat="44.04464041735782" lon="12.175976569567855"><ele>166.0</ele><time>2026-04-12T07:42:58Z</time></trkpt><trkpt lat="44.0445386214907" lon="12.1759475889122"><ele>166.0</ele><time>2026-04-12T07:42:59Z</time></trkpt><trkpt lat="44.044434225148855" lon="12.175914284993288"><ele>166.0</ele><time>2026-04-12T07:43:00Z</time></trkpt><trkpt lat="44.04433201320291" lon="12.175862824768023"><ele>166.0</ele><time>2026-04-12T07:43:01.001Z</time></trkpt><trkpt lat="44.04423520321802" lon="12.175792434417446"><ele>166.0</ele><time>2026-04-12T07:43:02.001Z</time></trkpt><trkpt lat="44.044136130192385" lon="12.175715931445088"><ele>166.0</ele><time>2026-04-12T07:43:03.001Z</time></trkpt><trkpt lat="44.044029997262975" lon="12.175654385821236"><ele>170.25</ele><time>2026-04-12T07:43:04.001Z</time></trkpt><trkpt lat="44.043931957821854" lon="12.175580852555226"><ele>174.5</ele><time>2026-04-12T07:43:05.001Z</time></trkpt><trkpt lat="44.043841062599334" lon="12.175474967034612"><ele>178.75</ele><time>2026-04-12T07:43:06.001Z</time></trkpt><trkpt lat="44.043747191216546" lon="12.175343922453859"><ele>183.0</ele><time>2026-04-12T07:43:07.001Z</time></trkpt><trkpt lat="44.04366309165358" lon="12.175225136188354"><ele>183.0</ele><time>2026-04-12T07:43:08.001Z</time></trkpt><trkpt lat="44.043583136577276" lon="12.175097180036984"><ele>183.0</ele><time>2026-04-12T07:43:09.001Z</time></trkpt><trkpt lat="44.04350593186645" lon="12.174946787834637"><ele>183.0</ele><time>2026-04-12T07:43:10.001Z</time></trkpt><trkpt lat="44.04343075320065" lon="12.17481090325157"><ele>183.0</ele><time>2026-04-12T07:43:11.001Z</time></trkpt><trkpt lat="44.043385759476344" lon="12.174715454805835"><ele>183.2</ele><time>2026-04-12T07:43:12.001Z</time></trkpt><trkpt lat="44.043336821635556" lon="12.17462940876715"><ele>183.4</ele><time>2026-04-12T07:43:13.001Z</time></trkpt><trkpt lat="44.043279468933505" lon="12.174571226112459"><ele>183.6</ele><time>2026-04-12T07:43:14.001Z</time></trkpt><trkpt lat="44.04319594033727" lon="12.1745319225626"><ele>183.79999999999998</ele><time>2026-04-12T07:43:15.001Z</time></trkpt><trkpt lat="44.0430893024378" lon="12.17450830638659"><ele>184.0</ele><time>2026-04-12T07:43:16.001Z</time></trkpt><trkpt lat="44.042974821004556" lon="12.174493479469223"><ele>184.0</ele><time>2026-04-12T07:43:17.001Z</time></trkpt><trkpt lat="44.04285237498962" lon="12.174487474738498"><ele>184.0</ele><time>2026-04-12T07:43:18.001Z</time></trkpt><trkpt lat="44.04273540190426" lon="12.174489755725658"><ele>184.0</ele><time>2026-04-12T07:43:19.001Z</time></trkpt><trkpt lat="44.04262652117775" lon="12.174480532597855"><ele>184.0</ele><time>2026-04-12T07:43:20.001Z</time></trkpt><trkpt lat="44.04252179819063" lon="12.174469668815968"><ele>187.39999999999998</ele><time>2026-04-12T07:43:21.001Z</time></trkpt><trkpt lat="44.04242846219914" lon="12.17446340400815"><ele>190.8</ele><time>2026-04-12T07:43:22.001Z</time></trkpt><trkpt lat="44.04233487440313" lon="12.174460223018105"><ele>194.2</ele><time>2026-04-12T07:43:23.001Z</time></trkpt><trkpt lat="44.042241916293634" lon="12.174465896720058"><ele>197.60000000000002</ele><time>2026-04-12T07:43:24.001Z</time></trkpt><trkpt lat="44.042148342499644" lon="12.174492380005077"><ele>201.0</ele><time>2026-04-12T07:43:25.001Z</time></trkpt><trkpt lat="44.04205114499252" lon="12.174532030828326"><ele>201.0</ele><time>2026-04-12T07:43:26.001Z</time></trkpt><trkpt lat="44.04195135280448" lon="12.174587582224941"><ele>201.0</ele><time>2026-04-12T07:43:27.001Z</time></trkpt><trkpt lat="44.04184191167818" lon="12.174656030209071"><ele>201.0</ele><time>2026-04-12T07:43:28.001Z</time></trkpt><trkpt lat="44.04173599913012" lon="12.174741814714858"><ele>201.0</ele><time>2026-04-12T07:43:29.001Z</time></trkpt><trkpt lat="44.04163302871065" lon="12.174835894034645"><ele>200.8</ele><time>2026-04-12T07:43:30.001Z</time></trkpt><trkpt lat="44.041530939447654" lon="12.174899408127168"><ele>200.60000000000002</ele><time>2026-04-12T07:43:31.001Z</time></trkpt><trkpt lat="44.04145569355759" lon="12.174954504020604"><ele>200.4</ele><time>2026-04-12T07:43:32.001Z</time></trkpt><trkpt lat="44.041371209620145" lon="12.175001103160328"><ele>200.2</ele><time>2026-04-12T07:43:33.001Z</time></trkpt><trkpt lat="44.04128901892084" lon="12.175027888580049"><ele>200.0</ele><time>2026-04-12T07:43:34.001Z</time></trkpt><trkpt lat="44.04119801813451" lon="12.175029887281804"><ele>200.0</ele><time>2026-04-12T07:43:35.001Z</time></trkpt><trkpt lat="44.04109522256575" lon="12.175018059697997"><ele>200.0</ele><time>2026-04-12T07:43:36.001Z</time></trkpt><trkpt lat="44.04098415611445" lon="12.17499420606521"><ele>200.0</ele><time>2026-04-12T07:43:37.001Z</time></trkpt><trkpt lat="44.040867390014164" lon="12.174973420621715"><ele>200.0</ele><time>2026-04-12T07:43:38.001Z</time></trkpt><trkpt lat="44.04075003025046" lon="12.174953256520192"><ele>202.0</ele><time>2026-04-12T07:43:39.001Z</time></trkpt><trkpt lat="44.04062896329676" lon="12.174932632391384"><ele>204.0</ele><time>2026-04-12T07:43:40.001Z</time></trkpt><trkpt lat="44.04051142784238" lon="12.174891312723025"><ele>206.0</ele><time>2026-04-12T07:43:41.001Z</time></trkpt><trkpt lat="44.04039570354103" lon="12.174896621235282"><ele>208.0</ele><time>2026-04-12T07:43:42.001Z</time></trkpt><trkpt lat="44.04029800887103" lon="12.174869876134855"><ele>209.0</ele><time>2026-04-12T07:43:43.001Z</time></trkpt><trkpt lat="44.04020780841259" lon="12.174845530747108"><ele>210.0</ele><time>2026-04-12T07:43:44.001Z</time></trkpt><trkpt lat="44.04011563344235" lon="12.174790146971835"><ele>211.0</ele><time>2026-04-12T07:43:45.001Z</time></trkpt><trkpt lat="44.04002196474013" lon="12.174710615662883"><ele>212.0</ele><time>2026-04-12T07:43:46.001Z</time></trkpt><trkpt lat="44.03992346455976" lon="12.174616302055783"><ele>213.0</ele><time>2026-04-12T07:43:47.001Z</time></trkpt><trkpt lat="44.03982076297941" lon="12.174514730564937"><ele>213.5</ele><time>2026-04-12T07:43:48.001Z</time></trkpt><trkpt lat="44.03971537999329" lon="12.174417686692106"><ele>214.0</ele><time>2026-04-12T07:43:49.001Z</time></trkpt><trkpt lat="44.039612606625326" lon="12.17432568165724"><ele>214.5</ele><time>2026-04-12T07:43:50.001Z</time></trkpt><trkpt lat="44.03951652208493" lon="12.17422263737186"><ele>215.0</ele><time>2026-04-12T07:43:51.001Z</time></trkpt><trkpt lat="44.03944743048928" lon="12.17410791396242"><ele>215.0</ele><time>2026-04-12T07:43:52.001Z</time></trkpt><trkpt lat="44.03937348512806" lon="12.174033325421759"><ele>215.0</ele><time>2026-04-12T07:43:53.001Z</time></trkpt><trkpt lat="44.03931604218572" lon="12.173941638596448"><ele>215.0</ele><time>2026-04-12T07:43:54.001Z</time></trkpt><trkpt lat="44.039241400689576" lon="12.173840709979292"><ele>215.0</ele><time>2026-04-12T07:43:55.001Z</time></trkpt><trkpt lat="44.03916314322557" lon="12.173735625070321"><ele>215.0</ele><time>2026-04-12T07:43:56.001Z</time></trkpt><trkpt lat="44.03908710789717" lon="12.17363488573668"><ele>214.6</ele><time>2026-04-12T07:43:57.001Z</time></trkpt><trkpt lat="44.03902423568594" lon="12.173538309935221"><ele>214.2</ele><time>2026-04-12T07:43:58.001Z</time></trkpt><trkpt lat="44.0389356168891" lon="12.17346596732036"><ele>213.8</ele><time>2026-04-12T07:43:59.001Z</time></trkpt><trkpt lat="44.03883904357761" lon="12.173394990954971"><ele>213.4</ele><time>2026-04-12T07:44:00.001Z</time></trkpt><trkpt lat="44.03873580096016" lon="12.1733444258842"><ele>213.0</ele><time>2026-04-12T07:44:01.001Z</time></trkpt><trkpt lat="44.03862291153911" lon="12.173312950926283"><ele>213.0</ele><time>2026-04-12T07:44:02Z</time></trkpt><trkpt lat="44.038497874835784" lon="12.173305093772905"><ele>213.0</ele><time>2026-04-12T07:44:03Z</time></trkpt><trkpt lat="44.03836700335976" lon="12.173312348777193"><ele>213.0</ele><time>2026-04-12T07:44:04Z</time></trkpt><trkpt lat="44.038232668434176" lon="12.173332728706578"><ele>213.0</ele><time>2026-04-12T07:44:05Z</time></trkpt><trkpt lat="44.038108364596205" lon="12.173345522147299"><ele>215.0</ele><time>2026-04-12T07:44:06Z</time></trkpt><trkpt lat="44.03798762943444" lon="12.17334521945082"><ele>217.0</ele><time>2026-04-12T07:44:07Z</time></trkpt><trkpt lat="44.03786838989546" lon="12.17333973118833"><ele>219.0</ele><time>2026-04-12T07:44:08Z</time></trkpt><trkpt lat="44.037755555667395" lon="12.173327802543557"><ele>221.0</ele><time>2026-04-12T07:44:09Z</time></trkpt><trkpt lat="44.037658518002175" lon="12.173305390487231"><ele>221.0</ele><time>2026-04-12T07:44:10Z</time></trkpt><trkpt lat="44.03757777727128" lon="12.173281000204241"><ele>221.00000000000003</ele><time>2026-04-12T07:44:11Z</time></trkpt><trkpt lat="44.037506913827606" lon="12.173211706347335"><ele>221.00000000000003</ele><time>2026-04-12T07:44:12Z</time></trkpt><trkpt lat="44.03741553723453" lon="12.173158738365265"><ele>221.0</ele><time>2026-04-12T07:44:13Z</time></trkpt><trkpt lat="44.03732333009562" lon="12.173062882407635"><ele>221.0</ele><time>2026-04-12T07:44:14Z</time></trkpt><trkpt lat="44.0372340283263" lon="12.172974460263962"><ele>223.4</ele><time>2026-04-12T07:44:15Z</time></trkpt><trkpt lat="44.0371421538637" lon="12.172916224934795"><ele>225.8</ele><time>2026-04-12T07:44:16Z</time></trkpt><trkpt lat="44.0370356083281" lon="12.172878417738694"><ele>228.20000000000002</ele><time>2026-04-12T07:44:17Z</time></trkpt><trkpt lat="44.036935776470614" lon="12.172861319340106"><ele>230.60000000000002</ele><time>2026-04-12T07:44:18Z</time></trkpt><trkpt lat="44.03684805734069" lon="12.172858206555823"><ele>233.0</ele><time>2026-04-12T07:44:19Z</time></trkpt><trkpt lat="44.03677590279205" lon="12.17283035165676"><ele>233.0</ele><time>2026-04-12T07:44:20Z</time></trkpt><trkpt lat="44.03672705917713" lon="12.172729166816483"><ele>233.0</ele><time>2026-04-12T07:44:21Z</time></trkpt><trkpt lat="44.03667218398198" lon="12.172616750780113"><ele>233.0</ele><time>2026-04-12T07:44:22Z</time></trkpt><trkpt lat="44.036615041828064" lon="12.17249106217146"><ele>233.0</ele><time>2026-04-12T07:44:23Z</time></trkpt><trkpt lat="44.03656150175868" lon="12.172372835642"><ele>233.0</ele><time>2026-04-12T07:44:24Z</time></trkpt><trkpt lat="44.03652396702659" lon="12.172294512767722"><ele>233.2</ele><time>2026-04-12T07:44:25Z</time></trkpt><trkpt lat="44.0364211000439" lon="12.172204291564302"><ele>233.4</ele><time>2026-04-12T07:44:27Z</time></trkpt><trkpt lat="44.036344860905324" lon="12.172215519639082"><ele>233.59999999999997</ele><time>2026-04-12T07:44:28Z</time></trkpt><trkpt lat="44.036272774583956" lon="12.1722872292989"><ele>233.79999999999998</ele><time>2026-04-12T07:44:29Z</time></trkpt><trkpt lat="44.03623591546964" lon="12.17239436883412"><ele>234.0</ele><time>2026-04-12T07:44:30Z</time></trkpt><trkpt lat="44.036199509262346" lon="12.17249071396135"><ele>234.0</ele><time>2026-04-12T07:44:31Z</time></trkpt><trkpt lat="44.036110120378396" lon="12.17255736685107"><ele>233.99999999999997</ele><time>2026-04-12T07:44:33Z</time></trkpt><trkpt lat="44.0360140999911" lon="12.172487970478103"><ele>233.99999999999997</ele><time>2026-04-12T07:44:35Z</time></trkpt><trkpt lat="44.03598882420667" lon="12.1723905765412"><ele>234.0</ele><time>2026-04-12T07:44:36Z</time></trkpt><trkpt lat="44.03593727765942" lon="12.172286615160628"><ele>234.0</ele><time>2026-04-12T07:44:37Z</time></trkpt><trkpt lat="44.035865498997374" lon="12.172181453412346"><ele>234.66666666666666</ele><time>2026-04-12T07:44:38Z</time></trkpt><trkpt lat="44.03581933330409" lon="12.17208434351922"><ele>235.33333333333331</ele><time>2026-04-12T07:44:39Z</time></trkpt><trkpt lat="44.03577268117528" lon="12.172010056660199"><ele>236.0</ele><time>2026-04-12T07:44:40Z</time></trkpt><trkpt lat="44.03571475145824" lon="12.171931361814913"><ele>236.66666666666666</ele><time>2026-04-12T07:44:41Z</time></trkpt><trkpt lat="44.035636012171594" lon="12.171863172760627"><ele>237.33333333333331</ele><time>2026-04-12T07:44:42Z</time></trkpt><trkpt lat="44.03555375868605" lon="12.17179644540541"><ele>238.0</ele><time>2026-04-12T07:44:43Z</time></trkpt><trkpt lat="44.035464563601245" lon="12.171722432635462"><ele>238.25</ele><time>2026-04-12T07:44:44Z</time></trkpt><trkpt lat="44.03537486163171" lon="12.171635165992585"><ele>238.5</ele><time>2026-04-12T07:44:45Z</time></trkpt><trkpt lat="44.035272342561974" lon="12.171563652266668"><ele>238.75</ele><time>2026-04-12T07:44:46Z</time></trkpt><trkpt lat="44.0351545680257" lon="12.171500493324132"><ele>239.0</ele><time>2026-04-12T07:44:47Z</time></trkpt><trkpt lat="44.03502784928014" lon="12.171449031842116"><ele>242.0</ele><time>2026-04-12T07:44:48Z</time></trkpt><trkpt lat="44.03491528293587" lon="12.171368070500682"><ele>245.0</ele><time>2026-04-12T07:44:49Z</time></trkpt><trkpt lat="44.0347941872728" lon="12.1713431275209"><ele>248.0</ele><time>2026-04-12T07:44:50Z</time></trkpt><trkpt lat="44.034686785574856" lon="12.171288719223709"><ele>251.0</ele><time>2026-04-12T07:44:51Z</time></trkpt><trkpt lat="44.03457996848342" lon="12.171241498696661"><ele>251.0</ele><time>2026-04-12T07:44:52Z</time></trkpt><trkpt lat="44.03448375868198" lon="12.171156659030816"><ele>251.00000000000003</ele><time>2026-04-12T07:44:53Z</time></trkpt><trkpt lat="44.03440330694882" lon="12.171079984672657"><ele>251.00000000000003</ele><time>2026-04-12T07:44:54Z</time></trkpt><trkpt lat="44.03433635590264" lon="12.170979599888177"><ele>251.0</ele><time>2026-04-12T07:44:55Z</time></trkpt><trkpt lat="44.034260470403176" lon="12.170877228934458"><ele>251.0</ele><time>2026-04-12T07:44:56Z</time></trkpt><trkpt lat="44.034171267573555" lon="12.170794707689986"><ele>250.50000000000003</ele><time>2026-04-12T07:44:57Z</time></trkpt><trkpt lat="44.034099480220874" lon="12.170716016310402"><ele>250.0</ele><time>2026-04-12T07:44:58Z</time></trkpt><trkpt lat="44.03403453108692" lon="12.170628143679314"><ele>249.5</ele><time>2026-04-12T07:44:59Z</time></trkpt><trkpt lat="44.03395422312017" lon="12.17057533764751"><ele>249.0</ele><time>2026-04-12T07:45:00Z</time></trkpt><trkpt lat="44.03388520424039" lon="12.170548488773896"><ele>248.50000000000003</ele><time>2026-04-12T07:45:01Z</time></trkpt><trkpt lat="44.03381123456029" lon="12.170540673820431"><ele>248.0</ele><time>2026-04-12T07:45:02Z</time></trkpt><trkpt lat="44.0337166477094" lon="12.170575995099284"><ele>248.0</ele><time>2026-04-12T07:45:03Z</time></trkpt><trkpt lat="44.03363006896973" lon="12.170637287958877"><ele>248.0</ele><time>2026-04-12T07:45:04Z</time></trkpt><trkpt lat="44.03353444576678" lon="12.170697335433303"><ele>248.0</ele><time>2026-04-12T07:45:05Z</time></trkpt><trkpt lat="44.03343301903126" lon="12.170765207657698"><ele>248.0</ele><time>2026-04-12T07:45:06Z</time></trkpt><trkpt lat="44.03333386225274" lon="12.170824043201964"><ele>248.0</ele><time>2026-04-12T07:45:07Z</time></trkpt><trkpt lat="44.033250393447815" lon="12.170892709222596"><ele>245.5</ele><time>2026-04-12T07:45:08.001Z</time></trkpt><trkpt lat="44.03316852282217" lon="12.170982116648874"><ele>243.0</ele><time>2026-04-12T07:45:09.001Z</time></trkpt><trkpt lat="44.03308856382622" lon="12.17109842835489"><ele>240.5</ele><time>2026-04-12T07:45:10.001Z</time></trkpt><trkpt lat="44.03300790905192" lon="12.171227635084133"><ele>238.0</ele><time>2026-04-12T07:45:11.001Z</time></trkpt><trkpt lat="44.03292356537565" lon="12.171350382259773"><ele>238.0</ele><time>2026-04-12T07:45:12.001Z</time></trkpt><trkpt lat="44.03282609795594" lon="12.171461916169266"><ele>238.0</ele><time>2026-04-12T07:45:13.001Z</time></trkpt><trkpt lat="44.03271669237458" lon="12.171572703976912"><ele>238.0</ele><time>2026-04-12T07:45:14.001Z</time></trkpt><trkpt lat="44.0326022133147" lon="12.17168001066311"><ele>238.0</ele><time>2026-04-12T07:45:15.001Z</time></trkpt><trkpt lat="44.032502697106295" lon="12.171775097841524"><ele>242.8</ele><time>2026-04-12T07:45:16.001Z</time></trkpt><trkpt lat="44.03241496078012" lon="12.171856957276539"><ele>247.60000000000002</ele><time>2026-04-12T07:45:17.001Z</time></trkpt><trkpt lat="44.032332434864585" lon="12.171884886261589"><ele>252.39999999999998</ele><time>2026-04-12T07:45:18.001Z</time></trkpt><trkpt lat="44.03224702881787" lon="12.171911164312647"><ele>257.2</ele><time>2026-04-12T07:45:19.001Z</time></trkpt><trkpt lat="44.03214612946655" lon="12.17193419924535"><ele>262.0</ele><time>2026-04-12T07:45:20.001Z</time></trkpt><trkpt lat="44.03203292544605" lon="12.17195256838765"><ele>262.0</ele><time>2026-04-12T07:45:21.001Z</time></trkpt><trkpt lat="44.03190950983332" lon="12.171967164760575"><ele>262.0</ele><time>2026-04-12T07:45:22.001Z</time></trkpt><trkpt lat="44.03179270525106" lon="12.171963011717159"><ele>262.0</ele><time>2026-04-12T07:45:23.001Z</time></trkpt><trkpt lat="44.03168084365314" lon="12.171934756549373"><ele>262.0</ele><time>2026-04-12T07:45:24.001Z</time></trkpt><trkpt lat="44.03156912174113" lon="12.171893451911972"><ele>263.0</ele><time>2026-04-12T07:45:25.001Z</time></trkpt><trkpt lat="44.03145827755961" lon="12.171862677214062"><ele>264.0</ele><time>2026-04-12T07:45:26.001Z</time></trkpt><trkpt lat="44.03134644481375" lon="12.171855675337984"><ele>265.0</ele><time>2026-04-12T07:45:27.001Z</time></trkpt><trkpt lat="44.03123749586319" lon="12.171836188939771"><ele>266.0</ele><time>2026-04-12T07:45:28.001Z</time></trkpt><trkpt lat="44.03113616052396" lon="12.171851181976637"><ele>267.0</ele><time>2026-04-12T07:45:29.001Z</time></trkpt><trkpt lat="44.03102926565292" lon="12.17186006043323"><ele>267.0</ele><time>2026-04-12T07:45:30.001Z</time></trkpt><trkpt lat="44.03092401076454" lon="12.171876593974297"><ele>267.0</ele><time>2026-04-12T07:45:31.001Z</time></trkpt><trkpt lat="44.03081627075727" lon="12.171862723565674"><ele>267.0</ele><time>2026-04-12T07:45:32.001Z</time></trkpt><trkpt lat="44.03070047984456" lon="12.171860657089738"><ele>267.0</ele><time>2026-04-12T07:45:33.001Z</time></trkpt><trkpt lat="44.030594691383605" lon="12.171874061304896"><ele>267.0</ele><time>2026-04-12T07:45:34.001Z</time></trkpt><trkpt lat="44.03049858075634" lon="12.171867313063268"><ele>266.5</ele><time>2026-04-12T07:45:35.001Z</time></trkpt><trkpt lat="44.0304108178009" lon="12.171848378352806"><ele>266.0</ele><time>2026-04-12T07:45:36.001Z</time></trkpt><trkpt lat="44.030334406089196" lon="12.171816540479695"><ele>265.5</ele><time>2026-04-12T07:45:37.001Z</time></trkpt><trkpt lat="44.03026598282358" lon="12.17176591527229"><ele>265.0</ele><time>2026-04-12T07:45:38.001Z</time></trkpt><trkpt lat="44.03022256224673" lon="12.171689773011792"><ele>264.5</ele><time>2026-04-12T07:45:39.001Z</time></trkpt><trkpt lat="44.03016569492527" lon="12.1716502947763"><ele>264.0</ele><time>2026-04-12T07:45:40.001Z</time></trkpt><trkpt lat="44.03011203998543" lon="12.171550883930637"><ele>262.7142857142857</ele><time>2026-04-12T07:45:42.001Z</time></trkpt><trkpt lat="44.03004396559703" lon="12.171428897459606"><ele>261.42857142857144</ele><time>2026-04-12T07:46:19Z</time></trkpt><trkpt lat="44.03004362599678" lon="12.17133811917151"><ele>260.14285714285717</ele><time>2026-04-12T07:46:20Z</time></trkpt><trkpt lat="44.03001512166162" lon="12.171250667819804"><ele>258.8571428571429</ele><time>2026-04-12T07:46:21Z</time></trkpt><trkpt lat="44.0299824595596" lon="12.17117306108742"><ele>257.5714285714286</ele><time>2026-04-12T07:46:22Z</time></trkpt><trkpt lat="44.02992388132498" lon="12.171119420343446"><ele>256.2857142857143</ele><time>2026-04-12T07:46:23Z</time></trkpt><trkpt lat="44.02987228158778" lon="12.171066298274686"><ele>255.0</ele><time>2026-04-12T07:46:25Z</time></trkpt><trkpt lat="44.02979939091722" lon="12.171035551609815"><ele>255.0</ele><time>2026-04-12T07:46:27Z</time></trkpt><trkpt lat="44.029687868618936" lon="12.170973426430491"><ele>255.0</ele><time>2026-04-12T07:46:29Z</time></trkpt><trkpt lat="44.029621732416935" lon="12.170961641483544"><ele>255.0</ele><time>2026-04-12T07:46:30Z</time></trkpt><trkpt lat="44.02951835585693" lon="12.17086870236666"><ele>255.0</ele><time>2026-04-12T07:46:32Z</time></trkpt><trkpt lat="44.02946068433671" lon="12.170797761468808"><ele>255.0</ele><time>2026-04-12T07:46:33Z</time></trkpt><trkpt lat="44.02938687427803" lon="12.17073596323256"><ele>254.0</ele><time>2026-04-12T07:46:34Z</time></trkpt><trkpt lat="44.02932197201112" lon="12.170666090181443"><ele>253.0</ele><time>2026-04-12T07:46:35Z</time></trkpt><trkpt lat="44.02924879576445" lon="12.170588503227917"><ele>252.0</ele><time>2026-04-12T07:46:36Z</time></trkpt><trkpt lat="44.0291595440813" lon="12.170550294846835"><ele>251.0</ele><time>2026-04-12T07:46:37Z</time></trkpt><trkpt lat="44.029077410712326" lon="12.170507716321374"><ele>250.0</ele><time>2026-04-12T07:46:38Z</time></trkpt><trkpt lat="44.028997038041" lon="12.170467827320493"><ele>249.0</ele><time>2026-04-12T07:46:39Z</time></trkpt><trkpt lat="44.02893469226951" lon="12.17038820612182"><ele>248.75</ele><time>2026-04-12T07:46:40Z</time></trkpt><trkpt lat="44.028881602150406" lon="12.17026130431169"><ele>248.5</ele><time>2026-04-12T07:46:41Z</time></trkpt><trkpt lat="44.028823716239316" lon="12.170123725866755"><ele>248.25</ele><time>2026-04-12T07:46:42Z</time></trkpt><trkpt lat="44.02876778177498" lon="12.16998164351068"><ele>248.0</ele><time>2026-04-12T07:46:43Z</time></trkpt><trkpt lat="44.02871040889926" lon="12.169819537504676"><ele>248.0</ele><time>2026-04-12T07:46:44Z</time></trkpt><trkpt lat="44.02863996245595" lon="12.16969021975548"><ele>248.0</ele><time>2026-04-12T07:46:45Z</time></trkpt><trkpt lat="44.028603088763276" lon="12.16957269295094"><ele>248.0</ele><time>2026-04-12T07:46:46Z</time></trkpt><trkpt lat="44.028532874234116" lon="12.169456628354077"><ele>248.0</ele><time>2026-04-12T07:46:47Z</time></trkpt><trkpt lat="44.02842562189123" lon="12.16935747276981"><ele>248.0</ele><time>2026-04-12T07:46:48Z</time></trkpt><trkpt lat="44.0283143700388" lon="12.169278902278936"><ele>248.16666666666669</ele><time>2026-04-12T07:46:49Z</time></trkpt><trkpt lat="44.028225082772956" lon="12.169213567597396"><ele>248.33333333333334</ele><time>2026-04-12T07:46:50Z</time></trkpt><trkpt lat="44.02816504423452" lon="12.169129131025592"><ele>248.5</ele><time>2026-04-12T07:46:51Z</time></trkpt><trkpt lat="44.02815648376786" lon="12.169026467177268"><ele>248.66666666666669</ele><time>2026-04-12T07:46:52Z</time></trkpt><trkpt lat="44.02812247302492" lon="12.168915115621681"><ele>248.83333333333334</ele><time>2026-04-12T07:46:53Z</time></trkpt><trkpt lat="44.02808465575066" lon="12.168806966091818"><ele>249.0</ele><time>2026-04-12T07:46:54Z</time></trkpt><trkpt lat="44.028023107233636" lon="12.16868668437459"><ele>250.79999999999998</ele><time>2026-04-12T07:46:55Z</time></trkpt><trkpt lat="44.027931242504316" lon="12.16860076561308"><ele>252.59999999999997</ele><time>2026-04-12T07:46:56Z</time></trkpt><trkpt lat="44.02785441433904" lon="12.168477685723172"><ele>254.4</ele><time>2026-04-12T07:46:57Z</time></trkpt><trkpt lat="44.02775321737632" lon="12.168383418552636"><ele>256.2</ele><time>2026-04-12T07:46:58.001Z</time></trkpt><trkpt lat="44.027689073890755" lon="12.168289768088243"><ele>258.0</ele><time>2026-04-12T07:46:59.001Z</time></trkpt><trkpt lat="44.027645683826016" lon="12.168202097734559"><ele>258.4</ele><time>2026-04-12T07:47:00.001Z</time></trkpt><trkpt lat="44.027596817966725" lon="12.168089470126507"><ele>258.8</ele><time>2026-04-12T07:47:01.001Z</time></trkpt><trkpt lat="44.02754254537975" lon="12.16795288799601"><ele>259.2</ele><time>2026-04-12T07:47:02.001Z</time></trkpt><trkpt lat="44.02749931703869" lon="12.167813750553968"><ele>259.6</ele><time>2026-04-12T07:47:03.001Z</time></trkpt><trkpt lat="44.027460546973" lon="12.167675876644662"><ele>260.0</ele><time>2026-04-12T07:47:04.001Z</time></trkpt><trkpt lat="44.027409347293926" lon="12.167564682666006"><ele>260.8</ele><time>2026-04-12T07:47:05.001Z</time></trkpt><trkpt lat="44.02736238875834" lon="12.167437050945773"><ele>261.6</ele><time>2026-04-12T07:47:06.001Z</time></trkpt><trkpt lat="44.027296756921814" lon="12.167311759999208"><ele>262.4</ele><time>2026-04-12T07:47:07.001Z</time></trkpt><trkpt lat="44.02721587926166" lon="12.167210031963112"><ele>263.2</ele><time>2026-04-12T07:47:08.001Z</time></trkpt><trkpt lat="44.02714044006839" lon="12.167121473173916"><ele>264.0</ele><time>2026-04-12T07:47:09.001Z</time></trkpt><trkpt lat="44.027073360028524" lon="12.16701422855843"><ele>264.0</ele><time>2026-04-12T07:47:10.001Z</time></trkpt><trkpt lat="44.02704196797604" lon="12.166881213980568"><ele>264.0</ele><time>2026-04-12T07:47:11.001Z</time></trkpt><trkpt lat="44.02701126321283" lon="12.16674851784592"><ele>264.0</ele><time>2026-04-12T07:47:12.001Z</time></trkpt><trkpt lat="44.02694203363156" lon="12.16662545192581"><ele>264.0</ele><time>2026-04-12T07:47:13.001Z</time></trkpt><trkpt lat="44.02689637085636" lon="12.166497366891045"><ele>264.0</ele><time>2026-04-12T07:47:14.001Z</time></trkpt><trkpt lat="44.026846656898734" lon="12.166364630446807"><ele>264.8</ele><time>2026-04-12T07:47:15.001Z</time></trkpt><trkpt lat="44.0268046264464" lon="12.166224569639578"><ele>265.59999999999997</ele><time>2026-04-12T07:47:16.001Z</time></trkpt><trkpt lat="44.026774793705435" lon="12.166082872784065"><ele>266.4</ele><time>2026-04-12T07:47:17.001Z</time></trkpt><trkpt lat="44.026760534490194" lon="12.16595188991082"><ele>267.2</ele><time>2026-04-12T07:47:18.001Z</time></trkpt><trkpt lat="44.026759669952405" lon="12.165845837512132"><ele>268.0</ele><time>2026-04-12T07:47:19.001Z</time></trkpt><trkpt lat="44.026793944175836" lon="12.165712686943435"><ele>268.0</ele><time>2026-04-12T07:47:21.001Z</time></trkpt><trkpt lat="44.026911971127824" lon="12.165644126015827"><ele>268.0</ele><time>2026-04-12T07:47:23.001Z</time></trkpt><trkpt lat="44.02698981968725" lon="12.16565660954414"><ele>268.0</ele><time>2026-04-12T07:47:24.001Z</time></trkpt><trkpt lat="44.02707149764005" lon="12.165684565088943"><ele>268.0</ele><time>2026-04-12T07:47:25.001Z</time></trkpt><trkpt lat="44.02715595542827" lon="12.16571233601758"><ele>268.0</ele><time>2026-04-12T07:47:26.001Z</time></trkpt><trkpt lat="44.02722316706578" lon="12.165704539155954"><ele>268.0</ele><time>2026-04-12T07:47:27.001Z</time></trkpt><trkpt lat="44.027286887728785" lon="12.165660957612893"><ele>268.6</ele><time>2026-04-12T07:47:28.001Z</time></trkpt><trkpt lat="44.02734811821762" lon="12.16559086037712"><ele>269.20000000000005</ele><time>2026-04-12T07:47:29.001Z</time></trkpt><trkpt lat="44.02738881814129" lon="12.165478538290447"><ele>269.8</ele><time>2026-04-12T07:47:30.001Z</time></trkpt><trkpt lat="44.02739313651979" lon="12.165324867793291"><ele>270.40000000000003</ele><time>2026-04-12T07:47:31.001Z</time></trkpt><trkpt lat="44.02741059897395" lon="12.165169711319882"><ele>271.0</ele><time>2026-04-12T07:47:32.001Z</time></trkpt><trkpt lat="44.027423700981586" lon="12.165006447128476"><ele>270.5</ele><time>2026-04-12T07:47:33.001Z</time></trkpt><trkpt lat="44.027429749617106" lon="12.164839480847682"><ele>270.0</ele><time>2026-04-12T07:47:34.001Z</time></trkpt><trkpt lat="44.02742813060369" lon="12.164674493970217"><ele>269.5</ele><time>2026-04-12T07:47:35.001Z</time></trkpt><trkpt lat="44.027420634579" lon="12.164515457900812"><ele>269.0</ele><time>2026-04-12T07:47:36.001Z</time></trkpt><trkpt lat="44.02741619587944" lon="12.164348671189623"><ele>269.0</ele><time>2026-04-12T07:47:37.001Z</time></trkpt><trkpt lat="44.027409767238545" lon="12.164195560894493"><ele>269.0</ele><time>2026-04-12T07:47:38.001Z</time></trkpt><trkpt lat="44.02742952995337" lon="12.164061565698526"><ele>269.0</ele><time>2026-04-12T07:47:39.001Z</time></trkpt><trkpt lat="44.027427690808764" lon="12.163941383310837"><ele>269.0</ele><time>2026-04-12T07:47:40.001Z</time></trkpt><trkpt lat="44.02741450883488" lon="12.163844341769746"><ele>269.0</ele><time>2026-04-12T07:47:41.001Z</time></trkpt><trkpt lat="44.027368072944334" lon="12.163704253067632"><ele>268.0</ele><time>2026-04-12T07:47:43.001Z</time></trkpt><trkpt lat="44.0272902421853" lon="12.163534052584751"><ele>267.0</ele><time>2026-04-12T07:47:45.001Z</time></trkpt><trkpt lat="44.02721341335506" lon="12.163444181591135"><ele>266.0</ele><time>2026-04-12T07:47:46.001Z</time></trkpt><trkpt lat="44.02714508083785" lon="12.163364428306803"><ele>265.0</ele><time>2026-04-12T07:47:47.001Z</time></trkpt><trkpt lat="44.027079030882554" lon="12.16328857033109"><ele>264.0</ele><time>2026-04-12T07:47:48.001Z</time></trkpt><trkpt lat="44.02700473732009" lon="12.163218787910992"><ele>263.1666666666667</ele><time>2026-04-12T07:47:49.001Z</time></trkpt><trkpt lat="44.02693531507268" lon="12.163137623099741"><ele>262.3333333333333</ele><time>2026-04-12T07:47:50.001Z</time></trkpt><trkpt lat="44.026870913939725" lon="12.163057069964319"><ele>261.5</ele><time>2026-04-12T07:47:51.001Z</time></trkpt><trkpt lat="44.02680688700451" lon="12.162974034839948"><ele>260.66666666666663</ele><time>2026-04-12T07:47:52.001Z</time></trkpt><trkpt lat="44.026753248315885" lon="12.16288337687104"><ele>259.8333333333333</ele><time>2026-04-12T07:47:53.001Z</time></trkpt><trkpt lat="44.02668430751894" lon="12.162821442834208"><ele>259.0</ele><time>2026-04-12T07:47:54.001Z</time></trkpt><trkpt lat="44.02663311183302" lon="12.162741375129048"><ele>259.0</ele><time>2026-04-12T07:47:55.001Z</time></trkpt><trkpt lat="44.02658028240137" lon="12.162665913199165"><ele>259.0</ele><time>2026-04-12T07:47:56.001Z</time></trkpt><trkpt lat="44.02652393121808" lon="12.162593225029905"><ele>259.0</ele><time>2026-04-12T07:47:57.001Z</time></trkpt><trkpt lat="44.02646507055361" lon="12.162524554885524"><ele>259.0</ele><time>2026-04-12T07:47:58.001Z</time></trkpt><trkpt lat="44.02641675595778" lon="12.16244944448923"><ele>259.0</ele><time>2026-04-12T07:47:59.001Z</time></trkpt><trkpt lat="44.026353705416525" lon="12.162396399220999"><ele>259.0</ele><time>2026-04-12T07:48:00.001Z</time></trkpt><trkpt lat="44.02629928926946" lon="12.16232112906311"><ele>258.0</ele><time>2026-04-12T07:48:01.001Z</time></trkpt><trkpt lat="44.026213909729485" lon="12.162271711355825"><ele>257.0</ele><time>2026-04-12T07:48:02.001Z</time></trkpt><trkpt lat="44.02612102242943" lon="12.162258613633915"><ele>256.0</ele><time>2026-04-12T07:48:03.001Z</time></trkpt><trkpt lat="44.02603349146078" lon="12.162237014264448"><ele>255.0</ele><time>2026-04-12T07:48:04.001Z</time></trkpt><trkpt lat="44.025950326464574" lon="12.16220714008845"><ele>253.99999999999997</ele><time>2026-04-12T07:48:05.001Z</time></trkpt><trkpt lat="44.02587268998598" lon="12.162178352696506"><ele>253.0</ele><time>2026-04-12T07:48:06.001Z</time></trkpt><trkpt lat="44.02579413299159" lon="12.16216142097056"><ele>252.99999999999997</ele><time>2026-04-12T07:48:07.001Z</time></trkpt><trkpt lat="44.025709794233535" lon="12.1621434912721"><ele>253.0</ele><time>2026-04-12T07:48:08.001Z</time></trkpt><trkpt lat="44.02562319826281" lon="12.162125066350093"><ele>253.0</ele><time>2026-04-12T07:48:09.001Z</time></trkpt><trkpt lat="44.025542906056245" lon="12.162078703347573"><ele>253.0</ele><time>2026-04-12T07:48:10.001Z</time></trkpt><trkpt lat="44.025470323550955" lon="12.162060671517322"><ele>252.99999999999997</ele><time>2026-04-12T07:48:11.001Z</time></trkpt><trkpt lat="44.02540184273659" lon="12.162046469561098"><ele>253.0</ele><time>2026-04-12T07:48:12.001Z</time></trkpt><trkpt lat="44.025339054430646" lon="12.162014830247262"><ele>253.0</ele><time>2026-04-12T07:48:13.001Z</time></trkpt><trkpt lat="44.02529476855987" lon="12.161893306449846"><ele>253.0</ele><time>2026-04-12T07:48:14Z</time></trkpt><trkpt lat="44.02522792189515" lon="12.161783649852067"><ele>253.0</ele><time>2026-04-12T07:48:15Z</time></trkpt><trkpt lat="44.02516348948351" lon="12.161677591059123"><ele>253.0</ele><time>2026-04-12T07:48:16Z</time></trkpt><trkpt lat="44.02509409831832" lon="12.161579332038446"><ele>253.0</ele><time>2026-04-12T07:48:17Z</time></trkpt><trkpt lat="44.025012625336764" lon="12.161482501012346"><ele>251.0</ele><time>2026-04-12T07:48:18Z</time></trkpt><trkpt lat="44.024922482820564" lon="12.16138354908788"><ele>249.0</ele><time>2026-04-12T07:48:19Z</time></trkpt><trkpt lat="44.024822865687" lon="12.161279621647932"><ele>247.0</ele><time>2026-04-12T07:48:20Z</time></trkpt><trkpt lat="44.02472607614348" lon="12.16118441223227"><ele>245.0</ele><time>2026-04-12T07:48:21Z</time></trkpt><trkpt lat="44.02463601424988" lon="12.16110123411439"><ele>245.0</ele><time>2026-04-12T07:48:22Z</time></trkpt><trkpt lat="44.02453049997679" lon="12.16103486007696"><ele>245.0</ele><time>2026-04-12T07:48:23Z</time></trkpt><trkpt lat="44.024439514101786" lon="12.16094193689403"><ele>245.0</ele><time>2026-04-12T07:48:24Z</time></trkpt><trkpt lat="44.02433908474307" lon="12.160847846561587"><ele>245.0</ele><time>2026-04-12T07:48:25Z</time></trkpt><trkpt lat="44.02425053968461" lon="12.160748077653132"><ele>244.6</ele><time>2026-04-12T07:48:26Z</time></trkpt><trkpt lat="44.024169082599" lon="12.160655902070168"><ele>244.2</ele><time>2026-04-12T07:48:27Z</time></trkpt><trkpt lat="44.02408819498682" lon="12.160561474638635"><ele>243.8</ele><time>2026-04-12T07:48:28Z</time></trkpt><trkpt lat="44.02400087620523" lon="12.160464679775284"><ele>243.4</ele><time>2026-04-12T07:48:29Z</time></trkpt><trkpt lat="44.02390333206048" lon="12.160379924838773"><ele>243.0</ele><time>2026-04-12T07:48:30Z</time></trkpt><trkpt lat="44.02381346787047" lon="12.160287149748148"><ele>243.0</ele><time>2026-04-12T07:48:31Z</time></trkpt><trkpt lat="44.023728356471146" lon="12.160210663207172"><ele>243.0</ele><time>2026-04-12T07:48:32Z</time></trkpt><trkpt lat="44.023646516611045" lon="12.160136101003491"><ele>243.0</ele><time>2026-04-12T07:48:33Z</time></trkpt><trkpt lat="44.023558652436805" lon="12.160068466455298"><ele>243.0</ele><time>2026-04-12T07:48:34Z</time></trkpt><trkpt lat="44.02346856503608" lon="12.160004435192908"><ele>243.0</ele><time>2026-04-12T07:48:35Z</time></trkpt><trkpt lat="44.02337141977856" lon="12.159932930716204"><ele>243.0</ele><time>2026-04-12T07:48:36Z</time></trkpt><trkpt lat="44.02328875331778" lon="12.159870078046723"><ele>243.0</ele><time>2026-04-12T07:48:37Z</time></trkpt><trkpt lat="44.023199018738744" lon="12.159802681174629"><ele>243.0</ele><time>2026-04-12T07:48:38Z</time></trkpt><trkpt lat="44.023104876557085" lon="12.15972912804925"><ele>243.0</ele><time>2026-04-12T07:48:39Z</time></trkpt><trkpt lat="44.02300779553409" lon="12.159661125925217"><ele>243.0</ele><time>2026-04-12T07:48:40Z</time></trkpt><trkpt lat="44.02290637592947" lon="12.159591609081556"><ele>243.0</ele><time>2026-04-12T07:48:41Z</time></trkpt><trkpt lat="44.02280496776159" lon="12.15952069662033"><ele>243.0</ele><time>2026-04-12T07:48:42Z</time></trkpt><trkpt lat="44.022708040410514" lon="12.159445091670275"><ele>243.0</ele><time>2026-04-12T07:48:43Z</time></trkpt><trkpt lat="44.02261508399097" lon="12.159360329583109"><ele>243.0</ele><time>2026-04-12T07:48:44Z</time></trkpt><trkpt lat="44.02251879122705" lon="12.159274736337156"><ele>242.75</ele><time>2026-04-12T07:48:45Z</time></trkpt><trkpt lat="44.02242837633975" lon="12.159189130345677"><ele>242.5</ele><time>2026-04-12T07:48:46Z</time></trkpt><trkpt lat="44.02233816796818" lon="12.159094809268009"><ele>242.25</ele><time>2026-04-12T07:48:47Z</time></trkpt><trkpt lat="44.02224929279377" lon="12.158992537570388"><ele>242.0</ele><time>2026-04-12T07:48:48Z</time></trkpt><trkpt lat="44.02216199965369" lon="12.158888698807647"><ele>243.0</ele><time>2026-04-12T07:48:49Z</time></trkpt><trkpt lat="44.02207357676301" lon="12.158780883109607"><ele>244.0</ele><time>2026-04-12T07:48:50Z</time></trkpt><trkpt lat="44.02198152842917" lon="12.158668884025191"><ele>245.0</ele><time>2026-04-12T07:48:51Z</time></trkpt><trkpt lat="44.02188567902848" lon="12.158552455620457"><ele>246.0</ele><time>2026-04-12T07:48:52Z</time></trkpt><trkpt lat="44.021780353022336" lon="12.158430113606924"><ele>246.0</ele><time>2026-04-12T07:48:53Z</time></trkpt><trkpt lat="44.02168066254954" lon="12.158312218692043"><ele>246.0</ele><time>2026-04-12T07:48:54Z</time></trkpt><trkpt lat="44.02158552648857" lon="12.158196691806005"><ele>246.0</ele><time>2026-04-12T07:48:55Z</time></trkpt><trkpt lat="44.02149327954494" lon="12.158075463434127"><ele>246.0</ele><time>2026-04-12T07:48:56Z</time></trkpt><trkpt lat="44.02139479190141" lon="12.157957803131163"><ele>247.75</ele><time>2026-04-12T07:48:57Z</time></trkpt><trkpt lat="44.0212934575992" lon="12.157841161973538"><ele>249.5</ele><time>2026-04-12T07:48:58Z</time></trkpt><trkpt lat="44.021190211447454" lon="12.157721455711807"><ele>251.25</ele><time>2026-04-12T07:48:59Z</time></trkpt><trkpt lat="44.021099470838266" lon="12.157626177336594"><ele>253.0</ele><time>2026-04-12T07:49:00Z</time></trkpt><trkpt lat="44.02103455077942" lon="12.157549428356047"><ele>253.0</ele><time>2026-04-12T07:49:01Z</time></trkpt><trkpt lat="44.0209559169591" lon="12.157411195178794"><ele>253.0</ele><time>2026-04-12T07:49:03Z</time></trkpt><trkpt lat="44.02089995431603" lon="12.157309584534913"><ele>253.0</ele><time>2026-04-12T07:49:04Z</time></trkpt><trkpt lat="44.0208441430233" lon="12.157194518121784"><ele>253.0</ele><time>2026-04-12T07:49:05Z</time></trkpt><trkpt lat="44.020786702518556" lon="12.157071875943009"><ele>253.0</ele><time>2026-04-12T07:49:06Z</time></trkpt><trkpt lat="44.0207248830442" lon="12.156951470697742"><ele>253.0</ele><time>2026-04-12T07:49:07Z</time></trkpt><trkpt lat="44.02066083060993" lon="12.15682158063038"><ele>253.0</ele><time>2026-04-12T07:49:08Z</time></trkpt><trkpt lat="44.02062226013248" lon="12.156673756336124"><ele>253.0</ele><time>2026-04-12T07:49:09Z</time></trkpt><trkpt lat="44.02058083051818" lon="12.156534762196243"><ele>253.0</ele><time>2026-04-12T07:49:10Z</time></trkpt><trkpt lat="44.02054534034759" lon="12.156402010571169"><ele>253.0</ele><time>2026-04-12T07:49:11Z</time></trkpt><trkpt lat="44.02051667789513" lon="12.156272661310405"><ele>252.99999999999997</ele><time>2026-04-12T07:49:12Z</time></trkpt><trkpt lat="44.02049606474896" lon="12.156155895873335"><ele>253.0</ele><time>2026-04-12T07:49:13Z</time></trkpt><trkpt lat="44.020482430202684" lon="12.156050814251767"><ele>253.0</ele><time>2026-04-12T07:49:14Z</time></trkpt><trkpt lat="44.02047956128825" lon="12.155952094705139"><ele>253.0</ele><time>2026-04-12T07:49:15.001Z</time></trkpt><trkpt lat="44.02047785019538" lon="12.155856480130714"><ele>252.99999999999997</ele><time>2026-04-12T07:49:16.001Z</time></trkpt><trkpt lat="44.020479997648785" lon="12.155753769048458"><ele>253.0</ele><time>2026-04-12T07:49:17.001Z</time></trkpt><trkpt lat="44.02047311527276" lon="12.15565139126385"><ele>251.8571428571429</ele><time>2026-04-12T07:49:18.001Z</time></trkpt><trkpt lat="44.02048594604471" lon="12.15554769491976"><ele>250.71428571428572</ele><time>2026-04-12T07:49:19.001Z</time></trkpt><trkpt lat="44.020500020589985" lon="12.155454924802758"><ele>249.57142857142858</ele><time>2026-04-12T07:49:20.001Z</time></trkpt><trkpt lat="44.02051543264795" lon="12.155366881012696"><ele>248.42857142857144</ele><time>2026-04-12T07:49:21.001Z</time></trkpt><trkpt lat="44.020530638424255" lon="12.155267776685644"><ele>247.28571428571428</ele><time>2026-04-12T07:49:22.001Z</time></trkpt><trkpt lat="44.02054938554985" lon="12.155160885478727"><ele>246.14285714285714</ele><time>2026-04-12T07:49:23.001Z</time></trkpt><trkpt lat="44.020572360414796" lon="12.155055561479589"><ele>245.0</ele><time>2026-04-12T07:49:24.001Z</time></trkpt><trkpt lat="44.020597334275365" lon="12.15495762890031"><ele>242.6</ele><time>2026-04-12T07:49:25.001Z</time></trkpt><trkpt lat="44.020627755350155" lon="12.154855594731638"><ele>240.2</ele><time>2026-04-12T07:49:26.001Z</time></trkpt><trkpt lat="44.02066277689511" lon="12.154746441145765"><ele>237.8</ele><time>2026-04-12T07:49:27.001Z</time></trkpt><trkpt lat="44.02069996223766" lon="12.154621550979158"><ele>235.4</ele><time>2026-04-12T07:49:28.001Z</time></trkpt><trkpt lat="44.02075493948921" lon="12.154509899144987"><ele>233.0</ele><time>2026-04-12T07:49:29.001Z</time></trkpt><trkpt lat="44.02078742209631" lon="12.154365776379105"><ele>236.2</ele><time>2026-04-12T07:49:30.001Z</time></trkpt><trkpt lat="44.02083680826075" lon="12.154235047121182"><ele>239.4</ele><time>2026-04-12T07:49:31.001Z</time></trkpt><trkpt lat="44.020879157292796" lon="12.154107358747641"><ele>242.59999999999997</ele><time>2026-04-12T07:49:32.001Z</time></trkpt><trkpt lat="44.020921897073364" lon="12.153966902388031"><ele>245.79999999999998</ele><time>2026-04-12T07:49:33.001Z</time></trkpt><trkpt lat="44.02096400515745" lon="12.15383042897783"><ele>249.0</ele><time>2026-04-12T07:49:34.001Z</time></trkpt><trkpt lat="44.02100520501792" lon="12.153707987187609"><ele>249.0</ele><time>2026-04-12T07:49:35.001Z</time></trkpt><trkpt lat="44.021041530080915" lon="12.153589415668504"><ele>249.0</ele><time>2026-04-12T07:49:36.001Z</time></trkpt><trkpt lat="44.02107122363242" lon="12.153477051030798"><ele>249.0</ele><time>2026-04-12T07:49:37.001Z</time></trkpt><trkpt lat="44.021097623485495" lon="12.153383637455976"><ele>249.0</ele><time>2026-04-12T07:49:38.001Z</time></trkpt><trkpt lat="44.02111418966746" lon="12.153294157111903"><ele>249.0</ele><time>2026-04-12T07:49:39.001Z</time></trkpt><trkpt lat="44.021116567910106" lon="12.153205140120942"><ele>249.0</ele><time>2026-04-12T07:49:40.001Z</time></trkpt><trkpt lat="44.02109861101548" lon="12.153036749434696"><ele>248.39999999999998</ele><time>2026-04-12T07:49:42.001Z</time></trkpt><trkpt lat="44.02104766776858" lon="12.152943904694146"><ele>247.79999999999998</ele><time>2026-04-12T07:49:43.001Z</time></trkpt><trkpt lat="44.02093710830507" lon="12.152913988883805"><ele>247.20000000000002</ele><time>2026-04-12T07:49:44.001Z</time></trkpt><trkpt lat="44.020845986838204" lon="12.15287953058465"><ele>246.60000000000002</ele><time>2026-04-12T07:49:45.001Z</time></trkpt><trkpt lat="44.0207401694147" lon="12.152868402776377"><ele>246.0</ele><time>2026-04-12T07:49:46.001Z</time></trkpt><trkpt lat="44.02065315703429" lon="12.152864387441033"><ele>244.66666666666666</ele><time>2026-04-12T07:49:47.001Z</time></trkpt><trkpt lat="44.02056583517197" lon="12.15284130280626"><ele>243.33333333333331</ele><time>2026-04-12T07:49:48.001Z</time></trkpt><trkpt lat="44.0204838703889" lon="12.15280255411165"><ele>242.0</ele><time>2026-04-12T07:49:49.001Z</time></trkpt><trkpt lat="44.02041664015414" lon="12.152740503504875"><ele>240.66666666666666</ele><time>2026-04-12T07:49:50.001Z</time></trkpt><trkpt lat="44.02034906090283" lon="12.152722592578169"><ele>239.33333333333331</ele><time>2026-04-12T07:49:51.001Z</time></trkpt><trkpt lat="44.020287309838416" lon="12.1526862831712"><ele>238.0</ele><time>2026-04-12T07:49:52.001Z</time></trkpt><trkpt lat="44.02022631575725" lon="12.15263212971673"><ele>237.99999999999997</ele><time>2026-04-12T07:49:53.001Z</time></trkpt><trkpt lat="44.02017943211392" lon="12.15253057303487"><ele>238.0</ele><time>2026-04-12T07:49:54.001Z</time></trkpt><trkpt lat="44.0201453508787" lon="12.1524278390877"><ele>238.0</ele><time>2026-04-12T07:49:55.001Z</time></trkpt><trkpt lat="44.02010075863067" lon="12.152317394768904"><ele>238.0</ele><time>2026-04-12T07:49:56.001Z</time></trkpt><trkpt lat="44.02003983934272" lon="12.152208284623386"><ele>237.99999999999997</ele><time>2026-04-12T07:49:57.001Z</time></trkpt><trkpt lat="44.01999479766039" lon="12.152099276870882"><ele>238.0</ele><time>2026-04-12T07:49:58.001Z</time></trkpt><trkpt lat="44.01994773374339" lon="12.151994504501436"><ele>237.49999999999997</ele><time>2026-04-12T07:49:59.001Z</time></trkpt><trkpt lat="44.019892008418786" lon="12.151894745016197"><ele>237.0</ele><time>2026-04-12T07:50:00.001Z</time></trkpt><trkpt lat="44.01984626577451" lon="12.15180030072865"><ele>236.5</ele><time>2026-04-12T07:50:01.001Z</time></trkpt><trkpt lat="44.01980009726698" lon="12.151715795326798"><ele>236.0</ele><time>2026-04-12T07:50:02.001Z</time></trkpt><trkpt lat="44.01974988262461" lon="12.151630374219573"><ele>235.49999999999997</ele><time>2026-04-12T07:50:03.001Z</time></trkpt><trkpt lat="44.0196910288918" lon="12.151554168815347"><ele>235.0</ele><time>2026-04-12T07:50:04.001Z</time></trkpt><trkpt lat="44.019623468370575" lon="12.15148889375803"><ele>235.0</ele><time>2026-04-12T07:50:05.001Z</time></trkpt><trkpt lat="44.019588879201436" lon="12.151380411381284"><ele>235.0</ele><time>2026-04-12T07:50:06.001Z</time></trkpt><trkpt lat="44.01955211139859" lon="12.151278446790178"><ele>235.0</ele><time>2026-04-12T07:50:07.001Z</time></trkpt><trkpt lat="44.019510156338235" lon="12.15118037698337"><ele>235.0</ele><time>2026-04-12T07:50:08.001Z</time></trkpt><trkpt lat="44.019458906160125" lon="12.151065746208118"><ele>235.0</ele><time>2026-04-12T07:50:09.001Z</time></trkpt><trkpt lat="44.019392096645205" lon="12.150955918029728"><ele>235.0</ele><time>2026-04-12T07:50:10.001Z</time></trkpt><trkpt lat="44.01930399154822" lon="12.150862136705468"><ele>235.0</ele><time>2026-04-12T07:50:11.001Z</time></trkpt><trkpt lat="44.01923153028714" lon="12.150774981771585"><ele>235.0</ele><time>2026-04-12T07:50:12.001Z</time></trkpt><trkpt lat="44.01916756844048" lon="12.150694049638158"><ele>235.0</ele><time>2026-04-12T07:50:13.001Z</time></trkpt><trkpt lat="44.019118033219726" lon="12.150603235697403"><ele>235.0</ele><time>2026-04-12T07:50:14.001Z</time></trkpt><trkpt lat="44.01907855668557" lon="12.150495449612892"><ele>234.2</ele><time>2026-04-12T07:50:15.001Z</time></trkpt><trkpt lat="44.01903300910555" lon="12.15035812017055"><ele>233.4</ele><time>2026-04-12T07:50:16.001Z</time></trkpt><trkpt lat="44.018997163579115" lon="12.150224220720766"><ele>232.60000000000002</ele><time>2026-04-12T07:50:17.001Z</time></trkpt><trkpt lat="44.01896508513615" lon="12.150073258435018"><ele>231.8</ele><time>2026-04-12T07:50:18.001Z</time></trkpt><trkpt lat="44.01894402100797" lon="12.149925917818358"><ele>231.0</ele><time>2026-04-12T07:50:19.001Z</time></trkpt><trkpt lat="44.01893274436679" lon="12.149780433164203"><ele>231.0</ele><time>2026-04-12T07:50:20Z</time></trkpt><trkpt lat="44.01893436757597" lon="12.149635500776279"><ele>231.00000000000003</ele><time>2026-04-12T07:50:21Z</time></trkpt><trkpt lat="44.01894406356073" lon="12.149491878202353"><ele>231.00000000000003</ele><time>2026-04-12T07:50:22Z</time></trkpt><trkpt lat="44.01895659318898" lon="12.1493644414867"><ele>231.0</ele><time>2026-04-12T07:50:23Z</time></trkpt><trkpt lat="44.01893843863369" lon="12.149243972477072"><ele>231.0</ele><time>2026-04-12T07:50:24Z</time></trkpt><trkpt lat="44.0189239877244" lon="12.149147436975307"><ele>231.0</ele><time>2026-04-12T07:50:25Z</time></trkpt><trkpt lat="44.018895563987236" lon="12.149049843490694"><ele>231.00000000000003</ele><time>2026-04-12T07:50:26Z</time></trkpt><trkpt lat="44.018877987967855" lon="12.148925927086754"><ele>231.00000000000003</ele><time>2026-04-12T07:50:27Z</time></trkpt><trkpt lat="44.018839555993544" lon="12.148791303164696"><ele>231.0</ele><time>2026-04-12T07:50:28Z</time></trkpt><trkpt lat="44.01879968950379" lon="12.148656581329822"><ele>231.0</ele><time>2026-04-12T07:50:29Z</time></trkpt><trkpt lat="44.01876746458083" lon="12.148547392251501"><ele>234.20000000000002</ele><time>2026-04-12T07:50:30Z</time></trkpt><trkpt lat="44.01871806697403" lon="12.148460664922446"><ele>237.40000000000003</ele><time>2026-04-12T07:50:31Z</time></trkpt><trkpt lat="44.018657798319026" lon="12.148372667519919"><ele>240.6</ele><time>2026-04-12T07:50:32Z</time></trkpt><trkpt lat="44.01857925586856" lon="12.148289964456087"><ele>243.8</ele><time>2026-04-12T07:50:33Z</time></trkpt><trkpt lat="44.01848480559374" lon="12.148216760949232"><ele>247.0</ele><time>2026-04-12T07:50:34Z</time></trkpt><trkpt lat="44.01839804485051" lon="12.148107414990118"><ele>247.6</ele><time>2026-04-12T07:50:35Z</time></trkpt><trkpt lat="44.018304698498035" lon="12.148013680378746"><ele>248.2</ele><time>2026-04-12T07:50:36Z</time></trkpt><trkpt lat="44.01820347949422" lon="12.147938813338872"><ele>248.8</ele><time>2026-04-12T07:50:37Z</time></trkpt><trkpt lat="44.0181241499943" lon="12.147839794302595"><ele>249.4</ele><time>2026-04-12T07:50:38Z</time></trkpt><trkpt lat="44.01805720261938" lon="12.147751469705307"><ele>250.0</ele><time>2026-04-12T07:50:39Z</time></trkpt><trkpt lat="44.01801979495994" lon="12.147643892962172"><ele>249.99999999999997</ele><time>2026-04-12T07:50:40Z</time></trkpt><trkpt lat="44.0179812875836" lon="12.147540959401814"><ele>250.0</ele><time>2026-04-12T07:50:41Z</time></trkpt><trkpt lat="44.01796308842062" lon="12.14743278228394"><ele>250.0</ele><time>2026-04-12T07:50:42Z</time></trkpt><trkpt lat="44.017969585768824" lon="12.147320233929157"><ele>250.0</ele><time>2026-04-12T07:50:43Z</time></trkpt><trkpt lat="44.0179796624596" lon="12.147180142796328"><ele>249.99999999999997</ele><time>2026-04-12T07:50:44Z</time></trkpt><trkpt lat="44.017972507175976" lon="12.147058025504116"><ele>250.0</ele><time>2026-04-12T07:50:45Z</time></trkpt><trkpt lat="44.017969102412955" lon="12.14694059600257"><ele>251.4</ele><time>2026-04-12T07:50:46Z</time></trkpt><trkpt lat="44.0179371079189" lon="12.146809088984993"><ele>252.8</ele><time>2026-04-12T07:50:47Z</time></trkpt><trkpt lat="44.017885146011565" lon="12.146686946398875"><ele>254.2</ele><time>2026-04-12T07:50:48Z</time></trkpt><trkpt lat="44.01782620662631" lon="12.146577013705254"><ele>255.6</ele><time>2026-04-12T07:50:49Z</time></trkpt><trkpt lat="44.01775370233112" lon="12.14648057725969"><ele>257.0</ele><time>2026-04-12T07:50:50Z</time></trkpt><trkpt lat="44.01768017951548" lon="12.146400626655195"><ele>257.0</ele><time>2026-04-12T07:50:51Z</time></trkpt><trkpt lat="44.01762685404614" lon="12.146311193836322"><ele>257.0</ele><time>2026-04-12T07:50:52Z</time></trkpt><trkpt lat="44.01752777869978" lon="12.146227251124111"><ele>257.0</ele><time>2026-04-12T07:50:54Z</time></trkpt><trkpt lat="44.017473988333506" lon="12.146147849106688"><ele>257.0</ele><time>2026-04-12T07:50:56Z</time></trkpt><trkpt lat="44.01742021045918" lon="12.146097240174068"><ele>257.0</ele><time>2026-04-12T07:50:59Z</time></trkpt><trkpt lat="44.017360846967115" lon="12.146055113674567"><ele>257.0</ele><time>2026-04-12T07:51:37.001Z</time></trkpt><trkpt lat="44.01723815761599" lon="12.1460055000045"><ele>257.2</ele><time>2026-04-12T07:51:39.001Z</time></trkpt><trkpt lat="44.017154859600524" lon="12.14601218395316"><ele>257.4</ele><time>2026-04-12T07:51:40.001Z</time></trkpt><trkpt lat="44.017062333562166" lon="12.14600528587772"><ele>257.6</ele><time>2026-04-12T07:51:41.001Z</time></trkpt><trkpt lat="44.016948358258745" lon="12.146017051513219"><ele>257.8</ele><time>2026-04-12T07:51:42.001Z</time></trkpt><trkpt lat="44.0168272512785" lon="12.146025079688554"><ele>258.0</ele><time>2026-04-12T07:51:43.001Z</time></trkpt><trkpt lat="44.01670896200452" lon="12.146029024563331"><ele>258.5</ele><time>2026-04-12T07:51:44.001Z</time></trkpt><trkpt lat="44.016593693212684" lon="12.146043256485221"><ele>259.0</ele><time>2026-04-12T07:51:45.001Z</time></trkpt><trkpt lat="44.01647087730913" lon="12.146058302095716"><ele>259.5</ele><time>2026-04-12T07:51:46.001Z</time></trkpt><trkpt lat="44.0163527104996" lon="12.146076086863255"><ele>260.0</ele><time>2026-04-12T07:51:47.001Z</time></trkpt><trkpt lat="44.01623953963956" lon="12.146088954008912"><ele>260.0</ele><time>2026-04-12T07:51:48.001Z</time></trkpt><trkpt lat="44.016138699863504" lon="12.146097187404905"><ele>260.0</ele><time>2026-04-12T07:51:49.001Z</time></trkpt><trkpt lat="44.01602749639017" lon="12.146105728062363"><ele>260.0</ele><time>2026-04-12T07:51:50.001Z</time></trkpt><trkpt lat="44.015911354065715" lon="12.146119084743514"><ele>260.0</ele><time>2026-04-12T07:51:51.001Z</time></trkpt><trkpt lat="44.01578874063685" lon="12.146139324647004"><ele>260.25</ele><time>2026-04-12T07:51:52.001Z</time></trkpt><trkpt lat="44.015669225145615" lon="12.146172027151568"><ele>260.5</ele><time>2026-04-12T07:51:53.001Z</time></trkpt><trkpt lat="44.01555212780324" lon="12.14620952472904"><ele>260.75</ele><time>2026-04-12T07:51:54.001Z</time></trkpt><trkpt lat="44.01543121479862" lon="12.146244825233968"><ele>261.0</ele><time>2026-04-12T07:51:55.001Z</time></trkpt><trkpt lat="44.01531254729932" lon="12.146284324891454"><ele>261.0</ele><time>2026-04-12T07:51:56.001Z</time></trkpt><trkpt lat="44.01519534717622" lon="12.146306198308405"><ele>261.0</ele><time>2026-04-12T07:51:57.001Z</time></trkpt><trkpt lat="44.015070867928685" lon="12.14628331684746"><ele>261.0</ele><time>2026-04-12T07:51:58.001Z</time></trkpt><trkpt lat="44.0149438465389" lon="12.14625999811999"><ele>261.0</ele><time>2026-04-12T07:51:59.001Z</time></trkpt><trkpt lat="44.014808593823815" lon="12.146223272986447"><ele>261.5</ele><time>2026-04-12T07:52:00.001Z</time></trkpt><trkpt lat="44.01467197483418" lon="12.146191238884018"><ele>262.0</ele><time>2026-04-12T07:52:01.001Z</time></trkpt><trkpt lat="44.01455237365971" lon="12.146142577996487"><ele>262.5</ele><time>2026-04-12T07:52:02.001Z</time></trkpt><trkpt lat="44.014451232467486" lon="12.146070801582857"><ele>263.0</ele><time>2026-04-12T07:52:03.001Z</time></trkpt><trkpt lat="44.01435691690644" lon="12.146026165918643"><ele>263.0</ele><time>2026-04-12T07:52:04.001Z</time></trkpt><trkpt lat="44.01426943886946" lon="12.146008857173497"><ele>263.0</ele><time>2026-04-12T07:52:05.001Z</time></trkpt><trkpt lat="44.01419703543146" lon="12.14597315978782"><ele>263.0</ele><time>2026-04-12T07:52:06.001Z</time></trkpt><trkpt lat="44.01412887995576" lon="12.145944217699554"><ele>263.0</ele><time>2026-04-12T07:52:07.001Z</time></trkpt><trkpt lat="44.01405570064466" lon="12.145914880480202"><ele>263.0</ele><time>2026-04-12T07:52:08.001Z</time></trkpt><trkpt lat="44.013970354727434" lon="12.145884296979427"><ele>263.0</ele><time>2026-04-12T07:52:09.001Z</time></trkpt><trkpt lat="44.01388518719013" lon="12.14584710178411"><ele>262.6</ele><time>2026-04-12T07:52:10.001Z</time></trkpt><trkpt lat="44.013801732105655" lon="12.14580093955186"><ele>262.20000000000005</ele><time>2026-04-12T07:52:11.001Z</time></trkpt><trkpt lat="44.013725899619615" lon="12.145740630022399"><ele>261.8</ele><time>2026-04-12T07:52:12.001Z</time></trkpt><trkpt lat="44.0136508294946" lon="12.145653352057982"><ele>261.40000000000003</ele><time>2026-04-12T07:52:13.001Z</time></trkpt><trkpt lat="44.013606081963374" lon="12.145523932762183"><ele>261.0</ele><time>2026-04-12T07:52:14.001Z</time></trkpt><trkpt lat="44.01356858144338" lon="12.145402682724601"><ele>261.0</ele><time>2026-04-12T07:52:15.001Z</time></trkpt><trkpt lat="44.01351667969892" lon="12.145264222225775"><ele>261.0</ele><time>2026-04-12T07:52:16.001Z</time></trkpt><trkpt lat="44.01345831976029" lon="12.145127544350977"><ele>261.0</ele><time>2026-04-12T07:52:17.001Z</time></trkpt><trkpt lat="44.01338948242954" lon="12.144992292669388"><ele>261.0</ele><time>2026-04-12T07:52:18.001Z</time></trkpt><trkpt lat="44.01330722606086" lon="12.14488332668384"><ele>262.5</ele><time>2026-04-12T07:52:19.001Z</time></trkpt><trkpt lat="44.01323068558288" lon="12.144763976959386"><ele>264.0</ele><time>2026-04-12T07:52:20.001Z</time></trkpt><trkpt lat="44.01315431683332" lon="12.14463877105083"><ele>265.5</ele><time>2026-04-12T07:52:21.001Z</time></trkpt><trkpt lat="44.013079081072405" lon="12.144512165501054"><ele>267.0</ele><time>2026-04-12T07:52:22.001Z</time></trkpt><trkpt lat="44.01301247305352" lon="12.144391778559568"><ele>267.0</ele><time>2026-04-12T07:52:23.001Z</time></trkpt><trkpt lat="44.012941663864794" lon="12.14426840926635"><ele>267.0</ele><time>2026-04-12T07:52:24.001Z</time></trkpt><trkpt lat="44.01287254536423" lon="12.144144157593207"><ele>267.0</ele><time>2026-04-12T07:52:25.001Z</time></trkpt><trkpt lat="44.012798325038105" lon="12.144012531044812"><ele>267.0</ele><time>2026-04-12T07:52:26Z</time></trkpt><trkpt lat="44.01271759913783" lon="12.14387016119427"><ele>268.0</ele><time>2026-04-12T07:52:27Z</time></trkpt><trkpt lat="44.012641810239565" lon="12.143730551564856"><ele>269.0</ele><time>2026-04-12T07:52:28Z</time></trkpt><trkpt lat="44.01256347673671" lon="12.143596742840932"><ele>270.0</ele><time>2026-04-12T07:52:29Z</time></trkpt><trkpt lat="44.01248740049397" lon="12.14345944427101"><ele>271.0</ele><time>2026-04-12T07:52:30Z</time></trkpt><trkpt lat="44.01241218691631" lon="12.143331144431375"><ele>273.40000000000003</ele><time>2026-04-12T07:52:31Z</time></trkpt><trkpt lat="44.01234013335117" lon="12.143207968725898"><ele>275.8</ele><time>2026-04-12T07:52:32Z</time></trkpt><trkpt lat="44.012271789339685" lon="12.143090949140724"><ele>278.20000000000005</ele><time>2026-04-12T07:52:33Z</time></trkpt><trkpt lat="44.01221480930074" lon="12.142977007292792"><ele>280.6</ele><time>2026-04-12T07:52:34Z</time></trkpt><trkpt lat="44.01217731135875" lon="12.142842027742478"><ele>283.0</ele><time>2026-04-12T07:52:35Z</time></trkpt><trkpt lat="44.01212859538001" lon="12.142708277167852"><ele>283.0</ele><time>2026-04-12T07:52:36Z</time></trkpt><trkpt lat="44.012083047169746" lon="12.142565594644644"><ele>283.0</ele><time>2026-04-12T07:52:37Z</time></trkpt><trkpt lat="44.01203611348545" lon="12.142426349009233"><ele>283.0</ele><time>2026-04-12T07:52:38Z</time></trkpt><trkpt lat="44.011999122464495" lon="12.14227959883597"><ele>283.0</ele><time>2026-04-12T07:52:39Z</time></trkpt><trkpt lat="44.01196384222302" lon="12.142148931042748"><ele>283.0</ele><time>2026-04-12T07:52:40Z</time></trkpt><trkpt lat="44.01194115201262" lon="12.142025327399455"><ele>283.4</ele><time>2026-04-12T07:52:41Z</time></trkpt><trkpt lat="44.01191401477598" lon="12.141898027952891"><ele>283.8</ele><time>2026-04-12T07:52:42Z</time></trkpt><trkpt lat="44.01188709297044" lon="12.14177331666928"><ele>284.2</ele><time>2026-04-12T07:52:43Z</time></trkpt><trkpt lat="44.01186616471096" lon="12.141669449041162"><ele>284.6</ele><time>2026-04-12T07:52:44Z</time></trkpt><trkpt lat="44.011840294376334" lon="12.14158380995286"><ele>285.0</ele><time>2026-04-12T07:52:45Z</time></trkpt><trkpt lat="44.01180555648394" lon="12.141401252957008"><ele>285.2</ele><time>2026-04-12T07:52:47Z</time></trkpt><trkpt lat="44.0117828676081" lon="12.141292538228402"><ele>285.4</ele><time>2026-04-12T07:52:48Z</time></trkpt><trkpt lat="44.011760078434314" lon="12.141196061542589"><ele>285.6</ele><time>2026-04-12T07:52:49Z</time></trkpt><trkpt lat="44.01171922507043" lon="12.14104652942677"><ele>285.8</ele><time>2026-04-12T07:52:51Z</time></trkpt><trkpt lat="44.01167961639062" lon="12.140910916179422"><ele>286.0</ele><time>2026-04-12T07:52:53Z</time></trkpt><trkpt lat="44.011649826574526" lon="12.140757303896931"><ele>287.16666666666663</ele><time>2026-04-12T07:52:55Z</time></trkpt><trkpt lat="44.011613097668686" lon="12.140603173303786"><ele>288.3333333333333</ele><time>2026-04-12T07:52:57Z</time></trkpt><trkpt lat="44.01158974586471" lon="12.140516861981766"><ele>289.5</ele><time>2026-04-12T07:52:58Z</time></trkpt><trkpt lat="44.01156700746901" lon="12.140415631768688"><ele>290.6666666666667</ele><time>2026-04-12T07:52:59Z</time></trkpt><trkpt lat="44.01154506552544" lon="12.140312204145859"><ele>291.83333333333337</ele><time>2026-04-12T07:53:00Z</time></trkpt><trkpt lat="44.01152880503096" lon="12.140198644974587"><ele>293.0</ele><time>2026-04-12T07:53:01Z</time></trkpt><trkpt lat="44.01153326198852" lon="12.140075123382568"><ele>293.0</ele><time>2026-04-12T07:53:02Z</time></trkpt><trkpt lat="44.01151911389174" lon="12.139956663280563"><ele>293.0</ele><time>2026-04-12T07:53:03Z</time></trkpt><trkpt lat="44.011514295926276" lon="12.139837162254562"><ele>293.0</ele><time>2026-04-12T07:53:04Z</time></trkpt><trkpt lat="44.01151297877362" lon="12.139718183244364"><ele>293.0</ele><time>2026-04-12T07:53:05Z</time></trkpt><trkpt lat="44.011512643985945" lon="12.139598262167405"><ele>293.0</ele><time>2026-04-12T07:53:06Z</time></trkpt><trkpt lat="44.011513279784786" lon="12.139482607193493"><ele>293.0</ele><time>2026-04-12T07:53:07Z</time></trkpt><trkpt lat="44.01151644124188" lon="12.139374169382352"><ele>293.33333333333337</ele><time>2026-04-12T07:53:08Z</time></trkpt><trkpt lat="44.01151727113358" lon="12.139272717472211"><ele>293.6666666666667</ele><time>2026-04-12T07:53:09Z</time></trkpt><trkpt lat="44.01151930156742" lon="12.139167078340083"><ele>294.0</ele><time>2026-04-12T07:53:10Z</time></trkpt><trkpt lat="44.01152041897309" lon="12.139064428807046"><ele>294.3333333333333</ele><time>2026-04-12T07:53:11Z</time></trkpt><trkpt lat="44.01152722229255" lon="12.13897622120689"><ele>294.66666666666663</ele><time>2026-04-12T07:53:12Z</time></trkpt><trkpt lat="44.01153959787565" lon="12.138807327811751"><ele>295.0</ele><time>2026-04-12T07:53:14Z</time></trkpt><trkpt lat="44.011545656105696" lon="12.138638277104072"><ele>295.25</ele><time>2026-04-12T07:53:16Z</time></trkpt><trkpt lat="44.01155561663003" lon="12.138464175441577"><ele>295.5</ele><time>2026-04-12T07:53:18Z</time></trkpt><trkpt lat="44.011574149431226" lon="12.138318323771319"><ele>295.75</ele><time>2026-04-12T07:53:20Z</time></trkpt><trkpt lat="44.01159125374156" lon="12.138187879456082"><ele>296.0</ele><time>2026-04-12T07:53:22Z</time></trkpt><trkpt lat="44.01163307409741" lon="12.138006692288473"><ele>294.6666666666667</ele><time>2026-04-12T07:53:24Z</time></trkpt><trkpt lat="44.01166152094327" lon="12.137894089180035"><ele>293.33333333333337</ele><time>2026-04-12T07:53:25Z</time></trkpt><trkpt lat="44.01169218038208" lon="12.137780842236786"><ele>292.0</ele><time>2026-04-12T07:53:26Z</time></trkpt><trkpt lat="44.01173534291221" lon="12.13768768224687"><ele>290.6666666666667</ele><time>2026-04-12T07:53:27Z</time></trkpt><trkpt lat="44.01178258807559" lon="12.137604095647662"><ele>289.3333333333333</ele><time>2026-04-12T07:53:28Z</time></trkpt><trkpt lat="44.01183176685004" lon="12.137521399046452"><ele>288.0</ele><time>2026-04-12T07:53:29Z</time></trkpt><trkpt lat="44.011872045308124" lon="12.137439459715656"><ele>288.6666666666667</ele><time>2026-04-12T07:53:30Z</time></trkpt><trkpt lat="44.01191087999046" lon="12.137354272338374"><ele>289.3333333333333</ele><time>2026-04-12T07:53:31Z</time></trkpt><trkpt lat="44.01196134213478" lon="12.137299550608034"><ele>290.0</ele><time>2026-04-12T07:53:32Z</time></trkpt><trkpt lat="44.01196671488149" lon="12.137166302411993"><ele>290.66666666666663</ele><time>2026-04-12T07:53:33Z</time></trkpt><trkpt lat="44.01198623672447" lon="12.137053776803366"><ele>291.3333333333333</ele><time>2026-04-12T07:53:34Z</time></trkpt><trkpt lat="44.01200536312622" lon="12.136928021677354"><ele>292.0</ele><time>2026-04-12T07:53:35Z</time></trkpt><trkpt lat="44.012051997622414" lon="12.136804908297773"><ele>292.0</ele><time>2026-04-12T07:53:36.001Z</time></trkpt><trkpt lat="44.0120693822046" lon="12.136684712823747"><ele>292.0</ele><time>2026-04-12T07:53:37.001Z</time></trkpt><trkpt lat="44.0120941418092" lon="12.136580444762343"><ele>292.0</ele><time>2026-04-12T07:53:38.001Z</time></trkpt><trkpt lat="44.01210297692279" lon="12.136475009878298"><ele>292.0</ele><time>2026-04-12T07:53:39.001Z</time></trkpt><trkpt lat="44.0120853300254" lon="12.13636489926432"><ele>292.0</ele><time>2026-04-12T07:53:40.001Z</time></trkpt><trkpt lat="44.0120389758537" lon="12.136257667129104"><ele>292.0</ele><time>2026-04-12T07:53:41.001Z</time></trkpt><trkpt lat="44.01197219402242" lon="12.136148553358082"><ele>290.25</ele><time>2026-04-12T07:53:42.001Z</time></trkpt><trkpt lat="44.01189115684411" lon="12.136038823501293"><ele>288.5</ele><time>2026-04-12T07:53:43.001Z</time></trkpt><trkpt lat="44.011800945309204" lon="12.135929943123507"><ele>286.75</ele><time>2026-04-12T07:53:44.001Z</time></trkpt><trkpt lat="44.01170730022305" lon="12.135824348912948"><ele>285.0</ele><time>2026-04-12T07:53:45.001Z</time></trkpt><trkpt lat="44.01161492325179" lon="12.135705027059677"><ele>285.0</ele><time>2026-04-12T07:53:46.001Z</time></trkpt><trkpt lat="44.01151088138631" lon="12.135598899629848"><ele>285.0</ele><time>2026-04-12T07:53:47.001Z</time></trkpt><trkpt lat="44.0113986565525" lon="12.135518633746399"><ele>285.0</ele><time>2026-04-12T07:53:48.001Z</time></trkpt><trkpt lat="44.011296336312505" lon="12.135420925961318"><ele>285.0</ele><time>2026-04-12T07:53:49.001Z</time></trkpt><trkpt lat="44.01118362926804" lon="12.135325993585028"><ele>285.0</ele><time>2026-04-12T07:53:50.001Z</time></trkpt><trkpt lat="44.0110826736473" lon="12.135229497379584"><ele>285.0</ele><time>2026-04-12T07:53:51.001Z</time></trkpt><trkpt lat="44.010982120981495" lon="12.135135905703944"><ele>285.0</ele><time>2026-04-12T07:53:52.001Z</time></trkpt><trkpt lat="44.010879925176766" lon="12.135043263810324"><ele>285.0</ele><time>2026-04-12T07:53:53.001Z</time></trkpt><trkpt lat="44.010776837926635" lon="12.134956053491006"><ele>285.5</ele><time>2026-04-12T07:53:54.001Z</time></trkpt><trkpt lat="44.01067848906962" lon="12.134878527339906"><ele>286.0</ele><time>2026-04-12T07:53:55.001Z</time></trkpt><trkpt lat="44.010574484451816" lon="12.13479224336988"><ele>286.5</ele><time>2026-04-12T07:53:56.001Z</time></trkpt><trkpt lat="44.01047825721141" lon="12.13470731817145"><ele>287.0</ele><time>2026-04-12T07:53:57.001Z</time></trkpt><trkpt lat="44.01038884064257" lon="12.134628304452509"><ele>287.0</ele><time>2026-04-12T07:53:58.001Z</time></trkpt><trkpt lat="44.01030913499288" lon="12.134555522917205"><ele>287.0</ele><time>2026-04-12T07:53:59.001Z</time></trkpt><trkpt lat="44.010201159765" lon="12.134510726143864"><ele>287.0</ele><time>2026-04-12T07:54:00.001Z</time></trkpt><trkpt lat="44.01008885680603" lon="12.134471032879436"><ele>287.0</ele><time>2026-04-12T07:54:01.001Z</time></trkpt><trkpt lat="44.00997100315865" lon="12.134440863569647"><ele>287.0</ele><time>2026-04-12T07:54:02.001Z</time></trkpt><trkpt lat="44.00985651507018" lon="12.134416690241526"><ele>286.4</ele><time>2026-04-12T07:54:03.001Z</time></trkpt><trkpt lat="44.00974942585168" lon="12.134389545737314"><ele>285.79999999999995</ele><time>2026-04-12T07:54:04.001Z</time></trkpt><trkpt lat="44.00965366690163" lon="12.134368024579752"><ele>285.2</ele><time>2026-04-12T07:54:05.001Z</time></trkpt><trkpt lat="44.009565396703195" lon="12.13433897553315"><ele>284.59999999999997</ele><time>2026-04-12T07:54:06.001Z</time></trkpt><trkpt lat="44.009466177780254" lon="12.134315151352057"><ele>284.0</ele><time>2026-04-12T07:54:07.001Z</time></trkpt><trkpt lat="44.009361066511254" lon="12.134270617267564"><ele>284.0</ele><time>2026-04-12T07:54:08.001Z</time></trkpt><trkpt lat="44.009248918969334" lon="12.134218203684018"><ele>284.0</ele><time>2026-04-12T07:54:09.001Z</time></trkpt><trkpt lat="44.009137825601066" lon="12.134165638043154"><ele>284.0</ele><time>2026-04-12T07:54:10.001Z</time></trkpt><trkpt lat="44.009026273474554" lon="12.134110923978099"><ele>284.0</ele><time>2026-04-12T07:54:11.001Z</time></trkpt><trkpt lat="44.00891529767753" lon="12.13405667294898"><ele>284.4</ele><time>2026-04-12T07:54:12.001Z</time></trkpt><trkpt lat="44.00881074220556" lon="12.13399981831703"><ele>284.79999999999995</ele><time>2026-04-12T07:54:13.001Z</time></trkpt><trkpt lat="44.00871005426738" lon="12.133942897532899"><ele>285.20000000000005</ele><time>2026-04-12T07:54:14.001Z</time></trkpt><trkpt lat="44.008612036852846" lon="12.133885058268124"><ele>285.6</ele><time>2026-04-12T07:54:15.001Z</time></trkpt><trkpt lat="44.008506060422356" lon="12.133846901639009"><ele>286.0</ele><time>2026-04-12T07:54:16.001Z</time></trkpt><trkpt lat="44.00839769559307" lon="12.133809193736067"><ele>284.6</ele><time>2026-04-12T07:54:17.001Z</time></trkpt><trkpt lat="44.00829267860858" lon="12.133770155674316"><ele>283.20000000000005</ele><time>2026-04-12T07:54:18.001Z</time></trkpt><trkpt lat="44.008191253720334" lon="12.133732239928719"><ele>281.79999999999995</ele><time>2026-04-12T07:54:19.001Z</time></trkpt><trkpt lat="44.008084609041326" lon="12.13369247439764"><ele>280.4</ele><time>2026-04-12T07:54:20.001Z</time></trkpt><trkpt lat="44.00797532211086" lon="12.13366452241176"><ele>279.0</ele><time>2026-04-12T07:54:21.001Z</time></trkpt><trkpt lat="44.00786280976422" lon="12.133636446133375"><ele>279.0</ele><time>2026-04-12T07:54:22.001Z</time></trkpt><trkpt lat="44.00775727819761" lon="12.133614423361173"><ele>279.0</ele><time>2026-04-12T07:54:23.001Z</time></trkpt><trkpt lat="44.00764933022371" lon="12.133594927969511"><ele>279.0</ele><time>2026-04-12T07:54:24.001Z</time></trkpt><trkpt lat="44.007547268335706" lon="12.133573712075258"><ele>279.0</ele><time>2026-04-12T07:54:25.001Z</time></trkpt><trkpt lat="44.007444888817595" lon="12.133555059447183"><ele>279.0</ele><time>2026-04-12T07:54:26.001Z</time></trkpt><trkpt lat="44.00735020108973" lon="12.133532141701277"><ele>278.0</ele><time>2026-04-12T07:54:27.001Z</time></trkpt><trkpt lat="44.00725135395856" lon="12.133501888854468"><ele>277.0</ele><time>2026-04-12T07:54:28.001Z</time></trkpt><trkpt lat="44.00714820409367" lon="12.133463744859949"><ele>276.0</ele><time>2026-04-12T07:54:29.001Z</time></trkpt><trkpt lat="44.00704547417614" lon="12.133423772070664"><ele>275.0</ele><time>2026-04-12T07:54:30.001Z</time></trkpt><trkpt lat="44.00694393554656" lon="12.133392881682576"><ele>274.0</ele><time>2026-04-12T07:54:31.001Z</time></trkpt><trkpt lat="44.00683645985126" lon="12.133365273873407"><ele>274.0</ele><time>2026-04-12T07:54:32Z</time></trkpt><trkpt lat="44.00673609685223" lon="12.13333862586284"><ele>274.0</ele><time>2026-04-12T07:54:33Z</time></trkpt><trkpt lat="44.006645190906774" lon="12.133323495064685"><ele>274.0</ele><time>2026-04-12T07:54:34Z</time></trkpt><trkpt lat="44.006551746476056" lon="12.133298892816693"><ele>274.0</ele><time>2026-04-12T07:54:35Z</time></trkpt><trkpt lat="44.00646702968243" lon="12.133284540449154"><ele>274.0</ele><time>2026-04-12T07:54:36Z</time></trkpt><trkpt lat="44.006388379223715" lon="12.133272011857711"><ele>272.0</ele><time>2026-04-12T07:54:37Z</time></trkpt><trkpt lat="44.006292304213076" lon="12.133265098207024"><ele>270.0</ele><time>2026-04-12T07:54:38Z</time></trkpt><trkpt lat="44.00618499038237" lon="12.133279652437952"><ele>268.0</ele><time>2026-04-12T07:54:39Z</time></trkpt><trkpt lat="44.00606847283127" lon="12.133322182793096"><ele>266.0</ele><time>2026-04-12T07:54:40Z</time></trkpt><trkpt lat="44.0059427759388" lon="12.13338912852253"><ele>265.75</ele><time>2026-04-12T07:54:41Z</time></trkpt><trkpt lat="44.00581440651711" lon="12.133472784379137"><ele>265.5</ele><time>2026-04-12T07:54:42Z</time></trkpt><trkpt lat="44.005691545840705" lon="12.133553612315731"><ele>265.25</ele><time>2026-04-12T07:54:43Z</time></trkpt><trkpt lat="44.00556470028626" lon="12.133628540106724"><ele>265.0</ele><time>2026-04-12T07:54:44Z</time></trkpt><trkpt lat="44.0054368258417" lon="12.133710206716975"><ele>265.0</ele><time>2026-04-12T07:54:45Z</time></trkpt><trkpt lat="44.005312416877395" lon="12.133782820696416"><ele>265.0</ele><time>2026-04-12T07:54:46Z</time></trkpt><trkpt lat="44.005181109191895" lon="12.133837943060977"><ele>265.0</ele><time>2026-04-12T07:54:47Z</time></trkpt><trkpt lat="44.00505684758223" lon="12.133911962686733"><ele>265.0</ele><time>2026-04-12T07:54:48Z</time></trkpt><trkpt lat="44.00493615506154" lon="12.133979515188763"><ele>266.0</ele><time>2026-04-12T07:54:49Z</time></trkpt><trkpt lat="44.00482783053114" lon="12.134039799901323"><ele>267.0</ele><time>2026-04-12T07:54:50Z</time></trkpt><trkpt lat="44.004722856565444" lon="12.13410412490028"><ele>268.0</ele><time>2026-04-12T07:54:51Z</time></trkpt><trkpt lat="44.004610385771784" lon="12.134172136028422"><ele>269.0</ele><time>2026-04-12T07:54:52Z</time></trkpt><trkpt lat="44.004494851433066" lon="12.13423794389399"><ele>269.5</ele><time>2026-04-12T07:54:53Z</time></trkpt><trkpt lat="44.004379765783376" lon="12.134301195629709"><ele>270.0</ele><time>2026-04-12T07:54:54Z</time></trkpt><trkpt lat="44.00426298028997" lon="12.13436671394387"><ele>270.5</ele><time>2026-04-12T07:54:55Z</time></trkpt><trkpt lat="44.004151353896525" lon="12.134430270035113"><ele>271.0</ele><time>2026-04-12T07:54:56Z</time></trkpt><trkpt lat="44.00404321261576" lon="12.134480675793418"><ele>271.0</ele><time>2026-04-12T07:54:57Z</time></trkpt><trkpt lat="44.003948657492984" lon="12.13451823551824"><ele>271.0</ele><time>2026-04-12T07:54:58Z</time></trkpt><trkpt lat="44.0038643921421" lon="12.134547237451908"><ele>271.0</ele><time>2026-04-12T07:54:59Z</time></trkpt><trkpt lat="44.00377402957885" lon="12.134576358224571"><ele>271.0</ele><time>2026-04-12T07:55:00Z</time></trkpt><trkpt lat="44.00367849191718" lon="12.134610313583087"><ele>271.0</ele><time>2026-04-12T07:55:01Z</time></trkpt><trkpt lat="44.003598506806426" lon="12.134672552675555"><ele>271.0</ele><time>2026-04-12T07:55:02Z</time></trkpt><trkpt lat="44.003527849120616" lon="12.13470727387915"><ele>271.0</ele><time>2026-04-12T07:55:03Z</time></trkpt><trkpt lat="44.00346376825921" lon="12.134746071749284"><ele>271.0</ele><time>2026-04-12T07:55:04Z</time></trkpt><trkpt lat="44.003405110740566" lon="12.13479841218703"><ele>271.0</ele><time>2026-04-12T07:55:05Z</time></trkpt><trkpt lat="44.00334621772806" lon="12.134881256704608"><ele>271.0</ele><time>2026-04-12T07:55:06Z</time></trkpt><trkpt lat="44.00328183755295" lon="12.13499087649188"><ele>271.0</ele><time>2026-04-12T07:55:07Z</time></trkpt><trkpt lat="44.003220937300924" lon="12.1351013156971"><ele>271.6</ele><time>2026-04-12T07:55:08Z</time></trkpt><trkpt lat="44.00316910332794" lon="12.135185763393032"><ele>272.20000000000005</ele><time>2026-04-12T07:55:09Z</time></trkpt><trkpt lat="44.003113458657616" lon="12.13528805475502"><ele>272.79999999999995</ele><time>2026-04-12T07:55:10Z</time></trkpt><trkpt lat="44.00305079372797" lon="12.135399264235254"><ele>273.4</ele><time>2026-04-12T07:55:11Z</time></trkpt><trkpt lat="44.00298546117178" lon="12.135511274682136"><ele>274.0</ele><time>2026-04-12T07:55:12Z</time></trkpt><trkpt lat="44.00291758345761" lon="12.135631429121917"><ele>275.59999999999997</ele><time>2026-04-12T07:55:13Z</time></trkpt><trkpt lat="44.002845527309546" lon="12.13575562106804"><ele>277.2</ele><time>2026-04-12T07:55:14Z</time></trkpt><trkpt lat="44.00277464319401" lon="12.135879542327551"><ele>278.79999999999995</ele><time>2026-04-12T07:55:15Z</time></trkpt><trkpt lat="44.00270279713774" lon="12.135993448224268"><ele>280.4</ele><time>2026-04-12T07:55:16Z</time></trkpt><trkpt lat="44.00263775250699" lon="12.136104124372771"><ele>282.0</ele><time>2026-04-12T07:55:17Z</time></trkpt><trkpt lat="44.002576206701434" lon="12.136215679901321"><ele>282.0</ele><time>2026-04-12T07:55:18Z</time></trkpt><trkpt lat="44.00251702528578" lon="12.136316609494983"><ele>282.0</ele><time>2026-04-12T07:55:19Z</time></trkpt><trkpt lat="44.002451657269745" lon="12.136424484051716"><ele>282.0</ele><time>2026-04-12T07:55:20Z</time></trkpt><trkpt lat="44.00238111356702" lon="12.136536862221005"><ele>282.0</ele><time>2026-04-12T07:55:21Z</time></trkpt><trkpt lat="44.00231247555218" lon="12.136637403570303"><ele>282.0</ele><time>2026-04-12T07:55:22Z</time></trkpt><trkpt lat="44.002241630169785" lon="12.136723170431223"><ele>283.75</ele><time>2026-04-12T07:55:23Z</time></trkpt><trkpt lat="44.00215627504561" lon="12.136806419265026"><ele>285.5</ele><time>2026-04-12T07:55:24Z</time></trkpt><trkpt lat="44.00205473014061" lon="12.136885826949644"><ele>287.25</ele><time>2026-04-12T07:55:25Z</time></trkpt><trkpt lat="44.00195270050313" lon="12.136967274883174"><ele>289.0</ele><time>2026-04-12T07:55:26Z</time></trkpt><trkpt lat="44.00185745817561" lon="12.137050844868078"><ele>289.0</ele><time>2026-04-12T07:55:27Z</time></trkpt><trkpt lat="44.00176370097072" lon="12.137133413152513"><ele>289.0</ele><time>2026-04-12T07:55:28Z</time></trkpt><trkpt lat="44.00167260314163" lon="12.137200811515937"><ele>289.0</ele><time>2026-04-12T07:55:29Z</time></trkpt><trkpt lat="44.001580175395766" lon="12.137267454848121"><ele>289.0</ele><time>2026-04-12T07:55:30.001Z</time></trkpt><trkpt lat="44.00148224911439" lon="12.137324914338276"><ele>289.0</ele><time>2026-04-12T07:55:31.001Z</time></trkpt><trkpt lat="44.00138427873533" lon="12.137369385127217"><ele>288.0</ele><time>2026-04-12T07:55:32.001Z</time></trkpt><trkpt lat="44.00128872964609" lon="12.137402395464981"><ele>287.0</ele><time>2026-04-12T07:55:33.001Z</time></trkpt><trkpt lat="44.00119549811694" lon="12.137433346313324"><ele>286.0</ele><time>2026-04-12T07:55:34.001Z</time></trkpt><trkpt lat="44.00110339124937" lon="12.137473031564442"><ele>285.0</ele><time>2026-04-12T07:55:35.001Z</time></trkpt><trkpt lat="44.001023029026804" lon="12.137505695887862"><ele>284.0</ele><time>2026-04-12T07:55:36.001Z</time></trkpt><trkpt lat="44.000937252311154" lon="12.137529652061287"><ele>284.0</ele><time>2026-04-12T07:55:37.001Z</time></trkpt><trkpt lat="44.00085166104572" lon="12.13756672443973"><ele>284.0</ele><time>2026-04-12T07:55:38.001Z</time></trkpt><trkpt lat="44.000754316905635" lon="12.137592609026049"><ele>284.0</ele><time>2026-04-12T07:55:39.001Z</time></trkpt><trkpt lat="44.000658654255545" lon="12.137618141500516"><ele>284.0</ele><time>2026-04-12T07:55:40.001Z</time></trkpt><trkpt lat="44.00056682203904" lon="12.137651989066082"><ele>284.0</ele><time>2026-04-12T07:55:41.001Z</time></trkpt><trkpt lat="44.000500504229294" lon="12.137672340073314"><ele>284.0</ele><time>2026-04-12T07:55:42.001Z</time></trkpt><trkpt lat="44.00041380118217" lon="12.137712388516444"><ele>284.2</ele><time>2026-04-12T07:55:44.001Z</time></trkpt><trkpt lat="44.00035907660236" lon="12.137767274071296"><ele>284.4</ele><time>2026-04-12T07:55:45.001Z</time></trkpt><trkpt lat="44.00028264457787" lon="12.137838954045542"><ele>284.6</ele><time>2026-04-12T07:55:46.001Z</time></trkpt><trkpt lat="44.00019717637012" lon="12.137932097614168"><ele>284.8</ele><time>2026-04-12T07:55:47.001Z</time></trkpt><trkpt lat="44.00012668494072" lon="12.13803803873622"><ele>285.0</ele><time>2026-04-12T07:55:48.001Z</time></trkpt><trkpt lat="44.000064747910145" lon="12.13814028111049"><ele>284.3333333333333</ele><time>2026-04-12T07:55:49.001Z</time></trkpt><trkpt lat="44.000004236599224" lon="12.138233931995403"><ele>283.6666666666667</ele><time>2026-04-12T07:55:50.001Z</time></trkpt><trkpt lat="43.99994743900334" lon="12.138310667708256"><ele>283.0</ele><time>2026-04-12T07:55:51.001Z</time></trkpt><trkpt lat="43.99989547808507" lon="12.138391999087077"><ele>282.33333333333337</ele><time>2026-04-12T07:55:52.001Z</time></trkpt><trkpt lat="43.99983910259764" lon="12.138477254364284"><ele>281.6666666666667</ele><time>2026-04-12T07:55:53.001Z</time></trkpt><trkpt lat="43.99975871596195" lon="12.138547822006448"><ele>281.0</ele><time>2026-04-12T07:55:54.001Z</time></trkpt><trkpt lat="43.999664810723964" lon="12.138613643504353"><ele>281.0</ele><time>2026-04-12T07:55:55.001Z</time></trkpt><trkpt lat="43.99955027051903" lon="12.138671958753163"><ele>281.0</ele><time>2026-04-12T07:55:56.001Z</time></trkpt><trkpt lat="43.99944881217633" lon="12.138715091048635"><ele>281.0</ele><time>2026-04-12T07:55:57.001Z</time></trkpt><trkpt lat="43.999342476745824" lon="12.138754173961164"><ele>281.0</ele><time>2026-04-12T07:55:58.001Z</time></trkpt><trkpt lat="43.999245054918156" lon="12.138795430083025"><ele>281.0</ele><time>2026-04-12T07:55:59.001Z</time></trkpt><trkpt lat="43.999141436826136" lon="12.138864347747775"><ele>280.5</ele><time>2026-04-12T07:56:00.001Z</time></trkpt><trkpt lat="43.99905162280652" lon="12.138972419328471"><ele>280.0</ele><time>2026-04-12T07:56:01.001Z</time></trkpt><trkpt lat="43.99896289493119" lon="12.139097409755129"><ele>279.5</ele><time>2026-04-12T07:56:02.001Z</time></trkpt><trkpt lat="43.99887764310143" lon="12.139223091494108"><ele>279.0</ele><time>2026-04-12T07:56:03.001Z</time></trkpt><trkpt lat="43.99879586677081" lon="12.139350717656594"><ele>279.0</ele><time>2026-04-12T07:56:04.001Z</time></trkpt><trkpt lat="43.99871261545694" lon="12.139475451368508"><ele>279.0</ele><time>2026-04-12T07:56:05.001Z</time></trkpt><trkpt lat="43.998634626289466" lon="12.139580712537619"><ele>279.0</ele><time>2026-04-12T07:56:06.001Z</time></trkpt><trkpt lat="43.99856149630953" lon="12.139665088163305"><ele>279.0</ele><time>2026-04-12T07:56:07.001Z</time></trkpt><trkpt lat="43.99849418314082" lon="12.139718821566177"><ele>279.0</ele><time>2026-04-12T07:56:08.001Z</time></trkpt><trkpt lat="43.998413143176016" lon="12.139758742797142"><ele>279.0</ele><time>2026-04-12T07:56:09.001Z</time></trkpt><trkpt lat="43.99833584864584" lon="12.139739060783237"><ele>279.0</ele><time>2026-04-12T07:56:10.001Z</time></trkpt><trkpt lat="43.99820632598079" lon="12.139718137561056"><ele>279.0</ele><time>2026-04-12T07:56:12.001Z</time></trkpt><trkpt lat="43.99813515145766" lon="12.139688408154653"><ele>279.0</ele><time>2026-04-12T07:56:13.001Z</time></trkpt><trkpt lat="43.99806650956134" lon="12.139667884854841"><ele>279.0</ele><time>2026-04-12T07:56:14.001Z</time></trkpt><trkpt lat="43.99799507222071" lon="12.139647079817864"><ele>279.0</ele><time>2026-04-12T07:56:15.001Z</time></trkpt><trkpt lat="43.99790496597416" lon="12.139622557554118"><ele>279.5</ele><time>2026-04-12T07:56:16.001Z</time></trkpt><trkpt lat="43.99782204214666" lon="12.139599063254144"><ele>280.0</ele><time>2026-04-12T07:56:17.001Z</time></trkpt><trkpt lat="43.99773453307829" lon="12.139569433559137"><ele>280.5</ele><time>2026-04-12T07:56:18.001Z</time></trkpt><trkpt lat="43.99764758070045" lon="12.139527809629469"><ele>281.0</ele><time>2026-04-12T07:56:19.001Z</time></trkpt><trkpt lat="43.997573553629245" lon="12.139475514929448"><ele>281.5</ele><time>2026-04-12T07:56:20.001Z</time></trkpt><trkpt lat="43.9975005789322" lon="12.13941096883132"><ele>282.0</ele><time>2026-04-12T07:56:21.001Z</time></trkpt><trkpt lat="43.99741851901163" lon="12.139328217832334"><ele>283.8333333333333</ele><time>2026-04-12T07:56:22.001Z</time></trkpt><trkpt lat="43.997346178047486" lon="12.13925023736201"><ele>285.6666666666667</ele><time>2026-04-12T07:56:23.001Z</time></trkpt><trkpt lat="43.99726579034279" lon="12.139160091251929"><ele>287.5</ele><time>2026-04-12T07:56:24.001Z</time></trkpt><trkpt lat="43.9972000853532" lon="12.139081704063335"><ele>289.33333333333337</ele><time>2026-04-12T07:56:25.001Z</time></trkpt><trkpt lat="43.997145401700884" lon="12.139014710365855"><ele>291.1666666666667</ele><time>2026-04-12T07:56:26.001Z</time></trkpt><trkpt lat="43.997091532151494" lon="12.138948713948356"><ele>293.0</ele><time>2026-04-12T07:56:27.001Z</time></trkpt><trkpt lat="43.997042761411805" lon="12.1388889642828"><ele>293.0</ele><time>2026-04-12T07:56:28.001Z</time></trkpt><trkpt lat="43.99698649355963" lon="12.13884340781702"><ele>293.0</ele><time>2026-04-12T07:56:29.001Z</time></trkpt><trkpt lat="43.99693246616832" lon="12.138778857293874"><ele>293.0</ele><time>2026-04-12T07:56:30.001Z</time></trkpt><trkpt lat="43.99686735393987" lon="12.138703250510925"><ele>293.0</ele><time>2026-04-12T07:56:31.001Z</time></trkpt><trkpt lat="43.996807055117166" lon="12.138623806550447"><ele>293.0</ele><time>2026-04-12T07:56:32.001Z</time></trkpt><trkpt lat="43.996738562184525" lon="12.138558430857419"><ele>293.0</ele><time>2026-04-12T07:56:33.001Z</time></trkpt><trkpt lat="43.99667083196123" lon="12.138497999806768"><ele>295.1666666666667</ele><time>2026-04-12T07:56:34.001Z</time></trkpt><trkpt lat="43.996597621344655" lon="12.138464061804836"><ele>297.33333333333337</ele><time>2026-04-12T07:56:35.001Z</time></trkpt><trkpt lat="43.99653385988062" lon="12.138416954505605"><ele>299.5</ele><time>2026-04-12T07:56:36.001Z</time></trkpt><trkpt lat="43.9964620520908" lon="12.138376313892408"><ele>301.6666666666667</ele><time>2026-04-12T07:56:37.001Z</time></trkpt><trkpt lat="43.996382201003975" lon="12.138362397004993"><ele>303.8333333333333</ele><time>2026-04-12T07:56:38Z</time></trkpt><trkpt lat="43.99630616548325" lon="12.138365877585375"><ele>306.0</ele><time>2026-04-12T07:56:39Z</time></trkpt><trkpt lat="43.99623292858062" lon="12.138369256501509"><ele>306.0</ele><time>2026-04-12T07:56:40Z</time></trkpt><trkpt lat="43.996145614820854" lon="12.138397043847979"><ele>306.0</ele><time>2026-04-12T07:56:41Z</time></trkpt><trkpt lat="43.996061355539084" lon="12.138433127223575"><ele>306.0</ele><time>2026-04-12T07:56:42Z</time></trkpt><trkpt lat="43.9959721251596" lon="12.138478999925418"><ele>306.0</ele><time>2026-04-12T07:56:43Z</time></trkpt><trkpt lat="43.99589161338263" lon="12.138525036592927"><ele>306.0</ele><time>2026-04-12T07:56:44Z</time></trkpt><trkpt lat="43.99579014456229" lon="12.13858394929712"><ele>307.6666666666667</ele><time>2026-04-12T07:56:45Z</time></trkpt><trkpt lat="43.99568903553605" lon="12.138644216624899"><ele>309.3333333333333</ele><time>2026-04-12T07:56:46Z</time></trkpt><trkpt lat="43.99559963299403" lon="12.138699191559303"><ele>311.0</ele><time>2026-04-12T07:56:47Z</time></trkpt><trkpt lat="43.99552123547101" lon="12.138750408710468"><ele>312.66666666666663</ele><time>2026-04-12T07:56:48Z</time></trkpt><trkpt lat="43.99545277811991" lon="12.13879513191793"><ele>314.3333333333333</ele><time>2026-04-12T07:56:49Z</time></trkpt><trkpt lat="43.99539318945887" lon="12.138829263118799"><ele>316.0</ele><time>2026-04-12T07:56:50Z</time></trkpt><trkpt lat="43.995321787313564" lon="12.138870625542593"><ele>316.0</ele><time>2026-04-12T07:56:51Z</time></trkpt><trkpt lat="43.995239517859545" lon="12.138932503494706"><ele>316.0</ele><time>2026-04-12T07:56:52Z</time></trkpt><trkpt lat="43.995168823031435" lon="12.138988780939014"><ele>316.0</ele><time>2026-04-12T07:56:53Z</time></trkpt><trkpt lat="43.99510530687697" lon="12.139040471152958"><ele>316.0</ele><time>2026-04-12T07:56:54Z</time></trkpt><trkpt lat="43.9950387382256" lon="12.139094645545168"><ele>316.0</ele><time>2026-04-12T07:56:55Z</time></trkpt><trkpt lat="43.994972416386375" lon="12.139147161087836"><ele>316.0</ele><time>2026-04-12T07:56:56Z</time></trkpt><trkpt lat="43.99490275055412" lon="12.139198657261357"><ele>316.66666666666663</ele><time>2026-04-12T07:56:57Z</time></trkpt><trkpt lat="43.9948281333258" lon="12.139250517356226"><ele>317.3333333333333</ele><time>2026-04-12T07:56:58Z</time></trkpt><trkpt lat="43.99475561302752" lon="12.139296929819482"><ele>318.0</ele><time>2026-04-12T07:56:59Z</time></trkpt><trkpt lat="43.99466933000545" lon="12.139342850815682"><ele>318.6666666666667</ele><time>2026-04-12T07:57:00Z</time></trkpt><trkpt lat="43.99458078058581" lon="12.13938695499495"><ele>319.33333333333337</ele><time>2026-04-12T07:57:01Z</time></trkpt><trkpt lat="43.99449912445863" lon="12.139425517204108"><ele>320.0</ele><time>2026-04-12T07:57:02Z</time></trkpt><trkpt lat="43.99442169141033" lon="12.13945615462493"><ele>320.0</ele><time>2026-04-12T07:57:03Z</time></trkpt><trkpt lat="43.99435746602919" lon="12.13947848778381"><ele>320.0</ele><time>2026-04-12T07:57:04Z</time></trkpt><trkpt lat="43.99429489796116" lon="12.139497789599883"><ele>320.0</ele><time>2026-04-12T07:57:05Z</time></trkpt><trkpt lat="43.99422918340249" lon="12.139534983562086"><ele>320.0</ele><time>2026-04-12T07:57:06Z</time></trkpt><trkpt lat="43.994145218240305" lon="12.139544185645288"><ele>320.0</ele><time>2026-04-12T07:57:07Z</time></trkpt><trkpt lat="43.99406863743507" lon="12.13955566828517"><ele>320.0</ele><time>2026-04-12T07:57:08Z</time></trkpt><trkpt lat="43.994001875406425" lon="12.139577654102611"><ele>320.0</ele><time>2026-04-12T07:57:09Z</time></trkpt><trkpt lat="43.993901586998625" lon="12.139631032296831"><ele>319.33333333333337</ele><time>2026-04-12T07:57:11Z</time></trkpt><trkpt lat="43.993806517679594" lon="12.139662920360733"><ele>318.6666666666667</ele><time>2026-04-12T07:57:13Z</time></trkpt><trkpt lat="43.99370913183112" lon="12.139694273993088"><ele>318.0</ele><time>2026-04-12T07:57:15Z</time></trkpt><trkpt lat="43.99363929888319" lon="12.139724002577145"><ele>317.3333333333333</ele><time>2026-04-12T07:57:17Z</time></trkpt><trkpt lat="43.99357466586771" lon="12.139743686192467"><ele>316.66666666666663</ele><time>2026-04-12T07:57:18Z</time></trkpt><trkpt lat="43.99350062757047" lon="12.139753893743745"><ele>316.0</ele><time>2026-04-12T07:57:19Z</time></trkpt><trkpt lat="43.993437481696134" lon="12.139759459770195"><ele>317.4</ele><time>2026-04-12T07:57:20Z</time></trkpt><trkpt lat="43.993326492142295" lon="12.139753435221722"><ele>318.8</ele><time>2026-04-12T07:57:22Z</time></trkpt><trkpt lat="43.99324080934613" lon="12.139721826236272"><ele>320.2</ele><time>2026-04-12T07:57:24Z</time></trkpt><trkpt lat="43.993160987993086" lon="12.139626364339987"><ele>321.59999999999997</ele><time>2026-04-12T07:57:26Z</time></trkpt><trkpt lat="43.99308680133486" lon="12.139551665048987"><ele>323.0</ele><time>2026-04-12T07:57:28Z</time></trkpt><trkpt lat="43.99302670816391" lon="12.139513571163777"><ele>323.00000000000006</ele><time>2026-04-12T07:57:30Z</time></trkpt><trkpt lat="43.99294760536905" lon="12.139449987828131"><ele>323.0</ele><time>2026-04-12T07:57:33Z</time></trkpt><trkpt lat="43.99291193086468" lon="12.139375787623731"><ele>323.0</ele><time>2026-04-12T07:57:35Z</time></trkpt><trkpt lat="43.992892388087554" lon="12.1392876362488"><ele>323.0</ele><time>2026-04-12T07:57:37Z</time></trkpt><trkpt lat="43.9928802722878" lon="12.139191721666574"><ele>323.0</ele><time>2026-04-12T07:57:39Z</time></trkpt><trkpt lat="43.992841988821375" lon="12.139110619740094"><ele>323.00000000000006</ele><time>2026-04-12T07:57:41Z</time></trkpt><trkpt lat="43.9927768714764" lon="12.139093323990684"><ele>323.0</ele><time>2026-04-12T07:57:43.001Z</time></trkpt><trkpt lat="43.992734447153694" lon="12.13916602294242"><ele>323.0</ele><time>2026-04-12T08:01:18.001Z</time></trkpt><trkpt lat="43.99266586096247" lon="12.139200357572118"><ele>323.0</ele><time>2026-04-12T08:01:21.001Z</time></trkpt><trkpt lat="43.992582811578316" lon="12.139238709894721"><ele>323.0</ele><time>2026-04-12T08:01:23.001Z</time></trkpt><trkpt lat="43.99248776204444" lon="12.139267010831356"><ele>323.0</ele><time>2026-04-12T08:01:25.001Z</time></trkpt><trkpt lat="43.99237218665072" lon="12.139266850894112"><ele>323.0</ele><time>2026-04-12T08:01:27.001Z</time></trkpt><trkpt lat="43.99225882860299" lon="12.139259558575567"><ele>323.2</ele><time>2026-04-12T08:01:29.001Z</time></trkpt><trkpt lat="43.99215706547661" lon="12.139243952031245"><ele>323.4</ele><time>2026-04-12T08:01:31.001Z</time></trkpt><trkpt lat="43.99206534985081" lon="12.13920951051067"><ele>323.59999999999997</ele><time>2026-04-12T08:01:33.001Z</time></trkpt><trkpt lat="43.99194587059153" lon="12.139198455566435"><ele>323.79999999999995</ele><time>2026-04-12T08:01:35.001Z</time></trkpt><trkpt lat="43.991830598869285" lon="12.139196722079285"><ele>324.0</ele><time>2026-04-12T08:01:37.001Z</time></trkpt><trkpt lat="43.991711093744286" lon="12.1391985971076"><ele>325.4</ele><time>2026-04-12T08:01:39.001Z</time></trkpt><trkpt lat="43.99162298230015" lon="12.139119810195234"><ele>326.79999999999995</ele><time>2026-04-12T08:01:41.001Z</time></trkpt><trkpt lat="43.99151736545367" lon="12.139037371439311"><ele>328.20000000000005</ele><time>2026-04-12T08:01:43.001Z</time></trkpt><trkpt lat="43.99141672796579" lon="12.13898515437811"><ele>329.6</ele><time>2026-04-12T08:01:45.001Z</time></trkpt><trkpt lat="43.9913053101477" lon="12.138949250873182"><ele>331.0</ele><time>2026-04-12T08:01:47.001Z</time></trkpt><trkpt lat="43.99119109987837" lon="12.13895145996174"><ele>332.4</ele><time>2026-04-12T08:01:49.001Z</time></trkpt><trkpt lat="43.991073268001635" lon="12.138944725600185"><ele>333.8</ele><time>2026-04-12T08:01:51.001Z</time></trkpt><trkpt lat="43.99098911669991" lon="12.13891834045441"><ele>335.2</ele><time>2026-04-12T08:01:53.001Z</time></trkpt><trkpt lat="43.990898645280964" lon="12.138889159687409"><ele>336.59999999999997</ele><time>2026-04-12T08:01:55.001Z</time></trkpt><trkpt lat="43.99080085643478" lon="12.138846096608976"><ele>338.0</ele><time>2026-04-12T08:01:57.001Z</time></trkpt><trkpt lat="43.99074086870258" lon="12.138788045684661"><ele>338.33333333333337</ele><time>2026-04-12T08:01:59.001Z</time></trkpt><trkpt lat="43.99068935272091" lon="12.138679472737001"><ele>338.6666666666667</ele><time>2026-04-12T08:02:01.001Z</time></trkpt><trkpt lat="43.99063163800185" lon="12.138573125815423"><ele>339.0</ele><time>2026-04-12T08:02:03.001Z</time></trkpt><trkpt lat="43.99058916528425" lon="12.138482299029667"><ele>339.3333333333333</ele><time>2026-04-12T08:02:05.001Z</time></trkpt><trkpt lat="43.990564864345046" lon="12.138401121350471"><ele>339.66666666666663</ele><time>2026-04-12T08:02:08.001Z</time></trkpt><trkpt lat="43.99055377702786" lon="12.138282132103297"><ele>340.0</ele><time>2026-04-12T08:02:15.001Z</time></trkpt><trkpt lat="43.99055192851085" lon="12.13818571212327"><ele>340.0</ele><time>2026-04-12T08:02:17.001Z</time></trkpt><trkpt lat="43.99051928596565" lon="12.13805026198243"><ele>340.0</ele><time>2026-04-12T08:02:19.001Z</time></trkpt><trkpt lat="43.99044531094857" lon="12.137956750904225"><ele>340.0</ele><time>2026-04-12T08:02:21.001Z</time></trkpt><trkpt lat="43.990386590718344" lon="12.137912352989792"><ele>340.0</ele><time>2026-04-12T08:02:23.001Z</time></trkpt><trkpt lat="43.99028578354945" lon="12.13799240095106"><ele>340.0</ele><time>2026-04-12T08:04:46.001Z</time></trkpt><trkpt lat="43.99020247773222" lon="12.138107925944245"><ele>340.0</ele><time>2026-04-12T08:04:48.001Z</time></trkpt><trkpt lat="43.99010555973601" lon="12.13820218789109"><ele>340.0</ele><time>2026-04-12T08:04:50.001Z</time></trkpt><trkpt lat="43.99003415336146" lon="12.138283234423097"><ele>340.0</ele><time>2026-04-12T08:04:52.001Z</time></trkpt><trkpt lat="43.98993429166808" lon="12.138342824775663"><ele>340.0</ele><time>2026-04-12T08:04:54.001Z</time></trkpt><trkpt lat="43.989834456797766" lon="12.138405668047927"><ele>340.0</ele><time>2026-04-12T08:04:56.001Z</time></trkpt><trkpt lat="43.98973073468398" lon="12.138422096651796"><ele>343.16666666666663</ele><time>2026-04-12T08:04:58.001Z</time></trkpt><trkpt lat="43.98966417074225" lon="12.138406566587085"><ele>346.3333333333333</ele><time>2026-04-12T08:05:12Z</time></trkpt><trkpt lat="43.989555372462576" lon="12.138394179426866"><ele>349.5</ele><time>2026-04-12T08:05:15Z</time></trkpt><trkpt lat="43.98945737142536" lon="12.138404677143072"><ele>352.6666666666667</ele><time>2026-04-12T08:05:17Z</time></trkpt><trkpt lat="43.98937512384687" lon="12.138395214084666"><ele>355.83333333333337</ele><time>2026-04-12T08:05:19Z</time></trkpt><trkpt lat="43.98929704800505" lon="12.138384074559399"><ele>359.0</ele><time>2026-04-12T08:05:21Z</time></trkpt><trkpt lat="43.989214070567385" lon="12.138367488411848"><ele>360.2</ele><time>2026-04-12T08:05:23Z</time></trkpt><trkpt lat="43.98912778158477" lon="12.138319762154188"><ele>361.4</ele><time>2026-04-12T08:05:25Z</time></trkpt><trkpt lat="43.989058055360424" lon="12.138269187740889"><ele>362.6</ele><time>2026-04-12T08:05:27Z</time></trkpt><trkpt lat="43.98901420455009" lon="12.138185220712025"><ele>363.8</ele><time>2026-04-12T08:05:29Z</time></trkpt><trkpt lat="43.988941446067926" lon="12.13808563810446"><ele>365.0</ele><time>2026-04-12T08:05:31Z</time></trkpt><trkpt lat="43.98885745603741" lon="12.137990913630539"><ele>365.0</ele><time>2026-04-12T08:05:33Z</time></trkpt><trkpt lat="43.988758612082705" lon="12.137944956217305"><ele>365.0</ele><time>2026-04-12T08:05:35Z</time></trkpt><trkpt lat="43.98865704392841" lon="12.137916158316548"><ele>365.0</ele><time>2026-04-12T08:05:37Z</time></trkpt><trkpt lat="43.98853671392229" lon="12.137930411530704"><ele>365.0</ele><time>2026-04-12T08:05:39Z</time></trkpt><trkpt lat="43.988431129816554" lon="12.13792608891387"><ele>365.0</ele><time>2026-04-12T08:05:41Z</time></trkpt><trkpt lat="43.98831488599663" lon="12.137883618874323"><ele>367.4</ele><time>2026-04-12T08:05:43Z</time></trkpt><trkpt lat="43.98823821803469" lon="12.13781045404983"><ele>369.8</ele><time>2026-04-12T08:05:45Z</time></trkpt><trkpt lat="43.98815851114952" lon="12.137746431423924"><ele>372.20000000000005</ele><time>2026-04-12T08:05:47Z</time></trkpt><trkpt lat="43.98808549954221" lon="12.137714630112969"><ele>374.6</ele><time>2026-04-12T08:05:49Z</time></trkpt><trkpt lat="43.9879918439472" lon="12.137666484456942"><ele>377.0</ele><time>2026-04-12T08:05:51Z</time></trkpt><trkpt lat="43.98788237171577" lon="12.137687631510767"><ele>377.0</ele><time>2026-04-12T08:05:53Z</time></trkpt><trkpt lat="43.98778773271697" lon="12.137745750720413"><ele>377.0</ele><time>2026-04-12T08:05:55Z</time></trkpt><trkpt lat="43.98771559860197" lon="12.137770127944849"><ele>377.0</ele><time>2026-04-12T08:05:56Z</time></trkpt><trkpt lat="43.9876356789047" lon="12.137781256996957"><ele>377.0</ele><time>2026-04-12T08:05:57Z</time></trkpt><trkpt lat="43.987550161974134" lon="12.13782964471848"><ele>377.0</ele><time>2026-04-12T08:05:59Z</time></trkpt><trkpt lat="43.9874761431918" lon="12.137858661074633"><ele>377.0</ele><time>2026-04-12T08:06:00Z</time></trkpt><trkpt lat="43.987407182734685" lon="12.13790762666253"><ele>379.20000000000005</ele><time>2026-04-12T08:06:01Z</time></trkpt><trkpt lat="43.98730498101158" lon="12.137995200879372"><ele>381.4</ele><time>2026-04-12T08:06:03Z</time></trkpt><trkpt lat="43.98723976403242" lon="12.138060620422308"><ele>383.6</ele><time>2026-04-12T08:06:05Z</time></trkpt><trkpt lat="43.98716751554156" lon="12.13814443583374"><ele>385.79999999999995</ele><time>2026-04-12T08:06:07Z</time></trkpt><trkpt lat="43.987097980315674" lon="12.138240541845702"><ele>388.0</ele><time>2026-04-12T08:06:09Z</time></trkpt><trkpt lat="43.987007012958415" lon="12.138363824320296"><ele>389.6666666666667</ele><time>2026-04-12T08:06:11Z</time></trkpt><trkpt lat="43.986955813598186" lon="12.138437933541404"><ele>391.33333333333337</ele><time>2026-04-12T08:06:12Z</time></trkpt><trkpt lat="43.98686839580825" lon="12.138570270293766"><ele>393.0</ele><time>2026-04-12T08:06:14Z</time></trkpt><trkpt lat="43.9868279826464" lon="12.138643709647276"><ele>394.66666666666663</ele><time>2026-04-12T08:06:15Z</time></trkpt><trkpt lat="43.9867895340376" lon="12.138717837535943"><ele>396.3333333333333</ele><time>2026-04-12T08:06:16Z</time></trkpt><trkpt lat="43.98672252824791" lon="12.138759777370597"><ele>398.0</ele><time>2026-04-12T08:06:17Z</time></trkpt><trkpt lat="43.98660680806708" lon="12.138841945307107"><ele>398.0</ele><time>2026-04-12T08:06:19Z</time></trkpt><trkpt lat="43.986515024443456" lon="12.138944623823894"><ele>398.0</ele><time>2026-04-12T08:06:21Z</time></trkpt><trkpt lat="43.9864296364622" lon="12.139048173412036"><ele>398.0</ele><time>2026-04-12T08:06:23Z</time></trkpt><trkpt lat="43.986352449558495" lon="12.139165360748652"><ele>398.0</ele><time>2026-04-12T08:06:25Z</time></trkpt><trkpt lat="43.98627067993969" lon="12.13931238242952"><ele>400.71428571428567</ele><time>2026-04-12T08:06:27Z</time></trkpt><trkpt lat="43.98622562707625" lon="12.13938719161105"><ele>403.42857142857144</ele><time>2026-04-12T08:06:28Z</time></trkpt><trkpt lat="43.98617265189837" lon="12.139469269096445"><ele>406.1428571428571</ele><time>2026-04-12T08:06:29Z</time></trkpt><trkpt lat="43.98611118115462" lon="12.139547156299528"><ele>408.85714285714283</ele><time>2026-04-12T08:06:30Z</time></trkpt><trkpt lat="43.98605788428973" lon="12.139619118605466"><ele>411.57142857142856</ele><time>2026-04-12T08:06:31Z</time></trkpt><trkpt lat="43.986013069489715" lon="12.139687470926848"><ele>414.2857142857143</ele><time>2026-04-12T08:06:32Z</time></trkpt><trkpt lat="43.985968377720184" lon="12.139750235411269"><ele>417.0</ele><time>2026-04-12T08:06:33Z</time></trkpt><trkpt lat="43.98588507588756" lon="12.13983780852932"><ele>418.5</ele><time>2026-04-12T08:06:35Z</time></trkpt><trkpt lat="43.985790172623474" lon="12.139944058792311"><ele>420.0</ele><time>2026-04-12T08:06:37Z</time></trkpt><trkpt lat="43.9856819922342" lon="12.139994020667103"><ele>421.5</ele><time>2026-04-12T08:06:39Z</time></trkpt><trkpt lat="43.98556121827563" lon="12.140013857106283"><ele>423.0</ele><time>2026-04-12T08:06:41Z</time></trkpt><trkpt lat="43.98546005557375" lon="12.140044038920607"><ele>423.0</ele><time>2026-04-12T08:06:43Z</time></trkpt><trkpt lat="43.985347490538565" lon="12.140092772770751"><ele>423.0</ele><time>2026-04-12T08:06:45Z</time></trkpt><trkpt lat="43.98523414577887" lon="12.140143653470576"><ele>423.0</ele><time>2026-04-12T08:06:47Z</time></trkpt><trkpt lat="43.98514930548542" lon="12.140190498195237"><ele>423.0</ele><time>2026-04-12T08:06:49Z</time></trkpt><trkpt lat="43.985075537705136" lon="12.140242031984263"><ele>423.0</ele><time>2026-04-12T08:07:56Z</time></trkpt><trkpt lat="43.984975509567455" lon="12.140263806087756"><ele>427.2</ele><time>2026-04-12T08:07:59Z</time></trkpt><trkpt lat="43.984876671263294" lon="12.140332759573862"><ele>431.4</ele><time>2026-04-12T08:08:01Z</time></trkpt><trkpt lat="43.98476937546162" lon="12.140386348904908"><ele>435.59999999999997</ele><time>2026-04-12T08:08:03Z</time></trkpt><trkpt lat="43.9846926235927" lon="12.1404484646499"><ele>439.79999999999995</ele><time>2026-04-12T08:08:06Z</time></trkpt><trkpt lat="43.98464018596335" lon="12.140533752477248"><ele>444.0</ele><time>2026-04-12T08:08:08Z</time></trkpt><trkpt lat="43.98459939742889" lon="12.140655804484462"><ele>444.0</ele><time>2026-04-12T08:08:11Z</time></trkpt><trkpt lat="43.98457043438489" lon="12.140775093847598"><ele>444.0</ele><time>2026-04-12T08:08:13Z</time></trkpt><trkpt lat="43.98454397372781" lon="12.140897274149074"><ele>444.0</ele><time>2026-04-12T08:08:15Z</time></trkpt><trkpt lat="43.98454497279392" lon="12.14102973076676"><ele>444.0</ele><time>2026-04-12T08:08:17Z</time></trkpt><trkpt lat="43.984522549292194" lon="12.141161203144284"><ele>444.0</ele><time>2026-04-12T08:08:19Z</time></trkpt><trkpt lat="43.98450288464208" lon="12.141275034108727"><ele>444.0</ele><time>2026-04-12T08:08:21Z</time></trkpt><trkpt lat="43.98448325154885" lon="12.141382158462221"><ele>444.0</ele><time>2026-04-12T08:08:23Z</time></trkpt><trkpt lat="43.98438944996714" lon="12.141448091574405"><ele>444.0</ele><time>2026-04-12T08:08:25Z</time></trkpt><trkpt lat="43.98432207934446" lon="12.141397517945306"><ele>444.0</ele><time>2026-04-12T08:08:26Z</time></trkpt><trkpt lat="43.98421707618564" lon="12.141398850640387"><ele>444.0</ele><time>2026-04-12T08:08:28Z</time></trkpt><trkpt lat="43.98413431028256" lon="12.141458711101171"><ele>448.2</ele><time>2026-04-12T08:08:30Z</time></trkpt><trkpt lat="43.984028395153324" lon="12.141489044599709"><ele>452.4</ele><time>2026-04-12T08:08:32Z</time></trkpt><trkpt lat="43.98391584229327" lon="12.141522901778295"><ele>456.6</ele><time>2026-04-12T08:08:34Z</time></trkpt><trkpt lat="43.983806539901806" lon="12.141543940903427"><ele>460.8</ele><time>2026-04-12T08:08:36Z</time></trkpt><trkpt lat="43.98370390444214" lon="12.141571700383682"><ele>465.0</ele><time>2026-04-12T08:08:38Z</time></trkpt><trkpt lat="43.98361857001513" lon="12.141610267545637"><ele>465.0</ele><time>2026-04-12T08:08:40Z</time></trkpt><trkpt lat="43.98352075977311" lon="12.141685714893802"><ele>465.0</ele><time>2026-04-12T08:08:42Z</time></trkpt><trkpt lat="43.98343862114417" lon="12.141763024256049"><ele>465.0</ele><time>2026-04-12T08:08:44Z</time></trkpt><trkpt lat="43.983346432831276" lon="12.141866790620625"><ele>465.0</ele><time>2026-04-12T08:08:46Z</time></trkpt><trkpt lat="43.98324165281868" lon="12.141959164871123"><ele>465.4</ele><time>2026-04-12T08:08:48Z</time></trkpt><trkpt lat="43.9831891869955" lon="12.142008743487256"><ele>465.8</ele><time>2026-04-12T08:08:49Z</time></trkpt><trkpt lat="43.98308398665946" lon="12.14209544365568"><ele>466.20000000000005</ele><time>2026-04-12T08:08:51Z</time></trkpt><trkpt lat="43.982995540518964" lon="12.142182425915578"><ele>466.6</ele><time>2026-04-12T08:08:53Z</time></trkpt><trkpt lat="43.98290684892919" lon="12.142282845652117"><ele>467.0</ele><time>2026-04-12T08:08:55Z</time></trkpt><trkpt lat="43.98281809494857" lon="12.142393944860093"><ele>467.0</ele><time>2026-04-12T08:08:57Z</time></trkpt><trkpt lat="43.982728248619" lon="12.142484907195067"><ele>467.00000000000006</ele><time>2026-04-12T08:08:59Z</time></trkpt><trkpt lat="43.982630050118914" lon="12.142475982708277"><ele>467.00000000000006</ele><time>2026-04-12T08:09:01Z</time></trkpt><trkpt lat="43.98256931039634" lon="12.142367288618468"><ele>467.0</ele><time>2026-04-12T08:09:03Z</time></trkpt><trkpt lat="43.982488552173514" lon="12.14223010515844"><ele>467.0</ele><time>2026-04-12T08:09:05Z</time></trkpt><trkpt lat="43.98242137992773" lon="12.142115887521728"><ele>472.6</ele><time>2026-04-12T08:09:07Z</time></trkpt><trkpt lat="43.982379727180415" lon="12.142045989011732"><ele>478.20000000000005</ele><time>2026-04-12T08:09:08Z</time></trkpt><trkpt lat="43.982317768112274" lon="12.141895581048681"><ele>483.8</ele><time>2026-04-12T08:09:10Z</time></trkpt><trkpt lat="43.98224159234859" lon="12.141752295073076"><ele>489.4</ele><time>2026-04-12T08:09:12Z</time></trkpt><trkpt lat="43.982187562476064" lon="12.141680421470124"><ele>495.0</ele><time>2026-04-12T08:09:13Z</time></trkpt><trkpt lat="43.98212150358257" lon="12.141611128096814"><ele>495.0</ele><time>2026-04-12T08:09:14Z</time></trkpt><trkpt lat="43.982055035318254" lon="12.141550236920132"><ele>495.0</ele><time>2026-04-12T08:09:15Z</time></trkpt><trkpt lat="43.98198054879051" lon="12.14149676365533"><ele>495.0</ele><time>2026-04-12T08:09:16Z</time></trkpt><trkpt lat="43.98191907952835" lon="12.141450532535634"><ele>495.0</ele><time>2026-04-12T08:09:17Z</time></trkpt><trkpt lat="43.98185811862496" lon="12.141407248283938"><ele>495.0</ele><time>2026-04-12T08:09:18Z</time></trkpt><trkpt lat="43.981803350574864" lon="12.141363441641362"><ele>495.0</ele><time>2026-04-12T08:09:19Z</time></trkpt><trkpt lat="43.98171756686047" lon="12.14125358310908"><ele>498.6666666666667</ele><time>2026-04-12T08:09:21Z</time></trkpt><trkpt lat="43.98167010278018" lon="12.141184776840117"><ele>502.33333333333337</ele><time>2026-04-12T08:09:22Z</time></trkpt><trkpt lat="43.98162308154502" lon="12.141119502027154"><ele>506.0</ele><time>2026-04-12T08:09:23Z</time></trkpt><trkpt lat="43.981572528995976" lon="12.14105325835439"><ele>509.6666666666667</ele><time>2026-04-12T08:09:24Z</time></trkpt><trkpt lat="43.98149262754662" lon="12.140970898948138"><ele>513.3333333333334</ele><time>2026-04-12T08:09:26Z</time></trkpt><trkpt lat="43.98139053545628" lon="12.140925210767698"><ele>517.0</ele><time>2026-04-12T08:09:28Z</time></trkpt><trkpt lat="43.98131451827537" lon="12.140894980202901"><ele>517.0</ele><time>2026-04-12T08:09:29Z</time></trkpt><trkpt lat="43.98124181479892" lon="12.14085310041015"><ele>517.0</ele><time>2026-04-12T08:09:30Z</time></trkpt><trkpt lat="43.98113784900562" lon="12.140771402817448"><ele>517.0</ele><time>2026-04-12T08:09:32Z</time></trkpt><trkpt lat="43.98104511243851" lon="12.140676305043517"><ele>517.0</ele><time>2026-04-12T08:09:34Z</time></trkpt><trkpt lat="43.98099477961629" lon="12.140614907519613"><ele>517.0</ele><time>2026-04-12T08:09:35Z</time></trkpt><trkpt lat="43.98094022568947" lon="12.14053780557871"><ele>515.8333333333334</ele><time>2026-04-12T08:09:36Z</time></trkpt><trkpt lat="43.98089118446541" lon="12.140463584761513"><ele>514.6666666666667</ele><time>2026-04-12T08:09:37Z</time></trkpt><trkpt lat="43.98084843758125" lon="12.140392504052945"><ele>513.5</ele><time>2026-04-12T08:09:38Z</time></trkpt><trkpt lat="43.98081166802535" lon="12.140320727617647"><ele>512.3333333333334</ele><time>2026-04-12T08:09:39Z</time></trkpt><trkpt lat="43.98074926893611" lon="12.14017827894566"><ele>511.1666666666667</ele><time>2026-04-12T08:09:41Z</time></trkpt><trkpt lat="43.98072002519855" lon="12.140100066001834"><ele>510.0</ele><time>2026-04-12T08:10:37Z</time></trkpt><trkpt lat="43.98059712816847" lon="12.140112601913367"><ele>513.4</ele><time>2026-04-12T08:10:40Z</time></trkpt><trkpt lat="43.98052908465123" lon="12.140110014782907"><ele>516.8</ele><time>2026-04-12T08:10:42Z</time></trkpt><trkpt lat="43.980426855118694" lon="12.140147769405816"><ele>520.2</ele><time>2026-04-12T08:10:44Z</time></trkpt><trkpt lat="43.98035161370186" lon="12.140165352661123"><ele>523.6</ele><time>2026-04-12T08:10:45Z</time></trkpt><trkpt lat="43.98028261733936" lon="12.140197952067824"><ele>527.0</ele><time>2026-04-12T08:10:46Z</time></trkpt><trkpt lat="43.98016557012886" lon="12.14026966953849"><ele>527.0</ele><time>2026-04-12T08:10:48Z</time></trkpt><trkpt lat="43.980102668539296" lon="12.140324967840108"><ele>527.0</ele><time>2026-04-12T08:10:49Z</time></trkpt><trkpt lat="43.98004816175329" lon="12.14038313853873"><ele>527.0</ele><time>2026-04-12T08:10:50Z</time></trkpt><trkpt lat="43.97995119504358" lon="12.140481080209884"><ele>527.0</ele><time>2026-04-12T08:10:52Z</time></trkpt><trkpt lat="43.979853949164045" lon="12.140574733892624"><ele>527.0</ele><time>2026-04-12T08:10:54Z</time></trkpt><trkpt lat="43.97980257881963" lon="12.140631538375834"><ele>527.0</ele><time>2026-04-12T08:10:55Z</time></trkpt><trkpt lat="43.97974920368825" lon="12.140689187866343"><ele>527.6666666666666</ele><time>2026-04-12T08:10:56Z</time></trkpt><trkpt lat="43.979694537817075" lon="12.140745431827675"><ele>528.3333333333333</ele><time>2026-04-12T08:10:57Z</time></trkpt><trkpt lat="43.97963806060908" lon="12.140800639905796"><ele>529.0</ele><time>2026-04-12T08:10:58Z</time></trkpt><trkpt lat="43.97957086084195" lon="12.140866409748236"><ele>529.6666666666666</ele><time>2026-04-12T08:10:59Z</time></trkpt><trkpt lat="43.97949867611976" lon="12.140948820350745"><ele>530.3333333333334</ele><time>2026-04-12T08:11:00Z</time></trkpt><trkpt lat="43.97942572224798" lon="12.14103711787442"><ele>531.0</ele><time>2026-04-12T08:11:01Z</time></trkpt><trkpt lat="43.97936357945592" lon="12.141083083270427"><ele>531.0</ele><time>2026-04-12T08:11:02Z</time></trkpt><trkpt lat="43.97929666794268" lon="12.141149416881271"><ele>531.0</ele><time>2026-04-12T08:11:03Z</time></trkpt><trkpt lat="43.97923562577258" lon="12.141212703185765"><ele>531.0</ele><time>2026-04-12T08:11:04Z</time></trkpt><trkpt lat="43.979170433435236" lon="12.141277363687685"><ele>531.0</ele><time>2026-04-12T08:11:05Z</time></trkpt><trkpt lat="43.97910278186544" lon="12.141346159998486"><ele>531.0</ele><time>2026-04-12T08:11:06Z</time></trkpt><trkpt lat="43.97904232563744" lon="12.141420736592707"><ele>531.0</ele><time>2026-04-12T08:11:07Z</time></trkpt><trkpt lat="43.978978196168974" lon="12.141493134318042"><ele>531.8333333333334</ele><time>2026-04-12T08:11:08Z</time></trkpt><trkpt lat="43.978917433113836" lon="12.141562541645923"><ele>532.6666666666666</ele><time>2026-04-12T08:11:09Z</time></trkpt><trkpt lat="43.97885994585347" lon="12.141630960911684"><ele>533.5</ele><time>2026-04-12T08:11:10Z</time></trkpt><trkpt lat="43.97880143667125" lon="12.14168752733773"><ele>534.3333333333333</ele><time>2026-04-12T08:11:11Z</time></trkpt><trkpt lat="43.978696187305445" lon="12.141714710970184"><ele>535.1666666666666</ele><time>2026-04-12T08:11:13Z</time></trkpt><trkpt lat="43.97863113110943" lon="12.141766586563596"><ele>536.0</ele><time>2026-04-12T08:11:14Z</time></trkpt><trkpt lat="43.978547106730396" lon="12.14176194885795"><ele>536.0</ele><time>2026-04-12T08:11:15Z</time></trkpt><trkpt lat="43.978467944989056" lon="12.141748840178684"><ele>536.0</ele><time>2026-04-12T08:11:16Z</time></trkpt><trkpt lat="43.978391473557465" lon="12.141733891766219"><ele>536.0</ele><time>2026-04-12T08:11:17Z</time></trkpt><trkpt lat="43.97831200427452" lon="12.141719346933263"><ele>536.0</ele><time>2026-04-12T08:11:18Z</time></trkpt><trkpt lat="43.97822704847643" lon="12.141699759704737"><ele>536.0</ele><time>2026-04-12T08:11:19Z</time></trkpt><trkpt lat="43.97814513270952" lon="12.141690777881674"><ele>536.0</ele><time>2026-04-12T08:11:20Z</time></trkpt><trkpt lat="43.97807544417748" lon="12.141685435934143"><ele>538.5</ele><time>2026-04-12T08:11:21Z</time></trkpt><trkpt lat="43.97801152630116" lon="12.14169495710899"><ele>541.0</ele><time>2026-04-12T08:11:22Z</time></trkpt><trkpt lat="43.977941203855096" lon="12.141727211843731"><ele>543.5</ele><time>2026-04-12T08:11:23Z</time></trkpt><trkpt lat="43.977874978619276" lon="12.141803331738096"><ele>546.0</ele><time>2026-04-12T08:11:24Z</time></trkpt><trkpt lat="43.97781931418226" lon="12.141896525396506"><ele>548.5</ele><time>2026-04-12T08:11:25Z</time></trkpt><trkpt lat="43.97777779990893" lon="12.142008673231341"><ele>551.0</ele><time>2026-04-12T08:11:26Z</time></trkpt><trkpt lat="43.97775020060621" lon="12.142129213148925"><ele>551.0</ele><time>2026-04-12T08:11:27Z</time></trkpt><trkpt lat="43.977726501869405" lon="12.142251586434542"><ele>551.0</ele><time>2026-04-12T08:11:28Z</time></trkpt><trkpt lat="43.97769341498478" lon="12.142370944882822"><ele>551.0</ele><time>2026-04-12T08:11:29Z</time></trkpt><trkpt lat="43.977654277896576" lon="12.142490800685115"><ele>551.0</ele><time>2026-04-12T08:11:30Z</time></trkpt><trkpt lat="43.977608208876205" lon="12.142607934700763"><ele>551.0</ele><time>2026-04-12T08:11:31Z</time></trkpt><trkpt lat="43.97757010825368" lon="12.14272751822675"><ele>550.8333333333333</ele><time>2026-04-12T08:11:32Z</time></trkpt><trkpt lat="43.97754458941344" lon="12.142857001193747"><ele>550.6666666666666</ele><time>2026-04-12T08:11:33Z</time></trkpt><trkpt lat="43.977533028079954" lon="12.142978284785944"><ele>550.5</ele><time>2026-04-12T08:11:34Z</time></trkpt><trkpt lat="43.97752587469578" lon="12.143086108392254"><ele>550.3333333333334</ele><time>2026-04-12T08:11:35Z</time></trkpt><trkpt lat="43.97751067357955" lon="12.143189178625196"><ele>550.1666666666667</ele><time>2026-04-12T08:11:36Z</time></trkpt><trkpt lat="43.97749147780539" lon="12.143292711727982"><ele>550.0</ele><time>2026-04-12T08:11:37Z</time></trkpt><trkpt lat="43.9774685476187" lon="12.143392798436041"><ele>550.0</ele><time>2026-04-12T08:11:38Z</time></trkpt><trkpt lat="43.97744346247517" lon="12.143482392115912"><ele>550.0</ele><time>2026-04-12T08:11:39Z</time></trkpt><trkpt lat="43.97741251374176" lon="12.14357168864858"><ele>550.0</ele><time>2026-04-12T08:11:40Z</time></trkpt><trkpt lat="43.97737740187372" lon="12.143668755489328"><ele>550.0</ele><time>2026-04-12T08:11:41Z</time></trkpt><trkpt lat="43.97733844194441" lon="12.143775101771068"><ele>550.0</ele><time>2026-04-12T08:11:42Z</time></trkpt><trkpt lat="43.977305884968374" lon="12.143892557741625"><ele>550.0</ele><time>2026-04-12T08:11:43Z</time></trkpt><trkpt lat="43.977274930575334" lon="12.144008210321239"><ele>548.4</ele><time>2026-04-12T08:11:44Z</time></trkpt><trkpt lat="43.97724350715351" lon="12.144128708925042"><ele>546.8</ele><time>2026-04-12T08:11:45Z</time></trkpt><trkpt lat="43.97721682202566" lon="12.14425330702643"><ele>545.2</ele><time>2026-04-12T08:11:46Z</time></trkpt><trkpt lat="43.97720590502623" lon="12.144385025309203"><ele>543.6</ele><time>2026-04-12T08:11:47Z</time></trkpt><trkpt lat="43.97719813135481" lon="12.144514270018048"><ele>542.0</ele><time>2026-04-12T08:11:48Z</time></trkpt><trkpt lat="43.97718941335254" lon="12.144635898052883"><ele>542.0</ele><time>2026-04-12T08:11:49Z</time></trkpt><trkpt lat="43.97717920582219" lon="12.144751553658326"><ele>542.0</ele><time>2026-04-12T08:11:50Z</time></trkpt><trkpt lat="43.977164093390364" lon="12.144857014050194"><ele>542.0</ele><time>2026-04-12T08:11:51Z</time></trkpt><trkpt lat="43.97714714776795" lon="12.144957830951547"><ele>542.0</ele><time>2026-04-12T08:11:52Z</time></trkpt><trkpt lat="43.97712610849922" lon="12.145060857150133"><ele>542.0</ele><time>2026-04-12T08:11:53Z</time></trkpt><trkpt lat="43.9770969553673" lon="12.145165464363718"><ele>542.0</ele><time>2026-04-12T08:11:54Z</time></trkpt><trkpt lat="43.977064609561" lon="12.145272948818691"><ele>540.1666666666666</ele><time>2026-04-12T08:11:55Z</time></trkpt><trkpt lat="43.97703444267531" lon="12.14538281758078"><ele>538.3333333333333</ele><time>2026-04-12T08:11:56Z</time></trkpt><trkpt lat="43.97700878753875" lon="12.145490137157386"><ele>536.5</ele><time>2026-04-12T08:11:57Z</time></trkpt><trkpt lat="43.97699049172694" lon="12.145599411834958"><ele>534.6666666666666</ele><time>2026-04-12T08:11:58Z</time></trkpt><trkpt lat="43.9769718060091" lon="12.14570863406453"><ele>532.8333333333334</ele><time>2026-04-12T08:11:59Z</time></trkpt><trkpt lat="43.97695655948289" lon="12.145819865809916"><ele>531.0</ele><time>2026-04-12T08:12:00Z</time></trkpt><trkpt lat="43.97693752912057" lon="12.145925970418636"><ele>528.5</ele><time>2026-04-12T08:12:01Z</time></trkpt><trkpt lat="43.97691927786396" lon="12.146030564952627"><ele>526.0</ele><time>2026-04-12T08:12:02Z</time></trkpt><trkpt lat="43.97690381888824" lon="12.146134352767636"><ele>523.5</ele><time>2026-04-12T08:12:03Z</time></trkpt><trkpt lat="43.97688740706155" lon="12.146239068948004"><ele>521.0</ele><time>2026-04-12T08:12:04Z</time></trkpt><trkpt lat="43.97686956318435" lon="12.14634152142659"><ele>518.5</ele><time>2026-04-12T08:12:05Z</time></trkpt><trkpt lat="43.976856105029206" lon="12.146435210128645"><ele>516.0</ele><time>2026-04-12T08:12:06Z</time></trkpt><trkpt lat="43.976830481853476" lon="12.146580158422365"><ele>516.0</ele><time>2026-04-12T08:12:08Z</time></trkpt><trkpt lat="43.97673622163886" lon="12.146523179462354"><ele>516.0</ele><time>2026-04-12T08:12:13Z</time></trkpt><trkpt lat="43.97666981018581" lon="12.146411659503379"><ele>516.0</ele><time>2026-04-12T08:12:15Z</time></trkpt><trkpt lat="43.976625521908915" lon="12.146340573238778"><ele>516.0</ele><time>2026-04-12T08:12:16Z</time></trkpt><trkpt lat="43.976582956004755" lon="12.146273014521448"><ele>516.0</ele><time>2026-04-12T08:12:17Z</time></trkpt><trkpt lat="43.976537107690085" lon="12.146200411919175"><ele>516.0</ele><time>2026-04-12T08:12:18Z</time></trkpt><trkpt lat="43.976488930536625" lon="12.146126406755029"><ele>520.2857142857142</ele><time>2026-04-12T08:12:19Z</time></trkpt><trkpt lat="43.97644023328667" lon="12.146051602677554"><ele>524.5714285714286</ele><time>2026-04-12T08:12:20Z</time></trkpt><trkpt lat="43.976391244209985" lon="12.14597486765254"><ele>528.8571428571429</ele><time>2026-04-12T08:12:21Z</time></trkpt><trkpt lat="43.976343659021374" lon="12.145895956532726"><ele>533.1428571428571</ele><time>2026-04-12T08:12:22Z</time></trkpt><trkpt lat="43.976295864595585" lon="12.145816698457814"><ele>537.4285714285714</ele><time>2026-04-12T08:12:23Z</time></trkpt><trkpt lat="43.976248637329476" lon="12.145740100375406"><ele>541.7142857142857</ele><time>2026-04-12T08:12:24Z</time></trkpt><trkpt lat="43.97619774334763" lon="12.145664733624178"><ele>546.0</ele><time>2026-04-12T08:12:25Z</time></trkpt><trkpt lat="43.97614500309398" lon="12.145600615040681"><ele>548.2857142857143</ele><time>2026-04-12T08:12:26Z</time></trkpt><trkpt lat="43.976089120591844" lon="12.145542040136046"><ele>550.5714285714286</ele><time>2026-04-12T08:12:27Z</time></trkpt><trkpt lat="43.976026036546536" lon="12.145499502695637"><ele>552.8571428571429</ele><time>2026-04-12T08:12:28Z</time></trkpt><trkpt lat="43.975960702962446" lon="12.145469543907355"><ele>555.1428571428571</ele><time>2026-04-12T08:12:29Z</time></trkpt><trkpt lat="43.97589547194704" lon="12.145448655763104"><ele>557.4285714285714</ele><time>2026-04-12T08:12:30Z</time></trkpt><trkpt lat="43.97582305695044" lon="12.145425722416709"><ele>559.7142857142858</ele><time>2026-04-12T08:12:31Z</time></trkpt><trkpt lat="43.97575494271076" lon="12.14540309011112"><ele>562.0</ele><time>2026-04-12T08:12:32Z</time></trkpt><trkpt lat="43.97567884246448" lon="12.145374324438144"><ele>564.0</ele><time>2026-04-12T08:12:33Z</time></trkpt><trkpt lat="43.97559668466228" lon="12.145344247184193"><ele>566.0</ele><time>2026-04-12T08:12:34Z</time></trkpt><trkpt lat="43.975509168363345" lon="12.145333856852707"><ele>568.0</ele><time>2026-04-12T08:12:35Z</time></trkpt><trkpt lat="43.975434521761656" lon="12.14528430451728"><ele>570.0</ele><time>2026-04-12T08:12:36Z</time></trkpt><trkpt lat="43.97537581094223" lon="12.145239728635039"><ele>572.0</ele><time>2026-04-12T08:12:37Z</time></trkpt><trkpt lat="43.97529611120746" lon="12.145193657124537"><ele>574.0</ele><time>2026-04-12T08:12:39Z</time></trkpt><trkpt lat="43.975232027326804" lon="12.145208668142736"><ele>574.0</ele><time>2026-04-12T08:13:19.001Z</time></trkpt><trkpt lat="43.97514255714691" lon="12.145182348070685"><ele>574.0</ele><time>2026-04-12T08:13:21.001Z</time></trkpt><trkpt lat="43.97508210446298" lon="12.145156145513779"><ele>574.0</ele><time>2026-04-12T08:13:22.001Z</time></trkpt><trkpt lat="43.97501961940446" lon="12.14509980677968"><ele>574.0</ele><time>2026-04-12T08:13:23.001Z</time></trkpt><trkpt lat="43.974958042939036" lon="12.145051929763708"><ele>574.0</ele><time>2026-04-12T08:13:24.001Z</time></trkpt><trkpt lat="43.97489467711208" lon="12.14499811581011"><ele>574.0</ele><time>2026-04-12T08:13:25.001Z</time></trkpt><trkpt lat="43.974830942707214" lon="12.144936946213916"><ele>573.5</ele><time>2026-04-12T08:13:25.999Z</time></trkpt><trkpt lat="43.9747626510657" lon="12.144867807761626"><ele>573.0</ele><time>2026-04-12T08:13:26.999Z</time></trkpt><trkpt lat="43.97468004230396" lon="12.14480980581685"><ele>572.5</ele><time>2026-04-12T08:13:27.999Z</time></trkpt><trkpt lat="43.9746213450799" lon="12.144735967341486"><ele>572.0</ele><time>2026-04-12T08:13:28.999Z</time></trkpt><trkpt lat="43.97456136188128" lon="12.144671461083389"><ele>571.5</ele><time>2026-04-12T08:13:29.999Z</time></trkpt><trkpt lat="43.974487710805164" lon="12.14461206695441"><ele>571.0</ele><time>2026-04-12T08:13:30.999Z</time></trkpt><trkpt lat="43.97440709124779" lon="12.144558939214637"><ele>571.0</ele><time>2026-04-12T08:13:31.999Z</time></trkpt><trkpt lat="43.97432954511315" lon="12.144516909404867"><ele>571.0</ele><time>2026-04-12T08:13:32.999Z</time></trkpt><trkpt lat="43.974251488935245" lon="12.144489146479657"><ele>571.0</ele><time>2026-04-12T08:13:33.999Z</time></trkpt><trkpt lat="43.97416622912227" lon="12.144465912502941"><ele>571.0</ele><time>2026-04-12T08:13:34.999Z</time></trkpt><trkpt lat="43.974080727398885" lon="12.144426132440158"><ele>571.0</ele><time>2026-04-12T08:13:35.999Z</time></trkpt><trkpt lat="43.973987944807305" lon="12.144413814645866"><ele>571.0</ele><time>2026-04-12T08:13:36.999Z</time></trkpt><trkpt lat="43.973894285977956" lon="12.14441166885881"><ele>571.6666666666667</ele><time>2026-04-12T08:13:37.999Z</time></trkpt><trkpt lat="43.97380933107532" lon="12.14441287483718"><ele>572.3333333333334</ele><time>2026-04-12T08:13:38.999Z</time></trkpt><trkpt lat="43.97373173663283" lon="12.144412899123003"><ele>573.0</ele><time>2026-04-12T08:13:39.999Z</time></trkpt><trkpt lat="43.97365243676514" lon="12.144407883670581"><ele>573.6666666666666</ele><time>2026-04-12T08:13:40.999Z</time></trkpt><trkpt lat="43.973581706002854" lon="12.144394780751767"><ele>574.3333333333333</ele><time>2026-04-12T08:13:42Z</time></trkpt><trkpt lat="43.97350829234176" lon="12.144369395880421"><ele>575.0</ele><time>2026-04-12T08:13:43Z</time></trkpt><trkpt lat="43.97342569765881" lon="12.144325870202685"><ele>573.6</ele><time>2026-04-12T08:13:44Z</time></trkpt><trkpt lat="43.97333853958083" lon="12.144265170503786"><ele>572.2</ele><time>2026-04-12T08:13:45Z</time></trkpt><trkpt lat="43.973251420421214" lon="12.144197169270972"><ele>570.8</ele><time>2026-04-12T08:13:46Z</time></trkpt><trkpt lat="43.97316544711769" lon="12.144128002248253"><ele>569.4</ele><time>2026-04-12T08:13:47Z</time></trkpt><trkpt lat="43.97307999559719" lon="12.144059255020188"><ele>568.0</ele><time>2026-04-12T08:13:48Z</time></trkpt><trkpt lat="43.97299157039143" lon="12.143993747994823"><ele>566.1999999999999</ele><time>2026-04-12T08:13:49Z</time></trkpt><trkpt lat="43.972887964288375" lon="12.143935202143659"><ele>564.4</ele><time>2026-04-12T08:13:50Z</time></trkpt><trkpt lat="43.97276652543489" lon="12.143904030127619"><ele>562.5999999999999</ele><time>2026-04-12T08:13:51Z</time></trkpt><trkpt lat="43.972661531326644" lon="12.143925522177934"><ele>560.8</ele><time>2026-04-12T08:13:52Z</time></trkpt><trkpt lat="43.97255892765735" lon="12.14393045595211"><ele>559.0</ele><time>2026-04-12T08:13:53Z</time></trkpt><trkpt lat="43.97246029824551" lon="12.143925319231986"><ele>559.0</ele><time>2026-04-12T08:13:54Z</time></trkpt><trkpt lat="43.9723584022428" lon="12.143901423618745"><ele>559.0</ele><time>2026-04-12T08:13:55Z</time></trkpt><trkpt lat="43.972262617975865" lon="12.143859195089757"><ele>559.0</ele><time>2026-04-12T08:13:56Z</time></trkpt><trkpt lat="43.97216624135251" lon="12.143811099003424"><ele>559.0</ele><time>2026-04-12T08:13:57Z</time></trkpt><trkpt lat="43.97207108985488" lon="12.143759644913327"><ele>559.0</ele><time>2026-04-12T08:13:58Z</time></trkpt><trkpt lat="43.971983550914956" lon="12.14368242196889"><ele>559.0</ele><time>2026-04-12T08:13:59Z</time></trkpt><trkpt lat="43.971885429083066" lon="12.143620539337341"><ele>559.0</ele><time>2026-04-12T08:14:00Z</time></trkpt><trkpt lat="43.971788175525944" lon="12.143585313207511"><ele>559.0</ele><time>2026-04-12T08:14:01Z</time></trkpt><trkpt lat="43.9716869573244" lon="12.143560148517878"><ele>559.0</ele><time>2026-04-12T08:14:02Z</time></trkpt><trkpt lat="43.97158501856283" lon="12.14355794754173"><ele>559.0</ele><time>2026-04-12T08:14:03Z</time></trkpt><trkpt lat="43.97148099977664" lon="12.143577372836205"><ele>557.0</ele><time>2026-04-12T08:14:04Z</time></trkpt><trkpt lat="43.97138684938209" lon="12.143607354911627"><ele>555.0</ele><time>2026-04-12T08:14:05Z</time></trkpt><trkpt lat="43.97130215484638" lon="12.143583007031756"><ele>553.0</ele><time>2026-04-12T08:14:06Z</time></trkpt><trkpt lat="43.971223274845926" lon="12.143577866048568"><ele>551.0</ele><time>2026-04-12T08:14:07Z</time></trkpt><trkpt lat="43.971149642066656" lon="12.14356061109429"><ele>549.0</ele><time>2026-04-12T08:14:08Z</time></trkpt><trkpt lat="43.971066910148146" lon="12.14354001020823"><ele>547.0</ele><time>2026-04-12T08:14:09Z</time></trkpt><trkpt lat="43.97099180323264" lon="12.143475898988092"><ele>547.0</ele><time>2026-04-12T08:14:10Z</time></trkpt><trkpt lat="43.970915350561306" lon="12.1433983975034"><ele>547.0</ele><time>2026-04-12T08:14:11Z</time></trkpt><trkpt lat="43.97083568175566" lon="12.143319750495204"><ele>547.0</ele><time>2026-04-12T08:14:12Z</time></trkpt><trkpt lat="43.970757946654246" lon="12.143247817608144"><ele>547.0</ele><time>2026-04-12T08:14:13Z</time></trkpt><trkpt lat="43.97070378077797" lon="12.143153260842713"><ele>547.0</ele><time>2026-04-12T08:14:14Z</time></trkpt><trkpt lat="43.9706570101157" lon="12.14305691194463"><ele>546.4</ele><time>2026-04-12T08:14:15Z</time></trkpt><trkpt lat="43.97060049410996" lon="12.142949551110364"><ele>545.8000000000001</ele><time>2026-04-12T08:14:16Z</time></trkpt><trkpt lat="43.9705651315811" lon="12.142840214569018"><ele>545.2</ele><time>2026-04-12T08:14:17Z</time></trkpt><trkpt lat="43.97052461714148" lon="12.142736680667289"><ele>544.6</ele><time>2026-04-12T08:14:18Z</time></trkpt><trkpt lat="43.97048932528444" lon="12.142618708265879"><ele>544.0</ele><time>2026-04-12T08:14:19Z</time></trkpt><trkpt lat="43.97043477137809" lon="12.142514706496065"><ele>544.0</ele><time>2026-04-12T08:14:20Z</time></trkpt><trkpt lat="43.97037700843908" lon="12.14240434355746"><ele>544.0</ele><time>2026-04-12T08:14:21Z</time></trkpt><trkpt lat="43.97032475146689" lon="12.14229898719404"><ele>544.0</ele><time>2026-04-12T08:14:22Z</time></trkpt><trkpt lat="43.97027086370858" lon="12.142197055513542"><ele>544.0</ele><time>2026-04-12T08:14:23Z</time></trkpt><trkpt lat="43.970238978302106" lon="12.142080039319298"><ele>544.0</ele><time>2026-04-12T08:14:24Z</time></trkpt><trkpt lat="43.970189320109355" lon="12.14197655829455"><ele>543.0</ele><time>2026-04-12T08:14:25Z</time></trkpt><trkpt lat="43.970175772345584" lon="12.141853705705401"><ele>542.0</ele><time>2026-04-12T08:14:26Z</time></trkpt><trkpt lat="43.97015611519882" lon="12.141732932553122"><ele>541.0</ele><time>2026-04-12T08:14:27Z</time></trkpt><trkpt lat="43.970125346906364" lon="12.141616779039426"><ele>540.0</ele><time>2026-04-12T08:14:28Z</time></trkpt><trkpt lat="43.97008879411512" lon="12.141504327205359"><ele>539.0</ele><time>2026-04-12T08:14:29Z</time></trkpt><trkpt lat="43.97005790558289" lon="12.141400925099155"><ele>538.0</ele><time>2026-04-12T08:14:30Z</time></trkpt><trkpt lat="43.97002505498874" lon="12.141305523763663"><ele>542.6</ele><time>2026-04-12T08:14:31Z</time></trkpt><trkpt lat="43.969971595342344" lon="12.141151586405794"><ele>547.1999999999999</ele><time>2026-04-12T08:14:33Z</time></trkpt><trkpt lat="43.969911330824004" lon="12.141084235654342"><ele>551.8</ele><time>2026-04-12T08:14:34Z</time></trkpt><trkpt lat="43.96983378173214" lon="12.141037858956404"><ele>556.4</ele><time>2026-04-12T08:14:35Z</time></trkpt><trkpt lat="43.96975837887482" lon="12.140991708066444"><ele>561.0</ele><time>2026-04-12T08:14:36Z</time></trkpt><trkpt lat="43.96967288253189" lon="12.140971656164893"><ele>561.0</ele><time>2026-04-12T08:14:37Z</time></trkpt><trkpt lat="43.96957138478904" lon="12.141004827368938"><ele>561.0</ele><time>2026-04-12T08:14:38Z</time></trkpt><trkpt lat="43.96947455634918" lon="12.141035698102584"><ele>561.0</ele><time>2026-04-12T08:14:39Z</time></trkpt><trkpt lat="43.969389999490176" lon="12.141070712326536"><ele>561.0</ele><time>2026-04-12T08:14:40Z</time></trkpt><trkpt lat="43.96929697743884" lon="12.141047656067313"><ele>561.0</ele><time>2026-04-12T08:14:41Z</time></trkpt><trkpt lat="43.969197718139746" lon="12.141019861697268"><ele>562.4</ele><time>2026-04-12T08:14:42Z</time></trkpt><trkpt lat="43.969122240865225" lon="12.140903006152499"><ele>563.8</ele><time>2026-04-12T08:14:43Z</time></trkpt><trkpt lat="43.96907792089516" lon="12.140769797936809"><ele>565.1999999999999</ele><time>2026-04-12T08:14:44Z</time></trkpt><trkpt lat="43.96901122262393" lon="12.140646531135515"><ele>566.6</ele><time>2026-04-12T08:14:45Z</time></trkpt><trkpt lat="43.968958257664475" lon="12.140522521106584"><ele>568.0</ele><time>2026-04-12T08:14:46Z</time></trkpt><trkpt lat="43.968899513044754" lon="12.140413563048899"><ele>565.3333333333334</ele><time>2026-04-12T08:14:47Z</time></trkpt><trkpt lat="43.968859492496314" lon="12.14030594782765"><ele>562.6666666666667</ele><time>2026-04-12T08:14:48Z</time></trkpt><trkpt lat="43.968813560516175" lon="12.140228851938364"><ele>560.0</ele><time>2026-04-12T08:14:49Z</time></trkpt><trkpt lat="43.968758361541894" lon="12.140181754983914"><ele>557.3333333333334</ele><time>2026-04-12T08:14:50Z</time></trkpt><trkpt lat="43.96868768310443" lon="12.14015185229615"><ele>554.6666666666666</ele><time>2026-04-12T08:14:51Z</time></trkpt><trkpt lat="43.968596121111986" lon="12.140166534787049"><ele>552.0</ele><time>2026-04-12T08:14:52Z</time></trkpt><trkpt lat="43.96850355586306" lon="12.140163715699837"><ele>552.0</ele><time>2026-04-12T08:14:53Z</time></trkpt><trkpt lat="43.968408852164906" lon="12.140176994184086"><ele>552.0</ele><time>2026-04-12T08:14:54Z</time></trkpt><trkpt lat="43.968310623997205" lon="12.140173364136734"><ele>552.0</ele><time>2026-04-12T08:14:55Z</time></trkpt><trkpt lat="43.96820464296599" lon="12.140154292995637"><ele>552.0</ele><time>2026-04-12T08:14:56Z</time></trkpt><trkpt lat="43.96812072147568" lon="12.140078944228758"><ele>552.0</ele><time>2026-04-12T08:14:57Z</time></trkpt><trkpt lat="43.968045721956756" lon="12.13995285366692"><ele>551.8000000000001</ele><time>2026-04-12T08:14:58Z</time></trkpt><trkpt lat="43.96798272148269" lon="12.139838763800473"><ele>551.6</ele><time>2026-04-12T08:14:59Z</time></trkpt><trkpt lat="43.96790210680987" lon="12.139768631425605"><ele>551.4000000000001</ele><time>2026-04-12T08:15:00Z</time></trkpt><trkpt lat="43.96780957397743" lon="12.139685246117718"><ele>551.2</ele><time>2026-04-12T08:15:01Z</time></trkpt><trkpt lat="43.96771221247201" lon="12.139621498747294"><ele>551.0</ele><time>2026-04-12T08:15:02Z</time></trkpt><trkpt lat="43.96764740624253" lon="12.139505453063848"><ele>551.0</ele><time>2026-04-12T08:15:03Z</time></trkpt><trkpt lat="43.96759867655429" lon="12.13935903699739"><ele>551.0</ele><time>2026-04-12T08:15:04Z</time></trkpt><trkpt lat="43.96756616374354" lon="12.139218241590934"><ele>551.0</ele><time>2026-04-12T08:15:05Z</time></trkpt><trkpt lat="43.967512143187555" lon="12.139114735356094"><ele>551.0</ele><time>2026-04-12T08:15:06Z</time></trkpt><trkpt lat="43.9674385618842" lon="12.139024416006931"><ele>551.0</ele><time>2026-04-12T08:15:07Z</time></trkpt><trkpt lat="43.96736758581752" lon="12.138919217742195"><ele>554.5</ele><time>2026-04-12T08:15:08Z</time></trkpt><trkpt lat="43.96728915455466" lon="12.138834017997295"><ele>558.0</ele><time>2026-04-12T08:15:09Z</time></trkpt><trkpt lat="43.96720843551461" lon="12.138769752426807"><ele>561.5</ele><time>2026-04-12T08:15:10Z</time></trkpt><trkpt lat="43.96715343150029" lon="12.13867588011869"><ele>565.0</ele><time>2026-04-12T08:15:11Z</time></trkpt><trkpt lat="43.96710297696389" lon="12.138597963898436"><ele>568.5</ele><time>2026-04-12T08:15:12Z</time></trkpt><trkpt lat="43.967039843256714" lon="12.138502834764301"><ele>572.0</ele><time>2026-04-12T08:15:14Z</time></trkpt><trkpt lat="43.966998804959495" lon="12.138421597833645"><ele>572.0</ele><time>2026-04-12T08:15:16Z</time></trkpt><trkpt lat="43.96696586174934" lon="12.138336550502766"><ele>572.0</ele><time>2026-04-12T08:15:18Z</time></trkpt><trkpt lat="43.966915609862134" lon="12.138206158122463"><ele>572.0</ele><time>2026-04-12T08:15:20Z</time></trkpt><trkpt lat="43.966892708392315" lon="12.138119343399378"><ele>572.0</ele><time>2026-04-12T08:15:21Z</time></trkpt><trkpt lat="43.96687422505878" lon="12.138035581284178"><ele>572.0</ele><time>2026-04-12T08:15:22Z</time></trkpt><trkpt lat="43.96685274546734" lon="12.137942095162806"><ele>572.0</ele><time>2026-04-12T08:15:23Z</time></trkpt><trkpt lat="43.96682898725872" lon="12.137839206212586"><ele>574.6</ele><time>2026-04-12T08:15:24Z</time></trkpt><trkpt lat="43.96680483945666" lon="12.137722395862419"><ele>577.2</ele><time>2026-04-12T08:15:25Z</time></trkpt><trkpt lat="43.96678823036896" lon="12.137596715370737"><ele>579.8</ele><time>2026-04-12T08:15:26Z</time></trkpt><trkpt lat="43.96677125588811" lon="12.13744362264848"><ele>582.4</ele><time>2026-04-12T08:15:27.001Z</time></trkpt><trkpt lat="43.9667650933833" lon="12.137309082438733"><ele>585.0</ele><time>2026-04-12T08:15:28.001Z</time></trkpt><trkpt lat="43.96675998179097" lon="12.13718653759311"><ele>586.4</ele><time>2026-04-12T08:15:29.001Z</time></trkpt><trkpt lat="43.96673826925939" lon="12.137065376419802"><ele>587.8</ele><time>2026-04-12T08:15:30.001Z</time></trkpt><trkpt lat="43.96671005559513" lon="12.136948845201712"><ele>589.2</ele><time>2026-04-12T08:15:31.001Z</time></trkpt><trkpt lat="43.966666944173376" lon="12.136820680981863"><ele>590.6</ele><time>2026-04-12T08:15:31.999Z</time></trkpt><trkpt lat="43.96660767426915" lon="12.136701050270718"><ele>592.0</ele><time>2026-04-12T08:15:32.999Z</time></trkpt><trkpt lat="43.96656185366857" lon="12.136581378229673"><ele>586.6</ele><time>2026-04-12T08:15:33.999Z</time></trkpt><trkpt lat="43.966524309287315" lon="12.136454830401634"><ele>581.2</ele><time>2026-04-12T08:15:34.999Z</time></trkpt><trkpt lat="43.966497434618574" lon="12.136325837191322"><ele>575.8</ele><time>2026-04-12T08:15:35.999Z</time></trkpt><trkpt lat="43.966487674848786" lon="12.136194117179178"><ele>570.4</ele><time>2026-04-12T08:15:36.999Z</time></trkpt><trkpt lat="43.96648478765952" lon="12.136074605438548"><ele>565.0</ele><time>2026-04-12T08:15:37.999Z</time></trkpt><trkpt lat="43.966484958371716" lon="12.135948983824456"><ele>565.0</ele><time>2026-04-12T08:15:38.999Z</time></trkpt><trkpt lat="43.96647713492171" lon="12.135812570098947"><ele>565.0</ele><time>2026-04-12T08:15:39.999Z</time></trkpt><trkpt lat="43.966469153214824" lon="12.135686466953194"><ele>565.0</ele><time>2026-04-12T08:15:40.999Z</time></trkpt><trkpt lat="43.96644824762892" lon="12.13556007372833"><ele>565.0</ele><time>2026-04-12T08:15:41.999Z</time></trkpt><trkpt lat="43.96641694733604" lon="12.135441055404105"><ele>565.0</ele><time>2026-04-12T08:15:42.999Z</time></trkpt><trkpt lat="43.96636984180965" lon="12.135336906640902"><ele>563.4</ele><time>2026-04-12T08:15:43.999Z</time></trkpt><trkpt lat="43.96631979084789" lon="12.135258623061029"><ele>561.8</ele><time>2026-04-12T08:15:44.999Z</time></trkpt><trkpt lat="43.96624274504275" lon="12.13516900732832"><ele>560.2</ele><time>2026-04-12T08:15:46.999Z</time></trkpt><trkpt lat="43.96613778466977" lon="12.13508628552682"><ele>558.6</ele><time>2026-04-12T08:15:48.999Z</time></trkpt><trkpt lat="43.96603909798922" lon="12.135016306147635"><ele>557.0</ele><time>2026-04-12T08:15:51Z</time></trkpt><trkpt lat="43.96593896691005" lon="12.134959295207189"><ele>557.8000000000001</ele><time>2026-04-12T08:15:53Z</time></trkpt><trkpt lat="43.96582400298098" lon="12.134883366829774"><ele>558.6</ele><time>2026-04-12T08:15:55Z</time></trkpt><trkpt lat="43.96576215792098" lon="12.134829392187239"><ele>559.4000000000001</ele><time>2026-04-12T08:15:56Z</time></trkpt><trkpt lat="43.9656896688528" lon="12.134762686594653"><ele>560.2</ele><time>2026-04-12T08:15:57Z</time></trkpt><trkpt lat="43.96563528964216" lon="12.1346660592202"><ele>561.0</ele><time>2026-04-12T08:15:58Z</time></trkpt><trkpt lat="43.96555944449289" lon="12.134586200761781"><ele>561.0</ele><time>2026-04-12T08:15:59Z</time></trkpt><trkpt lat="43.96549899634894" lon="12.134479536549014"><ele>561.0</ele><time>2026-04-12T08:16:00Z</time></trkpt><trkpt lat="43.96543609665085" lon="12.134377644834121"><ele>561.0</ele><time>2026-04-12T08:16:01Z</time></trkpt><trkpt lat="43.96537512215727" lon="12.134273137891446"><ele>561.0</ele><time>2026-04-12T08:16:02Z</time></trkpt><trkpt lat="43.965304094398725" lon="12.134167565491751"><ele>561.0</ele><time>2026-04-12T08:16:03Z</time></trkpt><trkpt lat="43.96522679170926" lon="12.134081203098768"><ele>559.6</ele><time>2026-04-12T08:16:04Z</time></trkpt><trkpt lat="43.96514325828881" lon="12.134019311619053"><ele>558.2</ele><time>2026-04-12T08:16:05Z</time></trkpt><trkpt lat="43.96506057847842" lon="12.133961185146335"><ele>556.8</ele><time>2026-04-12T08:16:06Z</time></trkpt><trkpt lat="43.96498149776505" lon="12.133907490654154"><ele>555.4</ele><time>2026-04-12T08:16:07Z</time></trkpt><trkpt lat="43.964898153735994" lon="12.133840463380379"><ele>554.0</ele><time>2026-04-12T08:16:08Z</time></trkpt><trkpt lat="43.9648114917334" lon="12.133765160082556"><ele>554.0</ele><time>2026-04-12T08:16:09Z</time></trkpt><trkpt lat="43.96472269799373" lon="12.13368731084718"><ele>554.0</ele><time>2026-04-12T08:16:10Z</time></trkpt><trkpt lat="43.964635727817836" lon="12.133611807160344"><ele>554.0</ele><time>2026-04-12T08:16:11Z</time></trkpt><trkpt lat="43.964555647660795" lon="12.133544918277712"><ele>554.0</ele><time>2026-04-12T08:16:12Z</time></trkpt><trkpt lat="43.964476394728806" lon="12.133490218192884"><ele>554.0</ele><time>2026-04-12T08:16:13Z</time></trkpt><trkpt lat="43.96440264638768" lon="12.133431238796234"><ele>554.0</ele><time>2026-04-12T08:16:14Z</time></trkpt><trkpt lat="43.96433354688498" lon="12.133356250636384"><ele>554.0</ele><time>2026-04-12T08:16:15Z</time></trkpt><trkpt lat="43.96426728446553" lon="12.133268471885716"><ele>554.0</ele><time>2026-04-12T08:16:16Z</time></trkpt><trkpt lat="43.96419639493391" lon="12.133189083220913"><ele>554.0</ele><time>2026-04-12T08:16:17Z</time></trkpt><trkpt lat="43.96411430920707" lon="12.133130373643189"><ele>554.0</ele><time>2026-04-12T08:16:18Z</time></trkpt><trkpt lat="43.96401829247686" lon="12.1330907720089"><ele>547.8333333333333</ele><time>2026-04-12T08:16:19Z</time></trkpt><trkpt lat="43.963915258464766" lon="12.133062058661055"><ele>541.6666666666666</ele><time>2026-04-12T08:16:20Z</time></trkpt><trkpt lat="43.963824087154784" lon="12.133039564737478"><ele>535.5</ele><time>2026-04-12T08:16:21Z</time></trkpt><trkpt lat="43.96374213656331" lon="12.133023451213012"><ele>529.3333333333334</ele><time>2026-04-12T08:16:22Z</time></trkpt><trkpt lat="43.96366616317496" lon="12.133038942584417"><ele>523.1666666666667</ele><time>2026-04-12T08:16:23Z</time></trkpt><trkpt lat="43.963604796665656" lon="12.1330651938758"><ele>517.0</ele><time>2026-04-12T08:16:24Z</time></trkpt><trkpt lat="43.96353880793114" lon="12.133091112298802"><ele>517.0</ele><time>2026-04-12T08:16:25Z</time></trkpt><trkpt lat="43.96347166487254" lon="12.133102391906556"><ele>517.0</ele><time>2026-04-12T08:16:26Z</time></trkpt><trkpt lat="43.96339112995136" lon="12.133128177157548"><ele>517.0</ele><time>2026-04-12T08:16:27Z</time></trkpt><trkpt lat="43.96330443910063" lon="12.133154192813995"><ele>517.0</ele><time>2026-04-12T08:16:28Z</time></trkpt><trkpt lat="43.96321018201293" lon="12.133176306273958"><ele>517.0</ele><time>2026-04-12T08:16:29Z</time></trkpt><trkpt lat="43.963106031250454" lon="12.13318522683985"><ele>517.0</ele><time>2026-04-12T08:16:30Z</time></trkpt><trkpt lat="43.96300215534366" lon="12.133178892262862"><ele>517.4</ele><time>2026-04-12T08:16:31Z</time></trkpt><trkpt lat="43.962894784090935" lon="12.133171906357308"><ele>517.8000000000001</ele><time>2026-04-12T08:16:32Z</time></trkpt><trkpt lat="43.962794106613806" lon="12.133184480992082"><ele>518.2</ele><time>2026-04-12T08:16:33Z</time></trkpt><trkpt lat="43.96269405726287" lon="12.133199698691042"><ele>518.6</ele><time>2026-04-12T08:16:34Z</time></trkpt><trkpt lat="43.96259552211748" lon="12.133205586471194"><ele>519.0</ele><time>2026-04-12T08:16:35Z</time></trkpt><trkpt lat="43.962499251948095" lon="12.133207823156937"><ele>519.0</ele><time>2026-04-12T08:16:36Z</time></trkpt><trkpt lat="43.962403505639244" lon="12.13321082957815"><ele>519.0</ele><time>2026-04-12T08:16:37Z</time></trkpt><trkpt lat="43.962310524321104" lon="12.133208016514134"><ele>519.0</ele><time>2026-04-12T08:16:38Z</time></trkpt><trkpt lat="43.962230959834365" lon="12.13319760285362"><ele>519.0</ele><time>2026-04-12T08:16:39Z</time></trkpt><trkpt lat="43.962160628279776" lon="12.133164370900678"><ele>519.0</ele><time>2026-04-12T08:16:40Z</time></trkpt><trkpt lat="43.96208417311779" lon="12.133115251907753"><ele>519.0</ele><time>2026-04-12T08:16:41Z</time></trkpt><trkpt lat="43.96200786880064" lon="12.133054182065358"><ele>519.0</ele><time>2026-04-12T08:16:42Z</time></trkpt><trkpt lat="43.961931088392156" lon="12.133004215939984"><ele>519.0</ele><time>2026-04-12T08:16:43Z</time></trkpt><trkpt lat="43.96185961939316" lon="12.132963449622027"><ele>519.0</ele><time>2026-04-12T08:16:44Z</time></trkpt><trkpt lat="43.96178682164457" lon="12.132928392673707"><ele>519.0</ele><time>2026-04-12T08:16:45Z</time></trkpt><trkpt lat="43.961716258052554" lon="12.132904267947424"><ele>519.0</ele><time>2026-04-12T08:16:46Z</time></trkpt><trkpt lat="43.96164488625147" lon="12.132889176274519"><ele>519.0</ele><time>2026-04-12T08:16:47Z</time></trkpt><trkpt lat="43.96157408904635" lon="12.132881136810909"><ele>521.8</ele><time>2026-04-12T08:16:48Z</time></trkpt><trkpt lat="43.961508230930825" lon="12.132843247345377"><ele>524.5999999999999</ele><time>2026-04-12T08:16:49Z</time></trkpt><trkpt lat="43.961453553402905" lon="12.132793357149948"><ele>527.4</ele><time>2026-04-12T08:16:50Z</time></trkpt><trkpt lat="43.96135986773876" lon="12.13270411915432"><ele>530.1999999999999</ele><time>2026-04-12T08:16:52Z</time></trkpt><trkpt lat="43.96123142104557" lon="12.132670771715711"><ele>533.0</ele><time>2026-04-12T08:16:54Z</time></trkpt><trkpt lat="43.96115482547696" lon="12.13264903592218"><ele>533.0</ele><time>2026-04-12T08:16:55Z</time></trkpt><trkpt lat="43.9610846383347" lon="12.13263233716761"><ele>533.0</ele><time>2026-04-12T08:16:56Z</time></trkpt><trkpt lat="43.960969869643485" lon="12.132615679635293"><ele>533.0</ele><time>2026-04-12T08:16:58Z</time></trkpt><trkpt lat="43.960865274864744" lon="12.132671257039815"><ele>533.0</ele><time>2026-04-12T08:17:00Z</time></trkpt><trkpt lat="43.96078199489039" lon="12.13277599538446"><ele>533.0</ele><time>2026-04-12T08:17:02Z</time></trkpt><trkpt lat="43.96073522682875" lon="12.132858724041508"><ele>532.6</ele><time>2026-04-12T08:17:03Z</time></trkpt><trkpt lat="43.960674630594625" lon="12.132953949436937"><ele>532.1999999999999</ele><time>2026-04-12T08:17:04Z</time></trkpt><trkpt lat="43.960611302218204" lon="12.133053337398293"><ele>531.8</ele><time>2026-04-12T08:17:05Z</time></trkpt><trkpt lat="43.96054628704508" lon="12.133150957741902"><ele>531.4</ele><time>2026-04-12T08:17:06Z</time></trkpt><trkpt lat="43.96047282304092" lon="12.133250583420146"><ele>531.0</ele><time>2026-04-12T08:17:07.001Z</time></trkpt><trkpt lat="43.96039293661495" lon="12.133352736128238"><ele>531.0</ele><time>2026-04-12T08:17:08.001Z</time></trkpt><trkpt lat="43.96030642929895" lon="12.133448513963108"><ele>531.0</ele><time>2026-04-12T08:17:09.001Z</time></trkpt><trkpt lat="43.96021880105243" lon="12.133534690752263"><ele>531.0</ele><time>2026-04-12T08:17:10.001Z</time></trkpt><trkpt lat="43.96012821485728" lon="12.133606197473867"><ele>531.0</ele><time>2026-04-12T08:17:11.001Z</time></trkpt><trkpt lat="43.96003554163076" lon="12.133666972182851"><ele>531.0</ele><time>2026-04-12T08:17:12.001Z</time></trkpt><trkpt lat="43.95994719651535" lon="12.1337172334998"><ele>530.5</ele><time>2026-04-12T08:17:13.001Z</time></trkpt><trkpt lat="43.959858847583355" lon="12.133759114342483"><ele>530.0</ele><time>2026-04-12T08:17:14.001Z</time></trkpt><trkpt lat="43.959774835003415" lon="12.133800574614439"><ele>529.5</ele><time>2026-04-12T08:17:15.001Z</time></trkpt><trkpt lat="43.959701010312855" lon="12.13383853433051"><ele>529.0</ele><time>2026-04-12T08:17:16.001Z</time></trkpt><trkpt lat="43.959632353686956" lon="12.133877085318533"><ele>528.5</ele><time>2026-04-12T08:17:17.001Z</time></trkpt><trkpt lat="43.959568796208465" lon="12.133915267112682"><ele>528.0</ele><time>2026-04-12T08:17:18.001Z</time></trkpt><trkpt lat="43.95950771526894" lon="12.133955570386696"><ele>528.0</ele><time>2026-04-12T08:17:19.001Z</time></trkpt><trkpt lat="43.95944216360299" lon="12.133973383406165"><ele>528.0</ele><time>2026-04-12T08:17:20.001Z</time></trkpt><trkpt lat="43.95932687168325" lon="12.134033319077014"><ele>528.0</ele><time>2026-04-12T08:17:22.001Z</time></trkpt><trkpt lat="43.95921064987243" lon="12.134093738153892"><ele>528.0</ele><time>2026-04-12T08:17:24.001Z</time></trkpt><trkpt lat="43.959093564086174" lon="12.13415460543519"><ele>528.0</ele><time>2026-04-12T08:17:26.001Z</time></trkpt><trkpt lat="43.95903622301855" lon="12.13419454042902"><ele>527.1999999999999</ele><time>2026-04-12T08:17:27.001Z</time></trkpt><trkpt lat="43.958967279535415" lon="12.134198487189508"><ele>526.4</ele><time>2026-04-12T08:17:28.001Z</time></trkpt><trkpt lat="43.958856662524575" lon="12.134247610672684"><ele>525.5999999999999</ele><time>2026-04-12T08:17:30.001Z</time></trkpt><trkpt lat="43.95873270368629" lon="12.134194951330697"><ele>524.8</ele><time>2026-04-12T08:17:32.001Z</time></trkpt><trkpt lat="43.95862798822476" lon="12.134237723911445"><ele>524.0</ele><time>2026-04-12T08:17:34.001Z</time></trkpt><trkpt lat="43.958571134241375" lon="12.134283333351553"><ele>524.0</ele><time>2026-04-12T08:17:35.001Z</time></trkpt><trkpt lat="43.9585052815348" lon="12.134333522563125"><ele>524.0</ele><time>2026-04-12T08:17:36.001Z</time></trkpt><trkpt lat="43.958448573665805" lon="12.134396175570938"><ele>524.0</ele><time>2026-04-12T08:17:37.001Z</time></trkpt><trkpt lat="43.9583843424126" lon="12.134445331934925"><ele>524.0</ele><time>2026-04-12T08:17:38Z</time></trkpt><trkpt lat="43.958347474623935" lon="12.134562017189518"><ele>524.0</ele><time>2026-04-12T08:17:39Z</time></trkpt><trkpt lat="43.95828260129036" lon="12.134640639615041"><ele>524.0</ele><time>2026-04-12T08:17:40Z</time></trkpt><trkpt lat="43.95821052877596" lon="12.134720602569725"><ele>524.0</ele><time>2026-04-12T08:17:41Z</time></trkpt><trkpt lat="43.958139439076255" lon="12.134818748285127"><ele>524.0</ele><time>2026-04-12T08:17:42Z</time></trkpt><trkpt lat="43.958077020632096" lon="12.134937639187074"><ele>524.0</ele><time>2026-04-12T08:17:43Z</time></trkpt><trkpt lat="43.95802265219206" lon="12.135069756507187"><ele>524.0</ele><time>2026-04-12T08:17:44Z</time></trkpt><trkpt lat="43.95797994158173" lon="12.13518845982243"><ele>524.0</ele><time>2026-04-12T08:17:45Z</time></trkpt><trkpt lat="43.957929220224614" lon="12.135266196384126"><ele>524.0</ele><time>2026-04-12T08:17:46Z</time></trkpt><trkpt lat="43.95786441175503" lon="12.135314553537961"><ele>524.0</ele><time>2026-04-12T08:17:47Z</time></trkpt><trkpt lat="43.95778310358055" lon="12.135328105828501"><ele>524.0</ele><time>2026-04-12T08:17:48Z</time></trkpt><trkpt lat="43.95768582664558" lon="12.135310578526393"><ele>524.0</ele><time>2026-04-12T08:17:49Z</time></trkpt><trkpt lat="43.957593249359206" lon="12.1352890393598"><ele>524.0</ele><time>2026-04-12T08:17:50Z</time></trkpt><trkpt lat="43.95749781389333" lon="12.135255899694444"><ele>524.0</ele><time>2026-04-12T08:17:51Z</time></trkpt><trkpt lat="43.95739733647213" lon="12.135222352346542"><ele>529.4</ele><time>2026-04-12T08:17:52Z</time></trkpt><trkpt lat="43.95729866076756" lon="12.13520223048421"><ele>534.8</ele><time>2026-04-12T08:17:53Z</time></trkpt><trkpt lat="43.957196193457975" lon="12.135199841949934"><ele>540.2</ele><time>2026-04-12T08:17:54Z</time></trkpt><trkpt lat="43.95708472558776" lon="12.135241207052218"><ele>545.6</ele><time>2026-04-12T08:17:55Z</time></trkpt><trkpt lat="43.956967305052885" lon="12.135299881201012"><ele>551.0</ele><time>2026-04-12T08:17:56Z</time></trkpt><trkpt lat="43.95685327001193" lon="12.135361756635582"><ele>551.0</ele><time>2026-04-12T08:17:57Z</time></trkpt><trkpt lat="43.95675079380602" lon="12.135408709967265"><ele>551.0</ele><time>2026-04-12T08:17:58Z</time></trkpt><trkpt lat="43.95665719400564" lon="12.13546838632806"><ele>551.0</ele><time>2026-04-12T08:17:59Z</time></trkpt><trkpt lat="43.95652750463638" lon="12.135534066136156"><ele>551.0</ele><time>2026-04-12T08:18:00Z</time></trkpt><trkpt lat="43.95638790306447" lon="12.135606018230112"><ele>548.8</ele><time>2026-04-12T08:18:01Z</time></trkpt><trkpt lat="43.95628140125765" lon="12.135661622901441"><ele>546.6</ele><time>2026-04-12T08:18:02Z</time></trkpt><trkpt lat="43.95616738927097" lon="12.13569905564995"><ele>544.4</ele><time>2026-04-12T08:18:03Z</time></trkpt><trkpt lat="43.956070827097" lon="12.135755049816039"><ele>542.2</ele><time>2026-04-12T08:18:04Z</time></trkpt><trkpt lat="43.95597496463187" lon="12.135799318381869"><ele>540.0</ele><time>2026-04-12T08:18:05Z</time></trkpt><trkpt lat="43.95588500832913" lon="12.135833835609832"><ele>542.8333333333334</ele><time>2026-04-12T08:18:06Z</time></trkpt><trkpt lat="43.95581625765602" lon="12.135830010981815"><ele>545.6666666666666</ele><time>2026-04-12T08:18:07Z</time></trkpt><trkpt lat="43.95573674918689" lon="12.135806588356829"><ele>548.5</ele><time>2026-04-12T08:18:08Z</time></trkpt><trkpt lat="43.955665745851384" lon="12.135743799404592"><ele>551.3333333333333</ele><time>2026-04-12T08:18:09Z</time></trkpt><trkpt lat="43.95562489475941" lon="12.135632914316428"><ele>554.1666666666666</ele><time>2026-04-12T08:18:10Z</time></trkpt><trkpt lat="43.9555645607924" lon="12.135525531004305"><ele>557.0</ele><time>2026-04-12T08:18:11Z</time></trkpt><trkpt lat="43.95550488270429" lon="12.135414104842969"><ele>559.6</ele><time>2026-04-12T08:18:12Z</time></trkpt><trkpt lat="43.955474495658706" lon="12.13526763044888"><ele>562.2</ele><time>2026-04-12T08:18:13Z</time></trkpt><trkpt lat="43.95541947143142" lon="12.135146539363596"><ele>564.8</ele><time>2026-04-12T08:18:14Z</time></trkpt><trkpt lat="43.955346577666866" lon="12.135054409136453"><ele>567.4</ele><time>2026-04-12T08:18:15Z</time></trkpt><trkpt lat="43.955278747288006" lon="12.134950252964577"><ele>570.0</ele><time>2026-04-12T08:18:16Z</time></trkpt><trkpt lat="43.955179296085646" lon="12.134886901695406"><ele>570.0</ele><time>2026-04-12T08:18:17Z</time></trkpt><trkpt lat="43.955067143850734" lon="12.134853585392541"><ele>570.0</ele><time>2026-04-12T08:18:18Z</time></trkpt><trkpt lat="43.95496333210832" lon="12.13480516913544"><ele>570.0</ele><time>2026-04-12T08:18:19Z</time></trkpt><trkpt lat="43.95485091622634" lon="12.134771080718634"><ele>570.0</ele><time>2026-04-12T08:18:20Z</time></trkpt><trkpt lat="43.95473688682221" lon="12.1347481572849"><ele>569.4</ele><time>2026-04-12T08:18:21Z</time></trkpt><trkpt lat="43.95462002693341" lon="12.134734725020138"><ele>568.8</ele><time>2026-04-12T08:18:22Z</time></trkpt><trkpt lat="43.95450729088939" lon="12.134717435292972"><ele>568.2</ele><time>2026-04-12T08:18:23Z</time></trkpt><trkpt lat="43.954399678846855" lon="12.13471603900989"><ele>567.6</ele><time>2026-04-12T08:18:24Z</time></trkpt><trkpt lat="43.95430213362126" lon="12.134733601063498"><ele>567.0</ele><time>2026-04-12T08:18:25Z</time></trkpt><trkpt lat="43.95421184284901" lon="12.134770210442875"><ele>565.8000000000001</ele><time>2026-04-12T08:18:26Z</time></trkpt><trkpt lat="43.954116205921395" lon="12.134821575949553"><ele>564.6</ele><time>2026-04-12T08:18:27Z</time></trkpt><trkpt lat="43.95402209810678" lon="12.134889555100159"><ele>563.4000000000001</ele><time>2026-04-12T08:18:28Z</time></trkpt><trkpt lat="43.953928681133" lon="12.134965044590132"><ele>562.2</ele><time>2026-04-12T08:18:29Z</time></trkpt><trkpt lat="43.9538427351346" lon="12.135037475853853"><ele>561.0</ele><time>2026-04-12T08:18:30Z</time></trkpt><trkpt lat="43.95375687457643" lon="12.135105748044468"><ele>561.0</ele><time>2026-04-12T08:18:31Z</time></trkpt><trkpt lat="43.953672796877306" lon="12.135168786548185"><ele>561.0</ele><time>2026-04-12T08:18:32Z</time></trkpt><trkpt lat="43.95359906597231" lon="12.135228366537618"><ele>561.0</ele><time>2026-04-12T08:18:33Z</time></trkpt><trkpt lat="43.95352670836742" lon="12.13527456570609"><ele>561.0</ele><time>2026-04-12T08:18:34Z</time></trkpt><trkpt lat="43.95345316686834" lon="12.13532010775306"><ele>561.0</ele><time>2026-04-12T08:18:35Z</time></trkpt><trkpt lat="43.95337236554976" lon="12.135360178524405"><ele>561.0</ele><time>2026-04-12T08:18:36Z</time></trkpt><trkpt lat="43.953290434669164" lon="12.135386543431897"><ele>563.0</ele><time>2026-04-12T08:18:37Z</time></trkpt><trkpt lat="43.95320338584759" lon="12.135403396077514"><ele>565.0</ele><time>2026-04-12T08:18:38Z</time></trkpt><trkpt lat="43.953115539618445" lon="12.135413260506342"><ele>567.0</ele><time>2026-04-12T08:18:39Z</time></trkpt><trkpt lat="43.953033339349346" lon="12.135413538849688"><ele>569.0</ele><time>2026-04-12T08:18:40Z</time></trkpt><trkpt lat="43.95295325316836" lon="12.13539710733028"><ele>571.0</ele><time>2026-04-12T08:18:41Z</time></trkpt><trkpt lat="43.95286705597563" lon="12.135359300154361"><ele>573.0</ele><time>2026-04-12T08:18:42Z</time></trkpt><trkpt lat="43.952782150456216" lon="12.135315746563656"><ele>573.0</ele><time>2026-04-12T08:18:43Z</time></trkpt><trkpt lat="43.95270736086067" lon="12.135265311904716"><ele>573.0</ele><time>2026-04-12T08:18:44Z</time></trkpt><trkpt lat="43.95264538322631" lon="12.135214947725501"><ele>573.0</ele><time>2026-04-12T08:18:45Z</time></trkpt><trkpt lat="43.95257328557767" lon="12.135175993312705"><ele>573.0</ele><time>2026-04-12T08:18:46Z</time></trkpt><trkpt lat="43.95250772280188" lon="12.135134100738753"><ele>573.0</ele><time>2026-04-12T08:18:47Z</time></trkpt><trkpt lat="43.952423017298514" lon="12.135108336689564"><ele>573.0</ele><time>2026-04-12T08:18:48Z</time></trkpt><trkpt lat="43.952337789002414" lon="12.135092259204852"><ele>572.6</ele><time>2026-04-12T08:18:49Z</time></trkpt><trkpt lat="43.95224315650366" lon="12.135078418128783"><ele>572.1999999999999</ele><time>2026-04-12T08:18:50Z</time></trkpt><trkpt lat="43.95213951181281" lon="12.13507456777664"><ele>571.8</ele><time>2026-04-12T08:18:51Z</time></trkpt><trkpt lat="43.95202934911089" lon="12.135071079682492"><ele>571.4</ele><time>2026-04-12T08:18:52Z</time></trkpt><trkpt lat="43.95191083745611" lon="12.13506586397138"><ele>571.0</ele><time>2026-04-12T08:18:53Z</time></trkpt><trkpt lat="43.95178813232291" lon="12.135064186796692"><ele>569.8</ele><time>2026-04-12T08:18:54Z</time></trkpt><trkpt lat="43.9516691720052" lon="12.135059031495858"><ele>568.6</ele><time>2026-04-12T08:18:55Z</time></trkpt><trkpt lat="43.95155781969028" lon="12.135050912278274"><ele>567.4</ele><time>2026-04-12T08:18:56.001Z</time></trkpt><trkpt lat="43.951454227731325" lon="12.135045885836726"><ele>566.2</ele><time>2026-04-12T08:18:57.001Z</time></trkpt><trkpt lat="43.9513560702218" lon="12.135041713866647"><ele>565.0</ele><time>2026-04-12T08:18:58.001Z</time></trkpt><trkpt lat="43.95125052148976" lon="12.135038524607651"><ele>565.0</ele><time>2026-04-12T08:18:59.001Z</time></trkpt><trkpt lat="43.951139729061005" lon="12.135032138396882"><ele>565.0</ele><time>2026-04-12T08:19:00.001Z</time></trkpt><trkpt lat="43.95103917602844" lon="12.135027193966138"><ele>565.0</ele><time>2026-04-12T08:19:01.001Z</time></trkpt><trkpt lat="43.95093956364191" lon="12.135018301196727"><ele>565.0</ele><time>2026-04-12T08:19:02.001Z</time></trkpt><trkpt lat="43.95084473654274" lon="12.135002047434822"><ele>565.0</ele><time>2026-04-12T08:19:03.001Z</time></trkpt><trkpt lat="43.95074935264035" lon="12.134981460584465"><ele>565.8</ele><time>2026-04-12T08:19:04.001Z</time></trkpt><trkpt lat="43.950662025523926" lon="12.134926146627572"><ele>566.6</ele><time>2026-04-12T08:19:05.001Z</time></trkpt><trkpt lat="43.95056853003119" lon="12.134881104670429"><ele>567.4</ele><time>2026-04-12T08:19:06.001Z</time></trkpt><trkpt lat="43.95047593241919" lon="12.134828421399384"><ele>568.2</ele><time>2026-04-12T08:19:07.001Z</time></trkpt><trkpt lat="43.95038584931284" lon="12.134787230236213"><ele>569.0</ele><time>2026-04-12T08:19:08.001Z</time></trkpt><trkpt lat="43.950313737524844" lon="12.134716906790139"><ele>567.0</ele><time>2026-04-12T08:19:09.001Z</time></trkpt><trkpt lat="43.95026148565621" lon="12.134624234528065"><ele>565.0</ele><time>2026-04-12T08:19:10.001Z</time></trkpt><trkpt lat="43.95019368695474" lon="12.134555025876889"><ele>563.0</ele><time>2026-04-12T08:19:11.001Z</time></trkpt><trkpt lat="43.950154789128355" lon="12.134461242489882"><ele>561.0</ele><time>2026-04-12T08:19:12.001Z</time></trkpt><trkpt lat="43.95012962740911" lon="12.134359218531946"><ele>559.0</ele><time>2026-04-12T08:19:13.001Z</time></trkpt><trkpt lat="43.95010690768105" lon="12.134233748011612"><ele>557.0</ele><time>2026-04-12T08:19:14.001Z</time></trkpt><trkpt lat="43.95008766116674" lon="12.134111738370974"><ele>555.6666666666666</ele><time>2026-04-12T08:19:15.001Z</time></trkpt><trkpt lat="43.95006482534729" lon="12.133987077802646"><ele>554.3333333333333</ele><time>2026-04-12T08:19:16.001Z</time></trkpt><trkpt lat="43.95006317605161" lon="12.13386755995043"><ele>553.0</ele><time>2026-04-12T08:19:17.001Z</time></trkpt><trkpt lat="43.95005555858915" lon="12.133756596252834"><ele>551.6666666666666</ele><time>2026-04-12T08:19:18.001Z</time></trkpt><trkpt lat="43.950048917393694" lon="12.133652493385386"><ele>550.3333333333334</ele><time>2026-04-12T08:19:19.001Z</time></trkpt><trkpt lat="43.95002435364059" lon="12.133546993438673"><ele>549.0</ele><time>2026-04-12T08:19:20.001Z</time></trkpt><trkpt lat="43.95002537342818" lon="12.133438205050718"><ele>550.4285714285714</ele><time>2026-04-12T08:19:21.001Z</time></trkpt><trkpt lat="43.95001199873675" lon="12.133326157265751"><ele>551.8571428571429</ele><time>2026-04-12T08:19:22.001Z</time></trkpt><trkpt lat="43.94999983952198" lon="12.13321327329436"><ele>553.2857142857143</ele><time>2026-04-12T08:19:23.001Z</time></trkpt><trkpt lat="43.94999397867723" lon="12.133104551773247"><ele>554.7142857142858</ele><time>2026-04-12T08:19:24.001Z</time></trkpt><trkpt lat="43.949997677944566" lon="12.13300138806574"><ele>556.1428571428572</ele><time>2026-04-12T08:19:25.001Z</time></trkpt><trkpt lat="43.950011355565" lon="12.132907914062118"><ele>557.5714285714286</ele><time>2026-04-12T08:19:26.001Z</time></trkpt><trkpt lat="43.950038471650906" lon="12.132828452645793"><ele>559.0</ele><time>2026-04-12T08:19:27.001Z</time></trkpt><trkpt lat="43.95011777073008" lon="12.132710319010718"><ele>559.0</ele><time>2026-04-12T08:19:29.001Z</time></trkpt><trkpt lat="43.95017425447623" lon="12.132665884620287"><ele>559.0</ele><time>2026-04-12T08:19:30.001Z</time></trkpt><trkpt lat="43.95024348159165" lon="12.132632989193908"><ele>559.0</ele><time>2026-04-12T08:19:31.001Z</time></trkpt><trkpt lat="43.95031912330337" lon="12.132603368827475"><ele>559.0</ele><time>2026-04-12T08:19:32.001Z</time></trkpt><trkpt lat="43.950398642236664" lon="12.13257466309848"><ele>559.0</ele><time>2026-04-12T08:19:33.001Z</time></trkpt><trkpt lat="43.95047411735915" lon="12.132540228122767"><ele>559.0</ele><time>2026-04-12T08:19:34.001Z</time></trkpt><trkpt lat="43.950552459449604" lon="12.132499208026505"><ele>559.0</ele><time>2026-04-12T08:19:35.001Z</time></trkpt><trkpt lat="43.95062842240727" lon="12.132462404436154"><ele>559.0</ele><time>2026-04-12T08:19:36.001Z</time></trkpt><trkpt lat="43.95069699144891" lon="12.132429164414017"><ele>559.0</ele><time>2026-04-12T08:19:37.001Z</time></trkpt><trkpt lat="43.95075572672761" lon="12.13239102258429"><ele>559.0</ele><time>2026-04-12T08:19:38.001Z</time></trkpt><trkpt lat="43.95080894969097" lon="12.132339538936824"><ele>559.0</ele><time>2026-04-12T08:19:39.001Z</time></trkpt><trkpt lat="43.950857594110126" lon="12.132265935776806"><ele>559.0</ele><time>2026-04-12T08:19:40.001Z</time></trkpt><trkpt lat="43.95088906336176" lon="12.132187275100533"><ele>559.0</ele><time>2026-04-12T08:19:41.001Z</time></trkpt><trkpt lat="43.95092691186347" lon="12.132105884080557"><ele>557.8333333333334</ele><time>2026-04-12T08:19:42.001Z</time></trkpt><trkpt lat="43.950935776424295" lon="12.132009578177142"><ele>556.6666666666667</ele><time>2026-04-12T08:19:43.001Z</time></trkpt><trkpt lat="43.95093008008213" lon="12.13191748173737"><ele>555.5</ele><time>2026-04-12T08:19:44Z</time></trkpt><trkpt lat="43.95091931824179" lon="12.131794741804471"><ele>554.3333333333334</ele><time>2026-04-12T08:19:46Z</time></trkpt><trkpt lat="43.95091186892622" lon="12.131688767504999"><ele>553.1666666666666</ele><time>2026-04-12T08:19:49Z</time></trkpt><trkpt lat="43.95092196611188" lon="12.131822424546735"><ele>552.0</ele><time>2026-04-12T08:20:02Z</time></trkpt><trkpt lat="43.950933081876386" lon="12.1320027947853"><ele>552.0</ele><time>2026-04-12T08:20:04Z</time></trkpt><trkpt lat="43.95093078786657" lon="12.132095372468441"><ele>552.0</ele><time>2026-04-12T08:20:05Z</time></trkpt><trkpt lat="43.95056537288167" lon="12.131772338691533"><ele>555.25</ele><time>2026-04-12T08:20:06Z</time></trkpt><trkpt lat="43.950469470763814" lon="12.131831091508092"><ele>558.5</ele><time>2026-04-12T08:20:08Z</time></trkpt><trkpt lat="43.95039273910795" lon="12.131847957987723"><ele>561.75</ele><time>2026-04-12T08:20:10Z</time></trkpt><trkpt lat="43.9502337523497" lon="12.131865321870285"><ele>565.0</ele><time>2026-04-12T08:20:12Z</time></trkpt><trkpt lat="43.94997417531732" lon="12.13314160987445"><ele>566.6</ele><time>2026-04-12T08:20:18Z</time></trkpt><trkpt lat="43.94997739479182" lon="12.13328743708243"><ele>568.2</ele><time>2026-04-12T08:20:19Z</time></trkpt><trkpt lat="43.94999458344967" lon="12.133432370978415"><ele>569.8</ele><time>2026-04-12T08:20:20Z</time></trkpt><trkpt lat="43.95001167743265" lon="12.13358099602485"><ele>571.4</ele><time>2026-04-12T08:20:21Z</time></trkpt><trkpt lat="43.950019541163286" lon="12.133733577512258"><ele>573.0</ele><time>2026-04-12T08:20:22Z</time></trkpt><trkpt lat="43.95003277810292" lon="12.133889858531324"><ele>569.8</ele><time>2026-04-12T08:20:23Z</time></trkpt><trkpt lat="43.95004700375777" lon="12.134031864406985"><ele>566.5999999999999</ele><time>2026-04-12T08:20:24Z</time></trkpt><trkpt lat="43.950066460857556" lon="12.13415096133543"><ele>563.4000000000001</ele><time>2026-04-12T08:20:25Z</time></trkpt><trkpt lat="43.95008395243294" lon="12.134260139425132"><ele>560.2</ele><time>2026-04-12T08:20:26Z</time></trkpt><trkpt lat="43.95011598780159" lon="12.134420292475266"><ele>557.0</ele><time>2026-04-12T08:20:28Z</time></trkpt><trkpt lat="43.95015551263022" lon="12.13452180612364"><ele>557.0</ele><time>2026-04-12T08:20:30Z</time></trkpt><trkpt lat="43.95019212451187" lon="12.134597386156369"><ele>557.0</ele><time>2026-04-12T08:20:34Z</time></trkpt><trkpt lat="43.95020119814305" lon="12.134691310135471"><ele>557.0</ele><time>2026-04-12T08:21:00.001Z</time></trkpt><trkpt lat="43.950235385341564" lon="12.13460513502021"><ele>557.0</ele><time>2026-04-12T08:21:22.001Z</time></trkpt><trkpt lat="43.95018107948331" lon="12.13449349901121"><ele>557.0</ele><time>2026-04-12T08:21:24.001Z</time></trkpt><trkpt lat="43.950147245266265" lon="12.134416766795294"><ele>557.0</ele><time>2026-04-12T08:21:25.001Z</time></trkpt><trkpt lat="43.95012209266595" lon="12.134290364501853"><ele>557.0</ele><time>2026-04-12T08:21:27.001Z</time></trkpt><trkpt lat="43.95009532282835" lon="12.134122244798036"><ele>557.0</ele><time>2026-04-12T08:21:29.001Z</time></trkpt><trkpt lat="43.95007851109074" lon="12.134015416276233"><ele>557.0</ele><time>2026-04-12T08:21:30.001Z</time></trkpt><trkpt lat="43.95004891277593" lon="12.133805205579138"><ele>557.0</ele><time>2026-04-12T08:21:31.001Z</time></trkpt><trkpt lat="43.95004898762791" lon="12.133653594439554"><ele>560.2</ele><time>2026-04-12T08:21:32.001Z</time></trkpt><trkpt lat="43.95002145382933" lon="12.13351405240698"><ele>563.4000000000001</ele><time>2026-04-12T08:21:33.001Z</time></trkpt><trkpt lat="43.950022711773535" lon="12.133369794687399"><ele>566.5999999999999</ele><time>2026-04-12T08:21:34.001Z</time></trkpt><trkpt lat="43.950010837366335" lon="12.133245475407485"><ele>569.8</ele><time>2026-04-12T08:21:35.001Z</time></trkpt><trkpt lat="43.94998838903588" lon="12.133126221545679"><ele>573.0</ele><time>2026-04-12T08:21:36.001Z</time></trkpt><trkpt lat="43.94998916007521" lon="12.133012453879257"><ele>574.0</ele><time>2026-04-12T08:21:37.001Z</time></trkpt><trkpt lat="43.95000345821898" lon="12.132909031351803"><ele>575.0</ele><time>2026-04-12T08:21:38.001Z</time></trkpt><trkpt lat="43.95003854929307" lon="12.132808703368584"><ele>576.0</ele><time>2026-04-12T08:21:39.001Z</time></trkpt><trkpt lat="43.950094428855095" lon="12.13272514801589"><ele>577.0</ele><time>2026-04-12T08:21:40.001Z</time></trkpt><trkpt lat="43.95016671387053" lon="12.132665175382726"><ele>578.0</ele><time>2026-04-12T08:21:41.001Z</time></trkpt><trkpt lat="43.95025407183703" lon="12.132622520820263"><ele>579.0</ele><time>2026-04-12T08:21:42.001Z</time></trkpt><trkpt lat="43.95035835663235" lon="12.132584408717443"><ele>576.2</ele><time>2026-04-12T08:21:43.001Z</time></trkpt><trkpt lat="43.95045989574996" lon="12.132539544179897"><ele>573.4</ele><time>2026-04-12T08:21:44.001Z</time></trkpt><trkpt lat="43.950563232175014" lon="12.132492885608412"><ele>570.6</ele><time>2026-04-12T08:21:45.001Z</time></trkpt><trkpt lat="43.95065936256382" lon="12.132451582780213"><ele>567.8</ele><time>2026-04-12T08:21:46.001Z</time></trkpt><trkpt lat="43.95074083083948" lon="12.132399816096568"><ele>565.0</ele><time>2026-04-12T08:21:47.001Z</time></trkpt><trkpt lat="43.95080974613595" lon="12.13234062631437"><ele>565.0</ele><time>2026-04-12T08:21:48.001Z</time></trkpt><trkpt lat="43.95086631085082" lon="12.132257714970248"><ele>565.0</ele><time>2026-04-12T08:21:49.001Z</time></trkpt><trkpt lat="43.9509021164952" lon="12.132154208051887"><ele>565.0</ele><time>2026-04-12T08:21:50Z</time></trkpt><trkpt lat="43.95092109513942" lon="12.132039446714789"><ele>565.0</ele><time>2026-04-12T08:21:51Z</time></trkpt><trkpt lat="43.95092232748495" lon="12.131930923942733"><ele>565.0</ele><time>2026-04-12T08:21:52Z</time></trkpt><trkpt lat="43.95091576608552" lon="12.131836360709968"><ele>565.0</ele><time>2026-04-12T08:21:53Z</time></trkpt><trkpt lat="43.95089973134228" lon="12.131689316848615"><ele>565.0</ele><time>2026-04-12T08:21:55Z</time></trkpt><trkpt lat="43.95087122652288" lon="12.131605619699924"><ele>565.0</ele><time>2026-04-12T08:21:57Z</time></trkpt><trkpt lat="43.950718494655014" lon="12.131599416205505"><ele>565.0</ele><time>2026-04-12T08:22:01Z</time></trkpt><trkpt lat="43.95064985387527" lon="12.131677886873918"><ele>565.0</ele><time>2026-04-12T08:22:02Z</time></trkpt><trkpt lat="43.95057809986056" lon="12.131750048760429"><ele>565.0</ele><time>2026-04-12T08:22:03Z</time></trkpt><trkpt lat="43.950493032314114" lon="12.131810069985434"><ele>565.0</ele><time>2026-04-12T08:22:04Z</time></trkpt><trkpt lat="43.95038696820729" lon="12.131846410502424"><ele>565.0</ele><time>2026-04-12T08:22:05Z</time></trkpt><trkpt lat="43.950275755245045" lon="12.131835820305424"><ele>565.0</ele><time>2026-04-12T08:22:06Z</time></trkpt><trkpt lat="43.95016935876401" lon="12.131799090180932"><ele>565.0</ele><time>2026-04-12T08:22:07Z</time></trkpt><trkpt lat="43.95006004667834" lon="12.131780038184228"><ele>565.0</ele><time>2026-04-12T08:22:08Z</time></trkpt><trkpt lat="43.949945572382795" lon="12.131800312793882"><ele>565.6</ele><time>2026-04-12T08:22:09Z</time></trkpt><trkpt lat="43.94983324481518" lon="12.131854590935722"><ele>566.2</ele><time>2026-04-12T08:22:10Z</time></trkpt><trkpt lat="43.94972659460716" lon="12.131893900952024"><ele>566.8</ele><time>2026-04-12T08:22:11Z</time></trkpt><trkpt lat="43.94962768429904" lon="12.131872502563983"><ele>567.4</ele><time>2026-04-12T08:22:12Z</time></trkpt><trkpt lat="43.94953101862172" lon="12.131814386343352"><ele>568.0</ele><time>2026-04-12T08:22:13Z</time></trkpt><trkpt lat="43.949451815671445" lon="12.131718429446108"><ele>568.0</ele><time>2026-04-12T08:22:14Z</time></trkpt><trkpt lat="43.94938362405416" lon="12.131609185723082"><ele>568.0</ele><time>2026-04-12T08:22:15Z</time></trkpt><trkpt lat="43.94930566775139" lon="12.13153189079324"><ele>568.0</ele><time>2026-04-12T08:22:16Z</time></trkpt><trkpt lat="43.94921438103646" lon="12.131474725722235"><ele>568.0</ele><time>2026-04-12T08:22:17Z</time></trkpt><trkpt lat="43.94911697407089" lon="12.131448214318329"><ele>568.0</ele><time>2026-04-12T08:22:18Z</time></trkpt><trkpt lat="43.949013437119035" lon="12.131439067240152"><ele>566.4</ele><time>2026-04-12T08:22:19Z</time></trkpt><trkpt lat="43.948922230191975" lon="12.13146100722283"><ele>564.8</ele><time>2026-04-12T08:22:20Z</time></trkpt><trkpt lat="43.94884144126983" lon="12.131511682561129"><ele>563.2</ele><time>2026-04-12T08:22:21Z</time></trkpt><trkpt lat="43.94877634014785" lon="12.131594475769065"><ele>561.6</ele><time>2026-04-12T08:22:22Z</time></trkpt><trkpt lat="43.948725670072164" lon="12.131697169779853"><ele>560.0</ele><time>2026-04-12T08:22:23Z</time></trkpt><trkpt lat="43.94867487964782" lon="12.131811072133761"><ele>563.6</ele><time>2026-04-12T08:22:24Z</time></trkpt><trkpt lat="43.948616336938294" lon="12.13193022419268"><ele>567.2</ele><time>2026-04-12T08:22:25Z</time></trkpt><trkpt lat="43.94854975566284" lon="12.132050519387818"><ele>570.8</ele><time>2026-04-12T08:22:26Z</time></trkpt><trkpt lat="43.94847424657901" lon="12.132159809535697"><ele>574.4</ele><time>2026-04-12T08:22:27Z</time></trkpt><trkpt lat="43.94838366560766" lon="12.132244360092184"><ele>578.0</ele><time>2026-04-12T08:22:28Z</time></trkpt><trkpt lat="43.94828678269717" lon="12.132292107083156"><ele>578.0</ele><time>2026-04-12T08:22:29Z</time></trkpt><trkpt lat="43.948187707983735" lon="12.132322069738272"><ele>578.0</ele><time>2026-04-12T08:22:30Z</time></trkpt><trkpt lat="43.94809479439676" lon="12.132360956851484"><ele>578.0</ele><time>2026-04-12T08:22:31.001Z</time></trkpt><trkpt lat="43.94801591868472" lon="12.132430115619654"><ele>578.0</ele><time>2026-04-12T08:22:32.001Z</time></trkpt><trkpt lat="43.94795561975732" lon="12.13252595996074"><ele>578.0</ele><time>2026-04-12T08:22:33.001Z</time></trkpt><trkpt lat="43.9479162227916" lon="12.132642842679877"><ele>581.6666666666666</ele><time>2026-04-12T08:22:34.001Z</time></trkpt><trkpt lat="43.94787915570751" lon="12.132760079325735"><ele>585.3333333333333</ele><time>2026-04-12T08:22:35.001Z</time></trkpt><trkpt lat="43.947843995843066" lon="12.132867171319253"><ele>589.0</ele><time>2026-04-12T08:22:36.001Z</time></trkpt><trkpt lat="43.94780835964349" lon="12.132966060655336"><ele>592.6666666666666</ele><time>2026-04-12T08:22:37.001Z</time></trkpt><trkpt lat="43.9477749174014" lon="12.133055170325095"><ele>596.3333333333334</ele><time>2026-04-12T08:22:38.001Z</time></trkpt><trkpt lat="43.94773746343526" lon="12.13312938642348"><ele>600.0</ele><time>2026-04-12T08:22:39.001Z</time></trkpt><trkpt lat="43.94769526296102" lon="12.133197245264268"><ele>600.6666666666666</ele><time>2026-04-12T08:22:40.001Z</time></trkpt><trkpt lat="43.947647093719446" lon="12.133263339890222"><ele>601.3333333333334</ele><time>2026-04-12T08:22:41.001Z</time></trkpt><trkpt lat="43.947586533957235" lon="12.133315721196661"><ele>602.0</ele><time>2026-04-12T08:22:42.001Z</time></trkpt><trkpt lat="43.94751657908333" lon="12.133351160621393"><ele>602.6666666666667</ele><time>2026-04-12T08:22:43.001Z</time></trkpt><trkpt lat="43.947440408617815" lon="12.133373831604912"><ele>603.3333333333334</ele><time>2026-04-12T08:22:44.001Z</time></trkpt><trkpt lat="43.947359573240774" lon="12.13339037358677"><ele>604.0</ele><time>2026-04-12T08:22:45.001Z</time></trkpt><trkpt lat="43.94727307149379" lon="12.133400130134552"><ele>604.0</ele><time>2026-04-12T08:22:46.001Z</time></trkpt><trkpt lat="43.94719012179225" lon="12.133404251425485"><ele>604.0</ele><time>2026-04-12T08:22:47.001Z</time></trkpt><trkpt lat="43.947108874839536" lon="12.133397035385508"><ele>604.0</ele><time>2026-04-12T08:22:48.001Z</time></trkpt><trkpt lat="43.94702715435447" lon="12.133387757085352"><ele>604.0</ele><time>2026-04-12T08:22:49.001Z</time></trkpt><trkpt lat="43.94695041547994" lon="12.133383765034406"><ele>604.0</ele><time>2026-04-12T08:22:50.001Z</time></trkpt><trkpt lat="43.946885448832205" lon="12.133383808023057"><ele>604.0</ele><time>2026-04-12T08:22:51.001Z</time></trkpt><trkpt lat="43.94677355700148" lon="12.133443988162703"><ele>604.1666666666667</ele><time>2026-04-12T08:22:53.001Z</time></trkpt><trkpt lat="43.94670288454714" lon="12.133421771229177"><ele>604.3333333333334</ele><time>2026-04-12T08:22:54.001Z</time></trkpt><trkpt lat="43.94664408529489" lon="12.133462653160343"><ele>604.5</ele><time>2026-04-12T08:22:55.001Z</time></trkpt><trkpt lat="43.94654131779737" lon="12.133553167617519"><ele>604.6666666666666</ele><time>2026-04-12T08:22:57.001Z</time></trkpt><trkpt lat="43.94647251010561" lon="12.133590830812095"><ele>604.8333333333333</ele><time>2026-04-12T08:22:58.001Z</time></trkpt><trkpt lat="43.946397469573704" lon="12.133621362368963"><ele>605.0</ele><time>2026-04-12T08:22:59.001Z</time></trkpt><trkpt lat="43.94632214359566" lon="12.133633135278263"><ele>605.0</ele><time>2026-04-12T08:23:00.001Z</time></trkpt><trkpt lat="43.94623591637424" lon="12.1336379627955"><ele>605.0</ele><time>2026-04-12T08:23:01.001Z</time></trkpt><trkpt lat="43.94616176470553" lon="12.133634205595312"><ele>605.0</ele><time>2026-04-12T08:23:02.001Z</time></trkpt><trkpt lat="43.94609713625078" lon="12.133615866325512"><ele>605.0</ele><time>2026-04-12T08:23:03.001Z</time></trkpt><trkpt lat="43.94603636027634" lon="12.133582855482091"><ele>605.0</ele><time>2026-04-12T08:23:04.001Z</time></trkpt><trkpt lat="43.9459785488523" lon="12.133545917271075"><ele>605.0</ele><time>2026-04-12T08:23:05.001Z</time></trkpt><trkpt lat="43.945874018613516" lon="12.133432750193336"><ele>605.4</ele><time>2026-04-12T08:23:07.001Z</time></trkpt><trkpt lat="43.945829043399165" lon="12.133327859581863"><ele>605.8</ele><time>2026-04-12T08:23:08.001Z</time></trkpt><trkpt lat="43.94576224612403" lon="12.133231794130774"><ele>606.2</ele><time>2026-04-12T08:23:09.001Z</time></trkpt><trkpt lat="43.94571294133041" lon="12.133118983267336"><ele>606.6</ele><time>2026-04-12T08:23:10.001Z</time></trkpt><trkpt lat="43.945667685305054" lon="12.133003451448321"><ele>607.0</ele><time>2026-04-12T08:23:11.001Z</time></trkpt><trkpt lat="43.945620138473025" lon="12.132880689227033"><ele>607.0</ele><time>2026-04-12T08:23:12.001Z</time></trkpt><trkpt lat="43.945576681020825" lon="12.132756681376739"><ele>607.0</ele><time>2026-04-12T08:23:13.001Z</time></trkpt><trkpt lat="43.94554967456913" lon="12.132651484486642"><ele>607.0</ele><time>2026-04-12T08:23:14.001Z</time></trkpt><trkpt lat="43.945502423629506" lon="12.132495551140787"><ele>607.0</ele><time>2026-04-12T08:23:16.001Z</time></trkpt><trkpt lat="43.94549375274246" lon="12.132302632150196"><ele>607.0</ele><time>2026-04-12T08:23:18.001Z</time></trkpt><trkpt lat="43.94549270437573" lon="12.132188791843367"><ele>606.8333333333334</ele><time>2026-04-12T08:23:19.001Z</time></trkpt><trkpt lat="43.94550249050071" lon="12.132073798110856"><ele>606.6666666666667</ele><time>2026-04-12T08:23:20.001Z</time></trkpt><trkpt lat="43.945507848344434" lon="12.131971411748609"><ele>606.5</ele><time>2026-04-12T08:23:21.001Z</time></trkpt><trkpt lat="43.94550002988095" lon="12.131880174540573"><ele>606.3333333333334</ele><time>2026-04-12T08:23:22.001Z</time></trkpt><trkpt lat="43.945414084787274" lon="12.131729509403847"><ele>606.1666666666666</ele><time>2026-04-12T08:23:24.001Z</time></trkpt><trkpt lat="43.945378129012546" lon="12.13164091877665"><ele>606.0</ele><time>2026-04-12T08:23:25.001Z</time></trkpt><trkpt lat="43.945345874332574" lon="12.131531860466696"><ele>607.0</ele><time>2026-04-12T08:23:26.001Z</time></trkpt><trkpt lat="43.945321883261386" lon="12.13142264382163"><ele>608.0</ele><time>2026-04-12T08:23:27.001Z</time></trkpt><trkpt lat="43.94529033743789" lon="12.131295092721363"><ele>609.0</ele><time>2026-04-12T08:23:28.001Z</time></trkpt><trkpt lat="43.94526276927328" lon="12.131157583712499"><ele>610.0</ele><time>2026-04-12T08:23:29.001Z</time></trkpt><trkpt lat="43.94523427152523" lon="12.131034852691558"><ele>611.0</ele><time>2026-04-12T08:23:30.001Z</time></trkpt><trkpt lat="43.94520651544706" lon="12.130915788065755"><ele>611.0</ele><time>2026-04-12T08:23:31.001Z</time></trkpt><trkpt lat="43.94517467636951" lon="12.130800815681017"><ele>611.0</ele><time>2026-04-12T08:23:32.001Z</time></trkpt><trkpt lat="43.94513860104726" lon="12.130695278044305"><ele>611.0</ele><time>2026-04-12T08:23:33.001Z</time></trkpt><trkpt lat="43.9451044230618" lon="12.130600365543762"><ele>611.0</ele><time>2026-04-12T08:23:34.001Z</time></trkpt><trkpt lat="43.945073941622" lon="12.130501130865817"><ele>611.0</ele><time>2026-04-12T08:23:35.001Z</time></trkpt><trkpt lat="43.94504320802146" lon="12.13040048793813"><ele>611.0</ele><time>2026-04-12T08:23:36.001Z</time></trkpt><trkpt lat="43.94501522197368" lon="12.1302978257722"><ele>615.3333333333333</ele><time>2026-04-12T08:23:37.001Z</time></trkpt><trkpt lat="43.944992983812845" lon="12.130195109811867"><ele>619.6666666666666</ele><time>2026-04-12T08:23:38.001Z</time></trkpt><trkpt lat="43.94497639230553" lon="12.130092426577285"><ele>624.0</ele><time>2026-04-12T08:23:39.001Z</time></trkpt><trkpt lat="43.94496313751169" lon="12.129983561007446"><ele>628.3333333333334</ele><time>2026-04-12T08:23:40.001Z</time></trkpt><trkpt lat="43.94494784937936" lon="12.129875900038442"><ele>632.6666666666667</ele><time>2026-04-12T08:23:41.001Z</time></trkpt><trkpt lat="43.944921789169925" lon="12.129767946130082"><ele>637.0</ele><time>2026-04-12T08:23:42.001Z</time></trkpt><trkpt lat="43.944887608931786" lon="12.129669055668844"><ele>637.5</ele><time>2026-04-12T08:23:43.001Z</time></trkpt><trkpt lat="43.94484325147637" lon="12.129563898729605"><ele>638.0</ele><time>2026-04-12T08:23:44.001Z</time></trkpt><trkpt lat="43.944792799390065" lon="12.129473794274276"><ele>638.5</ele><time>2026-04-12T08:23:45.001Z</time></trkpt><trkpt lat="43.94472687124845" lon="12.129401544848818"><ele>639.0</ele><time>2026-04-12T08:23:46.001Z</time></trkpt><trkpt lat="43.9446533920833" lon="12.129349441859983"><ele>639.5</ele><time>2026-04-12T08:23:47.001Z</time></trkpt><trkpt lat="43.94457939569544" lon="12.129309332550465"><ele>640.0</ele><time>2026-04-12T08:23:48.001Z</time></trkpt><trkpt lat="43.94451272746361" lon="12.129273034770284"><ele>640.0</ele><time>2026-04-12T08:23:49.001Z</time></trkpt><trkpt lat="43.94445264783211" lon="12.129220629162697"><ele>640.0</ele><time>2026-04-12T08:23:50.001Z</time></trkpt><trkpt lat="43.94440935407534" lon="12.129137814240966"><ele>640.0</ele><time>2026-04-12T08:23:51.001Z</time></trkpt><trkpt lat="43.944406301252236" lon="12.129019276273468"><ele>640.0</ele><time>2026-04-12T08:23:52.001Z</time></trkpt><trkpt lat="43.94440141774032" lon="12.12889574274735"><ele>640.0</ele><time>2026-04-12T08:23:53.001Z</time></trkpt><trkpt lat="43.94438949109971" lon="12.128748574697536"><ele>640.0</ele><time>2026-04-12T08:23:54.001Z</time></trkpt><trkpt lat="43.94439204800508" lon="12.128606552371838"><ele>638.2</ele><time>2026-04-12T08:23:55.001Z</time></trkpt><trkpt lat="43.944391040661166" lon="12.128471230458107"><ele>636.4</ele><time>2026-04-12T08:23:56Z</time></trkpt><trkpt lat="43.94438908884702" lon="12.128344338614957"><ele>634.6</ele><time>2026-04-12T08:23:57Z</time></trkpt><trkpt lat="43.944387833806644" lon="12.128225992273393"><ele>632.8</ele><time>2026-04-12T08:23:58Z</time></trkpt><trkpt lat="43.94440777932878" lon="12.12810423129897"><ele>631.0</ele><time>2026-04-12T08:23:59Z</time></trkpt><trkpt lat="43.944399172002626" lon="12.127980535346042"><ele>627.2</ele><time>2026-04-12T08:24:00Z</time></trkpt><trkpt lat="43.944404581649906" lon="12.127855789073553"><ele>623.4000000000001</ele><time>2026-04-12T08:24:01Z</time></trkpt><trkpt lat="43.944392951884325" lon="12.127724006386444"><ele>619.6</ele><time>2026-04-12T08:24:02Z</time></trkpt><trkpt lat="43.94436193200829" lon="12.127595291392204"><ele>615.8000000000001</ele><time>2026-04-12T08:24:03Z</time></trkpt><trkpt lat="43.94432304681072" lon="12.127474309381718"><ele>612.0</ele><time>2026-04-12T08:24:04Z</time></trkpt><trkpt lat="43.94427706602706" lon="12.127355966145865"><ele>611.6666666666666</ele><time>2026-04-12T08:24:05Z</time></trkpt><trkpt lat="43.94422369440934" lon="12.127251057367221"><ele>611.3333333333334</ele><time>2026-04-12T08:24:06Z</time></trkpt><trkpt lat="43.94417148143497" lon="12.127141149537861"><ele>611.0</ele><time>2026-04-12T08:24:07Z</time></trkpt><trkpt lat="43.944108962439024" lon="12.127088961527393"><ele>610.6666666666667</ele><time>2026-04-12T08:24:08Z</time></trkpt><trkpt lat="43.944050775891895" lon="12.127027588612227"><ele>610.3333333333334</ele><time>2026-04-12T08:24:09Z</time></trkpt><trkpt lat="43.943982964918064" lon="12.126982590272426"><ele>610.0</ele><time>2026-04-12T08:24:10Z</time></trkpt><trkpt lat="43.94390665139366" lon="12.126945368190505"><ele>610.0</ele><time>2026-04-12T08:24:11Z</time></trkpt><trkpt lat="43.94382399739202" lon="12.126932041772356"><ele>610.0</ele><time>2026-04-12T08:24:12Z</time></trkpt><trkpt lat="43.94374499081073" lon="12.126936589868839"><ele>610.0</ele><time>2026-04-12T08:24:13Z</time></trkpt><trkpt lat="43.94366706660203" lon="12.126963152398341"><ele>610.0</ele><time>2026-04-12T08:24:14Z</time></trkpt><trkpt lat="43.94358729333083" lon="12.126995739878954"><ele>610.0</ele><time>2026-04-12T08:24:15Z</time></trkpt><trkpt lat="43.943505203788554" lon="12.127035924550821"><ele>610.0</ele><time>2026-04-12T08:24:16Z</time></trkpt><trkpt lat="43.94342972972168" lon="12.127086808136985"><ele>608.3333333333334</ele><time>2026-04-12T08:24:17Z</time></trkpt><trkpt lat="43.94335461772431" lon="12.127157456088453"><ele>606.6666666666667</ele><time>2026-04-12T08:24:18Z</time></trkpt><trkpt lat="43.943283490083736" lon="12.127221035378938"><ele>605.0</ele><time>2026-04-12T08:24:19Z</time></trkpt><trkpt lat="43.94320821867957" lon="12.127279971894476"><ele>603.3333333333334</ele><time>2026-04-12T08:24:20Z</time></trkpt><trkpt lat="43.9431282488828" lon="12.127332777709313"><ele>601.6666666666666</ele><time>2026-04-12T08:24:21Z</time></trkpt><trkpt lat="43.943044372932555" lon="12.12735097063837"><ele>600.0</ele><time>2026-04-12T08:24:22Z</time></trkpt><trkpt lat="43.9429461582203" lon="12.127355709116937"><ele>600.0</ele><time>2026-04-12T08:24:23Z</time></trkpt><trkpt lat="43.94285367922012" lon="12.127349807106848"><ele>600.0</ele><time>2026-04-12T08:24:24Z</time></trkpt><trkpt lat="43.94275766428466" lon="12.12733952616289"><ele>600.0</ele><time>2026-04-12T08:24:25Z</time></trkpt><trkpt lat="43.94265993770865" lon="12.12732321223659"><ele>600.0</ele><time>2026-04-12T08:24:26Z</time></trkpt><trkpt lat="43.94257144321995" lon="12.127294954324972"><ele>600.0</ele><time>2026-04-12T08:24:27Z</time></trkpt><trkpt lat="43.942481327551015" lon="12.127231963037982"><ele>597.5</ele><time>2026-04-12T08:24:28Z</time></trkpt><trkpt lat="43.94240223674208" lon="12.127124721085005"><ele>595.0</ele><time>2026-04-12T08:24:29Z</time></trkpt><trkpt lat="43.942306975486844" lon="12.127035576827774"><ele>592.5</ele><time>2026-04-12T08:24:30Z</time></trkpt><trkpt lat="43.942229003562865" lon="12.126920798000349"><ele>590.0</ele><time>2026-04-12T08:24:31Z</time></trkpt><trkpt lat="43.94215434327982" lon="12.12679938636895"><ele>590.0</ele><time>2026-04-12T08:24:32Z</time></trkpt><trkpt lat="43.94207974558412" lon="12.126674758047375"><ele>590.0</ele><time>2026-04-12T08:24:33Z</time></trkpt><trkpt lat="43.94201809897892" lon="12.126554683423487"><ele>590.0</ele><time>2026-04-12T08:24:34Z</time></trkpt><trkpt lat="43.94195328291514" lon="12.126434905897735"><ele>590.0</ele><time>2026-04-12T08:24:35Z</time></trkpt><trkpt lat="43.94189227462233" lon="12.12631464305772"><ele>590.0</ele><time>2026-04-12T08:24:36Z</time></trkpt><trkpt lat="43.94183729628334" lon="12.126207672444595"><ele>588.8333333333333</ele><time>2026-04-12T08:24:37Z</time></trkpt><trkpt lat="43.94177945240568" lon="12.12609724837545"><ele>587.6666666666666</ele><time>2026-04-12T08:24:38Z</time></trkpt><trkpt lat="43.94173506111734" lon="12.125978055869162"><ele>586.5</ele><time>2026-04-12T08:24:39Z</time></trkpt><trkpt lat="43.94170717230353" lon="12.125872326283881"><ele>585.3333333333334</ele><time>2026-04-12T08:24:40Z</time></trkpt><trkpt lat="43.941683479793106" lon="12.125781779577357"><ele>584.1666666666667</ele><time>2026-04-12T08:24:41Z</time></trkpt><trkpt lat="43.94165822490769" lon="12.125701239866476"><ele>583.0</ele><time>2026-04-12T08:24:42.001Z</time></trkpt><trkpt lat="43.94161053870266" lon="12.12563639583386"><ele>583.0</ele><time>2026-04-12T08:24:43.001Z</time></trkpt><trkpt lat="43.941546547942586" lon="12.125611316961345"><ele>583.0</ele><time>2026-04-12T08:24:44.001Z</time></trkpt><trkpt lat="43.941477987523086" lon="12.125624810965773"><ele>583.0</ele><time>2026-04-12T08:24:45.001Z</time></trkpt><trkpt lat="43.94140876998599" lon="12.125671740808716"><ele>583.0</ele><time>2026-04-12T08:24:46.001Z</time></trkpt><trkpt lat="43.94134585255747" lon="12.125751724605898"><ele>583.0</ele><time>2026-04-12T08:24:47.001Z</time></trkpt><trkpt lat="43.94127948410633" lon="12.125851979115405"><ele>583.0</ele><time>2026-04-12T08:24:48.001Z</time></trkpt><trkpt lat="43.941205847493535" lon="12.125940850078617"><ele>583.0</ele><time>2026-04-12T08:24:49.001Z</time></trkpt><trkpt lat="43.94112805779554" lon="12.126023870639559"><ele>583.0</ele><time>2026-04-12T08:24:50.001Z</time></trkpt><trkpt lat="43.94104809785771" lon="12.12610152059633"><ele>583.0</ele><time>2026-04-12T08:24:51.001Z</time></trkpt><trkpt lat="43.94097895609871" lon="12.126186410643003"><ele>583.0</ele><time>2026-04-12T08:24:52.001Z</time></trkpt><trkpt lat="43.940919896663964" lon="12.126283405584946"><ele>583.0</ele><time>2026-04-12T08:24:53.001Z</time></trkpt><trkpt lat="43.94087488796451" lon="12.12638513395111"><ele>583.3333333333334</ele><time>2026-04-12T08:24:54.001Z</time></trkpt><trkpt lat="43.94082929681723" lon="12.126468147928522"><ele>583.6666666666667</ele><time>2026-04-12T08:24:55.001Z</time></trkpt><trkpt lat="43.940785007170554" lon="12.126553648427345"><ele>584.0</ele><time>2026-04-12T08:24:56.001Z</time></trkpt><trkpt lat="43.94074039765809" lon="12.126646248295923"><ele>584.3333333333334</ele><time>2026-04-12T08:24:57.001Z</time></trkpt><trkpt lat="43.940737035126034" lon="12.126790202608307"><ele>584.6666666666666</ele><time>2026-04-12T08:24:58.001Z</time></trkpt><trkpt lat="43.94071898515177" lon="12.126916042503765"><ele>585.0</ele><time>2026-04-12T08:24:59.001Z</time></trkpt><trkpt lat="43.94070160215526" lon="12.127023825503116"><ele>585.0</ele><time>2026-04-12T08:25:00.001Z</time></trkpt><trkpt lat="43.94066812101038" lon="12.127111829475606"><ele>585.0</ele><time>2026-04-12T08:25:01.001Z</time></trkpt><trkpt lat="43.94061402987731" lon="12.127177248664518"><ele>585.0</ele><time>2026-04-12T08:25:02.001Z</time></trkpt><trkpt lat="43.940542275987816" lon="12.127234025179048"><ele>585.0</ele><time>2026-04-12T08:25:03.001Z</time></trkpt><trkpt lat="43.940457750512294" lon="12.127236029499514"><ele>585.0</ele><time>2026-04-12T08:25:04.001Z</time></trkpt><trkpt lat="43.940388051223266" lon="12.127232058719636"><ele>585.0</ele><time>2026-04-12T08:25:05.001Z</time></trkpt><trkpt lat="43.94029169845281" lon="12.127237516124099"><ele>585.0</ele><time>2026-04-12T08:25:06.001Z</time></trkpt><trkpt lat="43.9401965742602" lon="12.12721149498244"><ele>585.0</ele><time>2026-04-12T08:25:07.001Z</time></trkpt><trkpt lat="43.94010439448797" lon="12.127166456894509"><ele>585.0</ele><time>2026-04-12T08:25:08.001Z</time></trkpt><trkpt lat="43.94001616823462" lon="12.12710216614278"><ele>585.0</ele><time>2026-04-12T08:25:09.001Z</time></trkpt><trkpt lat="43.93996512555936" lon="12.127000264343467"><ele>585.0</ele><time>2026-04-12T08:25:10.001Z</time></trkpt><trkpt lat="43.939901900774345" lon="12.126896508018676"><ele>582.2</ele><time>2026-04-12T08:25:11.001Z</time></trkpt><trkpt lat="43.93983212675975" lon="12.12681138439911"><ele>579.4</ele><time>2026-04-12T08:25:12.001Z</time></trkpt><trkpt lat="43.93980140039319" lon="12.126688493078763"><ele>576.6</ele><time>2026-04-12T08:25:13.001Z</time></trkpt><trkpt lat="43.93976380945314" lon="12.126567748833255"><ele>573.8</ele><time>2026-04-12T08:25:14.001Z</time></trkpt><trkpt lat="43.939728141402405" lon="12.12643637566844"><ele>571.0</ele><time>2026-04-12T08:25:15.001Z</time></trkpt><trkpt lat="43.93967602429698" lon="12.126315645085766"><ele>568.6666666666667</ele><time>2026-04-12T08:25:16.001Z</time></trkpt><trkpt lat="43.939644511212734" lon="12.126197391641941"><ele>566.3333333333334</ele><time>2026-04-12T08:25:17.001Z</time></trkpt><trkpt lat="43.93960257247941" lon="12.126097762702175"><ele>564.0</ele><time>2026-04-12T08:25:18.001Z</time></trkpt><trkpt lat="43.93955598719284" lon="12.126017914216783"><ele>561.6666666666666</ele><time>2026-04-12T08:25:19.001Z</time></trkpt><trkpt lat="43.939496539771646" lon="12.125943150976196"><ele>559.3333333333333</ele><time>2026-04-12T08:25:20.001Z</time></trkpt><trkpt lat="43.93943549846118" lon="12.125885816744173"><ele>557.0</ele><time>2026-04-12T08:25:21.001Z</time></trkpt><trkpt lat="43.9393580962888" lon="12.12586854636776"><ele>557.0</ele><time>2026-04-12T08:25:22.001Z</time></trkpt><trkpt lat="43.93926666651753" lon="12.125850212362531"><ele>557.0</ele><time>2026-04-12T08:25:23.001Z</time></trkpt><trkpt lat="43.9391562939768" lon="12.125828582951812"><ele>557.0</ele><time>2026-04-12T08:25:24.001Z</time></trkpt><trkpt lat="43.93906439380772" lon="12.12581038011619"><ele>557.0</ele><time>2026-04-12T08:25:25.001Z</time></trkpt><trkpt lat="43.938989191787705" lon="12.125802902242299"><ele>557.0</ele><time>2026-04-12T08:25:26.001Z</time></trkpt><trkpt lat="43.93892021113624" lon="12.125822098809923"><ele>557.0</ele><time>2026-04-12T08:25:27.001Z</time></trkpt><trkpt lat="43.938854651966324" lon="12.125849890839723"><ele>560.6</ele><time>2026-04-12T08:25:28.001Z</time></trkpt><trkpt lat="43.938727433391016" lon="12.125863397048304"><ele>564.2</ele><time>2026-04-12T08:25:30.001Z</time></trkpt><trkpt lat="43.938655943395005" lon="12.125829887005443"><ele>567.8</ele><time>2026-04-12T08:25:31.001Z</time></trkpt><trkpt lat="43.938568972637235" lon="12.125757389318922"><ele>571.4</ele><time>2026-04-12T08:25:32.001Z</time></trkpt><trkpt lat="43.938475990343484" lon="12.12567272349958"><ele>575.0</ele><time>2026-04-12T08:25:33.001Z</time></trkpt><trkpt lat="43.93838860804084" lon="12.125602801195573"><ele>576.6</ele><time>2026-04-12T08:25:34.001Z</time></trkpt><trkpt lat="43.93830277887428" lon="12.125521886010235"><ele>578.2</ele><time>2026-04-12T08:25:35.001Z</time></trkpt><trkpt lat="43.938223905635006" lon="12.125429765695174"><ele>579.8</ele><time>2026-04-12T08:25:36.001Z</time></trkpt><trkpt lat="43.93813995250696" lon="12.125373931015574"><ele>581.4</ele><time>2026-04-12T08:25:37.001Z</time></trkpt><trkpt lat="43.938055090469625" lon="12.125325729445645"><ele>583.0</ele><time>2026-04-12T08:25:38.001Z</time></trkpt><trkpt lat="43.93796017311906" lon="12.125279636547958"><ele>583.0</ele><time>2026-04-12T08:25:39.001Z</time></trkpt><trkpt lat="43.93788029032451" lon="12.125221656726382"><ele>583.0</ele><time>2026-04-12T08:25:40.001Z</time></trkpt><trkpt lat="43.93781922794333" lon="12.125159625265944"><ele>583.0</ele><time>2026-04-12T08:25:41.001Z</time></trkpt><trkpt lat="43.93776734741164" lon="12.125087697158094"><ele>583.0</ele><time>2026-04-12T08:25:42.001Z</time></trkpt><trkpt lat="43.93774373372236" lon="12.124995578373099"><ele>583.0</ele><time>2026-04-12T08:25:43.001Z</time></trkpt><trkpt lat="43.93770359989537" lon="12.124918608774708"><ele>583.0</ele><time>2026-04-12T08:25:44.001Z</time></trkpt><trkpt lat="43.937696049594216" lon="12.124806932590765"><ele>582.1999999999999</ele><time>2026-04-12T08:25:45.001Z</time></trkpt><trkpt lat="43.93769896079319" lon="12.124687760952025"><ele>581.4</ele><time>2026-04-12T08:25:46.001Z</time></trkpt><trkpt lat="43.93771720491758" lon="12.124560055495984"><ele>580.5999999999999</ele><time>2026-04-12T08:25:47.001Z</time></trkpt><trkpt lat="43.93771546543844" lon="12.124437792649898"><ele>579.8</ele><time>2026-04-12T08:25:48.001Z</time></trkpt><trkpt lat="43.93769659531791" lon="12.124307937293924"><ele>579.0</ele><time>2026-04-12T08:25:49.001Z</time></trkpt><trkpt lat="43.937675384735954" lon="12.124173346726366"><ele>573.4</ele><time>2026-04-12T08:25:50.001Z</time></trkpt><trkpt lat="43.93764741455848" lon="12.124039231040857"><ele>567.8</ele><time>2026-04-12T08:25:51.001Z</time></trkpt><trkpt lat="43.93761169902588" lon="12.123911102377194"><ele>562.2</ele><time>2026-04-12T08:25:52.001Z</time></trkpt><trkpt lat="43.93758512148228" lon="12.123784235492515"><ele>556.6</ele><time>2026-04-12T08:25:53.001Z</time></trkpt><trkpt lat="43.937544584483106" lon="12.123664426268958"><ele>551.0</ele><time>2026-04-12T08:25:54.001Z</time></trkpt><trkpt lat="43.937499613048544" lon="12.123569267807154"><ele>550.9999999999999</ele><time>2026-04-12T08:25:55.001Z</time></trkpt><trkpt lat="43.93745539804846" lon="12.123496093915648"><ele>551.0</ele><time>2026-04-12T08:25:56.001Z</time></trkpt><trkpt lat="43.93740258911815" lon="12.123429869498514"><ele>551.0</ele><time>2026-04-12T08:25:57.001Z</time></trkpt><trkpt lat="43.93734487525906" lon="12.123362590482841"><ele>551.0</ele><time>2026-04-12T08:25:58.001Z</time></trkpt><trkpt lat="43.93727601729579" lon="12.123303383609866"><ele>551.0</ele><time>2026-04-12T08:25:59.001Z</time></trkpt><trkpt lat="43.93722518116554" lon="12.123242067491162"><ele>550.9999999999999</ele><time>2026-04-12T08:26:00.001Z</time></trkpt><trkpt lat="43.937185553828" lon="12.123157525528136"><ele>551.0</ele><time>2026-04-12T08:26:01.001Z</time></trkpt><trkpt lat="43.93716332399084" lon="12.123037319836527"><ele>550.6</ele><time>2026-04-12T08:26:02Z</time></trkpt><trkpt lat="43.93714615726289" lon="12.12289048492239"><ele>550.2</ele><time>2026-04-12T08:26:03Z</time></trkpt><trkpt lat="43.937128625204664" lon="12.122738166410274"><ele>549.8</ele><time>2026-04-12T08:26:04Z</time></trkpt><trkpt lat="43.937096318090454" lon="12.122597945739868"><ele>549.4</ele><time>2026-04-12T08:26:05Z</time></trkpt><trkpt lat="43.93704888542765" lon="12.122461394303153"><ele>549.0</ele><time>2026-04-12T08:26:06Z</time></trkpt><trkpt lat="43.936997355523424" lon="12.122322189791282"><ele>549.5</ele><time>2026-04-12T08:26:07Z</time></trkpt><trkpt lat="43.936936309194635" lon="12.122185862180261"><ele>550.0</ele><time>2026-04-12T08:26:08Z</time></trkpt><trkpt lat="43.93685587430663" lon="12.122060160476938"><ele>550.5</ele><time>2026-04-12T08:26:09Z</time></trkpt><trkpt lat="43.93676978558121" lon="12.121930686382354"><ele>551.0</ele><time>2026-04-12T08:26:10Z</time></trkpt><trkpt lat="43.93668687782344" lon="12.121811299704207"><ele>551.0</ele><time>2026-04-12T08:26:11Z</time></trkpt><trkpt lat="43.93661328457468" lon="12.121688533168575"><ele>551.0</ele><time>2026-04-12T08:26:12Z</time></trkpt><trkpt lat="43.936545934548136" lon="12.121558597934586"><ele>551.0</ele><time>2026-04-12T08:26:13Z</time></trkpt><trkpt lat="43.93647934888459" lon="12.121433718732206"><ele>551.0</ele><time>2026-04-12T08:26:14Z</time></trkpt><trkpt lat="43.936417333632285" lon="12.121314084126523"><ele>551.0</ele><time>2026-04-12T08:26:15Z</time></trkpt><trkpt lat="43.93634459806924" lon="12.121217680625623"><ele>554.2</ele><time>2026-04-12T08:26:16Z</time></trkpt><trkpt lat="43.93625592801335" lon="12.121142475731821"><ele>557.4000000000001</ele><time>2026-04-12T08:26:17Z</time></trkpt><trkpt lat="43.93614404499428" lon="12.121093465730354"><ele>560.6</ele><time>2026-04-12T08:26:18Z</time></trkpt><trkpt lat="43.93603023264453" lon="12.121058198667734"><ele>563.8000000000001</ele><time>2026-04-12T08:26:19Z</time></trkpt><trkpt lat="43.93593154173078" lon="12.121030331124036"><ele>567.0</ele><time>2026-04-12T08:26:20Z</time></trkpt><trkpt lat="43.93584213877932" lon="12.12100231122557"><ele>567.0</ele><time>2026-04-12T08:26:21Z</time></trkpt><trkpt lat="43.93575126104407" lon="12.120945057600142"><ele>567.0</ele><time>2026-04-12T08:26:22Z</time></trkpt><trkpt lat="43.93565038728263" lon="12.120881636897158"><ele>567.0</ele><time>2026-04-12T08:26:23Z</time></trkpt><trkpt lat="43.935568651826514" lon="12.120846333112608"><ele>567.0</ele><time>2026-04-12T08:26:24Z</time></trkpt><trkpt lat="43.93543591287702" lon="12.120832599241846"><ele>567.0</ele><time>2026-04-12T08:26:26Z</time></trkpt><trkpt lat="43.93535649852413" lon="12.120867639453044"><ele>567.0</ele><time>2026-04-12T08:26:27Z</time></trkpt><trkpt lat="43.93529488355378" lon="12.120892789240356"><ele>567.0</ele><time>2026-04-12T08:26:28Z</time></trkpt><trkpt lat="43.935229811470386" lon="12.120901628626857"><ele>567.0</ele><time>2026-04-12T08:26:29Z</time></trkpt><trkpt lat="43.93513496213351" lon="12.120812888635285"><ele>567.0</ele><time>2026-04-12T08:26:31Z</time></trkpt><trkpt lat="43.93510793601316" lon="12.120715705558998"><ele>567.0</ele><time>2026-04-12T08:26:32Z</time></trkpt><trkpt lat="43.935107206612" lon="12.120606737287142"><ele>567.0</ele><time>2026-04-12T08:26:33Z</time></trkpt><trkpt lat="43.93512545916999" lon="12.120501843047666"><ele>565.0</ele><time>2026-04-12T08:26:34Z</time></trkpt><trkpt lat="43.935178970182676" lon="12.120355348545662"><ele>563.0</ele><time>2026-04-12T08:26:36Z</time></trkpt><trkpt lat="43.93528664436377" lon="12.120237467340917"><ele>561.0</ele><time>2026-04-12T08:26:38Z</time></trkpt><trkpt lat="43.93536972552535" lon="12.1201953504295"><ele>559.0</ele><time>2026-04-12T08:26:39Z</time></trkpt><trkpt lat="43.935453876748305" lon="12.120122200343397"><ele>557.0</ele><time>2026-04-12T08:26:40Z</time></trkpt><trkpt lat="43.93553278104482" lon="12.120082832595436"><ele>557.0</ele><time>2026-04-12T08:26:41Z</time></trkpt><trkpt lat="43.93559716677705" lon="12.120044646702834"><ele>557.0</ele><time>2026-04-12T08:26:42Z</time></trkpt><trkpt lat="43.93569652015825" lon="12.120055439443492"><ele>557.0</ele><time>2026-04-12T08:26:44Z</time></trkpt><trkpt lat="43.93578295011855" lon="12.12007794419879"><ele>557.0</ele><time>2026-04-12T08:26:46Z</time></trkpt><trkpt lat="43.935862182487355" lon="12.120075477339773"><ele>557.0</ele><time>2026-04-12T08:26:48Z</time></trkpt><trkpt lat="43.935925514245916" lon="12.120018129130822"><ele>557.0</ele><time>2026-04-12T08:26:50Z</time></trkpt><trkpt lat="43.93600343930191" lon="12.119939698849846"><ele>556.6666666666666</ele><time>2026-04-12T08:27:00Z</time></trkpt><trkpt lat="43.93607187945382" lon="12.119922526871498"><ele>556.3333333333333</ele><time>2026-04-12T08:27:01.001Z</time></trkpt><trkpt lat="43.93613670846053" lon="12.119856173986333"><ele>556.0</ele><time>2026-04-12T08:27:02.001Z</time></trkpt><trkpt lat="43.93621729208467" lon="12.119808345036459"><ele>555.6666666666666</ele><time>2026-04-12T08:27:03.001Z</time></trkpt><trkpt lat="43.9363030914592" lon="12.119744511751394"><ele>555.3333333333334</ele><time>2026-04-12T08:27:04.001Z</time></trkpt><trkpt lat="43.936378952973406" lon="12.119677008591193"><ele>555.0</ele><time>2026-04-12T08:27:05.001Z</time></trkpt><trkpt lat="43.93644765284989" lon="12.119613164611549"><ele>555.0</ele><time>2026-04-12T08:27:06.001Z</time></trkpt><trkpt lat="43.936521626767316" lon="12.119537976750223"><ele>555.0</ele><time>2026-04-12T08:27:07.001Z</time></trkpt><trkpt lat="43.93659552481307" lon="12.119445182088578"><ele>555.0</ele><time>2026-04-12T08:27:08.001Z</time></trkpt><trkpt lat="43.936663156790566" lon="12.119333766799839"><ele>555.0</ele><time>2026-04-12T08:27:09.001Z</time></trkpt><trkpt lat="43.93672750223336" lon="12.119212871875758"><ele>555.0</ele><time>2026-04-12T08:27:10.001Z</time></trkpt><trkpt lat="43.93678119481565" lon="12.119077138232399"><ele>555.0</ele><time>2026-04-12T08:27:11.001Z</time></trkpt><trkpt lat="43.936826035688824" lon="12.118946254693773"><ele>555.0</ele><time>2026-04-12T08:27:12.001Z</time></trkpt><trkpt lat="43.936866441215734" lon="12.118837600562296"><ele>555.0</ele><time>2026-04-12T08:27:13.001Z</time></trkpt><trkpt lat="43.936894036035596" lon="12.118736010735898"><ele>555.0</ele><time>2026-04-12T08:27:14.001Z</time></trkpt><trkpt lat="43.936927061382704" lon="12.118635445849563"><ele>555.0</ele><time>2026-04-12T08:27:15.001Z</time></trkpt><trkpt lat="43.936970849284435" lon="12.118484900487536"><ele>555.0</ele><time>2026-04-12T08:27:17.001Z</time></trkpt><trkpt lat="43.93704922750857" lon="12.118382780797916"><ele>555.0</ele><time>2026-04-12T08:27:19.001Z</time></trkpt><trkpt lat="43.93711652520051" lon="12.118360999019579"><ele>555.0</ele><time>2026-04-12T08:27:20.001Z</time></trkpt><trkpt lat="43.93719985828253" lon="12.11841585599305"><ele>555.0</ele><time>2026-04-12T08:27:21.001Z</time></trkpt><trkpt lat="43.937282824641166" lon="12.118422335198712"><ele>555.0</ele><time>2026-04-12T08:27:22.001Z</time></trkpt><trkpt lat="43.93735729402426" lon="12.118411151330717"><ele>555.0</ele><time>2026-04-12T08:27:23.001Z</time></trkpt><trkpt lat="43.93742643608178" lon="12.118348234201475"><ele>555.0</ele><time>2026-04-12T08:27:24.001Z</time></trkpt><trkpt lat="43.93749910779117" lon="12.11829639087539"><ele>555.0</ele><time>2026-04-12T08:27:25.001Z</time></trkpt><trkpt lat="43.93756091577017" lon="12.118219351591573"><ele>555.0</ele><time>2026-04-12T08:27:26.001Z</time></trkpt><trkpt lat="43.937616080974706" lon="12.118133430996435"><ele>555.0</ele><time>2026-04-12T08:27:27.001Z</time></trkpt><trkpt lat="43.93765501169126" lon="12.118026068046884"><ele>555.0</ele><time>2026-04-12T08:27:28.001Z</time></trkpt><trkpt lat="43.93768422574464" lon="12.117917238499208"><ele>555.0</ele><time>2026-04-12T08:27:29.001Z</time></trkpt><trkpt lat="43.93770455536398" lon="12.11779702033346"><ele>554.1666666666666</ele><time>2026-04-12T08:27:30.001Z</time></trkpt><trkpt lat="43.937722150370895" lon="12.117688110591489"><ele>553.3333333333334</ele><time>2026-04-12T08:27:31.001Z</time></trkpt><trkpt lat="43.937716224775656" lon="12.117591709767407"><ele>552.5</ele><time>2026-04-12T08:27:32.001Z</time></trkpt><trkpt lat="43.93773386442982" lon="12.117506910874312"><ele>551.6666666666667</ele><time>2026-04-12T08:27:33.001Z</time></trkpt><trkpt lat="43.93779736921995" lon="12.11737064204314"><ele>550.8333333333334</ele><time>2026-04-12T08:27:35.001Z</time></trkpt><trkpt lat="43.93786543756013" lon="12.117319436722285"><ele>550.0</ele><time>2026-04-12T08:27:36.001Z</time></trkpt><trkpt lat="43.93795390826189" lon="12.117318658885988"><ele>547.2</ele><time>2026-04-12T08:27:37.001Z</time></trkpt><trkpt lat="43.93805297229597" lon="12.117310824313344"><ele>544.4</ele><time>2026-04-12T08:27:38.001Z</time></trkpt><trkpt lat="43.93813606708293" lon="12.11729406127054"><ele>541.6</ele><time>2026-04-12T08:27:39.001Z</time></trkpt><trkpt lat="43.93825430234678" lon="12.117206412243439"><ele>538.8</ele><time>2026-04-12T08:27:41.001Z</time></trkpt><trkpt lat="43.9383393117147" lon="12.117145151108307"><ele>536.0</ele><time>2026-04-12T08:27:42.001Z</time></trkpt><trkpt lat="43.9383749403617" lon="12.117044975772021"><ele>536.6</ele><time>2026-04-12T08:27:43.001Z</time></trkpt><trkpt lat="43.93842154916275" lon="12.116870635484482"><ele>537.2</ele><time>2026-04-12T08:27:45.001Z</time></trkpt><trkpt lat="43.938455782469575" lon="12.116735259973414"><ele>537.8</ele><time>2026-04-12T08:27:46.001Z</time></trkpt><trkpt lat="43.93848144252971" lon="12.116614464529386"><ele>538.4</ele><time>2026-04-12T08:27:47.001Z</time></trkpt><trkpt lat="43.93849792017976" lon="12.1164927013493"><ele>539.0</ele><time>2026-04-12T08:27:48.001Z</time></trkpt><trkpt lat="43.93849128054461" lon="12.116371325967247"><ele>538.4</ele><time>2026-04-12T08:27:49.001Z</time></trkpt><trkpt lat="43.93850845929892" lon="12.116229624053233"><ele>537.8</ele><time>2026-04-12T08:27:50.001Z</time></trkpt><trkpt lat="43.93850962341349" lon="12.116080468059502"><ele>537.2</ele><time>2026-04-12T08:27:51.001Z</time></trkpt><trkpt lat="43.938530744194736" lon="12.115947752950678"><ele>536.6</ele><time>2026-04-12T08:27:52.001Z</time></trkpt><trkpt lat="43.93854901981427" lon="12.115791148595985"><ele>536.0</ele><time>2026-04-12T08:27:53.001Z</time></trkpt><trkpt lat="43.938537209613024" lon="12.115641430491655"><ele>536.0</ele><time>2026-04-12T08:27:54.001Z</time></trkpt><trkpt lat="43.93857123936437" lon="12.115487773194141"><ele>536.0</ele><time>2026-04-12T08:27:55.001Z</time></trkpt><trkpt lat="43.93859216370034" lon="12.115342684555758"><ele>536.0</ele><time>2026-04-12T08:27:56.001Z</time></trkpt><trkpt lat="43.93862692115572" lon="12.11520558631882"><ele>536.0</ele><time>2026-04-12T08:27:57.001Z</time></trkpt><trkpt lat="43.93866462214586" lon="12.115076520070843"><ele>536.0</ele><time>2026-04-12T08:27:58.001Z</time></trkpt><trkpt lat="43.93869091837198" lon="12.114944357089232"><ele>539.2</ele><time>2026-04-12T08:27:59.001Z</time></trkpt><trkpt lat="43.93871005801629" lon="12.11480224898595"><ele>542.4000000000001</ele><time>2026-04-12T08:28:00.001Z</time></trkpt><trkpt lat="43.93871850137377" lon="12.114670633108583"><ele>545.6</ele><time>2026-04-12T08:28:01.001Z</time></trkpt><trkpt lat="43.938721343692045" lon="12.114537601224626"><ele>548.8000000000001</ele><time>2026-04-12T08:28:02.001Z</time></trkpt><trkpt lat="43.93872368918053" lon="12.114406006962335"><ele>552.0</ele><time>2026-04-12T08:28:03.001Z</time></trkpt><trkpt lat="43.93872784401261" lon="12.114269969810401"><ele>552.0</ele><time>2026-04-12T08:28:04.001Z</time></trkpt><trkpt lat="43.938731735893576" lon="12.114129553720236"><ele>552.0</ele><time>2026-04-12T08:28:05.001Z</time></trkpt><trkpt lat="43.93874332133491" lon="12.113996551702611"><ele>552.0</ele><time>2026-04-12T08:28:06.001Z</time></trkpt><trkpt lat="43.9387587362697" lon="12.113858342937242"><ele>552.0</ele><time>2026-04-12T08:28:07.001Z</time></trkpt><trkpt lat="43.93878037358667" lon="12.11373246104825"><ele>552.0</ele><time>2026-04-12T08:28:08Z</time></trkpt><trkpt lat="43.9388302731655" lon="12.113621298037655"><ele>551.8000000000001</ele><time>2026-04-12T08:28:09Z</time></trkpt><trkpt lat="43.938908738077735" lon="12.113549990721005"><ele>551.6</ele><time>2026-04-12T08:28:10Z</time></trkpt><trkpt lat="43.93898166537468" lon="12.113489732596708"><ele>551.4000000000001</ele><time>2026-04-12T08:28:11Z</time></trkpt><trkpt lat="43.93906807381486" lon="12.113427602105611"><ele>551.2</ele><time>2026-04-12T08:28:12Z</time></trkpt><trkpt lat="43.93915284325544" lon="12.113349166334237"><ele>551.0</ele><time>2026-04-12T08:28:13Z</time></trkpt><trkpt lat="43.939250893510874" lon="12.113290730646854"><ele>547.6</ele><time>2026-04-12T08:28:14Z</time></trkpt><trkpt lat="43.9393354036841" lon="12.113237704269174"><ele>544.2</ele><time>2026-04-12T08:28:15Z</time></trkpt><trkpt lat="43.93939373971765" lon="12.113155326419175"><ele>540.8</ele><time>2026-04-12T08:28:16Z</time></trkpt><trkpt lat="43.939476349106904" lon="12.113070679323268"><ele>537.4</ele><time>2026-04-12T08:28:17Z</time></trkpt><trkpt lat="43.939529889576455" lon="12.11292143891534"><ele>534.0</ele><time>2026-04-12T08:28:18Z</time></trkpt><trkpt lat="43.93958075023829" lon="12.112794581870126"><ele>534.0</ele><time>2026-04-12T08:28:19Z</time></trkpt><trkpt lat="43.93961094457764" lon="12.112666246351626"><ele>534.0</ele><time>2026-04-12T08:28:20Z</time></trkpt><trkpt lat="43.93963802941309" lon="12.112530086330407"><ele>534.0</ele><time>2026-04-12T08:28:21Z</time></trkpt><trkpt lat="43.939673442053326" lon="12.112405025833029"><ele>534.0</ele><time>2026-04-12T08:28:22Z</time></trkpt><trkpt lat="43.93969992870291" lon="12.112279039594792"><ele>534.0</ele><time>2026-04-12T08:28:23Z</time></trkpt><trkpt lat="43.93973350911275" lon="12.11213837916354"><ele>534.1666666666666</ele><time>2026-04-12T08:28:24Z</time></trkpt><trkpt lat="43.93976831787235" lon="12.112014971360365"><ele>534.3333333333334</ele><time>2026-04-12T08:28:25Z</time></trkpt><trkpt lat="43.93979533860284" lon="12.111900239399404"><ele>534.5</ele><time>2026-04-12T08:28:26Z</time></trkpt><trkpt lat="43.93983215290253" lon="12.111775576668265"><ele>534.6666666666667</ele><time>2026-04-12T08:28:27Z</time></trkpt><trkpt lat="43.939860973895065" lon="12.111673804996908"><ele>534.8333333333334</ele><time>2026-04-12T08:28:28Z</time></trkpt><trkpt lat="43.939900538207006" lon="12.111571365240913"><ele>535.0</ele><time>2026-04-12T08:28:29Z</time></trkpt><trkpt lat="43.93991998063956" lon="12.11146640085266"><ele>535.1666666666667</ele><time>2026-04-12T08:28:30Z</time></trkpt><trkpt lat="43.9399460225521" lon="12.111357538181458"><ele>535.3333333333334</ele><time>2026-04-12T08:28:31Z</time></trkpt><trkpt lat="43.93997889620412" lon="12.111247109722735"><ele>535.5</ele><time>2026-04-12T08:28:32Z</time></trkpt><trkpt lat="43.94000664723449" lon="12.111132317625826"><ele>535.6666666666666</ele><time>2026-04-12T08:28:33Z</time></trkpt><trkpt lat="43.94003246474962" lon="12.111016907128809"><ele>535.8333333333333</ele><time>2026-04-12T08:28:34Z</time></trkpt><trkpt lat="43.94004455646207" lon="12.110917076297044"><ele>536.0</ele><time>2026-04-12T08:28:35Z</time></trkpt><trkpt lat="43.94004286389309" lon="12.11081838351585"><ele>535.3333333333333</ele><time>2026-04-12T08:28:36Z</time></trkpt><trkpt lat="43.94005514859575" lon="12.11070889319042"><ele>534.6666666666666</ele><time>2026-04-12T08:28:37Z</time></trkpt><trkpt lat="43.94005514859248" lon="12.110603738103343"><ele>534.0</ele><time>2026-04-12T08:28:38Z</time></trkpt><trkpt lat="43.94004759239469" lon="12.110483346937318"><ele>533.3333333333334</ele><time>2026-04-12T08:28:39Z</time></trkpt><trkpt lat="43.94009380117673" lon="12.110388229085313"><ele>532.6666666666667</ele><time>2026-04-12T08:28:40Z</time></trkpt><trkpt lat="43.940149714416734" lon="12.11027632957075"><ele>532.0</ele><time>2026-04-12T08:28:41Z</time></trkpt><trkpt lat="43.94022546796026" lon="12.110173251191242"><ele>534.6</ele><time>2026-04-12T08:28:42Z</time></trkpt><trkpt lat="43.940317042095245" lon="12.110070020282162"><ele>537.2</ele><time>2026-04-12T08:28:43Z</time></trkpt><trkpt lat="43.94037629680466" lon="12.109961809224101"><ele>539.8</ele><time>2026-04-12T08:28:44Z</time></trkpt><trkpt lat="43.94041468636558" lon="12.109854309748362"><ele>542.4</ele><time>2026-04-12T08:28:45Z</time></trkpt><trkpt lat="43.94044138212122" lon="12.109728572525004"><ele>545.0</ele><time>2026-04-12T08:28:46Z</time></trkpt><trkpt lat="43.94045497977344" lon="12.109604275852988"><ele>546.6</ele><time>2026-04-12T08:28:47Z</time></trkpt><trkpt lat="43.940451292021045" lon="12.109483954165308"><ele>548.2</ele><time>2026-04-12T08:28:48Z</time></trkpt><trkpt lat="43.94043450707678" lon="12.109364237767013"><ele>549.8</ele><time>2026-04-12T08:28:49Z</time></trkpt><trkpt lat="43.9403960712428" lon="12.109225440919067"><ele>551.4</ele><time>2026-04-12T08:28:50Z</time></trkpt><trkpt lat="43.940364720453275" lon="12.109108049318856"><ele>553.0</ele><time>2026-04-12T08:28:51Z</time></trkpt><trkpt lat="43.94037496074838" lon="12.108985596045262"><ele>553.0</ele><time>2026-04-12T08:28:52Z</time></trkpt><trkpt lat="43.940382630514605" lon="12.108850747583906"><ele>553.0</ele><time>2026-04-12T08:28:53Z</time></trkpt><trkpt lat="43.94040389729839" lon="12.10871649314244"><ele>553.0</ele><time>2026-04-12T08:28:54Z</time></trkpt><trkpt lat="43.940445502294985" lon="12.108587377245371"><ele>553.0</ele><time>2026-04-12T08:28:55.001Z</time></trkpt><trkpt lat="43.940477342613676" lon="12.108473101673567"><ele>553.0</ele><time>2026-04-12T08:28:56.001Z</time></trkpt><trkpt lat="43.94049802830572" lon="12.108386934837913"><ele>553.0</ele><time>2026-04-12T08:28:57.001Z</time></trkpt><trkpt lat="43.940491923308215" lon="12.108292002936865"><ele>553.0</ele><time>2026-04-12T08:28:58.001Z</time></trkpt><trkpt lat="43.940467110360125" lon="12.108172336422813"><ele>553.0</ele><time>2026-04-12T08:28:59.001Z</time></trkpt><trkpt lat="43.94041867390458" lon="12.108066528316977"><ele>553.0</ele><time>2026-04-12T08:29:00.001Z</time></trkpt><trkpt lat="43.94035471215757" lon="12.107950333255815"><ele>553.0</ele><time>2026-04-12T08:29:01.001Z</time></trkpt><trkpt lat="43.94029246300878" lon="12.107833655860759"><ele>554.6666666666667</ele><time>2026-04-12T08:29:02.001Z</time></trkpt><trkpt lat="43.940242367183586" lon="12.107728100629426"><ele>556.3333333333334</ele><time>2026-04-12T08:29:03.001Z</time></trkpt><trkpt lat="43.9402135567402" lon="12.107635230351248"><ele>558.0</ele><time>2026-04-12T08:29:04.001Z</time></trkpt><trkpt lat="43.94019958233788" lon="12.107544093260778"><ele>559.6666666666666</ele><time>2026-04-12T08:29:05.001Z</time></trkpt><trkpt lat="43.94020384636789" lon="12.107436992580256"><ele>561.3333333333333</ele><time>2026-04-12T08:29:06.001Z</time></trkpt><trkpt lat="43.94021385563866" lon="12.107325007536831"><ele>563.0</ele><time>2026-04-12T08:29:07.001Z</time></trkpt><trkpt lat="43.94019970838846" lon="12.10719978800968"><ele>564.5</ele><time>2026-04-12T08:29:08.001Z</time></trkpt><trkpt lat="43.940166830483236" lon="12.107089831024265"><ele>566.0</ele><time>2026-04-12T08:29:09.001Z</time></trkpt><trkpt lat="43.94013438961575" lon="12.106986439630358"><ele>567.5</ele><time>2026-04-12T08:29:10.001Z</time></trkpt><trkpt lat="43.940152744980175" lon="12.106853471036752"><ele>569.0</ele><time>2026-04-12T08:29:11.001Z</time></trkpt><trkpt lat="43.940170727049704" lon="12.10673215038761"><ele>570.5</ele><time>2026-04-12T08:29:12.001Z</time></trkpt><trkpt lat="43.940165890142325" lon="12.10663543958591"><ele>572.0</ele><time>2026-04-12T08:29:13.001Z</time></trkpt><trkpt lat="43.94014642808352" lon="12.106550605691604"><ele>571.9999999999999</ele><time>2026-04-12T08:29:14.001Z</time></trkpt><trkpt lat="43.94009579097492" lon="12.106477809808709"><ele>572.0</ele><time>2026-04-12T08:29:15.001Z</time></trkpt><trkpt lat="43.940051273267215" lon="12.106410900484104"><ele>572.0</ele><time>2026-04-12T08:29:16.001Z</time></trkpt><trkpt lat="43.94004966201653" lon="12.106319889742924"><ele>572.0</ele><time>2026-04-12T08:29:17.001Z</time></trkpt><trkpt lat="43.94006456100769" lon="12.106226707924156"><ele>572.0</ele><time>2026-04-12T08:29:18.001Z</time></trkpt><trkpt lat="43.940091028746615" lon="12.106119798080076"><ele>571.9999999999999</ele><time>2026-04-12T08:29:19.001Z</time></trkpt><trkpt lat="43.940122688397345" lon="12.106004124425635"><ele>572.0</ele><time>2026-04-12T08:29:20.001Z</time></trkpt><trkpt lat="43.940158747804745" lon="12.105888857070942"><ele>572.0</ele><time>2026-04-12T08:29:21.001Z</time></trkpt><trkpt lat="43.940226865042646" lon="12.105793747841945"><ele>572.0</ele><time>2026-04-12T08:29:22.001Z</time></trkpt><trkpt lat="43.94029155437578" lon="12.105691049058784"><ele>572.0</ele><time>2026-04-12T08:29:23.001Z</time></trkpt><trkpt lat="43.940346040366286" lon="12.105593886731732"><ele>572.0</ele><time>2026-04-12T08:29:24.001Z</time></trkpt><trkpt lat="43.94038136202918" lon="12.105479083883608"><ele>572.0</ele><time>2026-04-12T08:29:25.001Z</time></trkpt><trkpt lat="43.940408810016" lon="12.105360759167151"><ele>572.2</ele><time>2026-04-12T08:29:26.001Z</time></trkpt><trkpt lat="43.940418226461794" lon="12.105240312922508"><ele>572.4000000000001</ele><time>2026-04-12T08:29:27.001Z</time></trkpt><trkpt lat="43.940427137567774" lon="12.105118719125539"><ele>572.5999999999999</ele><time>2026-04-12T08:29:28.001Z</time></trkpt><trkpt lat="43.94043320891456" lon="12.104984527246934"><ele>572.8</ele><time>2026-04-12T08:29:29.001Z</time></trkpt><trkpt lat="43.94042900944543" lon="12.104852026139605"><ele>573.0</ele><time>2026-04-12T08:29:30.001Z</time></trkpt><trkpt lat="43.940408116596494" lon="12.104723592655503"><ele>573.0</ele><time>2026-04-12T08:29:31.001Z</time></trkpt><trkpt lat="43.940395482476895" lon="12.104595459163017"><ele>573.0</ele><time>2026-04-12T08:29:32.001Z</time></trkpt><trkpt lat="43.940384874265305" lon="12.104472336412588"><ele>573.0</ele><time>2026-04-12T08:29:33.001Z</time></trkpt><trkpt lat="43.94036969727861" lon="12.104346356610263"><ele>573.0</ele><time>2026-04-12T08:29:34.001Z</time></trkpt><trkpt lat="43.94034596127497" lon="12.104231747062899"><ele>573.0</ele><time>2026-04-12T08:29:35.001Z</time></trkpt><trkpt lat="43.94029514276208" lon="12.104124050793928"><ele>576.1666666666666</ele><time>2026-04-12T08:29:36.001Z</time></trkpt><trkpt lat="43.94024538885507" lon="12.103998084475396"><ele>579.3333333333334</ele><time>2026-04-12T08:29:37.001Z</time></trkpt><trkpt lat="43.94020739157319" lon="12.103898615695437"><ele>582.5</ele><time>2026-04-12T08:29:38.001Z</time></trkpt><trkpt lat="43.94017784712821" lon="12.103782276088108"><ele>585.6666666666667</ele><time>2026-04-12T08:29:39.001Z</time></trkpt><trkpt lat="43.94015346960705" lon="12.103673948480978"><ele>588.8333333333334</ele><time>2026-04-12T08:29:40.001Z</time></trkpt><trkpt lat="43.94011277782619" lon="12.103592462344494"><ele>592.0</ele><time>2026-04-12T08:29:41.001Z</time></trkpt><trkpt lat="43.940051005904074" lon="12.10353875585617"><ele>592.6666666666667</ele><time>2026-04-12T08:29:42.001Z</time></trkpt><trkpt lat="43.939971643689326" lon="12.103486516618517"><ele>593.3333333333334</ele><time>2026-04-12T08:29:43.001Z</time></trkpt><trkpt lat="43.939903609230946" lon="12.103429941121622"><ele>594.0</ele><time>2026-04-12T08:29:44.001Z</time></trkpt><trkpt lat="43.93983382489542" lon="12.103341819281518"><ele>594.6666666666666</ele><time>2026-04-12T08:29:46.001Z</time></trkpt><trkpt lat="43.939833852042725" lon="12.103211401637736"><ele>595.3333333333333</ele><time>2026-04-12T08:29:48.001Z</time></trkpt><trkpt lat="43.939870578584234" lon="12.103112496754486"><ele>596.0</ele><time>2026-04-12T08:29:49.001Z</time></trkpt><trkpt lat="43.93990146499396" lon="12.10302205447868"><ele>596.0</ele><time>2026-04-12T08:29:50.001Z</time></trkpt><trkpt lat="43.93992522096978" lon="12.102911535215455"><ele>596.0</ele><time>2026-04-12T08:29:51.001Z</time></trkpt><trkpt lat="43.93996024103985" lon="12.10280595852699"><ele>596.0</ele><time>2026-04-12T08:29:52.001Z</time></trkpt><trkpt lat="43.939967259044806" lon="12.102686061559712"><ele>596.0</ele><time>2026-04-12T08:29:53.001Z</time></trkpt><trkpt lat="43.939967792863925" lon="12.102516106135969"><ele>596.0</ele><time>2026-04-12T08:29:55.001Z</time></trkpt><trkpt lat="43.93999271798184" lon="12.102432660471003"><ele>596.0</ele><time>2026-04-12T08:29:56.001Z</time></trkpt><trkpt lat="43.94002311424929" lon="12.102294470276773"><ele>596.1666666666666</ele><time>2026-04-12T08:29:58.001Z</time></trkpt><trkpt lat="43.94003268900687" lon="12.102175694382773"><ele>596.3333333333333</ele><time>2026-04-12T08:29:59.001Z</time></trkpt><trkpt lat="43.940016677360354" lon="12.102049023552503"><ele>596.5</ele><time>2026-04-12T08:30:00.001Z</time></trkpt><trkpt lat="43.939999540507195" lon="12.101941515322101"><ele>596.6666666666666</ele><time>2026-04-12T08:30:01.001Z</time></trkpt><trkpt lat="43.93997220156223" lon="12.10181450253843"><ele>596.8333333333334</ele><time>2026-04-12T08:30:02.001Z</time></trkpt><trkpt lat="43.93997900447736" lon="12.101705860019628"><ele>597.0</ele><time>2026-04-12T08:30:03.001Z</time></trkpt><trkpt lat="43.93999610559854" lon="12.101545807160553"><ele>598.2</ele><time>2026-04-12T08:30:05.001Z</time></trkpt><trkpt lat="43.94007433068718" lon="12.101415512962845"><ele>599.4000000000001</ele><time>2026-04-12T08:30:07.001Z</time></trkpt><trkpt lat="43.940121562895996" lon="12.101277977075299"><ele>600.5999999999999</ele><time>2026-04-12T08:30:09.001Z</time></trkpt><trkpt lat="43.9401395371838" lon="12.101115047115398"><ele>601.8</ele><time>2026-04-12T08:30:11.001Z</time></trkpt><trkpt lat="43.940116754188374" lon="12.101022827300515"><ele>603.0</ele><time>2026-04-12T08:30:12.001Z</time></trkpt><trkpt lat="43.94004877818237" lon="12.100876634588118"><ele>603.0</ele><time>2026-04-12T08:30:14Z</time></trkpt><trkpt lat="43.939998614385075" lon="12.10077348786899"><ele>603.0</ele><time>2026-04-12T08:30:15Z</time></trkpt><trkpt lat="43.93996091252974" lon="12.100697015395061"><ele>603.0</ele><time>2026-04-12T08:30:16Z</time></trkpt><trkpt lat="43.93994506880846" lon="12.100544622219775"><ele>603.0</ele><time>2026-04-12T08:30:18Z</time></trkpt><trkpt lat="43.93993502035361" lon="12.10045708662517"><ele>603.0</ele><time>2026-04-12T08:30:19Z</time></trkpt><trkpt lat="43.939911335840726" lon="12.1003671241167"><ele>603.0</ele><time>2026-04-12T08:30:20Z</time></trkpt><trkpt lat="43.939895746151535" lon="12.100251957323662"><ele>604.3333333333334</ele><time>2026-04-12T08:30:21Z</time></trkpt><trkpt lat="43.939867316943136" lon="12.10013480743234"><ele>605.6666666666666</ele><time>2026-04-12T08:30:22Z</time></trkpt><trkpt lat="43.93984354142538" lon="12.100047432253774"><ele>607.0</ele><time>2026-04-12T08:30:23Z</time></trkpt><trkpt lat="43.93980993801958" lon="12.099964398834121"><ele>608.3333333333333</ele><time>2026-04-12T08:30:24Z</time></trkpt><trkpt lat="43.939755168371526" lon="12.099834240317149"><ele>609.6666666666666</ele><time>2026-04-12T08:30:26Z</time></trkpt><trkpt lat="43.93970620690663" lon="12.099751601825288"><ele>611.0</ele><time>2026-04-12T08:30:27Z</time></trkpt><trkpt lat="43.93964755542546" lon="12.09962852963132"><ele>613.8333333333333</ele><time>2026-04-12T08:30:29Z</time></trkpt><trkpt lat="43.939610145881126" lon="12.099540931954833"><ele>616.6666666666666</ele><time>2026-04-12T08:30:31Z</time></trkpt><trkpt lat="43.93958046131613" lon="12.099438105189554"><ele>619.5</ele><time>2026-04-12T08:30:33Z</time></trkpt><trkpt lat="43.93955379752764" lon="12.099346969277168"><ele>622.3333333333334</ele><time>2026-04-12T08:30:35Z</time></trkpt><trkpt lat="43.93952315705358" lon="12.099243587320924"><ele>625.1666666666667</ele><time>2026-04-12T08:30:37Z</time></trkpt><trkpt lat="43.93948847815552" lon="12.099145159550744"><ele>628.0</ele><time>2026-04-12T08:30:39Z</time></trkpt><trkpt lat="43.939457273763665" lon="12.099049026052223"><ele>629.3333333333334</ele><time>2026-04-12T08:30:41Z</time></trkpt><trkpt lat="43.93942484154625" lon="12.098943572837564"><ele>630.6666666666667</ele><time>2026-04-12T08:30:43Z</time></trkpt><trkpt lat="43.939391395694095" lon="12.09884339247849"><ele>632.0</ele><time>2026-04-12T08:30:45Z</time></trkpt><trkpt lat="43.93934092703936" lon="12.09874898407278"><ele>633.3333333333334</ele><time>2026-04-12T08:30:47Z</time></trkpt><trkpt lat="43.93927727364188" lon="12.098678648245178"><ele>634.6666666666666</ele><time>2026-04-12T08:30:49Z</time></trkpt><trkpt lat="43.93922223749525" lon="12.098618616207169"><ele>636.0</ele><time>2026-04-12T08:30:51Z</time></trkpt><trkpt lat="43.93916210947135" lon="12.098564257059769"><ele>632.0</ele><time>2026-04-12T08:30:53Z</time></trkpt><trkpt lat="43.9390811528908" lon="12.098491456187435"><ele>628.0</ele><time>2026-04-12T08:30:55Z</time></trkpt><trkpt lat="43.939024119338" lon="12.098442207299076"><ele>624.0</ele><time>2026-04-12T08:30:56Z</time></trkpt><trkpt lat="43.93896053383459" lon="12.098387411029593"><ele>620.0</ele><time>2026-04-12T08:30:57Z</time></trkpt><trkpt lat="43.9388893731601" lon="12.098326422298113"><ele>616.0</ele><time>2026-04-12T08:30:58Z</time></trkpt><trkpt lat="43.93882502148135" lon="12.098279375007447"><ele>612.0</ele><time>2026-04-12T08:30:59Z</time></trkpt><trkpt lat="43.93874646109822" lon="12.098227666447002"><ele>612.0</ele><time>2026-04-12T08:31:00Z</time></trkpt><trkpt lat="43.938683728493395" lon="12.098187548769147"><ele>612.0</ele><time>2026-04-12T08:31:01Z</time></trkpt><trkpt lat="43.938607539334534" lon="12.098160494177867"><ele>612.0</ele><time>2026-04-12T08:31:02Z</time></trkpt><trkpt lat="43.93853160994806" lon="12.098160544816514"><ele>612.0</ele><time>2026-04-12T08:31:03Z</time></trkpt><trkpt lat="43.93846183761917" lon="12.098196947628495"><ele>612.0</ele><time>2026-04-12T08:31:04Z</time></trkpt><trkpt lat="43.93838802794528" lon="12.09825310992898"><ele>612.0</ele><time>2026-04-12T08:31:05Z</time></trkpt><trkpt lat="43.93827692573764" lon="12.09828180316515"><ele>611.3333333333334</ele><time>2026-04-12T08:31:07Z</time></trkpt><trkpt lat="43.93821410050001" lon="12.098170583130692"><ele>610.6666666666666</ele><time>2026-04-12T08:31:09Z</time></trkpt><trkpt lat="43.938179186278354" lon="12.098093243618237"><ele>610.0</ele><time>2026-04-12T08:31:10Z</time></trkpt><trkpt lat="43.93812688589331" lon="12.09800776355134"><ele>609.3333333333333</ele><time>2026-04-12T08:31:11Z</time></trkpt><trkpt lat="43.93805800544517" lon="12.097951503699324"><ele>608.6666666666666</ele><time>2026-04-12T08:31:12Z</time></trkpt><trkpt lat="43.937994211035786" lon="12.09789587722775"><ele>608.0</ele><time>2026-04-12T08:31:13.001Z</time></trkpt><trkpt lat="43.9379219401817" lon="12.097871653623912"><ele>608.0</ele><time>2026-04-12T08:31:14.001Z</time></trkpt><trkpt lat="43.93784622362236" lon="12.097846020446541"><ele>608.0</ele><time>2026-04-12T08:31:15.001Z</time></trkpt><trkpt lat="43.93777339696162" lon="12.097809619185579"><ele>608.0</ele><time>2026-04-12T08:31:16.001Z</time></trkpt><trkpt lat="43.93769480333107" lon="12.097748530778258"><ele>608.0</ele><time>2026-04-12T08:31:17.001Z</time></trkpt><trkpt lat="43.93763964642079" lon="12.097685653163849"><ele>608.0</ele><time>2026-04-12T08:31:18.001Z</time></trkpt><trkpt lat="43.93758131661581" lon="12.097611309127982"><ele>608.0</ele><time>2026-04-12T08:31:19.001Z</time></trkpt><trkpt lat="43.93752666944059" lon="12.097537765775495"><ele>611.6666666666666</ele><time>2026-04-12T08:31:20.001Z</time></trkpt><trkpt lat="43.93747269965951" lon="12.09746263163922"><ele>615.3333333333333</ele><time>2026-04-12T08:31:21.001Z</time></trkpt><trkpt lat="43.937402151069854" lon="12.09737478113244"><ele>619.0</ele><time>2026-04-12T08:31:22.001Z</time></trkpt><trkpt lat="43.93733235662609" lon="12.097329809666723"><ele>622.6666666666666</ele><time>2026-04-12T08:31:23.001Z</time></trkpt><trkpt lat="43.93724827193039" lon="12.097299033009607"><ele>626.3333333333334</ele><time>2026-04-12T08:31:24.001Z</time></trkpt><trkpt lat="43.93717029047978" lon="12.097279487285526"><ele>630.0</ele><time>2026-04-12T08:31:25.001Z</time></trkpt><trkpt lat="43.93708339817192" lon="12.097261661580927"><ele>630.5</ele><time>2026-04-12T08:31:26.001Z</time></trkpt><trkpt lat="43.9370074668951" lon="12.097248690031543"><ele>631.0</ele><time>2026-04-12T08:31:27.001Z</time></trkpt><trkpt lat="43.93692008484524" lon="12.097242796127004"><ele>631.5</ele><time>2026-04-12T08:31:28.001Z</time></trkpt><trkpt lat="43.936842448451316" lon="12.097204421007515"><ele>632.0</ele><time>2026-04-12T08:31:29.001Z</time></trkpt><trkpt lat="43.936772471929935" lon="12.097189834937453"><ele>632.5</ele><time>2026-04-12T08:31:30.001Z</time></trkpt><trkpt lat="43.936704738266336" lon="12.09718478176226"><ele>633.0</ele><time>2026-04-12T08:31:31.001Z</time></trkpt><trkpt lat="43.936588397227816" lon="12.09717807956071"><ele>637.3333333333334</ele><time>2026-04-12T08:31:33.001Z</time></trkpt><trkpt lat="43.9365175477632" lon="12.097142574775196"><ele>641.6666666666666</ele><time>2026-04-12T08:31:34.001Z</time></trkpt><trkpt lat="43.936447460308024" lon="12.097143856548321"><ele>646.0</ele><time>2026-04-12T08:31:36.001Z</time></trkpt><trkpt lat="43.93636128086497" lon="12.097189900986663"><ele>650.3333333333333</ele><time>2026-04-12T08:31:38.001Z</time></trkpt><trkpt lat="43.93629041591852" lon="12.097227141387277"><ele>654.6666666666666</ele><time>2026-04-12T08:31:40.001Z</time></trkpt><trkpt lat="43.936226800756636" lon="12.097289346934277"><ele>659.0</ele><time>2026-04-12T08:33:21Z</time></trkpt><trkpt lat="43.936159926436645" lon="12.097297370018216"><ele>659.0</ele><time>2026-04-12T08:33:23Z</time></trkpt><trkpt lat="43.93610189894407" lon="12.097260650029764"><ele>659.0</ele><time>2026-04-12T08:33:25Z</time></trkpt><trkpt lat="43.93604972078768" lon="12.097181947591768"><ele>659.0</ele><time>2026-04-12T08:33:27Z</time></trkpt><trkpt lat="43.936006670228636" lon="12.097113919026476"><ele>659.0</ele><time>2026-04-12T08:33:28Z</time></trkpt><trkpt lat="43.935962902170864" lon="12.096961182255745"><ele>659.0</ele><time>2026-04-12T08:33:30Z</time></trkpt><trkpt lat="43.93592066181446" lon="12.096828974825788"><ele>659.0</ele><time>2026-04-12T08:33:32Z</time></trkpt><trkpt lat="43.9358699410134" lon="12.096681460384081"><ele>655.2</ele><time>2026-04-12T08:33:34.001Z</time></trkpt><trkpt lat="43.93581655226023" lon="12.096541919307807"><ele>651.4000000000001</ele><time>2026-04-12T08:33:36.001Z</time></trkpt><trkpt lat="43.93578143100049" lon="12.09640697398338"><ele>647.6</ele><time>2026-04-12T08:33:38.001Z</time></trkpt><trkpt lat="43.93572792973355" lon="12.096328223494874"><ele>643.8</ele><time>2026-04-12T08:33:40.001Z</time></trkpt><trkpt lat="43.93564381076739" lon="12.096266466453294"><ele>640.0</ele><time>2026-04-12T08:33:42.001Z</time></trkpt><trkpt lat="43.93557311000439" lon="12.096207455105157"><ele>640.0</ele><time>2026-04-12T08:33:44.001Z</time></trkpt><trkpt lat="43.935524851787804" lon="12.096122083177214"><ele>640.0</ele><time>2026-04-12T08:33:46.001Z</time></trkpt><trkpt lat="43.935459793761005" lon="12.09606996624677"><ele>640.0</ele><time>2026-04-12T08:33:50.001Z</time></trkpt><trkpt lat="43.93538947508179" lon="12.096004031452503"><ele>640.0</ele><time>2026-04-12T08:35:03Z</time></trkpt><trkpt lat="43.93533490146875" lon="12.095951882199335"><ele>640.0</ele><time>2026-04-12T08:35:04Z</time></trkpt><trkpt lat="43.93527366232917" lon="12.095894084231997"><ele>640.0</ele><time>2026-04-12T08:35:05Z</time></trkpt><trkpt lat="43.93518534476772" lon="12.095869161797241"><ele>640.0</ele><time>2026-04-12T08:35:06Z</time></trkpt><trkpt lat="43.93509948102604" lon="12.095835097840743"><ele>640.0</ele><time>2026-04-12T08:35:07Z</time></trkpt><trkpt lat="43.935009469666284" lon="12.095820215331171"><ele>640.0</ele><time>2026-04-12T08:35:08Z</time></trkpt><trkpt lat="43.93492720274887" lon="12.09579209497424"><ele>640.0</ele><time>2026-04-12T08:35:09Z</time></trkpt><trkpt lat="43.93484690153379" lon="12.095759376864386"><ele>640.0</ele><time>2026-04-12T08:35:10Z</time></trkpt><trkpt lat="43.93476681353882" lon="12.09573081400218"><ele>640.0</ele><time>2026-04-12T08:35:11Z</time></trkpt><trkpt lat="43.934697740059384" lon="12.095714825798158"><ele>636.1666666666667</ele><time>2026-04-12T08:35:12Z</time></trkpt><trkpt lat="43.93463165488654" lon="12.095707241861344"><ele>632.3333333333334</ele><time>2026-04-12T08:35:13Z</time></trkpt><trkpt lat="43.934519839303256" lon="12.0956516487212"><ele>628.5</ele><time>2026-04-12T08:35:15Z</time></trkpt><trkpt lat="43.93448445033098" lon="12.095544946699729"><ele>624.6666666666666</ele><time>2026-04-12T08:35:16Z</time></trkpt><trkpt lat="43.93443642761264" lon="12.095463318227697"><ele>620.8333333333333</ele><time>2026-04-12T08:35:17Z</time></trkpt><trkpt lat="43.93436679306364" lon="12.095408069162708"><ele>617.0</ele><time>2026-04-12T08:35:18Z</time></trkpt><trkpt lat="43.9343094002818" lon="12.095330905471098"><ele>617.0</ele><time>2026-04-12T08:35:19Z</time></trkpt><trkpt lat="43.93425876320555" lon="12.09525566039505"><ele>617.0</ele><time>2026-04-12T08:35:20Z</time></trkpt><trkpt lat="43.93420416203707" lon="12.095184913352382"><ele>617.0</ele><time>2026-04-12T08:35:21Z</time></trkpt><trkpt lat="43.93413674856478" lon="12.095110257177163"><ele>617.0</ele><time>2026-04-12T08:35:22Z</time></trkpt><trkpt lat="43.934067389701305" lon="12.09505313302138"><ele>617.0</ele><time>2026-04-12T08:35:23Z</time></trkpt><trkpt lat="43.933998496276374" lon="12.095009065557019"><ele>617.0</ele><time>2026-04-12T08:35:24Z</time></trkpt><trkpt lat="43.933916100446595" lon="12.094955776561319"><ele>620.0</ele><time>2026-04-12T08:35:25Z</time></trkpt><trkpt lat="43.93383286553013" lon="12.094905825965787"><ele>623.0</ele><time>2026-04-12T08:35:26Z</time></trkpt><trkpt lat="43.93374974830877" lon="12.094856992202855"><ele>626.0</ele><time>2026-04-12T08:35:27Z</time></trkpt><trkpt lat="43.930297178292776" lon="12.093883182245582"><ele>646.0</ele><time>2026-04-12T08:36:29.001Z</time></trkpt><trkpt lat="43.93030392665905" lon="12.093795053371805"><ele>666.0</ele><time>2026-04-12T08:36:36.999Z</time></trkpt><trkpt lat="43.930583386873096" lon="12.093723721522048"><ele>686.0</ele><time>2026-04-12T08:36:40.999Z</time></trkpt><trkpt lat="43.93066728083209" lon="12.093712010707916"><ele>706.0</ele><time>2026-04-12T08:36:41.999Z</time></trkpt><trkpt lat="43.93078992382245" lon="12.0936313215647"><ele>706.0</ele><time>2026-04-12T08:36:43.999Z</time></trkpt><trkpt lat="43.93085072108579" lon="12.093531045944287"><ele>706.0</ele><time>2026-04-12T08:36:44.999Z</time></trkpt><trkpt lat="43.930908441001975" lon="12.093437923969585"><ele>706.0</ele><time>2026-04-12T08:36:45.999Z</time></trkpt><trkpt lat="43.93096945131934" lon="12.093352793775201"><ele>706.0</ele><time>2026-04-12T08:36:46.999Z</time></trkpt><trkpt lat="43.93102240018627" lon="12.093295762141999"><ele>706.0</ele><time>2026-04-12T08:36:47.999Z</time></trkpt><trkpt lat="43.93110930952891" lon="12.093166048381375"><ele>704.1999999999999</ele><time>2026-04-12T08:36:49.999Z</time></trkpt><trkpt lat="43.93112056973324" lon="12.093060988188705"><ele>702.4</ele><time>2026-04-12T08:36:50.999Z</time></trkpt><trkpt lat="43.93112388576446" lon="12.092969049216283"><ele>700.6</ele><time>2026-04-12T08:36:51.999Z</time></trkpt><trkpt lat="43.931101976065506" lon="12.092794388907228"><ele>698.8</ele><time>2026-04-12T08:36:53.999Z</time></trkpt><trkpt lat="43.93104926928776" lon="12.092701601606175"><ele>697.0</ele><time>2026-04-12T08:36:54.999Z</time></trkpt><trkpt lat="43.93095984776088" lon="12.092661563103388"><ele>697.0</ele><time>2026-04-12T08:36:55.999Z</time></trkpt><trkpt lat="43.930904543762104" lon="12.092589185622561"><ele>697.0</ele><time>2026-04-12T08:36:57Z</time></trkpt><trkpt lat="43.93084520948241" lon="12.092537167250422"><ele>697.0</ele><time>2026-04-12T08:36:58Z</time></trkpt><trkpt lat="43.93078494667083" lon="12.09238765315731"><ele>697.0</ele><time>2026-04-12T08:37:00Z</time></trkpt><trkpt lat="43.93074097256795" lon="12.092308714463943"><ele>697.0</ele><time>2026-04-12T08:37:01Z</time></trkpt><trkpt lat="43.93063122615298" lon="12.092221630682355"><ele>700.8333333333334</ele><time>2026-04-12T08:37:03Z</time></trkpt><trkpt lat="43.9305385907519" lon="12.092187463540471"><ele>704.6666666666667</ele><time>2026-04-12T08:37:04Z</time></trkpt><trkpt lat="43.93046856509058" lon="12.092119180528387"><ele>708.5</ele><time>2026-04-12T08:37:05Z</time></trkpt><trkpt lat="43.93039286838485" lon="12.09207260583732"><ele>712.3333333333334</ele><time>2026-04-12T08:37:06Z</time></trkpt><trkpt lat="43.93031778977114" lon="12.092026411444367"><ele>716.1666666666666</ele><time>2026-04-12T08:37:07Z</time></trkpt><trkpt lat="43.93024312767259" lon="12.09198047335142"><ele>720.0</ele><time>2026-04-12T08:37:08Z</time></trkpt><trkpt lat="43.93016844873589" lon="12.091944489578918"><ele>720.0</ele><time>2026-04-12T08:37:09Z</time></trkpt><trkpt lat="43.930100696169056" lon="12.09187987657556"><ele>720.0</ele><time>2026-04-12T08:37:10Z</time></trkpt><trkpt lat="43.93004298322533" lon="12.091835533628469"><ele>720.0</ele><time>2026-04-12T08:37:11Z</time></trkpt><trkpt lat="43.92998661736348" lon="12.09173217322135"><ele>720.0</ele><time>2026-04-12T08:37:12Z</time></trkpt><trkpt lat="43.92994276617548" lon="12.091632001054123"><ele>720.0</ele><time>2026-04-12T08:37:13Z</time></trkpt><trkpt lat="43.9298778618246" lon="12.091519275582412"><ele>720.0</ele><time>2026-04-12T08:37:14Z</time></trkpt><trkpt lat="43.929831867257995" lon="12.091449807842379"><ele>724.0</ele><time>2026-04-12T08:37:15Z</time></trkpt><trkpt lat="43.92976139914143" lon="12.091368144135298"><ele>728.0</ele><time>2026-04-12T08:37:16Z</time></trkpt><trkpt lat="43.92966595578461" lon="12.091320552585005"><ele>732.0</ele><time>2026-04-12T08:37:17Z</time></trkpt><trkpt lat="43.929578101158086" lon="12.091292556681623"><ele>736.0</ele><time>2026-04-12T08:37:18Z</time></trkpt><trkpt lat="43.92948376796175" lon="12.091294163004"><ele>740.0</ele><time>2026-04-12T08:37:19Z</time></trkpt><trkpt lat="43.929395516445666" lon="12.091337155126606"><ele>740.0</ele><time>2026-04-12T08:37:20Z</time></trkpt><trkpt lat="43.92932499067874" lon="12.09136912507347"><ele>740.0</ele><time>2026-04-12T08:37:21Z</time></trkpt><trkpt lat="43.92926515634843" lon="12.091399329376856"><ele>740.0</ele><time>2026-04-12T08:37:22Z</time></trkpt><trkpt lat="43.929200967446775" lon="12.091417863797176"><ele>740.0</ele><time>2026-04-12T08:37:23Z</time></trkpt><trkpt lat="43.929127568026885" lon="12.091360663725986"><ele>740.0</ele><time>2026-04-12T08:37:27Z</time></trkpt><trkpt lat="43.927441146783494" lon="12.087558758783818"><ele>735.6</ele><time>2026-04-12T08:38:28.001Z</time></trkpt><trkpt lat="43.927407916537234" lon="12.087366755844663"><ele>731.2</ele><time>2026-04-12T08:38:30.001Z</time></trkpt><trkpt lat="43.92738272311693" lon="12.087257483276373"><ele>726.8</ele><time>2026-04-12T08:38:31.001Z</time></trkpt><trkpt lat="43.92735505122823" lon="12.087152756950232"><ele>722.4</ele><time>2026-04-12T08:38:32.001Z</time></trkpt><trkpt lat="43.927349567601475" lon="12.08703340725106"><ele>718.0</ele><time>2026-04-12T08:38:33.001Z</time></trkpt><trkpt lat="43.92731693719933" lon="12.086924816093383"><ele>718.0</ele><time>2026-04-12T08:38:34.001Z</time></trkpt><trkpt lat="43.927301762466435" lon="12.086813763548179"><ele>718.0</ele><time>2026-04-12T08:38:35.001Z</time></trkpt><trkpt lat="43.92727974609809" lon="12.086713951207637"><ele>718.0</ele><time>2026-04-12T08:38:36.001Z</time></trkpt><trkpt lat="43.92723072932939" lon="12.086569886371539"><ele>718.0</ele><time>2026-04-12T08:38:38Z</time></trkpt><trkpt lat="43.92720636992737" lon="12.08648868489847"><ele>718.0</ele><time>2026-04-12T08:38:39Z</time></trkpt><trkpt lat="43.92713224566361" lon="12.08637412032192"><ele>718.0</ele><time>2026-04-12T08:38:41Z</time></trkpt><trkpt lat="43.927074087216525" lon="12.086309272029624"><ele>718.5714285714286</ele><time>2026-04-12T08:38:42Z</time></trkpt><trkpt lat="43.92699347924115" lon="12.086281465843395"><ele>719.1428571428571</ele><time>2026-04-12T08:38:43Z</time></trkpt><trkpt lat="43.92690748058698" lon="12.086294324029689"><ele>719.7142857142858</ele><time>2026-04-12T08:38:44Z</time></trkpt><trkpt lat="43.92683321503527" lon="12.08630212178528"><ele>720.2857142857142</ele><time>2026-04-12T08:38:45Z</time></trkpt><trkpt lat="43.92676858921717" lon="12.086281657588012"><ele>720.8571428571428</ele><time>2026-04-12T08:38:46Z</time></trkpt><trkpt lat="43.926705861078105" lon="12.086240901751955"><ele>721.4285714285714</ele><time>2026-04-12T08:38:47Z</time></trkpt><trkpt lat="43.926658199544086" lon="12.086172401888174"><ele>722.0</ele><time>2026-04-12T08:38:48Z</time></trkpt><trkpt lat="43.926623737663355" lon="12.086086256527688"><ele>722.0</ele><time>2026-04-12T08:38:49Z</time></trkpt><trkpt lat="43.92661211820235" lon="12.085979674982134"><ele>722.0</ele><time>2026-04-12T08:38:50Z</time></trkpt><trkpt lat="43.92658551768295" lon="12.085861744186536"><ele>722.0</ele><time>2026-04-12T08:38:51Z</time></trkpt><trkpt lat="43.926555453434304" lon="12.085750341834574"><ele>722.0</ele><time>2026-04-12T08:38:52Z</time></trkpt><trkpt lat="43.92650651530513" lon="12.085628986382591"><ele>722.0</ele><time>2026-04-12T08:38:53Z</time></trkpt><trkpt lat="43.92644424979352" lon="12.085540636630594"><ele>722.0</ele><time>2026-04-12T08:38:54Z</time></trkpt><trkpt lat="43.92638178765282" lon="12.085456278471916"><ele>720.5</ele><time>2026-04-12T08:38:55Z</time></trkpt><trkpt lat="43.92633419006142" lon="12.085375053269127"><ele>719.0</ele><time>2026-04-12T08:38:56Z</time></trkpt><trkpt lat="43.9262874831173" lon="12.08528496970165"><ele>717.5</ele><time>2026-04-12T08:38:57Z</time></trkpt><trkpt lat="43.926240404315244" lon="12.085182233664987"><ele>716.0</ele><time>2026-04-12T08:38:58Z</time></trkpt><trkpt lat="43.92618982726165" lon="12.08508022237082"><ele>714.5</ele><time>2026-04-12T08:38:59Z</time></trkpt><trkpt lat="43.92614080443717" lon="12.08498222681329"><ele>713.0</ele><time>2026-04-12T08:39:00Z</time></trkpt><trkpt lat="43.926088879677806" lon="12.084874818049395"><ele>712.1666666666666</ele><time>2026-04-12T08:39:01Z</time></trkpt><trkpt lat="43.92604503459548" lon="12.084780194482587"><ele>711.3333333333333</ele><time>2026-04-12T08:39:02Z</time></trkpt><trkpt lat="43.92601198977937" lon="12.08468903250638"><ele>710.5</ele><time>2026-04-12T08:39:03Z</time></trkpt><trkpt lat="43.92599337646468" lon="12.084580616945287"><ele>709.6666666666666</ele><time>2026-04-12T08:39:04Z</time></trkpt><trkpt lat="43.92600368013144" lon="12.08447494376768"><ele>708.8333333333334</ele><time>2026-04-12T08:39:05Z</time></trkpt><trkpt lat="43.926024075395176" lon="12.084307796925643"><ele>708.0</ele><time>2026-04-12T08:39:06Z</time></trkpt><trkpt lat="43.92604271611402" lon="12.084173089323462"><ele>708.2</ele><time>2026-04-12T08:39:07Z</time></trkpt><trkpt lat="43.9260372750973" lon="12.084010442074087"><ele>708.4</ele><time>2026-04-12T08:39:08Z</time></trkpt><trkpt lat="43.926031470297175" lon="12.083878924170053"><ele>708.6</ele><time>2026-04-12T08:39:09Z</time></trkpt><trkpt lat="43.92600502266857" lon="12.083748854257376"><ele>708.8000000000001</ele><time>2026-04-12T08:39:10Z</time></trkpt><trkpt lat="43.92598880197374" lon="12.083646147374164"><ele>709.0</ele><time>2026-04-12T08:39:11Z</time></trkpt><trkpt lat="43.9259905015806" lon="12.08354169910262"><ele>709.0000000000001</ele><time>2026-04-12T08:39:12Z</time></trkpt><trkpt lat="43.925975195465156" lon="12.083452387653379"><ele>709.0</ele><time>2026-04-12T08:39:13Z</time></trkpt><trkpt lat="43.925981505852135" lon="12.083360187843724"><ele>709.0</ele><time>2026-04-12T08:39:14Z</time></trkpt><trkpt lat="43.92600040037486" lon="12.083273372000404"><ele>709.0</ele><time>2026-04-12T08:39:15Z</time></trkpt><trkpt lat="43.92601553822693" lon="12.083184896294958"><ele>709.0</ele><time>2026-04-12T08:39:16Z</time></trkpt><trkpt lat="43.92604423414872" lon="12.083085691071814"><ele>709.0000000000001</ele><time>2026-04-12T08:39:17Z</time></trkpt><trkpt lat="43.926011216086984" lon="12.082994294466612"><ele>709.0</ele><time>2026-04-12T08:39:18Z</time></trkpt><trkpt lat="43.92594442213188" lon="12.082916757926474"><ele>715.75</ele><time>2026-04-12T08:39:20Z</time></trkpt><trkpt lat="43.92577980666473" lon="12.082859390168366"><ele>722.5</ele><time>2026-04-12T08:39:22Z</time></trkpt><trkpt lat="43.92569495798277" lon="12.082807753900209"><ele>729.25</ele><time>2026-04-12T08:39:23Z</time></trkpt><trkpt lat="43.92560216165316" lon="12.082769867836214"><ele>736.0</ele><time>2026-04-12T08:39:24Z</time></trkpt><trkpt lat="43.92551651206375" lon="12.08269553321675"><ele>736.0</ele><time>2026-04-12T08:39:25.001Z</time></trkpt><trkpt lat="43.92543364092837" lon="12.082647938953402"><ele>736.0</ele><time>2026-04-12T08:39:26.001Z</time></trkpt><trkpt lat="43.925361836365205" lon="12.082632538012868"><ele>736.0</ele><time>2026-04-12T08:39:27.001Z</time></trkpt><trkpt lat="43.92289872009122" lon="12.07877384948175"><ele>741.0</ele><time>2026-04-12T08:40:28.002Z</time></trkpt><trkpt lat="43.92280526779717" lon="12.078770400037442"><ele>746.0</ele><time>2026-04-12T08:40:29.002Z</time></trkpt><trkpt lat="43.92271129961103" lon="12.078781466878748"><ele>751.0</ele><time>2026-04-12T08:40:30.002Z</time></trkpt><trkpt lat="43.92262546934523" lon="12.078758337398053"><ele>756.0</ele><time>2026-04-12T08:40:31.002Z</time></trkpt><trkpt lat="43.922563676430215" lon="12.07873846429668"><ele>761.0</ele><time>2026-04-12T08:40:32.002Z</time></trkpt><trkpt lat="43.922475992569574" lon="12.078716378241953"><ele>766.0</ele><time>2026-04-12T08:40:34.002Z</time></trkpt><trkpt lat="43.92236693477344" lon="12.078711057785346"><ele>766.0</ele><time>2026-04-12T08:40:36.002Z</time></trkpt><trkpt lat="43.922259441435465" lon="12.078672769086644"><ele>766.0</ele><time>2026-04-12T08:40:38.002Z</time></trkpt><trkpt lat="43.92218163039482" lon="12.078666571946842"><ele>766.0</ele><time>2026-04-12T08:40:39.002Z</time></trkpt><trkpt lat="43.92210603440427" lon="12.078650455298403"><ele>766.0</ele><time>2026-04-12T08:40:40.002Z</time></trkpt><trkpt lat="43.922028606114175" lon="12.078638311086822"><ele>766.0</ele><time>2026-04-12T08:40:41.002Z</time></trkpt><trkpt lat="43.92194468281142" lon="12.078636498064492"><ele>766.0</ele><time>2026-04-12T08:40:42.002Z</time></trkpt><trkpt lat="43.92186388992289" lon="12.07865169919571"><ele>766.0</ele><time>2026-04-12T08:40:43.002Z</time></trkpt><trkpt lat="43.92179429040489" lon="12.078666649516137"><ele>766.0</ele><time>2026-04-12T08:40:44.001Z</time></trkpt><trkpt lat="43.92169537230963" lon="12.078673416983117"><ele>766.0</ele><time>2026-04-12T08:40:45.001Z</time></trkpt><trkpt lat="43.92160709628541" lon="12.078676213919335"><ele>766.0</ele><time>2026-04-12T08:40:46.001Z</time></trkpt><trkpt lat="43.921532489950806" lon="12.07871040882607"><ele>766.0</ele><time>2026-04-12T08:40:47.001Z</time></trkpt><trkpt lat="43.92145840045686" lon="12.07872812816688"><ele>766.0</ele><time>2026-04-12T08:40:48.001Z</time></trkpt><trkpt lat="43.921383130026484" lon="12.078733308172724"><ele>763.4285714285714</ele><time>2026-04-12T08:40:49.001Z</time></trkpt><trkpt lat="43.92130788338785" lon="12.078753489998112"><ele>760.8571428571429</ele><time>2026-04-12T08:40:50.001Z</time></trkpt><trkpt lat="43.921229922025" lon="12.078752917205444"><ele>758.2857142857142</ele><time>2026-04-12T08:40:51.001Z</time></trkpt><trkpt lat="43.92116139723818" lon="12.078759741939269"><ele>755.7142857142858</ele><time>2026-04-12T08:40:52.001Z</time></trkpt><trkpt lat="43.92109203916767" lon="12.078771207978077"><ele>753.1428571428572</ele><time>2026-04-12T08:40:53.001Z</time></trkpt><trkpt lat="43.92102465291109" lon="12.078791932879168"><ele>750.5714285714286</ele><time>2026-04-12T08:40:54Z</time></trkpt><trkpt lat="43.920958016293724" lon="12.078827855698018"><ele>748.0</ele><time>2026-04-12T08:40:55Z</time></trkpt><trkpt lat="43.92089568682947" lon="12.078884697949839"><ele>744.0</ele><time>2026-04-12T08:40:56Z</time></trkpt><trkpt lat="43.92084067496938" lon="12.078965688506843"><ele>740.0</ele><time>2026-04-12T08:40:57Z</time></trkpt><trkpt lat="43.92080616237042" lon="12.079052018126447"><ele>736.0</ele><time>2026-04-12T08:40:58Z</time></trkpt><trkpt lat="43.92076859038989" lon="12.07918983693037"><ele>732.0</ele><time>2026-04-12T08:41:00Z</time></trkpt><trkpt lat="43.920696601983295" lon="12.079239065641218"><ele>728.0</ele><time>2026-04-12T08:41:02Z</time></trkpt><trkpt lat="43.92061612792701" lon="12.079218530762644"><ele>724.0</ele><time>2026-04-12T08:41:04Z</time></trkpt><trkpt lat="43.920633571259344" lon="12.079073119455122"><ele>724.0</ele><time>2026-04-12T08:41:06.001Z</time></trkpt><trkpt lat="43.920660066076515" lon="12.078989023357604"><ele>724.0</ele><time>2026-04-12T08:41:07.001Z</time></trkpt><trkpt lat="43.92068927921299" lon="12.078878025750265"><ele>724.0</ele><time>2026-04-12T08:41:08.001Z</time></trkpt><trkpt lat="43.920705289849366" lon="12.078759408806285"><ele>724.0</ele><time>2026-04-12T08:41:09.001Z</time></trkpt><trkpt lat="43.920699260840586" lon="12.078655949394037"><ele>724.0</ele><time>2026-04-12T08:41:10.001Z</time></trkpt><trkpt lat="43.920709027781996" lon="12.078565387680714"><ele>724.0</ele><time>2026-04-12T08:41:11.001Z</time></trkpt><trkpt lat="43.920721893044536" lon="12.078464640071797"><ele>724.0</ele><time>2026-04-12T08:41:12.001Z</time></trkpt><trkpt lat="43.92073118818765" lon="12.078373783103542"><ele>724.0</ele><time>2026-04-12T08:41:13.001Z</time></trkpt><trkpt lat="43.92074264160832" lon="12.078277633197432"><ele>724.0</ele><time>2026-04-12T08:41:14.001Z</time></trkpt><trkpt lat="43.92075585088105" lon="12.078174336241018"><ele>724.0</ele><time>2026-04-12T08:41:15.001Z</time></trkpt><trkpt lat="43.92076718261467" lon="12.07806185987926"><ele>724.0</ele><time>2026-04-12T08:41:16.001Z</time></trkpt><trkpt lat="43.92078199813769" lon="12.077951473335471"><ele>724.0</ele><time>2026-04-12T08:41:17.001Z</time></trkpt><trkpt lat="43.92079638982116" lon="12.077837903229636"><ele>723.8000000000001</ele><time>2026-04-12T08:41:18.001Z</time></trkpt><trkpt lat="43.92079706277498" lon="12.077703934087065"><ele>723.6</ele><time>2026-04-12T08:41:19.001Z</time></trkpt><trkpt lat="43.920774153944414" lon="12.077572652524406"><ele>723.4</ele><time>2026-04-12T08:41:20.001Z</time></trkpt><trkpt lat="43.92074096460925" lon="12.077436281509224"><ele>723.2</ele><time>2026-04-12T08:41:21.001Z</time></trkpt><trkpt lat="43.92072358058447" lon="12.077322050036488"><ele>723.0</ele><time>2026-04-12T08:41:22.001Z</time></trkpt><trkpt lat="43.92071638005237" lon="12.077196577694304"><ele>722.8</ele><time>2026-04-12T08:41:23.001Z</time></trkpt><trkpt lat="43.92068983941577" lon="12.077083024833328"><ele>722.5999999999999</ele><time>2026-04-12T08:41:24.001Z</time></trkpt><trkpt lat="43.92067924126202" lon="12.07697696622447"><ele>722.4000000000001</ele><time>2026-04-12T08:41:25.001Z</time></trkpt><trkpt lat="43.92066710772371" lon="12.076877284606313"><ele>722.2</ele><time>2026-04-12T08:41:26.001Z</time></trkpt><trkpt lat="43.92065141544586" lon="12.076786171446066"><ele>722.0</ele><time>2026-04-12T08:41:27.001Z</time></trkpt><trkpt lat="43.918329727022076" lon="12.080474649482579"><ele>715.8</ele><time>2026-04-12T08:42:28.002Z</time></trkpt><trkpt lat="43.91840017661747" lon="12.080410403044583"><ele>709.6</ele><time>2026-04-12T08:42:30.002Z</time></trkpt><trkpt lat="43.91846774166494" lon="12.080335193201256"><ele>703.4</ele><time>2026-04-12T08:42:31.002Z</time></trkpt><trkpt lat="43.9185058545205" lon="12.080262643411658"><ele>697.1999999999999</ele><time>2026-04-12T08:42:32.002Z</time></trkpt><trkpt lat="43.91856680546056" lon="12.080127635477423"><ele>691.0</ele><time>2026-04-12T08:42:34.002Z</time></trkpt><trkpt lat="43.91858643080014" lon="12.079924162675912"><ele>690.8333333333334</ele><time>2026-04-12T08:42:36.002Z</time></trkpt><trkpt lat="43.91856502447398" lon="12.079812191361874"><ele>690.6666666666667</ele><time>2026-04-12T08:42:37.002Z</time></trkpt><trkpt lat="43.91857551751442" lon="12.079700131150648"><ele>690.5</ele><time>2026-04-12T08:42:38.002Z</time></trkpt><trkpt lat="43.91856539742894" lon="12.079585551525598"><ele>690.3333333333334</ele><time>2026-04-12T08:42:39.002Z</time></trkpt><trkpt lat="43.91858038706165" lon="12.079482878813932"><ele>690.1666666666666</ele><time>2026-04-12T08:42:40.002Z</time></trkpt><trkpt lat="43.918586623307625" lon="12.079386255600895"><ele>690.0</ele><time>2026-04-12T08:42:41.002Z</time></trkpt><trkpt lat="43.918595139780464" lon="12.079209830789852"><ele>690.0</ele><time>2026-04-12T08:42:43.002Z</time></trkpt><trkpt lat="43.91861426568946" lon="12.079107056120156"><ele>690.0</ele><time>2026-04-12T08:42:44.002Z</time></trkpt><trkpt lat="43.918643897192325" lon="12.079007550160231"><ele>690.0</ele><time>2026-04-12T08:42:45.002Z</time></trkpt><trkpt lat="43.918680271785625" lon="12.078905563599205"><ele>690.0</ele><time>2026-04-12T08:42:46.002Z</time></trkpt><trkpt lat="43.918740224197386" lon="12.078821136366432"><ele>690.0</ele><time>2026-04-12T08:42:47.002Z</time></trkpt><trkpt lat="43.91878141361457" lon="12.07874496248977"><ele>690.0</ele><time>2026-04-12T08:42:48.002Z</time></trkpt><trkpt lat="43.91881796504325" lon="12.078664686568558"><ele>687.6</ele><time>2026-04-12T08:42:49.002Z</time></trkpt><trkpt lat="43.91883464122869" lon="12.07851317695868"><ele>685.2</ele><time>2026-04-12T08:42:51.001Z</time></trkpt><trkpt lat="43.91876019945951" lon="12.078370390819254"><ele>682.8</ele><time>2026-04-12T08:42:53.001Z</time></trkpt><trkpt lat="43.91870844891075" lon="12.078299130382478"><ele>680.4</ele><time>2026-04-12T08:42:54.001Z</time></trkpt><trkpt lat="43.918635682928546" lon="12.078280962443632"><ele>678.0</ele><time>2026-04-12T08:42:55.001Z</time></trkpt><trkpt lat="43.918507354606994" lon="12.078274176453744"><ele>674.4</ele><time>2026-04-12T08:42:57.001Z</time></trkpt><trkpt lat="43.918390215769136" lon="12.078286812755195"><ele>670.8</ele><time>2026-04-12T08:42:59.001Z</time></trkpt><trkpt lat="43.91829949101157" lon="12.078254214650972"><ele>667.2</ele><time>2026-04-12T08:43:01.001Z</time></trkpt><trkpt lat="43.91820744887708" lon="12.078222201002665"><ele>663.6</ele><time>2026-04-12T08:43:03.001Z</time></trkpt><trkpt lat="43.91812608461054" lon="12.078118109826576"><ele>660.0</ele><time>2026-04-12T08:43:05.001Z</time></trkpt><trkpt lat="43.918094518596256" lon="12.07803799259718"><ele>660.0</ele><time>2026-04-12T08:43:06.001Z</time></trkpt><trkpt lat="43.91807435166391" lon="12.077940464186929"><ele>660.0</ele><time>2026-04-12T08:43:07.001Z</time></trkpt><trkpt lat="43.918064900687945" lon="12.077850197651047"><ele>660.0</ele><time>2026-04-12T08:43:08.001Z</time></trkpt><trkpt lat="43.91804770441" lon="12.077696529731977"><ele>660.0</ele><time>2026-04-12T08:43:10.001Z</time></trkpt><trkpt lat="43.91803470691834" lon="12.077583606121491"><ele>660.0</ele><time>2026-04-12T08:43:12.001Z</time></trkpt><trkpt lat="43.91800320468198" lon="12.07742662521111"><ele>659.6666666666666</ele><time>2026-04-12T08:43:14.001Z</time></trkpt><trkpt lat="43.91796344759096" lon="12.077347734711072"><ele>659.3333333333334</ele><time>2026-04-12T08:43:15.001Z</time></trkpt><trkpt lat="43.91792774685024" lon="12.077190800206369"><ele>659.0</ele><time>2026-04-12T08:43:17.001Z</time></trkpt><trkpt lat="43.917889552049196" lon="12.077026562673707"><ele>658.6666666666667</ele><time>2026-04-12T08:43:19.001Z</time></trkpt><trkpt lat="43.91787451720929" lon="12.07693164854125"><ele>658.3333333333334</ele><time>2026-04-12T08:43:20.001Z</time></trkpt><trkpt lat="43.917858659929074" lon="12.076841268737875"><ele>658.0</ele><time>2026-04-12T08:43:21.001Z</time></trkpt><trkpt lat="43.91784374115254" lon="12.076670171875545"><ele>657.2</ele><time>2026-04-12T08:43:23.001Z</time></trkpt><trkpt lat="43.91785153395268" lon="12.076581995257298"><ele>656.4</ele><time>2026-04-12T08:43:24.001Z</time></trkpt><trkpt lat="43.91784791890015" lon="12.076477889338737"><ele>655.6</ele><time>2026-04-12T08:43:25.001Z</time></trkpt><trkpt lat="43.91784718734521" lon="12.076370830230402"><ele>654.8000000000001</ele><time>2026-04-12T08:43:26.001Z</time></trkpt><trkpt lat="43.91785164615793" lon="12.0762809705024"><ele>654.0</ele><time>2026-04-12T08:43:27.001Z</time></trkpt><trkpt lat="43.91699074695478" lon="12.075755791311709"><ele>650.1666666666666</ele><time>2026-04-12T08:44:28.001Z</time></trkpt><trkpt lat="43.91693496615732" lon="12.075805781742664"><ele>646.3333333333334</ele><time>2026-04-12T08:44:29.001Z</time></trkpt><trkpt lat="43.91686302401873" lon="12.075831036440896"><ele>642.5</ele><time>2026-04-12T08:44:30.002Z</time></trkpt><trkpt lat="43.91680158747195" lon="12.075888628903149"><ele>638.6666666666667</ele><time>2026-04-12T08:44:31.002Z</time></trkpt><trkpt lat="43.916735930336735" lon="12.075918331577293"><ele>634.8333333333334</ele><time>2026-04-12T08:44:32.002Z</time></trkpt><trkpt lat="43.91661471379723" lon="12.075945807192712"><ele>631.0</ele><time>2026-04-12T08:44:34.002Z</time></trkpt><trkpt lat="43.91650960929546" lon="12.07599977139584"><ele>627.4</ele><time>2026-04-12T08:44:36.002Z</time></trkpt><trkpt lat="43.916412088488734" lon="12.0760075793399"><ele>623.8</ele><time>2026-04-12T08:44:38.002Z</time></trkpt><trkpt lat="43.91630107644173" lon="12.076058137210753"><ele>620.1999999999999</ele><time>2026-04-12T08:44:40.002Z</time></trkpt><trkpt lat="43.916203664101694" lon="12.07612944795867"><ele>616.6</ele><time>2026-04-12T08:44:42.002Z</time></trkpt><trkpt lat="43.916129495568505" lon="12.076237507893328"><ele>613.0</ele><time>2026-04-12T08:44:44.002Z</time></trkpt><trkpt lat="43.91610266584227" lon="12.076321038939495"><ele>613.0</ele><time>2026-04-12T08:44:45.002Z</time></trkpt><trkpt lat="43.916079689734886" lon="12.076426327670731"><ele>613.0</ele><time>2026-04-12T08:44:46.002Z</time></trkpt><trkpt lat="43.916080830871664" lon="12.076521880357117"><ele>613.0</ele><time>2026-04-12T08:44:47.002Z</time></trkpt><trkpt lat="43.91609145609221" lon="12.07661184526448"><ele>613.0</ele><time>2026-04-12T08:44:48.002Z</time></trkpt><trkpt lat="43.916118451538495" lon="12.076714617527903"><ele>613.0</ele><time>2026-04-12T08:44:49.002Z</time></trkpt><trkpt lat="43.916154468419016" lon="12.076820057441713"><ele>613.0</ele><time>2026-04-12T08:44:50.002Z</time></trkpt><trkpt lat="43.916184866434804" lon="12.076910158647026"><ele>613.0</ele><time>2026-04-12T08:44:51.002Z</time></trkpt><trkpt lat="43.916190595010235" lon="12.077005520784054"><ele>613.0</ele><time>2026-04-12T08:44:52.002Z</time></trkpt><trkpt lat="43.916208985757216" lon="12.077097736160615"><ele>613.0</ele><time>2026-04-12T08:44:53.002Z</time></trkpt><trkpt lat="43.91623278444756" lon="12.077183674388877"><ele>613.0</ele><time>2026-04-12T08:44:54.002Z</time></trkpt><trkpt lat="43.91625411058229" lon="12.0772941440278"><ele>613.0</ele><time>2026-04-12T08:44:55.002Z</time></trkpt><trkpt lat="43.91627584348126" lon="12.077403859238238"><ele>613.0</ele><time>2026-04-12T08:44:56.001Z</time></trkpt><trkpt lat="43.91628549446346" lon="12.077506008717803"><ele>613.0</ele><time>2026-04-12T08:44:57.001Z</time></trkpt><trkpt lat="43.91629622818916" lon="12.077600197085642"><ele>613.0</ele><time>2026-04-12T08:44:58.001Z</time></trkpt><trkpt lat="43.91630380258623" lon="12.077697425689784"><ele>612.8</ele><time>2026-04-12T08:44:59.001Z</time></trkpt><trkpt lat="43.91630725709556" lon="12.077800211381108"><ele>612.5999999999999</ele><time>2026-04-12T08:45:00.001Z</time></trkpt><trkpt lat="43.91630728803814" lon="12.07789566337233"><ele>612.4000000000001</ele><time>2026-04-12T08:45:01.001Z</time></trkpt><trkpt lat="43.916308585689706" lon="12.078052494456617"><ele>612.2</ele><time>2026-04-12T08:45:03.001Z</time></trkpt><trkpt lat="43.916319348416636" lon="12.078225924478184"><ele>612.0</ele><time>2026-04-12T08:45:05.001Z</time></trkpt><trkpt lat="43.91631180257866" lon="12.078321406633819"><ele>611.8333333333334</ele><time>2026-04-12T08:45:06.001Z</time></trkpt><trkpt lat="43.91629562732031" lon="12.078493231958905"><ele>611.6666666666666</ele><time>2026-04-12T08:45:08.001Z</time></trkpt><trkpt lat="43.91629036794276" lon="12.078592413474125"><ele>611.5</ele><time>2026-04-12T08:45:09Z</time></trkpt><trkpt lat="43.916284896394124" lon="12.078690732835817"><ele>611.3333333333333</ele><time>2026-04-12T08:45:10Z</time></trkpt><trkpt lat="43.91629037918885" lon="12.078788226995714"><ele>611.1666666666666</ele><time>2026-04-12T08:45:11Z</time></trkpt><trkpt lat="43.91628517977438" lon="12.078876668147114"><ele>611.0</ele><time>2026-04-12T08:45:12Z</time></trkpt><trkpt lat="43.91627330756185" lon="12.078963109882999"><ele>610.0</ele><time>2026-04-12T08:45:13Z</time></trkpt><trkpt lat="43.916285622647464" lon="12.079146405500087"><ele>609.0</ele><time>2026-04-12T08:45:15Z</time></trkpt><trkpt lat="43.91636059162969" lon="12.079220044256825"><ele>608.0</ele><time>2026-04-12T08:45:16Z</time></trkpt><trkpt lat="43.91640068579618" lon="12.079308214513667"><ele>607.0</ele><time>2026-04-12T08:45:17Z</time></trkpt><trkpt lat="43.916439176709424" lon="12.079381850398855"><ele>606.0</ele><time>2026-04-12T08:45:18Z</time></trkpt><trkpt lat="43.91647286667533" lon="12.079542076107376"><ele>606.0</ele><time>2026-04-12T08:45:20Z</time></trkpt><trkpt lat="43.91644572366067" lon="12.07963083066541"><ele>606.0</ele><time>2026-04-12T08:45:21Z</time></trkpt><trkpt lat="43.91638138394851" lon="12.079707040532284"><ele>606.0</ele><time>2026-04-12T08:45:22Z</time></trkpt><trkpt lat="43.91632876698682" lon="12.079800250138197"><ele>606.0</ele><time>2026-04-12T08:45:23Z</time></trkpt><trkpt lat="43.91626522786985" lon="12.07990092618139"><ele>606.0</ele><time>2026-04-12T08:45:24Z</time></trkpt><trkpt lat="43.916206903546026" lon="12.079983963019727"><ele>606.0</ele><time>2026-04-12T08:45:25Z</time></trkpt><trkpt lat="43.91616290032262" lon="12.080072840933896"><ele>604.5</ele><time>2026-04-12T08:45:26.001Z</time></trkpt><trkpt lat="43.91611107641352" lon="12.080156854094605"><ele>603.0</ele><time>2026-04-12T08:45:27.001Z</time></trkpt><trkpt lat="43.91636620321517" lon="12.083534994315562"><ele>594.3333333333334</ele><time>2026-04-12T08:46:28.001Z</time></trkpt><trkpt lat="43.91641258974028" lon="12.08362103316042"><ele>585.6666666666666</ele><time>2026-04-12T08:46:29.001Z</time></trkpt><trkpt lat="43.916463374520355" lon="12.083693548166515"><ele>577.0</ele><time>2026-04-12T08:46:30.001Z</time></trkpt><trkpt lat="43.91651470099171" lon="12.083752958107743"><ele>568.3333333333333</ele><time>2026-04-12T08:46:31.001Z</time></trkpt><trkpt lat="43.91656464517714" lon="12.083834988527094"><ele>559.6666666666666</ele><time>2026-04-12T08:46:32.001Z</time></trkpt><trkpt lat="43.916627714488165" lon="12.08399903997669"><ele>551.0</ele><time>2026-04-12T08:46:34.001Z</time></trkpt><trkpt lat="43.916645527934584" lon="12.084102355213423"><ele>549.0</ele><time>2026-04-12T08:46:35.001Z</time></trkpt><trkpt lat="43.916663467577635" lon="12.084221614520368"><ele>547.0</ele><time>2026-04-12T08:46:36.001Z</time></trkpt><trkpt lat="43.91667411441276" lon="12.084325468473997"><ele>545.0</ele><time>2026-04-12T08:46:37.001Z</time></trkpt><trkpt lat="43.916681357773626" lon="12.08443052404647"><ele>543.0</ele><time>2026-04-12T08:46:38.001Z</time></trkpt><trkpt lat="43.916688565346995" lon="12.084522751776246"><ele>541.0</ele><time>2026-04-12T08:46:39.001Z</time></trkpt><trkpt lat="43.916702490396716" lon="12.08462156605179"><ele>539.0</ele><time>2026-04-12T08:46:40.001Z</time></trkpt><trkpt lat="43.91672179493505" lon="12.084723142334646"><ele>539.6666666666666</ele><time>2026-04-12T08:46:41.001Z</time></trkpt><trkpt lat="43.91675118369846" lon="12.084817681360613"><ele>540.3333333333333</ele><time>2026-04-12T08:46:42.001Z</time></trkpt><trkpt lat="43.91678683924886" lon="12.08489714556352"><ele>541.0</ele><time>2026-04-12T08:46:43.001Z</time></trkpt><trkpt lat="43.916835037031646" lon="12.084967621776375"><ele>541.6666666666666</ele><time>2026-04-12T08:46:44.001Z</time></trkpt><trkpt lat="43.9169199925497" lon="12.085045855528932"><ele>542.3333333333334</ele><time>2026-04-12T08:46:46.001Z</time></trkpt><trkpt lat="43.91693889733014" lon="12.085142476149903"><ele>543.0</ele><time>2026-04-12T08:46:48.001Z</time></trkpt><trkpt lat="43.91685304909409" lon="12.085209005364277"><ele>543.0</ele><time>2026-04-12T08:46:51.001Z</time></trkpt><trkpt lat="43.91675515116817" lon="12.085120274919225"><ele>543.0</ele><time>2026-04-12T08:46:53.001Z</time></trkpt><trkpt lat="43.91670882899171" lon="12.085041232275922"><ele>543.0</ele><time>2026-04-12T08:46:54.001Z</time></trkpt><trkpt lat="43.91665361829559" lon="12.084940011123026"><ele>543.0</ele><time>2026-04-12T08:46:55.001Z</time></trkpt><trkpt lat="43.91660193228968" lon="12.084844686420402"><ele>543.0</ele><time>2026-04-12T08:46:56.001Z</time></trkpt><trkpt lat="43.916549749809626" lon="12.084767503266525"><ele>543.0</ele><time>2026-04-12T08:46:57.001Z</time></trkpt><trkpt lat="43.91649025711727" lon="12.08468975745581"><ele>542.3333333333334</ele><time>2026-04-12T08:46:58.001Z</time></trkpt><trkpt lat="43.916428382494864" lon="12.08460537340713"><ele>541.6666666666666</ele><time>2026-04-12T08:46:59.001Z</time></trkpt><trkpt lat="43.91636791500888" lon="12.084528262609759"><ele>541.0</ele><time>2026-04-12T08:47:00.001Z</time></trkpt><trkpt lat="43.91630151634056" lon="12.084464555258263"><ele>540.3333333333333</ele><time>2026-04-12T08:47:01Z</time></trkpt><trkpt lat="43.91623878495324" lon="12.08439281145786"><ele>539.6666666666666</ele><time>2026-04-12T08:47:02Z</time></trkpt><trkpt lat="43.91618071447808" lon="12.084334666030049"><ele>539.0</ele><time>2026-04-12T08:47:03Z</time></trkpt><trkpt lat="43.916121577841686" lon="12.08425989632526"><ele>539.0</ele><time>2026-04-12T08:47:04Z</time></trkpt><trkpt lat="43.91606507801839" lon="12.084200720645052"><ele>539.0</ele><time>2026-04-12T08:47:05Z</time></trkpt><trkpt lat="43.91601164308368" lon="12.084140829382427"><ele>539.0</ele><time>2026-04-12T08:47:06Z</time></trkpt><trkpt lat="43.91596096808676" lon="12.084084354207596"><ele>539.0</ele><time>2026-04-12T08:47:07Z</time></trkpt><trkpt lat="43.91588442258414" lon="12.084009269916598"><ele>539.0</ele><time>2026-04-12T08:47:09Z</time></trkpt><trkpt lat="43.915803563410584" lon="12.084053601408767"><ele>539.0</ele><time>2026-04-12T08:47:11Z</time></trkpt><trkpt lat="43.915755096075394" lon="12.084209214563655"><ele>539.0</ele><time>2026-04-12T08:47:13Z</time></trkpt><trkpt lat="43.91576686711467" lon="12.084296320714238"><ele>539.0</ele><time>2026-04-12T08:47:14Z</time></trkpt><trkpt lat="43.91578947146982" lon="12.084412087791693"><ele>539.0</ele><time>2026-04-12T08:47:17Z</time></trkpt><trkpt lat="43.9158141621743" lon="12.08454626634261"><ele>539.0</ele><time>2026-04-12T08:47:19Z</time></trkpt><trkpt lat="43.915855862132624" lon="12.084707027590598"><ele>539.0</ele><time>2026-04-12T08:47:21Z</time></trkpt><trkpt lat="43.91591590952692" lon="12.084834446118757"><ele>535.75</ele><time>2026-04-12T08:47:23Z</time></trkpt><trkpt lat="43.91600869480711" lon="12.084951700364984"><ele>532.5</ele><time>2026-04-12T08:47:25Z</time></trkpt><trkpt lat="43.916063836433395" lon="12.085008837889102"><ele>529.25</ele><time>2026-04-12T08:47:26Z</time></trkpt><trkpt lat="43.91613465665718" lon="12.085073166192831"><ele>526.0</ele><time>2026-04-12T08:47:27Z</time></trkpt><trkpt lat="43.913661469554704" lon="12.08437851364258"><ele>520.0</ele><time>2026-04-12T08:48:28.001Z</time></trkpt><trkpt lat="43.91358786279443" lon="12.08442483960911"><ele>514.0</ele><time>2026-04-12T08:48:29.001Z</time></trkpt><trkpt lat="43.91352026199236" lon="12.084460174824505"><ele>508.0</ele><time>2026-04-12T08:48:30.001Z</time></trkpt><trkpt lat="43.91345587237216" lon="12.084488036815726"><ele>502.0</ele><time>2026-04-12T08:48:31.001Z</time></trkpt><trkpt lat="43.91339219254444" lon="12.084496079920948"><ele>496.00000000000006</ele><time>2026-04-12T08:48:32.001Z</time></trkpt><trkpt lat="43.91328585866011" lon="12.084419525957086"><ele>490.0</ele><time>2026-04-12T08:48:34.001Z</time></trkpt><trkpt lat="43.9132462002491" lon="12.084283330192381"><ele>488.33333333333337</ele><time>2026-04-12T08:48:36.001Z</time></trkpt><trkpt lat="43.913276928025674" lon="12.084182031052048"><ele>486.6666666666667</ele><time>2026-04-12T08:48:37.001Z</time></trkpt><trkpt lat="43.9132956634097" lon="12.084063391098711"><ele>485.0</ele><time>2026-04-12T08:48:38.001Z</time></trkpt><trkpt lat="43.91331472265539" lon="12.083940154645111"><ele>483.33333333333337</ele><time>2026-04-12T08:48:39.001Z</time></trkpt><trkpt lat="43.91332990232937" lon="12.083844997540407"><ele>481.6666666666667</ele><time>2026-04-12T08:48:40.001Z</time></trkpt><trkpt lat="43.913339251251784" lon="12.083746763839624"><ele>480.0</ele><time>2026-04-12T08:48:41.001Z</time></trkpt><trkpt lat="43.913329051309724" lon="12.083648201128556"><ele>480.0</ele><time>2026-04-12T08:48:42.001Z</time></trkpt><trkpt lat="43.9132795689689" lon="12.083561422413267"><ele>480.0</ele><time>2026-04-12T08:48:43.001Z</time></trkpt><trkpt lat="43.91324152712678" lon="12.08347215734172"><ele>480.0</ele><time>2026-04-12T08:48:44.001Z</time></trkpt><trkpt lat="43.913195885605894" lon="12.083387589445632"><ele>480.0</ele><time>2026-04-12T08:48:45.001Z</time></trkpt><trkpt lat="43.91315234105313" lon="12.083309851217216"><ele>480.0</ele><time>2026-04-12T08:48:46.001Z</time></trkpt><trkpt lat="43.91311717326238" lon="12.083227473394922"><ele>480.0</ele><time>2026-04-12T08:48:47.001Z</time></trkpt><trkpt lat="43.91308969551552" lon="12.08311096609856"><ele>479.7142857142857</ele><time>2026-04-12T08:48:48.001Z</time></trkpt><trkpt lat="43.913065118084376" lon="12.083019924842635"><ele>479.42857142857144</ele><time>2026-04-12T08:48:49.001Z</time></trkpt><trkpt lat="43.913032952135964" lon="12.082933484004203"><ele>479.14285714285717</ele><time>2026-04-12T08:48:50.001Z</time></trkpt><trkpt lat="43.91303965786814" lon="12.082832008668332"><ele>478.8571428571429</ele><time>2026-04-12T08:48:51.001Z</time></trkpt><trkpt lat="43.91302725860608" lon="12.082739019106423"><ele>478.57142857142856</ele><time>2026-04-12T08:48:52.001Z</time></trkpt><trkpt lat="43.91305726046818" lon="12.082661184994793"><ele>478.28571428571433</ele><time>2026-04-12T08:48:53.001Z</time></trkpt><trkpt lat="43.913065341288835" lon="12.082554177126726"><ele>478.00000000000006</ele><time>2026-04-12T08:48:54.001Z</time></trkpt><trkpt lat="43.91304367604884" lon="12.082426452391724"><ele>477.8571428571429</ele><time>2026-04-12T08:48:55.001Z</time></trkpt><trkpt lat="43.91302229741045" lon="12.082308408414498"><ele>477.7142857142857</ele><time>2026-04-12T08:48:56.001Z</time></trkpt><trkpt lat="43.91299918366659" lon="12.082207180839323"><ele>477.57142857142856</ele><time>2026-04-12T08:48:57.001Z</time></trkpt><trkpt lat="43.91298545747896" lon="12.082107918487912"><ele>477.42857142857144</ele><time>2026-04-12T08:48:58.001Z</time></trkpt><trkpt lat="43.91296433712809" lon="12.082014837605813"><ele>477.2857142857142</ele><time>2026-04-12T08:48:59.001Z</time></trkpt><trkpt lat="43.91294464669997" lon="12.081927409444313"><ele>477.1428571428571</ele><time>2026-04-12T08:49:00.001Z</time></trkpt><trkpt lat="43.912930620079855" lon="12.081833732884823"><ele>477.0</ele><time>2026-04-12T08:49:01.001Z</time></trkpt><trkpt lat="43.91292782033324" lon="12.081719941385032"><ele>477.0</ele><time>2026-04-12T08:49:02.001Z</time></trkpt><trkpt lat="43.91294693481968" lon="12.081604662992842"><ele>477.00000000000006</ele><time>2026-04-12T08:49:03.001Z</time></trkpt><trkpt lat="43.91297925302519" lon="12.08149469827378"><ele>477.00000000000006</ele><time>2026-04-12T08:49:04.001Z</time></trkpt><trkpt lat="43.913023724564816" lon="12.081390616426061"><ele>477.0</ele><time>2026-04-12T08:49:05.001Z</time></trkpt><trkpt lat="43.91308524057048" lon="12.081274922890044"><ele>477.0</ele><time>2026-04-12T08:49:07Z</time></trkpt><trkpt lat="43.9130971374054" lon="12.081141671132272"><ele>476.6</ele><time>2026-04-12T08:49:09Z</time></trkpt><trkpt lat="43.91301708238071" lon="12.081009565146967"><ele>476.20000000000005</ele><time>2026-04-12T08:49:11Z</time></trkpt><trkpt lat="43.91295135792377" lon="12.0809935559474"><ele>475.8</ele><time>2026-04-12T08:49:12Z</time></trkpt><trkpt lat="43.91287801232531" lon="12.081005800022625"><ele>475.4</ele><time>2026-04-12T08:49:13Z</time></trkpt><trkpt lat="43.91279888147061" lon="12.081104985440374"><ele>475.0</ele><time>2026-04-12T08:49:14Z</time></trkpt><trkpt lat="43.91274353805852" lon="12.081227028612531"><ele>475.0</ele><time>2026-04-12T08:49:15Z</time></trkpt><trkpt lat="43.912697667005084" lon="12.081317499333506"><ele>475.0</ele><time>2026-04-12T08:49:16Z</time></trkpt><trkpt lat="43.91264072220736" lon="12.08138389858337"><ele>475.0</ele><time>2026-04-12T08:49:17Z</time></trkpt><trkpt lat="43.91259431579513" lon="12.081475709259328"><ele>475.0</ele><time>2026-04-12T08:49:18Z</time></trkpt><trkpt lat="43.91254425986869" lon="12.081606256033027"><ele>475.0</ele><time>2026-04-12T08:49:19Z</time></trkpt><trkpt lat="43.91250973368265" lon="12.081773878760679"><ele>472.0</ele><time>2026-04-12T08:49:20Z</time></trkpt><trkpt lat="43.91249479348868" lon="12.081932345655142"><ele>469.0</ele><time>2026-04-12T08:49:21Z</time></trkpt><trkpt lat="43.91245853849473" lon="12.082133138527732"><ele>466.0</ele><time>2026-04-12T08:49:22Z</time></trkpt><trkpt lat="43.91242634562427" lon="12.082305644115038"><ele>463.0</ele><time>2026-04-12T08:49:23Z</time></trkpt><trkpt lat="43.912367600699966" lon="12.082471617330484"><ele>460.25</ele><time>2026-04-12T08:49:24Z</time></trkpt><trkpt lat="43.91233148952723" lon="12.082611123586119"><ele>457.5</ele><time>2026-04-12T08:49:25Z</time></trkpt><trkpt lat="43.91230643073152" lon="12.082783584346801"><ele>454.75</ele><time>2026-04-12T08:49:26Z</time></trkpt><trkpt lat="43.91226171464589" lon="12.08292794181839"><ele>452.0</ele><time>2026-04-12T08:49:27Z</time></trkpt><trkpt lat="43.912994808642836" lon="12.08868013532851"><ele>450.49999999999994</ele><time>2026-04-12T08:50:28.001Z</time></trkpt><trkpt lat="43.913031108942285" lon="12.088762631594463"><ele>449.0</ele><time>2026-04-12T08:50:29.001Z</time></trkpt><trkpt lat="43.91305183320414" lon="12.088878134638774"><ele>447.5</ele><time>2026-04-12T08:50:30.001Z</time></trkpt><trkpt lat="43.91306725650522" lon="12.088991869769945"><ele>446.0</ele><time>2026-04-12T08:50:31.001Z</time></trkpt><trkpt lat="43.9130788635606" lon="12.089116230639624"><ele>444.49999999999994</ele><time>2026-04-12T08:50:32.001Z</time></trkpt><trkpt lat="43.91307140914477" lon="12.089241342731494"><ele>443.0</ele><time>2026-04-12T08:50:33.001Z</time></trkpt><trkpt lat="43.91306715912432" lon="12.0893788030609"><ele>442.99999999999994</ele><time>2026-04-12T08:50:34.001Z</time></trkpt><trkpt lat="43.913039845001194" lon="12.089531598204402"><ele>443.0</ele><time>2026-04-12T08:50:35.001Z</time></trkpt><trkpt lat="43.913033520389774" lon="12.089684002165946"><ele>443.0</ele><time>2026-04-12T08:50:36.001Z</time></trkpt><trkpt lat="43.913017970301915" lon="12.089797671792677"><ele>443.0</ele><time>2026-04-12T08:50:37.001Z</time></trkpt><trkpt lat="43.91300609583015" lon="12.089887832834586"><ele>442.99999999999994</ele><time>2026-04-12T08:50:38.001Z</time></trkpt><trkpt lat="43.91299249250033" lon="12.08998231906729"><ele>443.0</ele><time>2026-04-12T08:50:39.001Z</time></trkpt><trkpt lat="43.91302397510615" lon="12.090089862401802"><ele>442.4</ele><time>2026-04-12T08:50:40.001Z</time></trkpt><trkpt lat="43.91303420433691" lon="12.090231650284387"><ele>441.79999999999995</ele><time>2026-04-12T08:50:41.001Z</time></trkpt><trkpt lat="43.91306087328028" lon="12.090347439351978"><ele>441.2</ele><time>2026-04-12T08:50:42.001Z</time></trkpt><trkpt lat="43.91306992774657" lon="12.09048609937845"><ele>440.6</ele><time>2026-04-12T08:50:43.001Z</time></trkpt><trkpt lat="43.913047248652866" lon="12.090615814385181"><ele>440.0</ele><time>2026-04-12T08:50:44.001Z</time></trkpt><trkpt lat="43.913025863913205" lon="12.090770734141191"><ele>438.4</ele><time>2026-04-12T08:50:45.001Z</time></trkpt><trkpt lat="43.91299882970435" lon="12.090902297906736"><ele>436.8</ele><time>2026-04-12T08:50:46.001Z</time></trkpt><trkpt lat="43.912967342770905" lon="12.091025020539606"><ele>435.20000000000005</ele><time>2026-04-12T08:50:47.001Z</time></trkpt><trkpt lat="43.91293177205423" lon="12.091128976414023"><ele>433.6</ele><time>2026-04-12T08:50:48.001Z</time></trkpt><trkpt lat="43.91289348090101" lon="12.091242007753369"><ele>432.0</ele><time>2026-04-12T08:50:49.001Z</time></trkpt><trkpt lat="43.9128373976061" lon="12.09134041395673"><ele>432.0</ele><time>2026-04-12T08:50:50.001Z</time></trkpt><trkpt lat="43.912777265565154" lon="12.091448641511155"><ele>432.00000000000006</ele><time>2026-04-12T08:50:51.001Z</time></trkpt><trkpt lat="43.91272069664162" lon="12.09153822637245"><ele>432.00000000000006</ele><time>2026-04-12T08:50:52.001Z</time></trkpt><trkpt lat="43.912647779352746" lon="12.091672827836774"><ele>432.0</ele><time>2026-04-12T08:50:54.001Z</time></trkpt><trkpt lat="43.9126642562945" lon="12.091869051338582"><ele>432.0</ele><time>2026-04-12T08:50:56.001Z</time></trkpt><trkpt lat="43.9127545333972" lon="12.09196161089644"><ele>430.1666666666667</ele><time>2026-04-12T08:50:57.001Z</time></trkpt><trkpt lat="43.91280609177955" lon="12.092039948286741"><ele>428.33333333333337</ele><time>2026-04-12T08:50:58.001Z</time></trkpt><trkpt lat="43.912862686905704" lon="12.092127950352017"><ele>426.5</ele><time>2026-04-12T08:50:59.001Z</time></trkpt><trkpt lat="43.91290943074825" lon="12.09220112730764"><ele>424.6666666666667</ele><time>2026-04-12T08:51:00.001Z</time></trkpt><trkpt lat="43.91295360473607" lon="12.092282311077371"><ele>422.83333333333337</ele><time>2026-04-12T08:51:01.001Z</time></trkpt><trkpt lat="43.91299384798155" lon="12.092387394208108"><ele>421.0</ele><time>2026-04-12T08:51:02.001Z</time></trkpt><trkpt lat="43.91302469695371" lon="12.092515962255206"><ele>420.5714285714286</ele><time>2026-04-12T08:51:03.001Z</time></trkpt><trkpt lat="43.913033936358154" lon="12.092617113035436"><ele>420.14285714285717</ele><time>2026-04-12T08:51:04.001Z</time></trkpt><trkpt lat="43.91302735105989" lon="12.09271891305418"><ele>419.7142857142857</ele><time>2026-04-12T08:51:05.001Z</time></trkpt><trkpt lat="43.91299196391263" lon="12.09279336800652"><ele>419.28571428571433</ele><time>2026-04-12T08:51:06.001Z</time></trkpt><trkpt lat="43.91295991032804" lon="12.09287068787781"><ele>418.85714285714283</ele><time>2026-04-12T08:51:07.001Z</time></trkpt><trkpt lat="43.912915763339065" lon="12.092962539790834"><ele>418.42857142857144</ele><time>2026-04-12T08:51:08.001Z</time></trkpt><trkpt lat="43.91287588479609" lon="12.093049107991867"><ele>418.0</ele><time>2026-04-12T08:51:09.001Z</time></trkpt><trkpt lat="43.912839203454205" lon="12.093147411442201"><ele>416.79999999999995</ele><time>2026-04-12T08:51:10.001Z</time></trkpt><trkpt lat="43.91285456632136" lon="12.09327062187013"><ele>415.6</ele><time>2026-04-12T08:51:11.001Z</time></trkpt><trkpt lat="43.912898072743154" lon="12.093347855706277"><ele>414.4</ele><time>2026-04-12T08:51:12.001Z</time></trkpt><trkpt lat="43.912946699464534" lon="12.093499652001777"><ele>413.20000000000005</ele><time>2026-04-12T08:51:14Z</time></trkpt><trkpt lat="43.91297129769743" lon="12.09359390727979"><ele>412.0</ele><time>2026-04-12T08:51:15Z</time></trkpt><trkpt lat="43.91301129350791" lon="12.093755600242629"><ele>412.00000000000006</ele><time>2026-04-12T08:51:17Z</time></trkpt><trkpt lat="43.91303845137565" lon="12.09385392669632"><ele>412.0</ele><time>2026-04-12T08:51:18Z</time></trkpt><trkpt lat="43.91305200248142" lon="12.09397497159566"><ele>412.0</ele><time>2026-04-12T08:51:19Z</time></trkpt><trkpt lat="43.9130416727976" lon="12.094098692028085"><ele>412.0</ele><time>2026-04-12T08:51:20Z</time></trkpt><trkpt lat="43.91304476565795" lon="12.094206617477592"><ele>412.00000000000006</ele><time>2026-04-12T08:51:21Z</time></trkpt><trkpt lat="43.9130573554022" lon="12.094306833232682"><ele>412.0</ele><time>2026-04-12T08:51:22Z</time></trkpt><trkpt lat="43.91307260562958" lon="12.094432189699349"><ele>412.8</ele><time>2026-04-12T08:51:23Z</time></trkpt><trkpt lat="43.913091006243036" lon="12.094541060959846"><ele>413.6</ele><time>2026-04-12T08:51:24Z</time></trkpt><trkpt lat="43.913106940905934" lon="12.094647887128104"><ele>414.40000000000003</ele><time>2026-04-12T08:51:25Z</time></trkpt><trkpt lat="43.91311670582191" lon="12.094755823860051"><ele>415.20000000000005</ele><time>2026-04-12T08:51:26Z</time></trkpt><trkpt lat="43.91312381315131" lon="12.094869957192055"><ele>416.0</ele><time>2026-04-12T08:51:27Z</time></trkpt><trkpt lat="43.910681116323445" lon="12.100101876794602"><ele>409.20000000000005</ele><time>2026-04-12T08:52:28.001Z</time></trkpt><trkpt lat="43.91061103372482" lon="12.100134203790983"><ele>402.40000000000003</ele><time>2026-04-12T08:52:30.001Z</time></trkpt><trkpt lat="43.91046638301007" lon="12.100134114580802"><ele>395.6</ele><time>2026-04-12T08:52:32.001Z</time></trkpt><trkpt lat="43.91039510407547" lon="12.100100899187703"><ele>388.8</ele><time>2026-04-12T08:52:33.001Z</time></trkpt><trkpt lat="43.91029587088878" lon="12.100140310267072"><ele>382.0</ele><time>2026-04-12T08:52:35.001Z</time></trkpt><trkpt lat="43.910207748437905" lon="12.100174072490423"><ele>382.0</ele><time>2026-04-12T08:52:37.001Z</time></trkpt><trkpt lat="43.91010629475908" lon="12.10025592274918"><ele>382.0</ele><time>2026-04-12T08:52:39.001Z</time></trkpt><trkpt lat="43.90997494737205" lon="12.100318600460433"><ele>382.0</ele><time>2026-04-12T08:52:41.001Z</time></trkpt><trkpt lat="43.90988537145028" lon="12.10040035114875"><ele>382.0</ele><time>2026-04-12T08:52:42.001Z</time></trkpt><trkpt lat="43.90983567200279" lon="12.10049729269344"><ele>382.0</ele><time>2026-04-12T08:52:43.001Z</time></trkpt><trkpt lat="43.9098345210342" lon="12.10059612926758"><ele>382.3333333333333</ele><time>2026-04-12T08:52:44.001Z</time></trkpt><trkpt lat="43.90985171670455" lon="12.100689385834096"><ele>382.66666666666663</ele><time>2026-04-12T08:52:45.001Z</time></trkpt><trkpt lat="43.909893025591714" lon="12.10079284674415"><ele>383.0</ele><time>2026-04-12T08:52:46.001Z</time></trkpt><trkpt lat="43.90994303094662" lon="12.100915048180145"><ele>383.3333333333333</ele><time>2026-04-12T08:52:47.001Z</time></trkpt><trkpt lat="43.90999147702858" lon="12.101003801578774"><ele>383.6666666666667</ele><time>2026-04-12T08:52:48.001Z</time></trkpt><trkpt lat="43.91001547936496" lon="12.101091220580726"><ele>384.0</ele><time>2026-04-12T08:52:49.001Z</time></trkpt><trkpt lat="43.91003715267339" lon="12.101183189666118"><ele>384.0</ele><time>2026-04-12T08:52:50.001Z</time></trkpt><trkpt lat="43.9100685823184" lon="12.10127224260523"><ele>384.0</ele><time>2026-04-12T08:52:51.001Z</time></trkpt><trkpt lat="43.910043031790494" lon="12.101407495477172"><ele>384.0</ele><time>2026-04-12T08:52:53.001Z</time></trkpt><trkpt lat="43.909913147540735" lon="12.101474724922157"><ele>384.0</ele><time>2026-04-12T08:52:55.001Z</time></trkpt><trkpt lat="43.9098265177576" lon="12.101553161716312"><ele>384.0</ele><time>2026-04-12T08:52:56.001Z</time></trkpt><trkpt lat="43.90972383727089" lon="12.101575714429034"><ele>380.6666666666667</ele><time>2026-04-12T08:52:57.001Z</time></trkpt><trkpt lat="43.90963174914021" lon="12.101633715835398"><ele>377.3333333333333</ele><time>2026-04-12T08:52:58.001Z</time></trkpt><trkpt lat="43.909567056439485" lon="12.101648083995963"><ele>374.0</ele><time>2026-04-12T08:52:59.001Z</time></trkpt><trkpt lat="43.90950826865363" lon="12.10169536486715"><ele>370.66666666666663</ele><time>2026-04-12T08:53:00.001Z</time></trkpt><trkpt lat="43.90943034030878" lon="12.101737722220447"><ele>367.3333333333333</ele><time>2026-04-12T08:53:01.001Z</time></trkpt><trkpt lat="43.909374345118486" lon="12.101821172494589"><ele>364.0</ele><time>2026-04-12T08:53:02.001Z</time></trkpt><trkpt lat="43.90931439101304" lon="12.101891651773705"><ele>364.0</ele><time>2026-04-12T08:53:03.001Z</time></trkpt><trkpt lat="43.909269348270435" lon="12.101967636753399"><ele>364.0</ele><time>2026-04-12T08:53:04.001Z</time></trkpt><trkpt lat="43.90920912094952" lon="12.102049520879577"><ele>364.0</ele><time>2026-04-12T08:53:06.001Z</time></trkpt><trkpt lat="43.90913106556261" lon="12.102079895072464"><ele>364.0</ele><time>2026-04-12T08:53:09.001Z</time></trkpt><trkpt lat="43.90740750137732" lon="12.103923714483223"><ele>362.6</ele><time>2026-04-12T08:54:28.001Z</time></trkpt><trkpt lat="43.90731841198052" lon="12.103990672636693"><ele>361.2</ele><time>2026-04-12T08:54:30.001Z</time></trkpt><trkpt lat="43.90722636835447" lon="12.10399242232222"><ele>359.8</ele><time>2026-04-12T08:54:31.001Z</time></trkpt><trkpt lat="43.90709518834471" lon="12.1039982223923"><ele>358.40000000000003</ele><time>2026-04-12T08:54:32.001Z</time></trkpt><trkpt lat="43.906998656939635" lon="12.104046001069232"><ele>357.0</ele><time>2026-04-12T08:54:33.001Z</time></trkpt><trkpt lat="43.90692324858961" lon="12.104094467424892"><ele>356.20000000000005</ele><time>2026-04-12T08:54:34.001Z</time></trkpt><trkpt lat="43.90684273662141" lon="12.104180927981014"><ele>355.4</ele><time>2026-04-12T08:54:35.001Z</time></trkpt><trkpt lat="43.9067477518771" lon="12.104293069667326"><ele>354.6</ele><time>2026-04-12T08:54:36.001Z</time></trkpt><trkpt lat="43.90668881250781" lon="12.104387631674282"><ele>353.79999999999995</ele><time>2026-04-12T08:54:37.001Z</time></trkpt><trkpt lat="43.90663521001578" lon="12.104458312261615"><ele>353.0</ele><time>2026-04-12T08:54:38.001Z</time></trkpt><trkpt lat="43.90651599001878" lon="12.104488893853725"><ele>353.0</ele><time>2026-04-12T08:54:40.001Z</time></trkpt><trkpt lat="43.90644838146991" lon="12.104492162143986"><ele>353.0</ele><time>2026-04-12T08:54:41.001Z</time></trkpt><trkpt lat="43.906362225834826" lon="12.104474002771532"><ele>353.0</ele><time>2026-04-12T08:54:42.001Z</time></trkpt><trkpt lat="43.90627514089427" lon="12.104468055731484"><ele>353.0</ele><time>2026-04-12T08:54:43.001Z</time></trkpt><trkpt lat="43.90616186029795" lon="12.104464931918272"><ele>353.0</ele><time>2026-04-12T08:54:45.001Z</time></trkpt><trkpt lat="43.90608181635623" lon="12.104463351129617"><ele>353.0</ele><time>2026-04-12T08:54:46.001Z</time></trkpt><trkpt lat="43.90600953753092" lon="12.10452853261234"><ele>353.0</ele><time>2026-04-12T08:54:47.001Z</time></trkpt><trkpt lat="43.90594808621447" lon="12.10458416536259"><ele>353.0</ele><time>2026-04-12T08:54:48.001Z</time></trkpt><trkpt lat="43.90587074880679" lon="12.104599598432019"><ele>353.0</ele><time>2026-04-12T08:54:49.001Z</time></trkpt><trkpt lat="43.90579434578935" lon="12.104639918025105"><ele>353.0</ele><time>2026-04-12T08:54:50.001Z</time></trkpt><trkpt lat="43.90570553912509" lon="12.10465221068684"><ele>353.0</ele><time>2026-04-12T08:54:51.001Z</time></trkpt><trkpt lat="43.90562995417555" lon="12.104649640948098"><ele>353.0</ele><time>2026-04-12T08:54:52.001Z</time></trkpt><trkpt lat="43.90554270983876" lon="12.1046449421297"><ele>354.2</ele><time>2026-04-12T08:54:54.001Z</time></trkpt><trkpt lat="43.9054495351624" lon="12.104662263387516"><ele>355.4</ele><time>2026-04-12T08:54:56.001Z</time></trkpt><trkpt lat="43.90532516591532" lon="12.104704706166658"><ele>356.59999999999997</ele><time>2026-04-12T08:54:58.001Z</time></trkpt><trkpt lat="43.90524491120058" lon="12.104752169802206"><ele>357.79999999999995</ele><time>2026-04-12T08:54:59.001Z</time></trkpt><trkpt lat="43.90516831372148" lon="12.104808273014887"><ele>359.0</ele><time>2026-04-12T08:55:00.001Z</time></trkpt><trkpt lat="43.905110014140284" lon="12.104882535415879"><ele>354.1666666666667</ele><time>2026-04-12T08:55:01.001Z</time></trkpt><trkpt lat="43.90506249026342" lon="12.104942888136815"><ele>349.33333333333337</ele><time>2026-04-12T08:55:02.001Z</time></trkpt><trkpt lat="43.905004673530414" lon="12.105015490255653"><ele>344.5</ele><time>2026-04-12T08:55:03.001Z</time></trkpt><trkpt lat="43.90494654850454" lon="12.105093126461513"><ele>339.6666666666667</ele><time>2026-04-12T08:55:04.001Z</time></trkpt><trkpt lat="43.904887386942676" lon="12.105186786966936"><ele>334.8333333333333</ele><time>2026-04-12T08:55:05.001Z</time></trkpt><trkpt lat="43.904835508737236" lon="12.105268011482693"><ele>330.0</ele><time>2026-04-12T08:55:06.001Z</time></trkpt><trkpt lat="43.90475606870291" lon="12.105369982647023"><ele>330.0</ele><time>2026-04-12T08:55:08.001Z</time></trkpt><trkpt lat="43.904691392810086" lon="12.105417784649193"><ele>330.0</ele><time>2026-04-12T08:55:09.001Z</time></trkpt><trkpt lat="43.90459394695877" lon="12.105412472232896"><ele>330.0</ele><time>2026-04-12T08:55:10.001Z</time></trkpt><trkpt lat="43.90450150434429" lon="12.105416601990802"><ele>330.0</ele><time>2026-04-12T08:55:11.001Z</time></trkpt><trkpt lat="43.9044090024079" lon="12.105420904407021"><ele>330.0</ele><time>2026-04-12T08:55:12.001Z</time></trkpt><trkpt lat="43.90430611145592" lon="12.105428788474546"><ele>332.6666666666667</ele><time>2026-04-12T08:55:13.001Z</time></trkpt><trkpt lat="43.904226065110265" lon="12.105442102602558"><ele>335.3333333333333</ele><time>2026-04-12T08:55:14.001Z</time></trkpt><trkpt lat="43.9041434147827" lon="12.105469822018367"><ele>338.0</ele><time>2026-04-12T08:55:15.001Z</time></trkpt><trkpt lat="43.90406790963021" lon="12.105474163305798"><ele>340.66666666666663</ele><time>2026-04-12T08:55:16.001Z</time></trkpt><trkpt lat="43.90399911236992" lon="12.105500555823266"><ele>343.3333333333333</ele><time>2026-04-12T08:55:17.001Z</time></trkpt><trkpt lat="43.90391159202072" lon="12.105555639846482"><ele>346.0</ele><time>2026-04-12T08:55:18.001Z</time></trkpt><trkpt lat="43.90383637365848" lon="12.105632116681399"><ele>346.0</ele><time>2026-04-12T08:55:19.001Z</time></trkpt><trkpt lat="43.90376910302359" lon="12.105708498830555"><ele>346.0</ele><time>2026-04-12T08:55:20.001Z</time></trkpt><trkpt lat="43.90370197859824" lon="12.105796355416185"><ele>346.0</ele><time>2026-04-12T08:55:21.001Z</time></trkpt><trkpt lat="43.903636280620155" lon="12.105914579693943"><ele>346.0</ele><time>2026-04-12T08:55:22.001Z</time></trkpt><trkpt lat="43.90357144977582" lon="12.105990609270894"><ele>346.0</ele><time>2026-04-12T08:55:23.001Z</time></trkpt><trkpt lat="43.90352770907791" lon="12.106063315056243"><ele>346.0</ele><time>2026-04-12T08:55:24.001Z</time></trkpt><trkpt lat="43.90348078291728" lon="12.106128465404096"><ele>337.66666666666663</ele><time>2026-04-12T08:55:25Z</time></trkpt><trkpt lat="43.90340387034796" lon="12.106155871086173"><ele>329.3333333333333</ele><time>2026-04-12T08:55:26Z</time></trkpt><trkpt lat="43.903309871614304" lon="12.106168495826378"><ele>321.0</ele><time>2026-04-12T08:55:27Z</time></trkpt><trkpt lat="43.90105191651457" lon="12.1098592261205"><ele>304.25</ele><time>2026-04-12T08:56:28.001Z</time></trkpt><trkpt lat="43.9009961404892" lon="12.10997724372487"><ele>287.5</ele><time>2026-04-12T08:57:48Z</time></trkpt><trkpt lat="43.901077115722806" lon="12.11010279425838"><ele>270.75</ele><time>2026-04-12T08:57:49Z</time></trkpt><trkpt lat="43.90114353873585" lon="12.110222213389289"><ele>254.0</ele><time>2026-04-12T08:57:50Z</time></trkpt><trkpt lat="43.90125026837903" lon="12.110406581011157"><ele>254.0</ele><time>2026-04-12T08:57:51Z</time></trkpt><trkpt lat="43.901330343721995" lon="12.11056188347423"><ele>254.0</ele><time>2026-04-12T08:57:52Z</time></trkpt><trkpt lat="43.901403751117854" lon="12.110698075051609"><ele>254.0</ele><time>2026-04-12T08:57:53Z</time></trkpt><trkpt lat="43.90146531935248" lon="12.11083071245667"><ele>254.0</ele><time>2026-04-12T08:57:54Z</time></trkpt><trkpt lat="43.90150459366364" lon="12.11095866036278"><ele>255.0</ele><time>2026-04-12T08:57:55Z</time></trkpt><trkpt lat="43.90151135335252" lon="12.111076231173328"><ele>255.99999999999997</ele><time>2026-04-12T08:57:56Z</time></trkpt><trkpt lat="43.90148597561551" lon="12.111186708152449"><ele>257.0</ele><time>2026-04-12T08:57:57Z</time></trkpt><trkpt lat="43.90143298483059" lon="12.111310800178723"><ele>258.0</ele><time>2026-04-12T08:57:58Z</time></trkpt><trkpt lat="43.90136733055736" lon="12.11146898615862"><ele>259.0</ele><time>2026-04-12T08:57:59Z</time></trkpt><trkpt lat="43.90131590639737" lon="12.111628257376456"><ele>260.66666666666663</ele><time>2026-04-12T08:58:00Z</time></trkpt><trkpt lat="43.90129479106254" lon="12.111748655104332"><ele>262.3333333333333</ele><time>2026-04-12T08:58:01Z</time></trkpt><trkpt lat="43.90127774587249" lon="12.111855875918758"><ele>264.0</ele><time>2026-04-12T08:58:02Z</time></trkpt><trkpt lat="43.90127777091728" lon="12.111975484790456"><ele>265.6666666666667</ele><time>2026-04-12T08:58:03Z</time></trkpt><trkpt lat="43.90129774016877" lon="12.112092207847953"><ele>267.33333333333337</ele><time>2026-04-12T08:58:04Z</time></trkpt><trkpt lat="43.90133219869655" lon="12.112210093149447"><ele>269.0</ele><time>2026-04-12T08:58:05Z</time></trkpt><trkpt lat="43.90138192405383" lon="12.112327119486563"><ele>268.0</ele><time>2026-04-12T08:58:06Z</time></trkpt><trkpt lat="43.90144098152023" lon="12.11244065013078"><ele>267.0</ele><time>2026-04-12T08:58:07Z</time></trkpt><trkpt lat="43.901495826807015" lon="12.112557415826155"><ele>266.0</ele><time>2026-04-12T08:58:08Z</time></trkpt><trkpt lat="43.901550982580254" lon="12.112671139736365"><ele>265.0</ele><time>2026-04-12T08:58:09Z</time></trkpt><trkpt lat="43.90160668058166" lon="12.112787609526851"><ele>264.0</ele><time>2026-04-12T08:58:10Z</time></trkpt><trkpt lat="43.90166755342685" lon="12.112908846646995"><ele>264.0</ele><time>2026-04-12T08:58:11Z</time></trkpt><trkpt lat="43.90173102867238" lon="12.113028300034347"><ele>264.0</ele><time>2026-04-12T08:58:12Z</time></trkpt><trkpt lat="43.901789440411186" lon="12.113143889871841"><ele>264.0</ele><time>2026-04-12T08:58:13Z</time></trkpt><trkpt lat="43.901849975364954" lon="12.113258251473964"><ele>264.0</ele><time>2026-04-12T08:58:14Z</time></trkpt><trkpt lat="43.901928503366996" lon="12.11338724515966"><ele>264.0</ele><time>2026-04-12T08:58:15.001Z</time></trkpt><trkpt lat="43.90201044629128" lon="12.113554130551613"><ele>263.4</ele><time>2026-04-12T08:58:16.001Z</time></trkpt><trkpt lat="43.90206830727054" lon="12.113706277243335"><ele>262.79999999999995</ele><time>2026-04-12T08:58:17.001Z</time></trkpt><trkpt lat="43.90212728118992" lon="12.113837195106234"><ele>262.20000000000005</ele><time>2026-04-12T08:58:18.001Z</time></trkpt><trkpt lat="43.902180504412975" lon="12.11394624598325"><ele>261.6</ele><time>2026-04-12T08:58:19.001Z</time></trkpt><trkpt lat="43.9022414789722" lon="12.11402771267406"><ele>261.0</ele><time>2026-04-12T08:58:20.001Z</time></trkpt><trkpt lat="43.90231656851572" lon="12.114084586896283"><ele>261.0</ele><time>2026-04-12T08:58:21.001Z</time></trkpt><trkpt lat="43.90239903519146" lon="12.114129798950522"><ele>261.0</ele><time>2026-04-12T08:58:22.001Z</time></trkpt><trkpt lat="43.90247803890535" lon="12.114159583769794"><ele>261.0</ele><time>2026-04-12T08:58:23.001Z</time></trkpt><trkpt lat="43.90256016193414" lon="12.114166485202892"><ele>261.0</ele><time>2026-04-12T08:58:24.001Z</time></trkpt><trkpt lat="43.90265322039473" lon="12.114164954997205"><ele>261.0</ele><time>2026-04-12T08:58:25.001Z</time></trkpt><trkpt lat="43.902754081697246" lon="12.114098044135885"><ele>260.5</ele><time>2026-04-12T08:58:26.001Z</time></trkpt><trkpt lat="43.90285763107452" lon="12.11399258395672"><ele>260.0</ele><time>2026-04-12T08:58:27.001Z</time></trkpt><trkpt lat="43.908865781773684" lon="12.117197786506948"><ele>261.25</ele><time>2026-04-12T08:59:28.001Z</time></trkpt><trkpt lat="43.90877317080769" lon="12.117328709165422"><ele>262.5</ele><time>2026-04-12T08:59:29.001Z</time></trkpt><trkpt lat="43.90866696396844" lon="12.117469255397861"><ele>263.75</ele><time>2026-04-12T08:59:30.001Z</time></trkpt><trkpt lat="43.90857525315134" lon="12.117588585254397"><ele>265.0</ele><time>2026-04-12T08:59:31.001Z</time></trkpt><trkpt lat="43.90850297886098" lon="12.117682784199276"><ele>266.0</ele><time>2026-04-12T08:59:32.001Z</time></trkpt><trkpt lat="43.908449191125655" lon="12.117763507502506"><ele>267.0</ele><time>2026-04-12T08:59:33.001Z</time></trkpt><trkpt lat="43.90841212010802" lon="12.11787438015878"><ele>268.0</ele><time>2026-04-12T08:59:34.001Z</time></trkpt><trkpt lat="43.90842160627282" lon="12.118049948933134"><ele>269.0</ele><time>2026-04-12T08:59:35.001Z</time></trkpt><trkpt lat="43.908494842441996" lon="12.118206928112388"><ele>270.0</ele><time>2026-04-12T08:59:36.001Z</time></trkpt><trkpt lat="43.908577514893096" lon="12.118369126617603"><ele>270.0</ele><time>2026-04-12T08:59:37Z</time></trkpt><trkpt lat="43.90867604557909" lon="12.118564779748853"><ele>270.0</ele><time>2026-04-12T08:59:38Z</time></trkpt><trkpt lat="43.908785830851954" lon="12.118759359361482"><ele>270.0</ele><time>2026-04-12T08:59:39Z</time></trkpt><trkpt lat="43.90889348812335" lon="12.118981521722384"><ele>267.0</ele><time>2026-04-12T08:59:40Z</time></trkpt><trkpt lat="43.90899064705395" lon="12.11916897985985"><ele>264.0</ele><time>2026-04-12T08:59:41Z</time></trkpt><trkpt lat="43.909081721951374" lon="12.11935079869634"><ele>261.0</ele><time>2026-04-12T08:59:42Z</time></trkpt><trkpt lat="43.90917409258979" lon="12.119548437747639"><ele>263.3333333333333</ele><time>2026-04-12T08:59:43Z</time></trkpt><trkpt lat="43.909271359486446" lon="12.119745005647161"><ele>265.66666666666663</ele><time>2026-04-12T08:59:44Z</time></trkpt><trkpt lat="43.90936760557641" lon="12.119940156518386"><ele>268.0</ele><time>2026-04-12T08:59:45Z</time></trkpt><trkpt lat="43.90946400663113" lon="12.120131082193268"><ele>268.0</ele><time>2026-04-12T08:59:46Z</time></trkpt><trkpt lat="43.909553064852716" lon="12.120311398134524"><ele>268.0</ele><time>2026-04-12T08:59:47Z</time></trkpt><trkpt lat="43.90963453678863" lon="12.120484268472145"><ele>268.0</ele><time>2026-04-12T08:59:48Z</time></trkpt><trkpt lat="43.90971283491909" lon="12.120651535631213"><ele>265.25</ele><time>2026-04-12T08:59:49Z</time></trkpt><trkpt lat="43.90976570607198" lon="12.120820663047219"><ele>262.5</ele><time>2026-04-12T08:59:50Z</time></trkpt><trkpt lat="43.90984429040096" lon="12.120997758042439"><ele>259.75</ele><time>2026-04-12T08:59:51Z</time></trkpt><trkpt lat="43.90994512850505" lon="12.121147597370323"><ele>257.0</ele><time>2026-04-12T08:59:52Z</time></trkpt><trkpt lat="43.91005411730024" lon="12.121297480261385"><ele>256.6666666666667</ele><time>2026-04-12T08:59:53Z</time></trkpt><trkpt lat="43.91017050261255" lon="12.121443142367413"><ele>256.3333333333333</ele><time>2026-04-12T08:59:54Z</time></trkpt><trkpt lat="43.910289453488865" lon="12.121584554371683"><ele>256.0</ele><time>2026-04-12T08:59:55Z</time></trkpt><trkpt lat="43.91039850508966" lon="12.121713701218649"><ele>256.0</ele><time>2026-04-12T08:59:56Z</time></trkpt><trkpt lat="43.910498806705725" lon="12.121843691895435"><ele>256.0</ele><time>2026-04-12T08:59:57Z</time></trkpt><trkpt lat="43.91059835035618" lon="12.121967156028422"><ele>256.0</ele><time>2026-04-12T08:59:58Z</time></trkpt><trkpt lat="43.91068973101302" lon="12.122082297064306"><ele>256.0</ele><time>2026-04-12T08:59:59Z</time></trkpt><trkpt lat="43.910778465115705" lon="12.122199826430252"><ele>256.0</ele><time>2026-04-12T09:00:00Z</time></trkpt><trkpt lat="43.910866769434115" lon="12.12234661288072"><ele>256.0</ele><time>2026-04-12T09:00:01Z</time></trkpt><trkpt lat="43.91095149718874" lon="12.1225031286901"><ele>256.0</ele><time>2026-04-12T09:00:02Z</time></trkpt><trkpt lat="43.911024075105914" lon="12.122669886574462"><ele>256.0</ele><time>2026-04-12T09:00:03Z</time></trkpt><trkpt lat="43.91109905033292" lon="12.122842049963845"><ele>256.5</ele><time>2026-04-12T09:00:04Z</time></trkpt><trkpt lat="43.91117117427943" lon="12.123011485063467"><ele>257.0</ele><time>2026-04-12T09:00:05Z</time></trkpt><trkpt lat="43.911242800333405" lon="12.123176290676751"><ele>257.5</ele><time>2026-04-12T09:00:06Z</time></trkpt><trkpt lat="43.91131466880188" lon="12.123325257354551"><ele>258.0</ele><time>2026-04-12T09:00:07Z</time></trkpt><trkpt lat="43.91139532407544" lon="12.123472030204757"><ele>258.0</ele><time>2026-04-12T09:00:08Z</time></trkpt><trkpt lat="43.91147633207621" lon="12.123625246809052"><ele>258.0</ele><time>2026-04-12T09:00:09Z</time></trkpt><trkpt lat="43.911562824780354" lon="12.123779460303517"><ele>258.0</ele><time>2026-04-12T09:00:10Z</time></trkpt><trkpt lat="43.91164953509717" lon="12.123912211906871"><ele>258.0</ele><time>2026-04-12T09:00:11Z</time></trkpt><trkpt lat="43.91172802687574" lon="12.12402209617828"><ele>258.4</ele><time>2026-04-12T09:00:12Z</time></trkpt><trkpt lat="43.91181353647798" lon="12.12410786867704"><ele>258.8</ele><time>2026-04-12T09:00:13Z</time></trkpt><trkpt lat="43.91190443660901" lon="12.12416343899657"><ele>259.2</ele><time>2026-04-12T09:00:14Z</time></trkpt><trkpt lat="43.912009332099935" lon="12.124181020777264"><ele>259.6</ele><time>2026-04-12T09:00:15Z</time></trkpt><trkpt lat="43.91211678835666" lon="12.124146524288474"><ele>260.0</ele><time>2026-04-12T09:00:16Z</time></trkpt><trkpt lat="43.91221703519111" lon="12.124055085793714"><ele>260.0</ele><time>2026-04-12T09:00:17Z</time></trkpt><trkpt lat="43.9123051343065" lon="12.12398052075438"><ele>260.0</ele><time>2026-04-12T09:00:18Z</time></trkpt><trkpt lat="43.91238262574819" lon="12.12397699783113"><ele>260.0</ele><time>2026-04-12T09:00:19Z</time></trkpt><trkpt lat="43.91245717411398" lon="12.12403732542909"><ele>260.0</ele><time>2026-04-12T09:00:20Z</time></trkpt><trkpt lat="43.91252689311676" lon="12.124172826641455"><ele>260.0</ele><time>2026-04-12T09:00:21Z</time></trkpt><trkpt lat="43.9125616140655" lon="12.124340713831648"><ele>258.25</ele><time>2026-04-12T09:00:22Z</time></trkpt><trkpt lat="43.91255573751573" lon="12.124530145369143"><ele>256.5</ele><time>2026-04-12T09:00:23Z</time></trkpt><trkpt lat="43.912536558013045" lon="12.124698235355595"><ele>254.75</ele><time>2026-04-12T09:00:24Z</time></trkpt><trkpt lat="43.91248929048096" lon="12.124864351952366"><ele>253.0</ele><time>2026-04-12T09:00:25Z</time></trkpt><trkpt lat="43.91241921346371" lon="12.125048035896544"><ele>251.0</ele><time>2026-04-12T09:00:26Z</time></trkpt><trkpt lat="43.91235630522256" lon="12.125235862514948"><ele>249.0</ele><time>2026-04-12T09:00:27Z</time></trkpt><trkpt lat="43.915018192119135" lon="12.138045694183893"><ele>245.25</ele><time>2026-04-12T09:01:28.001Z</time></trkpt><trkpt lat="43.91507213135009" lon="12.138170969408026"><ele>241.5</ele><time>2026-04-12T09:01:29.001Z</time></trkpt><trkpt lat="43.915179632168936" lon="12.13830218948846"><ele>237.75</ele><time>2026-04-12T09:01:30.001Z</time></trkpt><trkpt lat="43.915339395840924" lon="12.138413215071164"><ele>234.0</ele><time>2026-04-12T09:01:31.001Z</time></trkpt><trkpt lat="43.91551115520343" lon="12.138497361603916"><ele>233.66666666666669</ele><time>2026-04-12T09:01:32.001Z</time></trkpt><trkpt lat="43.915668097099996" lon="12.13858211461183"><ele>233.33333333333334</ele><time>2026-04-12T09:01:33.001Z</time></trkpt><trkpt lat="43.91581259515469" lon="12.13869852653561"><ele>233.0</ele><time>2026-04-12T09:01:34.001Z</time></trkpt><trkpt lat="43.9159586097989" lon="12.138864979497495"><ele>232.66666666666669</ele><time>2026-04-12T09:01:35.001Z</time></trkpt><trkpt lat="43.916078424646535" lon="12.139071440430339"><ele>232.33333333333331</ele><time>2026-04-12T09:01:36.001Z</time></trkpt><trkpt lat="43.916188966808704" lon="12.139251813383584"><ele>232.0</ele><time>2026-04-12T09:01:37.001Z</time></trkpt><trkpt lat="43.916295025753016" lon="12.13940274188377"><ele>232.0</ele><time>2026-04-12T09:01:38.001Z</time></trkpt><trkpt lat="43.916388377989456" lon="12.139557375207177"><ele>232.0</ele><time>2026-04-12T09:01:39.001Z</time></trkpt><trkpt lat="43.91647839950531" lon="12.139715392943906"><ele>232.0</ele><time>2026-04-12T09:01:40.001Z</time></trkpt><trkpt lat="43.916568590584966" lon="12.139865626152128"><ele>232.0</ele><time>2026-04-12T09:01:41.001Z</time></trkpt><trkpt lat="43.916660297047244" lon="12.140016048394525"><ele>227.0</ele><time>2026-04-12T09:01:42.001Z</time></trkpt><trkpt lat="43.916751832741426" lon="12.140164768775257"><ele>222.0</ele><time>2026-04-12T09:01:43Z</time></trkpt><trkpt lat="43.91684814900729" lon="12.140311539991178"><ele>217.0</ele><time>2026-04-12T09:01:44Z</time></trkpt><trkpt lat="43.91694681281144" lon="12.14045484838918"><ele>212.0</ele><time>2026-04-12T09:01:45Z</time></trkpt><trkpt lat="43.91704270689355" lon="12.14059682224927"><ele>216.5</ele><time>2026-04-12T09:01:46Z</time></trkpt><trkpt lat="43.91712767194758" lon="12.140735200115055"><ele>221.0</ele><time>2026-04-12T09:01:47Z</time></trkpt><trkpt lat="43.917197759560196" lon="12.140875801587521"><ele>225.5</ele><time>2026-04-12T09:01:48Z</time></trkpt><trkpt lat="43.91725595728534" lon="12.141039025855049"><ele>230.0</ele><time>2026-04-12T09:01:49Z</time></trkpt><trkpt lat="43.91729156555559" lon="12.141218602372732"><ele>230.0</ele><time>2026-04-12T09:01:50Z</time></trkpt><trkpt lat="43.9173110383254" lon="12.141417431495192"><ele>230.0</ele><time>2026-04-12T09:01:51Z</time></trkpt><trkpt lat="43.91730457945156" lon="12.141630279421562"><ele>230.0</ele><time>2026-04-12T09:01:52Z</time></trkpt><trkpt lat="43.91727252441562" lon="12.1418409785034"><ele>231.5</ele><time>2026-04-12T09:01:53Z</time></trkpt><trkpt lat="43.91724016843157" lon="12.142024860006877"><ele>233.0</ele><time>2026-04-12T09:01:54Z</time></trkpt><trkpt lat="43.91723847723204" lon="12.14220765402578"><ele>234.5</ele><time>2026-04-12T09:01:55Z</time></trkpt><trkpt lat="43.917262759443844" lon="12.142378392463948"><ele>236.0</ele><time>2026-04-12T09:01:56Z</time></trkpt><trkpt lat="43.917301070590966" lon="12.142524780531703"><ele>236.4</ele><time>2026-04-12T09:01:57Z</time></trkpt><trkpt lat="43.91734389326012" lon="12.14266425240489"><ele>236.8</ele><time>2026-04-12T09:01:58Z</time></trkpt><trkpt lat="43.9173912008724" lon="12.142806247261783"><ele>237.20000000000002</ele><time>2026-04-12T09:01:59Z</time></trkpt><trkpt lat="43.917441497945184" lon="12.14293730376729"><ele>237.60000000000002</ele><time>2026-04-12T09:02:00Z</time></trkpt><trkpt lat="43.91748254377471" lon="12.143052800463822"><ele>238.0</ele><time>2026-04-12T09:02:01Z</time></trkpt><trkpt lat="43.917524472292094" lon="12.143137413218765"><ele>237.33333333333331</ele><time>2026-04-12T09:02:02Z</time></trkpt><trkpt lat="43.91756634899564" lon="12.143215329604706"><ele>236.66666666666666</ele><time>2026-04-12T09:02:03Z</time></trkpt><trkpt lat="43.917602902561285" lon="12.143303683621568"><ele>236.0</ele><time>2026-04-12T09:02:04Z</time></trkpt><trkpt lat="43.917638414144065" lon="12.143408607948228"><ele>235.33333333333331</ele><time>2026-04-12T09:02:05Z</time></trkpt><trkpt lat="43.91766855311029" lon="12.143507393959668"><ele>234.66666666666666</ele><time>2026-04-12T09:02:06Z</time></trkpt><trkpt lat="43.917688732796805" lon="12.143616010196682"><ele>234.0</ele><time>2026-04-12T09:02:07Z</time></trkpt><trkpt lat="43.917701643651036" lon="12.14372729713991"><ele>235.6</ele><time>2026-04-12T09:02:08Z</time></trkpt><trkpt lat="43.91771432872518" lon="12.14384785740377"><ele>237.2</ele><time>2026-04-12T09:02:09Z</time></trkpt><trkpt lat="43.9177330402804" lon="12.143972107679927"><ele>238.79999999999998</ele><time>2026-04-12T09:02:10Z</time></trkpt><trkpt lat="43.9177586206808" lon="12.14409888714244"><ele>240.39999999999998</ele><time>2026-04-12T09:02:11Z</time></trkpt><trkpt lat="43.91778188024122" lon="12.144231100598669"><ele>242.0</ele><time>2026-04-12T09:02:12Z</time></trkpt><trkpt lat="43.91780648618674" lon="12.14436541005072"><ele>242.0</ele><time>2026-04-12T09:02:13Z</time></trkpt><trkpt lat="43.91783389945168" lon="12.144498076323512"><ele>242.0</ele><time>2026-04-12T09:02:14Z</time></trkpt><trkpt lat="43.91788343803525" lon="12.14461965861477"><ele>242.0</ele><time>2026-04-12T09:02:15Z</time></trkpt><trkpt lat="43.91795135794787" lon="12.14472381591493"><ele>242.0</ele><time>2026-04-12T09:02:16Z</time></trkpt><trkpt lat="43.91802927321659" lon="12.144796906369821"><ele>242.0</ele><time>2026-04-12T09:02:17Z</time></trkpt><trkpt lat="43.918120183701426" lon="12.144846336999887"><ele>242.0</ele><time>2026-04-12T09:02:18Z</time></trkpt><trkpt lat="43.91823055598606" lon="12.144871697227472"><ele>242.0</ele><time>2026-04-12T09:02:19Z</time></trkpt><trkpt lat="43.91834804835355" lon="12.144869156022066"><ele>242.0</ele><time>2026-04-12T09:02:20Z</time></trkpt><trkpt lat="43.9184646423236" lon="12.144879211077345"><ele>242.0</ele><time>2026-04-12T09:02:21Z</time></trkpt><trkpt lat="43.918575859085976" lon="12.144895293550908"><ele>240.2</ele><time>2026-04-12T09:02:22Z</time></trkpt><trkpt lat="43.918688685286185" lon="12.144904320082672"><ele>238.39999999999998</ele><time>2026-04-12T09:02:23Z</time></trkpt><trkpt lat="43.91879450871921" lon="12.144916210812008"><ele>236.60000000000002</ele><time>2026-04-12T09:02:24Z</time></trkpt><trkpt lat="43.91889691225847" lon="12.144926393020475"><ele>234.8</ele><time>2026-04-12T09:02:25Z</time></trkpt><trkpt lat="43.918995806262494" lon="12.144929371264015"><ele>233.0</ele><time>2026-04-12T09:02:26Z</time></trkpt><trkpt lat="43.91909048668639" lon="12.144928278019446"><ele>212.0</ele><time>2026-04-12T09:02:27Z</time></trkpt><trkpt lat="43.9237681214024" lon="12.149684858074785"><ele>212.0</ele><time>2026-04-12T09:03:28.001Z</time></trkpt><trkpt lat="43.92384043279221" lon="12.149798345783548"><ele>212.0</ele><time>2026-04-12T09:03:29.001Z</time></trkpt><trkpt lat="43.92391685154278" lon="12.149890529016586"><ele>212.0</ele><time>2026-04-12T09:03:30.001Z</time></trkpt><trkpt lat="43.92399761142615" lon="12.149968118736146"><ele>212.0</ele><time>2026-04-12T09:03:31.001Z</time></trkpt><trkpt lat="43.924076556632684" lon="12.150020936964072"><ele>212.0</ele><time>2026-04-12T09:03:32.001Z</time></trkpt><trkpt lat="43.92415221768717" lon="12.150059166952076"><ele>211.42857142857144</ele><time>2026-04-12T09:03:33.001Z</time></trkpt><trkpt lat="43.92422261516671" lon="12.150096759679199"><ele>210.85714285714283</ele><time>2026-04-12T09:03:34.001Z</time></trkpt><trkpt lat="43.924287896857585" lon="12.150138844110415"><ele>210.28571428571428</ele><time>2026-04-12T09:03:35.001Z</time></trkpt><trkpt lat="43.92434966808538" lon="12.15017581458016"><ele>209.71428571428572</ele><time>2026-04-12T09:03:36.001Z</time></trkpt><trkpt lat="43.924407130620814" lon="12.150212555715289"><ele>209.14285714285717</ele><time>2026-04-12T09:03:37.001Z</time></trkpt><trkpt lat="43.924461043907854" lon="12.150268730622283"><ele>208.57142857142856</ele><time>2026-04-12T09:03:38.001Z</time></trkpt><trkpt lat="43.924504333219886" lon="12.15035004236653"><ele>208.0</ele><time>2026-04-12T09:03:39.001Z</time></trkpt><trkpt lat="43.92456142332027" lon="12.150412929537552"><ele>209.99999999999997</ele><time>2026-04-12T09:03:40.001Z</time></trkpt><trkpt lat="43.924599726191246" lon="12.150500283344758"><ele>212.0</ele><time>2026-04-12T09:03:41.001Z</time></trkpt><trkpt lat="43.92467465418565" lon="12.150536533311907"><ele>214.0</ele><time>2026-04-12T09:03:42.001Z</time></trkpt><trkpt lat="43.92475281168559" lon="12.150537563774034"><ele>216.0</ele><time>2026-04-12T09:03:43.001Z</time></trkpt><trkpt lat="43.92483471237427" lon="12.150530228077773"><ele>217.99999999999997</ele><time>2026-04-12T09:03:44.001Z</time></trkpt><trkpt lat="43.92492059932154" lon="12.15054371478098"><ele>220.0</ele><time>2026-04-12T09:03:45.001Z</time></trkpt><trkpt lat="43.92499682437997" lon="12.1505217193321"><ele>220.0</ele><time>2026-04-12T09:03:46.001Z</time></trkpt><trkpt lat="43.92505454761552" lon="12.150638065158619"><ele>220.0</ele><time>2026-04-12T09:03:47.001Z</time></trkpt><trkpt lat="43.92510963151891" lon="12.150696591249083"><ele>220.0</ele><time>2026-04-12T09:03:49Z</time></trkpt><trkpt lat="43.92518180000577" lon="12.150743359914916"><ele>220.0</ele><time>2026-04-12T09:04:24Z</time></trkpt><trkpt lat="43.925302103196415" lon="12.15082920268239"><ele>220.0</ele><time>2026-04-12T09:04:26Z</time></trkpt><trkpt lat="43.925363554292126" lon="12.15090998747229"><ele>196.0</ele><time>2026-04-12T09:04:27Z</time></trkpt><trkpt lat="43.92415979952998" lon="12.161881855544504"><ele>196.0</ele><time>2026-04-12T09:05:28.001Z</time></trkpt><trkpt lat="43.92414039230089" lon="12.162094375215121"><ele>196.0</ele><time>2026-04-12T09:05:29.001Z</time></trkpt><trkpt lat="43.924111998491966" lon="12.16230953715709"><ele>196.0</ele><time>2026-04-12T09:05:30.001Z</time></trkpt><trkpt lat="43.92408106814104" lon="12.162526708583956"><ele>192.0</ele><time>2026-04-12T09:05:31.001Z</time></trkpt><trkpt lat="43.92405313179463" lon="12.162743896487607"><ele>188.0</ele><time>2026-04-12T09:05:32.001Z</time></trkpt><trkpt lat="43.92402542730818" lon="12.162952276480285"><ele>184.0</ele><time>2026-04-12T09:05:33.001Z</time></trkpt><trkpt lat="43.92399873257826" lon="12.163154982563663"><ele>181.66666666666669</ele><time>2026-04-12T09:05:34.001Z</time></trkpt><trkpt lat="43.923971506764666" lon="12.163360182180334"><ele>179.33333333333334</ele><time>2026-04-12T09:05:35.001Z</time></trkpt><trkpt lat="43.923943084953684" lon="12.163568716144319"><ele>177.0</ele><time>2026-04-12T09:05:36.001Z</time></trkpt><trkpt lat="43.9239154715586" lon="12.163780796397457"><ele>177.0</ele><time>2026-04-12T09:05:37.001Z</time></trkpt><trkpt lat="43.9238867744273" lon="12.163997264475816"><ele>177.0</ele><time>2026-04-12T09:05:38.001Z</time></trkpt><trkpt lat="43.92385850650022" lon="12.164214516653711"><ele>177.0</ele><time>2026-04-12T09:05:39.001Z</time></trkpt><trkpt lat="43.923827713249764" lon="12.164433911783979"><ele>181.0</ele><time>2026-04-12T09:05:40.001Z</time></trkpt><trkpt lat="43.923798290880086" lon="12.164655731527862"><ele>185.0</ele><time>2026-04-12T09:05:41.001Z</time></trkpt><trkpt lat="43.923770433031464" lon="12.164878871167083"><ele>189.0</ele><time>2026-04-12T09:05:42.001Z</time></trkpt><trkpt lat="43.92374294953192" lon="12.16509171694707"><ele>190.66666666666669</ele><time>2026-04-12T09:05:43.001Z</time></trkpt><trkpt lat="43.923718684199855" lon="12.165299589393863"><ele>192.33333333333334</ele><time>2026-04-12T09:05:44.001Z</time></trkpt><trkpt lat="43.923691219688926" lon="12.16550814711113"><ele>194.0</ele><time>2026-04-12T09:05:45.001Z</time></trkpt><trkpt lat="43.923662689283255" lon="12.165716641746616"><ele>194.0</ele><time>2026-04-12T09:05:46.001Z</time></trkpt><trkpt lat="43.92363463083215" lon="12.165927856889883"><ele>194.0</ele><time>2026-04-12T09:05:47.001Z</time></trkpt><trkpt lat="43.92360614256383" lon="12.1661366998544"><ele>194.0</ele><time>2026-04-12T09:05:48.001Z</time></trkpt><trkpt lat="43.923579358345194" lon="12.166340571332842"><ele>190.75</ele><time>2026-04-12T09:05:49.001Z</time></trkpt><trkpt lat="43.92355383844484" lon="12.166541993068073"><ele>187.5</ele><time>2026-04-12T09:05:50.001Z</time></trkpt><trkpt lat="43.92352762517236" lon="12.166743359557236"><ele>184.25</ele><time>2026-04-12T09:05:51.001Z</time></trkpt><trkpt lat="43.923503530034985" lon="12.166947069505994"><ele>181.0</ele><time>2026-04-12T09:05:52.001Z</time></trkpt><trkpt lat="43.92347887686381" lon="12.167149420785869"><ele>181.0</ele><time>2026-04-12T09:05:53.001Z</time></trkpt><trkpt lat="43.92345450396246" lon="12.167352306656026"><ele>181.0</ele><time>2026-04-12T09:05:54.001Z</time></trkpt><trkpt lat="43.92343458650767" lon="12.167557575578913"><ele>181.0</ele><time>2026-04-12T09:05:55Z</time></trkpt><trkpt lat="43.92341442493892" lon="12.167769067249646"><ele>180.0</ele><time>2026-04-12T09:05:56Z</time></trkpt><trkpt lat="43.92339937001788" lon="12.167993713604648"><ele>179.0</ele><time>2026-04-12T09:05:57Z</time></trkpt><trkpt lat="43.923398840558455" lon="12.168231011196529"><ele>178.0</ele><time>2026-04-12T09:05:58Z</time></trkpt><trkpt lat="43.92340381849809" lon="12.168469047704583"><ele>177.33333333333334</ele><time>2026-04-12T09:05:59Z</time></trkpt><trkpt lat="43.92341851210254" lon="12.168703726284182"><ele>176.66666666666666</ele><time>2026-04-12T09:06:00Z</time></trkpt><trkpt lat="43.92343505451912" lon="12.168941991854872"><ele>176.0</ele><time>2026-04-12T09:06:01Z</time></trkpt><trkpt lat="43.923452045543236" lon="12.169173802834614"><ele>176.75</ele><time>2026-04-12T09:06:02Z</time></trkpt><trkpt lat="43.92347072484298" lon="12.16939027614027"><ele>177.5</ele><time>2026-04-12T09:06:03Z</time></trkpt><trkpt lat="43.92349605232814" lon="12.169585983576246"><ele>178.25</ele><time>2026-04-12T09:06:04Z</time></trkpt><trkpt lat="43.923538219759315" lon="12.169782304418087"><ele>179.0</ele><time>2026-04-12T09:06:05Z</time></trkpt><trkpt lat="43.92360186205066" lon="12.169973781799358"><ele>179.0</ele><time>2026-04-12T09:06:06Z</time></trkpt><trkpt lat="43.923697370925794" lon="12.17015035287764"><ele>179.0</ele><time>2026-04-12T09:06:07Z</time></trkpt><trkpt lat="43.923807226305" lon="12.170319605112883"><ele>179.0</ele><time>2026-04-12T09:06:08Z</time></trkpt><trkpt lat="43.92392531316132" lon="12.170480140967848"><ele>179.0</ele><time>2026-04-12T09:06:09Z</time></trkpt><trkpt lat="43.924039453724504" lon="12.17063799319559"><ele>179.0</ele><time>2026-04-12T09:06:10Z</time></trkpt><trkpt lat="43.924150353142686" lon="12.170794934670012"><ele>179.0</ele><time>2026-04-12T09:06:11Z</time></trkpt><trkpt lat="43.92425414650548" lon="12.170940887889875"><ele>178.66666666666666</ele><time>2026-04-12T09:06:12Z</time></trkpt><trkpt lat="43.924361914097325" lon="12.171092431753642"><ele>178.33333333333334</ele><time>2026-04-12T09:06:13Z</time></trkpt><trkpt lat="43.92446857932856" lon="12.171238353815534"><ele>178.0</ele><time>2026-04-12T09:06:14Z</time></trkpt><trkpt lat="43.924576755482114" lon="12.171385902631554"><ele>180.66666666666669</ele><time>2026-04-12T09:06:15Z</time></trkpt><trkpt lat="43.92468549817311" lon="12.171539823590505"><ele>183.33333333333334</ele><time>2026-04-12T09:06:16Z</time></trkpt><trkpt lat="43.924795600868514" lon="12.171694633995354"><ele>186.0</ele><time>2026-04-12T09:06:17Z</time></trkpt><trkpt lat="43.92490937576043" lon="12.17185162773563"><ele>186.0</ele><time>2026-04-12T09:06:18Z</time></trkpt><trkpt lat="43.925020033132604" lon="12.171998542640411"><ele>186.0</ele><time>2026-04-12T09:06:19Z</time></trkpt><trkpt lat="43.925125343810905" lon="12.172140877063491"><ele>186.0</ele><time>2026-04-12T09:06:20Z</time></trkpt><trkpt lat="43.925226058393626" lon="12.172279809240399"><ele>186.0</ele><time>2026-04-12T09:06:21Z</time></trkpt><trkpt lat="43.925326720049" lon="12.172416061956186"><ele>185.5</ele><time>2026-04-12T09:06:22Z</time></trkpt><trkpt lat="43.92542974450373" lon="12.172554769707343"><ele>185.0</ele><time>2026-04-12T09:06:23Z</time></trkpt><trkpt lat="43.92553465981431" lon="12.172695919223582"><ele>184.5</ele><time>2026-04-12T09:06:24Z</time></trkpt><trkpt lat="43.92563797552028" lon="12.172840086700088"><ele>184.0</ele><time>2026-04-12T09:06:25Z</time></trkpt><trkpt lat="43.925743441646894" lon="12.172984721886353"><ele>184.0</ele><time>2026-04-12T09:06:26Z</time></trkpt><trkpt lat="43.925850895259494" lon="12.173131651913035"><ele>184.0</ele><time>2026-04-12T09:06:27Z</time></trkpt><trkpt lat="43.934029794997485" lon="12.178825841142642"><ele>186.39999999999998</ele><time>2026-04-12T09:07:28.001Z</time></trkpt><trkpt lat="43.93411734645414" lon="12.17890117245731"><ele>188.8</ele><time>2026-04-12T09:07:29.001Z</time></trkpt><trkpt lat="43.93419923938087" lon="12.178963480801327"><ele>191.2</ele><time>2026-04-12T09:07:30.001Z</time></trkpt><trkpt lat="43.93426536298938" lon="12.179093545325754"><ele>193.60000000000002</ele><time>2026-04-12T09:07:31.001Z</time></trkpt><trkpt lat="43.93436229494343" lon="12.179164430872715"><ele>196.0</ele><time>2026-04-12T09:07:32.001Z</time></trkpt><trkpt lat="43.93445898790221" lon="12.179239175469506"><ele>196.0</ele><time>2026-04-12T09:07:33.001Z</time></trkpt><trkpt lat="43.93455321084468" lon="12.179318497794181"><ele>196.0</ele><time>2026-04-12T09:07:34.001Z</time></trkpt><trkpt lat="43.9346515026168" lon="12.179405951291088"><ele>196.0</ele><time>2026-04-12T09:07:35.001Z</time></trkpt><trkpt lat="43.93475000602642" lon="12.179503395464536"><ele>196.0</ele><time>2026-04-12T09:07:36.001Z</time></trkpt><trkpt lat="43.93482552997438" lon="12.179641865771337"><ele>196.0</ele><time>2026-04-12T09:07:37.001Z</time></trkpt><trkpt lat="43.93490141437802" lon="12.179780337770584"><ele>196.0</ele><time>2026-04-12T09:07:38.001Z</time></trkpt><trkpt lat="43.93498101627867" lon="12.179914643099714"><ele>196.0</ele><time>2026-04-12T09:07:39.001Z</time></trkpt><trkpt lat="43.93506510126892" lon="12.180054017796571"><ele>196.0</ele><time>2026-04-12T09:07:40.001Z</time></trkpt><trkpt lat="43.93515059104509" lon="12.180195721132366"><ele>195.25</ele><time>2026-04-12T09:07:41.001Z</time></trkpt><trkpt lat="43.93524768160037" lon="12.18032344017757"><ele>194.5</ele><time>2026-04-12T09:07:42.001Z</time></trkpt><trkpt lat="43.93531514954052" lon="12.180482114491525"><ele>193.75</ele><time>2026-04-12T09:07:43.001Z</time></trkpt><trkpt lat="43.93540104600931" lon="12.180617805107639"><ele>193.0</ele><time>2026-04-12T09:07:44.001Z</time></trkpt><trkpt lat="43.93547121955138" lon="12.180769340004105"><ele>195.33333333333331</ele><time>2026-04-12T09:07:45.001Z</time></trkpt><trkpt lat="43.935541594300204" lon="12.1809169536615"><ele>197.66666666666669</ele><time>2026-04-12T09:07:46.001Z</time></trkpt><trkpt lat="43.93561590286929" lon="12.181058314051043"><ele>200.0</ele><time>2026-04-12T09:07:47.001Z</time></trkpt><trkpt lat="43.93573681454006" lon="12.181298598636294"><ele>200.00000000000003</ele><time>2026-04-12T09:07:49.001Z</time></trkpt><trkpt lat="43.93579647989867" lon="12.181390326235274"><ele>200.0</ele><time>2026-04-12T09:07:50.001Z</time></trkpt><trkpt lat="43.935832261313095" lon="12.181490100685433"><ele>200.0</ele><time>2026-04-12T09:07:51.001Z</time></trkpt><trkpt lat="43.93584900344546" lon="12.181589828699387"><ele>200.0</ele><time>2026-04-12T09:07:52.001Z</time></trkpt><trkpt lat="43.93582581229753" lon="12.181697781940168"><ele>200.00000000000003</ele><time>2026-04-12T09:07:53.001Z</time></trkpt><trkpt lat="43.935772550441285" lon="12.18180422707013"><ele>200.0</ele><time>2026-04-12T09:07:54.001Z</time></trkpt><trkpt lat="43.93571471300592" lon="12.181910114623715"><ele>201.2</ele><time>2026-04-12T09:07:55.001Z</time></trkpt><trkpt lat="43.935672090481724" lon="12.182039032783882"><ele>202.4</ele><time>2026-04-12T09:07:56.001Z</time></trkpt><trkpt lat="43.9356455460888" lon="12.182169718758356"><ele>203.60000000000002</ele><time>2026-04-12T09:07:57.001Z</time></trkpt><trkpt lat="43.935633099002835" lon="12.182301758204726"><ele>204.8</ele><time>2026-04-12T09:07:58.001Z</time></trkpt><trkpt lat="43.93563060700359" lon="12.182423212788047"><ele>206.0</ele><time>2026-04-12T09:07:59.001Z</time></trkpt><trkpt lat="43.9356184920155" lon="12.182561831835438"><ele>208.25</ele><time>2026-04-12T09:08:01Z</time></trkpt><trkpt lat="43.93557787186456" lon="12.182629562888705"><ele>210.5</ele><time>2026-04-12T09:08:06Z</time></trkpt><trkpt lat="43.935778061874295" lon="12.18285250370515"><ele>212.75</ele><time>2026-04-12T09:08:09Z</time></trkpt><trkpt lat="43.93582962761897" lon="12.182904257184347"><ele>215.0</ele><time>2026-04-12T09:08:10Z</time></trkpt><trkpt lat="43.93588331542024" lon="12.182960841856588"><ele>215.16666666666669</ele><time>2026-04-12T09:08:11Z</time></trkpt><trkpt lat="43.93594666122836" lon="12.183023188591147"><ele>215.33333333333334</ele><time>2026-04-12T09:08:12Z</time></trkpt><trkpt lat="43.93601360493379" lon="12.183096284636669"><ele>215.5</ele><time>2026-04-12T09:08:13Z</time></trkpt><trkpt lat="43.93608715001336" lon="12.183185300392617"><ele>215.66666666666669</ele><time>2026-04-12T09:08:14Z</time></trkpt><trkpt lat="43.93615720006435" lon="12.183267324456782"><ele>215.83333333333334</ele><time>2026-04-12T09:08:15Z</time></trkpt><trkpt lat="43.93622369550334" lon="12.18334410731205"><ele>216.0</ele><time>2026-04-12T09:08:16Z</time></trkpt><trkpt lat="43.936291416438024" lon="12.183416758691619"><ele>216.0</ele><time>2026-04-12T09:08:17Z</time></trkpt><trkpt lat="43.936353389125756" lon="12.18347673512148"><ele>216.0</ele><time>2026-04-12T09:08:18Z</time></trkpt><trkpt lat="43.93640496169831" lon="12.183542547097822"><ele>216.0</ele><time>2026-04-12T09:08:19Z</time></trkpt><trkpt lat="43.936445922784486" lon="12.1836283277689"><ele>216.0</ele><time>2026-04-12T09:08:20Z</time></trkpt><trkpt lat="43.93647756989011" lon="12.183719496058492"><ele>216.0</ele><time>2026-04-12T09:08:21Z</time></trkpt><trkpt lat="43.93649785740634" lon="12.183817698920024"><ele>216.0</ele><time>2026-04-12T09:08:22Z</time></trkpt><trkpt lat="43.93650778479553" lon="12.183934732231418"><ele>218.8</ele><time>2026-04-12T09:08:23Z</time></trkpt><trkpt lat="43.936501938486245" lon="12.1840663055527"><ele>221.60000000000002</ele><time>2026-04-12T09:08:24Z</time></trkpt><trkpt lat="43.93647755854054" lon="12.184200165667356"><ele>224.4</ele><time>2026-04-12T09:08:25Z</time></trkpt><trkpt lat="43.93643843521539" lon="12.18431087712819"><ele>227.2</ele><time>2026-04-12T09:08:26Z</time></trkpt><trkpt lat="43.936427502746476" lon="12.184432972576214"><ele>230.0</ele><time>2026-04-12T09:08:27Z</time></trkpt><trkpt lat="43.937012068936866" lon="12.189133624884176"><ele>241.0</ele><time>2026-04-12T09:09:28.001Z</time></trkpt><trkpt lat="43.936973941697055" lon="12.189253458706323"><ele>252.0</ele><time>2026-04-12T09:09:29.001Z</time></trkpt><trkpt lat="43.93694381943037" lon="12.189370970193842"><ele>263.0</ele><time>2026-04-12T09:09:30.001Z</time></trkpt><trkpt lat="43.93690980845974" lon="12.189489988943553"><ele>274.0</ele><time>2026-04-12T09:09:31.001Z</time></trkpt><trkpt lat="43.93687622756412" lon="12.189612132897029"><ele>285.0</ele><time>2026-04-12T09:09:32.001Z</time></trkpt><trkpt lat="43.93684977146873" lon="12.189723447910175"><ele>285.0</ele><time>2026-04-12T09:09:33.001Z</time></trkpt><trkpt lat="43.93681308362577" lon="12.189832440097096"><ele>285.0</ele><time>2026-04-12T09:09:34.001Z</time></trkpt><trkpt lat="43.936775835089705" lon="12.189921788268087"><ele>285.0</ele><time>2026-04-12T09:09:35.001Z</time></trkpt><trkpt lat="43.9367258024102" lon="12.18999072505015"><ele>285.0</ele><time>2026-04-12T09:09:36.001Z</time></trkpt><trkpt lat="43.9366544911334" lon="12.190042463392158"><ele>285.0</ele><time>2026-04-12T09:09:37.001Z</time></trkpt><trkpt lat="43.93656778806692" lon="12.190085751223313"><ele>285.0</ele><time>2026-04-12T09:09:38.001Z</time></trkpt><trkpt lat="43.936483008466794" lon="12.190140473684643"><ele>288.0</ele><time>2026-04-12T09:09:39.001Z</time></trkpt><trkpt lat="43.93640345595444" lon="12.19023263461731"><ele>291.0</ele><time>2026-04-12T09:09:40.001Z</time></trkpt><trkpt lat="43.93632579321135" lon="12.19034404848056"><ele>294.0</ele><time>2026-04-12T09:09:41.001Z</time></trkpt><trkpt lat="43.93624987510679" lon="12.190454029681666"><ele>297.0</ele><time>2026-04-12T09:09:42.001Z</time></trkpt><trkpt lat="43.93617261261651" lon="12.190567754818824"><ele>300.0</ele><time>2026-04-12T09:09:43.001Z</time></trkpt><trkpt lat="43.93609920432503" lon="12.190680320399156"><ele>300.0</ele><time>2026-04-12T09:09:44.001Z</time></trkpt><trkpt lat="43.93603044172506" lon="12.190778791906974"><ele>300.0</ele><time>2026-04-12T09:09:45.001Z</time></trkpt><trkpt lat="43.93597500079602" lon="12.190871953851486"><ele>300.0</ele><time>2026-04-12T09:09:46.001Z</time></trkpt><trkpt lat="43.935924137689625" lon="12.190977950718521"><ele>300.0</ele><time>2026-04-12T09:09:47.001Z</time></trkpt><trkpt lat="43.93588309015523" lon="12.191085045560133"><ele>300.0</ele><time>2026-04-12T09:09:48.001Z</time></trkpt><trkpt lat="43.93581736507179" lon="12.191244195063012"><ele>301.8333333333333</ele><time>2026-04-12T09:09:50.001Z</time></trkpt><trkpt lat="43.935757905923374" lon="12.191295190592728"><ele>303.6666666666667</ele><time>2026-04-12T09:09:51.001Z</time></trkpt><trkpt lat="43.93567833978987" lon="12.191362627910314"><ele>305.5</ele><time>2026-04-12T09:09:52.001Z</time></trkpt><trkpt lat="43.935600887463195" lon="12.191421180900475"><ele>307.33333333333337</ele><time>2026-04-12T09:09:53.001Z</time></trkpt><trkpt lat="43.93552556929555" lon="12.191462182829012"><ele>309.1666666666667</ele><time>2026-04-12T09:09:54.001Z</time></trkpt><trkpt lat="43.93545514244502" lon="12.191500936836407"><ele>311.0</ele><time>2026-04-12T09:09:55.001Z</time></trkpt><trkpt lat="43.93537801037569" lon="12.191520047700923"><ele>311.0</ele><time>2026-04-12T09:09:56.001Z</time></trkpt><trkpt lat="43.93530404715923" lon="12.191521963956696"><ele>311.0</ele><time>2026-04-12T09:09:57.001Z</time></trkpt><trkpt lat="43.93522367632544" lon="12.191508312171031"><ele>311.0</ele><time>2026-04-12T09:09:58.001Z</time></trkpt><trkpt lat="43.93513321326768" lon="12.191477978028663"><ele>311.0</ele><time>2026-04-12T09:09:59.001Z</time></trkpt><trkpt lat="43.9350293043798" lon="12.19145522306555"><ele>311.0</ele><time>2026-04-12T09:10:00.001Z</time></trkpt><trkpt lat="43.93493651754577" lon="12.191436274667184"><ele>311.0</ele><time>2026-04-12T09:10:01.001Z</time></trkpt><trkpt lat="43.93485628962819" lon="12.191444456114967"><ele>313.6666666666667</ele><time>2026-04-12T09:10:02.001Z</time></trkpt><trkpt lat="43.93477090739145" lon="12.191466103515447"><ele>316.33333333333337</ele><time>2026-04-12T09:10:03.001Z</time></trkpt><trkpt lat="43.934697851814036" lon="12.191499248856395"><ele>319.0</ele><time>2026-04-12T09:10:04.001Z</time></trkpt><trkpt lat="43.93458588217353" lon="12.191572507134383"><ele>321.6666666666667</ele><time>2026-04-12T09:10:06.001Z</time></trkpt><trkpt lat="43.93453276833521" lon="12.191639667499588"><ele>324.3333333333333</ele><time>2026-04-12T09:10:07Z</time></trkpt><trkpt lat="43.934487236611744" lon="12.191739190539565"><ele>327.0</ele><time>2026-04-12T09:10:08Z</time></trkpt><trkpt lat="43.93444897464902" lon="12.19185763475669"><ele>327.0</ele><time>2026-04-12T09:10:09Z</time></trkpt><trkpt lat="43.93440320466728" lon="12.191971609064026"><ele>327.0</ele><time>2026-04-12T09:10:10Z</time></trkpt><trkpt lat="43.93435841623243" lon="12.192081814895609"><ele>327.0</ele><time>2026-04-12T09:10:11Z</time></trkpt><trkpt lat="43.93432366194334" lon="12.192176567031217"><ele>327.0</ele><time>2026-04-12T09:10:12Z</time></trkpt><trkpt lat="43.934284037925075" lon="12.192272338658096"><ele>327.0</ele><time>2026-04-12T09:10:13Z</time></trkpt><trkpt lat="43.93424982647458" lon="12.192422044257404"><ele>328.5</ele><time>2026-04-12T09:10:14Z</time></trkpt><trkpt lat="43.93421057228194" lon="12.192516100346563"><ele>330.0</ele><time>2026-04-12T09:10:15Z</time></trkpt><trkpt lat="43.93416777462629" lon="12.192621451048561"><ele>331.5</ele><time>2026-04-12T09:10:16Z</time></trkpt><trkpt lat="43.93413336743223" lon="12.192704024183444"><ele>333.0</ele><time>2026-04-12T09:10:17Z</time></trkpt><trkpt lat="43.934100380081325" lon="12.192836048637036"><ele>334.5</ele><time>2026-04-12T09:10:18Z</time></trkpt><trkpt lat="43.934060181142506" lon="12.192950346109882"><ele>336.0</ele><time>2026-04-12T09:10:19Z</time></trkpt><trkpt lat="43.93404071953485" lon="12.193057255907982"><ele>336.0</ele><time>2026-04-12T09:10:20Z</time></trkpt><trkpt lat="43.933995258379774" lon="12.193157575957242"><ele>336.0</ele><time>2026-04-12T09:10:21Z</time></trkpt><trkpt lat="43.93397057534466" lon="12.193240988726112"><ele>336.0</ele><time>2026-04-12T09:10:22Z</time></trkpt><trkpt lat="43.93394827192725" lon="12.193331248310704"><ele>336.0</ele><time>2026-04-12T09:10:23Z</time></trkpt><trkpt lat="43.933958697683245" lon="12.193431653086648"><ele>336.0</ele><time>2026-04-12T09:10:24Z</time></trkpt><trkpt lat="43.934004075310824" lon="12.193527625298792"><ele>336.0</ele><time>2026-04-12T09:10:25Z</time></trkpt><trkpt lat="43.93406817977074" lon="12.19360092423711"><ele>336.5</ele><time>2026-04-12T09:10:26Z</time></trkpt><trkpt lat="43.934146981017896" lon="12.193644525431575"><ele>337.0</ele><time>2026-04-12T09:10:27Z</time></trkpt><trkpt lat="43.93338039327439" lon="12.197820356333517"><ele>338.20000000000005</ele><time>2026-04-12T09:11:28.001Z</time></trkpt><trkpt lat="43.933258476536885" lon="12.197899807652254"><ele>339.4</ele><time>2026-04-12T09:11:29.001Z</time></trkpt><trkpt lat="43.93317899226221" lon="12.197966825657174"><ele>340.6</ele><time>2026-04-12T09:11:30.001Z</time></trkpt><trkpt lat="43.933084519762566" lon="12.198056836691078"><ele>341.79999999999995</ele><time>2026-04-12T09:11:31.001Z</time></trkpt><trkpt lat="43.932998805389076" lon="12.198141134028525"><ele>343.0</ele><time>2026-04-12T09:11:32.001Z</time></trkpt><trkpt lat="43.932920730455784" lon="12.198227344376019"><ele>343.0</ele><time>2026-04-12T09:11:33.001Z</time></trkpt><trkpt lat="43.93283700990289" lon="12.198320460628974"><ele>343.0</ele><time>2026-04-12T09:11:34.001Z</time></trkpt><trkpt lat="43.93276148625557" lon="12.19841776397477"><ele>343.0</ele><time>2026-04-12T09:11:35.001Z</time></trkpt><trkpt lat="43.93267697029494" lon="12.198476706722705"><ele>343.0</ele><time>2026-04-12T09:11:36.001Z</time></trkpt><trkpt lat="43.932592606009266" lon="12.198572875535934"><ele>343.0</ele><time>2026-04-12T09:11:37.001Z</time></trkpt><trkpt lat="43.932523278803025" lon="12.198655790570289"><ele>347.0</ele><time>2026-04-12T09:11:38.001Z</time></trkpt><trkpt lat="43.93243816916222" lon="12.198744767464648"><ele>351.0</ele><time>2026-04-12T09:11:39.001Z</time></trkpt><trkpt lat="43.932356615289095" lon="12.198830693955813"><ele>355.0</ele><time>2026-04-12T09:11:40.001Z</time></trkpt><trkpt lat="43.932278189010624" lon="12.19891203653563"><ele>359.0</ele><time>2026-04-12T09:11:41.001Z</time></trkpt><trkpt lat="43.932202745353095" lon="12.198985232685995"><ele>363.0</ele><time>2026-04-12T09:11:42.001Z</time></trkpt><trkpt lat="43.932119400730016" lon="12.19905238754002"><ele>363.0</ele><time>2026-04-12T09:11:43.001Z</time></trkpt><trkpt lat="43.93205119605968" lon="12.199112665287961"><ele>363.0</ele><time>2026-04-12T09:11:44.001Z</time></trkpt><trkpt lat="43.93198037709683" lon="12.199185840429982"><ele>363.0</ele><time>2026-04-12T09:11:46.001Z</time></trkpt><trkpt lat="43.93189979513352" lon="12.19922599029899"><ele>363.0</ele><time>2026-04-12T09:11:58.001Z</time></trkpt><trkpt lat="43.93183224245547" lon="12.19925242810898"><ele>363.0</ele><time>2026-04-12T09:11:59.001Z</time></trkpt><trkpt lat="43.931757637764704" lon="12.19927581405257"><ele>363.0</ele><time>2026-04-12T09:12:00.001Z</time></trkpt><trkpt lat="43.9316805682719" lon="12.199295358779493"><ele>366.6666666666667</ele><time>2026-04-12T09:12:01.001Z</time></trkpt><trkpt lat="43.93161229811695" lon="12.19933071107994"><ele>370.33333333333337</ele><time>2026-04-12T09:12:02.001Z</time></trkpt><trkpt lat="43.93154811047468" lon="12.199347752122172"><ele>374.0</ele><time>2026-04-12T09:12:03.001Z</time></trkpt><trkpt lat="43.93144309304268" lon="12.199375168953688"><ele>377.6666666666667</ele><time>2026-04-12T09:12:05.001Z</time></trkpt><trkpt lat="43.93135002396103" lon="12.199351351152487"><ele>381.33333333333337</ele><time>2026-04-12T09:12:07.001Z</time></trkpt><trkpt lat="43.9312832837882" lon="12.199295687016628"><ele>385.0</ele><time>2026-04-12T09:12:10.001Z</time></trkpt><trkpt lat="43.92952728603119" lon="12.196860352021028"><ele>396.50000000000006</ele><time>2026-04-12T09:16:28Z</time></trkpt><trkpt lat="43.92946865566015" lon="12.196743314865147"><ele>408.0</ele><time>2026-04-12T09:16:30Z</time></trkpt><trkpt lat="43.92937180811106" lon="12.196707826689165"><ele>419.5</ele><time>2026-04-12T09:16:32Z</time></trkpt><trkpt lat="43.92926112342724" lon="12.196660783587397"><ele>431.0</ele><time>2026-04-12T09:16:34Z</time></trkpt><trkpt lat="43.92919679067882" lon="12.196660717743637"><ele>442.50000000000006</ele><time>2026-04-12T09:16:35Z</time></trkpt><trkpt lat="43.92913512129621" lon="12.196628735117727"><ele>454.0</ele><time>2026-04-12T09:16:36Z</time></trkpt><trkpt lat="43.92907075242447" lon="12.196600173953868"><ele>456.00000000000006</ele><time>2026-04-12T09:16:37Z</time></trkpt><trkpt lat="43.92899495023877" lon="12.196577697070072"><ele>458.0</ele><time>2026-04-12T09:16:38Z</time></trkpt><trkpt lat="43.928913513922545" lon="12.196567895735397"><ele>460.0</ele><time>2026-04-12T09:16:39Z</time></trkpt><trkpt lat="43.92884559743574" lon="12.196595771304521"><ele>462.0</ele><time>2026-04-12T09:16:40Z</time></trkpt><trkpt lat="43.92877713388393" lon="12.196646928286684"><ele>464.00000000000006</ele><time>2026-04-12T09:16:41Z</time></trkpt><trkpt lat="43.92871886886793" lon="12.196693781756755"><ele>466.0</ele><time>2026-04-12T09:16:42Z</time></trkpt><trkpt lat="43.92862392047211" lon="12.19677478750894"><ele>466.00000000000006</ele><time>2026-04-12T09:16:44Z</time></trkpt><trkpt lat="43.92851874751199" lon="12.196913493697048"><ele>466.0</ele><time>2026-04-12T09:16:46Z</time></trkpt><trkpt lat="43.92846864503937" lon="12.196968293624725"><ele>466.0</ele><time>2026-04-12T09:16:47Z</time></trkpt><trkpt lat="43.928416170527946" lon="12.197022952801937"><ele>466.0</ele><time>2026-04-12T09:16:48Z</time></trkpt><trkpt lat="43.928360405564405" lon="12.197080385610555"><ele>466.00000000000006</ele><time>2026-04-12T09:16:49Z</time></trkpt><trkpt lat="43.92830375945576" lon="12.19714301899181"><ele>466.0</ele><time>2026-04-12T09:16:50Z</time></trkpt><trkpt lat="43.92823974782178" lon="12.197204921538368"><ele>466.8571428571429</ele><time>2026-04-12T09:16:51Z</time></trkpt><trkpt lat="43.928178277062685" lon="12.197266999558465"><ele>467.71428571428567</ele><time>2026-04-12T09:16:52Z</time></trkpt><trkpt lat="43.928119965752714" lon="12.197329907075126"><ele>468.57142857142856</ele><time>2026-04-12T09:16:53Z</time></trkpt><trkpt lat="43.92806417849274" lon="12.197393683567084"><ele>469.42857142857144</ele><time>2026-04-12T09:16:54Z</time></trkpt><trkpt lat="43.928001606028225" lon="12.197435627025072"><ele>470.28571428571433</ele><time>2026-04-12T09:16:55Z</time></trkpt><trkpt lat="43.927946719086556" lon="12.197494760940069"><ele>471.1428571428571</ele><time>2026-04-12T09:16:56Z</time></trkpt><trkpt lat="43.9278943187633" lon="12.197551215818226"><ele>472.0</ele><time>2026-04-12T09:16:57Z</time></trkpt><trkpt lat="43.927840036855144" lon="12.19760969786356"><ele>469.33333333333337</ele><time>2026-04-12T09:16:58Z</time></trkpt><trkpt lat="43.927796318331865" lon="12.1976850000063"><ele>466.6666666666667</ele><time>2026-04-12T09:16:59Z</time></trkpt><trkpt lat="43.927704206768404" lon="12.19778290306074"><ele>464.0</ele><time>2026-04-12T09:17:01Z</time></trkpt><trkpt lat="43.9276462683039" lon="12.197845926704685"><ele>461.33333333333337</ele><time>2026-04-12T09:17:03Z</time></trkpt><trkpt lat="43.92758926718562" lon="12.197891768000979"><ele>458.6666666666667</ele><time>2026-04-12T09:17:06Z</time></trkpt><trkpt lat="43.927643167576434" lon="12.19801189304839"><ele>456.0</ele><time>2026-04-12T09:17:07Z</time></trkpt><trkpt lat="43.92770277835601" lon="12.198078039694012"><ele>456.0</ele><time>2026-04-12T09:17:08Z</time></trkpt><trkpt lat="43.9277697667376" lon="12.198162607232046"><ele>456.0</ele><time>2026-04-12T09:17:09Z</time></trkpt><trkpt lat="43.92783089415865" lon="12.198265002409345"><ele>456.0</ele><time>2026-04-12T09:17:10Z</time></trkpt><trkpt lat="43.92788303404706" lon="12.198376439855846"><ele>456.0</ele><time>2026-04-12T09:17:11Z</time></trkpt><trkpt lat="43.92791659171517" lon="12.19849064089229"><ele>456.0</ele><time>2026-04-12T09:17:12Z</time></trkpt><trkpt lat="43.92792456939156" lon="12.198616177237495"><ele>453.0</ele><time>2026-04-12T09:17:13Z</time></trkpt><trkpt lat="43.92790924620387" lon="12.198763560115621"><ele>450.0</ele><time>2026-04-12T09:17:14Z</time></trkpt><trkpt lat="43.92787371386109" lon="12.198922531995407"><ele>447.0</ele><time>2026-04-12T09:17:15Z</time></trkpt><trkpt lat="43.927836022197226" lon="12.199087348693498"><ele>444.0</ele><time>2026-04-12T09:17:16Z</time></trkpt><trkpt lat="43.92779757840425" lon="12.199265576860556"><ele>442.75</ele><time>2026-04-12T09:17:17Z</time></trkpt><trkpt lat="43.927754414072034" lon="12.199448421070926"><ele>441.5</ele><time>2026-04-12T09:17:18Z</time></trkpt><trkpt lat="43.92771715441632" lon="12.199613661664102"><ele>440.25</ele><time>2026-04-12T09:17:19Z</time></trkpt><trkpt lat="43.92768200671825" lon="12.19977066812229"><ele>439.0</ele><time>2026-04-12T09:17:20Z</time></trkpt><trkpt lat="43.927646729067256" lon="12.199913621241464"><ele>439.4</ele><time>2026-04-12T09:17:21Z</time></trkpt><trkpt lat="43.927614519341105" lon="12.20005012011616"><ele>439.79999999999995</ele><time>2026-04-12T09:17:22Z</time></trkpt><trkpt lat="43.92758245583508" lon="12.200186295965558"><ele>440.20000000000005</ele><time>2026-04-12T09:17:23Z</time></trkpt><trkpt lat="43.92754727477518" lon="12.200338882520223"><ele>440.6</ele><time>2026-04-12T09:17:24Z</time></trkpt><trkpt lat="43.927506967831214" lon="12.200497434253657"><ele>441.0</ele><time>2026-04-12T09:17:25Z</time></trkpt><trkpt lat="43.92745945462007" lon="12.200659283165448"><ele>440.5</ele><time>2026-04-12T09:17:26Z</time></trkpt><trkpt lat="43.927397358369824" lon="12.200825586840793"><ele>440.0</ele><time>2026-04-12T09:17:27Z</time></trkpt><trkpt lat="43.926965213091236" lon="12.209147139698965"><ele>451.4</ele><time>2026-04-12T09:18:28.001Z</time></trkpt><trkpt lat="43.92704790991187" lon="12.209269542957133"><ele>462.8</ele><time>2026-04-12T09:18:30.001Z</time></trkpt><trkpt lat="43.92712806623379" lon="12.20930228327918"><ele>474.20000000000005</ele><time>2026-04-12T09:18:31Z</time></trkpt><trkpt lat="43.92723677856577" lon="12.209339641107176"><ele>485.6</ele><time>2026-04-12T09:18:32Z</time></trkpt><trkpt lat="43.927310944978096" lon="12.20941991252196"><ele>497.0</ele><time>2026-04-12T09:18:33Z</time></trkpt><trkpt lat="43.92737010802862" lon="12.209553576154175"><ele>497.0</ele><time>2026-04-12T09:18:34Z</time></trkpt><trkpt lat="43.92745961137288" lon="12.20970246515215"><ele>497.0</ele><time>2026-04-12T09:18:35Z</time></trkpt><trkpt lat="43.927536679013585" lon="12.209878066957673"><ele>497.0</ele><time>2026-04-12T09:18:36Z</time></trkpt><trkpt lat="43.927622070914964" lon="12.21008225378682"><ele>498.20000000000005</ele><time>2026-04-12T09:18:37Z</time></trkpt><trkpt lat="43.92769339754447" lon="12.210247063071341"><ele>499.40000000000003</ele><time>2026-04-12T09:18:38Z</time></trkpt><trkpt lat="43.927755830948556" lon="12.210381167223964"><ele>500.59999999999997</ele><time>2026-04-12T09:18:39Z</time></trkpt><trkpt lat="43.92780038064002" lon="12.210494195743188"><ele>501.79999999999995</ele><time>2026-04-12T09:18:40Z</time></trkpt><trkpt lat="43.927837036004874" lon="12.210597981825378"><ele>503.0</ele><time>2026-04-12T09:18:41Z</time></trkpt><trkpt lat="43.927856372407966" lon="12.210717261886668"><ele>503.0</ele><time>2026-04-12T09:18:42Z</time></trkpt><trkpt lat="43.92786889399308" lon="12.210856853731284"><ele>502.99999999999994</ele><time>2026-04-12T09:18:43Z</time></trkpt><trkpt lat="43.92788045768854" lon="12.211001298339161"><ele>502.99999999999994</ele><time>2026-04-12T09:18:44Z</time></trkpt><trkpt lat="43.92790890416251" lon="12.211148899923574"><ele>503.0</ele><time>2026-04-12T09:18:45Z</time></trkpt><trkpt lat="43.92796153875884" lon="12.211314198646969"><ele>503.0</ele><time>2026-04-12T09:18:46Z</time></trkpt><trkpt lat="43.92802507145689" lon="12.211497175926215"><ele>506.3333333333333</ele><time>2026-04-12T09:18:47Z</time></trkpt><trkpt lat="43.92811122716935" lon="12.211689420948263"><ele>509.66666666666663</ele><time>2026-04-12T09:18:48Z</time></trkpt><trkpt lat="43.92822186722989" lon="12.211892227657637"><ele>513.0</ele><time>2026-04-12T09:18:49Z</time></trkpt><trkpt lat="43.9283050040682" lon="12.212060044952162"><ele>513.0</ele><time>2026-04-12T09:18:50Z</time></trkpt><trkpt lat="43.92836515089496" lon="12.212183774132418"><ele>513.0</ele><time>2026-04-12T09:18:51Z</time></trkpt><trkpt lat="43.92841491696889" lon="12.212285584762675"><ele>513.0</ele><time>2026-04-12T09:18:52Z</time></trkpt><trkpt lat="43.928461147915804" lon="12.212372026960281"><ele>513.0</ele><time>2026-04-12T09:18:53Z</time></trkpt><trkpt lat="43.92850334408857" lon="12.212448499902761"><ele>513.0</ele><time>2026-04-12T09:18:54Z</time></trkpt><trkpt lat="43.92856644588632" lon="12.212588664421718"><ele>514.1999999999999</ele><time>2026-04-12T09:18:56Z</time></trkpt><trkpt lat="43.9286210351662" lon="12.212748583970027"><ele>515.4</ele><time>2026-04-12T09:18:58Z</time></trkpt><trkpt lat="43.928641505180146" lon="12.212841284894122"><ele>516.5999999999999</ele><time>2026-04-12T09:18:59Z</time></trkpt><trkpt lat="43.92865472074384" lon="12.212931161655067"><ele>517.8</ele><time>2026-04-12T09:19:00Z</time></trkpt><trkpt lat="43.92867587975932" lon="12.213090909696465"><ele>519.0</ele><time>2026-04-12T09:19:02Z</time></trkpt><trkpt lat="43.928679182735046" lon="12.213250940138575"><ele>521.0</ele><time>2026-04-12T09:19:04Z</time></trkpt><trkpt lat="43.92866996828324" lon="12.213422597939715"><ele>523.0</ele><time>2026-04-12T09:19:06Z</time></trkpt><trkpt lat="43.928663882451" lon="12.213513010866551"><ele>525.0</ele><time>2026-04-12T09:19:07Z</time></trkpt><trkpt lat="43.92863716163087" lon="12.2136715762942"><ele>527.0</ele><time>2026-04-12T09:19:09Z</time></trkpt><trkpt lat="43.928600332402645" lon="12.213803992084795"><ele>529.0</ele><time>2026-04-12T09:19:11Z</time></trkpt><trkpt lat="43.92858070698615" lon="12.213906647716612"><ele>596.0</ele><time>2026-04-12T09:19:14Z</time></trkpt><trkpt lat="43.92909720383729" lon="12.219258958579843"><ele>596.0</ele><time>2026-04-12T09:22:28.001Z</time></trkpt><trkpt lat="43.92908064186672" lon="12.219392200788118"><ele>596.0</ele><time>2026-04-12T09:22:29.001Z</time></trkpt><trkpt lat="43.92906714489281" lon="12.219531489574225"><ele>596.0</ele><time>2026-04-12T09:22:30.001Z</time></trkpt><trkpt lat="43.92905290485459" lon="12.219672388378562"><ele>596.0</ele><time>2026-04-12T09:22:31.001Z</time></trkpt><trkpt lat="43.929038398566604" lon="12.219812273458132"><ele>596.0</ele><time>2026-04-12T09:22:32.001Z</time></trkpt><trkpt lat="43.92902738384401" lon="12.219936960023974"><ele>597.4</ele><time>2026-04-12T09:22:33.001Z</time></trkpt><trkpt lat="43.92901515328086" lon="12.220061059066229"><ele>598.8</ele><time>2026-04-12T09:22:34.001Z</time></trkpt><trkpt lat="43.92900270290158" lon="12.220182138358062"><ele>600.1999999999999</ele><time>2026-04-12T09:22:35.001Z</time></trkpt><trkpt lat="43.92898770113404" lon="12.220293618555322"><ele>601.6</ele><time>2026-04-12T09:22:36.001Z</time></trkpt><trkpt lat="43.92896389815384" lon="12.220473020182778"><ele>603.0</ele><time>2026-04-12T09:22:38.001Z</time></trkpt><trkpt lat="43.928953361045686" lon="12.22060001270344"><ele>603.0</ele><time>2026-04-12T09:22:40.001Z</time></trkpt><trkpt lat="43.92905490943646" lon="12.220686572755968"><ele>603.0</ele><time>2026-04-12T09:22:52Z</time></trkpt><trkpt lat="43.929127291242644" lon="12.22064700515809"><ele>603.0</ele><time>2026-04-12T09:22:53Z</time></trkpt><trkpt lat="43.92920944716739" lon="12.2206392163164"><ele>603.0</ele><time>2026-04-12T09:22:54Z</time></trkpt><trkpt lat="43.92929283413656" lon="12.220611432980736"><ele>603.0</ele><time>2026-04-12T09:22:55Z</time></trkpt><trkpt lat="43.92937290161722" lon="12.22056709512884"><ele>603.6</ele><time>2026-04-12T09:22:56Z</time></trkpt><trkpt lat="43.92946361742867" lon="12.22054656777932"><ele>604.1999999999999</ele><time>2026-04-12T09:22:57Z</time></trkpt><trkpt lat="43.929560392971695" lon="12.22053785498372"><ele>604.8</ele><time>2026-04-12T09:22:58Z</time></trkpt><trkpt lat="43.92966184206929" lon="12.220564514697726"><ele>605.4</ele><time>2026-04-12T09:22:59Z</time></trkpt><trkpt lat="43.92975574676298" lon="12.22062817704087"><ele>606.0</ele><time>2026-04-12T09:23:00Z</time></trkpt><trkpt lat="43.929846198487176" lon="12.220713548626794"><ele>606.4</ele><time>2026-04-12T09:23:01Z</time></trkpt><trkpt lat="43.929937560156006" lon="12.22081319932942"><ele>606.8</ele><time>2026-04-12T09:23:02Z</time></trkpt><trkpt lat="43.93002495077735" lon="12.220920529956038"><ele>607.1999999999999</ele><time>2026-04-12T09:23:03Z</time></trkpt><trkpt lat="43.93011500151164" lon="12.221016088910424"><ele>607.6</ele><time>2026-04-12T09:23:04Z</time></trkpt><trkpt lat="43.930192580501206" lon="12.221104250694943"><ele>608.0</ele><time>2026-04-12T09:23:05Z</time></trkpt><trkpt lat="43.93026400544659" lon="12.221193032938324"><ele>609.25</ele><time>2026-04-12T09:23:06Z</time></trkpt><trkpt lat="43.930332775312806" lon="12.221294989304901"><ele>610.5</ele><time>2026-04-12T09:23:07Z</time></trkpt><trkpt lat="43.93040965974895" lon="12.221428147455708"><ele>611.75</ele><time>2026-04-12T09:23:08Z</time></trkpt><trkpt lat="43.93049168242403" lon="12.22157868499109"><ele>613.0</ele><time>2026-04-12T09:23:09Z</time></trkpt><trkpt lat="43.93056746005588" lon="12.22173406973988"><ele>613.0</ele><time>2026-04-12T09:23:10Z</time></trkpt><trkpt lat="43.930626273825595" lon="12.221856703971229"><ele>613.0</ele><time>2026-04-12T09:23:11Z</time></trkpt><trkpt lat="43.93070512256448" lon="12.221975877300824"><ele>613.0</ele><time>2026-04-12T09:23:12Z</time></trkpt><trkpt lat="43.93084494934706" lon="12.222155912599243"><ele>613.0</ele><time>2026-04-12T09:23:13Z</time></trkpt><trkpt lat="43.93097397392022" lon="12.222287119296876"><ele>612.25</ele><time>2026-04-12T09:23:14Z</time></trkpt><trkpt lat="43.93108126920607" lon="12.222402439113383"><ele>611.5</ele><time>2026-04-12T09:23:15Z</time></trkpt><trkpt lat="43.9311819364919" lon="12.222494696096453"><ele>610.75</ele><time>2026-04-12T09:23:16Z</time></trkpt><trkpt lat="43.931296711611644" lon="12.222565113543823"><ele>610.0</ele><time>2026-04-12T09:23:17Z</time></trkpt><trkpt lat="43.93140924120024" lon="12.222615387948185"><ele>610.0</ele><time>2026-04-12T09:23:18Z</time></trkpt><trkpt lat="43.93153409538407" lon="12.222639307588626"><ele>610.0</ele><time>2026-04-12T09:23:19Z</time></trkpt><trkpt lat="43.93166626316078" lon="12.222634546565535"><ele>610.0</ele><time>2026-04-12T09:23:20Z</time></trkpt><trkpt lat="43.931812204872784" lon="12.222599855412582"><ele>610.0</ele><time>2026-04-12T09:23:21Z</time></trkpt><trkpt lat="43.93200044004706" lon="12.222537045194326"><ele>606.6666666666667</ele><time>2026-04-12T09:23:22Z</time></trkpt><trkpt lat="43.93217232174239" lon="12.222489636180178"><ele>603.3333333333334</ele><time>2026-04-12T09:23:23Z</time></trkpt><trkpt lat="43.932326727435" lon="12.22246342561608"><ele>600.0</ele><time>2026-04-12T09:23:24Z</time></trkpt><trkpt lat="43.93247354410793" lon="12.222446477997797"><ele>597.6666666666666</ele><time>2026-04-12T09:23:25Z</time></trkpt><trkpt lat="43.932595571271456" lon="12.222434018347753"><ele>595.3333333333333</ele><time>2026-04-12T09:23:26Z</time></trkpt><trkpt lat="43.932700115715065" lon="12.222426036754792"><ele>593.0</ele><time>2026-04-12T09:23:27Z</time></trkpt><trkpt lat="43.93757588237811" lon="12.222601655300267"><ele>589.0</ele><time>2026-04-12T09:24:28.001Z</time></trkpt><trkpt lat="43.937645096870426" lon="12.222702612741344"><ele>585.0</ele><time>2026-04-12T09:24:29.001Z</time></trkpt><trkpt lat="43.937683077217805" lon="12.222827559551673"><ele>581.0</ele><time>2026-04-12T09:24:30.001Z</time></trkpt><trkpt lat="43.937687893549274" lon="12.222961328068253"><ele>577.0</ele><time>2026-04-12T09:24:31.001Z</time></trkpt><trkpt lat="43.93766803435994" lon="12.22307142220297"><ele>573.0</ele><time>2026-04-12T09:24:32.001Z</time></trkpt><trkpt lat="43.93761352733277" lon="12.223147862722787"><ele>573.4</ele><time>2026-04-12T09:24:33.001Z</time></trkpt><trkpt lat="43.93751399158794" lon="12.223168459040501"><ele>573.8</ele><time>2026-04-12T09:24:34.001Z</time></trkpt><trkpt lat="43.93743303359929" lon="12.223246932657139"><ele>574.2</ele><time>2026-04-12T09:24:35.001Z</time></trkpt><trkpt lat="43.93737490437659" lon="12.223335302606648"><ele>574.6</ele><time>2026-04-12T09:24:36.001Z</time></trkpt><trkpt lat="43.93734083002324" lon="12.223450045487638"><ele>575.0</ele><time>2026-04-12T09:24:37.001Z</time></trkpt><trkpt lat="43.93732410144166" lon="12.223581289230621"><ele>575.0</ele><time>2026-04-12T09:24:38.001Z</time></trkpt><trkpt lat="43.93733395824355" lon="12.223706157968435"><ele>575.0</ele><time>2026-04-12T09:24:39.001Z</time></trkpt><trkpt lat="43.93737238026456" lon="12.223810425426262"><ele>575.0</ele><time>2026-04-12T09:24:40.001Z</time></trkpt><trkpt lat="43.937447128999715" lon="12.223911687119909"><ele>575.0</ele><time>2026-04-12T09:24:41.001Z</time></trkpt><trkpt lat="43.937532766429044" lon="12.224037570861775"><ele>575.0</ele><time>2026-04-12T09:24:42.001Z</time></trkpt><trkpt lat="43.937602525440354" lon="12.224151614889172"><ele>571.8333333333333</ele><time>2026-04-12T09:24:43.001Z</time></trkpt><trkpt lat="43.937668684737424" lon="12.224243630010658"><ele>568.6666666666666</ele><time>2026-04-12T09:24:44.001Z</time></trkpt><trkpt lat="43.937727582296965" lon="12.224322886815688"><ele>565.5</ele><time>2026-04-12T09:24:45.001Z</time></trkpt><trkpt lat="43.93777762302442" lon="12.224403272303999"><ele>562.3333333333334</ele><time>2026-04-12T09:24:46.001Z</time></trkpt><trkpt lat="43.93782645140126" lon="12.224467917783327"><ele>559.1666666666667</ele><time>2026-04-12T09:24:47.001Z</time></trkpt><trkpt lat="43.9378169726266" lon="12.224597985222484"><ele>556.0</ele><time>2026-04-12T09:24:49.001Z</time></trkpt><trkpt lat="43.93775771583931" lon="12.224635619104575"><ele>556.0</ele><time>2026-04-12T09:24:50.001Z</time></trkpt><trkpt lat="43.937630217969065" lon="12.224531375393061"><ele>556.0</ele><time>2026-04-12T09:24:52.001Z</time></trkpt><trkpt lat="43.93756499570855" lon="12.224429271121563"><ele>556.0</ele><time>2026-04-12T09:24:53.001Z</time></trkpt><trkpt lat="43.93749021321908" lon="12.224328760092588"><ele>556.0</ele><time>2026-04-12T09:24:54.001Z</time></trkpt><trkpt lat="43.93743959259732" lon="12.224222533107499"><ele>556.0</ele><time>2026-04-12T09:24:55Z</time></trkpt><trkpt lat="43.93739293687421" lon="12.22414030507715"><ele>557.0</ele><time>2026-04-12T09:24:56Z</time></trkpt><trkpt lat="43.93734723004503" lon="12.224078320297599"><ele>558.0</ele><time>2026-04-12T09:24:57Z</time></trkpt><trkpt lat="43.937277077489775" lon="12.22407248179669"><ele>559.0</ele><time>2026-04-12T09:24:58Z</time></trkpt><trkpt lat="43.93721736690104" lon="12.224125477204923"><ele>560.0</ele><time>2026-04-12T09:24:59Z</time></trkpt><trkpt lat="43.937184908619926" lon="12.224227772735599"><ele>561.0</ele><time>2026-04-12T09:25:00Z</time></trkpt><trkpt lat="43.9372063144501" lon="12.224356843179443"><ele>562.0</ele><time>2026-04-12T09:25:01Z</time></trkpt><trkpt lat="43.937275925507784" lon="12.224486303838956"><ele>562.0</ele><time>2026-04-12T09:25:02Z</time></trkpt><trkpt lat="43.937369323774725" lon="12.224596581324974"><ele>562.0</ele><time>2026-04-12T09:25:03Z</time></trkpt><trkpt lat="43.937450650801395" lon="12.224692113680323"><ele>562.0</ele><time>2026-04-12T09:25:04Z</time></trkpt><trkpt lat="43.93751144804693" lon="12.224795419235532"><ele>562.0</ele><time>2026-04-12T09:25:05Z</time></trkpt><trkpt lat="43.9375700653819" lon="12.224891174059014"><ele>562.0</ele><time>2026-04-12T09:25:06Z</time></trkpt><trkpt lat="43.93761368676205" lon="12.225000461081093"><ele>560.1428571428572</ele><time>2026-04-12T09:25:07Z</time></trkpt><trkpt lat="43.93766459654441" lon="12.225091610436209"><ele>558.2857142857143</ele><time>2026-04-12T09:25:08Z</time></trkpt><trkpt lat="43.93771509088207" lon="12.225167506639721"><ele>556.4285714285714</ele><time>2026-04-12T09:25:09Z</time></trkpt><trkpt lat="43.93777330233723" lon="12.225210209446418"><ele>554.5714285714287</ele><time>2026-04-12T09:25:10Z</time></trkpt><trkpt lat="43.9378459564985" lon="12.225223689373903"><ele>552.7142857142858</ele><time>2026-04-12T09:25:11Z</time></trkpt><trkpt lat="43.937914552901184" lon="12.225214148248346"><ele>550.8571428571429</ele><time>2026-04-12T09:25:12Z</time></trkpt><trkpt lat="43.93798465680819" lon="12.225187382396962"><ele>549.0</ele><time>2026-04-12T09:25:13Z</time></trkpt><trkpt lat="43.938045723646184" lon="12.225165894075039"><ele>549.0</ele><time>2026-04-12T09:25:14Z</time></trkpt><trkpt lat="43.938129204330075" lon="12.225183128940493"><ele>549.0</ele><time>2026-04-12T09:25:16Z</time></trkpt><trkpt lat="43.938161750360045" lon="12.22528091878519"><ele>549.0</ele><time>2026-04-12T09:25:17Z</time></trkpt><trkpt lat="43.9382061479321" lon="12.225425854537637"><ele>549.0</ele><time>2026-04-12T09:25:19Z</time></trkpt><trkpt lat="43.93822127168409" lon="12.225555800860239"><ele>549.0</ele><time>2026-04-12T09:25:21Z</time></trkpt><trkpt lat="43.93820953239298" lon="12.225642575275412"><ele>549.0</ele><time>2026-04-12T09:25:23Z</time></trkpt><trkpt lat="43.93728974287493" lon="12.22959567900964"><ele>542.6666666666666</ele><time>2026-04-12T09:27:28Z</time></trkpt><trkpt lat="43.937256993904555" lon="12.229696570626201"><ele>536.3333333333334</ele><time>2026-04-12T09:27:29Z</time></trkpt><trkpt lat="43.93722066582321" lon="12.229795436924071"><ele>530.0</ele><time>2026-04-12T09:27:30Z</time></trkpt><trkpt lat="43.93720652168462" lon="12.22988099484351"><ele>523.6666666666667</ele><time>2026-04-12T09:27:31Z</time></trkpt><trkpt lat="43.937185678092504" lon="12.229966266660218"><ele>517.3333333333334</ele><time>2026-04-12T09:27:32Z</time></trkpt><trkpt lat="43.93714062070346" lon="12.230121135072224"><ele>511.0</ele><time>2026-04-12T09:27:34Z</time></trkpt><trkpt lat="43.93711487875536" lon="12.230208172636548"><ele>510.33333333333337</ele><time>2026-04-12T09:27:35Z</time></trkpt><trkpt lat="43.93709705258446" lon="12.230304809851678"><ele>509.6666666666667</ele><time>2026-04-12T09:27:36Z</time></trkpt><trkpt lat="43.93708728318312" lon="12.230396261188783"><ele>509.0</ele><time>2026-04-12T09:27:37Z</time></trkpt><trkpt lat="43.937093149267575" lon="12.23049093139809"><ele>508.33333333333337</ele><time>2026-04-12T09:27:38Z</time></trkpt><trkpt lat="43.937117700955696" lon="12.23059058381921"><ele>507.6666666666667</ele><time>2026-04-12T09:27:39Z</time></trkpt><trkpt lat="43.93714888781317" lon="12.230694303114669"><ele>507.0</ele><time>2026-04-12T09:27:40Z</time></trkpt><trkpt lat="43.93717140640023" lon="12.230809702915309"><ele>505.40000000000003</ele><time>2026-04-12T09:27:41Z</time></trkpt><trkpt lat="43.937186698524066" lon="12.230914735027698"><ele>503.80000000000007</ele><time>2026-04-12T09:27:42Z</time></trkpt><trkpt lat="43.93717841999801" lon="12.231054379736486"><ele>502.2</ele><time>2026-04-12T09:27:43Z</time></trkpt><trkpt lat="43.93714754163275" lon="12.231199697368805"><ele>500.6</ele><time>2026-04-12T09:27:44Z</time></trkpt><trkpt lat="43.937111813214564" lon="12.231353776317613"><ele>499.0</ele><time>2026-04-12T09:27:45Z</time></trkpt><trkpt lat="43.937078148117834" lon="12.23152301303946"><ele>498.2</ele><time>2026-04-12T09:27:46Z</time></trkpt><trkpt lat="43.937048117688846" lon="12.23167426359055"><ele>497.4</ele><time>2026-04-12T09:27:47Z</time></trkpt><trkpt lat="43.93701487881614" lon="12.23181953298283"><ele>496.6</ele><time>2026-04-12T09:27:48Z</time></trkpt><trkpt lat="43.936986336494456" lon="12.231959833145902"><ele>495.8</ele><time>2026-04-12T09:27:49Z</time></trkpt><trkpt lat="43.93696041360796" lon="12.232100468795075"><ele>495.0</ele><time>2026-04-12T09:27:50Z</time></trkpt><trkpt lat="43.93693240799987" lon="12.232234833558406"><ele>493.6666666666667</ele><time>2026-04-12T09:27:51Z</time></trkpt><trkpt lat="43.93690707120454" lon="12.232364131845095"><ele>492.33333333333337</ele><time>2026-04-12T09:27:52Z</time></trkpt><trkpt lat="43.93688617634643" lon="12.232488048779622"><ele>491.0</ele><time>2026-04-12T09:27:53Z</time></trkpt><trkpt lat="43.93686848802415" lon="12.232594957398232"><ele>489.6666666666667</ele><time>2026-04-12T09:27:54Z</time></trkpt><trkpt lat="43.93685220893133" lon="12.232697984938307"><ele>488.33333333333337</ele><time>2026-04-12T09:27:55Z</time></trkpt><trkpt lat="43.93683900776706" lon="12.232791084295824"><ele>487.0</ele><time>2026-04-12T09:27:56Z</time></trkpt><trkpt lat="43.9368116446665" lon="12.23291164380054"><ele>487.0</ele><time>2026-04-12T09:27:58Z</time></trkpt><trkpt lat="43.93672187215016" lon="12.23295090636686"><ele>487.00000000000006</ele><time>2026-04-12T09:28:00Z</time></trkpt><trkpt lat="43.93663020472575" lon="12.232855134580221"><ele>487.00000000000006</ele><time>2026-04-12T09:28:02Z</time></trkpt><trkpt lat="43.93664231115633" lon="12.232737318275179"><ele>487.0</ele><time>2026-04-12T09:28:03Z</time></trkpt><trkpt lat="43.936594065972464" lon="12.232596776032803"><ele>487.0</ele><time>2026-04-12T09:28:05Z</time></trkpt><trkpt lat="43.93652686646743" lon="12.232489704133803"><ele>485.00000000000006</ele><time>2026-04-12T09:28:07Z</time></trkpt><trkpt lat="43.936447088063254" lon="12.23248142393459"><ele>483.0</ele><time>2026-04-12T09:28:08Z</time></trkpt><trkpt lat="43.93637952150003" lon="12.232514785863257"><ele>481.0</ele><time>2026-04-12T09:28:09Z</time></trkpt><trkpt lat="43.93632553500426" lon="12.23258876908534"><ele>479.0</ele><time>2026-04-12T09:28:10Z</time></trkpt><trkpt lat="43.93630067842772" lon="12.232706517082876"><ele>477.00000000000006</ele><time>2026-04-12T09:28:11Z</time></trkpt><trkpt lat="43.936272462443284" lon="12.232795209751904"><ele>475.0</ele><time>2026-04-12T09:28:12Z</time></trkpt><trkpt lat="43.93622034172044" lon="12.232947745199253"><ele>475.00000000000006</ele><time>2026-04-12T09:28:14Z</time></trkpt><trkpt lat="43.93620838531099" lon="12.233040871535794"><ele>475.0</ele><time>2026-04-12T09:28:15Z</time></trkpt><trkpt lat="43.9361994446875" lon="12.233144721768797"><ele>475.0</ele><time>2026-04-12T09:28:16Z</time></trkpt><trkpt lat="43.93620393666295" lon="12.233245959566712"><ele>475.0</ele><time>2026-04-12T09:28:17Z</time></trkpt><trkpt lat="43.93622710558124" lon="12.233338130619948"><ele>475.00000000000006</ele><time>2026-04-12T09:28:18Z</time></trkpt><trkpt lat="43.93627277226038" lon="12.23344774365682"><ele>475.0</ele><time>2026-04-12T09:28:19Z</time></trkpt><trkpt lat="43.936335142922694" lon="12.23355627053512"><ele>474.0</ele><time>2026-04-12T09:28:20Z</time></trkpt><trkpt lat="43.936399345102636" lon="12.2336653895456"><ele>473.0</ele><time>2026-04-12T09:28:21Z</time></trkpt><trkpt lat="43.936462935238936" lon="12.233771415671432"><ele>472.0</ele><time>2026-04-12T09:28:22Z</time></trkpt><trkpt lat="43.936532596091006" lon="12.233865285355904"><ele>471.0</ele><time>2026-04-12T09:28:23Z</time></trkpt><trkpt lat="43.93657837071809" lon="12.233968004860408"><ele>470.0</ele><time>2026-04-12T09:28:24Z</time></trkpt><trkpt lat="43.93662014988356" lon="12.234042881442736"><ele>464.0</ele><time>2026-04-12T09:28:25Z</time></trkpt><trkpt lat="43.936661790339684" lon="12.234117508775144"><ele>458.0</ele><time>2026-04-12T09:28:26Z</time></trkpt><trkpt lat="43.93554382260777" lon="12.235058334284695"><ele>454.57142857142856</ele><time>2026-04-12T09:29:28Z</time></trkpt><trkpt lat="43.935466097013496" lon="12.235039406459387"><ele>451.14285714285717</ele><time>2026-04-12T09:29:29Z</time></trkpt><trkpt lat="43.935391677369324" lon="12.235022422487114"><ele>447.7142857142857</ele><time>2026-04-12T09:29:30Z</time></trkpt><trkpt lat="43.9353214975735" lon="12.235003623854194"><ele>444.2857142857143</ele><time>2026-04-12T09:29:31Z</time></trkpt><trkpt lat="43.935246626889615" lon="12.234991465503013"><ele>440.8571428571429</ele><time>2026-04-12T09:29:32Z</time></trkpt><trkpt lat="43.93517746217576" lon="12.234979312490767"><ele>437.42857142857144</ele><time>2026-04-12T09:29:33Z</time></trkpt><trkpt lat="43.93510912340056" lon="12.234962371470571"><ele>434.0</ele><time>2026-04-12T09:29:34Z</time></trkpt><trkpt lat="43.93503925148851" lon="12.23492736020466"><ele>433.8333333333333</ele><time>2026-04-12T09:29:35Z</time></trkpt><trkpt lat="43.93496153033141" lon="12.234928738520074"><ele>433.66666666666663</ele><time>2026-04-12T09:29:36Z</time></trkpt><trkpt lat="43.93489697461834" lon="12.234913172852849"><ele>433.5</ele><time>2026-04-12T09:29:37Z</time></trkpt><trkpt lat="43.93479036950636" lon="12.234862386681995"><ele>433.33333333333337</ele><time>2026-04-12T09:29:39Z</time></trkpt><trkpt lat="43.934671470272825" lon="12.234829175201623"><ele>433.1666666666667</ele><time>2026-04-12T09:29:41Z</time></trkpt><trkpt lat="43.934604951489646" lon="12.234810187762472"><ele>433.0</ele><time>2026-04-12T09:29:42Z</time></trkpt><trkpt lat="43.93454154623205" lon="12.234792088949046"><ele>433.00000000000006</ele><time>2026-04-12T09:29:43Z</time></trkpt><trkpt lat="43.934473034565634" lon="12.234799980962423"><ele>433.0</ele><time>2026-04-12T09:29:44Z</time></trkpt><trkpt lat="43.93436976123631" lon="12.234775631410749"><ele>433.0</ele><time>2026-04-12T09:29:46Z</time></trkpt><trkpt lat="43.9342845523986" lon="12.234768610677747"><ele>433.0</ele><time>2026-04-12T09:29:48Z</time></trkpt><trkpt lat="43.93421018720701" lon="12.234795065459592"><ele>433.00000000000006</ele><time>2026-04-12T09:29:50Z</time></trkpt><trkpt lat="43.93416786395211" lon="12.23487996093218"><ele>433.0</ele><time>2026-04-12T09:29:52Z</time></trkpt><trkpt lat="43.93412921365926" lon="12.23495139425845"><ele>429.4</ele><time>2026-04-12T09:29:54Z</time></trkpt><trkpt lat="43.934139049455034" lon="12.235041140255387"><ele>425.79999999999995</ele><time>2026-04-12T09:29:58Z</time></trkpt><trkpt lat="43.93414795621495" lon="12.235158232629018"><ele>422.2</ele><time>2026-04-12T09:30:12Z</time></trkpt><trkpt lat="43.934154786719134" lon="12.235248030807227"><ele>418.6</ele><time>2026-04-12T09:30:14Z</time></trkpt><trkpt lat="43.93396278451839" lon="12.235409441681963"><ele>415.0</ele><time>2026-04-12T09:30:17Z</time></trkpt><trkpt lat="43.93392321485386" lon="12.235517793167519"><ele>415.0</ele><time>2026-04-12T09:30:19Z</time></trkpt><trkpt lat="43.93388307980592" lon="12.235614936563012"><ele>415.0</ele><time>2026-04-12T09:30:21Z</time></trkpt><trkpt lat="43.9338530204695" lon="12.235713801220605"><ele>415.0</ele><time>2026-04-12T09:30:23Z</time></trkpt><trkpt lat="43.93380326814052" lon="12.235838765359036"><ele>415.0</ele><time>2026-04-12T09:30:25Z</time></trkpt><trkpt lat="43.93376378661762" lon="12.235960697089544"><ele>415.0</ele><time>2026-04-12T09:30:27Z</time></trkpt><trkpt lat="43.93312899370586" lon="12.237549764404026"><ele>388.0</ele><time>2026-04-12T09:31:28Z</time></trkpt><trkpt lat="43.93188382971828" lon="12.237468710717408"><ele>388.00000000000006</ele><time>2026-04-12T09:33:27.999Z</time></trkpt><trkpt lat="43.93183983319834" lon="12.237532614167337"><ele>388.0</ele><time>2026-04-12T09:33:28.999Z</time></trkpt><trkpt lat="43.93175818753362" lon="12.237600980886146"><ele>388.0</ele><time>2026-04-12T09:33:30.999Z</time></trkpt><trkpt lat="43.93168925729337" lon="12.237608758114028"><ele>388.0</ele><time>2026-04-12T09:33:34.999Z</time></trkpt><trkpt lat="43.9316514723745" lon="12.237516256013388"><ele>388.00000000000006</ele><time>2026-04-12T09:33:43.999Z</time></trkpt><trkpt lat="43.93158518822215" lon="12.237447911841489"><ele>388.0</ele><time>2026-04-12T09:33:46.999Z</time></trkpt><trkpt lat="43.93152753986907" lon="12.23752286209819"><ele>392.0</ele><time>2026-04-12T09:33:48.999Z</time></trkpt><trkpt lat="43.93290255119896" lon="12.237982712012675"><ele>392.0</ele><time>2026-04-12T09:38:28.001Z</time></trkpt><trkpt lat="43.9329715584735" lon="12.237845008358196"><ele>392.0</ele><time>2026-04-12T09:38:30.001Z</time></trkpt><trkpt lat="43.93301555743764" lon="12.237763490362369"><ele>392.0</ele><time>2026-04-12T09:38:31.001Z</time></trkpt><trkpt lat="43.93310002280737" lon="12.237635481022895"><ele>392.0</ele><time>2026-04-12T09:38:33.001Z</time></trkpt><trkpt lat="43.93315145382014" lon="12.237560245675839"><ele>392.0</ele><time>2026-04-12T09:38:34.001Z</time></trkpt><trkpt lat="43.9331789022341" lon="12.237452592413932"><ele>392.0</ele><time>2026-04-12T09:38:35.001Z</time></trkpt><trkpt lat="43.93321817786711" lon="12.237351246913859"><ele>392.0</ele><time>2026-04-12T09:38:36.001Z</time></trkpt><trkpt lat="43.93326294043678" lon="12.237253228241428"><ele>392.0</ele><time>2026-04-12T09:38:37.001Z</time></trkpt><trkpt lat="43.93333003426519" lon="12.237130180074427"><ele>392.0</ele><time>2026-04-12T09:38:39.001Z</time></trkpt><trkpt lat="43.93337691263979" lon="12.237048313598935"><ele>392.0</ele><time>2026-04-12T09:38:42.001Z</time></trkpt><trkpt lat="43.93342519607254" lon="12.236925609878154"><ele>393.8333333333333</ele><time>2026-04-12T09:38:45.001Z</time></trkpt><trkpt lat="43.93345426876452" lon="12.236839913714372"><ele>395.66666666666663</ele><time>2026-04-12T09:38:46.001Z</time></trkpt><trkpt lat="43.93348296507374" lon="12.236759129293171"><ele>397.5</ele><time>2026-04-12T09:38:47.001Z</time></trkpt><trkpt lat="43.93352546557411" lon="12.236650946579308"><ele>399.33333333333337</ele><time>2026-04-12T09:38:49.001Z</time></trkpt><trkpt lat="43.93356477258039" lon="12.236541551788894"><ele>401.1666666666667</ele><time>2026-04-12T09:38:51.001Z</time></trkpt><trkpt lat="43.93360888643332" lon="12.236428673016135"><ele>403.0</ele><time>2026-04-12T09:38:53.001Z</time></trkpt><trkpt lat="43.93365839744567" lon="12.236291301616252"><ele>404.4</ele><time>2026-04-12T09:38:55.001Z</time></trkpt><trkpt lat="43.93368785067487" lon="12.236205167998323"><ele>405.79999999999995</ele><time>2026-04-12T09:38:56.001Z</time></trkpt><trkpt lat="43.93371607577349" lon="12.236059487888026"><ele>407.2</ele><time>2026-04-12T09:38:58.001Z</time></trkpt><trkpt lat="43.93376191125654" lon="12.235905543969267"><ele>408.6</ele><time>2026-04-12T09:39:00.001Z</time></trkpt><trkpt lat="43.933803049906025" lon="12.235806572070919"><ele>410.0</ele><time>2026-04-12T09:39:01.001Z</time></trkpt><trkpt lat="43.933858200258186" lon="12.235651650236273"><ele>410.8333333333333</ele><time>2026-04-12T09:39:03.001Z</time></trkpt><trkpt lat="43.933890910725026" lon="12.235572373863485"><ele>411.66666666666663</ele><time>2026-04-12T09:39:04.001Z</time></trkpt><trkpt lat="43.93392494060978" lon="12.235484188857699"><ele>412.5</ele><time>2026-04-12T09:39:05.001Z</time></trkpt><trkpt lat="43.9339610189354" lon="12.235393339658842"><ele>413.33333333333337</ele><time>2026-04-12T09:39:06.001Z</time></trkpt><trkpt lat="43.933997015094675" lon="12.235308786966693"><ele>414.1666666666667</ele><time>2026-04-12T09:39:07.001Z</time></trkpt><trkpt lat="43.93403201043201" lon="12.235226741155007"><ele>415.0</ele><time>2026-04-12T09:39:08.001Z</time></trkpt><trkpt lat="43.93408533295881" lon="12.23509482239967"><ele>415.0</ele><time>2026-04-12T09:39:10.001Z</time></trkpt><trkpt lat="43.934140935034364" lon="12.235040917428629"><ele>415.0</ele><time>2026-04-12T09:39:13.001Z</time></trkpt><trkpt lat="43.934168037238145" lon="12.234938756617932"><ele>415.0</ele><time>2026-04-12T09:39:24.001Z</time></trkpt><trkpt lat="43.93418886669895" lon="12.234837642512328"><ele>415.0</ele><time>2026-04-12T09:39:26.001Z</time></trkpt><trkpt lat="43.937761470131576" lon="12.235606588860808"><ele>420.14285714285717</ele><time>2026-04-12T09:40:28.001Z</time></trkpt><trkpt lat="43.93770612323862" lon="12.235536075270316"><ele>425.28571428571433</ele><time>2026-04-12T09:40:29.001Z</time></trkpt><trkpt lat="43.93766018028635" lon="12.235462060975554"><ele>430.42857142857144</ele><time>2026-04-12T09:40:30.001Z</time></trkpt><trkpt lat="43.93759821247507" lon="12.2354029934442"><ele>435.57142857142856</ele><time>2026-04-12T09:40:31.001Z</time></trkpt><trkpt lat="43.93755779417581" lon="12.23532137699186"><ele>440.7142857142857</ele><time>2026-04-12T09:40:32.001Z</time></trkpt><trkpt lat="43.93749794578828" lon="12.23523825336417"><ele>445.85714285714283</ele><time>2026-04-12T09:40:33.001Z</time></trkpt><trkpt lat="43.93745528004062" lon="12.235168519852856"><ele>451.0</ele><time>2026-04-12T09:40:34.001Z</time></trkpt><trkpt lat="43.93741059491848" lon="12.235048424092765"><ele>451.0</ele><time>2026-04-12T09:40:36.001Z</time></trkpt><trkpt lat="43.93735359336923" lon="12.23489988329932"><ele>451.0</ele><time>2026-04-12T09:40:38.001Z</time></trkpt><trkpt lat="43.937348348038235" lon="12.234789807375137"><ele>451.0</ele><time>2026-04-12T09:40:39.001Z</time></trkpt><trkpt lat="43.93731283988881" lon="12.23467692257271"><ele>451.0</ele><time>2026-04-12T09:40:40.001Z</time></trkpt><trkpt lat="43.93727475066867" lon="12.234570414394693"><ele>451.0</ele><time>2026-04-12T09:40:41.001Z</time></trkpt><trkpt lat="43.93723556039698" lon="12.234475977437082"><ele>453.00000000000006</ele><time>2026-04-12T09:40:42.001Z</time></trkpt><trkpt lat="43.937209930444965" lon="12.234375429430996"><ele>455.0</ele><time>2026-04-12T09:40:43.001Z</time></trkpt><trkpt lat="43.937188180443265" lon="12.234279066050524"><ele>457.0</ele><time>2026-04-12T09:40:44.001Z</time></trkpt><trkpt lat="43.937160194441695" lon="12.234194133980981"><ele>459.0</ele><time>2026-04-12T09:40:45.001Z</time></trkpt><trkpt lat="43.93706368375113" lon="12.234106051763355"><ele>461.00000000000006</ele><time>2026-04-12T09:40:47.001Z</time></trkpt><trkpt lat="43.93697999372386" lon="12.234097654065623"><ele>463.0</ele><time>2026-04-12T09:40:48.001Z</time></trkpt><trkpt lat="43.93690360305915" lon="12.234132966432094"><ele>463.0</ele><time>2026-04-12T09:40:49.001Z</time></trkpt><trkpt lat="43.936833836195234" lon="12.234164894160738"><ele>462.99999999999994</ele><time>2026-04-12T09:40:50.001Z</time></trkpt><trkpt lat="43.936729152393085" lon="12.234138557555735"><ele>462.99999999999994</ele><time>2026-04-12T09:40:52.001Z</time></trkpt><trkpt lat="43.93665042563562" lon="12.234057835701234"><ele>463.0</ele><time>2026-04-12T09:40:54.001Z</time></trkpt><trkpt lat="43.93658792755219" lon="12.233909736368721"><ele>463.0</ele><time>2026-04-12T09:40:56.001Z</time></trkpt><trkpt lat="43.93654041023536" lon="12.233824576039313"><ele>464.1666666666667</ele><time>2026-04-12T09:40:57.001Z</time></trkpt><trkpt lat="43.93647593027631" lon="12.233742249001809"><ele>465.33333333333337</ele><time>2026-04-12T09:40:58.001Z</time></trkpt><trkpt lat="43.93642812643428" lon="12.233646741813029"><ele>466.5</ele><time>2026-04-12T09:40:59.001Z</time></trkpt><trkpt lat="43.93637456548986" lon="12.233573186121724"><ele>467.66666666666663</ele><time>2026-04-12T09:41:00.001Z</time></trkpt><trkpt lat="43.93633569581935" lon="12.233488754061703"><ele>468.8333333333333</ele><time>2026-04-12T09:41:01.001Z</time></trkpt><trkpt lat="43.93628771408054" lon="12.233412288595824"><ele>470.0</ele><time>2026-04-12T09:41:02.001Z</time></trkpt><trkpt lat="43.93625550918515" lon="12.233325871615893"><ele>470.0</ele><time>2026-04-12T09:41:03.001Z</time></trkpt><trkpt lat="43.93622790120824" lon="12.23324101265433"><ele>470.0</ele><time>2026-04-12T09:41:04.001Z</time></trkpt><trkpt lat="43.9362179966871" lon="12.23314054555716"><ele>470.0</ele><time>2026-04-12T09:41:05.001Z</time></trkpt><trkpt lat="43.9362287553786" lon="12.233022930469957"><ele>470.0</ele><time>2026-04-12T09:41:06.001Z</time></trkpt><trkpt lat="43.93625510638207" lon="12.232906850307241"><ele>470.0</ele><time>2026-04-12T09:41:07.001Z</time></trkpt><trkpt lat="43.93633033918232" lon="12.232705770195736"><ele>471.0</ele><time>2026-04-12T09:41:09.001Z</time></trkpt><trkpt lat="43.93636651104859" lon="12.232621001789594"><ele>472.0</ele><time>2026-04-12T09:41:10.001Z</time></trkpt><trkpt lat="43.93645589708547" lon="12.232541306758295"><ele>473.0</ele><time>2026-04-12T09:41:12.001Z</time></trkpt><trkpt lat="43.93655097604878" lon="12.232569273616937"><ele>474.0</ele><time>2026-04-12T09:41:14.001Z</time></trkpt><trkpt lat="43.936610540353534" lon="12.232710831468578"><ele>475.0</ele><time>2026-04-12T09:41:16.001Z</time></trkpt><trkpt lat="43.93662722805105" lon="12.23280128862925"><ele>475.0</ele><time>2026-04-12T09:41:17.001Z</time></trkpt><trkpt lat="43.936660407857914" lon="12.232960603780818"><ele>475.0</ele><time>2026-04-12T09:41:19.001Z</time></trkpt><trkpt lat="43.93672628306502" lon="12.2329867391706"><ele>475.0</ele><time>2026-04-12T09:41:20.001Z</time></trkpt><trkpt lat="43.93681650217036" lon="12.232950491704667"><ele>475.0</ele><time>2026-04-12T09:41:22.001Z</time></trkpt><trkpt lat="43.93686046164601" lon="12.232879594434754"><ele>475.0</ele><time>2026-04-12T09:41:25.001Z</time></trkpt><trkpt lat="43.936881647979334" lon="12.232701754599155"><ele>550.0</ele><time>2026-04-12T09:41:27.001Z</time></trkpt><trkpt lat="43.93716160135338" lon="12.225571494135895"><ele>550.0</ele><time>2026-04-12T09:42:28Z</time></trkpt><trkpt lat="43.937164765699045" lon="12.225426655877945"><ele>550.0</ele><time>2026-04-12T09:42:30Z</time></trkpt><trkpt lat="43.937275867914586" lon="12.22538118146519"><ele>550.0</ele><time>2026-04-12T09:42:32Z</time></trkpt><trkpt lat="43.937336988291605" lon="12.225412956793308"><ele>550.0</ele><time>2026-04-12T09:42:33Z</time></trkpt><trkpt lat="43.93737405054398" lon="12.225504784110765"><ele>550.0</ele><time>2026-04-12T09:42:34Z</time></trkpt><trkpt lat="43.93744394278658" lon="12.225574865765084"><ele>550.0</ele><time>2026-04-12T09:42:35Z</time></trkpt><trkpt lat="43.93751819567587" lon="12.225618737391907"><ele>549.8333333333334</ele><time>2026-04-12T09:42:36Z</time></trkpt><trkpt lat="43.93758857554945" lon="12.225662011162125"><ele>549.6666666666667</ele><time>2026-04-12T09:42:37Z</time></trkpt><trkpt lat="43.93766576530252" lon="12.225680466337824"><ele>549.5</ele><time>2026-04-12T09:42:38Z</time></trkpt><trkpt lat="43.93774494242668" lon="12.225680828128331"><ele>549.3333333333334</ele><time>2026-04-12T09:42:39Z</time></trkpt><trkpt lat="43.93782040982299" lon="12.225661655125464"><ele>549.1666666666666</ele><time>2026-04-12T09:42:40Z</time></trkpt><trkpt lat="43.93789131354578" lon="12.22564579154826"><ele>549.0</ele><time>2026-04-12T09:42:41Z</time></trkpt><trkpt lat="43.93796255021517" lon="12.225639691508963"><ele>549.0</ele><time>2026-04-12T09:42:42Z</time></trkpt><trkpt lat="43.93802626063767" lon="12.225638480074995"><ele>549.0</ele><time>2026-04-12T09:42:43Z</time></trkpt><trkpt lat="43.9380910516594" lon="12.22563124060769"><ele>549.0</ele><time>2026-04-12T09:42:44Z</time></trkpt><trkpt lat="43.93819096791634" lon="12.22563240653911"><ele>549.0</ele><time>2026-04-12T09:42:46Z</time></trkpt><trkpt lat="43.93822880545589" lon="12.225781426838752"><ele>549.0</ele><time>2026-04-12T09:43:13Z</time></trkpt><trkpt lat="43.938221305821735" lon="12.225887422198898"><ele>549.0</ele><time>2026-04-12T09:43:14Z</time></trkpt><trkpt lat="43.93820561026521" lon="12.22599777926521"><ele>548.2</ele><time>2026-04-12T09:43:15Z</time></trkpt><trkpt lat="43.938215365325476" lon="12.226111342040252"><ele>547.4</ele><time>2026-04-12T09:43:16Z</time></trkpt><trkpt lat="43.938240490109884" lon="12.226234004954232"><ele>546.6</ele><time>2026-04-12T09:43:17Z</time></trkpt><trkpt lat="43.938277359773195" lon="12.226363766903534"><ele>545.8</ele><time>2026-04-12T09:43:18Z</time></trkpt><trkpt lat="43.938331248081134" lon="12.226499300825061"><ele>545.0</ele><time>2026-04-12T09:43:19Z</time></trkpt><trkpt lat="43.93839052472321" lon="12.226642748608407"><ele>544.0</ele><time>2026-04-12T09:43:20Z</time></trkpt><trkpt lat="43.93844217414791" lon="12.226777742286105"><ele>543.0</ele><time>2026-04-12T09:43:21Z</time></trkpt><trkpt lat="43.938503510285955" lon="12.22689105476362"><ele>542.0</ele><time>2026-04-12T09:43:22Z</time></trkpt><trkpt lat="43.938595002910525" lon="12.226987867818375"><ele>541.0</ele><time>2026-04-12T09:43:23Z</time></trkpt><trkpt lat="43.93869587617189" lon="12.227072591981306"><ele>540.0</ele><time>2026-04-12T09:43:24Z</time></trkpt><trkpt lat="43.93878577236364" lon="12.22712920922426"><ele>540.0</ele><time>2026-04-12T09:43:25Z</time></trkpt><trkpt lat="43.93886978925016" lon="12.227162183183069"><ele>540.0</ele><time>2026-04-12T09:43:26Z</time></trkpt><trkpt lat="43.93895098164864" lon="12.227154369813093"><ele>540.0</ele><time>2026-04-12T09:43:27Z</time></trkpt><trkpt lat="43.946230335326725" lon="12.228414146052673"><ele>532.6666666666666</ele><time>2026-04-12T09:44:28Z</time></trkpt><trkpt lat="43.94641198644354" lon="12.228323118317059"><ele>525.3333333333333</ele><time>2026-04-12T09:44:29Z</time></trkpt><trkpt lat="43.94660247467863" lon="12.228273437768197"><ele>518.0</ele><time>2026-04-12T09:44:30Z</time></trkpt><trkpt lat="43.94679418593136" lon="12.228248224395594"><ele>514.0</ele><time>2026-04-12T09:44:31Z</time></trkpt><trkpt lat="43.946954016890416" lon="12.228234623999061"><ele>510.0</ele><time>2026-04-12T09:44:32Z</time></trkpt><trkpt lat="43.947106961767915" lon="12.22821530901458"><ele>506.0</ele><time>2026-04-12T09:44:33Z</time></trkpt><trkpt lat="43.94726726132967" lon="12.22818764071083"><ele>507.3333333333333</ele><time>2026-04-12T09:44:34Z</time></trkpt><trkpt lat="43.94742634809049" lon="12.22813368006594"><ele>508.66666666666663</ele><time>2026-04-12T09:44:35Z</time></trkpt><trkpt lat="43.94756601257917" lon="12.228065378674568"><ele>510.0</ele><time>2026-04-12T09:44:36Z</time></trkpt><trkpt lat="43.94769635782259" lon="12.227973142507482"><ele>510.0</ele><time>2026-04-12T09:44:37Z</time></trkpt><trkpt lat="43.94781514044614" lon="12.22783261001831"><ele>510.0</ele><time>2026-04-12T09:44:38Z</time></trkpt><trkpt lat="43.94791500361663" lon="12.227703771987754"><ele>510.0</ele><time>2026-04-12T09:44:39Z</time></trkpt><trkpt lat="43.94801453390195" lon="12.227608573801861"><ele>510.0</ele><time>2026-04-12T09:44:40Z</time></trkpt><trkpt lat="43.948134623973246" lon="12.227556145726211"><ele>510.0</ele><time>2026-04-12T09:44:41Z</time></trkpt><trkpt lat="43.94826940461978" lon="12.22753991987769"><ele>510.0</ele><time>2026-04-12T09:44:42Z</time></trkpt><trkpt lat="43.948414014349034" lon="12.227558405950587"><ele>510.0</ele><time>2026-04-12T09:44:43Z</time></trkpt><trkpt lat="43.948550778618575" lon="12.227605080578316"><ele>510.0</ele><time>2026-04-12T09:44:44Z</time></trkpt><trkpt lat="43.94868353870829" lon="12.22767828794271"><ele>509.0</ele><time>2026-04-12T09:44:45Z</time></trkpt><trkpt lat="43.948812382664705" lon="12.227793994717699"><ele>508.0</ele><time>2026-04-12T09:44:46Z</time></trkpt><trkpt lat="43.94892236587583" lon="12.227943553947716"><ele>507.0</ele><time>2026-04-12T09:44:47Z</time></trkpt><trkpt lat="43.94902150213995" lon="12.22809114424502"><ele>506.33333333333337</ele><time>2026-04-12T09:44:48Z</time></trkpt><trkpt lat="43.949135620629306" lon="12.228210255555274"><ele>505.6666666666667</ele><time>2026-04-12T09:44:49Z</time></trkpt><trkpt lat="43.94927203263357" lon="12.228303444675056"><ele>505.0</ele><time>2026-04-12T09:44:50Z</time></trkpt><trkpt lat="43.94942606793518" lon="12.228388122095316"><ele>505.0</ele><time>2026-04-12T09:44:51Z</time></trkpt><trkpt lat="43.94959963623344" lon="12.228469817606776"><ele>505.0</ele><time>2026-04-12T09:44:52Z</time></trkpt><trkpt lat="43.94975666631459" lon="12.22854176688218"><ele>505.0</ele><time>2026-04-12T09:44:53Z</time></trkpt><trkpt lat="43.94989218704275" lon="12.228601170893235"><ele>505.0</ele><time>2026-04-12T09:44:54Z</time></trkpt><trkpt lat="43.95003627414801" lon="12.228646713860558"><ele>505.0</ele><time>2026-04-12T09:44:55Z</time></trkpt><trkpt lat="43.950206680124225" lon="12.228661577192346"><ele>505.0</ele><time>2026-04-12T09:44:56Z</time></trkpt><trkpt lat="43.95037296377899" lon="12.228644893908681"><ele>503.5</ele><time>2026-04-12T09:44:57Z</time></trkpt><trkpt lat="43.950511114177964" lon="12.228614381697108"><ele>502.0</ele><time>2026-04-12T09:44:58Z</time></trkpt><trkpt lat="43.95063650871661" lon="12.228593914364042"><ele>500.5</ele><time>2026-04-12T09:44:59Z</time></trkpt><trkpt lat="43.950758508998106" lon="12.228565756922608"><ele>499.0</ele><time>2026-04-12T09:45:00Z</time></trkpt><trkpt lat="43.95088587295122" lon="12.228539596685312"><ele>499.0</ele><time>2026-04-12T09:45:01Z</time></trkpt><trkpt lat="43.95101557770126" lon="12.228555910575155"><ele>499.0</ele><time>2026-04-12T09:45:02Z</time></trkpt><trkpt lat="43.951143520448234" lon="12.228529716257942"><ele>499.0</ele><time>2026-04-12T09:45:03Z</time></trkpt><trkpt lat="43.951272746908145" lon="12.228521462536111"><ele>499.0</ele><time>2026-04-12T09:45:04Z</time></trkpt><trkpt lat="43.951396890446325" lon="12.228513639087573"><ele>499.0</ele><time>2026-04-12T09:45:05Z</time></trkpt><trkpt lat="43.951519610254415" lon="12.228506260978364"><ele>499.0</ele><time>2026-04-12T09:45:06Z</time></trkpt><trkpt lat="43.95163995282767" lon="12.22850721941609"><ele>499.0</ele><time>2026-04-12T09:45:07Z</time></trkpt><trkpt lat="43.95176596732579" lon="12.228510478782342"><ele>499.0</ele><time>2026-04-12T09:45:08Z</time></trkpt><trkpt lat="43.95189405859334" lon="12.22850928839557"><ele>499.0</ele><time>2026-04-12T09:45:09Z</time></trkpt><trkpt lat="43.95203192689194" lon="12.228509983407108"><ele>499.0</ele><time>2026-04-12T09:45:10Z</time></trkpt><trkpt lat="43.952161092333455" lon="12.228516808118762"><ele>499.0</ele><time>2026-04-12T09:45:11Z</time></trkpt><trkpt lat="43.95228462424798" lon="12.22853211164754"><ele>499.0</ele><time>2026-04-12T09:45:12Z</time></trkpt><trkpt lat="43.952405417808414" lon="12.228566088967217"><ele>499.0</ele><time>2026-04-12T09:45:13Z</time></trkpt><trkpt lat="43.95253183149294" lon="12.22862372797791"><ele>499.0</ele><time>2026-04-12T09:45:14Z</time></trkpt><trkpt lat="43.95266341742771" lon="12.228692785554818"><ele>499.0</ele><time>2026-04-12T09:45:15Z</time></trkpt><trkpt lat="43.952798337264056" lon="12.228771494388218"><ele>499.0</ele><time>2026-04-12T09:45:16Z</time></trkpt><trkpt lat="43.95293722628969" lon="12.228855766605164"><ele>499.33333333333337</ele><time>2026-04-12T09:45:17Z</time></trkpt><trkpt lat="43.953085059826314" lon="12.228941047041987"><ele>499.66666666666663</ele><time>2026-04-12T09:45:18Z</time></trkpt><trkpt lat="43.95324160618483" lon="12.229026536509124"><ele>500.0</ele><time>2026-04-12T09:45:19Z</time></trkpt><trkpt lat="43.95342805861715" lon="12.229116921991123"><ele>502.66666666666663</ele><time>2026-04-12T09:45:20Z</time></trkpt><trkpt lat="43.95359669402357" lon="12.229198240620649"><ele>505.33333333333337</ele><time>2026-04-12T09:45:21Z</time></trkpt><trkpt lat="43.95375600558797" lon="12.229268438722363"><ele>508.0</ele><time>2026-04-12T09:45:22Z</time></trkpt><trkpt lat="43.95389460071471" lon="12.229346576443437"><ele>508.0</ele><time>2026-04-12T09:45:23Z</time></trkpt><trkpt lat="43.95401571173831" lon="12.229430903284342"><ele>508.0</ele><time>2026-04-12T09:45:24Z</time></trkpt><trkpt lat="43.95412051671379" lon="12.22952042320631"><ele>508.0</ele><time>2026-04-12T09:45:25Z</time></trkpt><trkpt lat="43.9542143413716" lon="12.229626445679026"><ele>508.0</ele><time>2026-04-12T09:45:26Z</time></trkpt><trkpt lat="43.95430912691181" lon="12.229734947022804"><ele>540.0</ele><time>2026-04-12T09:45:27Z</time></trkpt><trkpt lat="43.96206948355189" lon="12.230454673342448"><ele>540.0</ele><time>2026-04-12T09:46:28Z</time></trkpt><trkpt lat="43.96219423891783" lon="12.230606291411853"><ele>540.0</ele><time>2026-04-12T09:46:29Z</time></trkpt><trkpt lat="43.96232648227271" lon="12.23078472939337"><ele>540.0</ele><time>2026-04-12T09:46:30Z</time></trkpt><trkpt lat="43.962472504491366" lon="12.23095315157933"><ele>538.0</ele><time>2026-04-12T09:46:31Z</time></trkpt><trkpt lat="43.96263028789525" lon="12.23113906450882"><ele>536.0</ele><time>2026-04-12T09:46:32Z</time></trkpt><trkpt lat="43.96277851203162" lon="12.231320706533362"><ele>534.0</ele><time>2026-04-12T09:46:33Z</time></trkpt><trkpt lat="43.9629102987035" lon="12.23148987401802"><ele>534.0</ele><time>2026-04-12T09:46:34Z</time></trkpt><trkpt lat="43.96303279649258" lon="12.231642844839962"><ele>534.0</ele><time>2026-04-12T09:46:35Z</time></trkpt><trkpt lat="43.96314644124085" lon="12.231789845431962"><ele>534.0</ele><time>2026-04-12T09:46:36Z</time></trkpt><trkpt lat="43.96325276944164" lon="12.231929049502199"><ele>534.0</ele><time>2026-04-12T09:46:37Z</time></trkpt><trkpt lat="43.9633550669157" lon="12.232070329072231"><ele>534.0</ele><time>2026-04-12T09:46:38Z</time></trkpt><trkpt lat="43.9634506219267" lon="12.232203059328139"><ele>534.0</ele><time>2026-04-12T09:46:39Z</time></trkpt><trkpt lat="43.96352548575974" lon="12.232313876954295"><ele>534.0</ele><time>2026-04-12T09:46:40Z</time></trkpt><trkpt lat="43.96360700573766" lon="12.23241413681641"><ele>533.5</ele><time>2026-04-12T09:46:41Z</time></trkpt><trkpt lat="43.96371071167068" lon="12.23250940229833"><ele>533.0</ele><time>2026-04-12T09:46:42Z</time></trkpt><trkpt lat="43.96384645744798" lon="12.23259429384919"><ele>532.5</ele><time>2026-04-12T09:46:43Z</time></trkpt><trkpt lat="43.9639597144468" lon="12.232692181375143"><ele>532.0</ele><time>2026-04-12T09:46:44Z</time></trkpt><trkpt lat="43.9640674297379" lon="12.23281364444446"><ele>532.0</ele><time>2026-04-12T09:46:45Z</time></trkpt><trkpt lat="43.96414173228953" lon="12.232962167151587"><ele>532.0</ele><time>2026-04-12T09:46:46Z</time></trkpt><trkpt lat="43.964217605873905" lon="12.233117189688063"><ele>532.0</ele><time>2026-04-12T09:46:47Z</time></trkpt><trkpt lat="43.96428571196881" lon="12.23329484416409"><ele>532.0</ele><time>2026-04-12T09:46:48Z</time></trkpt><trkpt lat="43.96434457858944" lon="12.233503685963347"><ele>530.6666666666667</ele><time>2026-04-12T09:46:49Z</time></trkpt><trkpt lat="43.964391854949085" lon="12.233747553965534"><ele>529.3333333333334</ele><time>2026-04-12T09:46:50Z</time></trkpt><trkpt lat="43.96444484354124" lon="12.233994196403225"><ele>528.0</ele><time>2026-04-12T09:46:51Z</time></trkpt><trkpt lat="43.96447832903297" lon="12.234266840036492"><ele>526.6666666666666</ele><time>2026-04-12T09:46:52Z</time></trkpt><trkpt lat="43.96451516742983" lon="12.234534854333155"><ele>525.3333333333333</ele><time>2026-04-12T09:46:53Z</time></trkpt><trkpt lat="43.96455394331098" lon="12.234780353959087"><ele>524.0</ele><time>2026-04-12T09:46:54Z</time></trkpt><trkpt lat="43.96460101691594" lon="12.234968098561277"><ele>524.0</ele><time>2026-04-12T09:46:55.001Z</time></trkpt><trkpt lat="43.96465723555366" lon="12.23514486481515"><ele>524.0</ele><time>2026-04-12T09:46:56.001Z</time></trkpt><trkpt lat="43.96472494237744" lon="12.235313181841367"><ele>524.0</ele><time>2026-04-12T09:46:57.001Z</time></trkpt><trkpt lat="43.964824084319595" lon="12.235481745516601"><ele>524.0</ele><time>2026-04-12T09:46:58.001Z</time></trkpt><trkpt lat="43.96494720664313" lon="12.235639482025647"><ele>519.75</ele><time>2026-04-12T09:46:59.001Z</time></trkpt><trkpt lat="43.96504268002673" lon="12.235787380256914"><ele>515.5</ele><time>2026-04-12T09:47:00.001Z</time></trkpt><trkpt lat="43.96511821302795" lon="12.235937591490035"><ele>511.25</ele><time>2026-04-12T09:47:01.001Z</time></trkpt><trkpt lat="43.96516105516417" lon="12.236103379837374"><ele>507.0</ele><time>2026-04-12T09:47:02.001Z</time></trkpt><trkpt lat="43.96517447600383" lon="12.236291095231007"><ele>511.0</ele><time>2026-04-12T09:47:03.001Z</time></trkpt><trkpt lat="43.965194184105115" lon="12.23649205887098"><ele>515.0</ele><time>2026-04-12T09:47:04.001Z</time></trkpt><trkpt lat="43.965203887417154" lon="12.23668140354285"><ele>519.0</ele><time>2026-04-12T09:47:05.001Z</time></trkpt><trkpt lat="43.965230422531114" lon="12.2368337782699"><ele>523.0</ele><time>2026-04-12T09:47:06.001Z</time></trkpt><trkpt lat="43.96527305348579" lon="12.236996428670528"><ele>523.0</ele><time>2026-04-12T09:47:07.001Z</time></trkpt><trkpt lat="43.96533816691929" lon="12.237138436981192"><ele>523.0</ele><time>2026-04-12T09:47:08.001Z</time></trkpt><trkpt lat="43.96542922459276" lon="12.237256344765296"><ele>523.0</ele><time>2026-04-12T09:47:09.001Z</time></trkpt><trkpt lat="43.96554556150703" lon="12.23735500299815"><ele>523.0</ele><time>2026-04-12T09:47:10.001Z</time></trkpt><trkpt lat="43.965667352260006" lon="12.237442888644955"><ele>522.0</ele><time>2026-04-12T09:47:11.001Z</time></trkpt><trkpt lat="43.96576110797196" lon="12.237520444215987"><ele>521.0</ele><time>2026-04-12T09:47:12.001Z</time></trkpt><trkpt lat="43.96581725365334" lon="12.237617573455832"><ele>520.0</ele><time>2026-04-12T09:47:13.001Z</time></trkpt><trkpt lat="43.96586271546461" lon="12.2377037125848"><ele>519.0</ele><time>2026-04-12T09:47:14.001Z</time></trkpt><trkpt lat="43.96585954077448" lon="12.237831293610169"><ele>518.0</ele><time>2026-04-12T09:47:15.001Z</time></trkpt><trkpt lat="43.96580555319477" lon="12.237976811880385"><ele>523.25</ele><time>2026-04-12T09:47:16.001Z</time></trkpt><trkpt lat="43.96569886102158" lon="12.238088430750626"><ele>528.5</ele><time>2026-04-12T09:47:17.001Z</time></trkpt><trkpt lat="43.96559411764031" lon="12.238181918033252"><ele>533.75</ele><time>2026-04-12T09:47:18.001Z</time></trkpt><trkpt lat="43.96546717416358" lon="12.238232713125687"><ele>539.0</ele><time>2026-04-12T09:47:19.001Z</time></trkpt><trkpt lat="43.965304999206474" lon="12.238273274462186"><ele>541.6666666666666</ele><time>2026-04-12T09:47:20.001Z</time></trkpt><trkpt lat="43.96514372838599" lon="12.238323038494954"><ele>544.3333333333334</ele><time>2026-04-12T09:47:21.001Z</time></trkpt><trkpt lat="43.964986935637455" lon="12.23838725751721"><ele>547.0</ele><time>2026-04-12T09:47:22.001Z</time></trkpt><trkpt lat="43.964852315230495" lon="12.238474066561933"><ele>547.0</ele><time>2026-04-12T09:47:23.001Z</time></trkpt><trkpt lat="43.96471103942135" lon="12.238606370976235"><ele>547.0</ele><time>2026-04-12T09:47:24.001Z</time></trkpt><trkpt lat="43.96457383487546" lon="12.238748982109842"><ele>547.0</ele><time>2026-04-12T09:47:25.001Z</time></trkpt><trkpt lat="43.96442390126902" lon="12.238848073993166"><ele>547.0</ele><time>2026-04-12T09:47:26.001Z</time></trkpt><trkpt lat="43.96428109481923" lon="12.238869682318464"><ele>547.0</ele><time>2026-04-12T09:47:27.001Z</time></trkpt><trkpt lat="43.96677063543046" lon="12.245811860308285"><ele>549.2</ele><time>2026-04-12T09:48:28Z</time></trkpt><trkpt lat="43.966887239262526" lon="12.245798002321198"><ele>551.4000000000001</ele><time>2026-04-12T09:48:29Z</time></trkpt><trkpt lat="43.96699997450166" lon="12.245774419253385"><ele>553.5999999999999</ele><time>2026-04-12T09:48:30Z</time></trkpt><trkpt lat="43.967106354674755" lon="12.245747877762309"><ele>555.8</ele><time>2026-04-12T09:48:31Z</time></trkpt><trkpt lat="43.967207180830655" lon="12.245740518483974"><ele>558.0</ele><time>2026-04-12T09:48:32Z</time></trkpt><trkpt lat="43.967290451707605" lon="12.245710537415452"><ele>557.9999999999999</ele><time>2026-04-12T09:48:33Z</time></trkpt><trkpt lat="43.96736262555523" lon="12.245697464128208"><ele>558.0</ele><time>2026-04-12T09:48:34Z</time></trkpt><trkpt lat="43.967431532012725" lon="12.245691267651821"><ele>558.0</ele><time>2026-04-12T09:48:35Z</time></trkpt><trkpt lat="43.96750243442065" lon="12.245697150427649"><ele>558.0</ele><time>2026-04-12T09:48:36Z</time></trkpt><trkpt lat="43.96756749351059" lon="12.245734821528142"><ele>558.0</ele><time>2026-04-12T09:48:37Z</time></trkpt><trkpt lat="43.96762260885835" lon="12.245787953515423"><ele>557.9999999999999</ele><time>2026-04-12T09:48:38Z</time></trkpt><trkpt lat="43.96767485375521" lon="12.245841924411787"><ele>558.0</ele><time>2026-04-12T09:48:39Z</time></trkpt><trkpt lat="43.967732318547064" lon="12.245901683333223"><ele>558.1666666666666</ele><time>2026-04-12T09:48:40Z</time></trkpt><trkpt lat="43.967797551129834" lon="12.245949549898041"><ele>558.3333333333334</ele><time>2026-04-12T09:48:41Z</time></trkpt><trkpt lat="43.96786458925385" lon="12.245973542136152"><ele>558.5</ele><time>2026-04-12T09:48:42Z</time></trkpt><trkpt lat="43.96794911719259" lon="12.245970277903208"><ele>558.6666666666667</ele><time>2026-04-12T09:48:43Z</time></trkpt><trkpt lat="43.96804547335838" lon="12.245919414054608"><ele>558.8333333333334</ele><time>2026-04-12T09:48:44Z</time></trkpt><trkpt lat="43.96813830534293" lon="12.245861111329697"><ele>559.0</ele><time>2026-04-12T09:48:45Z</time></trkpt><trkpt lat="43.96822421809125" lon="12.245798916820243"><ele>559.0</ele><time>2026-04-12T09:48:46Z</time></trkpt><trkpt lat="43.96829721935987" lon="12.245764851947245"><ele>559.0</ele><time>2026-04-12T09:48:47Z</time></trkpt><trkpt lat="43.96837524044291" lon="12.245763974417404"><ele>559.0</ele><time>2026-04-12T09:48:48Z</time></trkpt><trkpt lat="43.9684624632864" lon="12.245810556366264"><ele>559.0</ele><time>2026-04-12T09:48:49Z</time></trkpt><trkpt lat="43.96853449124101" lon="12.245920546119798"><ele>559.0</ele><time>2026-04-12T09:48:50Z</time></trkpt><trkpt lat="43.96857936557296" lon="12.24608539468762"><ele>557.25</ele><time>2026-04-12T09:48:51Z</time></trkpt><trkpt lat="43.968629434925845" lon="12.246288933538878"><ele>555.5</ele><time>2026-04-12T09:48:52Z</time></trkpt><trkpt lat="43.96868372929667" lon="12.246484129822749"><ele>553.75</ele><time>2026-04-12T09:48:53Z</time></trkpt><trkpt lat="43.96873636723588" lon="12.246662965456814"><ele>552.0</ele><time>2026-04-12T09:48:54Z</time></trkpt><trkpt lat="43.96878075473637" lon="12.246813550102546"><ele>552.0</ele><time>2026-04-12T09:48:55Z</time></trkpt><trkpt lat="43.96882107280918" lon="12.246941130693768"><ele>552.0</ele><time>2026-04-12T09:48:56Z</time></trkpt><trkpt lat="43.96886983108479" lon="12.247041704070293"><ele>552.0</ele><time>2026-04-12T09:48:57Z</time></trkpt><trkpt lat="43.968941662358276" lon="12.247105562939204"><ele>552.0</ele><time>2026-04-12T09:48:58.001Z</time></trkpt><trkpt lat="43.969045622693436" lon="12.247118439570832"><ele>552.0</ele><time>2026-04-12T09:48:59.001Z</time></trkpt><trkpt lat="43.969167263277015" lon="12.247098246472898"><ele>548.0</ele><time>2026-04-12T09:49:00.001Z</time></trkpt><trkpt lat="43.969293256877414" lon="12.247077112102644"><ele>544.0</ele><time>2026-04-12T09:49:01.001Z</time></trkpt><trkpt lat="43.96940883991924" lon="12.24706410686435"><ele>540.0</ele><time>2026-04-12T09:49:02.001Z</time></trkpt><trkpt lat="43.969517558524934" lon="12.24705050850384"><ele>536.0</ele><time>2026-04-12T09:49:03.001Z</time></trkpt><trkpt lat="43.969620657280885" lon="12.24702670421771"><ele>536.0</ele><time>2026-04-12T09:49:04.001Z</time></trkpt><trkpt lat="43.96973361105842" lon="12.246995589238628"><ele>536.0</ele><time>2026-04-12T09:49:05.001Z</time></trkpt><trkpt lat="43.969852984519555" lon="12.246960244532941"><ele>536.0</ele><time>2026-04-12T09:49:06.001Z</time></trkpt><trkpt lat="43.96996912833787" lon="12.246927944128574"><ele>536.0</ele><time>2026-04-12T09:49:07.001Z</time></trkpt><trkpt lat="43.97008340286155" lon="12.246893038496689"><ele>533.8333333333333</ele><time>2026-04-12T09:49:08.001Z</time></trkpt><trkpt lat="43.97017568411166" lon="12.246890080771344"><ele>531.6666666666666</ele><time>2026-04-12T09:49:09.001Z</time></trkpt><trkpt lat="43.97025274097352" lon="12.246874966208228"><ele>529.5</ele><time>2026-04-12T09:49:10.001Z</time></trkpt><trkpt lat="43.97031644741204" lon="12.246869352993219"><ele>527.3333333333334</ele><time>2026-04-12T09:49:11.001Z</time></trkpt><trkpt lat="43.97040926693383" lon="12.246935861075663"><ele>525.1666666666667</ele><time>2026-04-12T09:49:13.001Z</time></trkpt><trkpt lat="43.97042669178959" lon="12.247032004612114"><ele>523.0</ele><time>2026-04-12T09:49:14.001Z</time></trkpt><trkpt lat="43.97039931664161" lon="12.247151251616971"><ele>523.0</ele><time>2026-04-12T09:49:15.001Z</time></trkpt><trkpt lat="43.97036282313058" lon="12.247256030424964"><ele>523.0</ele><time>2026-04-12T09:49:16.001Z</time></trkpt><trkpt lat="43.970342018654875" lon="12.247346191650584"><ele>523.0</ele><time>2026-04-12T09:49:17.001Z</time></trkpt><trkpt lat="43.97034256771523" lon="12.247496863159274"><ele>523.0</ele><time>2026-04-12T09:49:19.001Z</time></trkpt><trkpt lat="43.97037767921919" lon="12.247579581540627"><ele>523.0</ele><time>2026-04-12T09:49:22.001Z</time></trkpt><trkpt lat="43.97147132909598" lon="12.247429703989816"><ele>520.25</ele><time>2026-04-12T09:50:28.001Z</time></trkpt><trkpt lat="43.97153302144581" lon="12.247345105486326"><ele>517.5</ele><time>2026-04-12T09:50:30.001Z</time></trkpt><trkpt lat="43.971581300769266" lon="12.247184295146603"><ele>514.75</ele><time>2026-04-12T09:50:31.001Z</time></trkpt><trkpt lat="43.971619765266745" lon="12.247015249662338"><ele>512.0</ele><time>2026-04-12T09:50:32.001Z</time></trkpt><trkpt lat="43.971661387000175" lon="12.246871088306028"><ele>507.6</ele><time>2026-04-12T09:50:33.001Z</time></trkpt><trkpt lat="43.971702667081935" lon="12.2467375142835"><ele>503.20000000000005</ele><time>2026-04-12T09:50:34.001Z</time></trkpt><trkpt lat="43.97174298633491" lon="12.246627234727427"><ele>498.8</ele><time>2026-04-12T09:50:35.001Z</time></trkpt><trkpt lat="43.971790255862125" lon="12.24656936596323"><ele>494.4</ele><time>2026-04-12T09:50:36.001Z</time></trkpt><trkpt lat="43.97187718767555" lon="12.246467099626633"><ele>490.0</ele><time>2026-04-12T09:50:38.001Z</time></trkpt><trkpt lat="43.97199079716228" lon="12.246489561279754"><ele>490.0</ele><time>2026-04-12T09:50:40.001Z</time></trkpt><trkpt lat="43.972038936863434" lon="12.2465882397849"><ele>490.0</ele><time>2026-04-12T09:50:41.001Z</time></trkpt><trkpt lat="43.97202050333575" lon="12.246758616772295"><ele>490.0</ele><time>2026-04-12T09:50:42.001Z</time></trkpt><trkpt lat="43.972022635505226" lon="12.246949433940804"><ele>490.0</ele><time>2026-04-12T09:50:43.001Z</time></trkpt><trkpt lat="43.9720341549831" lon="12.247109959107513"><ele>490.0</ele><time>2026-04-12T09:50:44.001Z</time></trkpt><trkpt lat="43.97206767258113" lon="12.247240633941345"><ele>490.0</ele><time>2026-04-12T09:50:45.001Z</time></trkpt><trkpt lat="43.97215097957963" lon="12.247323642005682"><ele>490.0</ele><time>2026-04-12T09:50:46.001Z</time></trkpt><trkpt lat="43.97225049786348" lon="12.24735784433115"><ele>490.0</ele><time>2026-04-12T09:50:47.001Z</time></trkpt><trkpt lat="43.97236454532264" lon="12.247315296953948"><ele>490.0</ele><time>2026-04-12T09:50:48.001Z</time></trkpt><trkpt lat="43.97246347473559" lon="12.247196476981085"><ele>485.25</ele><time>2026-04-12T09:50:49.001Z</time></trkpt><trkpt lat="43.9725239640776" lon="12.24701391341262"><ele>480.5</ele><time>2026-04-12T09:50:50.001Z</time></trkpt><trkpt lat="43.97254473577245" lon="12.246808106210644"><ele>475.75</ele><time>2026-04-12T09:50:51.001Z</time></trkpt><trkpt lat="43.9725640706936" lon="12.246604286497478"><ele>471.0</ele><time>2026-04-12T09:50:52.001Z</time></trkpt><trkpt lat="43.97259240907438" lon="12.246488381384093"><ele>471.0</ele><time>2026-04-12T09:50:53.001Z</time></trkpt><trkpt lat="43.97264963341194" lon="12.246346430611156"><ele>471.0</ele><time>2026-04-12T09:50:55.001Z</time></trkpt><trkpt lat="43.972726315297436" lon="12.246343044640174"><ele>471.0</ele><time>2026-04-12T09:50:56.001Z</time></trkpt><trkpt lat="43.972824049468066" lon="12.246420505191033"><ele>471.0</ele><time>2026-04-12T09:50:57.001Z</time></trkpt><trkpt lat="43.97290620453358" lon="12.246579673891212"><ele>471.0</ele><time>2026-04-12T09:50:58.001Z</time></trkpt><trkpt lat="43.97297541554858" lon="12.246786856374415"><ele>471.0</ele><time>2026-04-12T09:50:59.001Z</time></trkpt><trkpt lat="43.973049895480855" lon="12.246998262258229"><ele>471.0</ele><time>2026-04-12T09:51:00.001Z</time></trkpt><trkpt lat="43.97313790341034" lon="12.24718202505455"><ele>471.0</ele><time>2026-04-12T09:51:01.001Z</time></trkpt><trkpt lat="43.97323498621478" lon="12.247317160989553"><ele>468.25</ele><time>2026-04-12T09:51:02.001Z</time></trkpt><trkpt lat="43.97335752646376" lon="12.247437913404447"><ele>465.5</ele><time>2026-04-12T09:51:03.001Z</time></trkpt><trkpt lat="43.97348863004331" lon="12.247527562488445"><ele>462.75</ele><time>2026-04-12T09:51:04.001Z</time></trkpt><trkpt lat="43.97359265163035" lon="12.247603261085631"><ele>460.0</ele><time>2026-04-12T09:51:05.001Z</time></trkpt><trkpt lat="43.973690622360536" lon="12.247656464027909"><ele>460.0</ele><time>2026-04-12T09:51:06.001Z</time></trkpt><trkpt lat="43.973789686020744" lon="12.247649675633664"><ele>460.0</ele><time>2026-04-12T09:51:07.001Z</time></trkpt><trkpt lat="43.97389297450615" lon="12.24758826276371"><ele>460.0</ele><time>2026-04-12T09:51:08.001Z</time></trkpt><trkpt lat="43.97400010316754" lon="12.247473281647542"><ele>460.0</ele><time>2026-04-12T09:51:09.001Z</time></trkpt><trkpt lat="43.9741260267396" lon="12.247306894597864"><ele>455.6666666666667</ele><time>2026-04-12T09:51:10.001Z</time></trkpt><trkpt lat="43.974271325563926" lon="12.247110182463134"><ele>451.33333333333337</ele><time>2026-04-12T09:51:11.001Z</time></trkpt><trkpt lat="43.97442099971706" lon="12.24691977164746"><ele>447.0</ele><time>2026-04-12T09:51:12.001Z</time></trkpt><trkpt lat="43.97458142483467" lon="12.246712153512425"><ele>447.0</ele><time>2026-04-12T09:51:13.001Z</time></trkpt><trkpt lat="43.97474628172473" lon="12.246481616063408"><ele>447.0</ele><time>2026-04-12T09:51:14.001Z</time></trkpt><trkpt lat="43.97489200916308" lon="12.246251022451533"><ele>446.33333333333337</ele><time>2026-04-12T09:51:15.001Z</time></trkpt><trkpt lat="43.975016045152834" lon="12.246043870317118"><ele>445.6666666666667</ele><time>2026-04-12T09:51:16.001Z</time></trkpt><trkpt lat="43.97511147128822" lon="12.245845879959463"><ele>445.0</ele><time>2026-04-12T09:51:17.001Z</time></trkpt><trkpt lat="43.97519239659" lon="12.245681288671491"><ele>444.75</ele><time>2026-04-12T09:51:18.001Z</time></trkpt><trkpt lat="43.97528580270168" lon="12.245545421071501"><ele>444.5</ele><time>2026-04-12T09:51:19.001Z</time></trkpt><trkpt lat="43.975405411574016" lon="12.245464007873744"><ele>444.25</ele><time>2026-04-12T09:51:20.001Z</time></trkpt><trkpt lat="43.97554506412308" lon="12.245382358866829"><ele>444.0</ele><time>2026-04-12T09:51:21.001Z</time></trkpt><trkpt lat="43.9757241422884" lon="12.245308938283774"><ele>442.0</ele><time>2026-04-12T09:51:22.001Z</time></trkpt><trkpt lat="43.975926878725794" lon="12.245221184440776"><ele>440.0</ele><time>2026-04-12T09:51:23.001Z</time></trkpt><trkpt lat="43.97611342278827" lon="12.245169164729711"><ele>438.0</ele><time>2026-04-12T09:51:24.001Z</time></trkpt><trkpt lat="43.97627665279136" lon="12.245120059118982"><ele>438.0</ele><time>2026-04-12T09:51:25.001Z</time></trkpt><trkpt lat="43.97643784530476" lon="12.245065912653262"><ele>438.0</ele><time>2026-04-12T09:51:26.001Z</time></trkpt><trkpt lat="43.976594039394435" lon="12.245016604835849"><ele>438.0</ele><time>2026-04-12T09:51:27.001Z</time></trkpt><trkpt lat="43.979689395391986" lon="12.246914161258085"><ele>432.75</ele><time>2026-04-12T09:52:28.001Z</time></trkpt><trkpt lat="43.97979544362037" lon="12.246927490042067"><ele>427.5</ele><time>2026-04-12T09:52:54.001Z</time></trkpt><trkpt lat="43.979871163585" lon="12.246965661007598"><ele>422.25</ele><time>2026-04-12T09:52:55.001Z</time></trkpt><trkpt lat="43.980008808230835" lon="12.247038241384852"><ele>417.0</ele><time>2026-04-12T09:52:56.001Z</time></trkpt><trkpt lat="43.98017649297618" lon="12.24716161469924"><ele>413.0</ele><time>2026-04-12T09:52:57.001Z</time></trkpt><trkpt lat="43.98034509224725" lon="12.247276587759654"><ele>409.0</ele><time>2026-04-12T09:52:58.001Z</time></trkpt><trkpt lat="43.980528554508" lon="12.247394418659026"><ele>405.0</ele><time>2026-04-12T09:52:59.001Z</time></trkpt><trkpt lat="43.980696639700085" lon="12.247495184901242"><ele>405.0</ele><time>2026-04-12T09:53:00.001Z</time></trkpt><trkpt lat="43.98083536192448" lon="12.247588347214643"><ele>405.0</ele><time>2026-04-12T09:53:01.001Z</time></trkpt><trkpt lat="43.980969668291316" lon="12.24771113926072"><ele>405.0</ele><time>2026-04-12T09:53:02.001Z</time></trkpt><trkpt lat="43.98107121758403" lon="12.247885231251294"><ele>406.33333333333337</ele><time>2026-04-12T09:53:03.001Z</time></trkpt><trkpt lat="43.981194396327396" lon="12.248082423725775"><ele>407.6666666666667</ele><time>2026-04-12T09:53:04.001Z</time></trkpt><trkpt lat="43.98132588648001" lon="12.248338184320863"><ele>409.0</ele><time>2026-04-12T09:53:05.001Z</time></trkpt><trkpt lat="43.9814535749114" lon="12.248542262847142"><ele>409.0</ele><time>2026-04-12T09:53:06.001Z</time></trkpt><trkpt lat="43.98157106341962" lon="12.248702401713388"><ele>409.0</ele><time>2026-04-12T09:53:07.001Z</time></trkpt><trkpt lat="43.981674896292155" lon="12.248868711035662"><ele>409.0</ele><time>2026-04-12T09:53:08.001Z</time></trkpt><trkpt lat="43.98179674839154" lon="12.24902905729927"><ele>409.0</ele><time>2026-04-12T09:53:09.001Z</time></trkpt><trkpt lat="43.981924858123755" lon="12.249195784734717"><ele>409.0</ele><time>2026-04-12T09:53:10.001Z</time></trkpt><trkpt lat="43.98203095336096" lon="12.249319289646923"><ele>409.0</ele><time>2026-04-12T09:53:11.001Z</time></trkpt><trkpt lat="43.98213296923452" lon="12.249417917642957"><ele>409.0</ele><time>2026-04-12T09:53:12.001Z</time></trkpt><trkpt lat="43.982263167198525" lon="12.249492053094157"><ele>409.0</ele><time>2026-04-12T09:53:13.001Z</time></trkpt><trkpt lat="43.98243425436238" lon="12.24954623873818"><ele>409.0</ele><time>2026-04-12T09:53:14.001Z</time></trkpt><trkpt lat="43.98263353825942" lon="12.2495796668169"><ele>409.0</ele><time>2026-04-12T09:53:15.001Z</time></trkpt><trkpt lat="43.98280932481465" lon="12.249621706577182"><ele>409.75</ele><time>2026-04-12T09:53:16.001Z</time></trkpt><trkpt lat="43.98296540737113" lon="12.249672009047044"><ele>410.5</ele><time>2026-04-12T09:53:17.001Z</time></trkpt><trkpt lat="43.98311339098426" lon="12.249731831258641"><ele>411.25</ele><time>2026-04-12T09:53:18.001Z</time></trkpt><trkpt lat="43.98324389932611" lon="12.249774070237246"><ele>412.0</ele><time>2026-04-12T09:53:19.001Z</time></trkpt><trkpt lat="43.983364472374326" lon="12.2498319347229"><ele>410.25</ele><time>2026-04-12T09:53:20.001Z</time></trkpt><trkpt lat="43.983475532341316" lon="12.249886455714936"><ele>408.5</ele><time>2026-04-12T09:53:21.001Z</time></trkpt><trkpt lat="43.98359345819056" lon="12.249911662731948"><ele>406.75</ele><time>2026-04-12T09:53:22.001Z</time></trkpt><trkpt lat="43.9837121138448" lon="12.249882403404252"><ele>405.0</ele><time>2026-04-12T09:53:23.001Z</time></trkpt><trkpt lat="43.9838513789833" lon="12.249818720489902"><ele>405.0</ele><time>2026-04-12T09:53:24.001Z</time></trkpt><trkpt lat="43.984015131970374" lon="12.249721610553138"><ele>405.0</ele><time>2026-04-12T09:53:25.001Z</time></trkpt><trkpt lat="43.98416502762917" lon="12.249656202469806"><ele>405.0</ele><time>2026-04-12T09:53:26.001Z</time></trkpt><trkpt lat="43.98431786225761" lon="12.249628797991033"><ele>427.0</ele><time>2026-04-12T09:53:27.001Z</time></trkpt><trkpt lat="43.990349614258584" lon="12.255055771403013"><ele>427.0</ele><time>2026-04-12T09:54:28Z</time></trkpt><trkpt lat="43.99033498273499" lon="12.255433497571662"><ele>427.0</ele><time>2026-04-12T09:54:29Z</time></trkpt><trkpt lat="43.99036976294411" lon="12.255764823050024"><ele>430.33333333333337</ele><time>2026-04-12T09:54:31Z</time></trkpt><trkpt lat="43.990434308562556" lon="12.256079931083821"><ele>433.66666666666663</ele><time>2026-04-12T09:54:32Z</time></trkpt><trkpt lat="43.990511338859434" lon="12.25634520443161"><ele>437.0</ele><time>2026-04-12T09:54:33Z</time></trkpt><trkpt lat="43.9905762637909" lon="12.25653128208522"><ele>441.66666666666663</ele><time>2026-04-12T09:54:34Z</time></trkpt><trkpt lat="43.99063372677124" lon="12.256694513488922"><ele>446.33333333333337</ele><time>2026-04-12T09:54:35Z</time></trkpt><trkpt lat="43.990631551331035" lon="12.256904062344686"><ele>451.0</ele><time>2026-04-12T09:54:36Z</time></trkpt><trkpt lat="43.9906126949346" lon="12.257136882472897"><ele>453.0</ele><time>2026-04-12T09:54:37Z</time></trkpt><trkpt lat="43.99058168373919" lon="12.257386173162121"><ele>455.0</ele><time>2026-04-12T09:54:38Z</time></trkpt><trkpt lat="43.990547825662894" lon="12.257635151132177"><ele>457.0</ele><time>2026-04-12T09:54:39Z</time></trkpt><trkpt lat="43.99050356932301" lon="12.25789714929717"><ele>460.0</ele><time>2026-04-12T09:54:40Z</time></trkpt><trkpt lat="43.99045272588705" lon="12.258157204415118"><ele>463.0</ele><time>2026-04-12T09:54:41Z</time></trkpt><trkpt lat="43.99042145121017" lon="12.258373104608076"><ele>466.0</ele><time>2026-04-12T09:54:42Z</time></trkpt><trkpt lat="43.99041225439296" lon="12.258623614329016"><ele>466.0</ele><time>2026-04-12T09:54:43Z</time></trkpt><trkpt lat="43.990414123189844" lon="12.258919274096819"><ele>466.0</ele><time>2026-04-12T09:54:44Z</time></trkpt><trkpt lat="43.990421866324496" lon="12.259204422736044"><ele>466.0</ele><time>2026-04-12T09:54:45Z</time></trkpt><trkpt lat="43.990438701111636" lon="12.259440815154042"><ele>466.6666666666667</ele><time>2026-04-12T09:54:46Z</time></trkpt><trkpt lat="43.99044661284564" lon="12.259665913681616"><ele>467.33333333333337</ele><time>2026-04-12T09:54:47Z</time></trkpt><trkpt lat="43.99040560927153" lon="12.25990350030651"><ele>468.0</ele><time>2026-04-12T09:54:48Z</time></trkpt><trkpt lat="43.990344822916505" lon="12.260155372579634"><ele>468.66666666666663</ele><time>2026-04-12T09:54:49Z</time></trkpt><trkpt lat="43.99030804581813" lon="12.260391213990802"><ele>469.3333333333333</ele><time>2026-04-12T09:54:50Z</time></trkpt><trkpt lat="43.99028535618169" lon="12.260604733294409"><ele>470.0</ele><time>2026-04-12T09:54:51Z</time></trkpt><trkpt lat="43.99028138365895" lon="12.260838063774088"><ele>470.0</ele><time>2026-04-12T09:54:52Z</time></trkpt><trkpt lat="43.99030534030931" lon="12.261085669494284"><ele>470.0</ele><time>2026-04-12T09:54:53Z</time></trkpt><trkpt lat="43.99036467412176" lon="12.26137991569839"><ele>470.0</ele><time>2026-04-12T09:54:54Z</time></trkpt><trkpt lat="43.990425522142495" lon="12.261711800979763"><ele>470.0</ele><time>2026-04-12T09:54:55Z</time></trkpt><trkpt lat="43.99048546234468" lon="12.262061295721479"><ele>470.0</ele><time>2026-04-12T09:54:56Z</time></trkpt><trkpt lat="43.99051685181961" lon="12.26237219531134"><ele>467.3333333333333</ele><time>2026-04-12T09:54:57Z</time></trkpt><trkpt lat="43.99055801184071" lon="12.262643458866279"><ele>464.66666666666663</ele><time>2026-04-12T09:54:58Z</time></trkpt><trkpt lat="43.99059488729698" lon="12.262891691185475"><ele>462.0</ele><time>2026-04-12T09:54:59Z</time></trkpt><trkpt lat="43.990627094783804" lon="12.263115170270265"><ele>459.75</ele><time>2026-04-12T09:55:00Z</time></trkpt><trkpt lat="43.99065418007077" lon="12.263309137621688"><ele>457.5</ele><time>2026-04-12T09:55:01Z</time></trkpt><trkpt lat="43.9907029523868" lon="12.263491020782201"><ele>455.25</ele><time>2026-04-12T09:55:02Z</time></trkpt><trkpt lat="43.99074114028451" lon="12.263661748115686"><ele>453.0</ele><time>2026-04-12T09:55:03Z</time></trkpt><trkpt lat="43.990821317029045" lon="12.263795514756671"><ele>457.75</ele><time>2026-04-12T09:55:04Z</time></trkpt><trkpt lat="43.99094330020341" lon="12.263902404084906"><ele>462.5</ele><time>2026-04-12T09:55:05Z</time></trkpt><trkpt lat="43.991052254388926" lon="12.264008961617765"><ele>467.25</ele><time>2026-04-12T09:55:06Z</time></trkpt><trkpt lat="43.991126793543394" lon="12.264118981119553"><ele>472.0</ele><time>2026-04-12T09:55:07Z</time></trkpt><trkpt lat="43.99115377433265" lon="12.264262966120855"><ele>472.0</ele><time>2026-04-12T09:55:08Z</time></trkpt><trkpt lat="43.9911504622738" lon="12.264458243045215"><ele>472.0</ele><time>2026-04-12T09:55:09Z</time></trkpt><trkpt lat="43.991159949525766" lon="12.2647143575756"><ele>472.0</ele><time>2026-04-12T09:55:10Z</time></trkpt><trkpt lat="43.9911803466798" lon="12.265014777960916"><ele>470.0</ele><time>2026-04-12T09:55:11Z</time></trkpt><trkpt lat="43.99123520916927" lon="12.265331126441414"><ele>468.0</ele><time>2026-04-12T09:55:12Z</time></trkpt><trkpt lat="43.99127698621549" lon="12.265636528630312"><ele>464.66666666666663</ele><time>2026-04-12T09:55:13Z</time></trkpt><trkpt lat="43.9913024602648" lon="12.265929480412032"><ele>461.3333333333333</ele><time>2026-04-12T09:55:14Z</time></trkpt><trkpt lat="43.99132213646373" lon="12.266183663446357"><ele>458.0</ele><time>2026-04-12T09:55:15Z</time></trkpt><trkpt lat="43.991347104881754" lon="12.266400168337762"><ele>455.5</ele><time>2026-04-12T09:55:16Z</time></trkpt><trkpt lat="43.99138410644019" lon="12.26662057517256"><ele>453.0</ele><time>2026-04-12T09:55:17Z</time></trkpt><trkpt lat="43.991436275400766" lon="12.266793229085792"><ele>450.5</ele><time>2026-04-12T09:55:18Z</time></trkpt><trkpt lat="43.99149015061407" lon="12.266940199890334"><ele>448.0</ele><time>2026-04-12T09:55:19Z</time></trkpt><trkpt lat="43.99156165479523" lon="12.26705568752934"><ele>448.0</ele><time>2026-04-12T09:55:20Z</time></trkpt><trkpt lat="43.99164500910414" lon="12.267125076829872"><ele>448.0</ele><time>2026-04-12T09:55:21Z</time></trkpt><trkpt lat="43.99174532474859" lon="12.267182523673814"><ele>448.0</ele><time>2026-04-12T09:55:22Z</time></trkpt><trkpt lat="43.99189972020746" lon="12.26710425493349"><ele>448.0</ele><time>2026-04-12T09:55:23Z</time></trkpt><trkpt lat="43.992065935634606" lon="12.267016787214738"><ele>449.0</ele><time>2026-04-12T09:55:24Z</time></trkpt><trkpt lat="43.9922600684964" lon="12.266945927433891"><ele>450.0</ele><time>2026-04-12T09:55:25Z</time></trkpt><trkpt lat="43.99246391738313" lon="12.266877119153417"><ele>451.0</ele><time>2026-04-12T09:55:26Z</time></trkpt><trkpt lat="43.99264540908978" lon="12.266830496955324"><ele>399.0</ele><time>2026-04-12T09:55:27Z</time></trkpt><trkpt lat="43.99257355393755" lon="12.277786296799597"><ele>399.0</ele><time>2026-04-12T09:56:28Z</time></trkpt><trkpt lat="43.992532133869744" lon="12.278003961525053"><ele>399.0</ele><time>2026-04-12T09:56:29Z</time></trkpt><trkpt lat="43.99246578010045" lon="12.278243378349273"><ele>399.0</ele><time>2026-04-12T09:56:30Z</time></trkpt><trkpt lat="43.99238188212526" lon="12.278506054330593"><ele>404.66666666666663</ele><time>2026-04-12T09:56:31Z</time></trkpt><trkpt lat="43.99230364202494" lon="12.27876537407657"><ele>410.3333333333333</ele><time>2026-04-12T09:56:32Z</time></trkpt><trkpt lat="43.99223503660507" lon="12.27900716159915"><ele>416.0</ele><time>2026-04-12T09:56:33Z</time></trkpt><trkpt lat="43.99216565038049" lon="12.279224138812745"><ele>416.0</ele><time>2026-04-12T09:56:34Z</time></trkpt><trkpt lat="43.99208744975069" lon="12.27941044050364"><ele>416.0</ele><time>2026-04-12T09:56:35Z</time></trkpt><trkpt lat="43.99201445632684" lon="12.279576501143124"><ele>416.0</ele><time>2026-04-12T09:56:36Z</time></trkpt><trkpt lat="43.99195755982056" lon="12.27974450678441"><ele>416.0</ele><time>2026-04-12T09:56:37Z</time></trkpt><trkpt lat="43.991913567169604" lon="12.279951521937715"><ele>417.66666666666663</ele><time>2026-04-12T09:56:38Z</time></trkpt><trkpt lat="43.99187667516413" lon="12.280198644585354"><ele>419.33333333333337</ele><time>2026-04-12T09:56:39Z</time></trkpt><trkpt lat="43.99185539206128" lon="12.280469598286299"><ele>421.0</ele><time>2026-04-12T09:56:40Z</time></trkpt><trkpt lat="43.99183614335675" lon="12.280682121480737"><ele>422.25</ele><time>2026-04-12T09:56:41Z</time></trkpt><trkpt lat="43.99182068918825" lon="12.28084746928098"><ele>423.5</ele><time>2026-04-12T09:56:42Z</time></trkpt><trkpt lat="43.991819632343024" lon="12.280999567050275"><ele>424.75</ele><time>2026-04-12T09:56:43Z</time></trkpt><trkpt lat="43.99186025047902" lon="12.281149381234778"><ele>426.0</ele><time>2026-04-12T09:56:44Z</time></trkpt><trkpt lat="43.99193023525113" lon="12.281277398449536"><ele>426.0</ele><time>2026-04-12T09:56:45Z</time></trkpt><trkpt lat="43.99203795830116" lon="12.281371288773613"><ele>426.0</ele><time>2026-04-12T09:56:46Z</time></trkpt><trkpt lat="43.992181852743414" lon="12.281463325653096"><ele>426.0</ele><time>2026-04-12T09:56:47Z</time></trkpt><trkpt lat="43.99236458781463" lon="12.281557259000401"><ele>416.0</ele><time>2026-04-12T09:56:48Z</time></trkpt><trkpt lat="43.99256789245565" lon="12.281715962108349"><ele>406.0</ele><time>2026-04-12T09:56:49Z</time></trkpt><trkpt lat="43.99275638460015" lon="12.281947525291622"><ele>406.0</ele><time>2026-04-12T09:56:50Z</time></trkpt><trkpt lat="43.99296574081891" lon="12.282143253349615"><ele>406.0</ele><time>2026-04-12T09:56:51Z</time></trkpt><trkpt lat="43.993157521489785" lon="12.282291567393687"><ele>406.6666666666667</ele><time>2026-04-12T09:56:52Z</time></trkpt><trkpt lat="43.99330999304502" lon="12.282455756946321"><ele>407.33333333333337</ele><time>2026-04-12T09:56:53Z</time></trkpt><trkpt lat="43.9934756693796" lon="12.282609896643253"><ele>408.0</ele><time>2026-04-12T09:56:54Z</time></trkpt><trkpt lat="43.9936503861599" lon="12.282754923527515"><ele>407.66666666666663</ele><time>2026-04-12T09:56:55Z</time></trkpt><trkpt lat="43.99382193693593" lon="12.28293013415462"><ele>407.3333333333333</ele><time>2026-04-12T09:56:56Z</time></trkpt><trkpt lat="43.99399887825797" lon="12.283125401171567"><ele>407.0</ele><time>2026-04-12T09:56:57Z</time></trkpt><trkpt lat="43.99415751593775" lon="12.283307005349702"><ele>403.66666666666663</ele><time>2026-04-12T09:56:58Z</time></trkpt><trkpt lat="43.994291943464155" lon="12.283467096007632"><ele>400.33333333333337</ele><time>2026-04-12T09:56:59Z</time></trkpt><trkpt lat="43.99441542032389" lon="12.283607684534308"><ele>397.0</ele><time>2026-04-12T09:57:00Z</time></trkpt><trkpt lat="43.994527970279634" lon="12.283737317430479"><ele>397.0</ele><time>2026-04-12T09:57:01Z</time></trkpt><trkpt lat="43.99462770792684" lon="12.283862068077315"><ele>397.0</ele><time>2026-04-12T09:57:02Z</time></trkpt><trkpt lat="43.99470902660572" lon="12.284007831293083"><ele>397.0</ele><time>2026-04-12T09:57:03Z</time></trkpt><trkpt lat="43.994781480299814" lon="12.284188821430972"><ele>397.0</ele><time>2026-04-12T09:57:04Z</time></trkpt><trkpt lat="43.99486813439763" lon="12.28442212937669"><ele>395.0</ele><time>2026-04-12T09:57:05Z</time></trkpt><trkpt lat="43.994963238045926" lon="12.284701147157065"><ele>393.0</ele><time>2026-04-12T09:57:06Z</time></trkpt><trkpt lat="43.995099866914536" lon="12.284976282199217"><ele>393.0</ele><time>2026-04-12T09:57:07Z</time></trkpt><trkpt lat="43.995221560314775" lon="12.285209595385801"><ele>393.0</ele><time>2026-04-12T09:57:08Z</time></trkpt><trkpt lat="43.99533323394946" lon="12.285422989307223"><ele>393.0</ele><time>2026-04-12T09:57:09Z</time></trkpt><trkpt lat="43.99542026909593" lon="12.285623426063049"><ele>393.66666666666663</ele><time>2026-04-12T09:57:10Z</time></trkpt><trkpt lat="43.995488965352635" lon="12.285832211046365"><ele>394.3333333333333</ele><time>2026-04-12T09:57:11Z</time></trkpt><trkpt lat="43.995532067180314" lon="12.286055883850963"><ele>395.0</ele><time>2026-04-12T09:57:12Z</time></trkpt><trkpt lat="43.995564223314425" lon="12.286309563293267"><ele>394.0</ele><time>2026-04-12T09:57:13Z</time></trkpt><trkpt lat="43.99558503001969" lon="12.286526809194205"><ele>393.0</ele><time>2026-04-12T09:57:14Z</time></trkpt><trkpt lat="43.995598882363424" lon="12.286710450753858"><ele>392.0</ele><time>2026-04-12T09:57:15Z</time></trkpt><trkpt lat="43.995611102677124" lon="12.286895713843261"><ele>391.0</ele><time>2026-04-12T09:57:16Z</time></trkpt><trkpt lat="43.99561410438947" lon="12.2870665469757"><ele>391.0</ele><time>2026-04-12T09:57:17Z</time></trkpt><trkpt lat="43.995619878319616" lon="12.28723991721326"><ele>391.0</ele><time>2026-04-12T09:57:18Z</time></trkpt><trkpt lat="43.99559752160593" lon="12.28743774953292"><ele>391.0</ele><time>2026-04-12T09:57:19Z</time></trkpt><trkpt lat="43.99555958072668" lon="12.287641630380987"><ele>391.0</ele><time>2026-04-12T09:57:20Z</time></trkpt><trkpt lat="43.99551300524024" lon="12.287829563260962"><ele>390.5</ele><time>2026-04-12T09:57:21Z</time></trkpt><trkpt lat="43.99547071372725" lon="12.28798895771312"><ele>390.0</ele><time>2026-04-12T09:57:22Z</time></trkpt><trkpt lat="43.99543044246974" lon="12.28816716242452"><ele>389.5</ele><time>2026-04-12T09:57:23Z</time></trkpt><trkpt lat="43.9953857214196" lon="12.2883291901444"><ele>389.0</ele><time>2026-04-12T09:57:24Z</time></trkpt><trkpt lat="43.995339433259176" lon="12.288488468598343"><ele>390.66666666666663</ele><time>2026-04-12T09:57:25Z</time></trkpt><trkpt lat="43.99529094293726" lon="12.288633129652696"><ele>392.33333333333337</ele><time>2026-04-12T09:57:26Z</time></trkpt><trkpt lat="43.995228321515135" lon="12.288770095885894"><ele>394.0</ele><time>2026-04-12T09:57:27Z</time></trkpt><trkpt lat="43.99766020153552" lon="12.295059768565268"><ele>384.75</ele><time>2026-04-12T09:58:28Z</time></trkpt><trkpt lat="43.997713006068096" lon="12.295211988487862"><ele>375.5</ele><time>2026-04-12T09:58:29Z</time></trkpt><trkpt lat="43.997791126320244" lon="12.295355800761522"><ele>366.25</ele><time>2026-04-12T09:58:30Z</time></trkpt><trkpt lat="43.99788284237358" lon="12.295490096186796"><ele>357.0</ele><time>2026-04-12T09:58:31Z</time></trkpt><trkpt lat="43.997989719482206" lon="12.295625441795364"><ele>353.0</ele><time>2026-04-12T09:58:32Z</time></trkpt><trkpt lat="43.99812250353613" lon="12.29573415122606"><ele>349.0</ele><time>2026-04-12T09:58:33Z</time></trkpt><trkpt lat="43.99826677919248" lon="12.295811923712026"><ele>345.0</ele><time>2026-04-12T09:58:34Z</time></trkpt><trkpt lat="43.99841535608152" lon="12.295869971066093"><ele>342.75</ele><time>2026-04-12T09:58:35Z</time></trkpt><trkpt lat="43.998549151615386" lon="12.295905812486117"><ele>340.5</ele><time>2026-04-12T09:58:36Z</time></trkpt><trkpt lat="43.99867277941889" lon="12.295898687291006"><ele>338.25</ele><time>2026-04-12T09:58:37Z</time></trkpt><trkpt lat="43.99878474789202" lon="12.295829107909302"><ele>336.0</ele><time>2026-04-12T09:58:38Z</time></trkpt><trkpt lat="43.99888747495708" lon="12.295774750161787"><ele>336.0</ele><time>2026-04-12T09:58:39Z</time></trkpt><trkpt lat="43.99897374155166" lon="12.2957321907427"><ele>336.0</ele><time>2026-04-12T09:58:40Z</time></trkpt><trkpt lat="43.99904521205346" lon="12.295699091873841"><ele>336.0</ele><time>2026-04-12T09:58:41Z</time></trkpt><trkpt lat="43.999118421135286" lon="12.295684607618037"><ele>336.0</ele><time>2026-04-12T09:58:42Z</time></trkpt><trkpt lat="43.99918442644724" lon="12.295706580201399"><ele>336.0</ele><time>2026-04-12T09:58:43Z</time></trkpt><trkpt lat="43.99923657999289" lon="12.295762275584233"><ele>336.0</ele><time>2026-04-12T09:58:44Z</time></trkpt><trkpt lat="43.99928186259313" lon="12.295832955464359"><ele>336.0</ele><time>2026-04-12T09:58:45Z</time></trkpt><trkpt lat="43.999337301336766" lon="12.295877486375371"><ele>335.6666666666667</ele><time>2026-04-12T09:58:46Z</time></trkpt><trkpt lat="43.99940269359391" lon="12.295902524412696"><ele>335.3333333333333</ele><time>2026-04-12T09:58:47Z</time></trkpt><trkpt lat="43.99947235348656" lon="12.295872828535401"><ele>335.0</ele><time>2026-04-12T09:58:48Z</time></trkpt><trkpt lat="43.99951595385484" lon="12.295752872203783"><ele>334.66666666666663</ele><time>2026-04-12T09:58:49Z</time></trkpt><trkpt lat="43.99955757801633" lon="12.295649397889282"><ele>334.3333333333333</ele><time>2026-04-12T09:58:50Z</time></trkpt><trkpt lat="43.99961343616319" lon="12.295564990047842"><ele>334.0</ele><time>2026-04-12T09:58:51Z</time></trkpt><trkpt lat="43.99966434166338" lon="12.295479552376728"><ele>334.0</ele><time>2026-04-12T09:58:52Z</time></trkpt><trkpt lat="43.999780057777826" lon="12.29549086874569"><ele>334.0</ele><time>2026-04-12T09:58:53Z</time></trkpt><trkpt lat="43.99988115198918" lon="12.295515909848922"><ele>334.0</ele><time>2026-04-12T09:58:54Z</time></trkpt><trkpt lat="44.000004153581465" lon="12.295583364344235"><ele>334.0</ele><time>2026-04-12T09:58:55Z</time></trkpt><trkpt lat="44.0001228152001" lon="12.29568290052192"><ele>334.0</ele><time>2026-04-12T09:58:56Z</time></trkpt><trkpt lat="44.00023562975144" lon="12.29579099511947"><ele>334.0</ele><time>2026-04-12T09:58:57Z</time></trkpt><trkpt lat="44.00035592958128" lon="12.2958941343374"><ele>334.0</ele><time>2026-04-12T09:58:58Z</time></trkpt><trkpt lat="44.000471910299844" lon="12.295994235423226"><ele>334.0</ele><time>2026-04-12T09:58:59Z</time></trkpt><trkpt lat="44.0005691054022" lon="12.29610567926839"><ele>334.0</ele><time>2026-04-12T09:59:00Z</time></trkpt><trkpt lat="44.00067931961231" lon="12.296203845813999"><ele>334.0</ele><time>2026-04-12T09:59:01Z</time></trkpt><trkpt lat="44.00078764079638" lon="12.296300136054363"><ele>334.0</ele><time>2026-04-12T09:59:02Z</time></trkpt><trkpt lat="44.000906030325375" lon="12.296379741125243"><ele>334.0</ele><time>2026-04-12T09:59:03Z</time></trkpt><trkpt lat="44.00101755391053" lon="12.296480889782192"><ele>335.0</ele><time>2026-04-12T09:59:04Z</time></trkpt><trkpt lat="44.001129901119576" lon="12.296580602265838"><ele>336.0</ele><time>2026-04-12T09:59:05Z</time></trkpt><trkpt lat="44.00123099821095" lon="12.296693959703408"><ele>337.0</ele><time>2026-04-12T09:59:06Z</time></trkpt><trkpt lat="44.001338723555065" lon="12.296771528495972"><ele>338.0</ele><time>2026-04-12T09:59:07Z</time></trkpt><trkpt lat="44.001439079533064" lon="12.296862142859263"><ele>338.0</ele><time>2026-04-12T09:59:08Z</time></trkpt><trkpt lat="44.00154152814991" lon="12.29695381863735"><ele>338.0</ele><time>2026-04-12T09:59:09Z</time></trkpt><trkpt lat="44.00164181398361" lon="12.29704374748691"><ele>338.0</ele><time>2026-04-12T09:59:10Z</time></trkpt><trkpt lat="44.00174288017621" lon="12.297127421382399"><ele>338.0</ele><time>2026-04-12T09:59:11Z</time></trkpt><trkpt lat="44.001843598495086" lon="12.297211443366663"><ele>338.75</ele><time>2026-04-12T09:59:12Z</time></trkpt><trkpt lat="44.001945202159156" lon="12.29729736797743"><ele>339.5</ele><time>2026-04-12T09:59:13Z</time></trkpt><trkpt lat="44.00204670623595" lon="12.297388032373606"><ele>340.25</ele><time>2026-04-12T09:59:14Z</time></trkpt><trkpt lat="44.002142801462576" lon="12.297471229361461"><ele>341.0</ele><time>2026-04-12T09:59:15Z</time></trkpt><trkpt lat="44.00223771706966" lon="12.297560008065869"><ele>341.0</ele><time>2026-04-12T09:59:16Z</time></trkpt><trkpt lat="44.00233458582284" lon="12.297649229545025"><ele>341.0</ele><time>2026-04-12T09:59:17Z</time></trkpt><trkpt lat="44.002427801766885" lon="12.29773897850709"><ele>341.0</ele><time>2026-04-12T09:59:18Z</time></trkpt><trkpt lat="44.002522464609825" lon="12.297820325628278"><ele>341.0</ele><time>2026-04-12T09:59:19Z</time></trkpt><trkpt lat="44.002606678266446" lon="12.297896095775041"><ele>341.0</ele><time>2026-04-12T09:59:20Z</time></trkpt><trkpt lat="44.002687131155284" lon="12.297964635183261"><ele>342.20000000000005</ele><time>2026-04-12T09:59:21Z</time></trkpt><trkpt lat="44.00275719579404" lon="12.29803287874629"><ele>343.40000000000003</ele><time>2026-04-12T09:59:22Z</time></trkpt><trkpt lat="44.00283346758358" lon="12.298096186238933"><ele>344.6</ele><time>2026-04-12T09:59:23Z</time></trkpt><trkpt lat="44.00291750255882" lon="12.298173183329121"><ele>345.8</ele><time>2026-04-12T09:59:24Z</time></trkpt><trkpt lat="44.003001144896295" lon="12.298251879687095"><ele>347.0</ele><time>2026-04-12T09:59:25Z</time></trkpt><trkpt lat="44.00308086604361" lon="12.298330252267906"><ele>347.0</ele><time>2026-04-12T09:59:26Z</time></trkpt><trkpt lat="44.00315527806958" lon="12.298400786812667"><ele>347.0</ele><time>2026-04-12T09:59:27Z</time></trkpt><trkpt lat="44.005771793195755" lon="12.304293851535345"><ele>348.5</ele><time>2026-04-12T10:00:28Z</time></trkpt><trkpt lat="44.0058354802479" lon="12.304432578490186"><ele>350.0</ele><time>2026-04-12T10:00:29Z</time></trkpt><trkpt lat="44.005861058527465" lon="12.304590138786551"><ele>351.5</ele><time>2026-04-12T10:00:30Z</time></trkpt><trkpt lat="44.00591069377511" lon="12.30472709576103"><ele>353.0</ele><time>2026-04-12T10:00:31Z</time></trkpt><trkpt lat="44.005930568380236" lon="12.304878671295814"><ele>353.0</ele><time>2026-04-12T10:00:32Z</time></trkpt><trkpt lat="44.005944226186955" lon="12.30504938478659"><ele>353.0</ele><time>2026-04-12T10:00:33Z</time></trkpt><trkpt lat="44.0059608102002" lon="12.305213108779844"><ele>353.0</ele><time>2026-04-12T10:00:34Z</time></trkpt><trkpt lat="44.005977736346026" lon="12.3053777241006"><ele>353.0</ele><time>2026-04-12T10:00:35Z</time></trkpt><trkpt lat="44.00598174134603" lon="12.305527735843581"><ele>353.1666666666667</ele><time>2026-04-12T10:00:36Z</time></trkpt><trkpt lat="44.005972718947525" lon="12.305658741201908"><ele>353.33333333333337</ele><time>2026-04-12T10:00:37Z</time></trkpt><trkpt lat="44.00595392035812" lon="12.30577470578751"><ele>353.5</ele><time>2026-04-12T10:00:38Z</time></trkpt><trkpt lat="44.00592799927518" lon="12.305873240966852"><ele>353.6666666666667</ele><time>2026-04-12T10:00:39Z</time></trkpt><trkpt lat="44.00590062681282" lon="12.305967451567442"><ele>353.8333333333333</ele><time>2026-04-12T10:00:40Z</time></trkpt><trkpt lat="44.00586721354916" lon="12.306068087038714"><ele>354.0</ele><time>2026-04-12T10:00:41Z</time></trkpt><trkpt lat="44.0058381409837" lon="12.30617985326837"><ele>348.5</ele><time>2026-04-12T10:00:42Z</time></trkpt><trkpt lat="44.005812702020634" lon="12.30631573326514"><ele>343.0</ele><time>2026-04-12T10:00:43Z</time></trkpt><trkpt lat="44.005778388118586" lon="12.306463545197525"><ele>337.5</ele><time>2026-04-12T10:00:44Z</time></trkpt><trkpt lat="44.00577851219962" lon="12.306646880888628"><ele>332.0</ele><time>2026-04-12T10:00:45Z</time></trkpt><trkpt lat="44.00579568626515" lon="12.306819641775988"><ele>332.0</ele><time>2026-04-12T10:00:46Z</time></trkpt><trkpt lat="44.005814289988905" lon="12.307010153340723"><ele>332.0</ele><time>2026-04-12T10:00:47Z</time></trkpt><trkpt lat="44.005827114751604" lon="12.307205768065423"><ele>332.0</ele><time>2026-04-12T10:00:48Z</time></trkpt><trkpt lat="44.00586837333609" lon="12.30737727286118"><ele>332.0</ele><time>2026-04-12T10:00:49Z</time></trkpt><trkpt lat="44.00587021453138" lon="12.307549898399136"><ele>336.5</ele><time>2026-04-12T10:00:50Z</time></trkpt><trkpt lat="44.00587541501778" lon="12.307721771357407"><ele>341.0</ele><time>2026-04-12T10:00:51Z</time></trkpt><trkpt lat="44.0058801207729" lon="12.307898681153462"><ele>345.5</ele><time>2026-04-12T10:00:52Z</time></trkpt><trkpt lat="44.00589635942865" lon="12.308074901173809"><ele>350.0</ele><time>2026-04-12T10:00:53Z</time></trkpt><trkpt lat="44.00592493172213" lon="12.308250962771826"><ele>350.0</ele><time>2026-04-12T10:00:54Z</time></trkpt><trkpt lat="44.00594833691104" lon="12.3083859613279"><ele>350.0</ele><time>2026-04-12T10:00:55Z</time></trkpt><trkpt lat="44.00597228983328" lon="12.30847529675579"><ele>350.0</ele><time>2026-04-12T10:00:56Z</time></trkpt><trkpt lat="44.00596648089344" lon="12.308564930908004"><ele>350.0</ele><time>2026-04-12T10:00:58Z</time></trkpt><trkpt lat="44.00604048972773" lon="12.308722988098125"><ele>350.0</ele><time>2026-04-12T10:01:01Z</time></trkpt><trkpt lat="44.00611085226358" lon="12.30888090313534"><ele>346.0</ele><time>2026-04-12T10:01:02Z</time></trkpt><trkpt lat="44.006226187317154" lon="12.309078128468851"><ele>342.0</ele><time>2026-04-12T10:01:03Z</time></trkpt><trkpt lat="44.006302514369516" lon="12.3092601755801"><ele>338.0</ele><time>2026-04-12T10:01:04Z</time></trkpt><trkpt lat="44.00636203458749" lon="12.309445304667253"><ele>338.0</ele><time>2026-04-12T10:01:05Z</time></trkpt><trkpt lat="44.006421292288664" lon="12.309615831343875"><ele>338.0</ele><time>2026-04-12T10:01:06Z</time></trkpt><trkpt lat="44.00645421250309" lon="12.309753469064312"><ele>338.0</ele><time>2026-04-12T10:01:07Z</time></trkpt><trkpt lat="44.00649632414953" lon="12.309959486390106"><ele>338.0</ele><time>2026-04-12T10:01:08Z</time></trkpt><trkpt lat="44.0065275798078" lon="12.310147739660732"><ele>337.0</ele><time>2026-04-12T10:01:09Z</time></trkpt><trkpt lat="44.00654260979587" lon="12.310323683775405"><ele>336.0</ele><time>2026-04-12T10:01:10Z</time></trkpt><trkpt lat="44.00657875633533" lon="12.310482598226521"><ele>335.0</ele><time>2026-04-12T10:01:11Z</time></trkpt><trkpt lat="44.00664157439504" lon="12.310632898183945"><ele>334.0</ele><time>2026-04-12T10:01:12Z</time></trkpt><trkpt lat="44.00672760107333" lon="12.310762006377999"><ele>337.5</ele><time>2026-04-12T10:01:13Z</time></trkpt><trkpt lat="44.00685620005664" lon="12.3108888859343"><ele>341.0</ele><time>2026-04-12T10:01:14Z</time></trkpt><trkpt lat="44.00699170156239" lon="12.310959979021879"><ele>344.5</ele><time>2026-04-12T10:01:15Z</time></trkpt><trkpt lat="44.007114502343974" lon="12.311039980763608"><ele>348.0</ele><time>2026-04-12T10:01:16Z</time></trkpt><trkpt lat="44.007203162236856" lon="12.311108148307076"><ele>348.0</ele><time>2026-04-12T10:01:17Z</time></trkpt><trkpt lat="44.00729573234268" lon="12.311195948729559"><ele>348.0</ele><time>2026-04-12T10:01:18Z</time></trkpt><trkpt lat="44.00739938457836" lon="12.311294449181208"><ele>348.0</ele><time>2026-04-12T10:01:19Z</time></trkpt><trkpt lat="44.00748055138569" lon="12.311423352078581"><ele>348.0</ele><time>2026-04-12T10:01:20Z</time></trkpt><trkpt lat="44.00752826205171" lon="12.311615988562018"><ele>345.0</ele><time>2026-04-12T10:01:21Z</time></trkpt><trkpt lat="44.00758076574516" lon="12.311822966621788"><ele>342.0</ele><time>2026-04-12T10:01:22Z</time></trkpt><trkpt lat="44.00762643425359" lon="12.31205506265887"><ele>339.0</ele><time>2026-04-12T10:01:23Z</time></trkpt><trkpt lat="44.00767253887334" lon="12.312297569504743"><ele>338.75</ele><time>2026-04-12T10:01:24Z</time></trkpt><trkpt lat="44.00771979423909" lon="12.31249696647763"><ele>338.5</ele><time>2026-04-12T10:01:25Z</time></trkpt><trkpt lat="44.00775889007738" lon="12.312680814983352"><ele>338.25</ele><time>2026-04-12T10:01:26Z</time></trkpt><trkpt lat="44.00779844167054" lon="12.312849419604513"><ele>338.0</ele><time>2026-04-12T10:01:27Z</time></trkpt><trkpt lat="44.0116312277793" lon="12.322784265552574"><ele>338.0</ele><time>2026-04-12T10:02:28Z</time></trkpt><trkpt lat="44.01171178692144" lon="12.322970893444166"><ele>338.0</ele><time>2026-04-12T10:02:29Z</time></trkpt><trkpt lat="44.01178968374026" lon="12.323122085777996"><ele>338.0</ele><time>2026-04-12T10:02:30Z</time></trkpt><trkpt lat="44.011864761767974" lon="12.323238814991097"><ele>338.0</ele><time>2026-04-12T10:02:31Z</time></trkpt><trkpt lat="44.01196226607158" lon="12.323324630775286"><ele>338.0</ele><time>2026-04-12T10:02:32Z</time></trkpt><trkpt lat="44.01208789582105" lon="12.323346224846363"><ele>338.0</ele><time>2026-04-12T10:02:33Z</time></trkpt><trkpt lat="44.01222392796988" lon="12.32333272084572"><ele>338.0</ele><time>2026-04-12T10:02:34Z</time></trkpt><trkpt lat="44.01235805741456" lon="12.323272968839829"><ele>338.0</ele><time>2026-04-12T10:02:35Z</time></trkpt><trkpt lat="44.012493590638435" lon="12.323219124202792"><ele>332.6666666666667</ele><time>2026-04-12T10:02:36Z</time></trkpt><trkpt lat="44.012630276668595" lon="12.323183775605534"><ele>327.3333333333333</ele><time>2026-04-12T10:02:37Z</time></trkpt><trkpt lat="44.012781075767386" lon="12.323170106328211"><ele>322.0</ele><time>2026-04-12T10:02:38Z</time></trkpt><trkpt lat="44.01294210006942" lon="12.323223835208596"><ele>322.0</ele><time>2026-04-12T10:02:39Z</time></trkpt><trkpt lat="44.01309765279047" lon="12.32325829578732"><ele>322.0</ele><time>2026-04-12T10:02:40Z</time></trkpt><trkpt lat="44.013233479196444" lon="12.323260526503493"><ele>322.0</ele><time>2026-04-12T10:02:41Z</time></trkpt><trkpt lat="44.01334435197865" lon="12.323259810280524"><ele>322.0</ele><time>2026-04-12T10:02:42Z</time></trkpt><trkpt lat="44.01344348013209" lon="12.323202272409203"><ele>320.8333333333333</ele><time>2026-04-12T10:02:43Z</time></trkpt><trkpt lat="44.01352566255807" lon="12.323097499283879"><ele>319.66666666666663</ele><time>2026-04-12T10:02:44Z</time></trkpt><trkpt lat="44.01359472864085" lon="12.322986568964724"><ele>318.5</ele><time>2026-04-12T10:02:45Z</time></trkpt><trkpt lat="44.01364642584543" lon="12.322909303497353"><ele>317.3333333333333</ele><time>2026-04-12T10:02:46Z</time></trkpt><trkpt lat="44.01370850818234" lon="12.322880346618726"><ele>316.1666666666667</ele><time>2026-04-12T10:02:47Z</time></trkpt><trkpt lat="44.0137815534378" lon="12.322894150548036"><ele>315.0</ele><time>2026-04-12T10:02:48Z</time></trkpt><trkpt lat="44.013836533844895" lon="12.322948385208933"><ele>315.0</ele><time>2026-04-12T10:02:49Z</time></trkpt><trkpt lat="44.013862718448394" lon="12.323049041490435"><ele>315.0</ele><time>2026-04-12T10:02:50Z</time></trkpt><trkpt lat="44.013849736726236" lon="12.323175068247222"><ele>315.0</ele><time>2026-04-12T10:02:51Z</time></trkpt><trkpt lat="44.01379595666475" lon="12.323288644543084"><ele>315.0</ele><time>2026-04-12T10:02:52Z</time></trkpt><trkpt lat="44.013714684501515" lon="12.323378833610517"><ele>315.0</ele><time>2026-04-12T10:02:53Z</time></trkpt><trkpt lat="44.01359683897336" lon="12.323473694116341"><ele>315.0</ele><time>2026-04-12T10:02:54Z</time></trkpt><trkpt lat="44.01349573216028" lon="12.323519432049723"><ele>315.0</ele><time>2026-04-12T10:02:55Z</time></trkpt><trkpt lat="44.01341891859308" lon="12.323584515058567"><ele>315.0</ele><time>2026-04-12T10:02:56Z</time></trkpt><trkpt lat="44.01335660200385" lon="12.323657652801545"><ele>315.0</ele><time>2026-04-12T10:02:57Z</time></trkpt><trkpt lat="44.0133128361836" lon="12.32374694382109"><ele>315.0</ele><time>2026-04-12T10:02:58Z</time></trkpt><trkpt lat="44.01331356936598" lon="12.323836115640642"><ele>315.0</ele><time>2026-04-12T10:02:59Z</time></trkpt><trkpt lat="44.01334955397036" lon="12.32391299370209"><ele>315.0</ele><time>2026-04-12T10:03:00Z</time></trkpt><trkpt lat="44.01340613014101" lon="12.323982888962068"><ele>315.0</ele><time>2026-04-12T10:03:01Z</time></trkpt><trkpt lat="44.01350562667012" lon="12.323949577821383"><ele>315.0</ele><time>2026-04-12T10:03:02Z</time></trkpt><trkpt lat="44.01361228426388" lon="12.323895859218565"><ele>315.0</ele><time>2026-04-12T10:03:03Z</time></trkpt><trkpt lat="44.013742184684176" lon="12.323824625703026"><ele>315.0</ele><time>2026-04-12T10:03:04Z</time></trkpt><trkpt lat="44.01386495349235" lon="12.323771278368952"><ele>315.0</ele><time>2026-04-12T10:03:05Z</time></trkpt><trkpt lat="44.013975233934396" lon="12.323750887076384"><ele>315.0</ele><time>2026-04-12T10:03:06Z</time></trkpt><trkpt lat="44.01409355493118" lon="12.323762064799054"><ele>315.0</ele><time>2026-04-12T10:03:07Z</time></trkpt><trkpt lat="44.01420924296807" lon="12.323832240155863"><ele>315.0</ele><time>2026-04-12T10:03:08Z</time></trkpt><trkpt lat="44.01432413253436" lon="12.323846326128207"><ele>313.0</ele><time>2026-04-12T10:03:09Z</time></trkpt><trkpt lat="44.01444641922478" lon="12.323842584144666"><ele>311.0</ele><time>2026-04-12T10:03:10Z</time></trkpt><trkpt lat="44.014556876826745" lon="12.323804636828756"><ele>309.0</ele><time>2026-04-12T10:03:11Z</time></trkpt><trkpt lat="44.01467387889602" lon="12.323785781377618"><ele>307.0</ele><time>2026-04-12T10:03:12Z</time></trkpt><trkpt lat="44.01479320433223" lon="12.323739398013313"><ele>307.0</ele><time>2026-04-12T10:03:13Z</time></trkpt><trkpt lat="44.01490988482277" lon="12.323742025626617"><ele>307.0</ele><time>2026-04-12T10:03:14Z</time></trkpt><trkpt lat="44.01503610029783" lon="12.323763781472145"><ele>307.0</ele><time>2026-04-12T10:03:15Z</time></trkpt><trkpt lat="44.015181708308454" lon="12.323862163538918"><ele>307.0</ele><time>2026-04-12T10:03:16Z</time></trkpt><trkpt lat="44.01538774491177" lon="12.323963217941545"><ele>300.5</ele><time>2026-04-12T10:03:17Z</time></trkpt><trkpt lat="44.01562862926147" lon="12.324083293344493"><ele>294.0</ele><time>2026-04-12T10:03:18Z</time></trkpt><trkpt lat="44.015872705379365" lon="12.32420526198319"><ele>293.5</ele><time>2026-04-12T10:03:19Z</time></trkpt><trkpt lat="44.016095803915555" lon="12.324316747832427"><ele>293.0</ele><time>2026-04-12T10:03:20Z</time></trkpt><trkpt lat="44.01630680110226" lon="12.324404196212658"><ele>293.0</ele><time>2026-04-12T10:03:21Z</time></trkpt><trkpt lat="44.01649546442826" lon="12.324497048522614"><ele>293.0</ele><time>2026-04-12T10:03:22Z</time></trkpt><trkpt lat="44.01667815125872" lon="12.324586468384314"><ele>293.0</ele><time>2026-04-12T10:03:23Z</time></trkpt><trkpt lat="44.01684862556563" lon="12.324671033853233"><ele>292.33333333333337</ele><time>2026-04-12T10:03:24Z</time></trkpt><trkpt lat="44.01701913445999" lon="12.324762509541111"><ele>291.6666666666667</ele><time>2026-04-12T10:03:25Z</time></trkpt><trkpt lat="44.01719740149856" lon="12.324854702624258"><ele>291.0</ele><time>2026-04-12T10:03:26Z</time></trkpt><trkpt lat="44.017382683419335" lon="12.324945652418178"><ele>294.0</ele><time>2026-04-12T10:03:27Z</time></trkpt><trkpt lat="44.02293764361903" lon="12.33317862276327"><ele>294.0</ele><time>2026-04-12T10:04:28Z</time></trkpt><trkpt lat="44.023040810291775" lon="12.333238475194687"><ele>294.0</ele><time>2026-04-12T10:04:29Z</time></trkpt><trkpt lat="44.02314828265703" lon="12.333304322320751"><ele>294.0</ele><time>2026-04-12T10:04:30Z</time></trkpt><trkpt lat="44.0232618616806" lon="12.33340520294167"><ele>294.0</ele><time>2026-04-12T10:04:31Z</time></trkpt><trkpt lat="44.023371087841774" lon="12.333541391743976"><ele>294.3333333333333</ele><time>2026-04-12T10:04:32Z</time></trkpt><trkpt lat="44.02349372958143" lon="12.333706919957471"><ele>294.66666666666663</ele><time>2026-04-12T10:04:33Z</time></trkpt><trkpt lat="44.02361623307306" lon="12.333879081086659"><ele>295.0</ele><time>2026-04-12T10:04:34Z</time></trkpt><trkpt lat="44.02371984220457" lon="12.334053127034203"><ele>295.0</ele><time>2026-04-12T10:04:35Z</time></trkpt><trkpt lat="44.02378043825219" lon="12.334232277643142"><ele>295.0</ele><time>2026-04-12T10:04:36Z</time></trkpt><trkpt lat="44.02379490334382" lon="12.334439877777987"><ele>295.0</ele><time>2026-04-12T10:04:37Z</time></trkpt><trkpt lat="44.023790682895296" lon="12.33466541831473"><ele>294.0</ele><time>2026-04-12T10:04:38Z</time></trkpt><trkpt lat="44.02378488082872" lon="12.334881244414312"><ele>293.0</ele><time>2026-04-12T10:04:39Z</time></trkpt><trkpt lat="44.02379656347055" lon="12.335088775420557"><ele>292.0</ele><time>2026-04-12T10:04:40Z</time></trkpt><trkpt lat="44.02381033805006" lon="12.335262502374071"><ele>291.0</ele><time>2026-04-12T10:04:41Z</time></trkpt><trkpt lat="44.02385689057451" lon="12.335401465886905"><ele>291.0</ele><time>2026-04-12T10:04:42Z</time></trkpt><trkpt lat="44.023938072979035" lon="12.335513171209875"><ele>291.0</ele><time>2026-04-12T10:04:43Z</time></trkpt><trkpt lat="44.02406193381693" lon="12.335564798171434"><ele>291.0</ele><time>2026-04-12T10:04:44Z</time></trkpt><trkpt lat="44.024224788288585" lon="12.335591355141291"><ele>291.0</ele><time>2026-04-12T10:04:45Z</time></trkpt><trkpt lat="44.024417707207206" lon="12.335620692925477"><ele>292.3333333333333</ele><time>2026-04-12T10:04:46Z</time></trkpt><trkpt lat="44.02461023371319" lon="12.335655019967152"><ele>293.66666666666663</ele><time>2026-04-12T10:04:47Z</time></trkpt><trkpt lat="44.02481773182951" lon="12.335678565436796"><ele>295.0</ele><time>2026-04-12T10:04:48Z</time></trkpt><trkpt lat="44.0249875494098" lon="12.335692996141196"><ele>295.0</ele><time>2026-04-12T10:04:49Z</time></trkpt><trkpt lat="44.025143513441385" lon="12.335708403484547"><ele>295.0</ele><time>2026-04-12T10:04:50Z</time></trkpt><trkpt lat="44.02527433877999" lon="12.33572991838229"><ele>295.0</ele><time>2026-04-12T10:04:51Z</time></trkpt><trkpt lat="44.025390375736166" lon="12.335725887720583"><ele>295.0</ele><time>2026-04-12T10:04:52Z</time></trkpt><trkpt lat="44.02549588378331" lon="12.335667100584969"><ele>295.0</ele><time>2026-04-12T10:04:53Z</time></trkpt><trkpt lat="44.02559839330089" lon="12.335569004098135"><ele>295.0</ele><time>2026-04-12T10:04:54Z</time></trkpt><trkpt lat="44.02566278621611" lon="12.335505607437767"><ele>295.0</ele><time>2026-04-12T10:04:55Z</time></trkpt><trkpt lat="44.02572934521957" lon="12.33547917827279"><ele>295.0</ele><time>2026-04-12T10:04:56Z</time></trkpt><trkpt lat="44.02579543749699" lon="12.335460330605812"><ele>295.0</ele><time>2026-04-12T10:04:57Z</time></trkpt><trkpt lat="44.02583515978775" lon="12.335538040752562"><ele>295.0</ele><time>2026-04-12T10:04:58Z</time></trkpt><trkpt lat="44.02582910745763" lon="12.335644118078111"><ele>295.0</ele><time>2026-04-12T10:04:59Z</time></trkpt><trkpt lat="44.02578775439937" lon="12.335779117375127"><ele>295.0</ele><time>2026-04-12T10:05:00Z</time></trkpt><trkpt lat="44.02575057721643" lon="12.33587729415469"><ele>295.0</ele><time>2026-04-12T10:05:01Z</time></trkpt><trkpt lat="44.02574607230235" lon="12.335980894339881"><ele>295.0</ele><time>2026-04-12T10:05:02Z</time></trkpt><trkpt lat="44.025780889879634" lon="12.336072818126397"><ele>295.0</ele><time>2026-04-12T10:05:03Z</time></trkpt><trkpt lat="44.025850492709104" lon="12.33611737895285"><ele>295.0</ele><time>2026-04-12T10:05:04Z</time></trkpt><trkpt lat="44.0259674529664" lon="12.336052616303117"><ele>293.5</ele><time>2026-04-12T10:05:06Z</time></trkpt><trkpt lat="44.026008262180454" lon="12.335908511705206"><ele>292.0</ele><time>2026-04-12T10:05:07Z</time></trkpt><trkpt lat="44.02604209306025" lon="12.335707587066043"><ele>290.5</ele><time>2026-04-12T10:05:08Z</time></trkpt><trkpt lat="44.02607484053878" lon="12.335504287889458"><ele>289.0</ele><time>2026-04-12T10:05:09Z</time></trkpt><trkpt lat="44.026095263119416" lon="12.335359728686974"><ele>289.0</ele><time>2026-04-12T10:05:10Z</time></trkpt><trkpt lat="44.02609730687808" lon="12.335230850601329"><ele>289.0</ele><time>2026-04-12T10:05:11Z</time></trkpt><trkpt lat="44.026067791870524" lon="12.335127189576866"><ele>289.0</ele><time>2026-04-12T10:05:12Z</time></trkpt><trkpt lat="44.02602407955836" lon="12.335061803877428"><ele>289.0</ele><time>2026-04-12T10:05:13Z</time></trkpt><trkpt lat="44.02602204312647" lon="12.334940827166633"><ele>289.0</ele><time>2026-04-12T10:05:15Z</time></trkpt><trkpt lat="44.02614127615603" lon="12.335000122511298"><ele>289.0</ele><time>2026-04-12T10:05:17Z</time></trkpt><trkpt lat="44.02620945816975" lon="12.335075070988715"><ele>289.0</ele><time>2026-04-12T10:05:18Z</time></trkpt><trkpt lat="44.026244217106296" lon="12.335169501986478"><ele>289.0</ele><time>2026-04-12T10:05:19Z</time></trkpt><trkpt lat="44.02626080178346" lon="12.33528957800866"><ele>289.0</ele><time>2026-04-12T10:05:20Z</time></trkpt><trkpt lat="44.02625168675389" lon="12.335467594612377"><ele>289.0</ele><time>2026-04-12T10:05:21Z</time></trkpt><trkpt lat="44.0262459509664" lon="12.335685594230359"><ele>288.66666666666663</ele><time>2026-04-12T10:05:22Z</time></trkpt><trkpt lat="44.02624782749997" lon="12.335953247218457"><ele>288.3333333333333</ele><time>2026-04-12T10:05:23Z</time></trkpt><trkpt lat="44.026276599529744" lon="12.336260132269084"><ele>288.0</ele><time>2026-04-12T10:05:24Z</time></trkpt><trkpt lat="44.02631605490268" lon="12.336553411476924"><ele>283.6666666666667</ele><time>2026-04-12T10:05:25Z</time></trkpt><trkpt lat="44.026351831384446" lon="12.336819344445331"><ele>279.33333333333337</ele><time>2026-04-12T10:05:26Z</time></trkpt><trkpt lat="44.026383843070455" lon="12.337068089819617"><ele>275.0</ele><time>2026-04-12T10:05:27Z</time></trkpt><trkpt lat="44.02939087945789" lon="12.34836772108106"><ele>263.33333333333337</ele><time>2026-04-12T10:06:28Z</time></trkpt><trkpt lat="44.02951373616988" lon="12.348532614712735"><ele>251.66666666666669</ele><time>2026-04-12T10:06:29Z</time></trkpt><trkpt lat="44.029659503999696" lon="12.3486896292694"><ele>240.0</ele><time>2026-04-12T10:06:30Z</time></trkpt><trkpt lat="44.02981665515559" lon="12.348838211155005"><ele>240.0</ele><time>2026-04-12T10:06:31Z</time></trkpt><trkpt lat="44.029938920414764" lon="12.34902118890481"><ele>240.0</ele><time>2026-04-12T10:06:32Z</time></trkpt><trkpt lat="44.03006172322899" lon="12.349205419426127"><ele>240.0</ele><time>2026-04-12T10:06:33Z</time></trkpt><trkpt lat="44.03019874175795" lon="12.34938361345728"><ele>240.0</ele><time>2026-04-12T10:06:34Z</time></trkpt><trkpt lat="44.03031794146884" lon="12.349568212650976"><ele>240.0</ele><time>2026-04-12T10:06:35Z</time></trkpt><trkpt lat="44.030442608275294" lon="12.349754164200451"><ele>240.0</ele><time>2026-04-12T10:06:36Z</time></trkpt><trkpt lat="44.03057064672926" lon="12.349944942484328"><ele>240.66666666666669</ele><time>2026-04-12T10:06:37Z</time></trkpt><trkpt lat="44.03068649044661" lon="12.350146500033908"><ele>241.33333333333334</ele><time>2026-04-12T10:06:38Z</time></trkpt><trkpt lat="44.030809223848664" lon="12.350298607385758"><ele>242.0</ele><time>2026-04-12T10:06:39Z</time></trkpt><trkpt lat="44.030909035245934" lon="12.350448975848622"><ele>241.5</ele><time>2026-04-12T10:06:40Z</time></trkpt><trkpt lat="44.03098559045812" lon="12.350594232776496"><ele>241.0</ele><time>2026-04-12T10:06:41Z</time></trkpt><trkpt lat="44.031065131787344" lon="12.350719696086177"><ele>240.5</ele><time>2026-04-12T10:06:42Z</time></trkpt><trkpt lat="44.03113142969925" lon="12.350835981998326"><ele>240.0</ele><time>2026-04-12T10:06:43Z</time></trkpt><trkpt lat="44.031183166463244" lon="12.350951418560312"><ele>240.0</ele><time>2026-04-12T10:06:44Z</time></trkpt><trkpt lat="44.03121489748441" lon="12.351095629615827"><ele>240.0</ele><time>2026-04-12T10:06:45Z</time></trkpt><trkpt lat="44.03123704920167" lon="12.351277161598446"><ele>240.0</ele><time>2026-04-12T10:06:46Z</time></trkpt><trkpt lat="44.03126216850614" lon="12.351485722149953"><ele>240.0</ele><time>2026-04-12T10:06:47Z</time></trkpt><trkpt lat="44.03127933965385" lon="12.351676215107219"><ele>240.5</ele><time>2026-04-12T10:06:48Z</time></trkpt><trkpt lat="44.031288167795935" lon="12.351858563654964"><ele>241.0</ele><time>2026-04-12T10:06:49Z</time></trkpt><trkpt lat="44.031291408024614" lon="12.35203384591999"><ele>241.5</ele><time>2026-04-12T10:06:50Z</time></trkpt><trkpt lat="44.031289572645676" lon="12.352198556079237"><ele>242.0</ele><time>2026-04-12T10:06:51Z</time></trkpt><trkpt lat="44.03127811848494" lon="12.352372931773585"><ele>242.0</ele><time>2026-04-12T10:06:52Z</time></trkpt><trkpt lat="44.03125637294923" lon="12.352536778715345"><ele>242.0</ele><time>2026-04-12T10:06:53Z</time></trkpt><trkpt lat="44.031234673220084" lon="12.35270362396916"><ele>242.0</ele><time>2026-04-12T10:06:54Z</time></trkpt><trkpt lat="44.03118504448566" lon="12.352863774284213"><ele>242.0</ele><time>2026-04-12T10:06:55Z</time></trkpt><trkpt lat="44.03112516534863" lon="12.353029258061518"><ele>244.25</ele><time>2026-04-12T10:06:56Z</time></trkpt><trkpt lat="44.03107477664784" lon="12.353206454891252"><ele>246.5</ele><time>2026-04-12T10:06:57Z</time></trkpt><trkpt lat="44.03102897279518" lon="12.353377816056474"><ele>248.75</ele><time>2026-04-12T10:06:58Z</time></trkpt><trkpt lat="44.030986656621884" lon="12.353558915858127"><ele>251.0</ele><time>2026-04-12T10:06:59Z</time></trkpt><trkpt lat="44.03097643534132" lon="12.353750960176086"><ele>252.25</ele><time>2026-04-12T10:07:00Z</time></trkpt><trkpt lat="44.03096287799806" lon="12.353938881339396"><ele>253.5</ele><time>2026-04-12T10:07:01Z</time></trkpt><trkpt lat="44.030942699103605" lon="12.354113119867666"><ele>254.75</ele><time>2026-04-12T10:07:02Z</time></trkpt><trkpt lat="44.03093651668355" lon="12.35427271345905"><ele>256.0</ele><time>2026-04-12T10:07:03Z</time></trkpt><trkpt lat="44.03095356351811" lon="12.35442901565347"><ele>256.0</ele><time>2026-04-12T10:07:04Z</time></trkpt><trkpt lat="44.0309727326564" lon="12.35457127366881"><ele>256.0</ele><time>2026-04-12T10:07:05Z</time></trkpt><trkpt lat="44.03102258595634" lon="12.354724437042453"><ele>256.0</ele><time>2026-04-12T10:07:06Z</time></trkpt><trkpt lat="44.03111191284087" lon="12.354873776187102"><ele>256.0</ele><time>2026-04-12T10:07:07Z</time></trkpt><trkpt lat="44.03122960925752" lon="12.355032013620942"><ele>254.25</ele><time>2026-04-12T10:07:08Z</time></trkpt><trkpt lat="44.031330952960765" lon="12.355208789348934"><ele>252.5</ele><time>2026-04-12T10:07:09Z</time></trkpt><trkpt lat="44.03144612352859" lon="12.355324415918284"><ele>250.75</ele><time>2026-04-12T10:07:10Z</time></trkpt><trkpt lat="44.0315313359345" lon="12.355457711606894"><ele>249.0</ele><time>2026-04-12T10:07:11Z</time></trkpt><trkpt lat="44.03161467634663" lon="12.355591285365264"><ele>250.0</ele><time>2026-04-12T10:07:12Z</time></trkpt><trkpt lat="44.03170345433473" lon="12.355725077927552"><ele>251.0</ele><time>2026-04-12T10:07:13Z</time></trkpt><trkpt lat="44.03176309543183" lon="12.355895139978267"><ele>252.0</ele><time>2026-04-12T10:07:14Z</time></trkpt><trkpt lat="44.03181433659275" lon="12.35604624150277"><ele>253.0</ele><time>2026-04-12T10:07:15Z</time></trkpt><trkpt lat="44.03184902627524" lon="12.356227577328728"><ele>251.0</ele><time>2026-04-12T10:07:16Z</time></trkpt><trkpt lat="44.031845079460275" lon="12.356424344741171"><ele>249.0</ele><time>2026-04-12T10:07:17Z</time></trkpt><trkpt lat="44.03182439557046" lon="12.356618788169213"><ele>247.0</ele><time>2026-04-12T10:07:18Z</time></trkpt><trkpt lat="44.03182628867694" lon="12.356791127276859"><ele>245.0</ele><time>2026-04-12T10:07:19Z</time></trkpt><trkpt lat="44.0318269675722" lon="12.3569600838762"><ele>245.0</ele><time>2026-04-12T10:07:20Z</time></trkpt><trkpt lat="44.03186692803771" lon="12.357115683111644"><ele>245.0</ele><time>2026-04-12T10:07:21Z</time></trkpt><trkpt lat="44.03194191666692" lon="12.35726867992889"><ele>245.0</ele><time>2026-04-12T10:07:22Z</time></trkpt><trkpt lat="44.032035668938704" lon="12.357415706255571"><ele>245.0</ele><time>2026-04-12T10:07:23Z</time></trkpt><trkpt lat="44.03214792142227" lon="12.357527405395953"><ele>245.25</ele><time>2026-04-12T10:07:24Z</time></trkpt><trkpt lat="44.032269082902694" lon="12.357615675471347"><ele>245.5</ele><time>2026-04-12T10:07:25Z</time></trkpt><trkpt lat="44.03238128654233" lon="12.357713997489045"><ele>245.75</ele><time>2026-04-12T10:07:26Z</time></trkpt><trkpt lat="44.03251948292184" lon="12.357807008702554"><ele>246.0</ele><time>2026-04-12T10:07:27Z</time></trkpt><trkpt lat="44.03814896662674" lon="12.36432768888596"><ele>241.33333333333331</ele><time>2026-04-12T10:08:28Z</time></trkpt><trkpt lat="44.03826616070905" lon="12.364468436053496"><ele>236.66666666666666</ele><time>2026-04-12T10:08:29Z</time></trkpt><trkpt lat="44.038370779736624" lon="12.364660497444941"><ele>232.0</ele><time>2026-04-12T10:08:30Z</time></trkpt><trkpt lat="44.038487842643725" lon="12.364831575474431"><ele>228.0</ele><time>2026-04-12T10:08:31Z</time></trkpt><trkpt lat="44.038608195694664" lon="12.36498944989808"><ele>224.0</ele><time>2026-04-12T10:08:32Z</time></trkpt><trkpt lat="44.0387339985796" lon="12.365130325176013"><ele>220.0</ele><time>2026-04-12T10:08:33Z</time></trkpt><trkpt lat="44.03886105945792" lon="12.365247654380463"><ele>220.0</ele><time>2026-04-12T10:08:34Z</time></trkpt><trkpt lat="44.038986552995084" lon="12.365315690361774"><ele>220.0</ele><time>2026-04-12T10:08:35Z</time></trkpt><trkpt lat="44.03908149605695" lon="12.365402820680941"><ele>220.0</ele><time>2026-04-12T10:08:36Z</time></trkpt><trkpt lat="44.03915645986387" lon="12.365470427634863"><ele>220.0</ele><time>2026-04-12T10:08:37Z</time></trkpt><trkpt lat="44.03922170010305" lon="12.365526102217283"><ele>220.0</ele><time>2026-04-12T10:08:38Z</time></trkpt><trkpt lat="44.03925170648548" lon="12.36562758563512"><ele>217.99999999999997</ele><time>2026-04-12T10:08:39Z</time></trkpt><trkpt lat="44.03925254004322" lon="12.365739128763773"><ele>216.0</ele><time>2026-04-12T10:08:40Z</time></trkpt><trkpt lat="44.03922682228634" lon="12.365840344263248"><ele>214.0</ele><time>2026-04-12T10:08:41Z</time></trkpt><trkpt lat="44.039168015990114" lon="12.365901018052016"><ele>212.0</ele><time>2026-04-12T10:08:42Z</time></trkpt><trkpt lat="44.039099808291695" lon="12.365899573083677"><ele>209.99999999999997</ele><time>2026-04-12T10:08:43Z</time></trkpt><trkpt lat="44.039033685644945" lon="12.365850224249664"><ele>208.0</ele><time>2026-04-12T10:08:44Z</time></trkpt><trkpt lat="44.03896167219837" lon="12.365757631488492"><ele>206.66666666666666</ele><time>2026-04-12T10:08:45Z</time></trkpt><trkpt lat="44.03889118024171" lon="12.36568785483333"><ele>205.33333333333331</ele><time>2026-04-12T10:08:46Z</time></trkpt><trkpt lat="44.038821185047155" lon="12.365659079033406"><ele>204.0</ele><time>2026-04-12T10:08:47Z</time></trkpt><trkpt lat="44.038752349224765" lon="12.365677576607455"><ele>202.66666666666669</ele><time>2026-04-12T10:08:48Z</time></trkpt><trkpt lat="44.03869712988652" lon="12.365753730767834"><ele>201.33333333333334</ele><time>2026-04-12T10:08:49Z</time></trkpt><trkpt lat="44.03868157212984" lon="12.365885573877057"><ele>200.0</ele><time>2026-04-12T10:08:50Z</time></trkpt><trkpt lat="44.0387175744626" lon="12.366022582126169"><ele>200.0</ele><time>2026-04-12T10:08:51Z</time></trkpt><trkpt lat="44.03879027878857" lon="12.366175897587754"><ele>200.0</ele><time>2026-04-12T10:08:52Z</time></trkpt><trkpt lat="44.03885518226767" lon="12.366361852021317"><ele>200.0</ele><time>2026-04-12T10:08:53Z</time></trkpt><trkpt lat="44.038941276544215" lon="12.366527579583744"><ele>200.0</ele><time>2026-04-12T10:08:54Z</time></trkpt><trkpt lat="44.039011596953664" lon="12.366707941437518"><ele>199.25</ele><time>2026-04-12T10:08:55Z</time></trkpt><trkpt lat="44.039069189127" lon="12.366892683759225"><ele>198.5</ele><time>2026-04-12T10:08:56Z</time></trkpt><trkpt lat="44.0391146452269" lon="12.367087736437787"><ele>197.75</ele><time>2026-04-12T10:08:57Z</time></trkpt><trkpt lat="44.03915226899546" lon="12.367269988646584"><ele>197.0</ele><time>2026-04-12T10:08:58Z</time></trkpt><trkpt lat="44.03919466286771" lon="12.367453988258312"><ele>197.0</ele><time>2026-04-12T10:08:59Z</time></trkpt><trkpt lat="44.03924506736552" lon="12.367634939177524"><ele>197.0</ele><time>2026-04-12T10:09:00Z</time></trkpt><trkpt lat="44.03930257214296" lon="12.367807175403058"><ele>197.0</ele><time>2026-04-12T10:09:01Z</time></trkpt><trkpt lat="44.03935797054693" lon="12.36798124763473"><ele>197.0</ele><time>2026-04-12T10:09:02Z</time></trkpt><trkpt lat="44.0394161153939" lon="12.368161307474143"><ele>194.0</ele><time>2026-04-12T10:09:03Z</time></trkpt><trkpt lat="44.039473040210005" lon="12.368340043134424"><ele>191.0</ele><time>2026-04-12T10:09:04Z</time></trkpt><trkpt lat="44.03953287984454" lon="12.368520411692062"><ele>188.0</ele><time>2026-04-12T10:09:05Z</time></trkpt><trkpt lat="44.03959528101209" lon="12.368676623879816"><ele>185.0</ele><time>2026-04-12T10:09:06Z</time></trkpt><trkpt lat="44.03967700427125" lon="12.368815012988847"><ele>185.0</ele><time>2026-04-12T10:09:07Z</time></trkpt><trkpt lat="44.03977342284746" lon="12.368932441285763"><ele>185.0</ele><time>2026-04-12T10:09:08Z</time></trkpt><trkpt lat="44.039897992287685" lon="12.369037677003481"><ele>185.0</ele><time>2026-04-12T10:09:09Z</time></trkpt><trkpt lat="44.040052262472" lon="12.369140186422385"><ele>185.0</ele><time>2026-04-12T10:09:10Z</time></trkpt><trkpt lat="44.040202489958695" lon="12.369240143787174"><ele>185.0</ele><time>2026-04-12T10:09:11Z</time></trkpt><trkpt lat="44.040341656776185" lon="12.369337221659"><ele>185.0</ele><time>2026-04-12T10:09:12Z</time></trkpt><trkpt lat="44.0404790800936" lon="12.369437767579663"><ele>185.0</ele><time>2026-04-12T10:09:13Z</time></trkpt><trkpt lat="44.04062587611501" lon="12.369543560286566"><ele>185.0</ele><time>2026-04-12T10:09:14Z</time></trkpt><trkpt lat="44.040768209499966" lon="12.3696553398544"><ele>185.0</ele><time>2026-04-12T10:09:15Z</time></trkpt><trkpt lat="44.040907219915056" lon="12.369784086490602"><ele>185.0</ele><time>2026-04-12T10:09:16Z</time></trkpt><trkpt lat="44.04103331761006" lon="12.369949653569929"><ele>183.33333333333331</ele><time>2026-04-12T10:09:17Z</time></trkpt><trkpt lat="44.0411476500474" lon="12.370106997069206"><ele>181.66666666666666</ele><time>2026-04-12T10:09:18Z</time></trkpt><trkpt lat="44.0412513009172" lon="12.370258355521347"><ele>180.0</ele><time>2026-04-12T10:09:19Z</time></trkpt><trkpt lat="44.041348427614786" lon="12.370396734557005"><ele>177.75</ele><time>2026-04-12T10:09:20Z</time></trkpt><trkpt lat="44.041430657620374" lon="12.370527782425178"><ele>175.5</ele><time>2026-04-12T10:09:21Z</time></trkpt><trkpt lat="44.04149285261208" lon="12.37066124695087"><ele>173.25</ele><time>2026-04-12T10:09:22Z</time></trkpt><trkpt lat="44.0415290469841" lon="12.370800016723004"><ele>171.0</ele><time>2026-04-12T10:09:23Z</time></trkpt><trkpt lat="44.04154657356191" lon="12.370964113719513"><ele>171.0</ele><time>2026-04-12T10:09:24Z</time></trkpt><trkpt lat="44.04156540614514" lon="12.371167220310447"><ele>171.0</ele><time>2026-04-12T10:09:25Z</time></trkpt><trkpt lat="44.041603843519184" lon="12.371374589167702"><ele>171.0</ele><time>2026-04-12T10:09:26Z</time></trkpt><trkpt lat="44.041679692374856" lon="12.371562264199454"><ele>153.0</ele><time>2026-04-12T10:09:27Z</time></trkpt><trkpt lat="44.05221575680724" lon="12.373436366158206"><ele>153.0</ele><time>2026-04-12T10:10:28Z</time></trkpt><trkpt lat="44.05240745498629" lon="12.37361939194139"><ele>153.0</ele><time>2026-04-12T10:10:29Z</time></trkpt><trkpt lat="44.05258995383203" lon="12.373810153757951"><ele>152.0</ele><time>2026-04-12T10:10:30Z</time></trkpt><trkpt lat="44.052758574745496" lon="12.373990953598764"><ele>151.0</ele><time>2026-04-12T10:10:31Z</time></trkpt><trkpt lat="44.05291961218243" lon="12.374154651686997"><ele>150.0</ele><time>2026-04-12T10:10:32Z</time></trkpt><trkpt lat="44.053071202458305" lon="12.374298656475673"><ele>150.0</ele><time>2026-04-12T10:10:33Z</time></trkpt><trkpt lat="44.05322738724112" lon="12.374432460765046"><ele>150.0</ele><time>2026-04-12T10:10:34Z</time></trkpt><trkpt lat="44.05337758468856" lon="12.374551863459832"><ele>150.0</ele><time>2026-04-12T10:10:35Z</time></trkpt><trkpt lat="44.053525518665104" lon="12.374664701162148"><ele>151.0</ele><time>2026-04-12T10:10:36Z</time></trkpt><trkpt lat="44.05366721657445" lon="12.374789669459055"><ele>152.0</ele><time>2026-04-12T10:10:37Z</time></trkpt><trkpt lat="44.05381837172079" lon="12.374915941281234"><ele>153.0</ele><time>2026-04-12T10:10:38Z</time></trkpt><trkpt lat="44.05396491500135" lon="12.375046913337897"><ele>153.0</ele><time>2026-04-12T10:10:39Z</time></trkpt><trkpt lat="44.054107133572245" lon="12.37517260728175"><ele>153.0</ele><time>2026-04-12T10:10:40Z</time></trkpt><trkpt lat="44.054248701981386" lon="12.375301123670104"><ele>153.0</ele><time>2026-04-12T10:10:41Z</time></trkpt><trkpt lat="44.05439101812431" lon="12.375427036649839"><ele>152.33333333333334</ele><time>2026-04-12T10:10:42Z</time></trkpt><trkpt lat="44.054529225939945" lon="12.375547031318227"><ele>151.66666666666669</ele><time>2026-04-12T10:10:43Z</time></trkpt><trkpt lat="44.05465551790971" lon="12.375666373427983"><ele>151.0</ele><time>2026-04-12T10:10:44Z</time></trkpt><trkpt lat="44.054774996469185" lon="12.375776810910487"><ele>151.0</ele><time>2026-04-12T10:10:45Z</time></trkpt><trkpt lat="44.054892607828776" lon="12.37587987824735"><ele>151.0</ele><time>2026-04-12T10:10:46Z</time></trkpt><trkpt lat="44.055011901815305" lon="12.375942323540933"><ele>151.0</ele><time>2026-04-12T10:10:47Z</time></trkpt><trkpt lat="44.05513326233808" lon="12.37595798293728"><ele>151.0</ele><time>2026-04-12T10:10:48Z</time></trkpt><trkpt lat="44.05524612189311" lon="12.375974233072839"><ele>151.66666666666669</ele><time>2026-04-12T10:10:49Z</time></trkpt><trkpt lat="44.05535297791747" lon="12.376042621112564"><ele>152.33333333333334</ele><time>2026-04-12T10:10:50Z</time></trkpt><trkpt lat="44.0554761283637" lon="12.3761783236905"><ele>153.0</ele><time>2026-04-12T10:10:51Z</time></trkpt><trkpt lat="44.055603151267206" lon="12.376354191035073"><ele>151.0</ele><time>2026-04-12T10:10:52Z</time></trkpt><trkpt lat="44.05568734069825" lon="12.376554479253954"><ele>149.0</ele><time>2026-04-12T10:10:53Z</time></trkpt><trkpt lat="44.05579404615745" lon="12.376671825405365"><ele>147.0</ele><time>2026-04-12T10:10:54Z</time></trkpt><trkpt lat="44.05592939013001" lon="12.376773130333316"><ele>145.66666666666666</ele><time>2026-04-12T10:10:55Z</time></trkpt><trkpt lat="44.056094682482254" lon="12.376831429241214"><ele>144.33333333333331</ele><time>2026-04-12T10:10:56Z</time></trkpt><trkpt lat="44.05628359089281" lon="12.37684939752439"><ele>143.0</ele><time>2026-04-12T10:10:57Z</time></trkpt><trkpt lat="44.056476392923805" lon="12.376841213222306"><ele>141.0</ele><time>2026-04-12T10:10:58Z</time></trkpt><trkpt lat="44.05668721680593" lon="12.376817158753"><ele>139.0</ele><time>2026-04-12T10:10:59Z</time></trkpt><trkpt lat="44.056906291846936" lon="12.376775942218075"><ele>137.0</ele><time>2026-04-12T10:11:00Z</time></trkpt><trkpt lat="44.05709877460195" lon="12.376730802898066"><ele>137.0</ele><time>2026-04-12T10:11:01Z</time></trkpt><trkpt lat="44.05727235677815" lon="12.376668119492303"><ele>137.0</ele><time>2026-04-12T10:11:02Z</time></trkpt><trkpt lat="44.05743025276478" lon="12.376618173493187"><ele>137.0</ele><time>2026-04-12T10:11:03Z</time></trkpt><trkpt lat="44.05757395728108" lon="12.37658216938246"><ele>135.75</ele><time>2026-04-12T10:11:04Z</time></trkpt><trkpt lat="44.0577112482028" lon="12.376555666764698"><ele>134.5</ele><time>2026-04-12T10:11:05Z</time></trkpt><trkpt lat="44.05785071152133" lon="12.376548691297264"><ele>133.25</ele><time>2026-04-12T10:11:06Z</time></trkpt><trkpt lat="44.057984691186405" lon="12.376546091234356"><ele>132.0</ele><time>2026-04-12T10:11:07Z</time></trkpt><trkpt lat="44.05809718513966" lon="12.376532930440007"><ele>132.0</ele><time>2026-04-12T10:11:08Z</time></trkpt><trkpt lat="44.058195806089834" lon="12.376519023475169"><ele>132.0</ele><time>2026-04-12T10:11:09Z</time></trkpt><trkpt lat="44.058274889455" lon="12.37650847985388"><ele>132.0</ele><time>2026-04-12T10:11:10Z</time></trkpt><trkpt lat="44.05835065374357" lon="12.376496557564643"><ele>132.0</ele><time>2026-04-12T10:11:11Z</time></trkpt><trkpt lat="44.05841378697597" lon="12.376521819114998"><ele>132.0</ele><time>2026-04-12T10:11:12Z</time></trkpt><trkpt lat="44.058470227187996" lon="12.376579387593917"><ele>132.0</ele><time>2026-04-12T10:11:13Z</time></trkpt><trkpt lat="44.05851530556321" lon="12.376690439977125"><ele>131.0</ele><time>2026-04-12T10:11:14Z</time></trkpt><trkpt lat="44.058506993554005" lon="12.376852294657077"><ele>130.0</ele><time>2026-04-12T10:11:15Z</time></trkpt><trkpt lat="44.058507403853035" lon="12.37704648198319"><ele>129.0</ele><time>2026-04-12T10:11:16Z</time></trkpt><trkpt lat="44.05850076907551" lon="12.377228353865723"><ele>128.0</ele><time>2026-04-12T10:11:17Z</time></trkpt><trkpt lat="44.05852111916582" lon="12.37739766437228"><ele>126.25</ele><time>2026-04-12T10:11:18Z</time></trkpt><trkpt lat="44.05855451071919" lon="12.377548949703684"><ele>124.5</ele><time>2026-04-12T10:11:19Z</time></trkpt><trkpt lat="44.058617392230175" lon="12.377695037668303"><ele>122.75</ele><time>2026-04-12T10:11:20Z</time></trkpt><trkpt lat="44.058728902973215" lon="12.37782790943622"><ele>121.0</ele><time>2026-04-12T10:11:21Z</time></trkpt><trkpt lat="44.058875775244466" lon="12.377938477439832"><ele>120.25</ele><time>2026-04-12T10:11:22Z</time></trkpt><trkpt lat="44.05901093644761" lon="12.37803739723723"><ele>119.5</ele><time>2026-04-12T10:11:23Z</time></trkpt><trkpt lat="44.05911875621714" lon="12.378161680982261"><ele>118.75</ele><time>2026-04-12T10:11:24Z</time></trkpt><trkpt lat="44.05920488228306" lon="12.378300418404722"><ele>118.0</ele><time>2026-04-12T10:11:25Z</time></trkpt><trkpt lat="44.05928122454084" lon="12.378445019613054"><ele>118.0</ele><time>2026-04-12T10:11:26Z</time></trkpt><trkpt lat="44.05933870502205" lon="12.378613312324903"><ele>118.0</ele><time>2026-04-12T10:11:27Z</time></trkpt><trkpt lat="44.06669545460225" lon="12.381021453124005"><ele>109.5</ele><time>2026-04-12T10:12:28Z</time></trkpt><trkpt lat="44.06682960127063" lon="12.381082849060242"><ele>101.0</ele><time>2026-04-12T10:12:29Z</time></trkpt><trkpt lat="44.06695428489313" lon="12.381141192172157"><ele>92.5</ele><time>2026-04-12T10:12:30Z</time></trkpt><trkpt lat="44.06708505314031" lon="12.381203281753372"><ele>84.0</ele><time>2026-04-12T10:12:31Z</time></trkpt><trkpt lat="44.06721213253962" lon="12.381265758045958"><ele>84.0</ele><time>2026-04-12T10:12:32Z</time></trkpt><trkpt lat="44.06734081496969" lon="12.381332181209306"><ele>84.0</ele><time>2026-04-12T10:12:33Z</time></trkpt><trkpt lat="44.067473065733786" lon="12.381402338697285"><ele>84.0</ele><time>2026-04-12T10:12:34Z</time></trkpt><trkpt lat="44.06761220805415" lon="12.381477532327057"><ele>84.0</ele><time>2026-04-12T10:12:35Z</time></trkpt><trkpt lat="44.06775183316823" lon="12.381552986665023"><ele>84.0</ele><time>2026-04-12T10:12:36Z</time></trkpt><trkpt lat="44.067891456355916" lon="12.381626706813936"><ele>84.0</ele><time>2026-04-12T10:12:37Z</time></trkpt><trkpt lat="44.06803823069369" lon="12.381704370075933"><ele>84.0</ele><time>2026-04-12T10:12:38Z</time></trkpt><trkpt lat="44.06817461127132" lon="12.381778685522626"><ele>83.75</ele><time>2026-04-12T10:12:39Z</time></trkpt><trkpt lat="44.068299907207276" lon="12.381846960829359"><ele>83.5</ele><time>2026-04-12T10:12:40Z</time></trkpt><trkpt lat="44.06843383868952" lon="12.381919941793399"><ele>83.25</ele><time>2026-04-12T10:12:41Z</time></trkpt><trkpt lat="44.068575346214914" lon="12.381997050984976"><ele>83.0</ele><time>2026-04-12T10:12:42Z</time></trkpt><trkpt lat="44.06871635032532" lon="12.382073885849643"><ele>83.0</ele><time>2026-04-12T10:12:43Z</time></trkpt><trkpt lat="44.0688561717345" lon="12.38215007628683"><ele>83.0</ele><time>2026-04-12T10:12:44Z</time></trkpt><trkpt lat="44.06899316476402" lon="12.382224725470477"><ele>83.0</ele><time>2026-04-12T10:12:45Z</time></trkpt><trkpt lat="44.06912593002483" lon="12.382297070921126"><ele>83.0</ele><time>2026-04-12T10:12:46Z</time></trkpt><trkpt lat="44.06924343466908" lon="12.382361100686884"><ele>83.0</ele><time>2026-04-12T10:12:47Z</time></trkpt><trkpt lat="44.06934929085298" lon="12.382424547752468"><ele>83.0</ele><time>2026-04-12T10:12:48Z</time></trkpt><trkpt lat="44.069427096745365" lon="12.382483739307391"><ele>83.0</ele><time>2026-04-12T10:12:49Z</time></trkpt><trkpt lat="44.06949620845646" lon="12.382578373278102"><ele>83.0</ele><time>2026-04-12T10:12:50Z</time></trkpt><trkpt lat="44.069559390407306" lon="12.38267410653238"><ele>83.0</ele><time>2026-04-12T10:12:51Z</time></trkpt><trkpt lat="44.06957084519809" lon="12.382872048205067"><ele>81.75</ele><time>2026-04-12T10:12:52Z</time></trkpt><trkpt lat="44.06960235066821" lon="12.383036950516317"><ele>80.5</ele><time>2026-04-12T10:12:53Z</time></trkpt><trkpt lat="44.06962130309635" lon="12.383219711881365"><ele>79.25</ele><time>2026-04-12T10:12:54Z</time></trkpt><trkpt lat="44.06963348433855" lon="12.38341208529283"><ele>78.0</ele><time>2026-04-12T10:12:55Z</time></trkpt><trkpt lat="44.06964696780157" lon="12.383606045972957"><ele>78.0</ele><time>2026-04-12T10:12:56Z</time></trkpt><trkpt lat="44.06966803073081" lon="12.3837935550925"><ele>78.0</ele><time>2026-04-12T10:12:57Z</time></trkpt><trkpt lat="44.0696860306684" lon="12.38396620216146"><ele>78.0</ele><time>2026-04-12T10:12:58Z</time></trkpt><trkpt lat="44.069704973709435" lon="12.384152519688376"><ele>78.0</ele><time>2026-04-12T10:12:59Z</time></trkpt><trkpt lat="44.06973227988963" lon="12.384323076327677"><ele>77.2</ele><time>2026-04-12T10:13:00Z</time></trkpt><trkpt lat="44.06975601043142" lon="12.384488336516453"><ele>76.4</ele><time>2026-04-12T10:13:01Z</time></trkpt><trkpt lat="44.06976409814797" lon="12.384631414141124"><ele>75.60000000000001</ele><time>2026-04-12T10:13:02Z</time></trkpt><trkpt lat="44.06976911305951" lon="12.384751957612414"><ele>74.8</ele><time>2026-04-12T10:13:03Z</time></trkpt><trkpt lat="44.06977176163642" lon="12.384894794258246"><ele>74.0</ele><time>2026-04-12T10:13:05Z</time></trkpt><trkpt lat="44.06979015452747" lon="12.385009770284448"><ele>74.0</ele><time>2026-04-12T10:13:07Z</time></trkpt><trkpt lat="44.06981270250226" lon="12.385126538318605"><ele>74.0</ele><time>2026-04-12T10:13:08Z</time></trkpt><trkpt lat="44.06982529450111" lon="12.385272606934478"><ele>74.0</ele><time>2026-04-12T10:13:09Z</time></trkpt><trkpt lat="44.06983015260709" lon="12.385431578533455"><ele>74.0</ele><time>2026-04-12T10:13:10Z</time></trkpt><trkpt lat="44.069847307565574" lon="12.385574641043737"><ele>74.0</ele><time>2026-04-12T10:13:11Z</time></trkpt><trkpt lat="44.06985711280885" lon="12.385682083455894"><ele>74.0</ele><time>2026-04-12T10:13:12Z</time></trkpt><trkpt lat="44.06987189782016" lon="12.38579411225009"><ele>74.0</ele><time>2026-04-12T10:13:13Z</time></trkpt><trkpt lat="44.06989551783682" lon="12.385904402187686"><ele>74.0</ele><time>2026-04-12T10:13:14Z</time></trkpt><trkpt lat="44.0699343403023" lon="12.38601151008263"><ele>74.0</ele><time>2026-04-12T10:13:15Z</time></trkpt><trkpt lat="44.06999554648954" lon="12.386087955494034"><ele>74.0</ele><time>2026-04-12T10:13:16Z</time></trkpt><trkpt lat="44.07005934841124" lon="12.386171293023963"><ele>74.0</ele><time>2026-04-12T10:13:17Z</time></trkpt><trkpt lat="44.07013507862838" lon="12.386249228556288"><ele>73.8</ele><time>2026-04-12T10:13:18Z</time></trkpt><trkpt lat="44.07022964769714" lon="12.386316341651384"><ele>73.60000000000001</ele><time>2026-04-12T10:13:19Z</time></trkpt><trkpt lat="44.070324776594525" lon="12.386393284139439"><ele>73.4</ele><time>2026-04-12T10:13:20Z</time></trkpt><trkpt lat="44.07041617003856" lon="12.386413572628268"><ele>73.2</ele><time>2026-04-12T10:13:21Z</time></trkpt><trkpt lat="44.07049478474718" lon="12.386442831301446"><ele>73.0</ele><time>2026-04-12T10:13:22Z</time></trkpt><trkpt lat="44.07057927065918" lon="12.386468439104583"><ele>73.0</ele><time>2026-04-12T10:13:23Z</time></trkpt><trkpt lat="44.07069244274246" lon="12.386499651635676"><ele>73.0</ele><time>2026-04-12T10:13:24Z</time></trkpt><trkpt lat="44.07080837244379" lon="12.386529081182255"><ele>73.0</ele><time>2026-04-12T10:13:25Z</time></trkpt><trkpt lat="44.07091954326545" lon="12.386568292604789"><ele>73.0</ele><time>2026-04-12T10:13:26Z</time></trkpt><trkpt lat="44.07103060660494" lon="12.386597945711213"><ele>56.0</ele><time>2026-04-12T10:13:27Z</time></trkpt><trkpt lat="44.07694971108957" lon="12.387780494685707"><ele>56.0</ele><time>2026-04-12T10:14:28Z</time></trkpt><trkpt lat="44.077094828754205" lon="12.387793664439412"><ele>56.0</ele><time>2026-04-12T10:14:29Z</time></trkpt><trkpt lat="44.07723582656015" lon="12.387824861166555"><ele>56.0</ele><time>2026-04-12T10:14:30Z</time></trkpt><trkpt lat="44.077369954175055" lon="12.387885596665088"><ele>56.0</ele><time>2026-04-12T10:14:31Z</time></trkpt><trkpt lat="44.077514802408096" lon="12.387967649309182"><ele>54.66666666666667</ele><time>2026-04-12T10:14:32Z</time></trkpt><trkpt lat="44.0776698542922" lon="12.388068814244702"><ele>53.33333333333333</ele><time>2026-04-12T10:14:33Z</time></trkpt><trkpt lat="44.077825857875425" lon="12.388186085387323"><ele>52.0</ele><time>2026-04-12T10:14:34Z</time></trkpt><trkpt lat="44.07796155503357" lon="12.388310632422264"><ele>52.0</ele><time>2026-04-12T10:14:35Z</time></trkpt><trkpt lat="44.078091589059966" lon="12.388454602047007"><ele>52.0</ele><time>2026-04-12T10:14:36Z</time></trkpt><trkpt lat="44.07822333857582" lon="12.388615716962763"><ele>52.0</ele><time>2026-04-12T10:14:37Z</time></trkpt><trkpt lat="44.07835838071874" lon="12.388798044670716"><ele>50.0</ele><time>2026-04-12T10:14:38Z</time></trkpt><trkpt lat="44.07849298386938" lon="12.388982552522954"><ele>48.0</ele><time>2026-04-12T10:14:39Z</time></trkpt><trkpt lat="44.078619628658295" lon="12.389134715564175"><ele>46.0</ele><time>2026-04-12T10:14:40Z</time></trkpt><trkpt lat="44.078735074223395" lon="12.389280328485338"><ele>46.0</ele><time>2026-04-12T10:14:41Z</time></trkpt><trkpt lat="44.0788546191958" lon="12.389421716597262"><ele>46.0</ele><time>2026-04-12T10:14:42Z</time></trkpt><trkpt lat="44.07898905853946" lon="12.389558767017398"><ele>46.0</ele><time>2026-04-12T10:14:43Z</time></trkpt><trkpt lat="44.07912691903184" lon="12.389672627289125"><ele>46.0</ele><time>2026-04-12T10:14:44Z</time></trkpt><trkpt lat="44.07925535659493" lon="12.389764569867904"><ele>46.0</ele><time>2026-04-12T10:14:45Z</time></trkpt><trkpt lat="44.07937322809161" lon="12.38984760583578"><ele>46.0</ele><time>2026-04-12T10:14:46Z</time></trkpt><trkpt lat="44.07949076343211" lon="12.389922658618778"><ele>46.0</ele><time>2026-04-12T10:14:47Z</time></trkpt><trkpt lat="44.07962382813329" lon="12.389996197027243"><ele>46.0</ele><time>2026-04-12T10:14:48Z</time></trkpt><trkpt lat="44.07976755902621" lon="12.390067083202561"><ele>46.0</ele><time>2026-04-12T10:14:49Z</time></trkpt><trkpt lat="44.07991809854178" lon="12.390123769171709"><ele>46.0</ele><time>2026-04-12T10:14:50Z</time></trkpt><trkpt lat="44.08006909773679" lon="12.390164750500421"><ele>45.75</ele><time>2026-04-12T10:14:51Z</time></trkpt><trkpt lat="44.0802124637258" lon="12.390201130100095"><ele>45.5</ele><time>2026-04-12T10:14:52Z</time></trkpt><trkpt lat="44.08034571295976" lon="12.390218045396924"><ele>45.25</ele><time>2026-04-12T10:14:53Z</time></trkpt><trkpt lat="44.080471042389576" lon="12.390214595914872"><ele>45.0</ele><time>2026-04-12T10:14:54Z</time></trkpt><trkpt lat="44.08059569252538" lon="12.390210682582182"><ele>45.0</ele><time>2026-04-12T10:14:55Z</time></trkpt><trkpt lat="44.08072040421384" lon="12.390193918321884"><ele>45.0</ele><time>2026-04-12T10:14:56Z</time></trkpt><trkpt lat="44.080843084175086" lon="12.390173414656637"><ele>45.0</ele><time>2026-04-12T10:14:57Z</time></trkpt><trkpt lat="44.08096591045315" lon="12.39015057793449"><ele>45.0</ele><time>2026-04-12T10:14:58Z</time></trkpt><trkpt lat="44.08109774278565" lon="12.390126006260566"><ele>44.0</ele><time>2026-04-12T10:14:59Z</time></trkpt><trkpt lat="44.08123321441773" lon="12.390094826240297"><ele>43.0</ele><time>2026-04-12T10:15:00Z</time></trkpt><trkpt lat="44.08137927686853" lon="12.39006575939688"><ele>42.0</ele><time>2026-04-12T10:15:01Z</time></trkpt><trkpt lat="44.081531140073494" lon="12.390037745928034"><ele>41.0</ele><time>2026-04-12T10:15:02Z</time></trkpt><trkpt lat="44.08168875787907" lon="12.390010254778824"><ele>40.0</ele><time>2026-04-12T10:15:03Z</time></trkpt><trkpt lat="44.08184323095126" lon="12.389980234137159"><ele>39.0</ele><time>2026-04-12T10:15:04Z</time></trkpt><trkpt lat="44.081991355631615" lon="12.38995269259611"><ele>38.0</ele><time>2026-04-12T10:15:05Z</time></trkpt><trkpt lat="44.08213263534641" lon="12.389924279670662"><ele>37.0</ele><time>2026-04-12T10:15:06Z</time></trkpt><trkpt lat="44.082269657505186" lon="12.389894568409952"><ele>37.0</ele><time>2026-04-12T10:15:07Z</time></trkpt><trkpt lat="44.08240220640845" lon="12.389868270616386"><ele>37.0</ele><time>2026-04-12T10:15:08Z</time></trkpt><trkpt lat="44.082548455853214" lon="12.389837396788476"><ele>37.0</ele><time>2026-04-12T10:15:09Z</time></trkpt><trkpt lat="44.08270802709725" lon="12.389806988712838"><ele>37.0</ele><time>2026-04-12T10:15:10Z</time></trkpt><trkpt lat="44.08287048685689" lon="12.389775258591406"><ele>36.333333333333336</ele><time>2026-04-12T10:15:11Z</time></trkpt><trkpt lat="44.08303145211435" lon="12.389741147165553"><ele>35.666666666666664</ele><time>2026-04-12T10:15:12Z</time></trkpt><trkpt lat="44.08319568408915" lon="12.389708156383689"><ele>35.0</ele><time>2026-04-12T10:15:13Z</time></trkpt><trkpt lat="44.08336369154828" lon="12.389676151670411"><ele>34.33333333333333</ele><time>2026-04-12T10:15:14Z</time></trkpt><trkpt lat="44.08353463027266" lon="12.389642609471784"><ele>33.666666666666664</ele><time>2026-04-12T10:15:15Z</time></trkpt><trkpt lat="44.0837052846304" lon="12.38960916379739"><ele>33.0</ele><time>2026-04-12T10:15:16Z</time></trkpt><trkpt lat="44.08388412227186" lon="12.389572798224078"><ele>33.0</ele><time>2026-04-12T10:15:17Z</time></trkpt><trkpt lat="44.08405474864449" lon="12.389537555010158"><ele>33.0</ele><time>2026-04-12T10:15:18Z</time></trkpt><trkpt lat="44.08421703977087" lon="12.389505648992044"><ele>33.0</ele><time>2026-04-12T10:15:19Z</time></trkpt><trkpt lat="44.08436696475953" lon="12.389480720827748"><ele>33.0</ele><time>2026-04-12T10:15:20Z</time></trkpt><trkpt lat="44.08451736921272" lon="12.389457291505133"><ele>33.0</ele><time>2026-04-12T10:15:21Z</time></trkpt><trkpt lat="44.08467447113255" lon="12.38944467596996"><ele>33.0</ele><time>2026-04-12T10:15:22Z</time></trkpt><trkpt lat="44.08482834213634" lon="12.389444001651512"><ele>33.25</ele><time>2026-04-12T10:15:23Z</time></trkpt><trkpt lat="44.084977732926646" lon="12.38945335687101"><ele>33.5</ele><time>2026-04-12T10:15:24Z</time></trkpt><trkpt lat="44.085126247430175" lon="12.38947135035531"><ele>33.75</ele><time>2026-04-12T10:15:25Z</time></trkpt><trkpt lat="44.085270945729285" lon="12.389494066211487"><ele>34.0</ele><time>2026-04-12T10:15:26Z</time></trkpt><trkpt lat="44.0854025992608" lon="12.389520440726166"><ele>32.0</ele><time>2026-04-12T10:15:27Z</time></trkpt><trkpt lat="44.09242411456154" lon="12.390891659055825"><ele>31.999999999999996</ele><time>2026-04-12T10:16:28Z</time></trkpt><trkpt lat="44.09241176093103" lon="12.39079492287732"><ele>32.0</ele><time>2026-04-12T10:16:29Z</time></trkpt><trkpt lat="44.09240423589311" lon="12.390701556282385"><ele>32.0</ele><time>2026-04-12T10:16:31Z</time></trkpt><trkpt lat="44.09238216686065" lon="12.39060441980001"><ele>32.0</ele><time>2026-04-12T10:16:35Z</time></trkpt><trkpt lat="44.092370052148574" lon="12.390500668681119"><ele>31.999999999999996</ele><time>2026-04-12T10:16:36Z</time></trkpt><trkpt lat="44.09233904426406" lon="12.390367639381436"><ele>32.0</ele><time>2026-04-12T10:16:37Z</time></trkpt><trkpt lat="44.092306711482564" lon="12.39020980422534"><ele>32.0</ele><time>2026-04-12T10:16:38Z</time></trkpt><trkpt lat="44.09229076824331" lon="12.390059320480718"><ele>32.0</ele><time>2026-04-12T10:16:39Z</time></trkpt><trkpt lat="44.09227815274208" lon="12.389887084854314"><ele>32.0</ele><time>2026-04-12T10:16:40Z</time></trkpt><trkpt lat="44.09226974399787" lon="12.389715784919616"><ele>32.0</ele><time>2026-04-12T10:16:41Z</time></trkpt><trkpt lat="44.09225738533082" lon="12.389547272814761"><ele>32.0</ele><time>2026-04-12T10:16:42Z</time></trkpt><trkpt lat="44.092233294943135" lon="12.38920878753579"><ele>32.0</ele><time>2026-04-12T10:16:44Z</time></trkpt><trkpt lat="44.092223434796495" lon="12.389033642712196"><ele>32.0</ele><time>2026-04-12T10:16:45Z</time></trkpt><trkpt lat="44.09221259002088" lon="12.388851855455702"><ele>32.25</ele><time>2026-04-12T10:16:46Z</time></trkpt><trkpt lat="44.09220171287638" lon="12.38867853094506"><ele>32.5</ele><time>2026-04-12T10:16:47Z</time></trkpt><trkpt lat="44.09219278469113" lon="12.388516837849947"><ele>32.75</ele><time>2026-04-12T10:16:48Z</time></trkpt><trkpt lat="44.09218236674706" lon="12.388349554135889"><ele>33.0</ele><time>2026-04-12T10:16:49Z</time></trkpt><trkpt lat="44.09216796047552" lon="12.38817904745729"><ele>33.0</ele><time>2026-04-12T10:16:50Z</time></trkpt><trkpt lat="44.09215542769512" lon="12.38800322423246"><ele>33.0</ele><time>2026-04-12T10:16:51Z</time></trkpt><trkpt lat="44.0921493818818" lon="12.387826431269124"><ele>33.0</ele><time>2026-04-12T10:16:52Z</time></trkpt><trkpt lat="44.092138620060176" lon="12.387647939058697"><ele>33.0</ele><time>2026-04-12T10:16:53Z</time></trkpt><trkpt lat="44.092124541641844" lon="12.38746435177338"><ele>33.0</ele><time>2026-04-12T10:16:54Z</time></trkpt><trkpt lat="44.09211534270661" lon="12.38727976533737"><ele>33.0</ele><time>2026-04-12T10:16:55Z</time></trkpt><trkpt lat="44.09210079412442" lon="12.387091503226875"><ele>33.0</ele><time>2026-04-12T10:16:56Z</time></trkpt><trkpt lat="44.09208955269592" lon="12.386908721156594"><ele>33.0</ele><time>2026-04-12T10:16:57Z</time></trkpt><trkpt lat="44.092080643517086" lon="12.386746467746343"><ele>33.0</ele><time>2026-04-12T10:16:58Z</time></trkpt><trkpt lat="44.09207415183241" lon="12.386595028540277"><ele>33.0</ele><time>2026-04-12T10:16:59Z</time></trkpt><trkpt lat="44.092064730963436" lon="12.386436065466306"><ele>33.0</ele><time>2026-04-12T10:17:00Z</time></trkpt><trkpt lat="44.092054270181514" lon="12.386273501142826"><ele>33.0</ele><time>2026-04-12T10:17:01Z</time></trkpt><trkpt lat="44.09203897790225" lon="12.386095925339509"><ele>33.5</ele><time>2026-04-12T10:17:02Z</time></trkpt><trkpt lat="44.092025960079724" lon="12.385879780296857"><ele>34.0</ele><time>2026-04-12T10:17:03Z</time></trkpt><trkpt lat="44.09201460503686" lon="12.385666395643765"><ele>34.5</ele><time>2026-04-12T10:17:04Z</time></trkpt><trkpt lat="44.09200410069615" lon="12.385478362063571"><ele>35.0</ele><time>2026-04-12T10:17:05Z</time></trkpt><trkpt lat="44.09199456952059" lon="12.385298328429373"><ele>35.0</ele><time>2026-04-12T10:17:06Z</time></trkpt><trkpt lat="44.09198261127955" lon="12.385099698121364"><ele>35.0</ele><time>2026-04-12T10:17:07Z</time></trkpt><trkpt lat="44.0919702886885" lon="12.384880436901193"><ele>35.0</ele><time>2026-04-12T10:17:08Z</time></trkpt><trkpt lat="44.09195729136751" lon="12.384642712925766"><ele>34.75</ele><time>2026-04-12T10:17:09Z</time></trkpt><trkpt lat="44.09194292701635" lon="12.384428957131053"><ele>34.5</ele><time>2026-04-12T10:17:10Z</time></trkpt><trkpt lat="44.09193242926305" lon="12.38424095594146"><ele>34.25</ele><time>2026-04-12T10:17:11Z</time></trkpt><trkpt lat="44.09192109144937" lon="12.384062656587986"><ele>34.0</ele><time>2026-04-12T10:17:12Z</time></trkpt><trkpt lat="44.09191096505777" lon="12.383899819361634"><ele>33.75</ele><time>2026-04-12T10:17:13Z</time></trkpt><trkpt lat="44.09190194326392" lon="12.383732596767752"><ele>33.5</ele><time>2026-04-12T10:17:14Z</time></trkpt><trkpt lat="44.09188929737777" lon="12.383525952541675"><ele>33.25</ele><time>2026-04-12T10:17:15Z</time></trkpt><trkpt lat="44.091881955022316" lon="12.383319465347627"><ele>33.0</ele><time>2026-04-12T10:17:16Z</time></trkpt><trkpt lat="44.09187272670884" lon="12.383142368611363"><ele>33.0</ele><time>2026-04-12T10:17:17Z</time></trkpt><trkpt lat="44.091864138585656" lon="12.382987463293397"><ele>33.0</ele><time>2026-04-12T10:17:18Z</time></trkpt><trkpt lat="44.09185699929279" lon="12.38284731657037"><ele>33.0</ele><time>2026-04-12T10:17:19Z</time></trkpt><trkpt lat="44.09185254825766" lon="12.3827159022484"><ele>33.0</ele><time>2026-04-12T10:17:20Z</time></trkpt><trkpt lat="44.09184578241311" lon="12.382579456805784"><ele>33.0</ele><time>2026-04-12T10:17:21Z</time></trkpt><trkpt lat="44.091838351652655" lon="12.3824456662531"><ele>33.0</ele><time>2026-04-12T10:17:22Z</time></trkpt><trkpt lat="44.091831147911876" lon="12.382282070094629"><ele>33.0</ele><time>2026-04-12T10:17:23Z</time></trkpt><trkpt lat="44.09181895317733" lon="12.38210715689121"><ele>33.0</ele><time>2026-04-12T10:17:24Z</time></trkpt><trkpt lat="44.09181007774165" lon="12.381926892711569"><ele>33.0</ele><time>2026-04-12T10:17:25Z</time></trkpt><trkpt lat="44.0918024313862" lon="12.381762078001602"><ele>32.5</ele><time>2026-04-12T10:17:26Z</time></trkpt><trkpt lat="44.09179324272135" lon="12.381621921267769"><ele>32.0</ele><time>2026-04-12T10:17:27Z</time></trkpt><trkpt lat="44.09137730430953" lon="12.373853547742755"><ele>32.6</ele><time>2026-04-12T10:18:28Z</time></trkpt><trkpt lat="44.0913635355175" lon="12.373692243529481"><ele>33.2</ele><time>2026-04-12T10:18:30Z</time></trkpt><trkpt lat="44.09135350441668" lon="12.373583620376355"><ele>33.8</ele><time>2026-04-12T10:18:31Z</time></trkpt><trkpt lat="44.09134489923103" lon="12.373453189704177"><ele>34.4</ele><time>2026-04-12T10:18:32Z</time></trkpt><trkpt lat="44.09133722336961" lon="12.37328735127956"><ele>35.0</ele><time>2026-04-12T10:18:33Z</time></trkpt><trkpt lat="44.0913271634833" lon="12.373125375842577"><ele>35.166666666666664</ele><time>2026-04-12T10:18:34Z</time></trkpt><trkpt lat="44.091320563362665" lon="12.372973780687957"><ele>35.33333333333333</ele><time>2026-04-12T10:18:35Z</time></trkpt><trkpt lat="44.09131484902557" lon="12.372844911064997"><ele>35.5</ele><time>2026-04-12T10:18:36Z</time></trkpt><trkpt lat="44.091307609648666" lon="12.372726454439377"><ele>35.666666666666664</ele><time>2026-04-12T10:18:37Z</time></trkpt><trkpt lat="44.09130062992988" lon="12.372616603354867"><ele>35.833333333333336</ele><time>2026-04-12T10:18:38Z</time></trkpt><trkpt lat="44.09129508702596" lon="12.372507971128561"><ele>36.0</ele><time>2026-04-12T10:18:39Z</time></trkpt><trkpt lat="44.09128953159475" lon="12.372391563211165"><ele>36.00000000000001</ele><time>2026-04-12T10:18:40Z</time></trkpt><trkpt lat="44.091283546803034" lon="12.37228930655439"><ele>36.0</ele><time>2026-04-12T10:18:41Z</time></trkpt><trkpt lat="44.09127716223926" lon="12.372192634056288"><ele>36.0</ele><time>2026-04-12T10:18:42Z</time></trkpt><trkpt lat="44.09127063445416" lon="12.372081847814577"><ele>36.0</ele><time>2026-04-12T10:18:43Z</time></trkpt><trkpt lat="44.091264642115945" lon="12.371973533965585"><ele>36.0</ele><time>2026-04-12T10:18:44Z</time></trkpt><trkpt lat="44.0912617296143" lon="12.371883108905868"><ele>36.00000000000001</ele><time>2026-04-12T10:18:45Z</time></trkpt><trkpt lat="44.091260404743075" lon="12.37179084653257"><ele>36.0</ele><time>2026-04-12T10:18:47Z</time></trkpt><trkpt lat="44.0912509421508" lon="12.371650433940186"><ele>36.2</ele><time>2026-04-12T10:18:51Z</time></trkpt><trkpt lat="44.091254480039495" lon="12.371557091984982"><ele>36.400000000000006</ele><time>2026-04-12T10:18:52Z</time></trkpt><trkpt lat="44.09126410066411" lon="12.37141245154449"><ele>36.6</ele><time>2026-04-12T10:18:54Z</time></trkpt><trkpt lat="44.09129061113569" lon="12.37124285674389"><ele>36.800000000000004</ele><time>2026-04-12T10:18:56Z</time></trkpt><trkpt lat="44.09131716063829" lon="12.371105605304695"><ele>37.0</ele><time>2026-04-12T10:18:57Z</time></trkpt><trkpt lat="44.09134764444653" lon="12.37093238518397"><ele>37.0</ele><time>2026-04-12T10:18:58Z</time></trkpt><trkpt lat="44.091369805502026" lon="12.37078662317447"><ele>37.0</ele><time>2026-04-12T10:18:59Z</time></trkpt><trkpt lat="44.09139595975353" lon="12.370639930155923"><ele>37.0</ele><time>2026-04-12T10:19:00Z</time></trkpt><trkpt lat="44.09142281572358" lon="12.370472795328153"><ele>37.0</ele><time>2026-04-12T10:19:01Z</time></trkpt><trkpt lat="44.09144131414816" lon="12.370357488295891"><ele>37.0</ele><time>2026-04-12T10:19:02Z</time></trkpt><trkpt lat="44.09147093526985" lon="12.370213524775027"><ele>37.0</ele><time>2026-04-12T10:19:03Z</time></trkpt><trkpt lat="44.09150301236418" lon="12.370070269806977"><ele>37.0</ele><time>2026-04-12T10:19:04Z</time></trkpt><trkpt lat="44.09153367012715" lon="12.36993002677099"><ele>37.0</ele><time>2026-04-12T10:19:05Z</time></trkpt><trkpt lat="44.09156546409083" lon="12.369793197064267"><ele>37.0</ele><time>2026-04-12T10:19:06Z</time></trkpt><trkpt lat="44.09159961673174" lon="12.369672164536393"><ele>37.0</ele><time>2026-04-12T10:19:07Z</time></trkpt><trkpt lat="44.091643763080846" lon="12.369556795914075"><ele>37.0</ele><time>2026-04-12T10:19:08Z</time></trkpt><trkpt lat="44.09169888080454" lon="12.369446537372385"><ele>37.0</ele><time>2026-04-12T10:19:09Z</time></trkpt><trkpt lat="44.0917751048439" lon="12.36934404293443"><ele>37.0</ele><time>2026-04-12T10:19:10Z</time></trkpt><trkpt lat="44.09187304903393" lon="12.369248233148614"><ele>37.0</ele><time>2026-04-12T10:19:11Z</time></trkpt><trkpt lat="44.091944198082686" lon="12.369156305293044"><ele>37.0</ele><time>2026-04-12T10:19:12Z</time></trkpt><trkpt lat="44.09198839976709" lon="12.369044970705579"><ele>37.0</ele><time>2026-04-12T10:19:13Z</time></trkpt><trkpt lat="44.09201848147872" lon="12.36891013250716"><ele>37.0</ele><time>2026-04-12T10:19:14Z</time></trkpt><trkpt lat="44.0920321554249" lon="12.368761664062848"><ele>37.0</ele><time>2026-04-12T10:19:15Z</time></trkpt><trkpt lat="44.09205941563103" lon="12.368611608858588"><ele>37.0</ele><time>2026-04-12T10:19:16Z</time></trkpt><trkpt lat="44.09210997303628" lon="12.368471851583793"><ele>37.0</ele><time>2026-04-12T10:19:17Z</time></trkpt><trkpt lat="44.09217208483568" lon="12.36833385277762"><ele>36.75</ele><time>2026-04-12T10:19:18Z</time></trkpt><trkpt lat="44.09224588305745" lon="12.368193431132566"><ele>36.5</ele><time>2026-04-12T10:19:19Z</time></trkpt><trkpt lat="44.09232358659226" lon="12.3680465594188"><ele>36.25</ele><time>2026-04-12T10:19:20Z</time></trkpt><trkpt lat="44.09240417760118" lon="12.367891700269087"><ele>36.0</ele><time>2026-04-12T10:19:21Z</time></trkpt><trkpt lat="44.09248646605794" lon="12.367733086325144"><ele>36.0</ele><time>2026-04-12T10:19:22Z</time></trkpt><trkpt lat="44.092575289708165" lon="12.367563751416286"><ele>36.0</ele><time>2026-04-12T10:19:23Z</time></trkpt><trkpt lat="44.09267724497135" lon="12.367383439514615"><ele>36.0</ele><time>2026-04-12T10:19:24Z</time></trkpt><trkpt lat="44.09278758288402" lon="12.367193005986602"><ele>36.333333333333336</ele><time>2026-04-12T10:19:25Z</time></trkpt><trkpt lat="44.09290520061522" lon="12.366994680882145"><ele>36.66666666666667</ele><time>2026-04-12T10:19:26Z</time></trkpt><trkpt lat="44.09303678252612" lon="12.366746569640199"><ele>37.0</ele><time>2026-04-12T10:19:27Z</time></trkpt><trkpt lat="44.09933805152142" lon="12.347790498928344"><ele>34.75</ele><time>2026-04-12T10:20:28Z</time></trkpt><trkpt lat="44.099291813741516" lon="12.347628642001503"><ele>32.5</ele><time>2026-04-12T10:20:29Z</time></trkpt><trkpt lat="44.099263002310366" lon="12.347445098832976"><ele>30.25</ele><time>2026-04-12T10:20:30Z</time></trkpt><trkpt lat="44.09927717650761" lon="12.347222570205556"><ele>28.0</ele><time>2026-04-12T10:20:31Z</time></trkpt><trkpt lat="44.09931480018752" lon="12.346950263831255"><ele>28.0</ele><time>2026-04-12T10:20:32Z</time></trkpt><trkpt lat="44.09935621745886" lon="12.346662301154094"><ele>28.0</ele><time>2026-04-12T10:20:33Z</time></trkpt><trkpt lat="44.09940071296737" lon="12.346355577623353"><ele>28.0</ele><time>2026-04-12T10:20:34Z</time></trkpt><trkpt lat="44.099461431975385" lon="12.346045577063531"><ele>28.0</ele><time>2026-04-12T10:20:35Z</time></trkpt><trkpt lat="44.099552875615295" lon="12.345740042617818"><ele>28.0</ele><time>2026-04-12T10:20:36Z</time></trkpt><trkpt lat="44.099652705315656" lon="12.34544593002919"><ele>28.0</ele><time>2026-04-12T10:20:37Z</time></trkpt><trkpt lat="44.099756190846236" lon="12.345131023701105"><ele>28.0</ele><time>2026-04-12T10:20:38Z</time></trkpt><trkpt lat="44.099866558600525" lon="12.344777202852184"><ele>28.5</ele><time>2026-04-12T10:20:39Z</time></trkpt><trkpt lat="44.09995803960916" lon="12.344459997590176"><ele>29.0</ele><time>2026-04-12T10:20:40Z</time></trkpt><trkpt lat="44.10003057594022" lon="12.344167185393133"><ele>29.0</ele><time>2026-04-12T10:20:41Z</time></trkpt><trkpt lat="44.10009492958825" lon="12.343899760528593"><ele>29.0</ele><time>2026-04-12T10:20:42Z</time></trkpt><trkpt lat="44.100208378003686" lon="12.343642947255416"><ele>29.0</ele><time>2026-04-12T10:20:43Z</time></trkpt><trkpt lat="44.100316624255264" lon="12.34338709863995"><ele>28.666666666666664</ele><time>2026-04-12T10:20:44Z</time></trkpt><trkpt lat="44.10035001695334" lon="12.343085039687251"><ele>28.333333333333336</ele><time>2026-04-12T10:20:45Z</time></trkpt><trkpt lat="44.10045335289702" lon="12.342829725106892"><ele>28.0</ele><time>2026-04-12T10:20:46Z</time></trkpt><trkpt lat="44.10055725825043" lon="12.342603219457608"><ele>28.0</ele><time>2026-04-12T10:20:47Z</time></trkpt><trkpt lat="44.10066144309745" lon="12.342419118544267"><ele>28.0</ele><time>2026-04-12T10:20:48Z</time></trkpt><trkpt lat="44.10075893068886" lon="12.342257984286721"><ele>28.0</ele><time>2026-04-12T10:20:49Z</time></trkpt><trkpt lat="44.10084754394439" lon="12.342100319340826"><ele>28.0</ele><time>2026-04-12T10:20:50Z</time></trkpt><trkpt lat="44.10095506923411" lon="12.341936324799041"><ele>28.0</ele><time>2026-04-12T10:20:51Z</time></trkpt><trkpt lat="44.101066822690065" lon="12.341747771003924"><ele>28.0</ele><time>2026-04-12T10:20:52Z</time></trkpt><trkpt lat="44.10118907382012" lon="12.341512869588131"><ele>28.333333333333336</ele><time>2026-04-12T10:20:53Z</time></trkpt><trkpt lat="44.10131849688018" lon="12.341272307372389"><ele>28.666666666666664</ele><time>2026-04-12T10:20:54Z</time></trkpt><trkpt lat="44.10145089651519" lon="12.341028777355097"><ele>29.0</ele><time>2026-04-12T10:20:55Z</time></trkpt><trkpt lat="44.10158508452126" lon="12.340793382886869"><ele>29.0</ele><time>2026-04-12T10:20:56Z</time></trkpt><trkpt lat="44.10169488726159" lon="12.3405995348729"><ele>29.0</ele><time>2026-04-12T10:20:57Z</time></trkpt><trkpt lat="44.10180025340098" lon="12.340412061531781"><ele>29.0</ele><time>2026-04-12T10:20:58Z</time></trkpt><trkpt lat="44.10192381695264" lon="12.34018264742662"><ele>29.0</ele><time>2026-04-12T10:20:59Z</time></trkpt><trkpt lat="44.10205437399573" lon="12.339961677254234"><ele>29.0</ele><time>2026-04-12T10:21:00Z</time></trkpt><trkpt lat="44.10217167710507" lon="12.339767277333006"><ele>29.0</ele><time>2026-04-12T10:21:01Z</time></trkpt><trkpt lat="44.10227599197122" lon="12.339586588980755"><ele>28.75</ele><time>2026-04-12T10:21:02Z</time></trkpt><trkpt lat="44.10236743751653" lon="12.339423666714149"><ele>28.5</ele><time>2026-04-12T10:21:03Z</time></trkpt><trkpt lat="44.10245878938362" lon="12.339278697341905"><ele>28.25</ele><time>2026-04-12T10:21:04Z</time></trkpt><trkpt lat="44.10256930249092" lon="12.339157361148619"><ele>28.0</ele><time>2026-04-12T10:21:05Z</time></trkpt><trkpt lat="44.10270284667748" lon="12.339076980751406"><ele>28.0</ele><time>2026-04-12T10:21:06Z</time></trkpt><trkpt lat="44.10283528450056" lon="12.33901744164209"><ele>28.0</ele><time>2026-04-12T10:21:07Z</time></trkpt><trkpt lat="44.1029385053811" lon="12.338902673777277"><ele>28.0</ele><time>2026-04-12T10:21:08Z</time></trkpt><trkpt lat="44.10301041759165" lon="12.338698079419663"><ele>28.0</ele><time>2026-04-12T10:21:09Z</time></trkpt><trkpt lat="44.10305500233327" lon="12.338441077797636"><ele>28.666666666666668</ele><time>2026-04-12T10:21:10Z</time></trkpt><trkpt lat="44.10309913689148" lon="12.338173374274506"><ele>29.333333333333336</ele><time>2026-04-12T10:21:11Z</time></trkpt><trkpt lat="44.10318404252469" lon="12.337925987664752"><ele>30.0</ele><time>2026-04-12T10:21:12Z</time></trkpt><trkpt lat="44.1033234288966" lon="12.33768243185202"><ele>30.5</ele><time>2026-04-12T10:21:13Z</time></trkpt><trkpt lat="44.10348849008048" lon="12.33741230411376"><ele>31.0</ele><time>2026-04-12T10:21:14Z</time></trkpt><trkpt lat="44.10366476799478" lon="12.337125484512251"><ele>31.5</ele><time>2026-04-12T10:21:15Z</time></trkpt><trkpt lat="44.103845585221414" lon="12.336811877077725"><ele>32.0</ele><time>2026-04-12T10:21:16Z</time></trkpt><trkpt lat="44.10399612394674" lon="12.336525402734706"><ele>32.33333333333333</ele><time>2026-04-12T10:21:17Z</time></trkpt><trkpt lat="44.104126526427116" lon="12.33625652073879"><ele>32.666666666666664</ele><time>2026-04-12T10:21:18Z</time></trkpt><trkpt lat="44.104233785882926" lon="12.336001528455895"><ele>33.0</ele><time>2026-04-12T10:21:19Z</time></trkpt><trkpt lat="44.10433500183714" lon="12.335740621743726"><ele>33.0</ele><time>2026-04-12T10:21:20Z</time></trkpt><trkpt lat="44.10442959342939" lon="12.335470496393818"><ele>33.0</ele><time>2026-04-12T10:21:21Z</time></trkpt><trkpt lat="44.10453054703518" lon="12.335211606352729"><ele>33.0</ele><time>2026-04-12T10:21:22Z</time></trkpt><trkpt lat="44.104634456371976" lon="12.334949073418592"><ele>33.333333333333336</ele><time>2026-04-12T10:21:23Z</time></trkpt><trkpt lat="44.104734962884656" lon="12.334699380477202"><ele>33.66666666666667</ele><time>2026-04-12T10:21:24Z</time></trkpt><trkpt lat="44.10483544716888" lon="12.334464125784788"><ele>34.0</ele><time>2026-04-12T10:21:25Z</time></trkpt><trkpt lat="44.10493157855137" lon="12.334235161937073"><ele>35.0</ele><time>2026-04-12T10:21:26Z</time></trkpt><trkpt lat="44.105019172057666" lon="12.334029853076666"><ele>36.0</ele><time>2026-04-12T10:21:27Z</time></trkpt><trkpt lat="44.111397530373424" lon="12.327456191781938"><ele>33.5</ele><time>2026-04-12T10:22:28Z</time></trkpt><trkpt lat="44.11163298911794" lon="12.327437715767523"><ele>31.0</ele><time>2026-04-12T10:22:29Z</time></trkpt><trkpt lat="44.11185962897091" lon="12.327415118314168"><ele>31.0</ele><time>2026-04-12T10:22:30Z</time></trkpt><trkpt lat="44.11206122033715" lon="12.327402568552648"><ele>31.0</ele><time>2026-04-12T10:22:31Z</time></trkpt><trkpt lat="44.11243287757214" lon="12.327380373010222"><ele>31.0</ele><time>2026-04-12T10:22:33Z</time></trkpt><trkpt lat="44.112600770562956" lon="12.327362564464973"><ele>31.0</ele><time>2026-04-12T10:22:34Z</time></trkpt><trkpt lat="44.11276756643932" lon="12.327350412145146"><ele>31.0</ele><time>2026-04-12T10:22:35Z</time></trkpt><trkpt lat="44.11292236409984" lon="12.327339047914515"><ele>31.0</ele><time>2026-04-12T10:22:36Z</time></trkpt><trkpt lat="44.11306917431605" lon="12.327323400225543"><ele>31.0</ele><time>2026-04-12T10:22:37Z</time></trkpt><trkpt lat="44.11320414356994" lon="12.327318470366148"><ele>31.0</ele><time>2026-04-12T10:22:38Z</time></trkpt><trkpt lat="44.11332924751413" lon="12.327307553767131"><ele>31.0</ele><time>2026-04-12T10:22:39Z</time></trkpt><trkpt lat="44.113437262263986" lon="12.327299262123647"><ele>31.0</ele><time>2026-04-12T10:22:40Z</time></trkpt><trkpt lat="44.11352946235478" lon="12.327298588745654"><ele>31.0</ele><time>2026-04-12T10:22:41Z</time></trkpt><trkpt lat="44.11359734106018" lon="12.327297194392246"><ele>31.0</ele><time>2026-04-12T10:22:42Z</time></trkpt><trkpt lat="44.11368381975985" lon="12.327298355681899"><ele>31.0</ele><time>2026-04-12T10:22:44Z</time></trkpt><trkpt lat="44.113597684725676" lon="12.327304046541428"><ele>31.0</ele><time>2026-04-12T10:22:45Z</time></trkpt><trkpt lat="44.113621731079334" lon="12.32704217818894"><ele>31.333333333333336</ele><time>2026-04-12T10:22:46Z</time></trkpt><trkpt lat="44.11361142815277" lon="12.32677729452101"><ele>31.666666666666664</ele><time>2026-04-12T10:22:47Z</time></trkpt><trkpt lat="44.11360164121686" lon="12.326520530209333"><ele>32.0</ele><time>2026-04-12T10:22:48Z</time></trkpt><trkpt lat="44.11359713577371" lon="12.326351540826606"><ele>32.0</ele><time>2026-04-12T10:22:49Z</time></trkpt><trkpt lat="44.1135886693946" lon="12.326174155409833"><ele>32.0</ele><time>2026-04-12T10:22:50Z</time></trkpt><trkpt lat="44.1135818412872" lon="12.325991830749443"><ele>32.0</ele><time>2026-04-12T10:22:51Z</time></trkpt><trkpt lat="44.11357535662823" lon="12.325818676939205"><ele>32.0</ele><time>2026-04-12T10:22:52Z</time></trkpt><trkpt lat="44.113570332767985" lon="12.325684529349479"><ele>32.0</ele><time>2026-04-12T10:22:53Z</time></trkpt><trkpt lat="44.11354974011128" lon="12.32557412612975"><ele>32.0</ele><time>2026-04-12T10:22:55Z</time></trkpt><trkpt lat="44.11366587258766" lon="12.325596942494151"><ele>32.0</ele><time>2026-04-12T10:23:53Z</time></trkpt></trkseg></trk></gpx>